<?xml version='1.0' encoding='UTF-8'?><gpx version="1.1" creator="JPX - https://github.com/jenetics/jpx" xmlns="http://www.topografix.com/GPX/1/1"><trk><trkseg><trkpt lat="43.24633311179698" lon="13.000162123363905"><ele>370.0</ele><time>2026-04-11T07:07:04.645Z</time></trkpt><trkpt lat="43.24651706361228" lon="13.000837777364561"><ele>370.0</ele><time>2026-04-11T07:07:11.188Z</time></trkpt><trkpt lat="43.246797457599506" lon="13.00145245525139"><ele>372.0</ele><time>2026-04-11T07:07:22.395Z</time></trkpt><trkpt lat="43.24619469326756" lon="13.000287686397506"><ele>372.0</ele><time>2026-04-11T07:07:41.795Z</time></trkpt><trkpt lat="43.24647416495278" lon="13.000063291063087"><ele>372.0</ele><time>2026-04-11T07:07:45.929Z</time></trkpt><trkpt lat="43.24642742366936" lon="13.000000942941405"><ele>372.0</ele><time>2026-04-11T07:07:48.929Z</time></trkpt><trkpt lat="43.246372209708035" lon="12.999933243046858"><ele>372.0</ele><time>2026-04-11T07:07:51.93Z</time></trkpt><trkpt lat="43.246319963346174" lon="12.999865478392447"><ele>372.0</ele><time>2026-04-11T07:07:54.93Z</time></trkpt><trkpt lat="43.2462940920907" lon="12.999742246933991"><ele>372.0</ele><time>2026-04-11T07:07:56.93Z</time></trkpt><trkpt lat="43.24629214883644" lon="12.999632466114548"><ele>372.0</ele><time>2026-04-11T07:07:59.93Z</time></trkpt><trkpt lat="43.246332358560664" lon="12.999546065012561"><ele>372.0</ele><time>2026-04-11T07:08:02.93Z</time></trkpt><trkpt lat="43.24635689641684" lon="12.999425722526722"><ele>372.0</ele><time>2026-04-11T07:08:05.93Z</time></trkpt><trkpt lat="43.24634420805043" lon="12.999316790582265"><ele>372.0</ele><time>2026-04-11T07:08:08.93Z</time></trkpt><trkpt lat="43.246320037150305" lon="12.999227952871365"><ele>372.0</ele><time>2026-04-11T07:08:14.93Z</time></trkpt><trkpt lat="43.24631096586466" lon="12.999107691896624"><ele>372.0</ele><time>2026-04-11T07:08:21.93Z</time></trkpt><trkpt lat="43.24627129308694" lon="12.999026276788223"><ele>372.0</ele><time>2026-04-11T07:08:26.93Z</time></trkpt><trkpt lat="43.24624985873369" lon="12.998933640580365"><ele>372.0</ele><time>2026-04-11T07:08:28.93Z</time></trkpt><trkpt lat="43.24624242323319" lon="12.998819194528561"><ele>372.0</ele><time>2026-04-11T07:08:29.93Z</time></trkpt><trkpt lat="43.24620810174813" lon="12.99871282729461"><ele>371.75</ele><time>2026-04-11T07:08:31.93Z</time></trkpt><trkpt lat="43.246141901535104" lon="12.998550393524754"><ele>371.5</ele><time>2026-04-11T07:08:33.93Z</time></trkpt><trkpt lat="43.24611016596808" lon="12.998389886412928"><ele>371.25</ele><time>2026-04-11T07:08:35.93Z</time></trkpt><trkpt lat="43.24607843040106" lon="12.998229379384723"><ele>371.0</ele><time>2026-04-11T07:08:37.93Z</time></trkpt><trkpt lat="43.246041419137455" lon="12.998029400714904"><ele>371.0</ele><time>2026-04-11T07:08:39.93Z</time></trkpt><trkpt lat="43.245994363500536" lon="12.997959841701055"><ele>371.0</ele><time>2026-04-11T07:08:40.93Z</time></trkpt><trkpt lat="43.24594730786362" lon="12.99789028274094"><ele>371.0</ele><time>2026-04-11T07:08:41.93Z</time></trkpt><trkpt lat="43.24585485204006" lon="12.997780616482926"><ele>371.0</ele><time>2026-04-11T07:08:43.93Z</time></trkpt><trkpt lat="43.245783544356215" lon="12.997785339991376"><ele>371.0</ele><time>2026-04-11T07:08:44.93Z</time></trkpt><trkpt lat="43.24571197581937" lon="12.997780057869313"><ele>371.0</ele><time>2026-04-11T07:08:47.93Z</time></trkpt><trkpt lat="43.24577073266688" lon="12.997813935311283"><ele>371.0</ele><time>2026-04-11T07:08:49.929Z</time></trkpt><trkpt lat="43.245834159190586" lon="12.997866753212607"><ele>371.0</ele><time>2026-04-11T07:08:50.929Z</time></trkpt><trkpt lat="43.245944622460826" lon="12.997740111250902"><ele>371.0</ele><time>2026-04-11T07:09:04.93Z</time></trkpt><trkpt lat="43.245915312342284" lon="12.997647574158849"><ele>371.0</ele><time>2026-04-11T07:09:10.93Z</time></trkpt><trkpt lat="43.245887703101" lon="12.997568535350293"><ele>371.0</ele><time>2026-04-11T07:09:12.93Z</time></trkpt><trkpt lat="43.245858535898506" lon="12.997472198123177"><ele>371.0</ele><time>2026-04-11T07:09:15.93Z</time></trkpt><trkpt lat="43.24583964136322" lon="12.99733023963131"><ele>370.0</ele><time>2026-04-11T07:09:17.93Z</time></trkpt><trkpt lat="43.24580445808164" lon="12.997219489997944"><ele>369.0</ele><time>2026-04-11T07:09:20.93Z</time></trkpt><trkpt lat="43.24577245175446" lon="12.997301664453573"><ele>368.0</ele><time>2026-04-11T07:09:23.93Z</time></trkpt><trkpt lat="43.24573411740603" lon="12.997214053439539"><ele>367.0</ele><time>2026-04-11T07:09:27.93Z</time></trkpt><trkpt lat="43.24566361344078" lon="12.997116242005102"><ele>366.0</ele><time>2026-04-11T07:09:32.93Z</time></trkpt><trkpt lat="43.24564122409275" lon="12.997227094246135"><ele>365.0</ele><time>2026-04-11T07:09:39.93Z</time></trkpt><trkpt lat="43.24563913541781" lon="12.997322037421274"><ele>365.7142857142857</ele><time>2026-04-11T07:09:46.93Z</time></trkpt><trkpt lat="43.24559743605497" lon="12.99738912048237"><ele>366.42857142857144</ele><time>2026-04-11T07:09:55.93Z</time></trkpt><trkpt lat="43.24553771283429" lon="12.997416935423338"><ele>367.1428571428571</ele><time>2026-04-11T07:10:05.93Z</time></trkpt><trkpt lat="43.2454857062973" lon="12.997466161573021"><ele>367.8571428571429</ele><time>2026-04-11T07:10:13.93Z</time></trkpt><trkpt lat="43.2454406273262" lon="12.9975280672526"><ele>368.57142857142856</ele><time>2026-04-11T07:10:15.931Z</time></trkpt><trkpt lat="43.245367110715186" lon="12.9975689584779"><ele>369.2857142857143</ele><time>2026-04-11T07:10:27.931Z</time></trkpt><trkpt lat="43.24533064643198" lon="12.997646215747073"><ele>370.0</ele><time>2026-04-11T07:10:37.931Z</time></trkpt><trkpt lat="43.24534511218007" lon="12.997739841799678"><ele>370.3333333333333</ele><time>2026-04-11T07:11:02.931Z</time></trkpt><trkpt lat="43.24534845435528" lon="12.997842671997963"><ele>370.66666666666663</ele><time>2026-04-11T07:11:16.931Z</time></trkpt><trkpt lat="43.24529474862065" lon="12.997897177938263"><ele>371.0</ele><time>2026-04-11T07:11:21.931Z</time></trkpt><trkpt lat="43.24530295576511" lon="12.998006650981544"><ele>371.3333333333333</ele><time>2026-04-11T07:11:29.932Z</time></trkpt><trkpt lat="43.245303234655175" lon="12.998096158111732"><ele>371.6666666666667</ele><time>2026-04-11T07:11:33.932Z</time></trkpt><trkpt lat="43.245295945188126" lon="12.998196280114612"><ele>372.0</ele><time>2026-04-11T07:11:38.932Z</time></trkpt><trkpt lat="43.24541653974995" lon="12.99823090981135"><ele>372.0</ele><time>2026-04-11T07:12:15.932Z</time></trkpt><trkpt lat="43.245561735167286" lon="12.998238477325804"><ele>372.0</ele><time>2026-04-11T07:12:49.933Z</time></trkpt><trkpt lat="43.2456696039331" lon="12.998283296821802"><ele>372.0</ele><time>2026-04-11T07:12:54.933Z</time></trkpt><trkpt lat="43.245982719199276" lon="12.998252369751192"><ele>371.8333333333333</ele><time>2026-04-11T07:13:07.933Z</time></trkpt><trkpt lat="43.246062015050036" lon="12.998272344833088"><ele>371.6666666666667</ele><time>2026-04-11T07:13:09.933Z</time></trkpt><trkpt lat="43.2461174425364" lon="12.998313912009198"><ele>371.5</ele><time>2026-04-11T07:13:15.933Z</time></trkpt><trkpt lat="43.24617252004772" lon="12.998403983132851"><ele>371.33333333333337</ele><time>2026-04-11T07:13:22.933Z</time></trkpt><trkpt lat="43.246221839890794" lon="12.998485483502714"><ele>371.1666666666667</ele><time>2026-04-11T07:13:26.933Z</time></trkpt><trkpt lat="43.246269734804194" lon="12.998569880406006"><ele>371.0</ele><time>2026-04-11T07:13:31.933Z</time></trkpt><trkpt lat="43.24628355985004" lon="12.998659094987717"><ele>371.57142857142856</ele><time>2026-04-11T07:13:37.933Z</time></trkpt><trkpt lat="43.246351903919624" lon="12.998691143562777"><ele>372.1428571428571</ele><time>2026-04-11T07:13:40.933Z</time></trkpt><trkpt lat="43.24635335973776" lon="12.998779767201528"><ele>372.7142857142857</ele><time>2026-04-11T07:13:46.933Z</time></trkpt><trkpt lat="43.246269072326896" lon="12.998809005575849"><ele>373.2857142857143</ele><time>2026-04-11T07:13:57.933Z</time></trkpt><trkpt lat="43.2463147088994" lon="12.998884295903165"><ele>373.85714285714283</ele><time>2026-04-11T07:14:02.933Z</time></trkpt><trkpt lat="43.24632514640467" lon="12.998972381293303"><ele>374.42857142857144</ele><time>2026-04-11T07:14:08.934Z</time></trkpt><trkpt lat="43.24626220629607" lon="12.999046944551433"><ele>375.0</ele><time>2026-04-11T07:14:13.934Z</time></trkpt><trkpt lat="43.246256852475916" lon="12.999159094521914"><ele>374.5</ele><time>2026-04-11T07:14:16.934Z</time></trkpt><trkpt lat="43.24627898720532" lon="12.999251617543107"><ele>374.0</ele><time>2026-04-11T07:14:19.934Z</time></trkpt><trkpt lat="43.24627725437821" lon="12.999341156930422"><ele>373.5</ele><time>2026-04-11T07:14:23.934Z</time></trkpt><trkpt lat="43.24628331150574" lon="12.999428051302955"><ele>373.0</ele><time>2026-04-11T07:14:28.934Z</time></trkpt><trkpt lat="43.24630949557733" lon="12.999512885974617"><ele>372.5</ele><time>2026-04-11T07:14:39.934Z</time></trkpt><trkpt lat="43.246373031412844" lon="12.999561496724942"><ele>372.0</ele><time>2026-04-11T07:14:43.934Z</time></trkpt><trkpt lat="43.24629274018775" lon="12.999838045309197"><ele>372.00000000000006</ele><time>2026-04-11T07:14:45.934Z</time></trkpt><trkpt lat="43.24632887633484" lon="12.999911369637404"><ele>372.0</ele><time>2026-04-11T07:14:54Z</time></trkpt><trkpt lat="43.246285584210476" lon="13.000025574961757"><ele>372.0</ele><time>2026-04-11T07:14:58Z</time></trkpt><trkpt lat="43.24623912215843" lon="13.000088391410538"><ele>372.0</ele><time>2026-04-11T07:15:03Z</time></trkpt><trkpt lat="43.24616940150334" lon="13.000125802962339"><ele>372.0</ele><time>2026-04-11T07:15:14Z</time></trkpt><trkpt lat="43.24614118061548" lon="13.000031178191398"><ele>372.00000000000006</ele><time>2026-04-11T07:15:32.001Z</time></trkpt><trkpt lat="43.24612228388655" lon="12.999934418721264"><ele>372.0</ele><time>2026-04-11T07:15:39.001Z</time></trkpt><trkpt lat="43.24612870684014" lon="12.999840063662043"><ele>372.00000000000006</ele><time>2026-04-11T07:15:47.001Z</time></trkpt><trkpt lat="43.246170384660665" lon="12.999754303305695"><ele>372.0</ele><time>2026-04-11T07:15:55.002Z</time></trkpt><trkpt lat="43.24622207105048" lon="12.99970216327251"><ele>372.0</ele><time>2026-04-11T07:16:05.002Z</time></trkpt><trkpt lat="43.24628429498828" lon="12.999729313373685"><ele>372.0</ele><time>2026-04-11T07:16:21.002Z</time></trkpt><trkpt lat="43.24627328046003" lon="12.999814981433829"><ele>372.0</ele><time>2026-04-11T07:16:43.003Z</time></trkpt><trkpt lat="43.24623728941905" lon="12.999886786129036"><ele>372.00000000000006</ele><time>2026-04-11T07:17:09.004Z</time></trkpt><trkpt lat="43.24620608858938" lon="12.999962180684838"><ele>372.0</ele><time>2026-04-11T07:17:43.005Z</time></trkpt><trkpt lat="43.24615380662199" lon="13.00003191186078"><ele>372.0</ele><time>2026-04-11T07:17:49.005Z</time></trkpt><trkpt lat="43.24609662707567" lon="13.000084202823166"><ele>372.0</ele><time>2026-04-11T07:17:52.005Z</time></trkpt><trkpt lat="43.246038835300006" lon="13.000168631101475"><ele>372.0</ele><time>2026-04-11T07:17:54.005Z</time></trkpt><trkpt lat="43.24597480075024" lon="13.000253358788868"><ele>372.0</ele><time>2026-04-11T07:17:56.005Z</time></trkpt><trkpt lat="43.245907859288664" lon="13.000340776933438"><ele>372.0</ele><time>2026-04-11T07:17:58.005Z</time></trkpt><trkpt lat="43.24583374606217" lon="13.000425147143005"><ele>372.0</ele><time>2026-04-11T07:18:00.005Z</time></trkpt><trkpt lat="43.24576468235" lon="13.000512763506944"><ele>372.0</ele><time>2026-04-11T07:18:02.005Z</time></trkpt><trkpt lat="43.24571282423004" lon="13.000589203045404"><ele>372.0</ele><time>2026-04-11T07:18:04.005Z</time></trkpt><trkpt lat="43.24566180503232" lon="13.000651176309008"><ele>372.0</ele><time>2026-04-11T07:18:07.005Z</time></trkpt><trkpt lat="43.24560015755888" lon="13.000694383841628"><ele>372.0</ele><time>2026-04-11T07:18:10.005Z</time></trkpt><trkpt lat="43.2455374747969" lon="13.00074966827831"><ele>372.0</ele><time>2026-04-11T07:18:14.005Z</time></trkpt><trkpt lat="43.24562597334602" lon="13.000566374895879"><ele>372.0</ele><time>2026-04-11T07:18:17.005Z</time></trkpt><trkpt lat="43.24595699764045" lon="13.000656733566984"><ele>372.0</ele><time>2026-04-11T07:18:21.006Z</time></trkpt><trkpt lat="43.246043812512426" lon="13.00057000381852"><ele>372.0</ele><time>2026-04-11T07:18:23.006Z</time></trkpt><trkpt lat="43.2460960803925" lon="13.00051522518095"><ele>372.0</ele><time>2026-04-11T07:18:25.006Z</time></trkpt><trkpt lat="43.24612895735556" lon="13.000433464174234"><ele>372.0</ele><time>2026-04-11T07:18:27.006Z</time></trkpt><trkpt lat="43.24614631208801" lon="13.000331107042301"><ele>372.0</ele><time>2026-04-11T07:18:30.006Z</time></trkpt><trkpt lat="43.24621522518909" lon="13.000325398416933"><ele>372.0</ele><time>2026-04-11T07:18:50.006Z</time></trkpt><trkpt lat="43.246282315660466" lon="13.000361849338878"><ele>372.0</ele><time>2026-04-11T07:18:57.007Z</time></trkpt><trkpt lat="43.24641813062468" lon="13.000385470729002"><ele>372.0</ele><time>2026-04-11T07:19:13.007Z</time></trkpt><trkpt lat="43.24636079074213" lon="13.00043562209205"><ele>372.0</ele><time>2026-04-11T07:19:53.008Z</time></trkpt><trkpt lat="43.246415281157816" lon="13.00054619068409"><ele>372.0</ele><time>2026-04-11T07:19:55.008Z</time></trkpt><trkpt lat="43.24645692914405" lon="13.000680107955176"><ele>372.0</ele><time>2026-04-11T07:19:57.008Z</time></trkpt><trkpt lat="43.24650702017507" lon="13.000793371794165"><ele>371.6666666666667</ele><time>2026-04-11T07:19:59.008Z</time></trkpt><trkpt lat="43.24656380999989" lon="13.000921607047564"><ele>371.3333333333333</ele><time>2026-04-11T07:20:01.008Z</time></trkpt><trkpt lat="43.24660882954008" lon="13.001023030320555"><ele>371.0</ele><time>2026-04-11T07:20:02.008Z</time></trkpt><trkpt lat="43.246652282750944" lon="13.001120743869832"><ele>370.66666666666663</ele><time>2026-04-11T07:20:03.008Z</time></trkpt><trkpt lat="43.24669521410585" lon="13.001217354111219"><ele>370.3333333333333</ele><time>2026-04-11T07:20:04.008Z</time></trkpt><trkpt lat="43.246728393984384" lon="13.001292020205174"><ele>370.0</ele><time>2026-04-11T07:20:05.008Z</time></trkpt><trkpt lat="43.24676860989252" lon="13.001382519774305"><ele>370.0</ele><time>2026-04-11T07:20:06.008Z</time></trkpt><trkpt lat="43.246804404368476" lon="13.00146390399096"><ele>370.0</ele><time>2026-04-11T07:20:07.009Z</time></trkpt><trkpt lat="43.24684366645293" lon="13.001553216136914"><ele>370.0</ele><time>2026-04-11T07:20:08.009Z</time></trkpt><trkpt lat="43.24688623179252" lon="13.001650042422966"><ele>370.0</ele><time>2026-04-11T07:20:09.009Z</time></trkpt><trkpt lat="43.246933742081" lon="13.001758117327675"><ele>370.0</ele><time>2026-04-11T07:20:10.009Z</time></trkpt><trkpt lat="43.24697604710322" lon="13.001854351454867"><ele>370.0</ele><time>2026-04-11T07:20:11.009Z</time></trkpt><trkpt lat="43.24701940436152" lon="13.001952979170333"><ele>369.6</ele><time>2026-04-11T07:20:12.009Z</time></trkpt><trkpt lat="43.24707286919688" lon="13.002074580483368"><ele>369.2</ele><time>2026-04-11T07:20:13.009Z</time></trkpt><trkpt lat="43.24713259008106" lon="13.00220922720808"><ele>368.79999999999995</ele><time>2026-04-11T07:20:14.009Z</time></trkpt><trkpt lat="43.247215790417464" lon="13.002334110843204"><ele>368.4</ele><time>2026-04-11T07:20:15.009Z</time></trkpt><trkpt lat="43.2472828236385" lon="13.002431041859756"><ele>368.0</ele><time>2026-04-11T07:20:16.009Z</time></trkpt><trkpt lat="43.24732899907847" lon="13.002563657248647"><ele>367.79999999999995</ele><time>2026-04-11T07:20:17.009Z</time></trkpt><trkpt lat="43.24741128778124" lon="13.002672652837093"><ele>367.6</ele><time>2026-04-11T07:20:18.009Z</time></trkpt><trkpt lat="43.24742911988842" lon="13.002799979156762"><ele>367.4</ele><time>2026-04-11T07:20:19.009Z</time></trkpt><trkpt lat="43.24744643424975" lon="13.002923232226406"><ele>367.20000000000005</ele><time>2026-04-11T07:20:20.009Z</time></trkpt><trkpt lat="43.24747058657985" lon="13.003049196975606"><ele>367.0</ele><time>2026-04-11T07:20:21.009Z</time></trkpt><trkpt lat="43.247497455324215" lon="13.003192229946707"><ele>367.0</ele><time>2026-04-11T07:20:22.009Z</time></trkpt><trkpt lat="43.24751128684386" lon="13.003351855614232"><ele>367.0</ele><time>2026-04-11T07:20:23.009Z</time></trkpt><trkpt lat="43.24750048013547" lon="13.003506343033152"><ele>367.0</ele><time>2026-04-11T07:20:24.009Z</time></trkpt><trkpt lat="43.247488205296065" lon="13.003653325712726"><ele>367.0</ele><time>2026-04-11T07:20:25.009Z</time></trkpt><trkpt lat="43.24749303874326" lon="13.003829153697536"><ele>367.0</ele><time>2026-04-11T07:20:26.009Z</time></trkpt><trkpt lat="43.24748359564996" lon="13.00397772573065"><ele>367.0</ele><time>2026-04-11T07:20:27.009Z</time></trkpt><trkpt lat="43.24748539859867" lon="13.00411953759319"><ele>367.0</ele><time>2026-04-11T07:20:28.009Z</time></trkpt><trkpt lat="43.247482758796295" lon="13.004244314951954"><ele>367.0</ele><time>2026-04-11T07:20:29.009Z</time></trkpt><trkpt lat="43.2474602426305" lon="13.004347264901867"><ele>367.0</ele><time>2026-04-11T07:20:30.009Z</time></trkpt><trkpt lat="43.24745461662159" lon="13.00443629110076"><ele>367.0</ele><time>2026-04-11T07:20:31.009Z</time></trkpt><trkpt lat="43.247431414782405" lon="13.004547494447502"><ele>367.0</ele><time>2026-04-11T07:20:33.009Z</time></trkpt><trkpt lat="43.24737916495186" lon="13.004647115058521"><ele>367.0</ele><time>2026-04-11T07:20:35.009Z</time></trkpt><trkpt lat="43.247322058343414" lon="13.004722925381866"><ele>367.0</ele><time>2026-04-11T07:20:37.009Z</time></trkpt><trkpt lat="43.247284188697016" lon="13.00488247571764"><ele>367.0</ele><time>2026-04-11T07:20:39.009Z</time></trkpt><trkpt lat="43.24738643308766" lon="13.004910648487849"><ele>367.0</ele><time>2026-04-11T07:20:41.009Z</time></trkpt><trkpt lat="43.24748105386934" lon="13.004990408871889"><ele>366.5</ele><time>2026-04-11T07:20:43.01Z</time></trkpt><trkpt lat="43.2475413510305" lon="13.005056632963008"><ele>366.0</ele><time>2026-04-11T07:20:44.01Z</time></trkpt><trkpt lat="43.24761268065396" lon="13.005133843906796"><ele>365.5</ele><time>2026-04-11T07:20:45.01Z</time></trkpt><trkpt lat="43.24768516565063" lon="13.005211909884776"><ele>365.0</ele><time>2026-04-11T07:20:46.01Z</time></trkpt><trkpt lat="43.24775602960111" lon="13.005288230003334"><ele>364.5</ele><time>2026-04-11T07:20:47.01Z</time></trkpt><trkpt lat="43.24782927727588" lon="13.005367553783437"><ele>364.0</ele><time>2026-04-11T07:20:48.01Z</time></trkpt><trkpt lat="43.24790581572126" lon="13.005450762845095"><ele>364.0</ele><time>2026-04-11T07:20:49.01Z</time></trkpt><trkpt lat="43.24798053330048" lon="13.005531992341721"><ele>364.0</ele><time>2026-04-11T07:20:50.01Z</time></trkpt><trkpt lat="43.24804945061144" lon="13.005606977014587"><ele>364.0</ele><time>2026-04-11T07:20:51.01Z</time></trkpt><trkpt lat="43.24810260688886" lon="13.005664811893114"><ele>364.0</ele><time>2026-04-11T07:20:52.01Z</time></trkpt><trkpt lat="43.24824264211811" lon="13.0057235899595"><ele>364.0</ele><time>2026-04-11T07:20:55.01Z</time></trkpt><trkpt lat="43.248310831753706" lon="13.005777223280282"><ele>364.0</ele><time>2026-04-11T07:20:59.01Z</time></trkpt><trkpt lat="43.248353804963955" lon="13.005840397550697"><ele>364.0</ele><time>2026-04-11T07:21:20.01Z</time></trkpt><trkpt lat="43.24841794138105" lon="13.005829904134682"><ele>364.0</ele><time>2026-04-11T07:21:35.01Z</time></trkpt><trkpt lat="43.248448978027874" lon="13.005752845668622"><ele>364.0</ele><time>2026-04-11T07:21:57.011Z</time></trkpt><trkpt lat="43.24842289523725" lon="13.005667785945002"><ele>364.0</ele><time>2026-04-11T07:22:02.01Z</time></trkpt><trkpt lat="43.24831300994932" lon="13.005584806181208"><ele>364.0</ele><time>2026-04-11T07:24:18Z</time></trkpt><trkpt lat="43.24823964650384" lon="13.005527885841428"><ele>364.0</ele><time>2026-04-11T07:24:19Z</time></trkpt><trkpt lat="43.24810814998035" lon="13.0055398753337"><ele>364.0</ele><time>2026-04-11T07:24:20Z</time></trkpt><trkpt lat="43.24802928119618" lon="13.005454064859437"><ele>364.0</ele><time>2026-04-11T07:24:21Z</time></trkpt><trkpt lat="43.24794366276193" lon="13.00536098110415"><ele>364.0</ele><time>2026-04-11T07:24:22Z</time></trkpt><trkpt lat="43.24786154037653" lon="13.005271701443203"><ele>364.0</ele><time>2026-04-11T07:24:23Z</time></trkpt><trkpt lat="43.247782094178085" lon="13.005162686485338"><ele>364.0</ele><time>2026-04-11T07:24:24Z</time></trkpt><trkpt lat="43.24769387379368" lon="13.005084493405743"><ele>364.0</ele><time>2026-04-11T07:24:25Z</time></trkpt><trkpt lat="43.24762348698856" lon="13.005017395719937"><ele>364.0</ele><time>2026-04-11T07:24:26Z</time></trkpt><trkpt lat="43.247569921808534" lon="13.00495168404599"><ele>364.0</ele><time>2026-04-11T07:24:27Z</time></trkpt><trkpt lat="43.24751798880892" lon="13.004899526014688"><ele>364.0</ele><time>2026-04-11T07:24:28Z</time></trkpt><trkpt lat="43.247437630510156" lon="13.004635232962878"><ele>364.25</ele><time>2026-04-11T07:24:30Z</time></trkpt><trkpt lat="43.24749857202661" lon="13.004485727526664"><ele>364.5</ele><time>2026-04-11T07:24:31Z</time></trkpt><trkpt lat="43.24751082237159" lon="13.004340299152926"><ele>364.75</ele><time>2026-04-11T07:24:32Z</time></trkpt><trkpt lat="43.24752192229122" lon="13.004164653553236"><ele>365.0</ele><time>2026-04-11T07:24:33Z</time></trkpt><trkpt lat="43.247533332077005" lon="13.003984104619585"><ele>365.5</ele><time>2026-04-11T07:24:34Z</time></trkpt><trkpt lat="43.247526504598184" lon="13.00380660130352"><ele>366.0</ele><time>2026-04-11T07:24:35Z</time></trkpt><trkpt lat="43.247540931632656" lon="13.003617855098922"><ele>366.5</ele><time>2026-04-11T07:24:36Z</time></trkpt><trkpt lat="43.247556943569776" lon="13.003425220900313"><ele>367.0</ele><time>2026-04-11T07:24:37Z</time></trkpt><trkpt lat="43.24756111194202" lon="13.003250255140918"><ele>367.0</ele><time>2026-04-11T07:24:38Z</time></trkpt><trkpt lat="43.24755450635464" lon="13.003086842303432"><ele>367.0</ele><time>2026-04-11T07:24:39Z</time></trkpt><trkpt lat="43.24753836447153" lon="13.00295535385298"><ele>367.0</ele><time>2026-04-11T07:24:40Z</time></trkpt><trkpt lat="43.247502361667756" lon="13.002841569618031"><ele>367.0</ele><time>2026-04-11T07:24:41Z</time></trkpt><trkpt lat="43.24751404392209" lon="13.002730187210533"><ele>367.0</ele><time>2026-04-11T07:24:42Z</time></trkpt><trkpt lat="43.247515825047884" lon="13.002630450257085"><ele>367.20000000000005</ele><time>2026-04-11T07:24:43Z</time></trkpt><trkpt lat="43.247516988484406" lon="13.0024716192649"><ele>367.4</ele><time>2026-04-11T07:24:45Z</time></trkpt><trkpt lat="43.24749206109454" lon="13.00233139342799"><ele>367.6</ele><time>2026-04-11T07:24:47Z</time></trkpt><trkpt lat="43.24739496237238" lon="13.002370731151132"><ele>367.79999999999995</ele><time>2026-04-11T07:24:48Z</time></trkpt><trkpt lat="43.247314566952014" lon="13.002364085827853"><ele>368.0</ele><time>2026-04-11T07:24:49Z</time></trkpt><trkpt lat="43.24723924160517" lon="13.002326218797373"><ele>368.0</ele><time>2026-04-11T07:24:50Z</time></trkpt><trkpt lat="43.24717360415259" lon="13.002276055856035"><ele>368.0</ele><time>2026-04-11T07:24:51Z</time></trkpt><trkpt lat="43.24712392324983" lon="13.002174797747003"><ele>368.0</ele><time>2026-04-11T07:24:52Z</time></trkpt><trkpt lat="43.24709560750207" lon="13.00203792649293"><ele>368.0</ele><time>2026-04-11T07:24:53Z</time></trkpt><trkpt lat="43.24703170099055" lon="13.00190846300803"><ele>368.0</ele><time>2026-04-11T07:24:54Z</time></trkpt><trkpt lat="43.24696833978031" lon="13.001789897924844"><ele>368.0</ele><time>2026-04-11T07:24:55Z</time></trkpt><trkpt lat="43.246912913646234" lon="13.00166628951168"><ele>368.0</ele><time>2026-04-11T07:24:56Z</time></trkpt><trkpt lat="43.24686012349503" lon="13.001540841447259"><ele>368.0</ele><time>2026-04-11T07:24:57Z</time></trkpt><trkpt lat="43.246803246993956" lon="13.001415833758669"><ele>368.0</ele><time>2026-04-11T07:24:58Z</time></trkpt><trkpt lat="43.246753761754" lon="13.001298508796664"><ele>368.0</ele><time>2026-04-11T07:24:59Z</time></trkpt><trkpt lat="43.24670126674489" lon="13.001181950883783"><ele>368.4</ele><time>2026-04-11T07:25:00Z</time></trkpt><trkpt lat="43.24664756148341" lon="13.001058535449468"><ele>368.79999999999995</ele><time>2026-04-11T07:25:01Z</time></trkpt><trkpt lat="43.246597190154546" lon="13.000933927407045"><ele>369.2</ele><time>2026-04-11T07:25:02Z</time></trkpt><trkpt lat="43.2465486599671" lon="13.000816889153409"><ele>369.6</ele><time>2026-04-11T07:25:03Z</time></trkpt><trkpt lat="43.246497994895996" lon="13.000708508361189"><ele>370.0</ele><time>2026-04-11T07:25:04Z</time></trkpt><trkpt lat="43.24645347269769" lon="13.000607123607423"><ele>370.3333333333333</ele><time>2026-04-11T07:25:05Z</time></trkpt><trkpt lat="43.24640867603306" lon="13.000503201256292"><ele>370.66666666666663</ele><time>2026-04-11T07:25:06Z</time></trkpt><trkpt lat="43.24636840068309" lon="13.0004085122605"><ele>371.0</ele><time>2026-04-11T07:25:07Z</time></trkpt><trkpt lat="43.246328828280454" lon="13.000316952777842"><ele>371.3333333333333</ele><time>2026-04-11T07:25:08Z</time></trkpt><trkpt lat="43.24629049626205" lon="13.000241152061546"><ele>371.6666666666667</ele><time>2026-04-11T07:25:09Z</time></trkpt><trkpt lat="43.246233329674695" lon="13.000124560790802"><ele>372.0</ele><time>2026-04-11T07:25:11Z</time></trkpt><trkpt lat="43.24620120253357" lon="13.000043911856428"><ele>372.00000000000006</ele><time>2026-04-11T07:25:19Z</time></trkpt><trkpt lat="43.24621961411719" lon="12.999944921907174"><ele>372.0</ele><time>2026-04-11T07:25:32Z</time></trkpt><trkpt lat="43.246252835208985" lon="12.99985496159873"><ele>372.0</ele><time>2026-04-11T07:25:35Z</time></trkpt><trkpt lat="43.24619104675026" lon="12.999833354669944"><ele>372.0</ele><time>2026-04-11T07:25:56Z</time></trkpt><trkpt lat="43.24612625526468" lon="12.999776899104798"><ele>372.0</ele><time>2026-04-11T07:25:58Z</time></trkpt><trkpt lat="43.246092339458926" lon="12.999679241932345"><ele>372.00000000000006</ele><time>2026-04-11T07:25:59Z</time></trkpt><trkpt lat="43.24604232065666" lon="12.999613738195995"><ele>372.0</ele><time>2026-04-11T07:26:00Z</time></trkpt><trkpt lat="43.24598767962473" lon="12.999540804290827"><ele>372.0</ele><time>2026-04-11T07:26:02Z</time></trkpt><trkpt lat="43.24587330341172" lon="12.999599872115121"><ele>372.0</ele><time>2026-04-11T07:26:04Z</time></trkpt><trkpt lat="43.245791101880464" lon="12.99966971083674"><ele>372.0</ele><time>2026-04-11T07:26:05Z</time></trkpt><trkpt lat="43.245715682114465" lon="12.999759594242219"><ele>372.0</ele><time>2026-04-11T07:26:06Z</time></trkpt><trkpt lat="43.24563725274315" lon="12.999853064411978"><ele>372.0</ele><time>2026-04-11T07:26:07Z</time></trkpt><trkpt lat="43.24555434798563" lon="12.999951868244954"><ele>372.20000000000005</ele><time>2026-04-11T07:26:08Z</time></trkpt><trkpt lat="43.245482261657415" lon="13.000037778934427"><ele>372.4</ele><time>2026-04-11T07:26:09Z</time></trkpt><trkpt lat="43.245431430795385" lon="13.00009835789341"><ele>372.6</ele><time>2026-04-11T07:26:10Z</time></trkpt><trkpt lat="43.24537390778034" lon="13.000166912390842"><ele>372.79999999999995</ele><time>2026-04-11T07:26:12Z</time></trkpt><trkpt lat="43.245269364755046" lon="13.000018604936207"><ele>373.0</ele><time>2026-04-11T07:26:17Z</time></trkpt><trkpt lat="43.2452217460925" lon="12.999911092395795"><ele>373.0</ele><time>2026-04-11T07:26:18Z</time></trkpt><trkpt lat="43.245177508469034" lon="12.99981253050962"><ele>373.0</ele><time>2026-04-11T07:26:19Z</time></trkpt><trkpt lat="43.24513249613947" lon="12.99971225362043"><ele>373.0</ele><time>2026-04-11T07:26:20Z</time></trkpt><trkpt lat="43.24516783505464" lon="12.999541073372987"><ele>373.0</ele><time>2026-04-11T07:26:21Z</time></trkpt><trkpt lat="43.24511714704155" lon="12.999422962469469"><ele>373.0</ele><time>2026-04-11T07:26:22Z</time></trkpt><trkpt lat="43.24504946500703" lon="12.9993043860016"><ele>373.0</ele><time>2026-04-11T07:26:23Z</time></trkpt><trkpt lat="43.244981349029175" lon="12.99916346882484"><ele>373.0</ele><time>2026-04-11T07:26:24Z</time></trkpt><trkpt lat="43.24483895863713" lon="12.999062404995763"><ele>373.0</ele><time>2026-04-11T07:26:25Z</time></trkpt><trkpt lat="43.24476280931812" lon="12.99889116691546"><ele>373.0</ele><time>2026-04-11T07:26:26Z</time></trkpt><trkpt lat="43.24468534202128" lon="12.99871613231614"><ele>373.0</ele><time>2026-04-11T07:26:27Z</time></trkpt><trkpt lat="43.24460885009918" lon="12.998539963756759"><ele>373.0</ele><time>2026-04-11T07:26:28Z</time></trkpt><trkpt lat="43.2445300630222" lon="12.99835850922805"><ele>373.0</ele><time>2026-04-11T07:26:29Z</time></trkpt><trkpt lat="43.24444981328822" lon="12.998173686008712"><ele>373.0</ele><time>2026-04-11T07:26:30Z</time></trkpt><trkpt lat="43.244365405452726" lon="12.997979286303076"><ele>373.0</ele><time>2026-04-11T07:26:31Z</time></trkpt><trkpt lat="43.24427863881328" lon="12.997780965659336"><ele>373.0</ele><time>2026-04-11T07:26:32Z</time></trkpt><trkpt lat="43.24417889013761" lon="12.997555298012134"><ele>373.0</ele><time>2026-04-11T07:26:33Z</time></trkpt><trkpt lat="43.2440598122421" lon="12.99733559061735"><ele>373.0</ele><time>2026-04-11T07:26:34Z</time></trkpt><trkpt lat="43.24395413443694" lon="12.997108832610893"><ele>373.0</ele><time>2026-04-11T07:26:35Z</time></trkpt><trkpt lat="43.24386162026068" lon="12.99689234801049"><ele>373.66666666666663</ele><time>2026-04-11T07:26:36Z</time></trkpt><trkpt lat="43.243754116828626" lon="12.996676695528635"><ele>374.3333333333333</ele><time>2026-04-11T07:26:37Z</time></trkpt><trkpt lat="43.243677095729154" lon="12.996463818393995"><ele>375.0</ele><time>2026-04-11T07:26:38Z</time></trkpt><trkpt lat="43.243594103234265" lon="12.996232290893737"><ele>375.6666666666667</ele><time>2026-04-11T07:26:39Z</time></trkpt><trkpt lat="43.243495152689185" lon="12.99601234030586"><ele>376.33333333333337</ele><time>2026-04-11T07:26:40Z</time></trkpt><trkpt lat="43.24338679171279" lon="12.995795117816373"><ele>377.0</ele><time>2026-04-11T07:26:41Z</time></trkpt><trkpt lat="43.243283171647285" lon="12.995592904327276"><ele>377.33333333333337</ele><time>2026-04-11T07:26:42Z</time></trkpt><trkpt lat="43.24318458288074" lon="12.995385363461525"><ele>377.6666666666667</ele><time>2026-04-11T07:26:43Z</time></trkpt><trkpt lat="43.24309153361462" lon="12.995204475943359"><ele>378.0</ele><time>2026-04-11T07:26:44Z</time></trkpt><trkpt lat="43.24299237698797" lon="12.995002114414202"><ele>380.0</ele><time>2026-04-11T07:26:45Z</time></trkpt><trkpt lat="43.2429073130406" lon="12.994785509478367"><ele>382.0</ele><time>2026-04-11T07:26:46Z</time></trkpt><trkpt lat="43.24281835616587" lon="12.994603444359354"><ele>384.0</ele><time>2026-04-11T07:26:47Z</time></trkpt><trkpt lat="43.24273560339926" lon="12.99444553460988"><ele>384.0</ele><time>2026-04-11T07:26:48Z</time></trkpt><trkpt lat="43.242636036909936" lon="12.994275355082683"><ele>384.0</ele><time>2026-04-11T07:26:49Z</time></trkpt><trkpt lat="43.24253248896959" lon="12.994122367474004"><ele>384.0</ele><time>2026-04-11T07:26:50Z</time></trkpt><trkpt lat="43.2424198557201" lon="12.99399581573427"><ele>384.0</ele><time>2026-04-11T07:26:51Z</time></trkpt><trkpt lat="43.24231582836552" lon="12.993870282541659"><ele>384.0</ele><time>2026-04-11T07:26:52Z</time></trkpt><trkpt lat="43.242218538087215" lon="12.993752624548627"><ele>384.0</ele><time>2026-04-11T07:26:53Z</time></trkpt><trkpt lat="43.24211774596497" lon="12.993630677382614"><ele>384.0</ele><time>2026-04-11T07:26:54Z</time></trkpt><trkpt lat="43.24201333508967" lon="12.99353036497237"><ele>385.2</ele><time>2026-04-11T07:26:55Z</time></trkpt><trkpt lat="43.24190149877367" lon="12.993464065432349"><ele>386.4</ele><time>2026-04-11T07:26:56Z</time></trkpt><trkpt lat="43.24178760944498" lon="12.99342781597717"><ele>387.6</ele><time>2026-04-11T07:26:57Z</time></trkpt><trkpt lat="43.24169328385238" lon="12.993363440144579"><ele>388.8</ele><time>2026-04-11T07:26:58Z</time></trkpt><trkpt lat="43.24163319266102" lon="12.993294266735996"><ele>390.0</ele><time>2026-04-11T07:26:59Z</time></trkpt><trkpt lat="43.24157715982315" lon="12.993200146203641"><ele>390.0</ele><time>2026-04-11T07:27:00Z</time></trkpt><trkpt lat="43.241568094988075" lon="12.993049971981275"><ele>390.0</ele><time>2026-04-11T07:27:01Z</time></trkpt><trkpt lat="43.241580230253646" lon="12.992910528961627"><ele>390.0</ele><time>2026-04-11T07:27:02Z</time></trkpt><trkpt lat="43.24162501776875" lon="12.992792086556928"><ele>390.0</ele><time>2026-04-11T07:27:03Z</time></trkpt><trkpt lat="43.24171167837281" lon="12.992656447726409"><ele>390.0</ele><time>2026-04-11T07:27:04Z</time></trkpt><trkpt lat="43.24178978136876" lon="12.992511295491774"><ele>388.66666666666663</ele><time>2026-04-11T07:27:05Z</time></trkpt><trkpt lat="43.24191830012362" lon="12.992420287357467"><ele>387.3333333333333</ele><time>2026-04-11T07:27:06Z</time></trkpt><trkpt lat="43.24205748295482" lon="12.992271193160708"><ele>386.0</ele><time>2026-04-11T07:27:07Z</time></trkpt><trkpt lat="43.242196075216384" lon="12.992133246620448"><ele>384.0</ele><time>2026-04-11T07:27:08Z</time></trkpt><trkpt lat="43.24235597962254" lon="12.992014054492646"><ele>382.0</ele><time>2026-04-11T07:27:09Z</time></trkpt><trkpt lat="43.24253903023493" lon="12.991890363243705"><ele>380.0</ele><time>2026-04-11T07:27:10Z</time></trkpt><trkpt lat="43.242736414787636" lon="12.991750436383365"><ele>381.5</ele><time>2026-04-11T07:27:11Z</time></trkpt><trkpt lat="43.24294291054801" lon="12.991561646133128"><ele>383.0</ele><time>2026-04-11T07:27:12Z</time></trkpt><trkpt lat="43.2432045225376" lon="12.991373528983907"><ele>383.0</ele><time>2026-04-11T07:27:13Z</time></trkpt><trkpt lat="43.24340613951159" lon="12.991220355089624"><ele>383.0</ele><time>2026-04-11T07:27:14Z</time></trkpt><trkpt lat="43.24359353042779" lon="12.991063623291227"><ele>383.0</ele><time>2026-04-11T07:27:15Z</time></trkpt><trkpt lat="43.24377569475252" lon="12.990920550870362"><ele>383.0</ele><time>2026-04-11T07:27:16Z</time></trkpt><trkpt lat="43.243921414954386" lon="12.990807588821635"><ele>383.0</ele><time>2026-04-11T07:27:17Z</time></trkpt><trkpt lat="43.24406425285377" lon="12.990696861160314"><ele>382.5</ele><time>2026-04-11T07:27:18Z</time></trkpt><trkpt lat="43.244203292198534" lon="12.99058907814209"><ele>382.0</ele><time>2026-04-11T07:27:19Z</time></trkpt><trkpt lat="43.24433302236631" lon="12.990488351756689"><ele>381.5</ele><time>2026-04-11T07:27:20Z</time></trkpt><trkpt lat="43.244453062725235" lon="12.990393405340365"><ele>381.0</ele><time>2026-04-11T07:27:21Z</time></trkpt><trkpt lat="43.244566234690055" lon="12.990318864658565"><ele>381.0</ele><time>2026-04-11T07:27:22Z</time></trkpt><trkpt lat="43.24465690692395" lon="12.99026122981894"><ele>381.0</ele><time>2026-04-11T07:27:23Z</time></trkpt><trkpt lat="43.24473661808495" lon="12.990210562239831"><ele>381.0</ele><time>2026-04-11T07:27:24Z</time></trkpt><trkpt lat="43.24481090558066" lon="12.990258542530261"><ele>381.0</ele><time>2026-04-11T07:27:25Z</time></trkpt><trkpt lat="43.24491420600364" lon="12.990278783690355"><ele>381.0</ele><time>2026-04-11T07:27:26Z</time></trkpt><trkpt lat="43.24502437938241" lon="12.990262322357223"><ele>381.0</ele><time>2026-04-11T07:27:27Z</time></trkpt><trkpt lat="43.24512925719363" lon="12.990201656024745"><ele>381.0</ele><time>2026-04-11T07:27:28Z</time></trkpt><trkpt lat="43.24520249907793" lon="12.99012636467275"><ele>381.0</ele><time>2026-04-11T07:27:29Z</time></trkpt><trkpt lat="43.245264997003005" lon="12.990008721508438"><ele>381.0</ele><time>2026-04-11T07:27:30Z</time></trkpt><trkpt lat="43.24534069951052" lon="12.98988588601981"><ele>381.0</ele><time>2026-04-11T07:27:31Z</time></trkpt><trkpt lat="43.24538651508908" lon="12.989726669237779"><ele>381.75</ele><time>2026-04-11T07:27:32Z</time></trkpt><trkpt lat="43.24546526059492" lon="12.989605983918873"><ele>382.5</ele><time>2026-04-11T07:27:33Z</time></trkpt><trkpt lat="43.24558666637613" lon="12.98952887549516"><ele>383.25</ele><time>2026-04-11T07:27:34Z</time></trkpt><trkpt lat="43.24570172566391" lon="12.989434693709274"><ele>384.0</ele><time>2026-04-11T07:27:35Z</time></trkpt><trkpt lat="43.24580894029275" lon="12.98934693300195"><ele>384.0</ele><time>2026-04-11T07:27:36Z</time></trkpt><trkpt lat="43.245917826970235" lon="12.989261232709492"><ele>384.0</ele><time>2026-04-11T07:27:37Z</time></trkpt><trkpt lat="43.24603624335276" lon="12.989170758496225"><ele>384.0</ele><time>2026-04-11T07:27:38Z</time></trkpt><trkpt lat="43.24616436967564" lon="12.989072863762726"><ele>384.0</ele><time>2026-04-11T07:27:39Z</time></trkpt><trkpt lat="43.24629120331629" lon="12.98897750949942"><ele>383.5</ele><time>2026-04-11T07:27:40Z</time></trkpt><trkpt lat="43.24641107113939" lon="12.988880333197782"><ele>383.0</ele><time>2026-04-11T07:27:41Z</time></trkpt><trkpt lat="43.24652738134183" lon="12.98876802199818"><ele>382.5</ele><time>2026-04-11T07:27:42Z</time></trkpt><trkpt lat="43.24661366253918" lon="12.988630198809924"><ele>382.0</ele><time>2026-04-11T07:27:43Z</time></trkpt><trkpt lat="43.24669223057257" lon="12.988492952720376"><ele>381.25</ele><time>2026-04-11T07:27:44Z</time></trkpt><trkpt lat="43.24673985097446" lon="12.988331070612887"><ele>380.5</ele><time>2026-04-11T07:27:45Z</time></trkpt><trkpt lat="43.246742864070164" lon="12.988141444682556"><ele>379.75</ele><time>2026-04-11T07:27:46Z</time></trkpt><trkpt lat="43.24675235864602" lon="12.987957289253629"><ele>379.0</ele><time>2026-04-11T07:27:47Z</time></trkpt><trkpt lat="43.24674783646238" lon="12.98776882094882"><ele>379.0</ele><time>2026-04-11T07:27:48Z</time></trkpt><trkpt lat="43.24672259529615" lon="12.98758469117695"><ele>379.0</ele><time>2026-04-11T07:27:49Z</time></trkpt><trkpt lat="43.24671673809286" lon="12.987378365239678"><ele>379.0</ele><time>2026-04-11T07:27:50Z</time></trkpt><trkpt lat="43.24670608652513" lon="12.9871707518567"><ele>379.0</ele><time>2026-04-11T07:27:51Z</time></trkpt><trkpt lat="43.24670024907472" lon="12.986972866060063"><ele>378.0</ele><time>2026-04-11T07:27:52Z</time></trkpt><trkpt lat="43.2467106422027" lon="12.986820092135954"><ele>377.0</ele><time>2026-04-11T07:27:53Z</time></trkpt><trkpt lat="43.2467039473936" lon="12.98663843462576"><ele>376.0</ele><time>2026-04-11T07:27:54Z</time></trkpt><trkpt lat="43.24669708497102" lon="12.986440586896768"><ele>375.0</ele><time>2026-04-11T07:27:55Z</time></trkpt><trkpt lat="43.246688404444726" lon="12.986236963758627"><ele>375.25</ele><time>2026-04-11T07:27:56Z</time></trkpt><trkpt lat="43.24667977731543" lon="12.986037439955998"><ele>375.5</ele><time>2026-04-11T07:27:57Z</time></trkpt><trkpt lat="43.246671447129636" lon="12.985844783513055"><ele>375.75</ele><time>2026-04-11T07:27:58Z</time></trkpt><trkpt lat="43.24666277901172" lon="12.985649776392055"><ele>376.0</ele><time>2026-04-11T07:27:59Z</time></trkpt><trkpt lat="43.24666734665472" lon="12.98545367111487"><ele>376.0</ele><time>2026-04-11T07:28:00Z</time></trkpt><trkpt lat="43.24668752787413" lon="12.985258754596"><ele>376.0</ele><time>2026-04-11T07:28:01Z</time></trkpt><trkpt lat="43.24673194629732" lon="12.985086146888161"><ele>376.0</ele><time>2026-04-11T07:28:02Z</time></trkpt><trkpt lat="43.246800493108225" lon="12.984908758985663"><ele>376.0</ele><time>2026-04-11T07:28:03Z</time></trkpt><trkpt lat="43.246890085601706" lon="12.984723960581311"><ele>376.0</ele><time>2026-04-11T07:28:04Z</time></trkpt><trkpt lat="43.24698086717856" lon="12.984533860091998"><ele>376.0</ele><time>2026-04-11T07:28:05Z</time></trkpt><trkpt lat="43.24706806962747" lon="12.984344042977883"><ele>376.0</ele><time>2026-04-11T07:28:06Z</time></trkpt><trkpt lat="43.24715529150098" lon="12.984141562154539"><ele>376.0</ele><time>2026-04-11T07:28:07Z</time></trkpt><trkpt lat="43.247224250544186" lon="12.983897756915766"><ele>376.0</ele><time>2026-04-11T07:28:08Z</time></trkpt><trkpt lat="43.24729727553822" lon="12.983653483820085"><ele>376.0</ele><time>2026-04-11T07:28:09Z</time></trkpt><trkpt lat="43.247361939108224" lon="12.983420716391574"><ele>377.66666666666663</ele><time>2026-04-11T07:28:10Z</time></trkpt><trkpt lat="43.24743665854288" lon="12.983203722768044"><ele>379.3333333333333</ele><time>2026-04-11T07:28:11Z</time></trkpt><trkpt lat="43.24746585113526" lon="12.98297362395014"><ele>381.0</ele><time>2026-04-11T07:28:12Z</time></trkpt><trkpt lat="43.24748725227111" lon="12.982759462665207"><ele>381.0</ele><time>2026-04-11T07:28:13Z</time></trkpt><trkpt lat="43.24749528758062" lon="12.98252260433"><ele>381.0</ele><time>2026-04-11T07:28:14Z</time></trkpt><trkpt lat="43.24748551898896" lon="12.982318054576492"><ele>381.0</ele><time>2026-04-11T07:28:15Z</time></trkpt><trkpt lat="43.24759179268227" lon="12.982046160439904"><ele>381.6666666666667</ele><time>2026-04-11T07:28:16Z</time></trkpt><trkpt lat="43.24758787311664" lon="12.981807804301274"><ele>382.33333333333337</ele><time>2026-04-11T07:28:17Z</time></trkpt><trkpt lat="43.24757507393047" lon="12.981592964875336"><ele>383.0</ele><time>2026-04-11T07:28:18Z</time></trkpt><trkpt lat="43.24755380778192" lon="12.98138900177764"><ele>383.5</ele><time>2026-04-11T07:28:19Z</time></trkpt><trkpt lat="43.24754960879882" lon="12.98121348769242"><ele>384.0</ele><time>2026-04-11T07:28:20Z</time></trkpt><trkpt lat="43.2475677558825" lon="12.981027383878633"><ele>384.5</ele><time>2026-04-11T07:28:21Z</time></trkpt><trkpt lat="43.24763142788419" lon="12.980842730446172"><ele>385.0</ele><time>2026-04-11T07:28:22Z</time></trkpt><trkpt lat="43.247689285842185" lon="12.980665539597757"><ele>385.0</ele><time>2026-04-11T07:28:23Z</time></trkpt><trkpt lat="43.24774026622354" lon="12.980494723615342"><ele>385.0</ele><time>2026-04-11T07:28:24Z</time></trkpt><trkpt lat="43.24774609781246" lon="12.980306668234261"><ele>385.0</ele><time>2026-04-11T07:28:25Z</time></trkpt><trkpt lat="43.24774806029321" lon="12.980138352413283"><ele>385.0</ele><time>2026-04-11T07:28:26Z</time></trkpt><trkpt lat="43.24774587074844" lon="12.979972359540811"><ele>384.0</ele><time>2026-04-11T07:28:27Z</time></trkpt><trkpt lat="43.247735868276415" lon="12.97977652650761"><ele>383.0</ele><time>2026-04-11T07:28:28Z</time></trkpt><trkpt lat="43.24770941721056" lon="12.979577184172939"><ele>382.0</ele><time>2026-04-11T07:28:29Z</time></trkpt><trkpt lat="43.24768383012914" lon="12.979354950397468"><ele>382.3333333333333</ele><time>2026-04-11T07:28:30Z</time></trkpt><trkpt lat="43.247684421822484" lon="12.979145073488175"><ele>382.6666666666667</ele><time>2026-04-11T07:28:31Z</time></trkpt><trkpt lat="43.24767917318388" lon="12.97893880986762"><ele>383.0</ele><time>2026-04-11T07:28:32Z</time></trkpt><trkpt lat="43.24767346967287" lon="12.978714670489774"><ele>383.0</ele><time>2026-04-11T07:28:33Z</time></trkpt><trkpt lat="43.24766853281769" lon="12.978520659829272"><ele>383.0</ele><time>2026-04-11T07:28:34Z</time></trkpt><trkpt lat="43.24766336377083" lon="12.978300324970306"><ele>383.0</ele><time>2026-04-11T07:28:35Z</time></trkpt><trkpt lat="43.24765921180919" lon="12.97807358409649"><ele>385.33333333333337</ele><time>2026-04-11T07:28:36Z</time></trkpt><trkpt lat="43.24764444722782" lon="12.977861315057254"><ele>387.6666666666667</ele><time>2026-04-11T07:28:37Z</time></trkpt><trkpt lat="43.24763704645174" lon="12.977647776824929"><ele>390.0</ele><time>2026-04-11T07:28:38Z</time></trkpt><trkpt lat="43.24763588842692" lon="12.977447654455178"><ele>391.66666666666663</ele><time>2026-04-11T07:28:39Z</time></trkpt><trkpt lat="43.24763102740101" lon="12.977248666888414"><ele>393.3333333333333</ele><time>2026-04-11T07:28:40Z</time></trkpt><trkpt lat="43.24763907265508" lon="12.977042876774807"><ele>395.0</ele><time>2026-04-11T07:28:41Z</time></trkpt><trkpt lat="43.247654603181324" lon="12.976829996141236"><ele>395.5</ele><time>2026-04-11T07:28:42Z</time></trkpt><trkpt lat="43.24768865521008" lon="12.976641702860757"><ele>396.0</ele><time>2026-04-11T07:28:43Z</time></trkpt><trkpt lat="43.24773632093965" lon="12.976476116675219"><ele>396.5</ele><time>2026-04-11T07:28:44Z</time></trkpt><trkpt lat="43.24778847555378" lon="12.976327180735241"><ele>397.0</ele><time>2026-04-11T07:28:45Z</time></trkpt><trkpt lat="43.24785460294914" lon="12.976156143680464"><ele>397.0</ele><time>2026-04-11T07:28:46Z</time></trkpt><trkpt lat="43.2479215598788" lon="12.975984417866622"><ele>397.0</ele><time>2026-04-11T07:28:47Z</time></trkpt><trkpt lat="43.24798953853815" lon="12.9758104442062"><ele>397.0</ele><time>2026-04-11T07:28:48Z</time></trkpt><trkpt lat="43.24806251957197" lon="12.975627011217505"><ele>397.0</ele><time>2026-04-11T07:28:49Z</time></trkpt><trkpt lat="43.24812595615784" lon="12.975434146481572"><ele>397.33333333333337</ele><time>2026-04-11T07:28:50Z</time></trkpt><trkpt lat="43.24819708766505" lon="12.97524622654769"><ele>397.66666666666663</ele><time>2026-04-11T07:28:51Z</time></trkpt><trkpt lat="43.24829057024176" lon="12.975053821055381"><ele>398.0</ele><time>2026-04-11T07:28:52Z</time></trkpt><trkpt lat="43.248372782777594" lon="12.97484526366222"><ele>398.0</ele><time>2026-04-11T07:28:53Z</time></trkpt><trkpt lat="43.248454488775714" lon="12.974638547962165"><ele>398.0</ele><time>2026-04-11T07:28:54Z</time></trkpt><trkpt lat="43.248543397589835" lon="12.974412004471763"><ele>398.0</ele><time>2026-04-11T07:28:55Z</time></trkpt><trkpt lat="43.24862880081339" lon="12.974192551142604"><ele>398.0</ele><time>2026-04-11T07:28:56Z</time></trkpt><trkpt lat="43.24873505922695" lon="12.973919391537391"><ele>398.0</ele><time>2026-04-11T07:28:57Z</time></trkpt><trkpt lat="43.24884243333922" lon="12.973643364075587"><ele>398.5</ele><time>2026-04-11T07:28:58Z</time></trkpt><trkpt lat="43.24895884573085" lon="12.973344101443361"><ele>399.0</ele><time>2026-04-11T07:28:59Z</time></trkpt><trkpt lat="43.24906901634031" lon="12.973062321386154"><ele>402.0</ele><time>2026-04-11T07:29:00Z</time></trkpt><trkpt lat="43.24917008236544" lon="12.972806192363429"><ele>405.0</ele><time>2026-04-11T07:29:01Z</time></trkpt><trkpt lat="43.24926360682853" lon="12.972569177039913"><ele>408.0</ele><time>2026-04-11T07:29:02Z</time></trkpt><trkpt lat="43.24934749422153" lon="12.972356583308656"><ele>408.0</ele><time>2026-04-11T07:29:03Z</time></trkpt><trkpt lat="43.249423605155464" lon="12.97216369824702"><ele>408.0</ele><time>2026-04-11T07:29:04Z</time></trkpt><trkpt lat="43.24950045255314" lon="12.971968946484434"><ele>408.0</ele><time>2026-04-11T07:29:05.001Z</time></trkpt><trkpt lat="43.24957323833086" lon="12.971784487740305"><ele>407.0</ele><time>2026-04-11T07:29:06.001Z</time></trkpt><trkpt lat="43.24964455654261" lon="12.97160374846173"><ele>406.0</ele><time>2026-04-11T07:29:07.001Z</time></trkpt><trkpt lat="43.249710119128544" lon="12.971437595431805"><ele>405.0</ele><time>2026-04-11T07:29:08.001Z</time></trkpt><trkpt lat="43.24977001793848" lon="12.971285795760858"><ele>404.0</ele><time>2026-04-11T07:29:09.001Z</time></trkpt><trkpt lat="43.249819054900335" lon="12.971118533442262"><ele>404.79999999999995</ele><time>2026-04-11T07:29:10.001Z</time></trkpt><trkpt lat="43.24987982913731" lon="12.970970363511196"><ele>405.59999999999997</ele><time>2026-04-11T07:29:11.001Z</time></trkpt><trkpt lat="43.249931697191904" lon="12.97083375075919"><ele>406.4</ele><time>2026-04-11T07:29:12.001Z</time></trkpt><trkpt lat="43.2499972691396" lon="12.970709234190634"><ele>407.2</ele><time>2026-04-11T07:29:13.001Z</time></trkpt><trkpt lat="43.25004071761027" lon="12.970598024069195"><ele>408.0</ele><time>2026-04-11T07:29:14.001Z</time></trkpt><trkpt lat="43.25007738445142" lon="12.970503934289761"><ele>408.0</ele><time>2026-04-11T07:29:15.001Z</time></trkpt><trkpt lat="43.25011235576158" lon="12.970419685797498"><ele>408.0</ele><time>2026-04-11T07:29:16.001Z</time></trkpt><trkpt lat="43.25018329543654" lon="12.970359391889756"><ele>408.0</ele><time>2026-04-11T07:29:17.001Z</time></trkpt><trkpt lat="43.25025311434145" lon="12.970338778939393"><ele>408.0</ele><time>2026-04-11T07:29:18Z</time></trkpt><trkpt lat="43.25033586825249" lon="12.970334995512747"><ele>408.0</ele><time>2026-04-11T07:29:20Z</time></trkpt><trkpt lat="43.25027700230497" lon="12.970407852969403"><ele>408.0</ele><time>2026-04-11T07:29:26Z</time></trkpt><trkpt lat="43.25033359362567" lon="12.970463986251184"><ele>408.0</ele><time>2026-04-11T07:29:45Z</time></trkpt><trkpt lat="43.25039353065928" lon="12.97050490747539"><ele>408.0</ele><time>2026-04-11T07:30:58Z</time></trkpt><trkpt lat="43.250489353707906" lon="12.970557440405786"><ele>408.0</ele><time>2026-04-11T07:31:28Z</time></trkpt><trkpt lat="43.25051015004096" lon="12.970460945637383"><ele>408.0</ele><time>2026-04-11T07:34:09.999Z</time></trkpt><trkpt lat="43.25042580076881" lon="12.970561932653931"><ele>408.0</ele><time>2026-04-11T07:34:24.999Z</time></trkpt><trkpt lat="43.250363241066744" lon="12.970524156912235"><ele>408.0</ele><time>2026-04-11T07:34:29.999Z</time></trkpt><trkpt lat="43.250340927634454" lon="12.970437139096598"><ele>408.0</ele><time>2026-04-11T07:34:38.999Z</time></trkpt><trkpt lat="43.25041057524914" lon="12.970356277721953"><ele>408.0</ele><time>2026-04-11T07:35:34.999Z</time></trkpt><trkpt lat="43.25044268597958" lon="12.970271935000124"><ele>408.0</ele><time>2026-04-11T07:35:36.999Z</time></trkpt><trkpt lat="43.250457015149365" lon="12.970136641703462"><ele>408.0</ele><time>2026-04-11T07:35:38.999Z</time></trkpt><trkpt lat="43.250425543490515" lon="12.97002127360839"><ele>408.0</ele><time>2026-04-11T07:35:40.999Z</time></trkpt><trkpt lat="43.250362887888116" lon="12.969992534909203"><ele>408.0</ele><time>2026-04-11T07:35:55.999Z</time></trkpt><trkpt lat="43.250328466869036" lon="12.969912315792493"><ele>408.0</ele><time>2026-04-11T07:35:59.999Z</time></trkpt><trkpt lat="43.25036533297474" lon="12.969766485278058"><ele>408.0</ele><time>2026-04-11T07:36:01.999Z</time></trkpt><trkpt lat="43.250393987902584" lon="12.969677388607533"><ele>408.0</ele><time>2026-04-11T07:36:02.999Z</time></trkpt><trkpt lat="43.25043865163672" lon="12.96956208506939"><ele>408.0</ele><time>2026-04-11T07:36:03.999Z</time></trkpt><trkpt lat="43.25049683352873" lon="12.96941513630019"><ele>408.0</ele><time>2026-04-11T07:36:04.999Z</time></trkpt><trkpt lat="43.250566017932194" lon="12.96923865891139"><ele>409.5</ele><time>2026-04-11T07:36:05.999Z</time></trkpt><trkpt lat="43.250637857332876" lon="12.969051609798711"><ele>411.0</ele><time>2026-04-11T07:36:06.999Z</time></trkpt><trkpt lat="43.25069426229578" lon="12.968850097865651"><ele>412.5</ele><time>2026-04-11T07:36:07.999Z</time></trkpt><trkpt lat="43.250753219066326" lon="12.968692595113373"><ele>414.0</ele><time>2026-04-11T07:36:08.999Z</time></trkpt><trkpt lat="43.25081017380226" lon="12.968540434610187"><ele>414.0</ele><time>2026-04-11T07:36:10Z</time></trkpt><trkpt lat="43.25087233815419" lon="12.968380934927842"><ele>414.0</ele><time>2026-04-11T07:36:11Z</time></trkpt><trkpt lat="43.25093886684049" lon="12.96822249189337"><ele>414.0</ele><time>2026-04-11T07:36:12Z</time></trkpt><trkpt lat="43.251003838306595" lon="12.968065198765608"><ele>414.0</ele><time>2026-04-11T07:36:13Z</time></trkpt><trkpt lat="43.251067687604724" lon="12.967908352398819"><ele>413.5</ele><time>2026-04-11T07:36:14Z</time></trkpt><trkpt lat="43.25109942569496" lon="12.967738401276824"><ele>413.0</ele><time>2026-04-11T07:36:15Z</time></trkpt><trkpt lat="43.2511978703474" lon="12.967584622737837"><ele>412.5</ele><time>2026-04-11T07:36:16Z</time></trkpt><trkpt lat="43.25126686728243" lon="12.96742801244038"><ele>412.0</ele><time>2026-04-11T07:36:17Z</time></trkpt><trkpt lat="43.25133360370228" lon="12.967268691673034"><ele>412.25</ele><time>2026-04-11T07:36:18Z</time></trkpt><trkpt lat="43.251392218998156" lon="12.967093152167823"><ele>412.5</ele><time>2026-04-11T07:36:19Z</time></trkpt><trkpt lat="43.25145818699899" lon="12.966923306273905"><ele>412.75</ele><time>2026-04-11T07:36:20Z</time></trkpt><trkpt lat="43.25152192428862" lon="12.966762352389013"><ele>413.0</ele><time>2026-04-11T07:36:21Z</time></trkpt><trkpt lat="43.25158150321239" lon="12.966610713467803"><ele>413.0</ele><time>2026-04-11T07:36:22Z</time></trkpt><trkpt lat="43.25163930459228" lon="12.966465672540805"><ele>413.0</ele><time>2026-04-11T07:36:23Z</time></trkpt><trkpt lat="43.25169371417585" lon="12.96633087199221"><ele>413.0</ele><time>2026-04-11T07:36:24Z</time></trkpt><trkpt lat="43.251745865737455" lon="12.966199519395548"><ele>413.0</ele><time>2026-04-11T07:36:25Z</time></trkpt><trkpt lat="43.25179768240184" lon="12.96606939390098"><ele>413.0</ele><time>2026-04-11T07:36:26Z</time></trkpt><trkpt lat="43.25185290259814" lon="12.96593306082218"><ele>413.0</ele><time>2026-04-11T07:36:27Z</time></trkpt><trkpt lat="43.251910642590886" lon="12.965789427815315"><ele>413.0</ele><time>2026-04-11T07:36:28Z</time></trkpt><trkpt lat="43.25197183097818" lon="12.965638353913501"><ele>413.0</ele><time>2026-04-11T07:36:29Z</time></trkpt><trkpt lat="43.25204133782069" lon="12.965474725056309"><ele>413.25</ele><time>2026-04-11T07:36:30Z</time></trkpt><trkpt lat="43.252111393111015" lon="12.96529824158746"><ele>413.5</ele><time>2026-04-11T07:36:31Z</time></trkpt><trkpt lat="43.25217980014755" lon="12.9651168293742"><ele>413.75</ele><time>2026-04-11T07:36:32Z</time></trkpt><trkpt lat="43.252251740139776" lon="12.964934034440825"><ele>414.0</ele><time>2026-04-11T07:36:33Z</time></trkpt><trkpt lat="43.25232747435574" lon="12.964744121963685"><ele>415.33333333333337</ele><time>2026-04-11T07:36:34Z</time></trkpt><trkpt lat="43.25240453235339" lon="12.96455101091087"><ele>416.6666666666667</ele><time>2026-04-11T07:36:35Z</time></trkpt><trkpt lat="43.25248143528016" lon="12.96436972443146"><ele>418.0</ele><time>2026-04-11T07:36:36Z</time></trkpt><trkpt lat="43.25255369582805" lon="12.964190312305465"><ele>418.0</ele><time>2026-04-11T07:36:37Z</time></trkpt><trkpt lat="43.2526177496805" lon="12.964022328316132"><ele>418.0</ele><time>2026-04-11T07:36:38Z</time></trkpt><trkpt lat="43.2526724334763" lon="12.963846734243637"><ele>418.0</ele><time>2026-04-11T07:36:39Z</time></trkpt><trkpt lat="43.25270463955808" lon="12.963664886771374"><ele>418.0</ele><time>2026-04-11T07:36:40Z</time></trkpt><trkpt lat="43.25272762278479" lon="12.9634713031859"><ele>417.75</ele><time>2026-04-11T07:36:41Z</time></trkpt><trkpt lat="43.25274065825016" lon="12.963276166760544"><ele>417.5</ele><time>2026-04-11T07:36:42Z</time></trkpt><trkpt lat="43.252743899845974" lon="12.963090273762207"><ele>417.25</ele><time>2026-04-11T07:36:43Z</time></trkpt><trkpt lat="43.25274319912445" lon="12.962904247200528"><ele>417.0</ele><time>2026-04-11T07:36:44Z</time></trkpt><trkpt lat="43.25274525502049" lon="12.962720013854385"><ele>417.0</ele><time>2026-04-11T07:36:45Z</time></trkpt><trkpt lat="43.25275106656932" lon="12.962535175070128"><ele>417.0</ele><time>2026-04-11T07:36:46Z</time></trkpt><trkpt lat="43.25275656655403" lon="12.96234958980747"><ele>417.0</ele><time>2026-04-11T07:36:47Z</time></trkpt><trkpt lat="43.25276601440073" lon="12.962160810986957"><ele>417.0</ele><time>2026-04-11T07:36:48Z</time></trkpt><trkpt lat="43.252758304773096" lon="12.961970340590707"><ele>417.5</ele><time>2026-04-11T07:36:49Z</time></trkpt><trkpt lat="43.25276561707295" lon="12.961777032520144"><ele>418.0</ele><time>2026-04-11T07:36:50Z</time></trkpt><trkpt lat="43.25278538411912" lon="12.961593999237971"><ele>418.5</ele><time>2026-04-11T07:36:51Z</time></trkpt><trkpt lat="43.252792959443696" lon="12.961418018032473"><ele>419.0</ele><time>2026-04-11T07:36:52Z</time></trkpt><trkpt lat="43.25282017987028" lon="12.961251945408995"><ele>419.0</ele><time>2026-04-11T07:36:53Z</time></trkpt><trkpt lat="43.25283356155689" lon="12.961080694699813"><ele>419.0</ele><time>2026-04-11T07:36:54Z</time></trkpt><trkpt lat="43.25285513802658" lon="12.960900408092764"><ele>419.0</ele><time>2026-04-11T07:36:55Z</time></trkpt><trkpt lat="43.2528797321897" lon="12.960712577871577"><ele>419.0</ele><time>2026-04-11T07:36:56Z</time></trkpt><trkpt lat="43.25290464633691" lon="12.960522561609336"><ele>419.5</ele><time>2026-04-11T07:36:57Z</time></trkpt><trkpt lat="43.252931411444955" lon="12.960330132281914"><ele>420.0</ele><time>2026-04-11T07:36:58Z</time></trkpt><trkpt lat="43.25296075188202" lon="12.960130081016281"><ele>420.5</ele><time>2026-04-11T07:36:59Z</time></trkpt><trkpt lat="43.253016657114166" lon="12.959935439901205"><ele>421.0</ele><time>2026-04-11T07:37:00Z</time></trkpt><trkpt lat="43.25306104536858" lon="12.959724713778856"><ele>421.33333333333337</ele><time>2026-04-11T07:37:01Z</time></trkpt><trkpt lat="43.25310687189413" lon="12.959508369477751"><ele>421.66666666666663</ele><time>2026-04-11T07:37:02Z</time></trkpt><trkpt lat="43.2531511624601" lon="12.959299276339904"><ele>422.0</ele><time>2026-04-11T07:37:03Z</time></trkpt><trkpt lat="43.25320030664942" lon="12.959130892856404"><ele>422.75</ele><time>2026-04-11T07:37:04Z</time></trkpt><trkpt lat="43.25323784714116" lon="12.95895525567523"><ele>423.5</ele><time>2026-04-11T07:37:05Z</time></trkpt><trkpt lat="43.25328161926348" lon="12.958791300737063"><ele>424.25</ele><time>2026-04-11T07:37:06Z</time></trkpt><trkpt lat="43.253287728776975" lon="12.95860494121088"><ele>425.0</ele><time>2026-04-11T07:37:07Z</time></trkpt><trkpt lat="43.25333093900293" lon="12.958455938770259"><ele>425.4</ele><time>2026-04-11T07:37:08Z</time></trkpt><trkpt lat="43.25336053009526" lon="12.958294790825622"><ele>425.8</ele><time>2026-04-11T07:37:09Z</time></trkpt><trkpt lat="43.25340051900865" lon="12.958150576045213"><ele>426.20000000000005</ele><time>2026-04-11T07:37:10Z</time></trkpt><trkpt lat="43.25344157537683" lon="12.95801235846939"><ele>426.6</ele><time>2026-04-11T07:37:11Z</time></trkpt><trkpt lat="43.25347653675315" lon="12.957877777656352"><ele>427.0</ele><time>2026-04-11T07:37:12Z</time></trkpt><trkpt lat="43.25351272706595" lon="12.957741315371656"><ele>427.00000000000006</ele><time>2026-04-11T07:37:13Z</time></trkpt><trkpt lat="43.25354290907946" lon="12.95762239251272"><ele>427.0</ele><time>2026-04-11T07:37:14Z</time></trkpt><trkpt lat="43.25356908134706" lon="12.95750696441113"><ele>427.0</ele><time>2026-04-11T07:37:15Z</time></trkpt><trkpt lat="43.2535853365143" lon="12.957392680966995"><ele>427.0</ele><time>2026-04-11T07:37:16Z</time></trkpt><trkpt lat="43.253579516573765" lon="12.957267480686381"><ele>427.00000000000006</ele><time>2026-04-11T07:37:17Z</time></trkpt><trkpt lat="43.25359794787372" lon="12.957173424772797"><ele>427.0</ele><time>2026-04-11T07:37:18Z</time></trkpt><trkpt lat="43.2536327385487" lon="12.957096189170057"><ele>426.8</ele><time>2026-04-11T07:37:19Z</time></trkpt><trkpt lat="43.25364428025849" lon="12.956981617147749"><ele>426.6</ele><time>2026-04-11T07:37:21Z</time></trkpt><trkpt lat="43.25368927516841" lon="12.956851269428872"><ele>426.40000000000003</ele><time>2026-04-11T07:37:23Z</time></trkpt><trkpt lat="43.25368342676485" lon="12.956711068685282"><ele>426.20000000000005</ele><time>2026-04-11T07:37:25Z</time></trkpt><trkpt lat="43.25362643926157" lon="12.956525152888444"><ele>426.0</ele><time>2026-04-11T07:37:27Z</time></trkpt><trkpt lat="43.25359847047047" lon="12.956427699319795"><ele>426.0</ele><time>2026-04-11T07:37:28Z</time></trkpt><trkpt lat="43.25358619428983" lon="12.9563159180911"><ele>426.0</ele><time>2026-04-11T07:37:29Z</time></trkpt><trkpt lat="43.25355973560505" lon="12.956212700363835"><ele>426.0</ele><time>2026-04-11T07:37:30Z</time></trkpt><trkpt lat="43.25352804905663" lon="12.956098396602576"><ele>426.0</ele><time>2026-04-11T07:37:31Z</time></trkpt><trkpt lat="43.25349832970528" lon="12.955988495614097"><ele>426.0</ele><time>2026-04-11T07:37:32Z</time></trkpt><trkpt lat="43.25346739718356" lon="12.955879114388614"><ele>426.0</ele><time>2026-04-11T07:37:33Z</time></trkpt><trkpt lat="43.2534351688719" lon="12.955765151097253"><ele>425.99999999999994</ele><time>2026-04-11T07:37:34Z</time></trkpt><trkpt lat="43.253392978922456" lon="12.955670288586813"><ele>426.0</ele><time>2026-04-11T07:37:35Z</time></trkpt><trkpt lat="43.25336315542099" lon="12.955575243220592"><ele>426.0</ele><time>2026-04-11T07:37:36Z</time></trkpt><trkpt lat="43.25334039204626" lon="12.955481999902135"><ele>426.0</ele><time>2026-04-11T07:37:37Z</time></trkpt><trkpt lat="43.253305362633654" lon="12.955401839866214"><ele>426.0</ele><time>2026-04-11T07:37:38Z</time></trkpt><trkpt lat="43.25327069328257" lon="12.955322503776632"><ele>425.99999999999994</ele><time>2026-04-11T07:37:39Z</time></trkpt><trkpt lat="43.25321406466576" lon="12.955272984427623"><ele>426.0</ele><time>2026-04-11T07:37:40Z</time></trkpt><trkpt lat="43.253151891472704" lon="12.955214410591669"><ele>425.5</ele><time>2026-04-11T07:37:41Z</time></trkpt><trkpt lat="43.25306274506182" lon="12.955193991180348"><ele>425.0</ele><time>2026-04-11T07:37:42Z</time></trkpt><trkpt lat="43.25298879669748" lon="12.955158380073348"><ele>424.5</ele><time>2026-04-11T07:37:43Z</time></trkpt><trkpt lat="43.252901785762035" lon="12.955130037398995"><ele>424.0</ele><time>2026-04-11T07:37:44Z</time></trkpt><trkpt lat="43.25282385538185" lon="12.955084120929849"><ele>423.5</ele><time>2026-04-11T07:37:45Z</time></trkpt><trkpt lat="43.252766571755686" lon="12.955011386328582"><ele>423.0</ele><time>2026-04-11T07:37:46Z</time></trkpt><trkpt lat="43.252696133309286" lon="12.954938013197346"><ele>424.0</ele><time>2026-04-11T07:37:47Z</time></trkpt><trkpt lat="43.252633132011404" lon="12.954863250289204"><ele>425.0</ele><time>2026-04-11T07:37:48Z</time></trkpt><trkpt lat="43.25257197079249" lon="12.954778254276706"><ele>426.0</ele><time>2026-04-11T07:37:49Z</time></trkpt><trkpt lat="43.25253127733969" lon="12.954706162615409"><ele>427.0</ele><time>2026-04-11T07:37:50Z</time></trkpt><trkpt lat="43.25248894067611" lon="12.954616595479745"><ele>428.0</ele><time>2026-04-11T07:37:51Z</time></trkpt><trkpt lat="43.25244396264361" lon="12.954516992267095"><ele>429.0</ele><time>2026-04-11T07:37:52Z</time></trkpt><trkpt lat="43.252408940797054" lon="12.954410234015363"><ele>429.0</ele><time>2026-04-11T07:37:53Z</time></trkpt><trkpt lat="43.252382143725875" lon="12.954280971745922"><ele>429.0</ele><time>2026-04-11T07:37:54Z</time></trkpt><trkpt lat="43.25235991700242" lon="12.954152688403171"><ele>429.0</ele><time>2026-04-11T07:37:55Z</time></trkpt><trkpt lat="43.252347211277545" lon="12.954039699888602"><ele>429.0</ele><time>2026-04-11T07:37:56Z</time></trkpt><trkpt lat="43.25234727753626" lon="12.953903922798435"><ele>429.0</ele><time>2026-04-11T07:37:57Z</time></trkpt><trkpt lat="43.25235111272551" lon="12.953770874700474"><ele>429.4</ele><time>2026-04-11T07:37:58Z</time></trkpt><trkpt lat="43.25235771358495" lon="12.953643239837465"><ele>429.79999999999995</ele><time>2026-04-11T07:37:59Z</time></trkpt><trkpt lat="43.25236455725031" lon="12.953510909765196"><ele>430.20000000000005</ele><time>2026-04-11T07:38:00Z</time></trkpt><trkpt lat="43.2523706556208" lon="12.953384640030997"><ele>430.6</ele><time>2026-04-11T07:38:01Z</time></trkpt><trkpt lat="43.25237696154379" lon="12.953255117102252"><ele>431.0</ele><time>2026-04-11T07:38:02Z</time></trkpt><trkpt lat="43.2523825535258" lon="12.953140258447569"><ele>431.16666666666663</ele><time>2026-04-11T07:38:03Z</time></trkpt><trkpt lat="43.252388153758986" lon="12.953025230305775"><ele>431.3333333333333</ele><time>2026-04-11T07:38:04Z</time></trkpt><trkpt lat="43.25239315138205" lon="12.952922579704314"><ele>431.5</ele><time>2026-04-11T07:38:05Z</time></trkpt><trkpt lat="43.2523989242926" lon="12.952806415960723"><ele>431.66666666666663</ele><time>2026-04-11T07:38:06Z</time></trkpt><trkpt lat="43.252404179643044" lon="12.95270179180146"><ele>431.8333333333333</ele><time>2026-04-11T07:38:07Z</time></trkpt><trkpt lat="43.2524086413888" lon="12.9526129668202"><ele>432.0</ele><time>2026-04-11T07:38:08Z</time></trkpt><trkpt lat="43.252402414136" lon="12.952492339803367"><ele>432.1428571428571</ele><time>2026-04-11T07:38:09Z</time></trkpt><trkpt lat="43.252412271162484" lon="12.952374697484752"><ele>432.2857142857143</ele><time>2026-04-11T07:38:10Z</time></trkpt><trkpt lat="43.25240929468053" lon="12.952281359195588"><ele>432.42857142857144</ele><time>2026-04-11T07:38:11Z</time></trkpt><trkpt lat="43.25241575512601" lon="12.95217816631503"><ele>432.57142857142856</ele><time>2026-04-11T07:38:12Z</time></trkpt><trkpt lat="43.252418471335595" lon="12.952086347649685"><ele>432.7142857142857</ele><time>2026-04-11T07:38:13Z</time></trkpt><trkpt lat="43.252439582521916" lon="12.951996986951885"><ele>432.85714285714283</ele><time>2026-04-11T07:38:14Z</time></trkpt><trkpt lat="43.252438203079834" lon="12.95188526303101"><ele>433.0</ele><time>2026-04-11T07:38:16Z</time></trkpt><trkpt lat="43.252572556314554" lon="12.951840524973857"><ele>433.0</ele><time>2026-04-11T07:38:18Z</time></trkpt><trkpt lat="43.25268254134742" lon="12.951809681070449"><ele>433.0</ele><time>2026-04-11T07:38:19Z</time></trkpt><trkpt lat="43.252785949946976" lon="12.951741316775065"><ele>433.0</ele><time>2026-04-11T07:38:20Z</time></trkpt><trkpt lat="43.25288763077327" lon="12.95166396070821"><ele>433.0</ele><time>2026-04-11T07:38:21Z</time></trkpt><trkpt lat="43.25300356499554" lon="12.951603419125997"><ele>433.25</ele><time>2026-04-11T07:38:22Z</time></trkpt><trkpt lat="43.25312219106903" lon="12.951539900728651"><ele>433.5</ele><time>2026-04-11T07:38:23Z</time></trkpt><trkpt lat="43.25325803101972" lon="12.951484386921331"><ele>433.75</ele><time>2026-04-11T07:38:24Z</time></trkpt><trkpt lat="43.25337357331885" lon="12.951420049331055"><ele>434.0</ele><time>2026-04-11T07:38:25Z</time></trkpt><trkpt lat="43.253473103590736" lon="12.95134523766776"><ele>435.0</ele><time>2026-04-11T07:38:26Z</time></trkpt><trkpt lat="43.25356705715688" lon="12.95127586052653"><ele>436.0</ele><time>2026-04-11T07:38:27Z</time></trkpt><trkpt lat="43.25364663671146" lon="12.9511759515105"><ele>437.0</ele><time>2026-04-11T07:38:28Z</time></trkpt><trkpt lat="43.25373884582562" lon="12.951080373510171"><ele>438.0</ele><time>2026-04-11T07:38:29Z</time></trkpt><trkpt lat="43.2538408699918" lon="12.950985785989637"><ele>438.0</ele><time>2026-04-11T07:38:30Z</time></trkpt><trkpt lat="43.253933369464754" lon="12.950887111055872"><ele>438.0</ele><time>2026-04-11T07:38:31Z</time></trkpt><trkpt lat="43.254022131933475" lon="12.950779612726235"><ele>438.0</ele><time>2026-04-11T07:38:32Z</time></trkpt><trkpt lat="43.25410295823044" lon="12.950681371436318"><ele>438.0</ele><time>2026-04-11T07:38:33Z</time></trkpt><trkpt lat="43.25418868728508" lon="12.950583467777248"><ele>438.59999999999997</ele><time>2026-04-11T07:38:34Z</time></trkpt><trkpt lat="43.25427476327985" lon="12.950482960814917"><ele>439.19999999999993</ele><time>2026-04-11T07:38:35Z</time></trkpt><trkpt lat="43.254351150377204" lon="12.950378398509946"><ele>439.8</ele><time>2026-04-11T07:38:36Z</time></trkpt><trkpt lat="43.25444990557832" lon="12.950289926730097"><ele>440.4</ele><time>2026-04-11T07:38:37Z</time></trkpt><trkpt lat="43.25453711588355" lon="12.950206193499326"><ele>441.0</ele><time>2026-04-11T07:38:38Z</time></trkpt><trkpt lat="43.25463001185115" lon="12.950128615870366"><ele>441.5</ele><time>2026-04-11T07:38:39Z</time></trkpt><trkpt lat="43.25473796822283" lon="12.950041182070349"><ele>442.0</ele><time>2026-04-11T07:38:40Z</time></trkpt><trkpt lat="43.25485811249115" lon="12.949943877075345"><ele>442.5</ele><time>2026-04-11T07:38:41Z</time></trkpt><trkpt lat="43.25498020543012" lon="12.949829372527867"><ele>443.0</ele><time>2026-04-11T07:38:42Z</time></trkpt><trkpt lat="43.25510371987088" lon="12.949734213140585"><ele>443.0</ele><time>2026-04-11T07:38:43Z</time></trkpt><trkpt lat="43.25521805515006" lon="12.949646731821606"><ele>443.0</ele><time>2026-04-11T07:38:44Z</time></trkpt><trkpt lat="43.25532683168775" lon="12.949554476741366"><ele>443.0</ele><time>2026-04-11T07:38:45Z</time></trkpt><trkpt lat="43.25542694812615" lon="12.949486907701043"><ele>443.0</ele><time>2026-04-11T07:38:46Z</time></trkpt><trkpt lat="43.2555271773699" lon="12.9494211240987"><ele>442.99999999999994</ele><time>2026-04-11T07:38:47Z</time></trkpt><trkpt lat="43.255629386826946" lon="12.949357813137349"><ele>443.0</ele><time>2026-04-11T07:38:48Z</time></trkpt><trkpt lat="43.255711706495134" lon="12.949286824046444"><ele>443.0</ele><time>2026-04-11T07:38:49Z</time></trkpt><trkpt lat="43.2557790635561" lon="12.949203017261636"><ele>443.0</ele><time>2026-04-11T07:38:50Z</time></trkpt><trkpt lat="43.25584062088897" lon="12.949140762533201"><ele>442.99999999999994</ele><time>2026-04-11T07:38:51Z</time></trkpt><trkpt lat="43.25590145309801" lon="12.949107505698189"><ele>443.0</ele><time>2026-04-11T07:38:52Z</time></trkpt><trkpt lat="43.25596482208407" lon="12.94903478438577"><ele>443.59999999999997</ele><time>2026-04-11T07:38:54Z</time></trkpt><trkpt lat="43.25588904287911" lon="12.948959221337493"><ele>444.19999999999993</ele><time>2026-04-11T07:38:55Z</time></trkpt><trkpt lat="43.25585800947583" lon="12.94883977499399"><ele>444.8</ele><time>2026-04-11T07:38:56Z</time></trkpt><trkpt lat="43.25582464393401" lon="12.948712605164568"><ele>445.4</ele><time>2026-04-11T07:38:57Z</time></trkpt><trkpt lat="43.25579450584468" lon="12.948597248821416"><ele>446.0</ele><time>2026-04-11T07:38:58Z</time></trkpt><trkpt lat="43.255742068434756" lon="12.948463977347972"><ele>446.3333333333333</ele><time>2026-04-11T07:38:59Z</time></trkpt><trkpt lat="43.25571571416999" lon="12.948359786590192"><ele>446.66666666666663</ele><time>2026-04-11T07:39:00Z</time></trkpt><trkpt lat="43.25569184428552" lon="12.948265418127498"><ele>447.0</ele><time>2026-04-11T07:39:01Z</time></trkpt><trkpt lat="43.255652721033854" lon="12.948185734457489"><ele>447.33333333333337</ele><time>2026-04-11T07:39:02Z</time></trkpt><trkpt lat="43.255637389188045" lon="12.948068963273244"><ele>447.6666666666667</ele><time>2026-04-11T07:39:04Z</time></trkpt><trkpt lat="43.255622222787245" lon="12.947983430736969"><ele>448.0</ele><time>2026-04-11T07:39:06Z</time></trkpt><trkpt lat="43.25578560490526" lon="12.948021816770138"><ele>448.0</ele><time>2026-04-11T07:39:08Z</time></trkpt><trkpt lat="43.25585888088915" lon="12.94798076247763"><ele>448.0</ele><time>2026-04-11T07:39:09Z</time></trkpt><trkpt lat="43.25595792917825" lon="12.947921012222801"><ele>448.0</ele><time>2026-04-11T07:39:10Z</time></trkpt><trkpt lat="43.25607246486028" lon="12.94784613022409"><ele>448.0</ele><time>2026-04-11T07:39:11Z</time></trkpt><trkpt lat="43.25620439936803" lon="12.94775177401547"><ele>448.0</ele><time>2026-04-11T07:39:12Z</time></trkpt><trkpt lat="43.2563457606971" lon="12.947646900348623"><ele>448.0</ele><time>2026-04-11T07:39:13Z</time></trkpt><trkpt lat="43.25647405464413" lon="12.947546350630956"><ele>448.0</ele><time>2026-04-11T07:39:14Z</time></trkpt><trkpt lat="43.25659884392035" lon="12.947447434614443"><ele>448.0</ele><time>2026-04-11T07:39:15Z</time></trkpt><trkpt lat="43.25659580974052" lon="12.947070111678553"><ele>448.0</ele><time>2026-04-11T07:39:16Z</time></trkpt><trkpt lat="43.256717236708994" lon="12.94697087303666"><ele>448.0</ele><time>2026-04-11T07:39:17Z</time></trkpt><trkpt lat="43.25684444996534" lon="12.946869761605912"><ele>448.0</ele><time>2026-04-11T07:39:18Z</time></trkpt><trkpt lat="43.256965849427374" lon="12.946774509724257"><ele>448.0</ele><time>2026-04-11T07:39:19Z</time></trkpt><trkpt lat="43.257208077423094" lon="12.94694935916473"><ele>448.0</ele><time>2026-04-11T07:39:20Z</time></trkpt><trkpt lat="43.257341799617926" lon="12.94684095923809"><ele>447.0</ele><time>2026-04-11T07:39:21Z</time></trkpt><trkpt lat="43.25747435777741" lon="12.946736482379865"><ele>446.0</ele><time>2026-04-11T07:39:22Z</time></trkpt><trkpt lat="43.25761330522101" lon="12.94662941101708"><ele>445.0</ele><time>2026-04-11T07:39:23Z</time></trkpt><trkpt lat="43.257756069125065" lon="12.946518438268873"><ele>445.33333333333337</ele><time>2026-04-11T07:39:24Z</time></trkpt><trkpt lat="43.257894259479336" lon="12.946411020620546"><ele>445.66666666666663</ele><time>2026-04-11T07:39:25Z</time></trkpt><trkpt lat="43.25802434276197" lon="12.946306851890714"><ele>446.0</ele><time>2026-04-11T07:39:26Z</time></trkpt><trkpt lat="43.258170184488726" lon="12.946184310892646"><ele>446.0</ele><time>2026-04-11T07:39:27Z</time></trkpt><trkpt lat="43.25829686441175" lon="12.946072349416013"><ele>446.0</ele><time>2026-04-11T07:39:28Z</time></trkpt><trkpt lat="43.2584249874233" lon="12.94595441694284"><ele>446.0</ele><time>2026-04-11T07:39:29Z</time></trkpt><trkpt lat="43.258550364779815" lon="12.945834704252196"><ele>449.0</ele><time>2026-04-11T07:39:30Z</time></trkpt><trkpt lat="43.258670723370756" lon="12.945717023786619"><ele>452.0</ele><time>2026-04-11T07:39:31Z</time></trkpt><trkpt lat="43.25879691185699" lon="12.945591662730429"><ele>455.0</ele><time>2026-04-11T07:39:32Z</time></trkpt><trkpt lat="43.25891707573868" lon="12.94546903976365"><ele>454.0</ele><time>2026-04-11T07:39:33Z</time></trkpt><trkpt lat="43.259039162070216" lon="12.945339017128502"><ele>453.0</ele><time>2026-04-11T07:39:34Z</time></trkpt><trkpt lat="43.259158454283835" lon="12.945208205026994"><ele>452.0</ele><time>2026-04-11T07:39:35Z</time></trkpt><trkpt lat="43.25927518964708" lon="12.945076014325691"><ele>454.3333333333333</ele><time>2026-04-11T07:39:36Z</time></trkpt><trkpt lat="43.25938980543474" lon="12.944937396340709"><ele>456.66666666666663</ele><time>2026-04-11T07:39:37Z</time></trkpt><trkpt lat="43.259504540034655" lon="12.944783583888409"><ele>459.0</ele><time>2026-04-11T07:39:38Z</time></trkpt><trkpt lat="43.25961528780048" lon="12.944636118086295"><ele>459.0</ele><time>2026-04-11T07:39:39Z</time></trkpt><trkpt lat="43.259726843107046" lon="12.944490756558139"><ele>459.0</ele><time>2026-04-11T07:39:40Z</time></trkpt><trkpt lat="43.25983821935053" lon="12.944345628371973"><ele>459.0</ele><time>2026-04-11T07:39:41Z</time></trkpt><trkpt lat="43.25994717976279" lon="12.944201443120672"><ele>459.75</ele><time>2026-04-11T07:39:42Z</time></trkpt><trkpt lat="43.26005508627794" lon="12.944052729291611"><ele>460.5</ele><time>2026-04-11T07:39:43Z</time></trkpt><trkpt lat="43.26015881927182" lon="12.943907837021158"><ele>461.25</ele><time>2026-04-11T07:39:44Z</time></trkpt><trkpt lat="43.260260456486925" lon="12.943765872089354"><ele>462.0</ele><time>2026-04-11T07:39:45Z</time></trkpt><trkpt lat="43.26036077003329" lon="12.94362575603561"><ele>462.0</ele><time>2026-04-11T07:39:46Z</time></trkpt><trkpt lat="43.26046013692377" lon="12.943486962265215"><ele>462.0</ele><time>2026-04-11T07:39:47Z</time></trkpt><trkpt lat="43.26055794151679" lon="12.943344996778709"><ele>462.0</ele><time>2026-04-11T07:39:48Z</time></trkpt><trkpt lat="43.26063969110506" lon="12.943180963834461"><ele>462.0</ele><time>2026-04-11T07:39:49Z</time></trkpt><trkpt lat="43.260738485813796" lon="12.943038170670992"><ele>461.25</ele><time>2026-04-11T07:39:50Z</time></trkpt><trkpt lat="43.26083358997302" lon="12.942890381928946"><ele>460.5</ele><time>2026-04-11T07:39:51Z</time></trkpt><trkpt lat="43.26093107775779" lon="12.94273897018082"><ele>459.75</ele><time>2026-04-11T07:39:52Z</time></trkpt><trkpt lat="43.26102378569597" lon="12.942590750604191"><ele>459.0</ele><time>2026-04-11T07:39:53Z</time></trkpt><trkpt lat="43.26111517415273" lon="12.94244576348097"><ele>458.75</ele><time>2026-04-11T07:39:54Z</time></trkpt><trkpt lat="43.2612077190034" lon="12.942304596065544"><ele>458.5</ele><time>2026-04-11T07:39:55Z</time></trkpt><trkpt lat="43.26130530742391" lon="12.94216333052408"><ele>458.25</ele><time>2026-04-11T07:39:56Z</time></trkpt><trkpt lat="43.261400240040075" lon="12.942008300495763"><ele>458.0</ele><time>2026-04-11T07:39:57Z</time></trkpt><trkpt lat="43.261499160101565" lon="12.941843472800299"><ele>459.3333333333333</ele><time>2026-04-11T07:39:58Z</time></trkpt><trkpt lat="43.26159246943266" lon="12.94167187440756"><ele>460.66666666666663</ele><time>2026-04-11T07:39:59Z</time></trkpt><trkpt lat="43.26168198861692" lon="12.94150078698877"><ele>462.0</ele><time>2026-04-11T07:40:00Z</time></trkpt><trkpt lat="43.26177335200031" lon="12.941325642623873"><ele>462.0</ele><time>2026-04-11T07:40:01Z</time></trkpt><trkpt lat="43.26186149168526" lon="12.94114771087181"><ele>462.0</ele><time>2026-04-11T07:40:02Z</time></trkpt><trkpt lat="43.26194816224076" lon="12.940971018182614"><ele>462.0</ele><time>2026-04-11T07:40:03Z</time></trkpt><trkpt lat="43.2620333304323" lon="12.940798302744597"><ele>464.33333333333337</ele><time>2026-04-11T07:40:04Z</time></trkpt><trkpt lat="43.26211422843616" lon="12.940624458273618"><ele>466.6666666666667</ele><time>2026-04-11T07:40:05Z</time></trkpt><trkpt lat="43.26217894757353" lon="12.940426841956084"><ele>469.0</ele><time>2026-04-11T07:40:06Z</time></trkpt><trkpt lat="43.262256560311876" lon="12.94024534244123"><ele>466.33333333333337</ele><time>2026-04-11T07:40:07Z</time></trkpt><trkpt lat="43.26233442050128" lon="12.940048825030464"><ele>463.66666666666663</ele><time>2026-04-11T07:40:08Z</time></trkpt><trkpt lat="43.26241204670136" lon="12.939866140583005"><ele>461.0</ele><time>2026-04-11T07:40:09Z</time></trkpt><trkpt lat="43.26249960262574" lon="12.939687570174689"><ele>461.0</ele><time>2026-04-11T07:40:10Z</time></trkpt><trkpt lat="43.26261240515172" lon="12.939530007643004"><ele>461.0</ele><time>2026-04-11T07:40:11Z</time></trkpt><trkpt lat="43.262716505206654" lon="12.939373653635306"><ele>461.0</ele><time>2026-04-11T07:40:12Z</time></trkpt><trkpt lat="43.262823730532716" lon="12.939220945401367"><ele>462.25</ele><time>2026-04-11T07:40:13Z</time></trkpt><trkpt lat="43.26292731962172" lon="12.93907393367111"><ele>463.5</ele><time>2026-04-11T07:40:14Z</time></trkpt><trkpt lat="43.26302663825903" lon="12.938935976092889"><ele>464.75</ele><time>2026-04-11T07:40:15Z</time></trkpt><trkpt lat="43.263135249989325" lon="12.938786695081728"><ele>466.0</ele><time>2026-04-11T07:40:16Z</time></trkpt><trkpt lat="43.263242186284295" lon="12.938636874921919"><ele>466.0</ele><time>2026-04-11T07:40:17Z</time></trkpt><trkpt lat="43.263348020656125" lon="12.938488598535818"><ele>466.0</ele><time>2026-04-11T07:40:18Z</time></trkpt><trkpt lat="43.26344763244115" lon="12.938349089343179"><ele>466.0</ele><time>2026-04-11T07:40:19Z</time></trkpt><trkpt lat="43.26354813827195" lon="12.938208343575436"><ele>466.0</ele><time>2026-04-11T07:40:20Z</time></trkpt><trkpt lat="43.26365067180178" lon="12.93806531147175"><ele>465.33333333333337</ele><time>2026-04-11T07:40:21Z</time></trkpt><trkpt lat="43.263761044615194" lon="12.93791266593669"><ele>464.66666666666663</ele><time>2026-04-11T07:40:22Z</time></trkpt><trkpt lat="43.26386932783477" lon="12.937762910318979"><ele>464.0</ele><time>2026-04-11T07:40:23Z</time></trkpt><trkpt lat="43.2639646372677" lon="12.937600665747254"><ele>467.0</ele><time>2026-04-11T07:40:24Z</time></trkpt><trkpt lat="43.26407499271899" lon="12.93745196483894"><ele>470.0</ele><time>2026-04-11T07:40:25Z</time></trkpt><trkpt lat="43.264186174947916" lon="12.937292061009362"><ele>473.0</ele><time>2026-04-11T07:40:26Z</time></trkpt><trkpt lat="43.264292267184196" lon="12.937154870316732"><ele>473.0</ele><time>2026-04-11T07:40:27Z</time></trkpt><trkpt lat="43.264382027782275" lon="12.937030638068563"><ele>472.99999999999994</ele><time>2026-04-11T07:40:28Z</time></trkpt><trkpt lat="43.26446049827209" lon="12.936908818927291"><ele>472.99999999999994</ele><time>2026-04-11T07:40:29Z</time></trkpt><trkpt lat="43.264538175927925" lon="12.936821613698253"><ele>473.0</ele><time>2026-04-11T07:40:30Z</time></trkpt><trkpt lat="43.264610264167935" lon="12.936723771348985"><ele>473.0</ele><time>2026-04-11T07:40:31Z</time></trkpt><trkpt lat="43.26466490301532" lon="12.93666214544313"><ele>472.3333333333333</ele><time>2026-04-11T07:40:32Z</time></trkpt><trkpt lat="43.26472718098032" lon="12.936607594549377"><ele>471.66666666666663</ele><time>2026-04-11T07:40:33Z</time></trkpt><trkpt lat="43.264787161470586" lon="12.936565826488556"><ele>471.0</ele><time>2026-04-11T07:40:34Z</time></trkpt><trkpt lat="43.264818399466456" lon="12.9364273212496"><ele>470.33333333333337</ele><time>2026-04-11T07:40:35Z</time></trkpt><trkpt lat="43.26487273561698" lon="12.936338717380742"><ele>469.6666666666667</ele><time>2026-04-11T07:40:36Z</time></trkpt><trkpt lat="43.264944860572065" lon="12.936265682968857"><ele>469.0</ele><time>2026-04-11T07:40:37Z</time></trkpt><trkpt lat="43.265033988768984" lon="12.936159327639848"><ele>470.0</ele><time>2026-04-11T07:40:38Z</time></trkpt><trkpt lat="43.26513957506642" lon="12.936028462413942"><ele>471.0</ele><time>2026-04-11T07:40:39Z</time></trkpt><trkpt lat="43.26524698994976" lon="12.93586859143558"><ele>472.0</ele><time>2026-04-11T07:40:40Z</time></trkpt><trkpt lat="43.265334314660876" lon="12.935728018559585"><ele>473.0</ele><time>2026-04-11T07:40:41Z</time></trkpt><trkpt lat="43.26542473221166" lon="12.935611643251406"><ele>473.0</ele><time>2026-04-11T07:40:42Z</time></trkpt><trkpt lat="43.26550612810803" lon="12.935505153749922"><ele>473.0</ele><time>2026-04-11T07:40:43Z</time></trkpt><trkpt lat="43.26557907358558" lon="12.935431936782775"><ele>473.0</ele><time>2026-04-11T07:40:44Z</time></trkpt><trkpt lat="43.26565508158017" lon="12.935279435077792"><ele>473.0</ele><time>2026-04-11T07:40:45Z</time></trkpt><trkpt lat="43.26572650223388" lon="12.93513372609399"><ele>475.75</ele><time>2026-04-11T07:40:46Z</time></trkpt><trkpt lat="43.26580542781865" lon="12.934946144462927"><ele>478.5</ele><time>2026-04-11T07:40:47Z</time></trkpt><trkpt lat="43.26586989494576" lon="12.9347881167271"><ele>481.25</ele><time>2026-04-11T07:40:48Z</time></trkpt><trkpt lat="43.26593138479201" lon="12.93467106994632"><ele>484.0</ele><time>2026-04-11T07:40:49Z</time></trkpt><trkpt lat="43.26600153002881" lon="12.934541175832079"><ele>484.0</ele><time>2026-04-11T07:40:50Z</time></trkpt><trkpt lat="43.266074002311356" lon="12.934403499117336"><ele>484.0</ele><time>2026-04-11T07:40:51Z</time></trkpt><trkpt lat="43.266127849422745" lon="12.934274019847868"><ele>484.0</ele><time>2026-04-11T07:40:52Z</time></trkpt><trkpt lat="43.26620716587251" lon="12.934166189201031"><ele>484.0</ele><time>2026-04-11T07:40:53Z</time></trkpt><trkpt lat="43.26624480617054" lon="12.934044212335355"><ele>484.0</ele><time>2026-04-11T07:40:54Z</time></trkpt><trkpt lat="43.26629937260719" lon="12.93392425643841"><ele>485.0</ele><time>2026-04-11T07:40:55Z</time></trkpt><trkpt lat="43.26633621723284" lon="12.933779236919628"><ele>486.0</ele><time>2026-04-11T07:40:56Z</time></trkpt><trkpt lat="43.26639331057399" lon="12.933632726946806"><ele>487.0</ele><time>2026-04-11T07:40:57Z</time></trkpt><trkpt lat="43.266447736765585" lon="12.933480886280572"><ele>488.0</ele><time>2026-04-11T07:40:58Z</time></trkpt><trkpt lat="43.266498539756185" lon="12.933321939753222"><ele>488.0</ele><time>2026-04-11T07:40:59Z</time></trkpt><trkpt lat="43.26656752294387" lon="12.933190814731054"><ele>488.0</ele><time>2026-04-11T07:41:00Z</time></trkpt><trkpt lat="43.266615004384356" lon="12.933053717458202"><ele>488.0</ele><time>2026-04-11T07:41:01Z</time></trkpt><trkpt lat="43.266685356750145" lon="12.9329051700559"><ele>488.0</ele><time>2026-04-11T07:41:02Z</time></trkpt><trkpt lat="43.26674034904126" lon="12.932744942121971"><ele>488.0</ele><time>2026-04-11T07:41:03Z</time></trkpt><trkpt lat="43.26681688796225" lon="12.932593717140659"><ele>488.0</ele><time>2026-04-11T07:41:04Z</time></trkpt><trkpt lat="43.26689038586799" lon="12.93244070182538"><ele>488.0</ele><time>2026-04-11T07:41:05Z</time></trkpt><trkpt lat="43.26696085366836" lon="12.932300949107157"><ele>488.0</ele><time>2026-04-11T07:41:06Z</time></trkpt><trkpt lat="43.26701617003984" lon="12.932168950092088"><ele>486.5</ele><time>2026-04-11T07:41:07Z</time></trkpt><trkpt lat="43.26708730522265" lon="12.932043887884987"><ele>485.0</ele><time>2026-04-11T07:41:08Z</time></trkpt><trkpt lat="43.26716076985081" lon="12.931918781712433"><ele>483.5</ele><time>2026-04-11T07:41:09Z</time></trkpt><trkpt lat="43.26723374746484" lon="12.931793934697614"><ele>482.0</ele><time>2026-04-11T07:41:10Z</time></trkpt><trkpt lat="43.26725790185246" lon="12.931628378575834"><ele>482.0</ele><time>2026-04-11T07:41:11Z</time></trkpt><trkpt lat="43.26726473262415" lon="12.931459997024753"><ele>482.0</ele><time>2026-04-11T07:41:12Z</time></trkpt><trkpt lat="43.26725972194013" lon="12.931287371065869"><ele>482.0</ele><time>2026-04-11T07:41:13Z</time></trkpt><trkpt lat="43.26725231279926" lon="12.931074938164732"><ele>482.0</ele><time>2026-04-11T07:41:14Z</time></trkpt><trkpt lat="43.26724459999215" lon="12.93085089229165"><ele>482.0</ele><time>2026-04-11T07:41:15Z</time></trkpt><trkpt lat="43.26721886501362" lon="12.930655800248722"><ele>482.0</ele><time>2026-04-11T07:41:16Z</time></trkpt><trkpt lat="43.26719511947251" lon="12.930500857431191"><ele>482.0</ele><time>2026-04-11T07:41:17Z</time></trkpt><trkpt lat="43.26718043967482" lon="12.930340205434753"><ele>482.0</ele><time>2026-04-11T07:41:18Z</time></trkpt><trkpt lat="43.26715735840184" lon="12.930172464634685"><ele>483.20000000000005</ele><time>2026-04-11T07:41:19Z</time></trkpt><trkpt lat="43.2671575537105" lon="12.930016287081306"><ele>484.40000000000003</ele><time>2026-04-11T07:41:20Z</time></trkpt><trkpt lat="43.267140657134824" lon="12.929910116119045"><ele>485.59999999999997</ele><time>2026-04-11T07:41:21Z</time></trkpt><trkpt lat="43.26711194785754" lon="12.92981578027787"><ele>486.79999999999995</ele><time>2026-04-11T07:41:22Z</time></trkpt><trkpt lat="43.26707085916776" lon="12.929692193581728"><ele>488.0</ele><time>2026-04-11T07:41:23Z</time></trkpt><trkpt lat="43.267058084963146" lon="12.92957605931905"><ele>488.0</ele><time>2026-04-11T07:41:24Z</time></trkpt><trkpt lat="43.26708766697716" lon="12.929469421076142"><ele>487.99999999999994</ele><time>2026-04-11T07:41:25Z</time></trkpt><trkpt lat="43.267116029437645" lon="12.92933769802636"><ele>487.99999999999994</ele><time>2026-04-11T07:41:26Z</time></trkpt><trkpt lat="43.26714802886229" lon="12.929187370934258"><ele>488.0</ele><time>2026-04-11T07:41:27Z</time></trkpt><trkpt lat="43.26717436024611" lon="12.929034225812979"><ele>488.0</ele><time>2026-04-11T07:41:28Z</time></trkpt><trkpt lat="43.26719452028796" lon="12.928875800784963"><ele>488.2</ele><time>2026-04-11T07:41:29Z</time></trkpt><trkpt lat="43.26718626184357" lon="12.928708053471768"><ele>488.4</ele><time>2026-04-11T07:41:30Z</time></trkpt><trkpt lat="43.26716191387891" lon="12.928589168589156"><ele>488.59999999999997</ele><time>2026-04-11T07:41:31Z</time></trkpt><trkpt lat="43.267151673414695" lon="12.928494836314231"><ele>488.79999999999995</ele><time>2026-04-11T07:41:32Z</time></trkpt><trkpt lat="43.26717657259997" lon="12.92832265978179"><ele>489.0</ele><time>2026-04-11T07:41:34Z</time></trkpt><trkpt lat="43.267206140546726" lon="12.928192619394514"><ele>489.0</ele><time>2026-04-11T07:41:35Z</time></trkpt><trkpt lat="43.26724386069753" lon="12.928047262855708"><ele>489.0</ele><time>2026-04-11T07:41:36Z</time></trkpt><trkpt lat="43.26727518381022" lon="12.927878058365206"><ele>489.0</ele><time>2026-04-11T07:41:37Z</time></trkpt><trkpt lat="43.26727329864931" lon="12.927740931451389"><ele>489.0</ele><time>2026-04-11T07:41:38Z</time></trkpt><trkpt lat="43.26726196737577" lon="12.927561357356758"><ele>489.75</ele><time>2026-04-11T07:41:39Z</time></trkpt><trkpt lat="43.26725249439922" lon="12.927385310142359"><ele>490.5</ele><time>2026-04-11T07:41:40Z</time></trkpt><trkpt lat="43.2672229778381" lon="12.927203200926687"><ele>491.25</ele><time>2026-04-11T07:41:41Z</time></trkpt><trkpt lat="43.267201019131235" lon="12.927027537015853"><ele>492.0</ele><time>2026-04-11T07:41:42Z</time></trkpt><trkpt lat="43.26717768465189" lon="12.92686435866223"><ele>492.0</ele><time>2026-04-11T07:41:43Z</time></trkpt><trkpt lat="43.26709742417608" lon="12.926728923676508"><ele>492.0</ele><time>2026-04-11T07:41:44Z</time></trkpt><trkpt lat="43.267061102987" lon="12.926567947035714"><ele>492.0</ele><time>2026-04-11T07:41:45Z</time></trkpt><trkpt lat="43.26702787229125" lon="12.926405111321221"><ele>492.0</ele><time>2026-04-11T07:41:46Z</time></trkpt><trkpt lat="43.26701125931208" lon="12.926232083134563"><ele>492.5</ele><time>2026-04-11T07:41:47Z</time></trkpt><trkpt lat="43.26697149387621" lon="12.926063667202998"><ele>493.0</ele><time>2026-04-11T07:41:48Z</time></trkpt><trkpt lat="43.26693970951174" lon="12.925898115121683"><ele>493.5</ele><time>2026-04-11T07:41:49Z</time></trkpt><trkpt lat="43.266921307949524" lon="12.925747797619001"><ele>494.0</ele><time>2026-04-11T07:41:50Z</time></trkpt><trkpt lat="43.266849758316965" lon="12.925599450993666"><ele>494.5</ele><time>2026-04-11T07:41:51Z</time></trkpt><trkpt lat="43.266787304123845" lon="12.925448517379518"><ele>495.0</ele><time>2026-04-11T07:41:52Z</time></trkpt><trkpt lat="43.26671498323084" lon="12.925279691628457"><ele>495.5</ele><time>2026-04-11T07:41:53Z</time></trkpt><trkpt lat="43.26665238811548" lon="12.925134520613378"><ele>496.0</ele><time>2026-04-11T07:41:54Z</time></trkpt><trkpt lat="43.266596063353354" lon="12.924991087520603"><ele>497.6</ele><time>2026-04-11T07:41:55Z</time></trkpt><trkpt lat="43.266558115580864" lon="12.9248749082738"><ele>499.20000000000005</ele><time>2026-04-11T07:41:56Z</time></trkpt><trkpt lat="43.26653298241305" lon="12.924795121740932"><ele>500.79999999999995</ele><time>2026-04-11T07:41:57Z</time></trkpt><trkpt lat="43.26651844545483" lon="12.924694697672953"><ele>502.4</ele><time>2026-04-11T07:41:58Z</time></trkpt><trkpt lat="43.26650122725703" lon="12.924521596712976"><ele>504.0</ele><time>2026-04-11T07:41:59Z</time></trkpt><trkpt lat="43.26651774739417" lon="12.924348148149583"><ele>505.5</ele><time>2026-04-11T07:42:00Z</time></trkpt><trkpt lat="43.266526855260004" lon="12.924167023629817"><ele>507.0</ele><time>2026-04-11T07:42:01Z</time></trkpt><trkpt lat="43.26651305425742" lon="12.923980516290495"><ele>508.5</ele><time>2026-04-11T07:42:02Z</time></trkpt><trkpt lat="43.266497721610946" lon="12.923794913461743"><ele>510.0</ele><time>2026-04-11T07:42:03Z</time></trkpt><trkpt lat="43.26648396477488" lon="12.923641431208479"><ele>510.0</ele><time>2026-04-11T07:42:04Z</time></trkpt><trkpt lat="43.26648918751556" lon="12.92347977007748"><ele>510.0</ele><time>2026-04-11T07:42:05Z</time></trkpt><trkpt lat="43.266476815858994" lon="12.923308455046607"><ele>510.0</ele><time>2026-04-11T07:42:06Z</time></trkpt><trkpt lat="43.26647919501703" lon="12.92314770009792"><ele>510.0</ele><time>2026-04-11T07:42:07Z</time></trkpt><trkpt lat="43.26645596373779" lon="12.922976298093305"><ele>510.5</ele><time>2026-04-11T07:42:08Z</time></trkpt><trkpt lat="43.266414342843476" lon="12.922830301938621"><ele>511.0</ele><time>2026-04-11T07:42:09Z</time></trkpt><trkpt lat="43.26639190785709" lon="12.922678851561017"><ele>511.5</ele><time>2026-04-11T07:42:10Z</time></trkpt><trkpt lat="43.26637438671584" lon="12.922514558034992"><ele>512.0</ele><time>2026-04-11T07:42:11Z</time></trkpt><trkpt lat="43.26634078668436" lon="12.922371471686095"><ele>511.20000000000005</ele><time>2026-04-11T07:42:12Z</time></trkpt><trkpt lat="43.26629136055065" lon="12.922264582888047"><ele>510.40000000000003</ele><time>2026-04-11T07:42:13Z</time></trkpt><trkpt lat="43.26621809723047" lon="12.92217397758007"><ele>509.59999999999997</ele><time>2026-04-11T07:42:14Z</time></trkpt><trkpt lat="43.26612384846018" lon="12.922062846802751"><ele>508.79999999999995</ele><time>2026-04-11T07:42:15Z</time></trkpt><trkpt lat="43.26604692153203" lon="12.921930076408486"><ele>508.0</ele><time>2026-04-11T07:42:16Z</time></trkpt><trkpt lat="43.26597496270538" lon="12.921781933145946"><ele>509.0</ele><time>2026-04-11T07:42:17Z</time></trkpt><trkpt lat="43.26590766964408" lon="12.921645793413326"><ele>509.99999999999994</ele><time>2026-04-11T07:42:18Z</time></trkpt><trkpt lat="43.26582616090189" lon="12.921495658672173"><ele>510.99999999999994</ele><time>2026-04-11T07:42:19Z</time></trkpt><trkpt lat="43.265752537833414" lon="12.921395606749856"><ele>512.0</ele><time>2026-04-11T07:42:20Z</time></trkpt><trkpt lat="43.26569355962446" lon="12.921322623443347"><ele>513.0</ele><time>2026-04-11T07:42:21Z</time></trkpt><trkpt lat="43.26564689774495" lon="12.921214992230915"><ele>515.75</ele><time>2026-04-11T07:42:22Z</time></trkpt><trkpt lat="43.26560814763567" lon="12.921094662123092"><ele>518.5</ele><time>2026-04-11T07:42:23Z</time></trkpt><trkpt lat="43.26558319354678" lon="12.920958621422601"><ele>521.25</ele><time>2026-04-11T07:42:24Z</time></trkpt><trkpt lat="43.265563853911175" lon="12.920794943940136"><ele>524.0</ele><time>2026-04-11T07:42:25Z</time></trkpt><trkpt lat="43.265544536592884" lon="12.92059833680052"><ele>524.0</ele><time>2026-04-11T07:42:26Z</time></trkpt><trkpt lat="43.26552223456338" lon="12.920380588337698"><ele>524.0</ele><time>2026-04-11T07:42:27Z</time></trkpt><trkpt lat="43.2655090614633" lon="12.920170982516296"><ele>524.0</ele><time>2026-04-11T07:42:28Z</time></trkpt><trkpt lat="43.265501856168996" lon="12.919951629010455"><ele>523.0</ele><time>2026-04-11T07:42:29Z</time></trkpt><trkpt lat="43.26548543445602" lon="12.919750232491353"><ele>522.0</ele><time>2026-04-11T07:42:30Z</time></trkpt><trkpt lat="43.265466612976105" lon="12.919580312030181"><ele>521.0</ele><time>2026-04-11T07:42:31Z</time></trkpt><trkpt lat="43.26544481500395" lon="12.919404163090693"><ele>520.0</ele><time>2026-04-11T07:42:32Z</time></trkpt><trkpt lat="43.26539820084774" lon="12.91920476159424"><ele>520.0</ele><time>2026-04-11T07:42:33Z</time></trkpt><trkpt lat="43.26536665415057" lon="12.919047891169752"><ele>520.0</ele><time>2026-04-11T07:42:34Z</time></trkpt><trkpt lat="43.26533723314211" lon="12.91890219543614"><ele>520.0</ele><time>2026-04-11T07:42:35Z</time></trkpt><trkpt lat="43.265297062204716" lon="12.918741189670396"><ele>520.0</ele><time>2026-04-11T07:42:36Z</time></trkpt><trkpt lat="43.26524010628774" lon="12.918586521647766"><ele>520.0</ele><time>2026-04-11T07:42:37Z</time></trkpt><trkpt lat="43.265188706178854" lon="12.918425023341436"><ele>520.0</ele><time>2026-04-11T07:42:38Z</time></trkpt><trkpt lat="43.26516593374709" lon="12.918258348132387"><ele>520.0</ele><time>2026-04-11T07:42:39Z</time></trkpt><trkpt lat="43.265156490787106" lon="12.918093613461977"><ele>520.0</ele><time>2026-04-11T07:42:40Z</time></trkpt><trkpt lat="43.26515215851117" lon="12.917925577826084"><ele>520.8</ele><time>2026-04-11T07:42:41Z</time></trkpt><trkpt lat="43.26515726458645" lon="12.917792026642749"><ele>521.6</ele><time>2026-04-11T07:42:42Z</time></trkpt><trkpt lat="43.26517605597663" lon="12.917684284269592"><ele>522.4</ele><time>2026-04-11T07:42:43Z</time></trkpt><trkpt lat="43.265211883767286" lon="12.917570208777162"><ele>523.2</ele><time>2026-04-11T07:42:44Z</time></trkpt><trkpt lat="43.26525517548413" lon="12.917438518783069"><ele>524.0</ele><time>2026-04-11T07:42:45Z</time></trkpt><trkpt lat="43.26528205908199" lon="12.91724672662618"><ele>524.25</ele><time>2026-04-11T07:42:46Z</time></trkpt><trkpt lat="43.2652617213599" lon="12.91704702098764"><ele>524.5</ele><time>2026-04-11T07:42:47Z</time></trkpt><trkpt lat="43.26523178947475" lon="12.9169046334659"><ele>524.75</ele><time>2026-04-11T07:42:48Z</time></trkpt><trkpt lat="43.265223620525646" lon="12.91675161724891"><ele>525.0</ele><time>2026-04-11T07:42:49Z</time></trkpt><trkpt lat="43.265200216651785" lon="12.916613951424477"><ele>525.2</ele><time>2026-04-11T07:42:50Z</time></trkpt><trkpt lat="43.26518222018142" lon="12.916477578126047"><ele>525.4</ele><time>2026-04-11T07:42:51Z</time></trkpt><trkpt lat="43.265195581142464" lon="12.916353325790839"><ele>525.6</ele><time>2026-04-11T07:42:52Z</time></trkpt><trkpt lat="43.265184846261526" lon="12.916248204069399"><ele>525.8</ele><time>2026-04-11T07:42:53Z</time></trkpt><trkpt lat="43.26519132223752" lon="12.916133302150863"><ele>526.0</ele><time>2026-04-11T07:42:54Z</time></trkpt><trkpt lat="43.26516373205095" lon="12.915963674843002"><ele>526.5</ele><time>2026-04-11T07:42:56Z</time></trkpt><trkpt lat="43.2651353025691" lon="12.915823578868961"><ele>527.0</ele><time>2026-04-11T07:42:57Z</time></trkpt><trkpt lat="43.265069757807794" lon="12.915760239885204"><ele>527.5</ele><time>2026-04-11T07:42:58Z</time></trkpt><trkpt lat="43.264995255647165" lon="12.915697642513635"><ele>528.0</ele><time>2026-04-11T07:42:59Z</time></trkpt><trkpt lat="43.26492010040981" lon="12.915632132466522"><ele>528.5</ele><time>2026-04-11T07:43:00Z</time></trkpt><trkpt lat="43.264857794867716" lon="12.915560341874103"><ele>529.0</ele><time>2026-04-11T07:43:01Z</time></trkpt><trkpt lat="43.264793568808514" lon="12.915463662425884"><ele>530.8</ele><time>2026-04-11T07:43:02Z</time></trkpt><trkpt lat="43.264737450976206" lon="12.915364643685498"><ele>532.5999999999999</ele><time>2026-04-11T07:43:03Z</time></trkpt><trkpt lat="43.26468586369929" lon="12.915300550725597"><ele>534.4</ele><time>2026-04-11T07:43:04Z</time></trkpt><trkpt lat="43.264633684742336" lon="12.915173481196435"><ele>536.1999999999999</ele><time>2026-04-11T07:43:06Z</time></trkpt><trkpt lat="43.26457642847336" lon="12.915038616153993"><ele>538.0</ele><time>2026-04-11T07:43:07Z</time></trkpt><trkpt lat="43.26450986810165" lon="12.914861536487706"><ele>538.0</ele><time>2026-04-11T07:43:08Z</time></trkpt><trkpt lat="43.264459754019484" lon="12.914769135484882"><ele>538.0</ele><time>2026-04-11T07:43:10Z</time></trkpt><trkpt lat="43.26441653640997" lon="12.914623265268935"><ele>538.0</ele><time>2026-04-11T07:43:12Z</time></trkpt><trkpt lat="43.26387853782661" lon="12.914668100781828"><ele>541.1666666666667</ele><time>2026-04-11T07:43:14Z</time></trkpt><trkpt lat="43.263797676731144" lon="12.914602874041396"><ele>544.3333333333334</ele><time>2026-04-11T07:43:15Z</time></trkpt><trkpt lat="43.2637472392739" lon="12.914524521898905"><ele>547.5</ele><time>2026-04-11T07:43:16Z</time></trkpt><trkpt lat="43.26369874532866" lon="12.91442781857709"><ele>550.6666666666666</ele><time>2026-04-11T07:43:17Z</time></trkpt><trkpt lat="43.26362612419446" lon="12.914342603449267"><ele>553.8333333333333</ele><time>2026-04-11T07:43:18Z</time></trkpt><trkpt lat="43.263556414745906" lon="12.914309452308126"><ele>557.0</ele><time>2026-04-11T07:43:19Z</time></trkpt><trkpt lat="43.263444259167244" lon="12.914305271978145"><ele>557.0</ele><time>2026-04-11T07:43:21Z</time></trkpt><trkpt lat="43.26337031132764" lon="12.914384388079636"><ele>557.0</ele><time>2026-04-11T07:43:23Z</time></trkpt><trkpt lat="43.26332313415567" lon="12.914459362108325"><ele>557.0</ele><time>2026-04-11T07:43:24Z</time></trkpt><trkpt lat="43.26330110260153" lon="12.914561270835245"><ele>557.0</ele><time>2026-04-11T07:43:25Z</time></trkpt><trkpt lat="43.263267795005895" lon="12.914653450130148"><ele>557.0</ele><time>2026-04-11T07:43:26Z</time></trkpt><trkpt lat="43.263216180348735" lon="12.914707111167447"><ele>557.0</ele><time>2026-04-11T07:43:27Z</time></trkpt><trkpt lat="43.263158575877725" lon="12.914760725225664"><ele>560.6666666666666</ele><time>2026-04-11T07:43:28Z</time></trkpt><trkpt lat="43.263097027404164" lon="12.914802537136866"><ele>564.3333333333333</ele><time>2026-04-11T07:43:32Z</time></trkpt><trkpt lat="43.262967526755276" lon="12.91475073085385"><ele>568.0</ele><time>2026-04-11T07:43:34Z</time></trkpt><trkpt lat="43.262902598707534" lon="12.914709320851117"><ele>571.6666666666666</ele><time>2026-04-11T07:43:35Z</time></trkpt><trkpt lat="43.262831279067214" lon="12.914764852134265"><ele>575.3333333333334</ele><time>2026-04-11T07:43:38Z</time></trkpt><trkpt lat="43.26276579315769" lon="12.914849777361864"><ele>579.0</ele><time>2026-04-11T07:43:40Z</time></trkpt><trkpt lat="43.262772177188495" lon="12.914982781844513"><ele>579.0</ele><time>2026-04-11T07:43:43Z</time></trkpt><trkpt lat="43.26273361249011" lon="12.915063410754337"><ele>579.0</ele><time>2026-04-11T07:43:46Z</time></trkpt><trkpt lat="43.262674599287934" lon="12.915175098686083"><ele>579.0</ele><time>2026-04-11T07:43:50Z</time></trkpt><trkpt lat="43.262625491464654" lon="12.915274717781204"><ele>579.0</ele><time>2026-04-11T07:43:53Z</time></trkpt><trkpt lat="43.262656854498076" lon="12.915366180992146"><ele>579.0</ele><time>2026-04-11T07:43:55Z</time></trkpt><trkpt lat="43.26261796396079" lon="12.915437538261878"><ele>579.0</ele><time>2026-04-11T07:43:59Z</time></trkpt><trkpt lat="43.262549169103195" lon="12.915480056004437"><ele>581.6666666666666</ele><time>2026-04-11T07:44:02Z</time></trkpt><trkpt lat="43.26249485154794" lon="12.915435336217051"><ele>584.3333333333334</ele><time>2026-04-11T07:44:04Z</time></trkpt><trkpt lat="43.26242147754482" lon="12.91546459310615"><ele>587.0</ele><time>2026-04-11T07:44:06Z</time></trkpt><trkpt lat="43.26235804902648" lon="12.915475337660503"><ele>589.6666666666667</ele><time>2026-04-11T07:44:10Z</time></trkpt><trkpt lat="43.26235012241587" lon="12.915636480060364"><ele>592.3333333333334</ele><time>2026-04-11T07:44:14Z</time></trkpt><trkpt lat="43.262293980050735" lon="12.915779984081814"><ele>595.0</ele><time>2026-04-11T07:44:16Z</time></trkpt><trkpt lat="43.26220766273317" lon="12.915785799620297"><ele>598.1666666666667</ele><time>2026-04-11T07:44:18Z</time></trkpt><trkpt lat="43.2621158927739" lon="12.915788959343843"><ele>601.3333333333334</ele><time>2026-04-11T07:44:20Z</time></trkpt><trkpt lat="43.26203546400192" lon="12.91578882268925"><ele>604.5</ele><time>2026-04-11T07:44:21Z</time></trkpt><trkpt lat="43.261964934877405" lon="12.91575519951978"><ele>607.6666666666666</ele><time>2026-04-11T07:44:22Z</time></trkpt><trkpt lat="43.261872643811806" lon="12.915766025860298"><ele>610.8333333333333</ele><time>2026-04-11T07:44:23Z</time></trkpt><trkpt lat="43.26177725313194" lon="12.915767924694185"><ele>614.0</ele><time>2026-04-11T07:44:24Z</time></trkpt><trkpt lat="43.261697423316" lon="12.915769539842012"><ele>614.0</ele><time>2026-04-11T07:44:25Z</time></trkpt><trkpt lat="43.26162838059756" lon="12.915755384631858"><ele>614.0</ele><time>2026-04-11T07:44:26Z</time></trkpt><trkpt lat="43.261537896689156" lon="12.915708380961883"><ele>614.0</ele><time>2026-04-11T07:44:28Z</time></trkpt><trkpt lat="43.26149116018942" lon="12.915827794415327"><ele>614.0</ele><time>2026-04-11T07:44:29Z</time></trkpt><trkpt lat="43.26143597180106" lon="12.915885333537076"><ele>614.0</ele><time>2026-04-11T07:44:30Z</time></trkpt><trkpt lat="43.261228800185" lon="12.915800765455796"><ele>618.5</ele><time>2026-04-11T07:44:39Z</time></trkpt><trkpt lat="43.26116884839925" lon="12.915773795273342"><ele>623.0</ele><time>2026-04-11T07:44:40Z</time></trkpt><trkpt lat="43.261103389762525" lon="12.915775954290556"><ele>627.5</ele><time>2026-04-11T07:44:41Z</time></trkpt><trkpt lat="43.26103351808756" lon="12.915783581431747"><ele>632.0</ele><time>2026-04-11T07:44:42Z</time></trkpt><trkpt lat="43.26094381546138" lon="12.915800421560563"><ele>636.5</ele><time>2026-04-11T07:44:43Z</time></trkpt><trkpt lat="43.260848359772424" lon="12.915821965169068"><ele>641.0</ele><time>2026-04-11T07:44:44Z</time></trkpt><trkpt lat="43.260744019466" lon="12.9158606486531"><ele>641.0</ele><time>2026-04-11T07:44:45Z</time></trkpt><trkpt lat="43.26062740408361" lon="12.915902966323292"><ele>641.0</ele><time>2026-04-11T07:44:46Z</time></trkpt><trkpt lat="43.26050808479317" lon="12.915969519602054"><ele>641.0</ele><time>2026-04-11T07:44:47Z</time></trkpt><trkpt lat="43.26041593010073" lon="12.916030638389485"><ele>641.0</ele><time>2026-04-11T07:44:48Z</time></trkpt><trkpt lat="43.26033429904281" lon="12.916109137534953"><ele>646.6666666666666</ele><time>2026-04-11T07:44:49Z</time></trkpt><trkpt lat="43.2602771239083" lon="12.916167666585844"><ele>652.3333333333333</ele><time>2026-04-11T07:44:50Z</time></trkpt><trkpt lat="43.2602059265505" lon="12.91620394966837"><ele>658.0</ele><time>2026-04-11T07:44:51Z</time></trkpt><trkpt lat="43.26009267160388" lon="12.916279092669432"><ele>663.6666666666666</ele><time>2026-04-11T07:44:53Z</time></trkpt><trkpt lat="43.2600070783474" lon="12.916375863608176"><ele>669.3333333333334</ele><time>2026-04-11T07:44:55Z</time></trkpt><trkpt lat="43.25995156894384" lon="12.916419670982405"><ele>675.0</ele><time>2026-04-11T07:44:56Z</time></trkpt><trkpt lat="43.259872612383646" lon="12.916469367730013"><ele>677.0</ele><time>2026-04-11T07:44:58Z</time></trkpt><trkpt lat="43.25976235193315" lon="12.91649408150132"><ele>679.0</ele><time>2026-04-11T07:45:00Z</time></trkpt><trkpt lat="43.2596924348182" lon="12.916513794771957"><ele>681.0</ele><time>2026-04-11T07:45:02Z</time></trkpt><trkpt lat="43.259569473564135" lon="12.916557685618582"><ele>683.0</ele><time>2026-04-11T07:45:04Z</time></trkpt><trkpt lat="43.259470111877214" lon="12.916662702635058"><ele>685.0</ele><time>2026-04-11T07:45:06Z</time></trkpt><trkpt lat="43.25941964300135" lon="12.916734382557415"><ele>686.5</ele><time>2026-04-11T07:45:07Z</time></trkpt><trkpt lat="43.259360469359976" lon="12.916825778830948"><ele>688.0</ele><time>2026-04-11T07:45:09Z</time></trkpt><trkpt lat="43.259307324214426" lon="12.916899264844997"><ele>689.5</ele><time>2026-04-11T07:45:10Z</time></trkpt><trkpt lat="43.25924436503481" lon="12.91696952627002"><ele>691.0</ele><time>2026-04-11T07:45:11Z</time></trkpt><trkpt lat="43.25917501416151" lon="12.917054099005032"><ele>692.5</ele><time>2026-04-11T07:45:11.999Z</time></trkpt><trkpt lat="43.25910567331682" lon="12.917147623135468"><ele>694.0</ele><time>2026-04-11T07:45:12.999Z</time></trkpt><trkpt lat="43.2590322229463" lon="12.917252746894926"><ele>694.0</ele><time>2026-04-11T07:45:13.999Z</time></trkpt><trkpt lat="43.2589610196202" lon="12.917349337275168"><ele>694.0</ele><time>2026-04-11T07:45:14.999Z</time></trkpt><trkpt lat="43.25889073940244" lon="12.917443858423647"><ele>694.0</ele><time>2026-04-11T07:45:15.999Z</time></trkpt><trkpt lat="43.258820372808444" lon="12.91754505376397"><ele>694.0</ele><time>2026-04-11T07:45:16.999Z</time></trkpt><trkpt lat="43.25874952725573" lon="12.917637223457868"><ele>694.0</ele><time>2026-04-11T07:45:17.999Z</time></trkpt><trkpt lat="43.258670837247536" lon="12.917725417191617"><ele>697.2</ele><time>2026-04-11T07:45:18.999Z</time></trkpt><trkpt lat="43.25858032663295" lon="12.91780394907336"><ele>700.4000000000001</ele><time>2026-04-11T07:45:19.999Z</time></trkpt><trkpt lat="43.258493695184754" lon="12.917891439334173"><ele>703.6</ele><time>2026-04-11T07:45:20.999Z</time></trkpt><trkpt lat="43.25840855940918" lon="12.917959684508448"><ele>706.8</ele><time>2026-04-11T07:45:21.999Z</time></trkpt><trkpt lat="43.25832576224317" lon="12.918042354948273"><ele>710.0</ele><time>2026-04-11T07:45:22.999Z</time></trkpt><trkpt lat="43.258230102374114" lon="12.918120364863714"><ele>710.0</ele><time>2026-04-11T07:45:23.999Z</time></trkpt><trkpt lat="43.258118817454566" lon="12.918206103223254"><ele>710.0</ele><time>2026-04-11T07:45:24.999Z</time></trkpt><trkpt lat="43.2580148169816" lon="12.918284636267957"><ele>710.0</ele><time>2026-04-11T07:45:25.999Z</time></trkpt><trkpt lat="43.25791829182618" lon="12.918360966652953"><ele>710.0</ele><time>2026-04-11T07:45:26.999Z</time></trkpt><trkpt lat="43.2578180942296" lon="12.918434841800448"><ele>714.8</ele><time>2026-04-11T07:45:27.999Z</time></trkpt><trkpt lat="43.257723360134605" lon="12.918507660579609"><ele>719.6</ele><time>2026-04-11T07:45:28.999Z</time></trkpt><trkpt lat="43.25763470198425" lon="12.918575434531386"><ele>724.4000000000001</ele><time>2026-04-11T07:45:29.999Z</time></trkpt><trkpt lat="43.25755132989774" lon="12.918622716336765"><ele>729.2</ele><time>2026-04-11T07:45:30.999Z</time></trkpt><trkpt lat="43.25746977214851" lon="12.918640966140329"><ele>734.0</ele><time>2026-04-11T07:45:31.999Z</time></trkpt><trkpt lat="43.257388946657066" lon="12.918648426646435"><ele>734.0</ele><time>2026-04-11T07:45:32.999Z</time></trkpt><trkpt lat="43.25730807012536" lon="12.918651264441309"><ele>734.0</ele><time>2026-04-11T07:45:33.999Z</time></trkpt><trkpt lat="43.257216491663065" lon="12.9186521181705"><ele>734.0</ele><time>2026-04-11T07:45:34.999Z</time></trkpt><trkpt lat="43.257134232645704" lon="12.91866212999315"><ele>734.0</ele><time>2026-04-11T07:45:35.999Z</time></trkpt><trkpt lat="43.25704057861831" lon="12.918709243537911"><ele>734.0</ele><time>2026-04-11T07:45:36.999Z</time></trkpt><trkpt lat="43.25694992695552" lon="12.91877610805738"><ele>735.0</ele><time>2026-04-11T07:45:37.999Z</time></trkpt><trkpt lat="43.25687111468724" lon="12.918810361288454"><ele>736.0</ele><time>2026-04-11T07:45:38.999Z</time></trkpt><trkpt lat="43.256784187419775" lon="12.918832356565087"><ele>737.0</ele><time>2026-04-11T07:45:39.999Z</time></trkpt><trkpt lat="43.25669683726469" lon="12.918856241713737"><ele>738.0</ele><time>2026-04-11T07:45:40.999Z</time></trkpt><trkpt lat="43.25662645899122" lon="12.918870199366722"><ele>739.0</ele><time>2026-04-11T07:45:41.999Z</time></trkpt><trkpt lat="43.25654953474174" lon="12.918898159721376"><ele>740.0</ele><time>2026-04-11T07:45:44.999Z</time></trkpt><trkpt lat="43.25660073423874" lon="12.918949103870165"><ele>739.9999999999999</ele><time>2026-04-11T07:45:48.999Z</time></trkpt><trkpt lat="43.25653473228504" lon="12.918975448793539"><ele>740.0</ele><time>2026-04-11T07:45:57.999Z</time></trkpt><trkpt lat="43.256493458308306" lon="12.919047072288544"><ele>740.0</ele><time>2026-04-11T07:46:02.999Z</time></trkpt><trkpt lat="43.2564308114529" lon="12.9190275550103"><ele>740.0</ele><time>2026-04-11T07:46:08.999Z</time></trkpt><trkpt lat="43.256342150733836" lon="12.918998812734163"><ele>740.0</ele><time>2026-04-11T07:46:13.999Z</time></trkpt><trkpt lat="43.256263015815726" lon="12.918980031730083"><ele>739.9999999999999</ele><time>2026-04-11T07:46:16.999Z</time></trkpt><trkpt lat="43.25619397827638" lon="12.918957280571616"><ele>740.0</ele><time>2026-04-11T07:46:19.999Z</time></trkpt><trkpt lat="43.25612956325007" lon="12.91894674925357"><ele>743.0</ele><time>2026-04-11T07:46:21.999Z</time></trkpt><trkpt lat="43.25605307215129" lon="12.918984948763653"><ele>746.0</ele><time>2026-04-11T07:46:25.999Z</time></trkpt><trkpt lat="43.25598929250613" lon="12.919020023229313"><ele>749.0</ele><time>2026-04-11T07:46:27.999Z</time></trkpt><trkpt lat="43.25592125335564" lon="12.919108884200151"><ele>752.0</ele><time>2026-04-11T07:46:32.999Z</time></trkpt><trkpt lat="43.255865109745855" lon="12.919160301479653"><ele>755.0</ele><time>2026-04-11T07:46:36.999Z</time></trkpt><trkpt lat="43.255801424737946" lon="12.919180765444493"><ele>758.0</ele><time>2026-04-11T07:46:39.999Z</time></trkpt><trkpt lat="43.25572861226305" lon="12.919206967325133"><ele>761.0000000000001</ele><time>2026-04-11T07:46:42.999Z</time></trkpt><trkpt lat="43.25566226224184" lon="12.919240544172734"><ele>764.0</ele><time>2026-04-11T07:46:44.999Z</time></trkpt><trkpt lat="43.25562601739218" lon="12.919315890869855"><ele>767.0</ele><time>2026-04-11T07:46:51.999Z</time></trkpt><trkpt lat="43.255650499557646" lon="12.919405560786618"><ele>770.0</ele><time>2026-04-11T07:46:53.999Z</time></trkpt><trkpt lat="43.25571056370151" lon="12.919491966366849"><ele>773.0</ele><time>2026-04-11T07:46:56.999Z</time></trkpt><trkpt lat="43.255754958858866" lon="12.919562700639112"><ele>776.0000000000001</ele><time>2026-04-11T07:47:00.999Z</time></trkpt><trkpt lat="43.25572914180387" lon="12.91967286986498"><ele>779.0</ele><time>2026-04-11T07:47:04.999Z</time></trkpt><trkpt lat="43.25580320730771" lon="12.91966457102342"><ele>779.0000000000001</ele><time>2026-04-11T07:47:12.999Z</time></trkpt><trkpt lat="43.25581936763187" lon="12.919548569910368"><ele>779.0</ele><time>2026-04-11T07:47:15.999Z</time></trkpt><trkpt lat="43.25580176066463" lon="12.919461167430573"><ele>779.0</ele><time>2026-04-11T07:47:17.999Z</time></trkpt><trkpt lat="43.25576233968408" lon="12.919364362665245"><ele>779.0</ele><time>2026-04-11T07:47:19.999Z</time></trkpt><trkpt lat="43.25570154040624" lon="12.919280744075479"><ele>779.0000000000001</ele><time>2026-04-11T07:47:21.999Z</time></trkpt><trkpt lat="43.25564743043268" lon="12.919177067234003"><ele>779.0</ele><time>2026-04-11T07:47:24.999Z</time></trkpt><trkpt lat="43.25559302482362" lon="12.919115718355652"><ele>780.6666666666667</ele><time>2026-04-11T07:47:27.999Z</time></trkpt><trkpt lat="43.255540705567455" lon="12.919040818828721"><ele>782.3333333333333</ele><time>2026-04-11T07:47:28.999Z</time></trkpt><trkpt lat="43.255445453145036" lon="12.91943695015405"><ele>784.0</ele><time>2026-04-11T07:47:30.999Z</time></trkpt><trkpt lat="43.255151977016205" lon="12.919627109739535"><ele>786.4000000000001</ele><time>2026-04-11T07:47:39.999Z</time></trkpt><trkpt lat="43.2550925958" lon="12.91970533066527"><ele>788.8</ele><time>2026-04-11T07:47:40.999Z</time></trkpt><trkpt lat="43.255024563477214" lon="12.919789255895543"><ele>791.2</ele><time>2026-04-11T07:47:41.999Z</time></trkpt><trkpt lat="43.25496360401315" lon="12.919851692919186"><ele>793.5999999999999</ele><time>2026-04-11T07:47:42.999Z</time></trkpt><trkpt lat="43.25483066686642" lon="12.919860539411921"><ele>796.0</ele><time>2026-04-11T07:47:43.999Z</time></trkpt><trkpt lat="43.25471756723154" lon="12.919825725203111"><ele>802.75</ele><time>2026-04-11T07:47:45.999Z</time></trkpt><trkpt lat="43.254583566587634" lon="12.919733261428739"><ele>809.5</ele><time>2026-04-11T07:47:47.999Z</time></trkpt><trkpt lat="43.25448383191563" lon="12.91963915871257"><ele>816.25</ele><time>2026-04-11T07:47:48.999Z</time></trkpt><trkpt lat="43.25436366858905" lon="12.919585071560073"><ele>823.0</ele><time>2026-04-11T07:47:50Z</time></trkpt><trkpt lat="43.25425012364951" lon="12.919504354177084"><ele>823.0</ele><time>2026-04-11T07:47:51Z</time></trkpt><trkpt lat="43.2541838589245" lon="12.919434772514675"><ele>823.0</ele><time>2026-04-11T07:47:53Z</time></trkpt><trkpt lat="43.25410708825466" lon="12.919405575530439"><ele>823.0</ele><time>2026-04-11T07:47:55Z</time></trkpt><trkpt lat="43.25389990187435" lon="12.919446047036974"><ele>823.0</ele><time>2026-04-11T07:47:57Z</time></trkpt><trkpt lat="43.253780009742584" lon="12.919444069434828"><ele>825.5</ele><time>2026-04-11T07:47:58Z</time></trkpt><trkpt lat="43.25364582041327" lon="12.919441091046929"><ele>828.0</ele><time>2026-04-11T07:47:59Z</time></trkpt><trkpt lat="43.25345376854757" lon="12.919519998850863"><ele>830.5</ele><time>2026-04-11T07:48:00Z</time></trkpt><trkpt lat="43.2533829494525" lon="12.9194390991452"><ele>833.0</ele><time>2026-04-11T07:48:01Z</time></trkpt><trkpt lat="43.253318825147176" lon="12.919366351003086"><ele>833.0000000000001</ele><time>2026-04-11T07:48:02Z</time></trkpt><trkpt lat="43.253265827088036" lon="12.919292445359767"><ele>833.0</ele><time>2026-04-11T07:48:03Z</time></trkpt><trkpt lat="43.253191420866294" lon="12.919255863797272"><ele>833.0</ele><time>2026-04-11T07:48:04Z</time></trkpt><trkpt lat="43.25313991826001" lon="12.919195705742746"><ele>833.0</ele><time>2026-04-11T07:48:05Z</time></trkpt><trkpt lat="43.25305250499467" lon="12.919108793261893"><ele>833.0000000000001</ele><time>2026-04-11T07:48:07Z</time></trkpt><trkpt lat="43.25299688546273" lon="12.919060229842723"><ele>833.0</ele><time>2026-04-11T07:48:08Z</time></trkpt><trkpt lat="43.25291518494701" lon="12.918998264811849"><ele>838.2</ele><time>2026-04-11T07:48:10Z</time></trkpt><trkpt lat="43.252786411395064" lon="12.918931096786057"><ele>843.4</ele><time>2026-04-11T07:48:12Z</time></trkpt><trkpt lat="43.25270343730962" lon="12.91890095938213"><ele>848.6000000000001</ele><time>2026-04-11T07:48:13Z</time></trkpt><trkpt lat="43.25259865112208" lon="12.918879305286604"><ele>853.8000000000001</ele><time>2026-04-11T07:48:14Z</time></trkpt><trkpt lat="43.25249789958542" lon="12.918866405467"><ele>859.0</ele><time>2026-04-11T07:48:15Z</time></trkpt><trkpt lat="43.25238408633678" lon="12.918854507149646"><ele>860.4000000000001</ele><time>2026-04-11T07:48:16Z</time></trkpt><trkpt lat="43.25225428333993" lon="12.918839300979611"><ele>861.8000000000001</ele><time>2026-04-11T07:48:17Z</time></trkpt><trkpt lat="43.252167822667715" lon="12.918825493471397"><ele>863.1999999999999</ele><time>2026-04-11T07:48:18Z</time></trkpt><trkpt lat="43.25207289333824" lon="12.918804294159786"><ele>864.5999999999999</ele><time>2026-04-11T07:48:19Z</time></trkpt><trkpt lat="43.25197990782111" lon="12.918792191967135"><ele>866.0</ele><time>2026-04-11T07:48:20Z</time></trkpt><trkpt lat="43.25188281880445" lon="12.918753270892632"><ele>866.0</ele><time>2026-04-11T07:48:21Z</time></trkpt><trkpt lat="43.25179233391111" lon="12.918715743888518"><ele>865.9999999999999</ele><time>2026-04-11T07:48:22Z</time></trkpt><trkpt lat="43.25169210137267" lon="12.918674543002755"><ele>865.9999999999999</ele><time>2026-04-11T07:48:23Z</time></trkpt><trkpt lat="43.25158512593695" lon="12.918628523868179"><ele>866.0</ele><time>2026-04-11T07:48:24Z</time></trkpt><trkpt lat="43.25146235781214" lon="12.91854907993988"><ele>866.0</ele><time>2026-04-11T07:48:25Z</time></trkpt><trkpt lat="43.251340735449084" lon="12.918510691651955"><ele>867.0</ele><time>2026-04-11T07:48:26Z</time></trkpt><trkpt lat="43.251208038697726" lon="12.918453424346264"><ele>867.9999999999999</ele><time>2026-04-11T07:48:27Z</time></trkpt><trkpt lat="43.25109914411253" lon="12.918428352561108"><ele>868.9999999999999</ele><time>2026-04-11T07:48:28Z</time></trkpt><trkpt lat="43.251009102202026" lon="12.918420465191256"><ele>870.0</ele><time>2026-04-11T07:48:29Z</time></trkpt><trkpt lat="43.25094440136926" lon="12.918381662348867"><ele>871.0</ele><time>2026-04-11T07:48:30Z</time></trkpt><trkpt lat="43.25088089668912" lon="12.918350099695552"><ele>872.0</ele><time>2026-04-11T07:48:31Z</time></trkpt><trkpt lat="43.25080684256242" lon="12.918260571067535"><ele>872.9999999999999</ele><time>2026-04-11T07:48:32Z</time></trkpt><trkpt lat="43.250684369508974" lon="12.918215531115626"><ele>873.9999999999999</ele><time>2026-04-11T07:48:33Z</time></trkpt><trkpt lat="43.250604712474455" lon="12.918207223357191"><ele>875.0</ele><time>2026-04-11T07:48:34Z</time></trkpt><trkpt lat="43.250505667804525" lon="12.918213589867273"><ele>876.0</ele><time>2026-04-11T07:48:35Z</time></trkpt><trkpt lat="43.2503941572718" lon="12.918236464889999"><ele>879.0</ele><time>2026-04-11T07:48:36Z</time></trkpt><trkpt lat="43.25030166764069" lon="12.918260255116298"><ele>881.9999999999999</ele><time>2026-04-11T07:48:37Z</time></trkpt><trkpt lat="43.2502048374437" lon="12.918289367895177"><ele>884.9999999999999</ele><time>2026-04-11T07:48:38Z</time></trkpt><trkpt lat="43.250116632761014" lon="12.918318687778944"><ele>888.0</ele><time>2026-04-11T07:48:39Z</time></trkpt><trkpt lat="43.25004049585487" lon="12.918344361989003"><ele>891.0</ele><time>2026-04-11T07:48:40Z</time></trkpt><trkpt lat="43.24994426939377" lon="12.91837746957489"><ele>890.6666666666666</ele><time>2026-04-11T07:48:41Z</time></trkpt><trkpt lat="43.24985735510521" lon="12.91840899001533"><ele>890.3333333333333</ele><time>2026-04-11T07:48:42Z</time></trkpt><trkpt lat="43.249775227382294" lon="12.918439697809598"><ele>890.0</ele><time>2026-04-11T07:48:43Z</time></trkpt><trkpt lat="43.24970357258885" lon="12.91846736608542"><ele>889.6666666666666</ele><time>2026-04-11T07:48:44Z</time></trkpt><trkpt lat="43.249642337244886" lon="12.918491179203864"><ele>889.3333333333333</ele><time>2026-04-11T07:48:45Z</time></trkpt><trkpt lat="43.24956035580783" lon="12.918546425820246"><ele>889.0</ele><time>2026-04-11T07:48:46Z</time></trkpt><trkpt lat="43.249474680308786" lon="12.91857541387033"><ele>893.0</ele><time>2026-04-11T07:48:47Z</time></trkpt><trkpt lat="43.24938504269398" lon="12.918609025859935"><ele>897.0</ele><time>2026-04-11T07:48:48Z</time></trkpt><trkpt lat="43.249283908875164" lon="12.918651735659534"><ele>901.0</ele><time>2026-04-11T07:48:49Z</time></trkpt><trkpt lat="43.249172614195665" lon="12.918699499669522"><ele>905.0</ele><time>2026-04-11T07:48:50Z</time></trkpt><trkpt lat="43.24903740242661" lon="12.918753603089712"><ele>909.5</ele><time>2026-04-11T07:48:51Z</time></trkpt><trkpt lat="43.24889994445086" lon="12.918796328001013"><ele>914.0</ele><time>2026-04-11T07:48:52Z</time></trkpt><trkpt lat="43.248788509969984" lon="12.918873188369114"><ele>918.5</ele><time>2026-04-11T07:48:53Z</time></trkpt><trkpt lat="43.24868659652772" lon="12.918900907810235"><ele>923.0</ele><time>2026-04-11T07:48:54Z</time></trkpt><trkpt lat="43.248593413949045" lon="12.91895258801855"><ele>923.0</ele><time>2026-04-11T07:48:55Z</time></trkpt><trkpt lat="43.24849835558887" lon="12.919007834875282"><ele>923.0</ele><time>2026-04-11T07:48:56Z</time></trkpt><trkpt lat="43.248380638095966" lon="12.919078183949837"><ele>923.0</ele><time>2026-04-11T07:48:57Z</time></trkpt><trkpt lat="43.248267189823586" lon="12.919150504620974"><ele>923.0</ele><time>2026-04-11T07:48:58Z</time></trkpt><trkpt lat="43.248162681987274" lon="12.919219191920169"><ele>923.5999999999999</ele><time>2026-04-11T07:48:59Z</time></trkpt><trkpt lat="43.24806361554754" lon="12.919286890591174"><ele>924.1999999999999</ele><time>2026-04-11T07:49:00Z</time></trkpt><trkpt lat="43.247980611510414" lon="12.919343612743564"><ele>924.8</ele><time>2026-04-11T07:49:01Z</time></trkpt><trkpt lat="43.24791880790147" lon="12.919387225176976"><ele>925.4</ele><time>2026-04-11T07:49:02Z</time></trkpt><trkpt lat="43.24782323646586" lon="12.919454976060681"><ele>926.0</ele><time>2026-04-11T07:49:04Z</time></trkpt><trkpt lat="43.24770450642263" lon="12.919540392795215"><ele>926.0000000000001</ele><time>2026-04-11T07:49:06Z</time></trkpt><trkpt lat="43.24762960877269" lon="12.919599565665028"><ele>926.0</ele><time>2026-04-11T07:49:07Z</time></trkpt><trkpt lat="43.24754119078395" lon="12.919648173788383"><ele>926.0</ele><time>2026-04-11T07:49:08Z</time></trkpt><trkpt lat="43.247474460877555" lon="12.919715487126737"><ele>926.0</ele><time>2026-04-11T07:49:09Z</time></trkpt><trkpt lat="43.247404049888864" lon="12.919781525769633"><ele>926.0000000000001</ele><time>2026-04-11T07:49:10Z</time></trkpt><trkpt lat="43.24733179753156" lon="12.919831560992163"><ele>926.0</ele><time>2026-04-11T07:49:11Z</time></trkpt><trkpt lat="43.24725842200641" lon="12.919899205319126"><ele>927.1999999999999</ele><time>2026-04-11T07:49:12Z</time></trkpt><trkpt lat="43.24718590933647" lon="12.919977522163732"><ele>928.3999999999999</ele><time>2026-04-11T07:49:13Z</time></trkpt><trkpt lat="43.24711940473148" lon="12.92005874555192"><ele>929.6</ele><time>2026-04-11T07:49:14Z</time></trkpt><trkpt lat="43.24703985436567" lon="12.920159580580798"><ele>930.8</ele><time>2026-04-11T07:49:15Z</time></trkpt><trkpt lat="43.24699311016124" lon="12.920258134580743"><ele>932.0</ele><time>2026-04-11T07:49:16Z</time></trkpt><trkpt lat="43.24695405358705" lon="12.920369113527375"><ele>929.6</ele><time>2026-04-11T07:49:17Z</time></trkpt><trkpt lat="43.246924616758406" lon="12.92050411671968"><ele>927.2</ele><time>2026-04-11T07:49:19Z</time></trkpt><trkpt lat="43.2468366661093" lon="12.92058070904329"><ele>924.8</ele><time>2026-04-11T07:49:21Z</time></trkpt><trkpt lat="43.24673131707527" lon="12.920549930841881"><ele>922.4</ele><time>2026-04-11T07:49:23Z</time></trkpt><trkpt lat="43.24667238448443" lon="12.920507562843717"><ele>920.0</ele><time>2026-04-11T07:49:24Z</time></trkpt><trkpt lat="43.246608061626446" lon="12.920444432044128"><ele>920.0</ele><time>2026-04-11T07:49:25Z</time></trkpt><trkpt lat="43.24652266531508" lon="12.920357701204585"><ele>920.0</ele><time>2026-04-11T07:49:26Z</time></trkpt><trkpt lat="43.246410671113935" lon="12.920267602598752"><ele>920.0</ele><time>2026-04-11T07:49:27Z</time></trkpt><trkpt lat="43.24630664830875" lon="12.920163969650373"><ele>920.0</ele><time>2026-04-11T07:49:28Z</time></trkpt><trkpt lat="43.246208726201594" lon="12.920050965698952"><ele>920.0</ele><time>2026-04-11T07:49:29Z</time></trkpt><trkpt lat="43.24609083421241" lon="12.919959331927613"><ele>920.0</ele><time>2026-04-11T07:49:30Z</time></trkpt><trkpt lat="43.24597613065466" lon="12.919871270344736"><ele>920.0</ele><time>2026-04-11T07:49:31Z</time></trkpt><trkpt lat="43.24587298724775" lon="12.919793507377872"><ele>920.0</ele><time>2026-04-11T07:49:32Z</time></trkpt><trkpt lat="43.245777039474824" lon="12.919721167995013"><ele>920.0000000000001</ele><time>2026-04-11T07:49:33Z</time></trkpt><trkpt lat="43.24569984496736" lon="12.919665098370512"><ele>920.0</ele><time>2026-04-11T07:49:34Z</time></trkpt><trkpt lat="43.245626377692105" lon="12.919611702907323"><ele>920.0</ele><time>2026-04-11T07:49:35Z</time></trkpt><trkpt lat="43.24555693066459" lon="12.91956122947126"><ele>920.0</ele><time>2026-04-11T07:49:36Z</time></trkpt><trkpt lat="43.24549243212475" lon="12.91951492763945"><ele>920.0000000000001</ele><time>2026-04-11T07:49:37Z</time></trkpt><trkpt lat="43.24543226303425" lon="12.919472144095254"><ele>920.0</ele><time>2026-04-11T07:49:38Z</time></trkpt><trkpt lat="43.24537141488847" lon="12.919428877447569"><ele>920.0000000000001</ele><time>2026-04-11T07:49:39Z</time></trkpt><trkpt lat="43.24530975602309" lon="12.919386185189497"><ele>920.0</ele><time>2026-04-11T07:49:40Z</time></trkpt><trkpt lat="43.24525298215789" lon="12.919348107717289"><ele>920.0</ele><time>2026-04-11T07:49:41Z</time></trkpt><trkpt lat="43.24514493877779" lon="12.919277219250622"><ele>920.0</ele><time>2026-04-11T07:49:43Z</time></trkpt><trkpt lat="43.245039947674194" lon="12.919233763485519"><ele>920.0000000000001</ele><time>2026-04-11T07:49:45Z</time></trkpt><trkpt lat="43.244990632799485" lon="12.919178631400579"><ele>920.0</ele><time>2026-04-11T07:49:46Z</time></trkpt><trkpt lat="43.244915476672766" lon="12.919150036648343"><ele>920.0000000000001</ele><time>2026-04-11T07:49:47Z</time></trkpt><trkpt lat="43.24484240974318" lon="12.919100438505783"><ele>920.0</ele><time>2026-04-11T07:49:48Z</time></trkpt><trkpt lat="43.24477013498412" lon="12.91904913429257"><ele>920.0</ele><time>2026-04-11T07:49:49Z</time></trkpt><trkpt lat="43.244691169763605" lon="12.918998707404082"><ele>920.0</ele><time>2026-04-11T07:49:50Z</time></trkpt><trkpt lat="43.24460968734131" lon="12.91895226750828"><ele>920.0000000000001</ele><time>2026-04-11T07:49:51Z</time></trkpt><trkpt lat="43.244547157118426" lon="12.918918877863053"><ele>920.0</ele><time>2026-04-11T07:49:52Z</time></trkpt><trkpt lat="43.24446846374859" lon="12.918871678932259"><ele>917.1666666666667</ele><time>2026-04-11T07:49:53Z</time></trkpt><trkpt lat="43.244388988816084" lon="12.918832642049185"><ele>914.3333333333334</ele><time>2026-04-11T07:49:54Z</time></trkpt><trkpt lat="43.24431426368968" lon="12.918794944134028"><ele>911.5</ele><time>2026-04-11T07:49:55Z</time></trkpt><trkpt lat="43.24423623596691" lon="12.918754688329255"><ele>908.6666666666667</ele><time>2026-04-11T07:49:56Z</time></trkpt><trkpt lat="43.24415909180271" lon="12.918720591708139"><ele>905.8333333333334</ele><time>2026-04-11T07:49:57Z</time></trkpt><trkpt lat="43.24408296396853" lon="12.918692912679573"><ele>903.0</ele><time>2026-04-11T07:49:58Z</time></trkpt><trkpt lat="43.244010068391994" lon="12.918655690561417"><ele>901.1666666666666</ele><time>2026-04-11T07:49:59Z</time></trkpt><trkpt lat="43.24393117286129" lon="12.91861898681417"><ele>899.3333333333333</ele><time>2026-04-11T07:50:00Z</time></trkpt><trkpt lat="43.243857920440085" lon="12.918586662581083"><ele>897.5</ele><time>2026-04-11T07:50:01Z</time></trkpt><trkpt lat="43.24377644463416" lon="12.918564460972409"><ele>895.6666666666666</ele><time>2026-04-11T07:50:02Z</time></trkpt><trkpt lat="43.24369625785184" lon="12.918515564070136"><ele>893.8333333333333</ele><time>2026-04-11T07:50:03Z</time></trkpt><trkpt lat="43.243616182626" lon="12.918489590323553"><ele>892.0</ele><time>2026-04-11T07:50:04Z</time></trkpt><trkpt lat="43.24354459410565" lon="12.918467510218816"><ele>891.9999999999999</ele><time>2026-04-11T07:50:05Z</time></trkpt><trkpt lat="43.24346039345222" lon="12.91844363873023"><ele>892.0</ele><time>2026-04-11T07:50:06Z</time></trkpt><trkpt lat="43.24337198555366" lon="12.918419086665251"><ele>892.0</ele><time>2026-04-11T07:50:07Z</time></trkpt><trkpt lat="43.243283227916265" lon="12.918396240864853"><ele>892.0</ele><time>2026-04-11T07:50:08Z</time></trkpt><trkpt lat="43.2431954022276" lon="12.918373634958792"><ele>891.9999999999999</ele><time>2026-04-11T07:50:09Z</time></trkpt><trkpt lat="43.24311174714139" lon="12.918352102547376"><ele>892.0</ele><time>2026-04-11T07:50:10Z</time></trkpt><trkpt lat="43.243034002299055" lon="12.918332091341417"><ele>891.8</ele><time>2026-04-11T07:50:11Z</time></trkpt><trkpt lat="43.24295757018084" lon="12.918311082714242"><ele>891.6</ele><time>2026-04-11T07:50:12Z</time></trkpt><trkpt lat="43.24288142648567" lon="12.918288229505745"><ele>891.3999999999999</ele><time>2026-04-11T07:50:13Z</time></trkpt><trkpt lat="43.24277063073102" lon="12.918251762021596"><ele>891.1999999999999</ele><time>2026-04-11T07:50:15Z</time></trkpt><trkpt lat="43.24268253438019" lon="12.918193205760266"><ele>891.0</ele><time>2026-04-11T07:50:16Z</time></trkpt><trkpt lat="43.24252406734479" lon="12.918201774514472"><ele>891.0</ele><time>2026-04-11T07:50:17Z</time></trkpt><trkpt lat="43.242387068658445" lon="12.918102183756105"><ele>891.0</ele><time>2026-04-11T07:50:18Z</time></trkpt><trkpt lat="43.242233650398525" lon="12.91792567487712"><ele>891.0</ele><time>2026-04-11T07:50:19Z</time></trkpt><trkpt lat="43.24213833019581" lon="12.917739308294113"><ele>889.5</ele><time>2026-04-11T07:50:20Z</time></trkpt><trkpt lat="43.24205484109052" lon="12.917535662736237"><ele>888.0</ele><time>2026-04-11T07:50:21Z</time></trkpt><trkpt lat="43.241989171216446" lon="12.917371464590548"><ele>886.5</ele><time>2026-04-11T07:50:22.001Z</time></trkpt><trkpt lat="43.24194204771239" lon="12.917212508607342"><ele>885.0</ele><time>2026-04-11T07:50:23.001Z</time></trkpt><trkpt lat="43.241861369564326" lon="12.917075876514998"><ele>885.0</ele><time>2026-04-11T07:50:24.001Z</time></trkpt><trkpt lat="43.24179166599801" lon="12.91694868637489"><ele>885.0</ele><time>2026-04-11T07:50:25.001Z</time></trkpt><trkpt lat="43.241727821528855" lon="12.916828244729373"><ele>885.0</ele><time>2026-04-11T07:50:26.001Z</time></trkpt><trkpt lat="43.24167970423404" lon="12.916735792982847"><ele>885.0</ele><time>2026-04-11T07:50:27Z</time></trkpt><trkpt lat="43.24163068914577" lon="12.916644515325624"><ele>885.0</ele><time>2026-04-11T07:50:28Z</time></trkpt><trkpt lat="43.24158776257856" lon="12.916524186272305"><ele>886.4</ele><time>2026-04-11T07:50:29Z</time></trkpt><trkpt lat="43.241538499912814" lon="12.91640209222482"><ele>887.8</ele><time>2026-04-11T07:50:30Z</time></trkpt><trkpt lat="43.241506611758204" lon="12.916265657724917"><ele>889.2</ele><time>2026-04-11T07:50:31Z</time></trkpt><trkpt lat="43.241473258957235" lon="12.916121062742551"><ele>890.6</ele><time>2026-04-11T07:50:32Z</time></trkpt><trkpt lat="43.24144625664145" lon="12.91597663743512"><ele>892.0</ele><time>2026-04-11T07:50:33Z</time></trkpt><trkpt lat="43.24141485497027" lon="12.915826076175728"><ele>888.6</ele><time>2026-04-11T07:50:34Z</time></trkpt><trkpt lat="43.24140024452915" lon="12.915667304172983"><ele>885.2</ele><time>2026-04-11T07:50:35Z</time></trkpt><trkpt lat="43.241381101272" lon="12.915510981904243"><ele>881.8</ele><time>2026-04-11T07:50:36Z</time></trkpt><trkpt lat="43.24135575432849" lon="12.915372272192926"><ele>878.4</ele><time>2026-04-11T07:50:37Z</time></trkpt><trkpt lat="43.241341072301445" lon="12.915220800481462"><ele>875.0</ele><time>2026-04-11T07:50:38Z</time></trkpt><trkpt lat="43.24133349509097" lon="12.915105736495867"><ele>876.1666666666667</ele><time>2026-04-11T07:50:39Z</time></trkpt><trkpt lat="43.24134323233591" lon="12.915008891069217"><ele>877.3333333333334</ele><time>2026-04-11T07:50:40Z</time></trkpt><trkpt lat="43.24133732925153" lon="12.914915027247224"><ele>878.5</ele><time>2026-04-11T07:50:41Z</time></trkpt><trkpt lat="43.241317806594566" lon="12.914825579817636"><ele>879.6666666666667</ele><time>2026-04-11T07:50:42Z</time></trkpt><trkpt lat="43.24131442836524" lon="12.914735679863004"><ele>880.8333333333334</ele><time>2026-04-11T07:50:43Z</time></trkpt><trkpt lat="43.2413003972975" lon="12.914606788781152"><ele>882.0</ele><time>2026-04-11T07:50:45Z</time></trkpt><trkpt lat="43.24129899485838" lon="12.914480087556482"><ele>882.0</ele><time>2026-04-11T07:50:47Z</time></trkpt><trkpt lat="43.241292163226746" lon="12.914321093667791"><ele>882.0</ele><time>2026-04-11T07:50:49Z</time></trkpt><trkpt lat="43.24126541937296" lon="12.914240466169382"><ele>882.0</ele><time>2026-04-11T07:50:50Z</time></trkpt><trkpt lat="43.24124064279923" lon="12.914155907530633"><ele>882.0</ele><time>2026-04-11T07:50:51Z</time></trkpt><trkpt lat="43.24121672059195" lon="12.91407282308029"><ele>882.0</ele><time>2026-04-11T07:50:52Z</time></trkpt><trkpt lat="43.241168265765225" lon="12.913939274702965"><ele>882.0</ele><time>2026-04-11T07:50:54Z</time></trkpt><trkpt lat="43.241119093813964" lon="12.91381456106306"><ele>880.0</ele><time>2026-04-11T07:50:56Z</time></trkpt><trkpt lat="43.24106368763952" lon="12.913685889148207"><ele>878.0</ele><time>2026-04-11T07:50:58Z</time></trkpt><trkpt lat="43.24099673206314" lon="12.913536048855502"><ele>876.0</ele><time>2026-04-11T07:51:00Z</time></trkpt><trkpt lat="43.24091988156048" lon="12.913409567394545"><ele>874.0</ele><time>2026-04-11T07:51:02Z</time></trkpt><trkpt lat="43.240860927401684" lon="12.913273582270746"><ele>872.1666666666666</ele><time>2026-04-11T07:51:04Z</time></trkpt><trkpt lat="43.24080190685472" lon="12.91313080849354"><ele>870.3333333333333</ele><time>2026-04-11T07:51:06Z</time></trkpt><trkpt lat="43.24076624199922" lon="12.913037086628236"><ele>868.5</ele><time>2026-04-11T07:51:07Z</time></trkpt><trkpt lat="43.240733492227555" lon="12.912940987717304"><ele>866.6666666666667</ele><time>2026-04-11T07:51:08Z</time></trkpt><trkpt lat="43.24069942977334" lon="12.912851719335908"><ele>864.8333333333334</ele><time>2026-04-11T07:51:09Z</time></trkpt><trkpt lat="43.240670091458256" lon="12.91277169117208"><ele>863.0</ele><time>2026-04-11T07:51:10Z</time></trkpt><trkpt lat="43.24064069997199" lon="12.912690600649698"><ele>858.5000000000001</ele><time>2026-04-11T07:51:11Z</time></trkpt><trkpt lat="43.240606552628044" lon="12.912597282838158"><ele>854.0</ele><time>2026-04-11T07:51:12Z</time></trkpt><trkpt lat="43.24057077935361" lon="12.912504628692817"><ele>849.5</ele><time>2026-04-11T07:51:13Z</time></trkpt><trkpt lat="43.24055296295496" lon="12.912404860005154"><ele>845.0</ele><time>2026-04-11T07:51:14Z</time></trkpt><trkpt lat="43.24052036971742" lon="12.912314190823867"><ele>840.5000000000001</ele><time>2026-04-11T07:51:15Z</time></trkpt><trkpt lat="43.24048392482155" lon="12.912219456509089"><ele>836.0</ele><time>2026-04-11T07:51:16Z</time></trkpt><trkpt lat="43.240448528226686" lon="12.912131827352455"><ele>835.3333333333334</ele><time>2026-04-11T07:51:17Z</time></trkpt><trkpt lat="43.24040573209511" lon="12.912032964158977"><ele>834.6666666666667</ele><time>2026-04-11T07:51:18Z</time></trkpt><trkpt lat="43.24035805193563" lon="12.911930978125355"><ele>834.0</ele><time>2026-04-11T07:51:19Z</time></trkpt><trkpt lat="43.24031107760211" lon="12.911835262662642"><ele>833.3333333333333</ele><time>2026-04-11T07:51:20Z</time></trkpt><trkpt lat="43.24025856735326" lon="12.911735118672983"><ele>832.6666666666666</ele><time>2026-04-11T07:51:21Z</time></trkpt><trkpt lat="43.24019732484039" lon="12.911621748684004"><ele>832.0</ele><time>2026-04-11T07:51:22Z</time></trkpt><trkpt lat="43.24013343998602" lon="12.911506243609384"><ele>830.5</ele><time>2026-04-11T07:51:23Z</time></trkpt><trkpt lat="43.24005826048049" lon="12.91137364825919"><ele>829.0</ele><time>2026-04-11T07:51:24Z</time></trkpt><trkpt lat="43.23997968185178" lon="12.911236084457114"><ele>827.5</ele><time>2026-04-11T07:51:25Z</time></trkpt><trkpt lat="43.23990030677426" lon="12.911102033140134"><ele>826.0</ele><time>2026-04-11T07:51:26Z</time></trkpt><trkpt lat="43.239824700607834" lon="12.910974631568838"><ele>823.25</ele><time>2026-04-11T07:51:27Z</time></trkpt><trkpt lat="43.239742290431316" lon="12.910838670157593"><ele>820.5</ele><time>2026-04-11T07:51:28Z</time></trkpt><trkpt lat="43.2396603683301" lon="12.910703513982467"><ele>817.75</ele><time>2026-04-11T07:51:29Z</time></trkpt><trkpt lat="43.23957075406429" lon="12.91055925330318"><ele>815.0</ele><time>2026-04-11T07:51:30Z</time></trkpt><trkpt lat="43.23947287048327" lon="12.910410530919247"><ele>815.0</ele><time>2026-04-11T07:51:31Z</time></trkpt><trkpt lat="43.23937975298388" lon="12.910278091890952"><ele>815.0</ele><time>2026-04-11T07:51:32Z</time></trkpt><trkpt lat="43.23929726561938" lon="12.910161706245342"><ele>815.0</ele><time>2026-04-11T07:51:33Z</time></trkpt><trkpt lat="43.239221317186264" lon="12.91005454697295"><ele>815.0</ele><time>2026-04-11T07:51:34Z</time></trkpt><trkpt lat="43.23913887523207" lon="12.909964224302886"><ele>814.8</ele><time>2026-04-11T07:51:35Z</time></trkpt><trkpt lat="43.23908397966203" lon="12.90985048552"><ele>814.6</ele><time>2026-04-11T07:51:36Z</time></trkpt><trkpt lat="43.23902045886384" lon="12.909753033812889"><ele>814.4000000000001</ele><time>2026-04-11T07:51:37Z</time></trkpt><trkpt lat="43.23895582116663" lon="12.909653868482964"><ele>814.2</ele><time>2026-04-11T07:51:38Z</time></trkpt><trkpt lat="43.23889652262636" lon="12.909562894429433"><ele>814.0</ele><time>2026-04-11T07:51:39Z</time></trkpt><trkpt lat="43.238839812923075" lon="12.909479239665083"><ele>813.9999999999999</ele><time>2026-04-11T07:51:40Z</time></trkpt><trkpt lat="43.238779940444246" lon="12.909398087702154"><ele>814.0</ele><time>2026-04-11T07:51:41Z</time></trkpt><trkpt lat="43.238715297177485" lon="12.909320240915354"><ele>814.0</ele><time>2026-04-11T07:51:42Z</time></trkpt><trkpt lat="43.238640950611845" lon="12.909250295024808"><ele>814.0</ele><time>2026-04-11T07:51:43Z</time></trkpt><trkpt lat="43.23856445407395" lon="12.909195975534935"><ele>813.9999999999999</ele><time>2026-04-11T07:51:44Z</time></trkpt><trkpt lat="43.238486088069955" lon="12.90913546898065"><ele>814.0</ele><time>2026-04-11T07:51:45Z</time></trkpt><trkpt lat="43.23841050777783" lon="12.90914199564642"><ele>820.0</ele><time>2026-04-11T07:51:46Z</time></trkpt><trkpt lat="43.238311962075116" lon="12.909138343583555"><ele>826.0</ele><time>2026-04-11T07:51:48Z</time></trkpt><trkpt lat="43.2382801603804" lon="12.908719996642338"><ele>832.0</ele><time>2026-04-11T07:51:50Z</time></trkpt><trkpt lat="43.23824165803798" lon="12.908638908266019"><ele>832.0</ele><time>2026-04-11T07:51:51Z</time></trkpt><trkpt lat="43.23819885074602" lon="12.908566017482267"><ele>832.0</ele><time>2026-04-11T07:51:52Z</time></trkpt><trkpt lat="43.2381619961872" lon="12.908490474511117"><ele>832.0</ele><time>2026-04-11T07:51:53Z</time></trkpt><trkpt lat="43.23812570921222" lon="12.90840873903186"><ele>832.0</ele><time>2026-04-11T07:51:54Z</time></trkpt><trkpt lat="43.23809034604678" lon="12.908322466433482"><ele>832.0</ele><time>2026-04-11T07:51:55Z</time></trkpt><trkpt lat="43.238054857230274" lon="12.908243076323991"><ele>832.0</ele><time>2026-04-11T07:51:56Z</time></trkpt><trkpt lat="43.23801244375044" lon="12.908143254450307"><ele>832.0</ele><time>2026-04-11T07:51:58Z</time></trkpt><trkpt lat="43.237974011622896" lon="12.908061615274736"><ele>832.0</ele><time>2026-04-11T07:52:01Z</time></trkpt><trkpt lat="43.23794246890802" lon="12.907914973669115"><ele>832.0</ele><time>2026-04-11T07:52:06Z</time></trkpt><trkpt lat="43.23790309874606" lon="12.907767864658878"><ele>832.0</ele><time>2026-04-11T07:52:08Z</time></trkpt><trkpt lat="43.237852879673106" lon="12.90763312484485"><ele>832.0</ele><time>2026-04-11T07:52:10Z</time></trkpt><trkpt lat="43.23781459311764" lon="12.90747790631827"><ele>835.6</ele><time>2026-04-11T07:52:12Z</time></trkpt><trkpt lat="43.23776982689337" lon="12.907327595674598"><ele>839.2</ele><time>2026-04-11T07:52:14Z</time></trkpt><trkpt lat="43.23769891600854" lon="12.907193782074879"><ele>842.8</ele><time>2026-04-11T07:52:16Z</time></trkpt><trkpt lat="43.23764880828942" lon="12.907109924701198"><ele>846.4</ele><time>2026-04-11T07:52:17Z</time></trkpt><trkpt lat="43.23759460388365" lon="12.907017081338022"><ele>850.0</ele><time>2026-04-11T07:52:18Z</time></trkpt><trkpt lat="43.23752962705498" lon="12.906925966225653"><ele>849.9999999999999</ele><time>2026-04-11T07:52:19Z</time></trkpt><trkpt lat="43.23746341488228" lon="12.906840111067595"><ele>850.0</ele><time>2026-04-11T07:52:20Z</time></trkpt><trkpt lat="43.237404755177096" lon="12.906763215689338"><ele>850.0</ele><time>2026-04-11T07:52:21Z</time></trkpt><trkpt lat="43.23735225344753" lon="12.906701321246123"><ele>850.0</ele><time>2026-04-11T07:52:22Z</time></trkpt><trkpt lat="43.237273858643384" lon="12.906600348842995"><ele>849.9999999999999</ele><time>2026-04-11T07:52:24Z</time></trkpt><trkpt lat="43.237211151034494" lon="12.906508993206861"><ele>850.0</ele><time>2026-04-11T07:52:26Z</time></trkpt><trkpt lat="43.23715389019211" lon="12.906433925273728"><ele>850.1666666666666</ele><time>2026-04-11T07:52:28Z</time></trkpt><trkpt lat="43.23711112465514" lon="12.906352579556513"><ele>850.3333333333333</ele><time>2026-04-11T07:52:34Z</time></trkpt><trkpt lat="43.23706215422667" lon="12.906293059010377"><ele>850.5</ele><time>2026-04-11T07:52:37Z</time></trkpt><trkpt lat="43.23713525844249" lon="12.906251435872463"><ele>850.6666666666667</ele><time>2026-04-11T07:52:43Z</time></trkpt><trkpt lat="43.237186547694414" lon="12.90612214811897"><ele>850.8333333333334</ele><time>2026-04-11T07:52:45Z</time></trkpt><trkpt lat="43.23725535696727" lon="12.90600011417937"><ele>851.0</ele><time>2026-04-11T07:52:47Z</time></trkpt><trkpt lat="43.23726009351832" lon="12.905840938861164"><ele>851.0</ele><time>2026-04-11T07:52:49Z</time></trkpt><trkpt lat="43.237248400659574" lon="12.905755378354232"><ele>851.0</ele><time>2026-04-11T07:52:50Z</time></trkpt><trkpt lat="43.237244328956976" lon="12.905591861514154"><ele>851.0</ele><time>2026-04-11T07:52:52Z</time></trkpt><trkpt lat="43.237265860473975" lon="12.905438667857476"><ele>851.0</ele><time>2026-04-11T07:52:54Z</time></trkpt><trkpt lat="43.23725905988626" lon="12.905307588469704"><ele>851.0</ele><time>2026-04-11T07:52:56Z</time></trkpt><trkpt lat="43.237254992169156" lon="12.905215479269483"><ele>851.0000000000001</ele><time>2026-04-11T07:52:57Z</time></trkpt><trkpt lat="43.237260588972894" lon="12.905086902803635"><ele>851.0</ele><time>2026-04-11T07:52:59Z</time></trkpt><trkpt lat="43.23728590306829" lon="12.904955579641495"><ele>851.0</ele><time>2026-04-11T07:53:01Z</time></trkpt><trkpt lat="43.23733246627699" lon="12.904890550116763"><ele>851.0</ele><time>2026-04-11T07:53:02Z</time></trkpt><trkpt lat="43.237382537942295" lon="12.904828028550002"><ele>851.0000000000001</ele><time>2026-04-11T07:53:03Z</time></trkpt><trkpt lat="43.23742371883435" lon="12.904756865513662"><ele>851.0</ele><time>2026-04-11T07:53:04Z</time></trkpt><trkpt lat="43.23746574388783" lon="12.904687738752566"><ele>851.3333333333334</ele><time>2026-04-11T07:53:05Z</time></trkpt><trkpt lat="43.23750900726425" lon="12.904613374846072"><ele>851.6666666666667</ele><time>2026-04-11T07:53:06Z</time></trkpt><trkpt lat="43.23755642818438" lon="12.904537366137006"><ele>852.0</ele><time>2026-04-11T07:53:07Z</time></trkpt><trkpt lat="43.23761288704351" lon="12.904467901787044"><ele>852.3333333333333</ele><time>2026-04-11T07:53:08Z</time></trkpt><trkpt lat="43.23767809898494" lon="12.904420323402432"><ele>852.6666666666666</ele><time>2026-04-11T07:53:09Z</time></trkpt><trkpt lat="43.2377436759817" lon="12.904355857777444"><ele>853.0</ele><time>2026-04-11T07:53:10Z</time></trkpt><trkpt lat="43.23781741526004" lon="12.904278485071986"><ele>856.5999999999999</ele><time>2026-04-11T07:53:11Z</time></trkpt><trkpt lat="43.237891011469195" lon="12.904191863579717"><ele>860.1999999999999</ele><time>2026-04-11T07:53:12Z</time></trkpt><trkpt lat="43.23795249952085" lon="12.904098624732095"><ele>863.8</ele><time>2026-04-11T07:53:13Z</time></trkpt><trkpt lat="43.2380058948948" lon="12.904004898790646"><ele>867.4</ele><time>2026-04-11T07:53:14Z</time></trkpt><trkpt lat="43.23806151103465" lon="12.903914766023346"><ele>871.0</ele><time>2026-04-11T07:53:15Z</time></trkpt><trkpt lat="43.23812036333766" lon="12.903824151419181"><ele>872.3333333333333</ele><time>2026-04-11T07:53:16Z</time></trkpt><trkpt lat="43.23818760315908" lon="12.903739710787718"><ele>873.6666666666666</ele><time>2026-04-11T07:53:17Z</time></trkpt><trkpt lat="43.238242989772615" lon="12.903652459436751"><ele>875.0</ele><time>2026-04-11T07:53:18Z</time></trkpt><trkpt lat="43.23829715098477" lon="12.903565692767492"><ele>876.3333333333333</ele><time>2026-04-11T07:53:19Z</time></trkpt><trkpt lat="43.238352798524076" lon="12.903486411231162"><ele>877.6666666666666</ele><time>2026-04-11T07:53:20Z</time></trkpt><trkpt lat="43.2384058782252" lon="12.903405120932591"><ele>879.0</ele><time>2026-04-11T07:53:21Z</time></trkpt><trkpt lat="43.23846086180441" lon="12.903330863219605"><ele>879.0</ele><time>2026-04-11T07:53:22Z</time></trkpt><trkpt lat="43.23851117812913" lon="12.90325815869408"><ele>879.0</ele><time>2026-04-11T07:53:23Z</time></trkpt><trkpt lat="43.238558531464996" lon="12.903171941511031"><ele>879.0</ele><time>2026-04-11T07:53:24Z</time></trkpt><trkpt lat="43.23860000509404" lon="12.90307980422469"><ele>879.0</ele><time>2026-04-11T07:53:25Z</time></trkpt><trkpt lat="43.23863398964089" lon="12.902994444011227"><ele>879.0</ele><time>2026-04-11T07:53:26Z</time></trkpt><trkpt lat="43.23869128756359" lon="12.90286788777324"><ele>879.0</ele><time>2026-04-11T07:53:28Z</time></trkpt><trkpt lat="43.23874768390758" lon="12.902762382801567"><ele>879.0</ele><time>2026-04-11T07:53:30Z</time></trkpt><trkpt lat="43.23879024367823" lon="12.9026317298052"><ele>879.0000000000001</ele><time>2026-04-11T07:53:32Z</time></trkpt><trkpt lat="43.238828324509576" lon="12.90248096694627"><ele>879.0000000000001</ele><time>2026-04-11T07:53:34Z</time></trkpt><trkpt lat="43.23886113164267" lon="12.902322686697886"><ele>879.0</ele><time>2026-04-11T07:53:36Z</time></trkpt><trkpt lat="43.23890934575751" lon="12.902227969900132"><ele>879.0</ele><time>2026-04-11T07:53:38Z</time></trkpt><trkpt lat="43.2389376480959" lon="12.902133500229201"><ele>879.6666666666666</ele><time>2026-04-11T07:53:40Z</time></trkpt><trkpt lat="43.23896814196596" lon="12.902055980536632"><ele>880.3333333333333</ele><time>2026-04-11T07:53:42Z</time></trkpt><trkpt lat="43.238998228987775" lon="12.901946921432542"><ele>881.0</ele><time>2026-04-11T07:53:44Z</time></trkpt><trkpt lat="43.23902856651955" lon="12.901842158746767"><ele>881.6666666666666</ele><time>2026-04-11T07:53:46Z</time></trkpt><trkpt lat="43.239030164068886" lon="12.901730223309215"><ele>882.3333333333333</ele><time>2026-04-11T07:53:48Z</time></trkpt><trkpt lat="43.239030138577775" lon="12.901593679083135"><ele>883.0</ele><time>2026-04-11T07:53:50Z</time></trkpt><trkpt lat="43.23905555895912" lon="12.901507043181505"><ele>882.9999999999999</ele><time>2026-04-11T07:53:51Z</time></trkpt><trkpt lat="43.23912287364687" lon="12.901381294005931"><ele>883.0</ele><time>2026-04-11T07:53:53Z</time></trkpt><trkpt lat="43.239144185344784" lon="12.901242459990147"><ele>883.0</ele><time>2026-04-11T07:53:55Z</time></trkpt><trkpt lat="43.239167378556495" lon="12.901138885324189"><ele>883.0</ele><time>2026-04-11T07:53:56Z</time></trkpt><trkpt lat="43.239189759167516" lon="12.901035318288613"><ele>882.9999999999999</ele><time>2026-04-11T07:53:57Z</time></trkpt><trkpt lat="43.23921333362542" lon="12.90094612106675"><ele>883.0</ele><time>2026-04-11T07:53:58Z</time></trkpt><trkpt lat="43.239252939530985" lon="12.900788035804112"><ele>884.5999999999999</ele><time>2026-04-11T07:54:00Z</time></trkpt><trkpt lat="43.23930308348748" lon="12.900637885858801"><ele>886.1999999999999</ele><time>2026-04-11T07:54:02Z</time></trkpt><trkpt lat="43.2393426063814" lon="12.900511576888341"><ele>887.8</ele><time>2026-04-11T07:54:04Z</time></trkpt><trkpt lat="43.23939023924802" lon="12.900391203897142"><ele>889.4</ele><time>2026-04-11T07:54:06Z</time></trkpt><trkpt lat="43.23942944383635" lon="12.900315859925936"><ele>891.0</ele><time>2026-04-11T07:54:07Z</time></trkpt><trkpt lat="43.23948357076314" lon="12.900239772727092"><ele>891.0</ele><time>2026-04-11T07:54:08Z</time></trkpt><trkpt lat="43.23953288792235" lon="12.900159880422962"><ele>891.0</ele><time>2026-04-11T07:54:09Z</time></trkpt><trkpt lat="43.239591864198395" lon="12.900091695478237"><ele>891.0</ele><time>2026-04-11T07:54:10Z</time></trkpt><trkpt lat="43.239649771870816" lon="12.900029077640417"><ele>891.0</ele><time>2026-04-11T07:54:11Z</time></trkpt><trkpt lat="43.239713228996244" lon="12.899968124060685"><ele>891.0</ele><time>2026-04-11T07:54:12Z</time></trkpt><trkpt lat="43.239783675967374" lon="12.899907251390317"><ele>891.0</ele><time>2026-04-11T07:54:13Z</time></trkpt><trkpt lat="43.23983999971189" lon="12.899843521780037"><ele>890.0</ele><time>2026-04-11T07:54:14Z</time></trkpt><trkpt lat="43.23992035781256" lon="12.899737820320453"><ele>888.9999999999999</ele><time>2026-04-11T07:54:16Z</time></trkpt><trkpt lat="43.239992912556055" lon="12.899678959621498"><ele>887.9999999999999</ele><time>2026-04-11T07:54:18Z</time></trkpt><trkpt lat="43.24009031377811" lon="12.899626940839342"><ele>887.0</ele><time>2026-04-11T07:54:20Z</time></trkpt><trkpt lat="43.24017902049811" lon="12.899574921926888"><ele>886.0</ele><time>2026-04-11T07:54:22Z</time></trkpt><trkpt lat="43.240267967762" lon="12.899530637886457"><ele>886.0</ele><time>2026-04-11T07:54:24Z</time></trkpt><trkpt lat="43.240360022927376" lon="12.899488630897253"><ele>885.9999999999999</ele><time>2026-04-11T07:54:26Z</time></trkpt><trkpt lat="43.240453427956744" lon="12.89945041328264"><ele>885.9999999999999</ele><time>2026-04-11T07:54:28Z</time></trkpt><trkpt lat="43.240556057762085" lon="12.899414940531948"><ele>886.0</ele><time>2026-04-11T07:54:30Z</time></trkpt><trkpt lat="43.24065989889052" lon="12.899384053118178"><ele>886.0</ele><time>2026-04-11T07:54:32Z</time></trkpt><trkpt lat="43.24073938043753" lon="12.899341398482798"><ele>889.4</ele><time>2026-04-11T07:54:34Z</time></trkpt><trkpt lat="43.24083898376259" lon="12.899328397097259"><ele>892.8</ele><time>2026-04-11T07:54:36Z</time></trkpt><trkpt lat="43.24089350154929" lon="12.899278003562154"><ele>896.1999999999999</ele><time>2026-04-11T07:54:37Z</time></trkpt><trkpt lat="43.24094776069455" lon="12.899219829846258"><ele>899.5999999999999</ele><time>2026-04-11T07:54:38Z</time></trkpt><trkpt lat="43.241050857341904" lon="12.899136416231581"><ele>903.0</ele><time>2026-04-11T07:54:40Z</time></trkpt><trkpt lat="43.24114629037034" lon="12.899075692052456"><ele>903.0</ele><time>2026-04-11T07:54:42Z</time></trkpt><trkpt lat="43.24123508973266" lon="12.898992370775373"><ele>903.0</ele><time>2026-04-11T07:54:44Z</time></trkpt><trkpt lat="43.241290622302365" lon="12.898913530725446"><ele>903.0</ele><time>2026-04-11T07:54:45Z</time></trkpt><trkpt lat="43.24138163074297" lon="12.898862869474353"><ele>903.0</ele><time>2026-04-11T07:54:47Z</time></trkpt><trkpt lat="43.24144324021942" lon="12.898819892278613"><ele>903.0</ele><time>2026-04-11T07:54:49Z</time></trkpt><trkpt lat="43.241505697916175" lon="12.898795898991091"><ele>903.0</ele><time>2026-04-11T07:54:52Z</time></trkpt><trkpt lat="43.24158649586944" lon="12.898827117819598"><ele>901.3333333333334</ele><time>2026-04-11T07:54:55Z</time></trkpt><trkpt lat="43.241650704867205" lon="12.898866592288849"><ele>899.6666666666667</ele><time>2026-04-11T07:54:58Z</time></trkpt><trkpt lat="43.24171759332733" lon="12.89887764711813"><ele>898.0</ele><time>2026-04-11T07:55:00Z</time></trkpt><trkpt lat="43.24178896739416" lon="12.898879727976718"><ele>896.3333333333334</ele><time>2026-04-11T07:55:02Z</time></trkpt><trkpt lat="43.24186702329202" lon="12.898852646580707"><ele>894.6666666666667</ele><time>2026-04-11T07:55:05Z</time></trkpt><trkpt lat="43.24194975528592" lon="12.898818720754294"><ele>893.0</ele><time>2026-04-11T07:55:08Z</time></trkpt><trkpt lat="43.24203164090873" lon="12.898802014393885"><ele>893.0</ele><time>2026-04-11T07:55:10Z</time></trkpt><trkpt lat="43.24213120481688" lon="12.898812712478383"><ele>893.0</ele><time>2026-04-11T07:55:12Z</time></trkpt><trkpt lat="43.242267906391056" lon="12.898822843156786"><ele>893.0</ele><time>2026-04-11T07:55:16Z</time></trkpt><trkpt lat="43.242358683228254" lon="12.898823583658094"><ele>893.0</ele><time>2026-04-11T07:55:18Z</time></trkpt><trkpt lat="43.24247800535101" lon="12.898848579486655"><ele>893.0</ele><time>2026-04-11T07:55:20Z</time></trkpt><trkpt lat="43.24255135369649" lon="12.898849399565233"><ele>892.4</ele><time>2026-04-11T07:55:21Z</time></trkpt><trkpt lat="43.24263429491314" lon="12.898868530308059"><ele>891.8</ele><time>2026-04-11T07:55:22Z</time></trkpt><trkpt lat="43.24270827990385" lon="12.898885266956022"><ele>891.2</ele><time>2026-04-11T07:55:23Z</time></trkpt><trkpt lat="43.242779269986464" lon="12.898899509512226"><ele>890.6</ele><time>2026-04-11T07:55:24Z</time></trkpt><trkpt lat="43.242913492948965" lon="12.898904173498698"><ele>890.0</ele><time>2026-04-11T07:55:26Z</time></trkpt><trkpt lat="43.24306434014764" lon="12.898907701198853"><ele>892.5</ele><time>2026-04-11T07:55:28Z</time></trkpt><trkpt lat="43.24314303569447" lon="12.898918482427371"><ele>895.0</ele><time>2026-04-11T07:55:29Z</time></trkpt><trkpt lat="43.24321552198629" lon="12.898920977049748"><ele>897.5</ele><time>2026-04-11T07:55:30Z</time></trkpt><trkpt lat="43.24342710330117" lon="12.898933098339628"><ele>900.0</ele><time>2026-04-11T07:55:33Z</time></trkpt><trkpt lat="43.24352396888562" lon="12.898962192599486"><ele>900.0</ele><time>2026-04-11T07:55:35Z</time></trkpt><trkpt lat="43.243636061790646" lon="12.8990068440452"><ele>900.0</ele><time>2026-04-11T07:55:37Z</time></trkpt><trkpt lat="43.24374495468112" lon="12.899029026886046"><ele>900.0</ele><time>2026-04-11T07:55:39Z</time></trkpt><trkpt lat="43.243834278214564" lon="12.899052115496966"><ele>900.0</ele><time>2026-04-11T07:55:41Z</time></trkpt><trkpt lat="43.24392708329796" lon="12.899066530360203"><ele>900.0</ele><time>2026-04-11T07:55:43Z</time></trkpt><trkpt lat="43.244018659493726" lon="12.899076509399535"><ele>900.8333333333334</ele><time>2026-04-11T07:55:45Z</time></trkpt><trkpt lat="43.24414011198616" lon="12.899076161424087"><ele>901.6666666666667</ele><time>2026-04-11T07:55:47Z</time></trkpt><trkpt lat="43.24420872849453" lon="12.899078429476543"><ele>902.5</ele><time>2026-04-11T07:55:48Z</time></trkpt><trkpt lat="43.24428367880381" lon="12.899086392988698"><ele>903.3333333333334</ele><time>2026-04-11T07:55:49Z</time></trkpt><trkpt lat="43.24436013822006" lon="12.89909907473569"><ele>904.1666666666667</ele><time>2026-04-11T07:55:50Z</time></trkpt><trkpt lat="43.24442850927609" lon="12.89910652540793"><ele>905.0</ele><time>2026-04-11T07:55:51Z</time></trkpt><trkpt lat="43.244499612024065" lon="12.899106967466167"><ele>905.0000000000001</ele><time>2026-04-11T07:55:52Z</time></trkpt><trkpt lat="43.244563876969686" lon="12.899105618112923"><ele>905.0</ele><time>2026-04-11T07:55:53Z</time></trkpt><trkpt lat="43.244632863846604" lon="12.899107204531699"><ele>905.0</ele><time>2026-04-11T07:55:54Z</time></trkpt><trkpt lat="43.244740928699606" lon="12.89912754018904"><ele>905.0</ele><time>2026-04-11T07:55:56Z</time></trkpt><trkpt lat="43.24483870464545" lon="12.899132859294914"><ele>905.0000000000001</ele><time>2026-04-11T07:55:58Z</time></trkpt><trkpt lat="43.244944550615855" lon="12.899166367758315"><ele>905.0</ele><time>2026-04-11T07:56:00Z</time></trkpt><trkpt lat="43.245063066331504" lon="12.899166399371106"><ele>905.8</ele><time>2026-04-11T07:56:02Z</time></trkpt><trkpt lat="43.245129907733634" lon="12.899161940868332"><ele>906.6</ele><time>2026-04-11T07:56:03Z</time></trkpt><trkpt lat="43.24519933336604" lon="12.89916707154367"><ele>907.4000000000001</ele><time>2026-04-11T07:56:04Z</time></trkpt><trkpt lat="43.24531534892865" lon="12.899155925573597"><ele>908.2</ele><time>2026-04-11T07:56:06Z</time></trkpt><trkpt lat="43.24538593776558" lon="12.899151284645853"><ele>909.0</ele><time>2026-04-11T07:56:07Z</time></trkpt><trkpt lat="43.24575123795064" lon="12.899230815403337"><ele>904.0</ele><time>2026-04-11T07:56:13Z</time></trkpt><trkpt lat="43.24584589918325" lon="12.899291497729138"><ele>899.0</ele><time>2026-04-11T07:56:15Z</time></trkpt><trkpt lat="43.24590752706388" lon="12.89932611377287"><ele>894.0</ele><time>2026-04-11T07:56:16Z</time></trkpt><trkpt lat="43.24600085009343" lon="12.899342625325115"><ele>889.0</ele><time>2026-04-11T07:56:17Z</time></trkpt><trkpt lat="43.2460713281911" lon="12.899354897206884"><ele>884.0</ele><time>2026-04-11T07:56:18Z</time></trkpt><trkpt lat="43.246155131922805" lon="12.899353762553737"><ele>879.0</ele><time>2026-04-11T07:56:19Z</time></trkpt><trkpt lat="43.24623562834528" lon="12.899355166137385"><ele>879.0</ele><time>2026-04-11T07:56:20Z</time></trkpt><trkpt lat="43.2463014295089" lon="12.89935613859315"><ele>879.0</ele><time>2026-04-11T07:56:21Z</time></trkpt><trkpt lat="43.246372156027824" lon="12.899342955545128"><ele>879.0</ele><time>2026-04-11T07:56:22Z</time></trkpt><trkpt lat="43.24644117552197" lon="12.899318185244415"><ele>879.0</ele><time>2026-04-11T07:56:23Z</time></trkpt><trkpt lat="43.24650512675205" lon="12.899297134060811"><ele>879.0</ele><time>2026-04-11T07:56:24Z</time></trkpt><trkpt lat="43.24657449068287" lon="12.899271158809782"><ele>879.0</ele><time>2026-04-11T07:56:25Z</time></trkpt><trkpt lat="43.24667175417655" lon="12.899226462998467"><ele>879.0</ele><time>2026-04-11T07:56:26Z</time></trkpt><trkpt lat="43.24673557689252" lon="12.899192660871837"><ele>881.7142857142858</ele><time>2026-04-11T07:56:27Z</time></trkpt><trkpt lat="43.24679143858864" lon="12.899149594287024"><ele>884.4285714285714</ele><time>2026-04-11T07:56:28Z</time></trkpt><trkpt lat="43.24686202960136" lon="12.899100369656416"><ele>887.1428571428571</ele><time>2026-04-11T07:56:29Z</time></trkpt><trkpt lat="43.24692155046227" lon="12.899061082595754"><ele>889.8571428571429</ele><time>2026-04-11T07:56:30Z</time></trkpt><trkpt lat="43.246986928360705" lon="12.898996440172077"><ele>892.5714285714284</ele><time>2026-04-11T07:56:32Z</time></trkpt><trkpt lat="43.24706300433855" lon="12.89894292600061"><ele>895.2857142857142</ele><time>2026-04-11T07:56:34Z</time></trkpt><trkpt lat="43.24712912861611" lon="12.89891806871764"><ele>898.0</ele><time>2026-04-11T07:56:36Z</time></trkpt><trkpt lat="43.24719000423085" lon="12.898887999344897"><ele>897.9999999999999</ele><time>2026-04-11T07:56:39Z</time></trkpt><trkpt lat="43.24718986109424" lon="12.898785755897835"><ele>898.0</ele><time>2026-04-11T07:56:45Z</time></trkpt><trkpt lat="43.24720153686212" lon="12.898676980498267"><ele>898.0</ele><time>2026-04-11T07:56:49Z</time></trkpt><trkpt lat="43.24725574947257" lon="12.89857574245447"><ele>898.0</ele><time>2026-04-11T07:56:52Z</time></trkpt><trkpt lat="43.24730943124401" lon="12.898492208608005"><ele>897.9999999999999</ele><time>2026-04-11T07:56:54Z</time></trkpt><trkpt lat="43.24735885730063" lon="12.89841007817988"><ele>898.0</ele><time>2026-04-11T07:56:56Z</time></trkpt><trkpt lat="43.24740093833682" lon="12.89834129772109"><ele>894.6666666666666</ele><time>2026-04-11T07:56:58Z</time></trkpt><trkpt lat="43.247473910356575" lon="12.898267517691307"><ele>891.3333333333333</ele><time>2026-04-11T07:57:01Z</time></trkpt><trkpt lat="43.24753409472776" lon="12.89818963532149"><ele>888.0</ele><time>2026-04-11T07:57:03.999Z</time></trkpt><trkpt lat="43.247586220256125" lon="12.898117858125888"><ele>884.6666666666667</ele><time>2026-04-11T07:57:05.999Z</time></trkpt><trkpt lat="43.24763719844022" lon="12.898060810879574"><ele>881.3333333333334</ele><time>2026-04-11T07:57:07.999Z</time></trkpt><trkpt lat="43.24769801277555" lon="12.897995549116864"><ele>878.0</ele><time>2026-04-11T07:57:10.999Z</time></trkpt><trkpt lat="43.24773768471586" lon="12.89790577115807"><ele>878.0000000000001</ele><time>2026-04-11T07:57:13.999Z</time></trkpt><trkpt lat="43.24778336464871" lon="12.89782253402828"><ele>878.0</ele><time>2026-04-11T07:57:15.999Z</time></trkpt><trkpt lat="43.24781713034192" lon="12.897722335185684"><ele>878.0</ele><time>2026-04-11T07:57:17.999Z</time></trkpt><trkpt lat="43.24784715652314" lon="12.89761418978063"><ele>878.0</ele><time>2026-04-11T07:57:19.999Z</time></trkpt><trkpt lat="43.247885556739895" lon="12.897509346891587"><ele>878.0000000000001</ele><time>2026-04-11T07:57:21.999Z</time></trkpt><trkpt lat="43.247906655098326" lon="12.897382868410011"><ele>878.0</ele><time>2026-04-11T07:57:23.999Z</time></trkpt><trkpt lat="43.247919482440025" lon="12.897276926711458"><ele>880.2857142857142</ele><time>2026-04-11T07:57:25.999Z</time></trkpt><trkpt lat="43.247941866697474" lon="12.897181329943084"><ele>882.5714285714286</ele><time>2026-04-11T07:57:28Z</time></trkpt><trkpt lat="43.24798391306093" lon="12.897085868853901"><ele>884.8571428571429</ele><time>2026-04-11T07:57:31Z</time></trkpt><trkpt lat="43.248028487533226" lon="12.897018722033895"><ele>887.1428571428571</ele><time>2026-04-11T07:57:35Z</time></trkpt><trkpt lat="43.24806819755434" lon="12.896938706632932"><ele>889.4285714285714</ele><time>2026-04-11T07:57:38Z</time></trkpt><trkpt lat="43.24808438085402" lon="12.896852210117537"><ele>891.7142857142857</ele><time>2026-04-11T07:57:42Z</time></trkpt><trkpt lat="43.2480949973895" lon="12.896745529688506"><ele>894.0</ele><time>2026-04-11T07:57:45Z</time></trkpt><trkpt lat="43.248116932821866" lon="12.89664319512594"><ele>894.8333333333334</ele><time>2026-04-11T07:57:48Z</time></trkpt><trkpt lat="43.24812205668732" lon="12.896529610632312"><ele>895.6666666666667</ele><time>2026-04-11T07:57:52Z</time></trkpt><trkpt lat="43.24813976910588" lon="12.896441017556187"><ele>896.5</ele><time>2026-04-11T07:57:56Z</time></trkpt><trkpt lat="43.24817762580222" lon="12.896351204064091"><ele>897.3333333333334</ele><time>2026-04-11T07:58:00Z</time></trkpt><trkpt lat="43.24820259261749" lon="12.896256855608515"><ele>898.1666666666667</ele><time>2026-04-11T07:58:04Z</time></trkpt><trkpt lat="43.24824437190001" lon="12.8961605846908"><ele>899.0</ele><time>2026-04-11T07:58:07Z</time></trkpt><trkpt lat="43.248309000480944" lon="12.89607276846322"><ele>892.6666666666667</ele><time>2026-04-11T07:58:10Z</time></trkpt><trkpt lat="43.248379012694" lon="12.896006995597512"><ele>886.3333333333334</ele><time>2026-04-11T07:58:13Z</time></trkpt><trkpt lat="43.24842079833931" lon="12.895916387981163"><ele>880.0</ele><time>2026-04-11T07:58:16Z</time></trkpt><trkpt lat="43.248470071549434" lon="12.895850625711896"><ele>873.6666666666667</ele><time>2026-04-11T07:58:18Z</time></trkpt><trkpt lat="43.24852692665659" lon="12.895777237771973"><ele>867.3333333333334</ele><time>2026-04-11T07:58:20Z</time></trkpt><trkpt lat="43.24858313474693" lon="12.895700415287262"><ele>861.0</ele><time>2026-04-11T07:58:22Z</time></trkpt><trkpt lat="43.24862102117106" lon="12.895615802048866"><ele>861.0</ele><time>2026-04-11T07:58:24Z</time></trkpt><trkpt lat="43.24867377267567" lon="12.895485991191041"><ele>861.0</ele><time>2026-04-11T07:58:26Z</time></trkpt><trkpt lat="43.24874040573495" lon="12.895377472203625"><ele>861.0</ele><time>2026-04-11T07:58:28Z</time></trkpt><trkpt lat="43.24876825258989" lon="12.895283965400981"><ele>861.0</ele><time>2026-04-11T07:58:30Z</time></trkpt><trkpt lat="43.24880201250443" lon="12.89518103310555"><ele>861.0</ele><time>2026-04-11T07:58:32Z</time></trkpt><trkpt lat="43.248838928805476" lon="12.895087238674797"><ele>861.0</ele><time>2026-04-11T07:58:34Z</time></trkpt><trkpt lat="43.24890047646031" lon="12.894989855817796"><ele>858.0</ele><time>2026-04-11T07:58:37Z</time></trkpt><trkpt lat="43.24895229799807" lon="12.894936986533928"><ele>855.0</ele><time>2026-04-11T07:58:39Z</time></trkpt><trkpt lat="43.24900276580824" lon="12.894832358797926"><ele>852.0</ele><time>2026-04-11T07:58:42Z</time></trkpt><trkpt lat="43.24904478278406" lon="12.89475062308307"><ele>849.0</ele><time>2026-04-11T07:58:45Z</time></trkpt><trkpt lat="43.24910879848335" lon="12.894670532668577"><ele>846.0</ele><time>2026-04-11T07:58:48Z</time></trkpt><trkpt lat="43.24919290862392" lon="12.894608395489538"><ele>843.0</ele><time>2026-04-11T07:58:51Z</time></trkpt><trkpt lat="43.24925093581406" lon="12.894546367227374"><ele>843.0</ele><time>2026-04-11T07:58:53Z</time></trkpt><trkpt lat="43.2493244709481" lon="12.894476907466718"><ele>843.0</ele><time>2026-04-11T07:58:55Z</time></trkpt><trkpt lat="43.24938752592687" lon="12.894390743764932"><ele>843.0</ele><time>2026-04-11T07:58:57Z</time></trkpt><trkpt lat="43.24947174420185" lon="12.894324504351825"><ele>843.0</ele><time>2026-04-11T07:58:59Z</time></trkpt><trkpt lat="43.24956399230221" lon="12.894251027085339"><ele>843.0</ele><time>2026-04-11T07:59:01Z</time></trkpt><trkpt lat="43.24962004057417" lon="12.89418792173023"><ele>843.1666666666666</ele><time>2026-04-11T07:59:03Z</time></trkpt><trkpt lat="43.249676518934976" lon="12.894122293405395"><ele>843.3333333333333</ele><time>2026-04-11T07:59:06Z</time></trkpt><trkpt lat="43.24972696078979" lon="12.894048527551185"><ele>843.5</ele><time>2026-04-11T07:59:09Z</time></trkpt><trkpt lat="43.24977303646329" lon="12.893975509504164"><ele>843.6666666666666</ele><time>2026-04-11T07:59:11Z</time></trkpt><trkpt lat="43.24983365634746" lon="12.893882978292769"><ele>843.8333333333333</ele><time>2026-04-11T07:59:14Z</time></trkpt><trkpt lat="43.24989092837922" lon="12.893810173627632"><ele>844.0</ele><time>2026-04-11T07:59:17Z</time></trkpt><trkpt lat="43.24996316492858" lon="12.89374032772354"><ele>843.9999999999999</ele><time>2026-04-11T07:59:20Z</time></trkpt><trkpt lat="43.25003898507249" lon="12.89369212095407"><ele>844.0</ele><time>2026-04-11T07:59:23Z</time></trkpt><trkpt lat="43.25008752925173" lon="12.893635981441406"><ele>844.0</ele><time>2026-04-11T07:59:25Z</time></trkpt><trkpt lat="43.25013819280238" lon="12.893574943240118"><ele>844.0</ele><time>2026-04-11T07:59:27Z</time></trkpt><trkpt lat="43.25020688543035" lon="12.893508671126655"><ele>843.9999999999999</ele><time>2026-04-11T07:59:30Z</time></trkpt><trkpt lat="43.250289942999686" lon="12.893422077427612"><ele>844.0</ele><time>2026-04-11T07:59:33Z</time></trkpt><trkpt lat="43.25043334985708" lon="12.893401587595912"><ele>843.1666666666666</ele><time>2026-04-11T07:59:37Z</time></trkpt><trkpt lat="43.2505656336374" lon="12.893398037746572"><ele>842.3333333333333</ele><time>2026-04-11T07:59:41Z</time></trkpt><trkpt lat="43.250644296303534" lon="12.893432608004433"><ele>841.5</ele><time>2026-04-11T07:59:44Z</time></trkpt><trkpt lat="43.250703844190234" lon="12.893468838683063"><ele>840.6666666666667</ele><time>2026-04-11T07:59:47Z</time></trkpt><trkpt lat="43.25076449718115" lon="12.893492114326046"><ele>839.8333333333334</ele><time>2026-04-11T07:59:49Z</time></trkpt><trkpt lat="43.250824600355486" lon="12.893557137983608"><ele>839.0</ele><time>2026-04-11T07:59:52Z</time></trkpt><trkpt lat="43.25090504947849" lon="12.893602669333072"><ele>839.0000000000001</ele><time>2026-04-11T07:59:55Z</time></trkpt><trkpt lat="43.2509891668321" lon="12.893644431942441"><ele>839.0</ele><time>2026-04-11T07:59:58Z</time></trkpt><trkpt lat="43.25105287128263" lon="12.893668253881717"><ele>839.0</ele><time>2026-04-11T08:00:00Z</time></trkpt><trkpt lat="43.2511131843758" lon="12.893695978734737"><ele>839.0</ele><time>2026-04-11T08:00:02Z</time></trkpt><trkpt lat="43.25119451181902" lon="12.893734684272225"><ele>839.0000000000001</ele><time>2026-04-11T08:00:04Z</time></trkpt><trkpt lat="43.25128288293269" lon="12.893739309259248"><ele>839.0</ele><time>2026-04-11T08:00:06Z</time></trkpt><trkpt lat="43.251375791017004" lon="12.893729182153171"><ele>841.2</ele><time>2026-04-11T08:00:08Z</time></trkpt><trkpt lat="43.25148318448831" lon="12.893706079965341"><ele>843.4000000000001</ele><time>2026-04-11T08:00:10Z</time></trkpt><trkpt lat="43.2515782768147" lon="12.893670869463419"><ele>845.6</ele><time>2026-04-11T08:00:12Z</time></trkpt><trkpt lat="43.25166561001858" lon="12.8935934764982"><ele>847.8</ele><time>2026-04-11T08:00:14Z</time></trkpt><trkpt lat="43.25175335587042" lon="12.893524672691411"><ele>850.0</ele><time>2026-04-11T08:00:16Z</time></trkpt><trkpt lat="43.25183152383734" lon="12.89350923843688"><ele>849.9999999999999</ele><time>2026-04-11T08:00:18Z</time></trkpt><trkpt lat="43.25190869981483" lon="12.893498123927621"><ele>850.0</ele><time>2026-04-11T08:00:20Z</time></trkpt><trkpt lat="43.25198027488318" lon="12.893455404540383"><ele>850.0</ele><time>2026-04-11T08:00:22Z</time></trkpt><trkpt lat="43.2520454903903" lon="12.893400329796902"><ele>850.0</ele><time>2026-04-11T08:00:24Z</time></trkpt><trkpt lat="43.252103942244084" lon="12.893349892412756"><ele>849.9999999999999</ele><time>2026-04-11T08:00:26Z</time></trkpt><trkpt lat="43.252160017549514" lon="12.893265479208024"><ele>850.0</ele><time>2026-04-11T08:00:28Z</time></trkpt><trkpt lat="43.25223742392552" lon="12.893173780049219"><ele>853.1666666666666</ele><time>2026-04-11T08:00:30Z</time></trkpt><trkpt lat="43.25231255277589" lon="12.893108596976777"><ele>856.3333333333333</ele><time>2026-04-11T08:00:32Z</time></trkpt><trkpt lat="43.25238797911404" lon="12.893029989042939"><ele>859.5</ele><time>2026-04-11T08:00:34Z</time></trkpt><trkpt lat="43.25244908632735" lon="12.892923562917215"><ele>862.6666666666667</ele><time>2026-04-11T08:00:36Z</time></trkpt><trkpt lat="43.25249728747881" lon="12.89285277393931"><ele>865.8333333333334</ele><time>2026-04-11T08:00:38Z</time></trkpt><trkpt lat="43.25257319651806" lon="12.89280478438728"><ele>869.0</ele><time>2026-04-11T08:00:41Z</time></trkpt><trkpt lat="43.252627140374756" lon="12.892729316980718"><ele>869.0</ele><time>2026-04-11T08:00:45Z</time></trkpt><trkpt lat="43.25266801895724" lon="12.892642591083114"><ele>869.0000000000001</ele><time>2026-04-11T08:00:47Z</time></trkpt><trkpt lat="43.25268742251391" lon="12.892512879893848"><ele>869.0000000000001</ele><time>2026-04-11T08:00:50Z</time></trkpt><trkpt lat="43.25267807020766" lon="12.892403450717614"><ele>869.0</ele><time>2026-04-11T08:00:52Z</time></trkpt><trkpt lat="43.25268621765537" lon="12.89226237688056"><ele>869.0</ele><time>2026-04-11T08:00:54Z</time></trkpt><trkpt lat="43.2526717513088" lon="12.892114994093701"><ele>870.8333333333334</ele><time>2026-04-11T08:00:55.999Z</time></trkpt><trkpt lat="43.25267283577886" lon="12.89200002484919"><ele>872.6666666666667</ele><time>2026-04-11T08:00:57.999Z</time></trkpt><trkpt lat="43.252665868439344" lon="12.89187368047481"><ele>874.5</ele><time>2026-04-11T08:00:59.999Z</time></trkpt><trkpt lat="43.25266781606545" lon="12.891776881651461"><ele>876.3333333333333</ele><time>2026-04-11T08:01:01.999Z</time></trkpt><trkpt lat="43.2526572137709" lon="12.891672614045191"><ele>878.1666666666666</ele><time>2026-04-11T08:01:03.999Z</time></trkpt><trkpt lat="43.2526811258496" lon="12.891554751307416"><ele>880.0</ele><time>2026-04-11T08:01:05.999Z</time></trkpt><trkpt lat="43.25268432839969" lon="12.891456076914702"><ele>879.8333333333333</ele><time>2026-04-11T08:01:07.999Z</time></trkpt><trkpt lat="43.25270327809275" lon="12.891349000050171"><ele>879.6666666666666</ele><time>2026-04-11T08:01:09.999Z</time></trkpt><trkpt lat="43.25273397827812" lon="12.891227533152888"><ele>879.5</ele><time>2026-04-11T08:01:11.999Z</time></trkpt><trkpt lat="43.25277747395703" lon="12.891150045499113"><ele>879.3333333333333</ele><time>2026-04-11T08:01:13.999Z</time></trkpt><trkpt lat="43.25280617608482" lon="12.891072623476903"><ele>879.1666666666666</ele><time>2026-04-11T08:01:15.999Z</time></trkpt><trkpt lat="43.25284884348637" lon="12.890933942548445"><ele>879.0</ele><time>2026-04-11T08:01:18.999Z</time></trkpt><trkpt lat="43.252872959657296" lon="12.890833060497018"><ele>879.0</ele><time>2026-04-11T08:01:20.999Z</time></trkpt><trkpt lat="43.25291366732525" lon="12.890734733086504"><ele>879.0</ele><time>2026-04-11T08:01:22.999Z</time></trkpt><trkpt lat="43.25295104378966" lon="12.890646521653352"><ele>879.0</ele><time>2026-04-11T08:01:25.999Z</time></trkpt><trkpt lat="43.25299874335056" lon="12.890566084294868"><ele>879.0</ele><time>2026-04-11T08:01:28.999Z</time></trkpt><trkpt lat="43.253046420882704" lon="12.890487158606634"><ele>879.0</ele><time>2026-04-11T08:01:30.999Z</time></trkpt><trkpt lat="43.25309022738028" lon="12.890400153294575"><ele>879.0</ele><time>2026-04-11T08:01:33.999Z</time></trkpt><trkpt lat="43.25312761324641" lon="12.890304774182184"><ele>870.6666666666666</ele><time>2026-04-11T08:01:36.999Z</time></trkpt><trkpt lat="43.25314824812074" lon="12.890216387405154"><ele>862.3333333333333</ele><time>2026-04-11T08:01:38.999Z</time></trkpt><trkpt lat="43.2531888828394" lon="12.890140385539574"><ele>854.0</ele><time>2026-04-11T08:01:40.999Z</time></trkpt><trkpt lat="43.25322953687967" lon="12.890066986104928"><ele>845.6666666666666</ele><time>2026-04-11T08:01:42.999Z</time></trkpt><trkpt lat="43.25331409426266" lon="12.890027341180945"><ele>837.3333333333333</ele><time>2026-04-11T08:01:45.999Z</time></trkpt><trkpt lat="43.25332128399564" lon="12.889863463307133"><ele>829.0</ele><time>2026-04-11T08:01:50.999Z</time></trkpt><trkpt lat="43.25334135127356" lon="12.88973745093078"><ele>827.1666666666666</ele><time>2026-04-11T08:01:53.999Z</time></trkpt><trkpt lat="43.253359150844034" lon="12.889616287420447"><ele>825.3333333333333</ele><time>2026-04-11T08:01:55.999Z</time></trkpt><trkpt lat="43.253359220837794" lon="12.889483795217402"><ele>823.5</ele><time>2026-04-11T08:01:57.999Z</time></trkpt><trkpt lat="43.25334107731376" lon="12.889367926042683"><ele>821.6666666666667</ele><time>2026-04-11T08:01:59.999Z</time></trkpt><trkpt lat="43.2533547467408" lon="12.889266888422636"><ele>819.8333333333334</ele><time>2026-04-11T08:02:01.999Z</time></trkpt><trkpt lat="43.253343792969424" lon="12.889146965609656"><ele>818.0</ele><time>2026-04-11T08:02:03.999Z</time></trkpt><trkpt lat="43.25334025956821" lon="12.889044162717227"><ele>818.0</ele><time>2026-04-11T08:02:05.999Z</time></trkpt><trkpt lat="43.25332718246579" lon="12.888901377914477"><ele>818.0</ele><time>2026-04-11T08:02:08.999Z</time></trkpt><trkpt lat="43.253325025558645" lon="12.888765287504137"><ele>818.0</ele><time>2026-04-11T08:02:10.999Z</time></trkpt><trkpt lat="43.253314565860606" lon="12.888603167059886"><ele>818.0</ele><time>2026-04-11T08:02:12.999Z</time></trkpt><trkpt lat="43.25329446866565" lon="12.888510745974537"><ele>818.0</ele><time>2026-04-11T08:02:13.999Z</time></trkpt><trkpt lat="43.25327149389987" lon="12.888396807635065"><ele>821.2</ele><time>2026-04-11T08:02:14.999Z</time></trkpt><trkpt lat="43.25325083310558" lon="12.888269859738346"><ele>824.4</ele><time>2026-04-11T08:02:15.999Z</time></trkpt><trkpt lat="43.25323747862392" lon="12.88813824827539"><ele>827.6</ele><time>2026-04-11T08:02:16.999Z</time></trkpt><trkpt lat="43.25322131906031" lon="12.88799722461778"><ele>830.8000000000001</ele><time>2026-04-11T08:02:17.999Z</time></trkpt><trkpt lat="43.253196290120414" lon="12.887874201950707"><ele>834.0</ele><time>2026-04-11T08:02:18.999Z</time></trkpt><trkpt lat="43.253175913137945" lon="12.88774706088677"><ele>834.0</ele><time>2026-04-11T08:02:19.999Z</time></trkpt><trkpt lat="43.25317173392959" lon="12.887648160499296"><ele>834.0</ele><time>2026-04-11T08:02:20.999Z</time></trkpt><trkpt lat="43.253129439385" lon="12.887478166735054"><ele>834.0</ele><time>2026-04-11T08:02:22.999Z</time></trkpt><trkpt lat="43.25308777126955" lon="12.887377432033013"><ele>834.0</ele><time>2026-04-11T08:02:23.999Z</time></trkpt><trkpt lat="43.25303539818811" lon="12.887234796094758"><ele>834.0</ele><time>2026-04-11T08:02:24.999Z</time></trkpt><trkpt lat="43.2529899631971" lon="12.887091219082121"><ele>837.8333333333334</ele><time>2026-04-11T08:02:25.999Z</time></trkpt><trkpt lat="43.252970573362035" lon="12.886957075578275"><ele>841.6666666666667</ele><time>2026-04-11T08:02:26.999Z</time></trkpt><trkpt lat="43.25294459363942" lon="12.886846625856103"><ele>845.5</ele><time>2026-04-11T08:02:27.999Z</time></trkpt><trkpt lat="43.25293213713031" lon="12.886749668979645"><ele>849.3333333333334</ele><time>2026-04-11T08:02:28.999Z</time></trkpt><trkpt lat="43.25292434868339" lon="12.886661022946534"><ele>853.1666666666667</ele><time>2026-04-11T08:02:29.999Z</time></trkpt><trkpt lat="43.252885094130946" lon="12.88656903754644"><ele>857.0</ele><time>2026-04-11T08:02:30.999Z</time></trkpt><trkpt lat="43.25283790804869" lon="12.886447719626192"><ele>857.0</ele><time>2026-04-11T08:02:31.999Z</time></trkpt><trkpt lat="43.25280434660606" lon="12.886305302656758"><ele>857.0</ele><time>2026-04-11T08:02:32.999Z</time></trkpt><trkpt lat="43.25277361870521" lon="12.886152931769226"><ele>857.0</ele><time>2026-04-11T08:02:33.999Z</time></trkpt><trkpt lat="43.25269573175209" lon="12.885898829698716"><ele>857.0</ele><time>2026-04-11T08:02:34.999Z</time></trkpt><trkpt lat="43.25263847124393" lon="12.88568134998409"><ele>857.2</ele><time>2026-04-11T08:02:35.999Z</time></trkpt><trkpt lat="43.25261291416871" lon="12.885550768784944"><ele>857.4000000000001</ele><time>2026-04-11T08:02:36.999Z</time></trkpt><trkpt lat="43.25261135359486" lon="12.88542067673223"><ele>857.5999999999999</ele><time>2026-04-11T08:02:37.999Z</time></trkpt><trkpt lat="43.252590067411674" lon="12.885267814656924"><ele>857.8</ele><time>2026-04-11T08:02:38.999Z</time></trkpt><trkpt lat="43.25257627876695" lon="12.885133386608825"><ele>858.0</ele><time>2026-04-11T08:02:39.999Z</time></trkpt><trkpt lat="43.2525770590183" lon="12.885029413600911"><ele>858.0</ele><time>2026-04-11T08:02:40.999Z</time></trkpt><trkpt lat="43.252570541035176" lon="12.884923964998109"><ele>858.0</ele><time>2026-04-11T08:02:41.999Z</time></trkpt><trkpt lat="43.2525600141279" lon="12.884804454268322"><ele>858.0</ele><time>2026-04-11T08:02:42.999Z</time></trkpt><trkpt lat="43.25250982342921" lon="12.884604467135855"><ele>858.0</ele><time>2026-04-11T08:02:43.999Z</time></trkpt><trkpt lat="43.25245227015236" lon="12.884417539839406"><ele>857.2</ele><time>2026-04-11T08:02:44.999Z</time></trkpt><trkpt lat="43.25241665882701" lon="12.88424266367882"><ele>856.4</ele><time>2026-04-11T08:02:45.999Z</time></trkpt><trkpt lat="43.25240875482718" lon="12.884099100988166"><ele>855.6000000000001</ele><time>2026-04-11T08:02:46.999Z</time></trkpt><trkpt lat="43.25238942972202" lon="12.883960879222986"><ele>854.8000000000001</ele><time>2026-04-11T08:02:47.999Z</time></trkpt><trkpt lat="43.25237302517051" lon="12.883845014101427"><ele>854.0</ele><time>2026-04-11T08:02:48.999Z</time></trkpt><trkpt lat="43.25235833969717" lon="12.883745160797856"><ele>854.0000000000001</ele><time>2026-04-11T08:02:49.999Z</time></trkpt><trkpt lat="43.25235017386556" lon="12.883647917639909"><ele>854.0</ele><time>2026-04-11T08:02:50.999Z</time></trkpt><trkpt lat="43.25234718830455" lon="12.883558948176967"><ele>854.0</ele><time>2026-04-11T08:02:51.999Z</time></trkpt><trkpt lat="43.252357099409366" lon="12.883470468471515"><ele>854.0</ele><time>2026-04-11T08:02:52.999Z</time></trkpt><trkpt lat="43.25236801596259" lon="12.883371853675001"><ele>854.0000000000001</ele><time>2026-04-11T08:02:53.999Z</time></trkpt><trkpt lat="43.25238174872232" lon="12.883214020506568"><ele>854.0</ele><time>2026-04-11T08:02:55.999Z</time></trkpt><trkpt lat="43.2523541190504" lon="12.883106657015542"><ele>854.8333333333334</ele><time>2026-04-11T08:02:57.999Z</time></trkpt><trkpt lat="43.25227936245572" lon="12.883090591094188"><ele>855.6666666666667</ele><time>2026-04-11T08:02:59.999Z</time></trkpt><trkpt lat="43.252174439182276" lon="12.883085552184571"><ele>856.5</ele><time>2026-04-11T08:03:01.999Z</time></trkpt><trkpt lat="43.2520904922632" lon="12.883086603856468"><ele>857.3333333333333</ele><time>2026-04-11T08:03:03.999Z</time></trkpt><trkpt lat="43.25202277959496" lon="12.883106420468248"><ele>858.1666666666666</ele><time>2026-04-11T08:03:10.999Z</time></trkpt><trkpt lat="43.25192103197107" lon="12.883097303197985"><ele>859.0</ele><time>2026-04-11T08:03:15.999Z</time></trkpt><trkpt lat="43.25181530294009" lon="12.883090708393109"><ele>859.0</ele><time>2026-04-11T08:03:17.999Z</time></trkpt><trkpt lat="43.25174195316149" lon="12.883054173929535"><ele>859.0</ele><time>2026-04-11T08:03:18.999Z</time></trkpt><trkpt lat="43.25162973358321" lon="12.883002450158449"><ele>859.0</ele><time>2026-04-11T08:03:19.999Z</time></trkpt><trkpt lat="43.251502153591225" lon="12.882956435221523"><ele>859.0</ele><time>2026-04-11T08:03:20.999Z</time></trkpt><trkpt lat="43.25137282217567" lon="12.882917594740572"><ele>861.75</ele><time>2026-04-11T08:03:21.999Z</time></trkpt><trkpt lat="43.2512496174297" lon="12.882871230566046"><ele>864.5</ele><time>2026-04-11T08:03:22.999Z</time></trkpt><trkpt lat="43.25112884200069" lon="12.882823027553236"><ele>867.25</ele><time>2026-04-11T08:03:23.999Z</time></trkpt><trkpt lat="43.25099807329807" lon="12.88274531139861"><ele>870.0</ele><time>2026-04-11T08:03:24.999Z</time></trkpt><trkpt lat="43.250854394340294" lon="12.882652132068142"><ele>872.3333333333333</ele><time>2026-04-11T08:03:25.999Z</time></trkpt><trkpt lat="43.25070779689762" lon="12.882557452539876"><ele>874.6666666666666</ele><time>2026-04-11T08:03:26.999Z</time></trkpt><trkpt lat="43.25056709386729" lon="12.88246063438086"><ele>877.0</ele><time>2026-04-11T08:03:27.999Z</time></trkpt><trkpt lat="43.25045191941933" lon="12.882376353796664"><ele>877.0</ele><time>2026-04-11T08:03:28.999Z</time></trkpt><trkpt lat="43.250342455576124" lon="12.882283408701173"><ele>877.0</ele><time>2026-04-11T08:03:29.999Z</time></trkpt><trkpt lat="43.25023865244601" lon="12.882193479774505"><ele>877.0</ele><time>2026-04-11T08:03:30.999Z</time></trkpt><trkpt lat="43.2501545403717" lon="12.882122283596788"><ele>877.0</ele><time>2026-04-11T08:03:31.999Z</time></trkpt><trkpt lat="43.25008371231912" lon="12.882056486441003"><ele>877.0</ele><time>2026-04-11T08:03:32.999Z</time></trkpt><trkpt lat="43.25000249695608" lon="12.881942414902007"><ele>876.9999999999999</ele><time>2026-04-11T08:03:34.999Z</time></trkpt><trkpt lat="43.24995543578203" lon="12.881873939664569"><ele>877.0</ele><time>2026-04-11T08:03:35.999Z</time></trkpt><trkpt lat="43.24989952775859" lon="12.881820905317381"><ele>877.0</ele><time>2026-04-11T08:03:36.999Z</time></trkpt><trkpt lat="43.24980215668674" lon="12.881798649495936"><ele>877.0</ele><time>2026-04-11T08:03:38.999Z</time></trkpt><trkpt lat="43.24968337493819" lon="12.881809003291295"><ele>876.9999999999999</ele><time>2026-04-11T08:03:40.999Z</time></trkpt><trkpt lat="43.24959971266937" lon="12.881802372289307"><ele>877.0</ele><time>2026-04-11T08:03:41.999Z</time></trkpt><trkpt lat="43.249522688014565" lon="12.881787676668358"><ele>877.1666666666666</ele><time>2026-04-11T08:03:42.999Z</time></trkpt><trkpt lat="43.24946162369904" lon="12.881755808327565"><ele>877.3333333333333</ele><time>2026-04-11T08:03:43.999Z</time></trkpt><trkpt lat="43.24935880320255" lon="12.88168933645427"><ele>877.5</ele><time>2026-04-11T08:03:45.999Z</time></trkpt><trkpt lat="43.249298987271324" lon="12.88165275587922"><ele>877.6666666666667</ele><time>2026-04-11T08:03:46.999Z</time></trkpt><trkpt lat="43.249235340018764" lon="12.881615326495023"><ele>877.8333333333334</ele><time>2026-04-11T08:03:47.999Z</time></trkpt><trkpt lat="43.2491711656503" lon="12.881584661885713"><ele>878.0</ele><time>2026-04-11T08:03:48.999Z</time></trkpt><trkpt lat="43.24910087351308" lon="12.881574607008183"><ele>878.0000000000001</ele><time>2026-04-11T08:03:49.999Z</time></trkpt><trkpt lat="43.24902928607173" lon="12.88156776378593"><ele>878.0</ele><time>2026-04-11T08:03:50.999Z</time></trkpt><trkpt lat="43.24895700269092" lon="12.881567399127201"><ele>878.0</ele><time>2026-04-11T08:03:51.999Z</time></trkpt><trkpt lat="43.24888528188642" lon="12.881578701948893"><ele>878.0</ele><time>2026-04-11T08:03:52.999Z</time></trkpt><trkpt lat="43.24879937568239" lon="12.881586877077343"><ele>878.0000000000001</ele><time>2026-04-11T08:03:53.999Z</time></trkpt><trkpt lat="43.24870310919974" lon="12.881593619125825"><ele>878.0</ele><time>2026-04-11T08:03:54.999Z</time></trkpt><trkpt lat="43.24860568959635" lon="12.881589200671938"><ele>880.6666666666667</ele><time>2026-04-11T08:03:55.999Z</time></trkpt><trkpt lat="43.24851333453504" lon="12.881569493516965"><ele>883.3333333333334</ele><time>2026-04-11T08:03:56.999Z</time></trkpt><trkpt lat="43.24842339506095" lon="12.881547171625062"><ele>886.0</ele><time>2026-04-11T08:03:57.999Z</time></trkpt><trkpt lat="43.248346616742104" lon="12.881539114569062"><ele>888.6666666666667</ele><time>2026-04-11T08:03:58.999Z</time></trkpt><trkpt lat="43.24827931239231" lon="12.881523665316271"><ele>891.3333333333334</ele><time>2026-04-11T08:03:59.999Z</time></trkpt><trkpt lat="43.24820857487536" lon="12.881506165936585"><ele>894.0</ele><time>2026-04-11T08:04:00.999Z</time></trkpt><trkpt lat="43.248133539483284" lon="12.881471845374728"><ele>896.1666666666666</ele><time>2026-04-11T08:04:01.999Z</time></trkpt><trkpt lat="43.24805695905114" lon="12.881442322529749"><ele>898.3333333333333</ele><time>2026-04-11T08:04:02.999Z</time></trkpt><trkpt lat="43.24797133558136" lon="12.881418227696239"><ele>900.5</ele><time>2026-04-11T08:04:03.999Z</time></trkpt><trkpt lat="43.24787579015096" lon="12.881397111007631"><ele>902.6666666666666</ele><time>2026-04-11T08:04:04.999Z</time></trkpt><trkpt lat="43.24778573710569" lon="12.881365186850493"><ele>904.8333333333333</ele><time>2026-04-11T08:04:05.999Z</time></trkpt><trkpt lat="43.24770468450829" lon="12.881339611737776"><ele>907.0</ele><time>2026-04-11T08:04:06.999Z</time></trkpt><trkpt lat="43.24761856053052" lon="12.881316355544406"><ele>906.9999999999999</ele><time>2026-04-11T08:04:07.999Z</time></trkpt><trkpt lat="43.24753441133727" lon="12.881293140602702"><ele>907.0</ele><time>2026-04-11T08:04:08.999Z</time></trkpt><trkpt lat="43.24745977908068" lon="12.88126963570194"><ele>907.0</ele><time>2026-04-11T08:04:09.999Z</time></trkpt><trkpt lat="43.24738194868938" lon="12.881254054209709"><ele>907.0</ele><time>2026-04-11T08:04:10.999Z</time></trkpt><trkpt lat="43.247292650836705" lon="12.881239780487558"><ele>906.9999999999999</ele><time>2026-04-11T08:04:11.999Z</time></trkpt><trkpt lat="43.24720611192379" lon="12.881228833139929"><ele>907.0</ele><time>2026-04-11T08:04:12.999Z</time></trkpt><trkpt lat="43.24712737971869" lon="12.881214636808643"><ele>909.6666666666666</ele><time>2026-04-11T08:04:13.999Z</time></trkpt><trkpt lat="43.2470497922297" lon="12.881203259731986"><ele>912.3333333333333</ele><time>2026-04-11T08:04:14.999Z</time></trkpt><trkpt lat="43.24696344225886" lon="12.881177768251675"><ele>915.0</ele><time>2026-04-11T08:04:15.999Z</time></trkpt><trkpt lat="43.24687979240019" lon="12.881143901230159"><ele>917.6666666666667</ele><time>2026-04-11T08:04:16.999Z</time></trkpt><trkpt lat="43.24680106927054" lon="12.881132327549892"><ele>920.3333333333334</ele><time>2026-04-11T08:04:17.999Z</time></trkpt><trkpt lat="43.246721436485615" lon="12.88112317584744"><ele>923.0</ele><time>2026-04-11T08:04:18.999Z</time></trkpt><trkpt lat="43.2466305168489" lon="12.881111900702281"><ele>923.0</ele><time>2026-04-11T08:04:19.999Z</time></trkpt><trkpt lat="43.24652636706589" lon="12.881091047700458"><ele>923.0</ele><time>2026-04-11T08:04:20.999Z</time></trkpt><trkpt lat="43.24641202125724" lon="12.881062108904965"><ele>923.0</ele><time>2026-04-11T08:04:21.999Z</time></trkpt><trkpt lat="43.24628777315708" lon="12.881032113159513"><ele>923.0</ele><time>2026-04-11T08:04:22.999Z</time></trkpt><trkpt lat="43.24616657923661" lon="12.880995907330405"><ele>919.5</ele><time>2026-04-11T08:04:23.999Z</time></trkpt><trkpt lat="43.246054046131796" lon="12.880960530904234"><ele>916.0</ele><time>2026-04-11T08:04:24.999Z</time></trkpt><trkpt lat="43.2459392562594" lon="12.880913112853673"><ele>912.5</ele><time>2026-04-11T08:04:25.999Z</time></trkpt><trkpt lat="43.24583198638196" lon="12.880852859901989"><ele>909.0</ele><time>2026-04-11T08:04:26.999Z</time></trkpt><trkpt lat="43.24573985255193" lon="12.880795004604662"><ele>909.0</ele><time>2026-04-11T08:04:27.999Z</time></trkpt><trkpt lat="43.245670840816764" lon="12.880755635271854"><ele>909.0</ele><time>2026-04-11T08:04:28.999Z</time></trkpt><trkpt lat="43.245594629975514" lon="12.880714474560014"><ele>909.0</ele><time>2026-04-11T08:04:29.999Z</time></trkpt><trkpt lat="43.245497189579524" lon="12.880660785577652"><ele>909.0</ele><time>2026-04-11T08:04:30.999Z</time></trkpt><trkpt lat="43.24540992832952" lon="12.880615091372361"><ele>909.0</ele><time>2026-04-11T08:04:31.999Z</time></trkpt><trkpt lat="43.24532511928149" lon="12.880588959644788"><ele>909.0</ele><time>2026-04-11T08:04:32.999Z</time></trkpt><trkpt lat="43.24524364489806" lon="12.880560896516714"><ele>911.8333333333334</ele><time>2026-04-11T08:04:34Z</time></trkpt><trkpt lat="43.245153977212006" lon="12.880523748433578"><ele>914.6666666666667</ele><time>2026-04-11T08:04:35Z</time></trkpt><trkpt lat="43.24506139943972" lon="12.88049373410758"><ele>917.5</ele><time>2026-04-11T08:04:36Z</time></trkpt><trkpt lat="43.2449750442797" lon="12.880488798661736"><ele>920.3333333333334</ele><time>2026-04-11T08:04:37Z</time></trkpt><trkpt lat="43.24489114805124" lon="12.88049710619798"><ele>923.1666666666667</ele><time>2026-04-11T08:04:38Z</time></trkpt><trkpt lat="43.244809520263324" lon="12.880505742012613"><ele>926.0</ele><time>2026-04-11T08:04:39Z</time></trkpt><trkpt lat="43.24471377745181" lon="12.880507536300646"><ele>927.8333333333334</ele><time>2026-04-11T08:04:40Z</time></trkpt><trkpt lat="43.24462155705766" lon="12.880503712771649"><ele>929.6666666666667</ele><time>2026-04-11T08:04:41Z</time></trkpt><trkpt lat="43.24453346046184" lon="12.88050256282241"><ele>931.5</ele><time>2026-04-11T08:04:42Z</time></trkpt><trkpt lat="43.244439257947754" lon="12.88049385322128"><ele>933.3333333333333</ele><time>2026-04-11T08:04:43Z</time></trkpt><trkpt lat="43.24435027638529" lon="12.880501360897197"><ele>935.1666666666666</ele><time>2026-04-11T08:04:44Z</time></trkpt><trkpt lat="43.244265793206374" lon="12.88051472617167"><ele>937.0</ele><time>2026-04-11T08:04:45Z</time></trkpt><trkpt lat="43.244176225494016" lon="12.880527034973406"><ele>937.0</ele><time>2026-04-11T08:04:46Z</time></trkpt><trkpt lat="43.24408879544983" lon="12.88055207313876"><ele>937.0</ele><time>2026-04-11T08:04:47Z</time></trkpt><trkpt lat="43.244008995009835" lon="12.88058612638407"><ele>937.0</ele><time>2026-04-11T08:04:48Z</time></trkpt><trkpt lat="43.24394646403966" lon="12.880651365854579"><ele>937.0</ele><time>2026-04-11T08:04:49Z</time></trkpt><trkpt lat="43.243857022164256" lon="12.880731896165136"><ele>937.0</ele><time>2026-04-11T08:04:50Z</time></trkpt><trkpt lat="43.24376444092204" lon="12.880801057460813"><ele>934.3333333333333</ele><time>2026-04-11T08:04:51Z</time></trkpt><trkpt lat="43.243665398443554" lon="12.880848642604908"><ele>931.6666666666666</ele><time>2026-04-11T08:04:52Z</time></trkpt><trkpt lat="43.24358773459572" lon="12.880897945869288"><ele>929.0</ele><time>2026-04-11T08:04:53Z</time></trkpt><trkpt lat="43.24350540543094" lon="12.880951151277227"><ele>926.3333333333333</ele><time>2026-04-11T08:04:54Z</time></trkpt><trkpt lat="43.24342882811207" lon="12.880994070739392"><ele>923.6666666666666</ele><time>2026-04-11T08:04:55Z</time></trkpt><trkpt lat="43.243366021914206" lon="12.881035248101963"><ele>921.0</ele><time>2026-04-11T08:04:56Z</time></trkpt><trkpt lat="43.24330305995005" lon="12.88106524184551"><ele>921.5</ele><time>2026-04-11T08:04:57Z</time></trkpt><trkpt lat="43.24323111031896" lon="12.881105253602959"><ele>922.0</ele><time>2026-04-11T08:04:58Z</time></trkpt><trkpt lat="43.24315814088972" lon="12.881157706028104"><ele>922.5</ele><time>2026-04-11T08:04:59Z</time></trkpt><trkpt lat="43.24310051361658" lon="12.881251523484224"><ele>923.0</ele><time>2026-04-11T08:05:00Z</time></trkpt><trkpt lat="43.24305785464762" lon="12.88134892175101"><ele>923.5</ele><time>2026-04-11T08:05:01Z</time></trkpt><trkpt lat="43.243019888562586" lon="12.88142751388975"><ele>924.0</ele><time>2026-04-11T08:05:02Z</time></trkpt><trkpt lat="43.24297689875788" lon="12.881496614616738"><ele>924.0</ele><time>2026-04-11T08:05:03Z</time></trkpt><trkpt lat="43.24288105453068" lon="12.881601477532909"><ele>924.0</ele><time>2026-04-11T08:05:05Z</time></trkpt><trkpt lat="43.24277638693111" lon="12.881682050846319"><ele>924.0</ele><time>2026-04-11T08:05:07Z</time></trkpt><trkpt lat="43.242654214865084" lon="12.881728185615305"><ele>924.0</ele><time>2026-04-11T08:05:09Z</time></trkpt><trkpt lat="43.242530930753915" lon="12.8817205514834"><ele>924.0</ele><time>2026-04-11T08:05:11Z</time></trkpt><trkpt lat="43.242413996676916" lon="12.881722966229"><ele>924.0</ele><time>2026-04-11T08:05:13Z</time></trkpt><trkpt lat="43.24232964020061" lon="12.881747610259152"><ele>924.0</ele><time>2026-04-11T08:05:15Z</time></trkpt><trkpt lat="43.24224463155172" lon="12.88179386943158"><ele>924.0</ele><time>2026-04-11T08:05:17Z</time></trkpt><trkpt lat="43.24218120614566" lon="12.881803199087688"><ele>924.0</ele><time>2026-04-11T08:05:18Z</time></trkpt><trkpt lat="43.24211794230417" lon="12.88180103431955"><ele>924.0</ele><time>2026-04-11T08:05:19Z</time></trkpt><trkpt lat="43.24204630695159" lon="12.88182230116827"><ele>930.0</ele><time>2026-04-11T08:05:20Z</time></trkpt><trkpt lat="43.24197337186423" lon="12.881833133904056"><ele>936.0</ele><time>2026-04-11T08:05:21Z</time></trkpt><trkpt lat="43.24189339196016" lon="12.88184905417305"><ele>942.0</ele><time>2026-04-11T08:05:22Z</time></trkpt><trkpt lat="43.24181590680467" lon="12.881873186354168"><ele>948.0</ele><time>2026-04-11T08:05:23Z</time></trkpt><trkpt lat="43.241734399303716" lon="12.881892065425744"><ele>954.0</ele><time>2026-04-11T08:05:24Z</time></trkpt><trkpt lat="43.24164871554623" lon="12.881908217060229"><ele>960.0</ele><time>2026-04-11T08:05:25Z</time></trkpt><trkpt lat="43.24156764862077" lon="12.881931426918813"><ele>960.0</ele><time>2026-04-11T08:05:26Z</time></trkpt><trkpt lat="43.24148492692566" lon="12.881967335367127"><ele>960.0</ele><time>2026-04-11T08:05:27Z</time></trkpt><trkpt lat="43.24140449410636" lon="12.88199135271128"><ele>960.0</ele><time>2026-04-11T08:05:28Z</time></trkpt><trkpt lat="43.24132423160242" lon="12.88203519061079"><ele>960.0</ele><time>2026-04-11T08:05:29Z</time></trkpt><trkpt lat="43.241238281935736" lon="12.882064888880295"><ele>960.0</ele><time>2026-04-11T08:05:30Z</time></trkpt><trkpt lat="43.241141246385126" lon="12.882091550692806"><ele>960.0</ele><time>2026-04-11T08:05:31Z</time></trkpt><trkpt lat="43.24104777498832" lon="12.882115774377754"><ele>957.6</ele><time>2026-04-11T08:05:32Z</time></trkpt><trkpt lat="43.2409517716195" lon="12.882134962616721"><ele>955.2</ele><time>2026-04-11T08:05:33Z</time></trkpt><trkpt lat="43.24085477382596" lon="12.88216053959873"><ele>952.8</ele><time>2026-04-11T08:05:34Z</time></trkpt><trkpt lat="43.24076271938624" lon="12.882190431071853"><ele>950.4</ele><time>2026-04-11T08:05:35Z</time></trkpt><trkpt lat="43.24066181481603" lon="12.882201657028652"><ele>948.0</ele><time>2026-04-11T08:05:36Z</time></trkpt><trkpt lat="43.24056977848621" lon="12.882218336682506"><ele>945.0</ele><time>2026-04-11T08:05:37Z</time></trkpt><trkpt lat="43.24047831132257" lon="12.882246524249094"><ele>942.0</ele><time>2026-04-11T08:05:38Z</time></trkpt><trkpt lat="43.24038574932361" lon="12.882274182277238"><ele>939.0</ele><time>2026-04-11T08:05:39Z</time></trkpt><trkpt lat="43.240290909410156" lon="12.882318207809423"><ele>936.0</ele><time>2026-04-11T08:05:40Z</time></trkpt><trkpt lat="43.240198030345766" lon="12.882381443675133"><ele>933.0</ele><time>2026-04-11T08:05:41Z</time></trkpt><trkpt lat="43.24010400859922" lon="12.88245731441321"><ele>933.0</ele><time>2026-04-11T08:05:42Z</time></trkpt><trkpt lat="43.2400214430678" lon="12.882532445998832"><ele>933.0</ele><time>2026-04-11T08:05:43Z</time></trkpt><trkpt lat="43.23993738166513" lon="12.882621908092135"><ele>933.0</ele><time>2026-04-11T08:05:44Z</time></trkpt><trkpt lat="43.23985208980426" lon="12.882737865349704"><ele>933.0</ele><time>2026-04-11T08:05:45Z</time></trkpt><trkpt lat="43.23977136771718" lon="12.882835066480537"><ele>933.0</ele><time>2026-04-11T08:05:46Z</time></trkpt><trkpt lat="43.23968634281526" lon="12.882932416984854"><ele>934.0</ele><time>2026-04-11T08:05:47Z</time></trkpt><trkpt lat="43.239610427690536" lon="12.883028502625045"><ele>935.0</ele><time>2026-04-11T08:05:48Z</time></trkpt><trkpt lat="43.23953487936961" lon="12.883128889669926"><ele>936.0</ele><time>2026-04-11T08:05:49Z</time></trkpt><trkpt lat="43.239463482639195" lon="12.883217901517797"><ele>937.0</ele><time>2026-04-11T08:05:50Z</time></trkpt><trkpt lat="43.23939443921965" lon="12.88330657299629"><ele>938.0</ele><time>2026-04-11T08:05:51Z</time></trkpt><trkpt lat="43.239323713196455" lon="12.883397785817992"><ele>942.0000000000001</ele><time>2026-04-11T08:05:52Z</time></trkpt><trkpt lat="43.23925254880944" lon="12.883509059999133"><ele>946.0</ele><time>2026-04-11T08:05:53Z</time></trkpt><trkpt lat="43.239201139841974" lon="12.883601949076745"><ele>950.0</ele><time>2026-04-11T08:05:54Z</time></trkpt><trkpt lat="43.239169478653004" lon="12.88370231695436"><ele>954.0</ele><time>2026-04-11T08:05:55Z</time></trkpt><trkpt lat="43.239154839880456" lon="12.883797464322711"><ele>958.0000000000001</ele><time>2026-04-11T08:05:56Z</time></trkpt><trkpt lat="43.239147815862026" lon="12.88388398504475"><ele>962.0</ele><time>2026-04-11T08:05:57Z</time></trkpt><trkpt lat="43.23914756290376" lon="12.883975421026776"><ele>962.0000000000001</ele><time>2026-04-11T08:05:58Z</time></trkpt><trkpt lat="43.23913675051025" lon="12.884069220840255"><ele>962.0</ele><time>2026-04-11T08:05:59Z</time></trkpt><trkpt lat="43.23912355468476" lon="12.884163061495041"><ele>962.0</ele><time>2026-04-11T08:06:00Z</time></trkpt><trkpt lat="43.23909557323494" lon="12.884303797275795"><ele>962.0</ele><time>2026-04-11T08:06:02Z</time></trkpt><trkpt lat="43.23906012598259" lon="12.884440346840817"><ele>962.0000000000001</ele><time>2026-04-11T08:06:04Z</time></trkpt><trkpt lat="43.2390317038626" lon="12.884527374033713"><ele>962.0</ele><time>2026-04-11T08:06:05Z</time></trkpt><trkpt lat="43.23900961271935" lon="12.88461487461383"><ele>960.8571428571427</ele><time>2026-04-11T08:06:06Z</time></trkpt><trkpt lat="43.23898833872773" lon="12.884718006307825"><ele>959.7142857142857</ele><time>2026-04-11T08:06:07Z</time></trkpt><trkpt lat="43.23896891319336" lon="12.884811665981964"><ele>958.5714285714284</ele><time>2026-04-11T08:06:08Z</time></trkpt><trkpt lat="43.238948327163754" lon="12.884895248151015"><ele>957.4285714285713</ele><time>2026-04-11T08:06:09Z</time></trkpt><trkpt lat="43.23892271069251" lon="12.884984186703367"><ele>956.2857142857142</ele><time>2026-04-11T08:06:10Z</time></trkpt><trkpt lat="43.23890084698155" lon="12.885070127907142"><ele>955.1428571428571</ele><time>2026-04-11T08:06:11Z</time></trkpt><trkpt lat="43.23888717475999" lon="12.885156946854599"><ele>954.0</ele><time>2026-04-11T08:06:12Z</time></trkpt><trkpt lat="43.23887882326003" lon="12.885250963117693"><ele>954.0</ele><time>2026-04-11T08:06:13Z</time></trkpt><trkpt lat="43.238845843890644" lon="12.885407018738336"><ele>954.0000000000001</ele><time>2026-04-11T08:06:15Z</time></trkpt><trkpt lat="43.23883041305025" lon="12.88549457953107"><ele>954.0000000000001</ele><time>2026-04-11T08:06:16Z</time></trkpt><trkpt lat="43.23880643913428" lon="12.885577421735881"><ele>954.0</ele><time>2026-04-11T08:06:17Z</time></trkpt><trkpt lat="43.23876833634607" lon="12.88573782795106"><ele>954.0</ele><time>2026-04-11T08:06:19Z</time></trkpt><trkpt lat="43.23870213378426" lon="12.8859081945839"><ele>957.8571428571428</ele><time>2026-04-11T08:06:21Z</time></trkpt><trkpt lat="43.23864649400764" lon="12.885983883962433"><ele>961.7142857142856</ele><time>2026-04-11T08:06:22Z</time></trkpt><trkpt lat="43.23859275459831" lon="12.88603571008181"><ele>965.5714285714286</ele><time>2026-04-11T08:06:23Z</time></trkpt><trkpt lat="43.238544599761816" lon="12.886107097695477"><ele>969.4285714285713</ele><time>2026-04-11T08:06:24Z</time></trkpt><trkpt lat="43.238504747943914" lon="12.886201610033"><ele>973.2857142857142</ele><time>2026-04-11T08:06:25Z</time></trkpt><trkpt lat="43.238464440802986" lon="12.88628617080122"><ele>977.1428571428571</ele><time>2026-04-11T08:06:26Z</time></trkpt><trkpt lat="43.238419087358444" lon="12.886368031070957"><ele>981.0</ele><time>2026-04-11T08:06:27Z</time></trkpt><trkpt lat="43.23837791506052" lon="12.886446996440247"><ele>981.0</ele><time>2026-04-11T08:06:28Z</time></trkpt><trkpt lat="43.238330463791776" lon="12.886551006419614"><ele>981.0</ele><time>2026-04-11T08:06:29Z</time></trkpt><trkpt lat="43.23827556997405" lon="12.886626269894093"><ele>981.0</ele><time>2026-04-11T08:06:30Z</time></trkpt><trkpt lat="43.23822816552295" lon="12.88669229119187"><ele>981.0</ele><time>2026-04-11T08:06:31Z</time></trkpt><trkpt lat="43.23818758460174" lon="12.886761634625735"><ele>981.0</ele><time>2026-04-11T08:06:32Z</time></trkpt><trkpt lat="43.23813921521907" lon="12.886908589420516"><ele>981.0</ele><time>2026-04-11T08:06:34Z</time></trkpt><trkpt lat="43.238115777077" lon="12.886995546693653"><ele>979.8</ele><time>2026-04-11T08:06:35Z</time></trkpt><trkpt lat="43.23809389283553" lon="12.887088852252683"><ele>978.5999999999999</ele><time>2026-04-11T08:06:36Z</time></trkpt><trkpt lat="43.238042271172816" lon="12.887225831524702"><ele>977.4</ele><time>2026-04-11T08:06:38Z</time></trkpt><trkpt lat="43.2379748269112" lon="12.887338670851737"><ele>976.2</ele><time>2026-04-11T08:06:40Z</time></trkpt><trkpt lat="43.23788513421841" lon="12.887396139932251"><ele>975.0</ele><time>2026-04-11T08:06:42Z</time></trkpt><trkpt lat="43.23780470372607" lon="12.887371290405854"><ele>975.0</ele><time>2026-04-11T08:06:44Z</time></trkpt><trkpt lat="43.237726627556135" lon="12.887304853924052"><ele>975.0</ele><time>2026-04-11T08:06:46Z</time></trkpt><trkpt lat="43.237660668684406" lon="12.887308869009907"><ele>975.0</ele><time>2026-04-11T08:06:47Z</time></trkpt><trkpt lat="43.23759393803113" lon="12.887302117629142"><ele>975.0</ele><time>2026-04-11T08:06:48Z</time></trkpt><trkpt lat="43.23752308614324" lon="12.887306799300205"><ele>975.0</ele><time>2026-04-11T08:06:49Z</time></trkpt><trkpt lat="43.237404268932295" lon="12.887310381159624"><ele>975.0</ele><time>2026-04-11T08:06:51Z</time></trkpt><trkpt lat="43.237330852255106" lon="12.887330286178805"><ele>975.5</ele><time>2026-04-11T08:06:52Z</time></trkpt><trkpt lat="43.2372520281658" lon="12.88737929535623"><ele>976.0</ele><time>2026-04-11T08:06:53Z</time></trkpt><trkpt lat="43.23717611816099" lon="12.887426771369904"><ele>976.5</ele><time>2026-04-11T08:06:54Z</time></trkpt><trkpt lat="43.237112046685766" lon="12.887459154758524"><ele>977.0</ele><time>2026-04-11T08:06:55Z</time></trkpt><trkpt lat="43.237069263730675" lon="12.887527045340617"><ele>977.5</ele><time>2026-04-11T08:06:56Z</time></trkpt><trkpt lat="43.23702078133321" lon="12.887607418964306"><ele>978.0</ele><time>2026-04-11T08:06:57Z</time></trkpt><trkpt lat="43.23696405925974" lon="12.88772777051222"><ele>978.0</ele><time>2026-04-11T08:06:59Z</time></trkpt><trkpt lat="43.23692111306381" lon="12.887803066591717"><ele>978.0</ele><time>2026-04-11T08:07:00Z</time></trkpt><trkpt lat="43.236873198755234" lon="12.88789141789932"><ele>978.0</ele><time>2026-04-11T08:07:01Z</time></trkpt><trkpt lat="43.236818186684715" lon="12.887990486084078"><ele>978.0</ele><time>2026-04-11T08:07:02Z</time></trkpt><trkpt lat="43.23675915309088" lon="12.888097375612261"><ele>978.0</ele><time>2026-04-11T08:07:03Z</time></trkpt><trkpt lat="43.2367085062756" lon="12.88819146096053"><ele>978.0</ele><time>2026-04-11T08:07:04Z</time></trkpt><trkpt lat="43.23666021192642" lon="12.88827246402189"><ele>978.0</ele><time>2026-04-11T08:07:05Z</time></trkpt><trkpt lat="43.236600126512535" lon="12.888354701649329"><ele>978.0</ele><time>2026-04-11T08:07:06Z</time></trkpt><trkpt lat="43.236540462436324" lon="12.888431592047365"><ele>978.0</ele><time>2026-04-11T08:07:07Z</time></trkpt><trkpt lat="43.236476854140825" lon="12.888519397486814"><ele>978.0</ele><time>2026-04-11T08:07:08Z</time></trkpt><trkpt lat="43.23642633289383" lon="12.888600706218137"><ele>978.0</ele><time>2026-04-11T08:07:09Z</time></trkpt><trkpt lat="43.236370172367835" lon="12.888715033541427"><ele>978.0</ele><time>2026-04-11T08:07:10Z</time></trkpt><trkpt lat="43.23630646286243" lon="12.888823178268607"><ele>981.0</ele><time>2026-04-11T08:07:11Z</time></trkpt><trkpt lat="43.2362528934632" lon="12.888898199536063"><ele>984.0</ele><time>2026-04-11T08:07:12Z</time></trkpt><trkpt lat="43.23621737822203" lon="12.888973155820258"><ele>987.0</ele><time>2026-04-11T08:07:13Z</time></trkpt><trkpt lat="43.23616831471461" lon="12.889128383145705"><ele>990.0</ele><time>2026-04-11T08:07:15Z</time></trkpt><trkpt lat="43.23618158551878" lon="12.889280978293714"><ele>993.0</ele><time>2026-04-11T08:07:17Z</time></trkpt><trkpt lat="43.23618168722307" lon="12.889431031303172"><ele>993.0</ele><time>2026-04-11T08:07:19Z</time></trkpt><trkpt lat="43.236147807283196" lon="12.889568479562369"><ele>993.0</ele><time>2026-04-11T08:07:21Z</time></trkpt><trkpt lat="43.2360828821154" lon="12.889623986616236"><ele>993.0</ele><time>2026-04-11T08:07:23Z</time></trkpt><trkpt lat="43.23600452301463" lon="12.889719286059302"><ele>993.0</ele><time>2026-04-11T08:07:25Z</time></trkpt><trkpt lat="43.235903939967926" lon="12.889785115133389"><ele>993.0</ele><time>2026-04-11T08:07:27Z</time></trkpt><trkpt lat="43.23580819124732" lon="12.889823723702518"><ele>993.0</ele><time>2026-04-11T08:07:29Z</time></trkpt><trkpt lat="43.235727816891234" lon="12.889800581855333"><ele>993.0</ele><time>2026-04-11T08:07:31Z</time></trkpt><trkpt lat="43.23565738874061" lon="12.889793011589353"><ele>993.0</ele><time>2026-04-11T08:07:33Z</time></trkpt><trkpt lat="43.235580123852394" lon="12.889802793042263"><ele>993.0</ele><time>2026-04-11T08:07:35Z</time></trkpt><trkpt lat="43.235490206586576" lon="12.88989379567187"><ele>993.0</ele><time>2026-04-11T08:07:38Z</time></trkpt><trkpt lat="43.2354321536887" lon="12.889955275026626"><ele>993.0</ele><time>2026-04-11T08:07:39Z</time></trkpt><trkpt lat="43.2353568796233" lon="12.890055218478572"><ele>992.5999999999999</ele><time>2026-04-11T08:07:41Z</time></trkpt><trkpt lat="43.2352646463177" lon="12.890151870669529"><ele>992.1999999999999</ele><time>2026-04-11T08:07:43Z</time></trkpt><trkpt lat="43.23516696709057" lon="12.890241842370106"><ele>991.8</ele><time>2026-04-11T08:07:45Z</time></trkpt><trkpt lat="43.23513728528366" lon="12.890323340195458"><ele>991.4</ele><time>2026-04-11T08:07:47Z</time></trkpt><trkpt lat="43.23508681857074" lon="12.890403324618593"><ele>991.0</ele><time>2026-04-11T08:07:49Z</time></trkpt><trkpt lat="43.23499353624282" lon="12.890442532409974"><ele>991.0</ele><time>2026-04-11T08:07:51Z</time></trkpt><trkpt lat="43.234913610764956" lon="12.890468571918953"><ele>990.9999999999999</ele><time>2026-04-11T08:07:53Z</time></trkpt><trkpt lat="43.23482087631346" lon="12.890501359289669"><ele>990.9999999999999</ele><time>2026-04-11T08:07:55Z</time></trkpt><trkpt lat="43.23473209011734" lon="12.890518163317639"><ele>991.0</ele><time>2026-04-11T08:07:57Z</time></trkpt><trkpt lat="43.23464170585846" lon="12.890572739881277"><ele>991.0</ele><time>2026-04-11T08:07:59Z</time></trkpt><trkpt lat="43.23454066998477" lon="12.890630468697996"><ele>993.0</ele><time>2026-04-11T08:08:01Z</time></trkpt><trkpt lat="43.234438017403825" lon="12.8906807755141"><ele>994.9999999999999</ele><time>2026-04-11T08:08:03Z</time></trkpt><trkpt lat="43.234341948685774" lon="12.89077292127927"><ele>996.9999999999999</ele><time>2026-04-11T08:08:05Z</time></trkpt><trkpt lat="43.234266165136276" lon="12.890886141339568"><ele>999.0</ele><time>2026-04-11T08:08:07Z</time></trkpt><trkpt lat="43.23419645402361" lon="12.890984174870903"><ele>1001.0</ele><time>2026-04-11T08:08:09Z</time></trkpt><trkpt lat="43.23414819476789" lon="12.891042094729869"><ele>1001.0</ele><time>2026-04-11T08:08:10Z</time></trkpt><trkpt lat="43.234068978546226" lon="12.891101058627806"><ele>1000.9999999999999</ele><time>2026-04-11T08:08:12Z</time></trkpt><trkpt lat="43.233989144418054" lon="12.891167190599464"><ele>1000.9999999999999</ele><time>2026-04-11T08:08:14Z</time></trkpt><trkpt lat="43.23390942385525" lon="12.891269487764095"><ele>1001.0</ele><time>2026-04-11T08:08:16Z</time></trkpt><trkpt lat="43.233803105619245" lon="12.891356624352628"><ele>1001.0</ele><time>2026-04-11T08:08:18Z</time></trkpt><trkpt lat="43.233738796364655" lon="12.891407103441596"><ele>1002.8333333333334</ele><time>2026-04-11T08:08:19Z</time></trkpt><trkpt lat="43.23367661129219" lon="12.891459703514284"><ele>1004.6666666666667</ele><time>2026-04-11T08:08:20Z</time></trkpt><trkpt lat="43.23360951162961" lon="12.891523675866907"><ele>1006.5</ele><time>2026-04-11T08:08:21Z</time></trkpt><trkpt lat="43.23352272940417" lon="12.891592554268648"><ele>1008.3333333333333</ele><time>2026-04-11T08:08:22Z</time></trkpt><trkpt lat="43.23345196345919" lon="12.89165812035484"><ele>1010.1666666666666</ele><time>2026-04-11T08:08:23Z</time></trkpt><trkpt lat="43.233384652176646" lon="12.891710790977157"><ele>1012.0</ele><time>2026-04-11T08:08:24Z</time></trkpt><trkpt lat="43.23329693327386" lon="12.891771229642421"><ele>1011.9999999999999</ele><time>2026-04-11T08:08:25Z</time></trkpt><trkpt lat="43.23322644150193" lon="12.891817226690037"><ele>1012.0</ele><time>2026-04-11T08:08:26Z</time></trkpt><trkpt lat="43.233150508038804" lon="12.891861968041342"><ele>1012.0</ele><time>2026-04-11T08:08:27Z</time></trkpt><trkpt lat="43.23307198676123" lon="12.891898746077482"><ele>1012.0</ele><time>2026-04-11T08:08:28Z</time></trkpt><trkpt lat="43.23300297125206" lon="12.891946704454277"><ele>1011.9999999999999</ele><time>2026-04-11T08:08:29Z</time></trkpt><trkpt lat="43.23293116079356" lon="12.89199065867176"><ele>1012.0</ele><time>2026-04-11T08:08:30Z</time></trkpt><trkpt lat="43.232867036312506" lon="12.892040750717905"><ele>1003.3333333333333</ele><time>2026-04-11T08:08:31Z</time></trkpt><trkpt lat="43.23279461676291" lon="12.89211065460375"><ele>994.6666666666666</ele><time>2026-04-11T08:08:32Z</time></trkpt><trkpt lat="43.232738677051145" lon="12.892171635249287"><ele>986.0</ele><time>2026-04-11T08:08:33Z</time></trkpt><trkpt lat="43.232679881333645" lon="12.89223136940914"><ele>977.3333333333333</ele><time>2026-04-11T08:08:34Z</time></trkpt><trkpt lat="43.23263117889428" lon="12.892292460761208"><ele>968.6666666666666</ele><time>2026-04-11T08:08:35Z</time></trkpt><trkpt lat="43.2325389854425" lon="12.892407189887205"><ele>960.0</ele><time>2026-04-11T08:08:37Z</time></trkpt><trkpt lat="43.23248791059303" lon="12.892464110611686"><ele>960.0</ele><time>2026-04-11T08:08:38Z</time></trkpt><trkpt lat="43.2324003351191" lon="12.892575249938298"><ele>960.0</ele><time>2026-04-11T08:08:40Z</time></trkpt><trkpt lat="43.23229742863457" lon="12.892666206910139"><ele>960.0</ele><time>2026-04-11T08:08:42Z</time></trkpt><trkpt lat="43.23221835939511" lon="12.892728822126108"><ele>960.0</ele><time>2026-04-11T08:08:43Z</time></trkpt><trkpt lat="43.23215010109083" lon="12.892793679643026"><ele>960.0</ele><time>2026-04-11T08:08:44Z</time></trkpt><trkpt lat="43.23206935087786" lon="12.892858080441277"><ele>959.1666666666666</ele><time>2026-04-11T08:08:45Z</time></trkpt><trkpt lat="43.231992381108434" lon="12.8929115928188"><ele>958.3333333333333</ele><time>2026-04-11T08:08:46Z</time></trkpt><trkpt lat="43.23191373190802" lon="12.892961699703175"><ele>957.5</ele><time>2026-04-11T08:08:47Z</time></trkpt><trkpt lat="43.231834100329834" lon="12.893020388022077"><ele>956.6666666666666</ele><time>2026-04-11T08:08:48Z</time></trkpt><trkpt lat="43.231768927484595" lon="12.893075346096998"><ele>955.8333333333333</ele><time>2026-04-11T08:08:49Z</time></trkpt><trkpt lat="43.23169148365747" lon="12.893091379694658"><ele>955.0</ele><time>2026-04-11T08:08:50Z</time></trkpt><trkpt lat="43.23162318230312" lon="12.893141988612793"><ele>955.0</ele><time>2026-04-11T08:08:51Z</time></trkpt><trkpt lat="43.23155017690636" lon="12.89320549053315"><ele>955.0</ele><time>2026-04-11T08:08:52Z</time></trkpt><trkpt lat="43.231481713250794" lon="12.893276748417229"><ele>955.0</ele><time>2026-04-11T08:08:53Z</time></trkpt><trkpt lat="43.231414083959336" lon="12.89334635731871"><ele>955.0</ele><time>2026-04-11T08:08:54Z</time></trkpt><trkpt lat="43.231329849162584" lon="12.893433088554339"><ele>955.0</ele><time>2026-04-11T08:08:55Z</time></trkpt><trkpt lat="43.23125279824201" lon="12.89349498085847"><ele>957.6666666666666</ele><time>2026-04-11T08:08:55.999Z</time></trkpt><trkpt lat="43.23117596774136" lon="12.893549161422749"><ele>960.3333333333333</ele><time>2026-04-11T08:08:56.999Z</time></trkpt><trkpt lat="43.231099858652996" lon="12.893594816578005"><ele>963.0</ele><time>2026-04-11T08:08:57.999Z</time></trkpt><trkpt lat="43.231024180996336" lon="12.893638720505676"><ele>965.6666666666667</ele><time>2026-04-11T08:08:58.999Z</time></trkpt><trkpt lat="43.230948570940235" lon="12.893683839911086"><ele>968.3333333333334</ele><time>2026-04-11T08:08:59.999Z</time></trkpt><trkpt lat="43.230878886596834" lon="12.893739499785815"><ele>971.0</ele><time>2026-04-11T08:09:00.999Z</time></trkpt><trkpt lat="43.23080848673899" lon="12.893788727159642"><ele>971.0</ele><time>2026-04-11T08:09:01.999Z</time></trkpt><trkpt lat="43.23074405781482" lon="12.89384814253783"><ele>971.0000000000001</ele><time>2026-04-11T08:09:02.999Z</time></trkpt><trkpt lat="43.23068207437241" lon="12.893874867553144"><ele>971.0</ele><time>2026-04-11T08:09:03.999Z</time></trkpt><trkpt lat="43.23062682428981" lon="12.893917373998843"><ele>971.0</ele><time>2026-04-11T08:09:04.999Z</time></trkpt><trkpt lat="43.23056135870096" lon="12.893970084620888"><ele>971.0000000000001</ele><time>2026-04-11T08:09:05.999Z</time></trkpt><trkpt lat="43.23050501746755" lon="12.894031170448251"><ele>971.0</ele><time>2026-04-11T08:09:06.999Z</time></trkpt><trkpt lat="43.23044843721915" lon="12.894073668431009"><ele>971.0</ele><time>2026-04-11T08:09:07.999Z</time></trkpt><trkpt lat="43.230375330118854" lon="12.894143311918896"><ele>970.7142857142858</ele><time>2026-04-11T08:09:08.999Z</time></trkpt><trkpt lat="43.230305873014096" lon="12.89419174913392"><ele>970.4285714285716</ele><time>2026-04-11T08:09:09.999Z</time></trkpt><trkpt lat="43.23023179924382" lon="12.894253864832343"><ele>970.1428571428571</ele><time>2026-04-11T08:09:11.999Z</time></trkpt><trkpt lat="43.23016779835003" lon="12.894272431106744"><ele>969.8571428571429</ele><time>2026-04-11T08:09:13.999Z</time></trkpt><trkpt lat="43.230107334933734" lon="12.894207788824929"><ele>969.5714285714286</ele><time>2026-04-11T08:09:17.999Z</time></trkpt><trkpt lat="43.2300705185" lon="12.894133626156346"><ele>969.2857142857142</ele><time>2026-04-11T08:09:20.999Z</time></trkpt><trkpt lat="43.2300365970228" lon="12.894055691143008"><ele>968.9999999999999</ele><time>2026-04-11T08:09:24.999Z</time></trkpt><trkpt lat="43.22999318707541" lon="12.893986309879173"><ele>968.9999999999999</ele><time>2026-04-11T08:09:39.999Z</time></trkpt><trkpt lat="43.22995214929659" lon="12.893894198771054"><ele>969.0</ele><time>2026-04-11T08:09:54.999Z</time></trkpt><trkpt lat="43.2298866142611" lon="12.893850348666447"><ele>968.9999999999999</ele><time>2026-04-11T08:09:56.999Z</time></trkpt><trkpt lat="43.229825374011405" lon="12.893801312345854"><ele>968.9999999999999</ele><time>2026-04-11T08:09:58.999Z</time></trkpt><trkpt lat="43.22980676630945" lon="12.893717685379608"><ele>969.0</ele><time>2026-04-11T08:10:14.999Z</time></trkpt><trkpt lat="43.229839282872355" lon="12.893637321968216"><ele>968.9999999999999</ele><time>2026-04-11T08:10:22.999Z</time></trkpt><trkpt lat="43.229889396833876" lon="12.89358344304268"><ele>968.9999999999999</ele><time>2026-04-11T08:10:25.999Z</time></trkpt><trkpt lat="43.22990308834207" lon="12.893488650042107"><ele>967.7142857142856</ele><time>2026-04-11T08:10:34.999Z</time></trkpt><trkpt lat="43.22992039918534" lon="12.893400413186924"><ele>966.4285714285713</ele><time>2026-04-11T08:10:42.999Z</time></trkpt><trkpt lat="43.229908735037704" lon="12.893314352216333"><ele>965.1428571428571</ele><time>2026-04-11T08:10:46.999Z</time></trkpt><trkpt lat="43.229874220979625" lon="12.893229472689844"><ele>963.8571428571428</ele><time>2026-04-11T08:10:50.999Z</time></trkpt><trkpt lat="43.2298902410634" lon="12.893139601808349"><ele>962.5714285714284</ele><time>2026-04-11T08:10:56.999Z</time></trkpt><trkpt lat="43.229940995249585" lon="12.893076795821438"><ele>961.2857142857143</ele><time>2026-04-11T08:11:38.999Z</time></trkpt><trkpt lat="43.229940638788555" lon="12.892983992599921"><ele>960.0</ele><time>2026-04-11T08:11:45Z</time></trkpt><trkpt lat="43.23000391432041" lon="12.892991714767637"><ele>960.0</ele><time>2026-04-11T08:12:40Z</time></trkpt><trkpt lat="43.22998622916194" lon="12.892904215560407"><ele>960.0</ele><time>2026-04-11T08:13:25Z</time></trkpt><trkpt lat="43.2299183592082" lon="12.892904876042202"><ele>960.0</ele><time>2026-04-11T08:13:45Z</time></trkpt><trkpt lat="43.22986456303909" lon="12.892953282535018"><ele>960.0</ele><time>2026-04-11T08:13:57Z</time></trkpt><trkpt lat="43.22980727369397" lon="12.892887160611872"><ele>960.0</ele><time>2026-04-11T08:14:02Z</time></trkpt><trkpt lat="43.22976156584179" lon="12.892819743920919"><ele>960.0</ele><time>2026-04-11T08:14:06Z</time></trkpt><trkpt lat="43.22975390823706" lon="12.892733220610472"><ele>960.0</ele><time>2026-04-11T08:14:14Z</time></trkpt><trkpt lat="43.229703876552286" lon="12.89267169803833"><ele>960.5</ele><time>2026-04-11T08:14:21Z</time></trkpt><trkpt lat="43.22963231798146" lon="12.892682778154112"><ele>961.0</ele><time>2026-04-11T08:14:34Z</time></trkpt><trkpt lat="43.22956385580832" lon="12.892690016198438"><ele>961.5</ele><time>2026-04-11T08:14:45Z</time></trkpt><trkpt lat="43.22950027863696" lon="12.892648738710804"><ele>962.0</ele><time>2026-04-11T08:14:55Z</time></trkpt><trkpt lat="43.22946770190454" lon="12.892561866422687"><ele>962.5</ele><time>2026-04-11T08:15:01Z</time></trkpt><trkpt lat="43.229408431136164" lon="12.892505874310741"><ele>963.0</ele><time>2026-04-11T08:15:09Z</time></trkpt><trkpt lat="43.22933326085103" lon="12.892400969929238"><ele>963.0000000000001</ele><time>2026-04-11T08:15:25Z</time></trkpt><trkpt lat="43.229268600937054" lon="12.892391381150524"><ele>963.0</ele><time>2026-04-11T08:15:31Z</time></trkpt><trkpt lat="43.22919792230758" lon="12.892385322541061"><ele>963.0000000000001</ele><time>2026-04-11T08:15:34Z</time></trkpt><trkpt lat="43.229128478581735" lon="12.89234664701452"><ele>963.0000000000001</ele><time>2026-04-11T08:15:37Z</time></trkpt><trkpt lat="43.229068425307084" lon="12.892306406129343"><ele>963.0</ele><time>2026-04-11T08:15:41Z</time></trkpt><trkpt lat="43.22901132838433" lon="12.892266765417416"><ele>963.0000000000001</ele><time>2026-04-11T08:15:46Z</time></trkpt><trkpt lat="43.228945222780304" lon="12.892244265870698"><ele>963.0000000000001</ele><time>2026-04-11T08:15:53Z</time></trkpt><trkpt lat="43.228886118545994" lon="12.892185075259286"><ele>967.7142857142858</ele><time>2026-04-11T08:15:57Z</time></trkpt><trkpt lat="43.22882559870996" lon="12.892129906411576"><ele>972.4285714285714</ele><time>2026-04-11T08:16:02Z</time></trkpt><trkpt lat="43.2287463251631" lon="12.892109988524789"><ele>977.1428571428571</ele><time>2026-04-11T08:16:07Z</time></trkpt><trkpt lat="43.2286831390301" lon="12.892079103283555"><ele>981.8571428571429</ele><time>2026-04-11T08:16:10Z</time></trkpt><trkpt lat="43.228616292111056" lon="12.892036119771976"><ele>986.5714285714284</ele><time>2026-04-11T08:16:15Z</time></trkpt><trkpt lat="43.228556994927814" lon="12.892005528040645"><ele>991.2857142857142</ele><time>2026-04-11T08:16:18Z</time></trkpt><trkpt lat="43.22848648607072" lon="12.891964765134778"><ele>996.0</ele><time>2026-04-11T08:16:22Z</time></trkpt><trkpt lat="43.2284101233105" lon="12.891897645178751"><ele>996.0</ele><time>2026-04-11T08:16:25Z</time></trkpt><trkpt lat="43.22834630096289" lon="12.89184009582179"><ele>996.0</ele><time>2026-04-11T08:16:28Z</time></trkpt><trkpt lat="43.228275559734456" lon="12.891793792977"><ele>996.0</ele><time>2026-04-11T08:16:31Z</time></trkpt><trkpt lat="43.228202328889665" lon="12.891746286601586"><ele>996.0</ele><time>2026-04-11T08:16:35Z</time></trkpt><trkpt lat="43.228119557643105" lon="12.891678867470931"><ele>996.0</ele><time>2026-04-11T08:16:37Z</time></trkpt><trkpt lat="43.22805481343948" lon="12.891653820769479"><ele>996.0</ele><time>2026-04-11T08:16:40Z</time></trkpt><trkpt lat="43.22798645957337" lon="12.891606896012783"><ele>995.1428571428571</ele><time>2026-04-11T08:16:43Z</time></trkpt><trkpt lat="43.227914789021185" lon="12.891587199038764"><ele>994.2857142857142</ele><time>2026-04-11T08:16:45Z</time></trkpt><trkpt lat="43.22783326160516" lon="12.891561439074398"><ele>993.4285714285713</ele><time>2026-04-11T08:16:48Z</time></trkpt><trkpt lat="43.227759782687215" lon="12.89156129151296"><ele>992.5714285714284</ele><time>2026-04-11T08:16:52Z</time></trkpt><trkpt lat="43.227696957287186" lon="12.891539761970947"><ele>991.7142857142857</ele><time>2026-04-11T08:16:56Z</time></trkpt><trkpt lat="43.22762824939558" lon="12.89150057606203"><ele>990.8571428571427</ele><time>2026-04-11T08:16:58Z</time></trkpt><trkpt lat="43.2275585393028" lon="12.89144848023503"><ele>989.9999999999999</ele><time>2026-04-11T08:17:00Z</time></trkpt><trkpt lat="43.22748733989992" lon="12.891410981721572"><ele>990.0</ele><time>2026-04-11T08:17:02Z</time></trkpt><trkpt lat="43.22742415145161" lon="12.891396936847405"><ele>990.0</ele><time>2026-04-11T08:17:03Z</time></trkpt><trkpt lat="43.227348489890026" lon="12.89136992340327"><ele>990.0</ele><time>2026-04-11T08:17:04Z</time></trkpt><trkpt lat="43.22726253062377" lon="12.891336208647946"><ele>990.0</ele><time>2026-04-11T08:17:06Z</time></trkpt><trkpt lat="43.22718647753867" lon="12.891316925335518"><ele>990.0</ele><time>2026-04-11T08:17:08Z</time></trkpt><trkpt lat="43.22711336745921" lon="12.891289368680752"><ele>990.0</ele><time>2026-04-11T08:17:10Z</time></trkpt><trkpt lat="43.22704260770352" lon="12.89124727323611"><ele>991.142857142857</ele><time>2026-04-11T08:17:13Z</time></trkpt><trkpt lat="43.226978053155186" lon="12.891216304627395"><ele>992.2857142857142</ele><time>2026-04-11T08:17:18Z</time></trkpt><trkpt lat="43.22690922208689" lon="12.891212780764619"><ele>993.4285714285714</ele><time>2026-04-11T08:17:24Z</time></trkpt><trkpt lat="43.226893006260504" lon="12.891112493730157"><ele>994.5714285714286</ele><time>2026-04-11T08:17:27Z</time></trkpt><trkpt lat="43.22685340444447" lon="12.891036117192973"><ele>995.7142857142858</ele><time>2026-04-11T08:17:31Z</time></trkpt><trkpt lat="43.22680647948735" lon="12.890977942820044"><ele>996.857142857143</ele><time>2026-04-11T08:17:34Z</time></trkpt><trkpt lat="43.22673928265002" lon="12.890930509286155"><ele>998.0000000000001</ele><time>2026-04-11T08:17:40Z</time></trkpt><trkpt lat="43.22667291488223" lon="12.890883734371203"><ele>998.0000000000001</ele><time>2026-04-11T08:17:48Z</time></trkpt><trkpt lat="43.226595281088315" lon="12.89085416837742"><ele>998.0</ele><time>2026-04-11T08:17:51Z</time></trkpt><trkpt lat="43.226537934294534" lon="12.890783381622297"><ele>998.0000000000001</ele><time>2026-04-11T08:18:04Z</time></trkpt><trkpt lat="43.226553343165506" lon="12.890681161319108"><ele>998.0000000000001</ele><time>2026-04-11T08:19:45Z</time></trkpt><trkpt lat="43.22661202928057" lon="12.890734746555676"><ele>998.0</ele><time>2026-04-11T08:19:52Z</time></trkpt><trkpt lat="43.22661775040889" lon="12.890822441654086"><ele>998.0000000000001</ele><time>2026-04-11T08:19:59Z</time></trkpt><trkpt lat="43.226672828986494" lon="12.890895585052805"><ele>998.0000000000001</ele><time>2026-04-11T08:20:10Z</time></trkpt><trkpt lat="43.22676801078969" lon="12.890945421488693"><ele>999.5999999999999</ele><time>2026-04-11T08:20:13Z</time></trkpt><trkpt lat="43.22688391342429" lon="12.89100014743991"><ele>1001.1999999999999</ele><time>2026-04-11T08:20:15Z</time></trkpt><trkpt lat="43.226985427829014" lon="12.891035399972118"><ele>1002.8</ele><time>2026-04-11T08:20:17Z</time></trkpt><trkpt lat="43.227085226498986" lon="12.891097640143276"><ele>1004.4</ele><time>2026-04-11T08:20:19Z</time></trkpt><trkpt lat="43.22714994243144" lon="12.891163290293038"><ele>1006.0</ele><time>2026-04-11T08:20:21Z</time></trkpt><trkpt lat="43.22718510443303" lon="12.891238798483093"><ele>1006.0</ele><time>2026-04-11T08:20:23Z</time></trkpt><trkpt lat="43.2272306602238" lon="12.89130758400221"><ele>1005.9999999999999</ele><time>2026-04-11T08:20:25Z</time></trkpt><trkpt lat="43.22731385864105" lon="12.891387334363083"><ele>1005.9999999999999</ele><time>2026-04-11T08:20:27Z</time></trkpt><trkpt lat="43.227398541097806" lon="12.891441169410287"><ele>1006.0</ele><time>2026-04-11T08:20:29Z</time></trkpt><trkpt lat="43.22751303899282" lon="12.891513067437153"><ele>1006.0</ele><time>2026-04-11T08:20:31Z</time></trkpt><trkpt lat="43.227614537583364" lon="12.891611422843939"><ele>1007.4</ele><time>2026-04-11T08:20:33Z</time></trkpt><trkpt lat="43.22770153269982" lon="12.891724932189875"><ele>1008.8</ele><time>2026-04-11T08:20:35Z</time></trkpt><trkpt lat="43.22776913566733" lon="12.891863998345341"><ele>1010.1999999999999</ele><time>2026-04-11T08:20:37Z</time></trkpt><trkpt lat="43.2278510029077" lon="12.891999514496403"><ele>1011.5999999999999</ele><time>2026-04-11T08:20:39Z</time></trkpt><trkpt lat="43.22789962915034" lon="12.892056937671489"><ele>1013.0</ele><time>2026-04-11T08:20:40Z</time></trkpt><trkpt lat="43.227961852164285" lon="12.892118876338897"><ele>1013.0000000000001</ele><time>2026-04-11T08:20:41Z</time></trkpt><trkpt lat="43.22802818938844" lon="12.89219000152304"><ele>1013.0</ele><time>2026-04-11T08:20:42Z</time></trkpt><trkpt lat="43.22809264488376" lon="12.892260120240449"><ele>1013.0</ele><time>2026-04-11T08:20:43Z</time></trkpt><trkpt lat="43.228163855646926" lon="12.89233318373603"><ele>1013.0</ele><time>2026-04-11T08:20:44Z</time></trkpt><trkpt lat="43.22824537382776" lon="12.892399183092962"><ele>1013.0000000000001</ele><time>2026-04-11T08:20:45Z</time></trkpt><trkpt lat="43.2283275435909" lon="12.89245544448615"><ele>1013.0</ele><time>2026-04-11T08:20:46Z</time></trkpt><trkpt lat="43.22840429513568" lon="12.892515089518879"><ele>1013.5000000000001</ele><time>2026-04-11T08:20:47Z</time></trkpt><trkpt lat="43.2284668701751" lon="12.89258826934202"><ele>1014.0</ele><time>2026-04-11T08:20:48Z</time></trkpt><trkpt lat="43.22851701560056" lon="12.892671377062303"><ele>1014.5</ele><time>2026-04-11T08:20:49Z</time></trkpt><trkpt lat="43.2285726177031" lon="12.892746817359852"><ele>1015.0</ele><time>2026-04-11T08:20:50Z</time></trkpt><trkpt lat="43.228623515737496" lon="12.892816441236047"><ele>1015.5000000000001</ele><time>2026-04-11T08:20:51Z</time></trkpt><trkpt lat="43.22866473405701" lon="12.89288475627548"><ele>1016.0</ele><time>2026-04-11T08:20:52Z</time></trkpt><trkpt lat="43.22872636989477" lon="12.893004573756896"><ele>1016.0</ele><time>2026-04-11T08:20:53.999Z</time></trkpt><trkpt lat="43.22871656170421" lon="12.893101154675922"><ele>1015.9999999999999</ele><time>2026-04-11T08:20:55.999Z</time></trkpt><trkpt lat="43.22866394502588" lon="12.893180706943946"><ele>1015.9999999999999</ele><time>2026-04-11T08:20:57.999Z</time></trkpt><trkpt lat="43.22859126447076" lon="12.893271151063601"><ele>1016.0</ele><time>2026-04-11T08:20:59.999Z</time></trkpt><trkpt lat="43.22846381785992" lon="12.89336269759341"><ele>1016.0</ele><time>2026-04-11T08:21:01.999Z</time></trkpt><trkpt lat="43.22838820546301" lon="12.893430875533184"><ele>1017.5000000000001</ele><time>2026-04-11T08:21:02.999Z</time></trkpt><trkpt lat="43.22829443080119" lon="12.893465808023135"><ele>1019.0</ele><time>2026-04-11T08:21:03.999Z</time></trkpt><trkpt lat="43.22820513434786" lon="12.89348049219874"><ele>1020.5</ele><time>2026-04-11T08:21:04.999Z</time></trkpt><trkpt lat="43.2281187688383" lon="12.893508101122674"><ele>1022.0</ele><time>2026-04-11T08:21:05.999Z</time></trkpt><trkpt lat="43.228040074407424" lon="12.893517491004094"><ele>1023.5000000000001</ele><time>2026-04-11T08:21:06.999Z</time></trkpt><trkpt lat="43.22796933520004" lon="12.893531776953935"><ele>1025.0</ele><time>2026-04-11T08:21:07.999Z</time></trkpt><trkpt lat="43.22789901667669" lon="12.893540195214166"><ele>1026.142857142857</ele><time>2026-04-11T08:21:08.999Z</time></trkpt><trkpt lat="43.227825983847495" lon="12.893547445067577"><ele>1027.2857142857142</ele><time>2026-04-11T08:21:09.999Z</time></trkpt><trkpt lat="43.22774944304033" lon="12.893558325343523"><ele>1028.4285714285716</ele><time>2026-04-11T08:21:10.999Z</time></trkpt><trkpt lat="43.22767907077702" lon="12.89358185382057"><ele>1029.5714285714284</ele><time>2026-04-11T08:21:11.999Z</time></trkpt><trkpt lat="43.22760915688725" lon="12.893598200763675"><ele>1030.7142857142858</ele><time>2026-04-11T08:21:12.999Z</time></trkpt><trkpt lat="43.227541687782285" lon="12.893602638472359"><ele>1031.857142857143</ele><time>2026-04-11T08:21:13.999Z</time></trkpt><trkpt lat="43.22747394346967" lon="12.893587210358179"><ele>1033.0</ele><time>2026-04-11T08:21:14.999Z</time></trkpt><trkpt lat="43.22738652538405" lon="12.893561045771493"><ele>1033.0</ele><time>2026-04-11T08:21:15.999Z</time></trkpt><trkpt lat="43.227288558450354" lon="12.89352316844673"><ele>1033.0</ele><time>2026-04-11T08:21:16.999Z</time></trkpt><trkpt lat="43.22719569951488" lon="12.893487842997718"><ele>1033.0</ele><time>2026-04-11T08:21:17.999Z</time></trkpt><trkpt lat="43.22710150134652" lon="12.893461161456358"><ele>1033.0</ele><time>2026-04-11T08:21:18.999Z</time></trkpt><trkpt lat="43.227004561250155" lon="12.89343958052493"><ele>1033.0</ele><time>2026-04-11T08:21:19.999Z</time></trkpt><trkpt lat="43.22691524696272" lon="12.893411525025343"><ele>1032.6666666666665</ele><time>2026-04-11T08:21:20.999Z</time></trkpt><trkpt lat="43.22684053125629" lon="12.89338291847864"><ele>1032.3333333333333</ele><time>2026-04-11T08:21:21.999Z</time></trkpt><trkpt lat="43.226775054661594" lon="12.893336878443233"><ele>1032.0</ele><time>2026-04-11T08:21:22.999Z</time></trkpt><trkpt lat="43.22672140638556" lon="12.89325457843961"><ele>1031.6666666666667</ele><time>2026-04-11T08:21:23.999Z</time></trkpt><trkpt lat="43.2266661731391" lon="12.893154435400316"><ele>1031.3333333333335</ele><time>2026-04-11T08:21:24.999Z</time></trkpt><trkpt lat="43.22662498362677" lon="12.893050525151061"><ele>1031.0</ele><time>2026-04-11T08:21:25.999Z</time></trkpt><trkpt lat="43.22657520641267" lon="12.892947866273994"><ele>1031.0</ele><time>2026-04-11T08:21:26.999Z</time></trkpt><trkpt lat="43.226524113008665" lon="12.892842087362583"><ele>1031.0</ele><time>2026-04-11T08:21:27.999Z</time></trkpt><trkpt lat="43.22647463579469" lon="12.89274182021478"><ele>1031.0</ele><time>2026-04-11T08:21:28.999Z</time></trkpt><trkpt lat="43.22642610649031" lon="12.892645261533549"><ele>1031.0</ele><time>2026-04-11T08:21:29.999Z</time></trkpt><trkpt lat="43.2263782543595" lon="12.892555306505926"><ele>1031.0</ele><time>2026-04-11T08:21:30.999Z</time></trkpt><trkpt lat="43.226332527592426" lon="12.89248452854924"><ele>1031.0</ele><time>2026-04-11T08:21:31.999Z</time></trkpt><trkpt lat="43.22625569106178" lon="12.89237697764276"><ele>1032.0</ele><time>2026-04-11T08:21:33.999Z</time></trkpt><trkpt lat="43.22612915785371" lon="12.892325116938274"><ele>1033.0</ele><time>2026-04-11T08:21:35.999Z</time></trkpt><trkpt lat="43.226066972476985" lon="12.892286036734417"><ele>1034.0</ele><time>2026-04-11T08:21:36.999Z</time></trkpt><trkpt lat="43.22601459242582" lon="12.892222286968614"><ele>1035.0</ele><time>2026-04-11T08:21:37.999Z</time></trkpt><trkpt lat="43.22596849639994" lon="12.89214631685757"><ele>1036.0</ele><time>2026-04-11T08:21:38.999Z</time></trkpt><trkpt lat="43.225926345388565" lon="12.892060065187518"><ele>1037.0</ele><time>2026-04-11T08:21:39.999Z</time></trkpt><trkpt lat="43.2259025143139" lon="12.89196089828181"><ele>1037.0</ele><time>2026-04-11T08:21:40.999Z</time></trkpt><trkpt lat="43.22589304403242" lon="12.891864550977617"><ele>1037.0</ele><time>2026-04-11T08:21:41.999Z</time></trkpt><trkpt lat="43.225875360265796" lon="12.891767347955254"><ele>1037.0</ele><time>2026-04-11T08:21:42.999Z</time></trkpt><trkpt lat="43.22585246140405" lon="12.891668712336179"><ele>1037.0</ele><time>2026-04-11T08:21:43.999Z</time></trkpt><trkpt lat="43.22582896979143" lon="12.891584186317447"><ele>1037.0</ele><time>2026-04-11T08:21:44.999Z</time></trkpt><trkpt lat="43.22578060149488" lon="12.891465691273595"><ele>1037.0</ele><time>2026-04-11T08:21:46.999Z</time></trkpt><trkpt lat="43.22574386408777" lon="12.891364947391704"><ele>1036.142857142857</ele><time>2026-04-11T08:21:48.999Z</time></trkpt><trkpt lat="43.22571885713906" lon="12.891259889496478"><ele>1035.2857142857142</ele><time>2026-04-11T08:21:50.999Z</time></trkpt><trkpt lat="43.22570121706246" lon="12.891153957832524"><ele>1034.4285714285713</ele><time>2026-04-11T08:21:52.999Z</time></trkpt><trkpt lat="43.225703024134894" lon="12.891053388436431"><ele>1033.5714285714284</ele><time>2026-04-11T08:21:54.999Z</time></trkpt><trkpt lat="43.22570658930751" lon="12.890961595993796"><ele>1032.7142857142856</ele><time>2026-04-11T08:21:56.999Z</time></trkpt><trkpt lat="43.225687673118564" lon="12.890877749764128"><ele>1031.857142857143</ele><time>2026-04-11T08:21:58.999Z</time></trkpt><trkpt lat="43.22570173714203" lon="12.890791065729907"><ele>1031.0</ele><time>2026-04-11T08:23:28.999Z</time></trkpt><trkpt lat="43.22564675782262" lon="12.890835311795023"><ele>1029.8333333333335</ele><time>2026-04-11T08:23:54.999Z</time></trkpt><trkpt lat="43.225589476483115" lon="12.890878629508308"><ele>1028.6666666666667</ele><time>2026-04-11T08:24:04.999Z</time></trkpt><trkpt lat="43.22552479637784" lon="12.89081637186111"><ele>1027.5</ele><time>2026-04-11T08:24:11.999Z</time></trkpt><trkpt lat="43.225563989266384" lon="12.890714698616831"><ele>1026.3333333333333</ele><time>2026-04-11T08:25:10.999Z</time></trkpt><trkpt lat="43.22563678154237" lon="12.890783136393958"><ele>1025.1666666666665</ele><time>2026-04-11T08:25:26.999Z</time></trkpt><trkpt lat="43.225728093175675" lon="12.890799233246486"><ele>1024.0</ele><time>2026-04-11T08:25:59Z</time></trkpt><trkpt lat="43.22580660285159" lon="12.890654178969783"><ele>1023.9999999999999</ele><time>2026-04-11T08:26:07Z</time></trkpt><trkpt lat="43.225814518732385" lon="12.89053626273507"><ele>1024.0</ele><time>2026-04-11T08:26:08Z</time></trkpt><trkpt lat="43.22577280409166" lon="12.890440661871388"><ele>1024.0</ele><time>2026-04-11T08:26:11Z</time></trkpt><trkpt lat="43.225729891722075" lon="12.89035614278032"><ele>1024.0</ele><time>2026-04-11T08:26:13Z</time></trkpt><trkpt lat="43.22570143047632" lon="12.890242020999287"><ele>1023.9999999999999</ele><time>2026-04-11T08:26:15Z</time></trkpt><trkpt lat="43.22564732735802" lon="12.890148624281725"><ele>1024.0</ele><time>2026-04-11T08:26:17Z</time></trkpt><trkpt lat="43.22560967336678" lon="12.8900377403284"><ele>1031.0</ele><time>2026-04-11T08:26:19Z</time></trkpt><trkpt lat="43.2255505998617" lon="12.889985735463444"><ele>1038.0</ele><time>2026-04-11T08:26:21Z</time></trkpt><trkpt lat="43.22529918877112" lon="12.890166088686966"><ele>1045.0</ele><time>2026-04-11T08:26:34Z</time></trkpt><trkpt lat="43.22505758724519" lon="12.89128732731707"><ele>1045.0</ele><time>2026-04-11T08:26:36Z</time></trkpt><trkpt lat="43.225230553071384" lon="12.891302289034348"><ele>1045.0</ele><time>2026-04-11T08:26:41Z</time></trkpt><trkpt lat="43.22527202519511" lon="12.89140397737866"><ele>1045.0</ele><time>2026-04-11T08:26:43Z</time></trkpt><trkpt lat="43.225324005073375" lon="12.89147324357049"><ele>1045.0</ele><time>2026-04-11T08:26:48Z</time></trkpt><trkpt lat="43.22538888126223" lon="12.891567255323004"><ele>1045.0</ele><time>2026-04-11T08:26:52Z</time></trkpt><trkpt lat="43.22539490741019" lon="12.891659587370519"><ele>1045.0</ele><time>2026-04-11T08:26:56Z</time></trkpt><trkpt lat="43.22533369859086" lon="12.89173097241558"><ele>1045.0</ele><time>2026-04-11T08:26:58Z</time></trkpt><trkpt lat="43.225240504846525" lon="12.891821815985335"><ele>1045.0</ele><time>2026-04-11T08:27:00Z</time></trkpt><trkpt lat="43.225117874258636" lon="12.891902669626694"><ele>1045.0</ele><time>2026-04-11T08:27:02Z</time></trkpt><trkpt lat="43.22502944073573" lon="12.891961363849532"><ele>1045.0</ele><time>2026-04-11T08:27:03Z</time></trkpt><trkpt lat="43.22492846737121" lon="12.892023456237592"><ele>1045.3333333333333</ele><time>2026-04-11T08:27:04Z</time></trkpt><trkpt lat="43.22484173248343" lon="12.892079631664254"><ele>1045.6666666666665</ele><time>2026-04-11T08:27:05Z</time></trkpt><trkpt lat="43.22477578262756" lon="12.892124424589706"><ele>1046.0</ele><time>2026-04-11T08:27:06Z</time></trkpt><trkpt lat="43.22469505679996" lon="12.892184098346734"><ele>1046.3333333333333</ele><time>2026-04-11T08:27:08Z</time></trkpt><trkpt lat="43.22463664949744" lon="12.892151204729634"><ele>1046.6666666666667</ele><time>2026-04-11T08:28:12Z</time></trkpt><trkpt lat="43.22467532773523" lon="12.892226528665866"><ele>1047.0</ele><time>2026-04-11T08:28:44Z</time></trkpt><trkpt lat="43.224764007401085" lon="12.892065423874996"><ele>1047.0</ele><time>2026-04-11T08:30:51Z</time></trkpt><trkpt lat="43.224825455157635" lon="12.892033365903027"><ele>1047.0</ele><time>2026-04-11T08:30:52Z</time></trkpt><trkpt lat="43.224888668882706" lon="12.892038541248187"><ele>1047.0</ele><time>2026-04-11T08:30:53Z</time></trkpt><trkpt lat="43.22500513374595" lon="12.892017076395494"><ele>1047.0</ele><time>2026-04-11T08:30:55Z</time></trkpt><trkpt lat="43.22511993569308" lon="12.8919755357647"><ele>1047.0</ele><time>2026-04-11T08:30:57Z</time></trkpt><trkpt lat="43.22518244715104" lon="12.891956835232143"><ele>1047.0</ele><time>2026-04-11T08:30:58Z</time></trkpt><trkpt lat="43.225294426577165" lon="12.891942172959894"><ele>1047.0</ele><time>2026-04-11T08:31:00Z</time></trkpt><trkpt lat="43.22539635973272" lon="12.8919231984163"><ele>1047.0</ele><time>2026-04-11T08:31:02Z</time></trkpt><trkpt lat="43.22550094153546" lon="12.891942492222807"><ele>1047.0</ele><time>2026-04-11T08:31:04Z</time></trkpt><trkpt lat="43.225592934025315" lon="12.891963669479287"><ele>1047.0</ele><time>2026-04-11T08:31:06Z</time></trkpt><trkpt lat="43.225673260488996" lon="12.891951611160911"><ele>1047.0</ele><time>2026-04-11T08:31:08Z</time></trkpt><trkpt lat="43.22573683942999" lon="12.891950282517408"><ele>1047.0</ele><time>2026-04-11T08:31:10Z</time></trkpt><trkpt lat="43.22576005912662" lon="12.891839899823788"><ele>1046.6666666666667</ele><time>2026-04-11T08:31:14Z</time></trkpt><trkpt lat="43.22571489330571" lon="12.891700193461144"><ele>1046.3333333333333</ele><time>2026-04-11T08:31:16Z</time></trkpt><trkpt lat="43.225666277635014" lon="12.89158854940139"><ele>1046.0</ele><time>2026-04-11T08:31:18Z</time></trkpt><trkpt lat="43.22564991170026" lon="12.891491191437558"><ele>1045.6666666666665</ele><time>2026-04-11T08:31:22Z</time></trkpt><trkpt lat="43.22564766222457" lon="12.891396884166051"><ele>1045.3333333333333</ele><time>2026-04-11T08:31:25Z</time></trkpt><trkpt lat="43.22562734949912" lon="12.891278693788088"><ele>1045.0</ele><time>2026-04-11T08:31:28Z</time></trkpt><trkpt lat="43.22556701860148" lon="12.891192082756454"><ele>1045.0</ele><time>2026-04-11T08:31:31Z</time></trkpt><trkpt lat="43.22556615115782" lon="12.891075821559705"><ele>1045.0</ele><time>2026-04-11T08:31:33Z</time></trkpt><trkpt lat="43.225565920805266" lon="12.89094346269386"><ele>1045.0</ele><time>2026-04-11T08:31:35Z</time></trkpt><trkpt lat="43.22555019350607" lon="12.890808647092383"><ele>1045.0</ele><time>2026-04-11T08:31:37Z</time></trkpt><trkpt lat="43.225495666297554" lon="12.890665223937477"><ele>1045.0</ele><time>2026-04-11T08:31:39Z</time></trkpt><trkpt lat="43.22553778294905" lon="12.890521567022509"><ele>1044.5</ele><time>2026-04-11T08:31:41Z</time></trkpt><trkpt lat="43.225600582518084" lon="12.890431128575429"><ele>1044.0</ele><time>2026-04-11T08:31:43Z</time></trkpt><trkpt lat="43.22565137776895" lon="12.890363247017683"><ele>1043.5</ele><time>2026-04-11T08:31:46Z</time></trkpt><trkpt lat="43.22572150964928" lon="12.890309507321467"><ele>1043.0</ele><time>2026-04-11T08:31:49Z</time></trkpt><trkpt lat="43.225770314455275" lon="12.890244938435133"><ele>1042.5</ele><time>2026-04-11T08:31:52Z</time></trkpt><trkpt lat="43.22581798277176" lon="12.8901488609725"><ele>1042.0</ele><time>2026-04-11T08:31:55Z</time></trkpt><trkpt lat="43.225880582625955" lon="12.890031211135968"><ele>1039.4285714285713</ele><time>2026-04-11T08:32:11Z</time></trkpt><trkpt lat="43.2258919082117" lon="12.890118427874508"><ele>1036.857142857143</ele><time>2026-04-11T08:32:30Z</time></trkpt><trkpt lat="43.22584855915432" lon="12.890202747237712"><ele>1034.2857142857142</ele><time>2026-04-11T08:32:33Z</time></trkpt><trkpt lat="43.2258210963548" lon="12.890296935448228"><ele>1031.7142857142858</ele><time>2026-04-11T08:32:35Z</time></trkpt><trkpt lat="43.22580904684514" lon="12.8903826680594"><ele>1029.142857142857</ele><time>2026-04-11T08:32:37Z</time></trkpt><trkpt lat="43.225795829361104" lon="12.890478485958827"><ele>1026.5714285714284</ele><time>2026-04-11T08:32:39Z</time></trkpt><trkpt lat="43.22579496353245" lon="12.890605927135029"><ele>1024.0</ele><time>2026-04-11T08:32:42Z</time></trkpt><trkpt lat="43.22578615516299" lon="12.890695565622925"><ele>1023.9999999999999</ele><time>2026-04-11T08:32:44Z</time></trkpt><trkpt lat="43.22574909908449" lon="12.890812433084255"><ele>1024.0</ele><time>2026-04-11T08:32:47Z</time></trkpt><trkpt lat="43.22572412069011" lon="12.890902365035267"><ele>1024.0</ele><time>2026-04-11T08:32:48.999Z</time></trkpt><trkpt lat="43.22569563132715" lon="12.891006616876021"><ele>1024.0</ele><time>2026-04-11T08:32:50.999Z</time></trkpt><trkpt lat="43.22565487743582" lon="12.891128596176872"><ele>1023.9999999999999</ele><time>2026-04-11T08:32:52.999Z</time></trkpt><trkpt lat="43.225630834684246" lon="12.891247226773537"><ele>1024.0</ele><time>2026-04-11T08:32:54.999Z</time></trkpt><trkpt lat="43.225591083440314" lon="12.891368842246884"><ele>1027.5</ele><time>2026-04-11T08:32:56.999Z</time></trkpt><trkpt lat="43.22552834021483" lon="12.89149818118515"><ele>1031.0</ele><time>2026-04-11T08:32:59Z</time></trkpt><trkpt lat="43.225450414338646" lon="12.891622896103529"><ele>1034.5</ele><time>2026-04-11T08:33:01Z</time></trkpt><trkpt lat="43.22540113505189" lon="12.891677688251798"><ele>1038.0</ele><time>2026-04-11T08:33:02Z</time></trkpt><trkpt lat="43.22534000642255" lon="12.891734368056117"><ele>1041.5</ele><time>2026-04-11T08:33:03Z</time></trkpt><trkpt lat="43.2252698868128" lon="12.891780181931523"><ele>1045.0</ele><time>2026-04-11T08:33:04Z</time></trkpt><trkpt lat="43.22520767260994" lon="12.891826734720087"><ele>1045.0</ele><time>2026-04-11T08:33:05Z</time></trkpt><trkpt lat="43.225099758386214" lon="12.8918870428503"><ele>1045.0</ele><time>2026-04-11T08:33:07Z</time></trkpt><trkpt lat="43.225020405614025" lon="12.891897964849722"><ele>1045.0</ele><time>2026-04-11T08:33:09Z</time></trkpt><trkpt lat="43.22497574835273" lon="12.891830125546933"><ele>1045.0</ele><time>2026-04-11T08:33:12Z</time></trkpt><trkpt lat="43.224980017848665" lon="12.891737270684171"><ele>1045.0</ele><time>2026-04-11T08:33:14Z</time></trkpt><trkpt lat="43.22494641325273" lon="12.891620068137296"><ele>1045.0</ele><time>2026-04-11T08:33:16Z</time></trkpt><trkpt lat="43.22491066420609" lon="12.891484210510477"><ele>1045.0</ele><time>2026-04-11T08:33:18Z</time></trkpt><trkpt lat="43.22488660998452" lon="12.89133263923589"><ele>1045.0</ele><time>2026-04-11T08:33:20Z</time></trkpt><trkpt lat="43.22488029277679" lon="12.891195854388156"><ele>1045.0</ele><time>2026-04-11T08:33:22Z</time></trkpt><trkpt lat="43.22488531121846" lon="12.891062794179703"><ele>1045.0</ele><time>2026-04-11T08:33:24Z</time></trkpt><trkpt lat="43.22487511848601" lon="12.890947738890128"><ele>1045.0</ele><time>2026-04-11T08:33:26Z</time></trkpt><trkpt lat="43.22487394839482" lon="12.89083928007651"><ele>1046.4285714285713</ele><time>2026-04-11T08:33:29Z</time></trkpt><trkpt lat="43.22488430659606" lon="12.890751079832485"><ele>1047.8571428571427</ele><time>2026-04-11T08:33:32Z</time></trkpt><trkpt lat="43.224905728517236" lon="12.890667015006825"><ele>1049.2857142857142</ele><time>2026-04-11T08:33:40Z</time></trkpt><trkpt lat="43.22494104365214" lon="12.890579916331495"><ele>1050.7142857142858</ele><time>2026-04-11T08:33:49Z</time></trkpt><trkpt lat="43.22493948683141" lon="12.890482765491155"><ele>1052.1428571428573</ele><time>2026-04-11T08:33:53Z</time></trkpt><trkpt lat="43.22493881265096" lon="12.890385029337645"><ele>1053.5714285714287</ele><time>2026-04-11T08:33:56Z</time></trkpt><trkpt lat="43.224929190725376" lon="12.890291075289877"><ele>1055.0</ele><time>2026-04-11T08:33:59Z</time></trkpt><trkpt lat="43.22494131883661" lon="12.89020099260916"><ele>1055.0</ele><time>2026-04-11T08:34:04.999Z</time></trkpt><trkpt lat="43.22493002593956" lon="12.890103787345573"><ele>1055.0</ele><time>2026-04-11T08:34:13.999Z</time></trkpt><trkpt lat="43.22490604245118" lon="12.889981649114352"><ele>1055.0</ele><time>2026-04-11T08:34:25.999Z</time></trkpt><trkpt lat="43.22491794535521" lon="12.889871891707365"><ele>1055.0</ele><time>2026-04-11T08:34:30.999Z</time></trkpt><trkpt lat="43.22490403444423" lon="12.889787374998116"><ele>1055.0</ele><time>2026-04-11T08:34:40.999Z</time></trkpt><trkpt lat="43.224981891258444" lon="12.889709821296185"><ele>1055.0</ele><time>2026-04-11T08:35:01.999Z</time></trkpt><trkpt lat="43.225065486054774" lon="12.889627726193254"><ele>1057.5</ele><time>2026-04-11T08:36:12.999Z</time></trkpt><trkpt lat="43.22499382519955" lon="12.88954056000767"><ele>1060.0</ele><time>2026-04-11T08:37:35.999Z</time></trkpt><trkpt lat="43.224954902863075" lon="12.889444446149856"><ele>1062.5</ele><time>2026-04-11T08:37:37.999Z</time></trkpt><trkpt lat="43.22492343956391" lon="12.889357511849932"><ele>1065.0</ele><time>2026-04-11T08:37:39.999Z</time></trkpt><trkpt lat="43.22489447873648" lon="12.889237979582756"><ele>1067.5</ele><time>2026-04-11T08:37:42.999Z</time></trkpt><trkpt lat="43.22487184793838" lon="12.889142722348128"><ele>1070.0</ele><time>2026-04-11T08:37:44.999Z</time></trkpt><trkpt lat="43.22485342815514" lon="12.88904929638845"><ele>1070.0</ele><time>2026-04-11T08:37:50.999Z</time></trkpt><trkpt lat="43.22488330614363" lon="12.888952190889679"><ele>1070.0</ele><time>2026-04-11T08:37:53.999Z</time></trkpt><trkpt lat="43.224833079542016" lon="12.889052464455391"><ele>1070.0</ele><time>2026-04-11T08:37:59.999Z</time></trkpt><trkpt lat="43.22480501111102" lon="12.88914401595088"><ele>1070.0</ele><time>2026-04-11T08:38:02.999Z</time></trkpt><trkpt lat="43.22482595102012" lon="12.889229320124073"><ele>1070.0</ele><time>2026-04-11T08:38:05.999Z</time></trkpt><trkpt lat="43.224864160068286" lon="12.88930073993913"><ele>1070.0</ele><time>2026-04-11T08:38:10.999Z</time></trkpt><trkpt lat="43.224923479083216" lon="12.889329935027977"><ele>1070.0</ele><time>2026-04-11T08:38:39.999Z</time></trkpt><trkpt lat="43.22498153825542" lon="12.8893678090576"><ele>1071.8333333333335</ele><time>2026-04-11T08:38:44.999Z</time></trkpt><trkpt lat="43.22495263253674" lon="12.889248778922711"><ele>1073.6666666666667</ele><time>2026-04-11T08:40:24Z</time></trkpt><trkpt lat="43.224893887303544" lon="12.889167147169681"><ele>1075.5</ele><time>2026-04-11T08:40:26Z</time></trkpt><trkpt lat="43.224836058798694" lon="12.889081815665262"><ele>1077.3333333333333</ele><time>2026-04-11T08:40:28Z</time></trkpt><trkpt lat="43.22481022398576" lon="12.88899251817255"><ele>1079.1666666666665</ele><time>2026-04-11T08:40:30Z</time></trkpt><trkpt lat="43.2247868839626" lon="12.888900066350807"><ele>1081.0</ele><time>2026-04-11T08:40:32Z</time></trkpt><trkpt lat="43.22474824579429" lon="12.888821656939689"><ele>1081.2857142857142</ele><time>2026-04-11T08:40:35Z</time></trkpt><trkpt lat="43.22472898986134" lon="12.888739368124101"><ele>1081.5714285714284</ele><time>2026-04-11T08:40:41Z</time></trkpt><trkpt lat="43.2247461304844" lon="12.888653101333025"><ele>1081.857142857143</ele><time>2026-04-11T08:40:44Z</time></trkpt><trkpt lat="43.22469481893415" lon="12.888585473184559"><ele>1082.142857142857</ele><time>2026-04-11T08:40:46Z</time></trkpt><trkpt lat="43.22462225972351" lon="12.888522376094736"><ele>1082.4285714285716</ele><time>2026-04-11T08:40:48Z</time></trkpt><trkpt lat="43.22456868071016" lon="12.888454754012752"><ele>1082.7142857142858</ele><time>2026-04-11T08:40:51Z</time></trkpt><trkpt lat="43.22454355417387" lon="12.888372727319823"><ele>1083.0</ele><time>2026-04-11T08:40:54Z</time></trkpt><trkpt lat="43.2245230646666" lon="12.888283962148527"><ele>1083.0</ele><time>2026-04-11T08:41:03Z</time></trkpt><trkpt lat="43.2244877217024" lon="12.888199429169472"><ele>1083.0</ele><time>2026-04-11T08:41:06Z</time></trkpt><trkpt lat="43.224457822127995" lon="12.888114392713021"><ele>1083.0</ele><time>2026-04-11T08:42:05Z</time></trkpt><trkpt lat="43.22447958378717" lon="12.888031133323626"><ele>1083.0</ele><time>2026-04-11T08:42:07Z</time></trkpt><trkpt lat="43.224480178877194" lon="12.887931698033178"><ele>1083.0</ele><time>2026-04-11T08:42:10Z</time></trkpt><trkpt lat="43.2244664078504" lon="12.887841058618971"><ele>1083.0</ele><time>2026-04-11T08:42:12Z</time></trkpt><trkpt lat="43.22445832405508" lon="12.887748360145478"><ele>1083.0</ele><time>2026-04-11T08:42:14Z</time></trkpt><trkpt lat="43.22444614290662" lon="12.887656561309232"><ele>1083.1666666666667</ele><time>2026-04-11T08:42:16Z</time></trkpt><trkpt lat="43.224442420041626" lon="12.88754946701131"><ele>1083.3333333333333</ele><time>2026-04-11T08:42:19Z</time></trkpt><trkpt lat="43.22446700665532" lon="12.887442334753743"><ele>1083.5</ele><time>2026-04-11T08:43:39Z</time></trkpt><trkpt lat="43.22446268749471" lon="12.887348974894026"><ele>1083.6666666666665</ele><time>2026-04-11T08:43:40Z</time></trkpt><trkpt lat="43.22445652377936" lon="12.88722928096062"><ele>1083.8333333333333</ele><time>2026-04-11T08:43:41Z</time></trkpt><trkpt lat="43.22445589830043" lon="12.887102181317243"><ele>1084.0</ele><time>2026-04-11T08:43:42Z</time></trkpt><trkpt lat="43.22445195311836" lon="12.886973894706088"><ele>1084.0</ele><time>2026-04-11T08:43:43Z</time></trkpt><trkpt lat="43.22444812054017" lon="12.886852534302843"><ele>1084.0</ele><time>2026-04-11T08:43:44Z</time></trkpt><trkpt lat="43.22444279649161" lon="12.886726472672452"><ele>1084.0</ele><time>2026-04-11T08:43:45Z</time></trkpt><trkpt lat="43.224438824716586" lon="12.88662287826534"><ele>1084.0</ele><time>2026-04-11T08:43:46Z</time></trkpt><trkpt lat="43.224430843881" lon="12.886534260830304"><ele>1084.0</ele><time>2026-04-11T08:43:47Z</time></trkpt><trkpt lat="43.22442156556456" lon="12.886444692650945"><ele>1084.0</ele><time>2026-04-11T08:43:48Z</time></trkpt><trkpt lat="43.22441626127657" lon="12.88635303358778"><ele>1083.0</ele><time>2026-04-11T08:43:49Z</time></trkpt><trkpt lat="43.22440969286516" lon="12.886262146567205"><ele>1082.0</ele><time>2026-04-11T08:43:50Z</time></trkpt><trkpt lat="43.22439996881347" lon="12.88617260102872"><ele>1081.0</ele><time>2026-04-11T08:43:51Z</time></trkpt><trkpt lat="43.22436316212325" lon="12.886013159209034"><ele>1080.0</ele><time>2026-04-11T08:43:53Z</time></trkpt><trkpt lat="43.22433706677614" lon="12.885864184991517"><ele>1079.0</ele><time>2026-04-11T08:43:55Z</time></trkpt><trkpt lat="43.22432996706327" lon="12.885712938189286"><ele>1078.4</ele><time>2026-04-11T08:43:57Z</time></trkpt><trkpt lat="43.224334354622464" lon="12.885547883831618"><ele>1077.8000000000002</ele><time>2026-04-11T08:43:59Z</time></trkpt><trkpt lat="43.22434431744329" lon="12.885390218016253"><ele>1077.1999999999998</ele><time>2026-04-11T08:44:01Z</time></trkpt><trkpt lat="43.224364468690574" lon="12.885241101655897"><ele>1076.6</ele><time>2026-04-11T08:44:03Z</time></trkpt><trkpt lat="43.22437316365322" lon="12.885124705756695"><ele>1076.0</ele><time>2026-04-11T08:44:06Z</time></trkpt><trkpt lat="43.224362468117576" lon="12.885031660574255"><ele>1074.6666666666667</ele><time>2026-04-11T08:44:08Z</time></trkpt><trkpt lat="43.22433705186405" lon="12.88492845756562"><ele>1073.3333333333335</ele><time>2026-04-11T08:44:10Z</time></trkpt><trkpt lat="43.224338374002805" lon="12.88480706941364"><ele>1072.0</ele><time>2026-04-11T08:44:12Z</time></trkpt><trkpt lat="43.22434049913903" lon="12.884686066549305"><ele>1070.6666666666667</ele><time>2026-04-11T08:44:14Z</time></trkpt><trkpt lat="43.22433808891042" lon="12.884567107586985"><ele>1069.3333333333333</ele><time>2026-04-11T08:44:16Z</time></trkpt><trkpt lat="43.224338218900634" lon="12.884473878837797"><ele>1068.0</ele><time>2026-04-11T08:44:18Z</time></trkpt><trkpt lat="43.2243429666258" lon="12.884366060268018"><ele>1065.8333333333333</ele><time>2026-04-11T08:44:21Z</time></trkpt><trkpt lat="43.22434181959364" lon="12.884252667476952"><ele>1063.6666666666667</ele><time>2026-04-11T08:44:23Z</time></trkpt><trkpt lat="43.22436139541954" lon="12.884127319823584"><ele>1061.5</ele><time>2026-04-11T08:44:25Z</time></trkpt><trkpt lat="43.22437650342271" lon="12.884011309493204"><ele>1059.3333333333335</ele><time>2026-04-11T08:44:27Z</time></trkpt><trkpt lat="43.224399050038876" lon="12.883928686568417"><ele>1057.1666666666667</ele><time>2026-04-11T08:44:30Z</time></trkpt><trkpt lat="43.22440887837092" lon="12.883814340262381"><ele>1055.0</ele><time>2026-04-11T08:44:34Z</time></trkpt><trkpt lat="43.22442531689858" lon="12.883727851805714"><ele>1055.0</ele><time>2026-04-11T08:44:37Z</time></trkpt><trkpt lat="43.22445271634778" lon="12.883620133101974"><ele>1055.0</ele><time>2026-04-11T08:44:41Z</time></trkpt><trkpt lat="43.224490047066034" lon="12.88352328981029"><ele>1055.0</ele><time>2026-04-11T08:44:42.999Z</time></trkpt><trkpt lat="43.22453790307726" lon="12.883444070340586"><ele>1055.0</ele><time>2026-04-11T08:44:44.999Z</time></trkpt><trkpt lat="43.22459614768476" lon="12.883340160111716"><ele>1055.0</ele><time>2026-04-11T08:44:46.999Z</time></trkpt><trkpt lat="43.2246743920335" lon="12.883253101512322"><ele>1055.0</ele><time>2026-04-11T08:44:48.999Z</time></trkpt><trkpt lat="43.22473743420407" lon="12.883153823113037"><ele>1053.5</ele><time>2026-04-11T08:44:50.999Z</time></trkpt><trkpt lat="43.224788358354736" lon="12.88304812368348"><ele>1052.0</ele><time>2026-04-11T08:44:52.999Z</time></trkpt><trkpt lat="43.22483643778331" lon="12.882945821471727"><ele>1050.5</ele><time>2026-04-11T08:44:54.999Z</time></trkpt><trkpt lat="43.2248829165898" lon="12.88284799830524"><ele>1049.0</ele><time>2026-04-11T08:44:56.999Z</time></trkpt><trkpt lat="43.224906985041585" lon="12.882756949459594"><ele>1047.5</ele><time>2026-04-11T08:44:58.999Z</time></trkpt><trkpt lat="43.22490860016182" lon="12.882653540925967"><ele>1046.0</ele><time>2026-04-11T08:45:00.999Z</time></trkpt><trkpt lat="43.22493852731032" lon="12.882542194853619"><ele>1041.2</ele><time>2026-04-11T08:45:02.999Z</time></trkpt><trkpt lat="43.22497328493648" lon="12.88240455237563"><ele>1036.3999999999999</ele><time>2026-04-11T08:45:04.999Z</time></trkpt><trkpt lat="43.22500900959954" lon="12.882241983699183"><ele>1031.6</ele><time>2026-04-11T08:45:06.999Z</time></trkpt><trkpt lat="43.22500404725473" lon="12.88214831411511"><ele>1026.8</ele><time>2026-04-11T08:45:07.999Z</time></trkpt><trkpt lat="43.22498736000988" lon="12.882063399545276"><ele>1022.0</ele><time>2026-04-11T08:45:08.999Z</time></trkpt><trkpt lat="43.22494862085103" lon="12.881935265078187"><ele>1022.0000000000001</ele><time>2026-04-11T08:45:10.999Z</time></trkpt><trkpt lat="43.2249397485347" lon="12.881843983826606"><ele>1022.0</ele><time>2026-04-11T08:45:12.999Z</time></trkpt><trkpt lat="43.22498143808052" lon="12.881770976702857"><ele>1022.0</ele><time>2026-04-11T08:45:24.999Z</time></trkpt><trkpt lat="43.22493024168783" lon="12.881689639962302"><ele>1022.0</ele><time>2026-04-11T08:45:27.999Z</time></trkpt><trkpt lat="43.22487804598821" lon="12.881590853964878"><ele>1022.0000000000001</ele><time>2026-04-11T08:45:30.999Z</time></trkpt><trkpt lat="43.224860756926674" lon="12.881479514692192"><ele>1022.0</ele><time>2026-04-11T08:45:32.999Z</time></trkpt><trkpt lat="43.22484782583257" lon="12.881333399819862"><ele>1019.6</ele><time>2026-04-11T08:45:34.999Z</time></trkpt><trkpt lat="43.2248165476974" lon="12.881182537455041"><ele>1017.2</ele><time>2026-04-11T08:45:36.999Z</time></trkpt><trkpt lat="43.22477674595764" lon="12.881017765547186"><ele>1014.8</ele><time>2026-04-11T08:45:38.999Z</time></trkpt><trkpt lat="43.22474415839441" lon="12.880869694237964"><ele>1012.4</ele><time>2026-04-11T08:45:40.999Z</time></trkpt><trkpt lat="43.22472948983347" lon="12.880785360493611"><ele>1010.0</ele><time>2026-04-11T08:45:41.999Z</time></trkpt><trkpt lat="43.22468309254792" lon="12.880651138030824"><ele>1008.2</ele><time>2026-04-11T08:45:43.999Z</time></trkpt><trkpt lat="43.224649976298146" lon="12.88053716218796"><ele>1006.4</ele><time>2026-04-11T08:45:45.999Z</time></trkpt><trkpt lat="43.22461656351496" lon="12.880396101598588"><ele>1004.5999999999999</ele><time>2026-04-11T08:45:47.999Z</time></trkpt><trkpt lat="43.224550929154326" lon="12.880256006769493"><ele>1002.8</ele><time>2026-04-11T08:45:49.999Z</time></trkpt><trkpt lat="43.22450971835211" lon="12.880118121136926"><ele>1001.0</ele><time>2026-04-11T08:45:51.999Z</time></trkpt><trkpt lat="43.22448357329092" lon="12.879993944237444"><ele>1001.0</ele><time>2026-04-11T08:45:53.999Z</time></trkpt><trkpt lat="43.22442231432932" lon="12.879829160093147"><ele>1000.9999999999999</ele><time>2026-04-11T08:45:55.999Z</time></trkpt><trkpt lat="43.224386901636926" lon="12.879755779835635"><ele>1000.9999999999999</ele><time>2026-04-11T08:45:56.999Z</time></trkpt><trkpt lat="43.224314603286466" lon="12.879619147535815"><ele>1001.0</ele><time>2026-04-11T08:45:58.999Z</time></trkpt><trkpt lat="43.2242755029937" lon="12.879541361745398"><ele>1001.0</ele><time>2026-04-11T08:45:59.999Z</time></trkpt><trkpt lat="43.22423229813436" lon="12.879461742873062"><ele>1001.0000000000001</ele><time>2026-04-11T08:46:00.999Z</time></trkpt><trkpt lat="43.22420443901153" lon="12.879364772067428"><ele>1001.0</ele><time>2026-04-11T08:46:01.999Z</time></trkpt><trkpt lat="43.224196479187725" lon="12.879255992045335"><ele>1001.0</ele><time>2026-04-11T08:46:02.999Z</time></trkpt><trkpt lat="43.2241719563921" lon="12.879176391865801"><ele>1001.0</ele><time>2026-04-11T08:46:03.999Z</time></trkpt><trkpt lat="43.22414985168054" lon="12.879090333677933"><ele>1001.0000000000001</ele><time>2026-04-11T08:46:04.999Z</time></trkpt><trkpt lat="43.22409029624286" lon="12.878948883700689"><ele>1001.0</ele><time>2026-04-11T08:46:06.999Z</time></trkpt><trkpt lat="43.22404503044536" lon="12.87888012590033"><ele>1000.6666666666667</ele><time>2026-04-11T08:46:07.999Z</time></trkpt><trkpt lat="43.22400323796634" lon="12.87880390574682"><ele>1000.3333333333334</ele><time>2026-04-11T08:46:08.999Z</time></trkpt><trkpt lat="43.22395795314091" lon="12.87874085922373"><ele>1000.0</ele><time>2026-04-11T08:46:09.999Z</time></trkpt><trkpt lat="43.22386641689152" lon="12.87861373121628"><ele>999.6666666666667</ele><time>2026-04-11T08:46:11.999Z</time></trkpt><trkpt lat="43.223808435462985" lon="12.878549233285536"><ele>999.3333333333334</ele><time>2026-04-11T08:46:12.999Z</time></trkpt><trkpt lat="43.22375372829179" lon="12.878494168660378"><ele>999.0</ele><time>2026-04-11T08:46:13.999Z</time></trkpt><trkpt lat="43.22369514271657" lon="12.878446591854175"><ele>996.0</ele><time>2026-04-11T08:46:14.999Z</time></trkpt><trkpt lat="43.22360431800542" lon="12.878373737976503"><ele>993.0</ele><time>2026-04-11T08:46:16.999Z</time></trkpt><trkpt lat="43.2235247740499" lon="12.878328778538142"><ele>990.0</ele><time>2026-04-11T08:46:18.999Z</time></trkpt><trkpt lat="43.223467647623195" lon="12.878286289362382"><ele>987.0</ele><time>2026-04-11T08:46:23.999Z</time></trkpt><trkpt lat="43.22342495826303" lon="12.878219293901651"><ele>984.0</ele><time>2026-04-11T08:46:28.999Z</time></trkpt><trkpt lat="43.22335283441258" lon="12.878199518325602"><ele>981.0</ele><time>2026-04-11T08:46:32.999Z</time></trkpt><trkpt lat="43.2233039097174" lon="12.878136679248673"><ele>981.0</ele><time>2026-04-11T08:46:34.999Z</time></trkpt><trkpt lat="43.22325347420233" lon="12.878024557798325"><ele>981.0</ele><time>2026-04-11T08:46:36.999Z</time></trkpt><trkpt lat="43.22323936167645" lon="12.87791234960686"><ele>981.0</ele><time>2026-04-11T08:46:39.999Z</time></trkpt><trkpt lat="43.22321008048091" lon="12.877835027158861"><ele>981.0</ele><time>2026-04-11T08:46:41.999Z</time></trkpt><trkpt lat="43.22317341978169" lon="12.877719017038872"><ele>981.0</ele><time>2026-04-11T08:46:44.999Z</time></trkpt><trkpt lat="43.22316023836406" lon="12.877623719275263"><ele>981.0</ele><time>2026-04-11T08:46:47.999Z</time></trkpt><trkpt lat="43.223157186748935" lon="12.877494416897939"><ele>978.6666666666666</ele><time>2026-04-11T08:46:50.999Z</time></trkpt><trkpt lat="43.2231479182197" lon="12.877372679921336"><ele>976.3333333333333</ele><time>2026-04-11T08:46:52.999Z</time></trkpt><trkpt lat="43.22314059272726" lon="12.87725932236499"><ele>974.0</ele><time>2026-04-11T08:46:54.999Z</time></trkpt><trkpt lat="43.223138634863396" lon="12.877146893302713"><ele>971.6666666666666</ele><time>2026-04-11T08:46:56.999Z</time></trkpt><trkpt lat="43.22314019215182" lon="12.877023293178423"><ele>969.3333333333333</ele><time>2026-04-11T08:46:58.999Z</time></trkpt><trkpt lat="43.22315044345289" lon="12.87691422102586"><ele>967.0</ele><time>2026-04-11T08:47:00.999Z</time></trkpt><trkpt lat="43.22313625530294" lon="12.876790463445467"><ele>959.6</ele><time>2026-04-11T08:47:02.999Z</time></trkpt><trkpt lat="43.22313437718345" lon="12.876655962405856"><ele>952.2</ele><time>2026-04-11T08:47:04.999Z</time></trkpt><trkpt lat="43.22314251717692" lon="12.876513769780745"><ele>944.8</ele><time>2026-04-11T08:47:06.999Z</time></trkpt><trkpt lat="43.2231308893394" lon="12.876382012933792"><ele>937.4</ele><time>2026-04-11T08:47:08.999Z</time></trkpt><trkpt lat="43.22310941452443" lon="12.87627419027174"><ele>930.0</ele><time>2026-04-11T08:47:11Z</time></trkpt><trkpt lat="43.223100761127355" lon="12.876164521900497"><ele>930.0</ele><time>2026-04-11T08:47:13Z</time></trkpt><trkpt lat="43.22309221397845" lon="12.876018467197738"><ele>930.0</ele><time>2026-04-11T08:47:15Z</time></trkpt><trkpt lat="43.22312977045258" lon="12.875910934222073"><ele>930.0</ele><time>2026-04-11T08:47:17Z</time></trkpt><trkpt lat="43.22320825499959" lon="12.87580950209677"><ele>930.0</ele><time>2026-04-11T08:47:19Z</time></trkpt><trkpt lat="43.22331192321739" lon="12.875728420677598"><ele>930.0</ele><time>2026-04-11T08:47:21Z</time></trkpt><trkpt lat="43.22342304901866" lon="12.875681625288927"><ele>928.0</ele><time>2026-04-11T08:47:23Z</time></trkpt><trkpt lat="43.22352958904725" lon="12.875611204832197"><ele>926.0</ele><time>2026-04-11T08:47:25Z</time></trkpt><trkpt lat="43.223627438356814" lon="12.87554129377319"><ele>924.0</ele><time>2026-04-11T08:47:27Z</time></trkpt><trkpt lat="43.223714522493296" lon="12.87548923241463"><ele>922.0</ele><time>2026-04-11T08:47:29Z</time></trkpt><trkpt lat="43.223813246440955" lon="12.875457797264364"><ele>920.0</ele><time>2026-04-11T08:47:31Z</time></trkpt><trkpt lat="43.22391969119658" lon="12.875413624948143"><ele>918.0</ele><time>2026-04-11T08:47:33Z</time></trkpt><trkpt lat="43.22404764117911" lon="12.875360047840426"><ele>916.0</ele><time>2026-04-11T08:47:35Z</time></trkpt><trkpt lat="43.22412097186616" lon="12.875328712529871"><ele>914.0</ele><time>2026-04-11T08:47:36Z</time></trkpt><trkpt lat="43.22418697185639" lon="12.875297805149094"><ele>912.0</ele><time>2026-04-11T08:47:37Z</time></trkpt><trkpt lat="43.224252620897516" lon="12.87526261231018"><ele>910.0</ele><time>2026-04-11T08:47:38Z</time></trkpt><trkpt lat="43.22437079983237" lon="12.87524785562848"><ele>909.9999999999999</ele><time>2026-04-11T08:47:40Z</time></trkpt><trkpt lat="43.224499884868706" lon="12.875266459987442"><ele>910.0</ele><time>2026-04-11T08:47:42Z</time></trkpt><trkpt lat="43.22456479088114" lon="12.875278999191835"><ele>910.0</ele><time>2026-04-11T08:47:43Z</time></trkpt><trkpt lat="43.224632258060026" lon="12.875292390968303"><ele>910.0</ele><time>2026-04-11T08:47:44Z</time></trkpt><trkpt lat="43.22470409789253" lon="12.875285968860588"><ele>909.9999999999999</ele><time>2026-04-11T08:47:45Z</time></trkpt><trkpt lat="43.224772410842995" lon="12.875289728647884"><ele>910.0</ele><time>2026-04-11T08:47:46Z</time></trkpt><trkpt lat="43.22490071958852" lon="12.875319305840877"><ele>906.2</ele><time>2026-04-11T08:47:48Z</time></trkpt><trkpt lat="43.22497231860486" lon="12.875339831779998"><ele>902.4</ele><time>2026-04-11T08:47:49Z</time></trkpt><trkpt lat="43.22509692260714" lon="12.875353463389896"><ele>898.5999999999999</ele><time>2026-04-11T08:47:51Z</time></trkpt><trkpt lat="43.22517590604731" lon="12.875352625945217"><ele>894.8</ele><time>2026-04-11T08:47:52Z</time></trkpt><trkpt lat="43.225257461085654" lon="12.875352691450564"><ele>891.0</ele><time>2026-04-11T08:47:53Z</time></trkpt><trkpt lat="43.22535399828396" lon="12.875356409082094"><ele>891.0</ele><time>2026-04-11T08:47:54Z</time></trkpt><trkpt lat="43.2254411938249" lon="12.875367386734762"><ele>891.0</ele><time>2026-04-11T08:47:55Z</time></trkpt><trkpt lat="43.22552831667796" lon="12.875376287031639"><ele>891.0</ele><time>2026-04-11T08:47:56Z</time></trkpt><trkpt lat="43.22559765424662" lon="12.875385950209893"><ele>891.0</ele><time>2026-04-11T08:47:57Z</time></trkpt><trkpt lat="43.22566389807315" lon="12.87538791121746"><ele>891.0</ele><time>2026-04-11T08:47:58Z</time></trkpt><trkpt lat="43.22573316442001" lon="12.875399078545462"><ele>891.0</ele><time>2026-04-11T08:47:59Z</time></trkpt><trkpt lat="43.22584914159968" lon="12.875387051857665"><ele>887.8</ele><time>2026-04-11T08:48:01Z</time></trkpt><trkpt lat="43.225918939898364" lon="12.875389487076216"><ele>884.5999999999999</ele><time>2026-04-11T08:48:02Z</time></trkpt><trkpt lat="43.22599224337882" lon="12.875392969229575"><ele>881.4</ele><time>2026-04-11T08:48:03Z</time></trkpt><trkpt lat="43.226112294902734" lon="12.87540550745467"><ele>878.2</ele><time>2026-04-11T08:48:05Z</time></trkpt><trkpt lat="43.22621808957274" lon="12.875400646758754"><ele>875.0</ele><time>2026-04-11T08:48:07Z</time></trkpt><trkpt lat="43.226329726314916" lon="12.875403540014073"><ele>875.0</ele><time>2026-04-11T08:48:09Z</time></trkpt><trkpt lat="43.226393327948934" lon="12.875403803145604"><ele>875.0</ele><time>2026-04-11T08:48:10Z</time></trkpt><trkpt lat="43.226644521849046" lon="12.8753902496617"><ele>875.0</ele><time>2026-04-11T08:48:17Z</time></trkpt><trkpt lat="43.22670718307516" lon="12.875413144293926"><ele>875.0</ele><time>2026-04-11T08:48:20Z</time></trkpt><trkpt lat="43.22677331538511" lon="12.875421220340318"><ele>875.0</ele><time>2026-04-11T08:48:25Z</time></trkpt><trkpt lat="43.226810535448124" lon="12.875493220840063"><ele>871.5000000000001</ele><time>2026-04-11T08:48:36Z</time></trkpt><trkpt lat="43.226872316268455" lon="12.87552261276696"><ele>868.0</ele><time>2026-04-11T08:48:43Z</time></trkpt><trkpt lat="43.22703592906189" lon="12.875568827709522"><ele>864.5</ele><time>2026-04-11T08:49:03Z</time></trkpt><trkpt lat="43.227074041174596" lon="12.875644416392499"><ele>861.0</ele><time>2026-04-11T08:49:12Z</time></trkpt><trkpt lat="43.227135242538594" lon="12.875667409137861"><ele>857.5000000000001</ele><time>2026-04-11T08:50:05Z</time></trkpt><trkpt lat="43.22721233184996" lon="12.87570574344415"><ele>854.0</ele><time>2026-04-11T08:50:10Z</time></trkpt><trkpt lat="43.227277879516635" lon="12.87570527441939"><ele>848.8000000000001</ele><time>2026-04-11T08:50:13Z</time></trkpt><trkpt lat="43.22735020937424" lon="12.875695777505074"><ele>843.6000000000001</ele><time>2026-04-11T08:50:26Z</time></trkpt><trkpt lat="43.227428496474474" lon="12.875709246859987"><ele>838.4</ele><time>2026-04-11T08:51:29Z</time></trkpt><trkpt lat="43.22750461141175" lon="12.875726819486221"><ele>833.2</ele><time>2026-04-11T08:51:32Z</time></trkpt><trkpt lat="43.22759883314776" lon="12.87574346434778"><ele>828.0</ele><time>2026-04-11T08:51:35Z</time></trkpt><trkpt lat="43.227849114299445" lon="12.87572884039955"><ele>828.0</ele><time>2026-04-11T08:51:42Z</time></trkpt><trkpt lat="43.227921290359404" lon="12.87572672572275"><ele>828.0</ele><time>2026-04-11T08:51:44Z</time></trkpt><trkpt lat="43.228046915817764" lon="12.87571534189366"><ele>828.0</ele><time>2026-04-11T08:51:48Z</time></trkpt><trkpt lat="43.228125848180476" lon="12.875703061135987"><ele>828.0</ele><time>2026-04-11T08:51:50Z</time></trkpt><trkpt lat="43.22822077020688" lon="12.875700726966265"><ele>828.0</ele><time>2026-04-11T08:51:52Z</time></trkpt><trkpt lat="43.22831127466942" lon="12.87570084273591"><ele>822.2</ele><time>2026-04-11T08:51:54Z</time></trkpt><trkpt lat="43.22839396922686" lon="12.875683640150829"><ele>816.4</ele><time>2026-04-11T08:51:56Z</time></trkpt><trkpt lat="43.22848624768817" lon="12.87566862368526"><ele>810.6</ele><time>2026-04-11T08:51:58Z</time></trkpt><trkpt lat="43.22857795766285" lon="12.875641214614232"><ele>804.8000000000001</ele><time>2026-04-11T08:52:00Z</time></trkpt><trkpt lat="43.22867575812341" lon="12.875614421996499"><ele>799.0</ele><time>2026-04-11T08:52:02Z</time></trkpt><trkpt lat="43.22878997323179" lon="12.875575200435678"><ele>799.0</ele><time>2026-04-11T08:52:04Z</time></trkpt><trkpt lat="43.22892032325663" lon="12.875536730898292"><ele>799.0</ele><time>2026-04-11T08:52:06Z</time></trkpt><trkpt lat="43.2289934243307" lon="12.875506893929662"><ele>799.0</ele><time>2026-04-11T08:52:07Z</time></trkpt><trkpt lat="43.22906130987124" lon="12.875478345396164"><ele>799.0</ele><time>2026-04-11T08:52:08Z</time></trkpt><trkpt lat="43.22916840079069" lon="12.875438987266149"><ele>799.0</ele><time>2026-04-11T08:52:10Z</time></trkpt><trkpt lat="43.229227289204644" lon="12.875390355910305"><ele>793.6666666666666</ele><time>2026-04-11T08:52:11Z</time></trkpt><trkpt lat="43.22932234445586" lon="12.875345708900866"><ele>788.3333333333333</ele><time>2026-04-11T08:52:13Z</time></trkpt><trkpt lat="43.229383268690505" lon="12.875323377076171"><ele>783.0</ele><time>2026-04-11T08:52:14Z</time></trkpt><trkpt lat="43.22944497369855" lon="12.875298698041416"><ele>777.6666666666666</ele><time>2026-04-11T08:52:15Z</time></trkpt><trkpt lat="43.22951137334981" lon="12.875282616833067"><ele>772.3333333333333</ele><time>2026-04-11T08:52:16Z</time></trkpt><trkpt lat="43.229637602437606" lon="12.875233350234573"><ele>767.0</ele><time>2026-04-11T08:52:18Z</time></trkpt><trkpt lat="43.229719733721666" lon="12.875206366819512"><ele>767.0</ele><time>2026-04-11T08:52:19Z</time></trkpt><trkpt lat="43.22979004878846" lon="12.875174192335686"><ele>767.0</ele><time>2026-04-11T08:52:20Z</time></trkpt><trkpt lat="43.22985712467973" lon="12.875143066482945"><ele>767.0</ele><time>2026-04-11T08:52:21Z</time></trkpt><trkpt lat="43.22993426769757" lon="12.875117585425382"><ele>767.0</ele><time>2026-04-11T08:52:22Z</time></trkpt><trkpt lat="43.230009541723156" lon="12.87509859204901"><ele>767.0</ele><time>2026-04-11T08:52:23Z</time></trkpt><trkpt lat="43.230076262419324" lon="12.87507323567482"><ele>767.0</ele><time>2026-04-11T08:52:24Z</time></trkpt><trkpt lat="43.23012639359813" lon="12.87501606839557"><ele>767.0</ele><time>2026-04-11T08:52:25Z</time></trkpt><trkpt lat="43.230240496416805" lon="12.874926514099476"><ele>763.0</ele><time>2026-04-11T08:52:27Z</time></trkpt><trkpt lat="43.23030090088313" lon="12.874893120024355"><ele>759.0</ele><time>2026-04-11T08:52:28Z</time></trkpt><trkpt lat="43.23039608908496" lon="12.874826711590847"><ele>755.0</ele><time>2026-04-11T08:52:30Z</time></trkpt><trkpt lat="43.23049684527281" lon="12.874772793745967"><ele>751.0</ele><time>2026-04-11T08:52:32Z</time></trkpt><trkpt lat="43.23055954989207" lon="12.87474373598832"><ele>747.0</ele><time>2026-04-11T08:52:33Z</time></trkpt><trkpt lat="43.230649880362286" lon="12.874636005817045"><ele>741.3333333333334</ele><time>2026-04-11T08:52:35Z</time></trkpt><trkpt lat="43.2307384984971" lon="12.874590046685059"><ele>735.6666666666666</ele><time>2026-04-11T08:52:37Z</time></trkpt><trkpt lat="43.23081316526818" lon="12.874571134729003"><ele>730.0</ele><time>2026-04-11T08:52:40Z</time></trkpt><trkpt lat="43.23086918252243" lon="12.874517538521859"><ele>724.3333333333333</ele><time>2026-04-11T08:52:54Z</time></trkpt><trkpt lat="43.230955855508086" lon="12.874492851411482"><ele>718.6666666666666</ele><time>2026-04-11T08:54:24Z</time></trkpt><trkpt lat="43.23105227369398" lon="12.874484457162032"><ele>713.0</ele><time>2026-04-11T08:54:27Z</time></trkpt><trkpt lat="43.23116211554401" lon="12.874490315468776"><ele>713.0</ele><time>2026-04-11T08:54:29Z</time></trkpt><trkpt lat="43.23123970013373" lon="12.874492864312518"><ele>713.0</ele><time>2026-04-11T08:54:30Z</time></trkpt><trkpt lat="43.23130764508762" lon="12.87449549604526"><ele>713.0</ele><time>2026-04-11T08:54:31Z</time></trkpt><trkpt lat="43.23141795788695" lon="12.874511599531521"><ele>713.0</ele><time>2026-04-11T08:54:33Z</time></trkpt><trkpt lat="43.23148905222785" lon="12.874526658975755"><ele>713.0</ele><time>2026-04-11T08:54:34Z</time></trkpt><trkpt lat="43.23157344192684" lon="12.87454452324498"><ele>713.0</ele><time>2026-04-11T08:54:35Z</time></trkpt><trkpt lat="43.23165506717458" lon="12.874553362533835"><ele>709.5</ele><time>2026-04-11T08:54:36Z</time></trkpt><trkpt lat="43.23173442563637" lon="12.87455140405339"><ele>706.0</ele><time>2026-04-11T08:54:37Z</time></trkpt><trkpt lat="43.23181664122758" lon="12.874540711031848"><ele>702.5</ele><time>2026-04-11T08:54:38Z</time></trkpt><trkpt lat="43.23190201232734" lon="12.874536549257325"><ele>699.0</ele><time>2026-04-11T08:54:39Z</time></trkpt><trkpt lat="43.23198461038278" lon="12.87454694064119"><ele>695.5</ele><time>2026-04-11T08:54:40Z</time></trkpt><trkpt lat="43.23205497723241" lon="12.874543749946726"><ele>692.0</ele><time>2026-04-11T08:54:41Z</time></trkpt><trkpt lat="43.23213358415336" lon="12.874524311637925"><ele>692.0</ele><time>2026-04-11T08:54:43Z</time></trkpt><trkpt lat="43.232132256557485" lon="12.874431020304486"><ele>692.0</ele><time>2026-04-11T08:54:46Z</time></trkpt><trkpt lat="43.232070283882976" lon="12.874345317736"><ele>692.0</ele><time>2026-04-11T08:54:48Z</time></trkpt><trkpt lat="43.232000750302774" lon="12.874199006329"><ele>692.0</ele><time>2026-04-11T08:54:50Z</time></trkpt><trkpt lat="43.23196378824573" lon="12.87412190308648"><ele>692.0</ele><time>2026-04-11T08:54:51Z</time></trkpt><trkpt lat="43.23193244899824" lon="12.874042875653275"><ele>692.0</ele><time>2026-04-11T08:54:52Z</time></trkpt><trkpt lat="43.231896715730805" lon="12.873957988111972"><ele>691.4285714285714</ele><time>2026-04-11T08:54:53Z</time></trkpt><trkpt lat="43.23185637657196" lon="12.873870980343172"><ele>690.8571428571429</ele><time>2026-04-11T08:54:54Z</time></trkpt><trkpt lat="43.231817517413155" lon="12.873787578830333"><ele>690.2857142857143</ele><time>2026-04-11T08:54:55Z</time></trkpt><trkpt lat="43.23177874779879" lon="12.873716997219969"><ele>689.7142857142858</ele><time>2026-04-11T08:54:56Z</time></trkpt><trkpt lat="43.231737636458455" lon="12.873641850160926"><ele>689.1428571428571</ele><time>2026-04-11T08:54:57Z</time></trkpt><trkpt lat="43.23169478744702" lon="12.873557268646449"><ele>688.5714285714287</ele><time>2026-04-11T08:54:58Z</time></trkpt><trkpt lat="43.231655389546184" lon="12.873476504205449"><ele>688.0</ele><time>2026-04-11T08:54:59Z</time></trkpt><trkpt lat="43.23161475679279" lon="12.873396092558137"><ele>688.0</ele><time>2026-04-11T08:55:00Z</time></trkpt><trkpt lat="43.231575212913995" lon="12.873310336330482"><ele>688.0</ele><time>2026-04-11T08:55:01Z</time></trkpt><trkpt lat="43.23153649471701" lon="12.873231272994923"><ele>688.0</ele><time>2026-04-11T08:55:02Z</time></trkpt><trkpt lat="43.23149695468358" lon="12.87314341696084"><ele>688.0</ele><time>2026-04-11T08:55:03Z</time></trkpt><trkpt lat="43.23145592707173" lon="12.873045984297686"><ele>688.0</ele><time>2026-04-11T08:55:04Z</time></trkpt><trkpt lat="43.23140623273864" lon="12.872942436260436"><ele>688.0</ele><time>2026-04-11T08:55:05Z</time></trkpt><trkpt lat="43.23135158685601" lon="12.872827895520924"><ele>688.3333333333334</ele><time>2026-04-11T08:55:06Z</time></trkpt><trkpt lat="43.231300336251856" lon="12.872729261291378"><ele>688.6666666666667</ele><time>2026-04-11T08:55:07Z</time></trkpt><trkpt lat="43.23124915911894" lon="12.872639933186504"><ele>689.0</ele><time>2026-04-11T08:55:08Z</time></trkpt><trkpt lat="43.231200509349726" lon="12.872543534770521"><ele>689.3333333333334</ele><time>2026-04-11T08:55:09Z</time></trkpt><trkpt lat="43.231146399103594" lon="12.872439500954103"><ele>689.6666666666666</ele><time>2026-04-11T08:55:10Z</time></trkpt><trkpt lat="43.231097003146125" lon="12.872333165998123"><ele>690.0</ele><time>2026-04-11T08:55:11Z</time></trkpt><trkpt lat="43.231051982244715" lon="12.872245354285742"><ele>690.0</ele><time>2026-04-11T08:55:12Z</time></trkpt><trkpt lat="43.23101150897549" lon="12.872165782782373"><ele>690.0</ele><time>2026-04-11T08:55:13Z</time></trkpt><trkpt lat="43.230964842443505" lon="12.872072141609822"><ele>690.0</ele><time>2026-04-11T08:55:14Z</time></trkpt><trkpt lat="43.23092061418509" lon="12.871969793439506"><ele>690.0</ele><time>2026-04-11T08:55:15Z</time></trkpt><trkpt lat="43.23087318141149" lon="12.871870696059544"><ele>690.0</ele><time>2026-04-11T08:55:16Z</time></trkpt><trkpt lat="43.230835238025406" lon="12.871782897844314"><ele>690.0</ele><time>2026-04-11T08:55:17Z</time></trkpt><trkpt lat="43.230804643414984" lon="12.871706662812759"><ele>688.8333333333334</ele><time>2026-04-11T08:55:18Z</time></trkpt><trkpt lat="43.230736832390896" lon="12.871579125706457"><ele>687.6666666666666</ele><time>2026-04-11T08:55:20Z</time></trkpt><trkpt lat="43.23069513635901" lon="12.871497783480006"><ele>686.5</ele><time>2026-04-11T08:55:21Z</time></trkpt><trkpt lat="43.230648395470034" lon="12.871399888441841"><ele>685.3333333333333</ele><time>2026-04-11T08:55:22Z</time></trkpt><trkpt lat="43.230603033193546" lon="12.871298857738688"><ele>684.1666666666666</ele><time>2026-04-11T08:55:23Z</time></trkpt><trkpt lat="43.23056383243763" lon="12.87119579050755"><ele>683.0</ele><time>2026-04-11T08:55:24Z</time></trkpt><trkpt lat="43.2305175604004" lon="12.871093365255092"><ele>683.0</ele><time>2026-04-11T08:55:25Z</time></trkpt><trkpt lat="43.230472405120224" lon="12.870992529135764"><ele>683.0</ele><time>2026-04-11T08:55:26Z</time></trkpt><trkpt lat="43.230416758475634" lon="12.87086842963872"><ele>683.0</ele><time>2026-04-11T08:55:27Z</time></trkpt><trkpt lat="43.23038119868418" lon="12.870761874905153"><ele>683.0</ele><time>2026-04-11T08:55:28Z</time></trkpt><trkpt lat="43.23034198871225" lon="12.870661257293534"><ele>683.0</ele><time>2026-04-11T08:55:29Z</time></trkpt><trkpt lat="43.23029098757931" lon="12.870572140093207"><ele>683.0</ele><time>2026-04-11T08:55:30Z</time></trkpt><trkpt lat="43.23024230263584" lon="12.870475144360563"><ele>679.0</ele><time>2026-04-11T08:55:31Z</time></trkpt><trkpt lat="43.23020189237131" lon="12.870390066438214"><ele>675.0</ele><time>2026-04-11T08:55:32Z</time></trkpt><trkpt lat="43.230164462065325" lon="12.870300486123837"><ele>671.0</ele><time>2026-04-11T08:55:33Z</time></trkpt><trkpt lat="43.23013250861749" lon="12.870224441572969"><ele>667.0</ele><time>2026-04-11T08:55:34Z</time></trkpt><trkpt lat="43.23006626903214" lon="12.870090195340223"><ele>663.0</ele><time>2026-04-11T08:55:36Z</time></trkpt><trkpt lat="43.23002426819377" lon="12.869992840388894"><ele>659.0</ele><time>2026-04-11T08:55:37Z</time></trkpt><trkpt lat="43.2299860521615" lon="12.869909506205857"><ele>658.1666666666666</ele><time>2026-04-11T08:55:38Z</time></trkpt><trkpt lat="43.22994441110393" lon="12.86983485328233"><ele>657.3333333333333</ele><time>2026-04-11T08:55:39Z</time></trkpt><trkpt lat="43.2299020336919" lon="12.869768391743415"><ele>656.5</ele><time>2026-04-11T08:55:40Z</time></trkpt><trkpt lat="43.229819469738324" lon="12.86963333965447"><ele>655.6666666666666</ele><time>2026-04-11T08:55:42Z</time></trkpt><trkpt lat="43.229776754021216" lon="12.869552782932786"><ele>654.8333333333334</ele><time>2026-04-11T08:55:43Z</time></trkpt><trkpt lat="43.22973220436595" lon="12.869457134365494"><ele>654.0</ele><time>2026-04-11T08:55:44Z</time></trkpt><trkpt lat="43.229692525428455" lon="12.869372619358831"><ele>654.0</ele><time>2026-04-11T08:55:45Z</time></trkpt><trkpt lat="43.229656297142796" lon="12.869282388868848"><ele>654.0</ele><time>2026-04-11T08:55:46Z</time></trkpt><trkpt lat="43.22961368479297" lon="12.869190738146251"><ele>654.0</ele><time>2026-04-11T08:55:47Z</time></trkpt><trkpt lat="43.22956735665193" lon="12.869103902842081"><ele>654.0</ele><time>2026-04-11T08:55:48Z</time></trkpt><trkpt lat="43.229526408833415" lon="12.869015262732328"><ele>654.0</ele><time>2026-04-11T08:55:49Z</time></trkpt><trkpt lat="43.229485792588285" lon="12.86892630799578"><ele>654.0</ele><time>2026-04-11T08:55:50Z</time></trkpt><trkpt lat="43.22942789409711" lon="12.868791526709206"><ele>649.6666666666666</ele><time>2026-04-11T08:55:52Z</time></trkpt><trkpt lat="43.22934845455176" lon="12.868673750959408"><ele>645.3333333333334</ele><time>2026-04-11T08:55:54Z</time></trkpt><trkpt lat="43.2293076459667" lon="12.86860030203465"><ele>641.0</ele><time>2026-04-11T08:55:56Z</time></trkpt><trkpt lat="43.22937825031138" lon="12.868621886348818"><ele>636.6666666666667</ele><time>2026-04-11T08:56:00Z</time></trkpt><trkpt lat="43.22944333895253" lon="12.868644973072286"><ele>632.3333333333334</ele><time>2026-04-11T08:56:01Z</time></trkpt><trkpt lat="43.2295426601625" lon="12.868678564911075"><ele>628.0</ele><time>2026-04-11T08:56:02Z</time></trkpt><trkpt lat="43.22964916277005" lon="12.868720194620154"><ele>628.0</ele><time>2026-04-11T08:56:03Z</time></trkpt><trkpt lat="43.229760634450805" lon="12.868758337841731"><ele>628.0</ele><time>2026-04-11T08:56:04Z</time></trkpt><trkpt lat="43.22989715123836" lon="12.868777483467678"><ele>628.0</ele><time>2026-04-11T08:56:05Z</time></trkpt><trkpt lat="43.23001299374484" lon="12.868805539750827"><ele>628.0</ele><time>2026-04-11T08:56:06Z</time></trkpt><trkpt lat="43.230108935719095" lon="12.868856170926767"><ele>624.4</ele><time>2026-04-11T08:56:07Z</time></trkpt><trkpt lat="43.230187022591736" lon="12.868884181921011"><ele>620.8</ele><time>2026-04-11T08:56:08Z</time></trkpt><trkpt lat="43.23026162357508" lon="12.86891020247264"><ele>617.2</ele><time>2026-04-11T08:56:09Z</time></trkpt><trkpt lat="43.23032722444282" lon="12.868933371836498"><ele>613.6</ele><time>2026-04-11T08:56:10Z</time></trkpt><trkpt lat="43.23042236721141" lon="12.868960107369334"><ele>610.0</ele><time>2026-04-11T08:56:12Z</time></trkpt><trkpt lat="43.23045393562217" lon="12.868789625869281"><ele>610.0</ele><time>2026-04-11T08:56:16Z</time></trkpt><trkpt lat="43.23037150628365" lon="12.868724102937728"><ele>610.0</ele><time>2026-04-11T08:56:18Z</time></trkpt><trkpt lat="43.23031899683746" lon="12.86866420069281"><ele>610.0</ele><time>2026-04-11T08:56:19Z</time></trkpt><trkpt lat="43.23023950267074" lon="12.868600292525356"><ele>610.0</ele><time>2026-04-11T08:56:20Z</time></trkpt><trkpt lat="43.23016067763119" lon="12.868512394528492"><ele>610.0</ele><time>2026-04-11T08:56:21Z</time></trkpt><trkpt lat="43.23006760288542" lon="12.86843114153259"><ele>608.8</ele><time>2026-04-11T08:56:22Z</time></trkpt><trkpt lat="43.229985641537596" lon="12.868359590354721"><ele>607.6</ele><time>2026-04-11T08:56:23Z</time></trkpt><trkpt lat="43.22990490616855" lon="12.868285128177735"><ele>606.4</ele><time>2026-04-11T08:56:24Z</time></trkpt><trkpt lat="43.229817629838934" lon="12.868195775714883"><ele>605.2</ele><time>2026-04-11T08:56:25Z</time></trkpt><trkpt lat="43.229739490220474" lon="12.868109180585131"><ele>604.0</ele><time>2026-04-11T08:56:26Z</time></trkpt><trkpt lat="43.229651473781956" lon="12.868015753909095"><ele>604.0</ele><time>2026-04-11T08:56:27Z</time></trkpt><trkpt lat="43.22956848336193" lon="12.86791123980777"><ele>604.0</ele><time>2026-04-11T08:56:28Z</time></trkpt><trkpt lat="43.22948775007916" lon="12.867801790227892"><ele>604.0</ele><time>2026-04-11T08:56:29Z</time></trkpt><trkpt lat="43.229368448583415" lon="12.867652005502823"><ele>604.0</ele><time>2026-04-11T08:56:30Z</time></trkpt><trkpt lat="43.229277007556405" lon="12.867491870204503"><ele>601.75</ele><time>2026-04-11T08:56:31Z</time></trkpt><trkpt lat="43.22918442857508" lon="12.867354482791615"><ele>599.5</ele><time>2026-04-11T08:56:31.999Z</time></trkpt><trkpt lat="43.22909390888657" lon="12.867223183150394"><ele>597.25</ele><time>2026-04-11T08:56:32.999Z</time></trkpt><trkpt lat="43.22900994863162" lon="12.867101398029504"><ele>595.0</ele><time>2026-04-11T08:56:33.999Z</time></trkpt><trkpt lat="43.22893934143994" lon="12.866989735683195"><ele>595.0</ele><time>2026-04-11T08:56:34.999Z</time></trkpt><trkpt lat="43.22888042997015" lon="12.866886872125995"><ele>595.0</ele><time>2026-04-11T08:56:35.999Z</time></trkpt><trkpt lat="43.22882770096139" lon="12.866787781440452"><ele>595.0</ele><time>2026-04-11T08:56:36.999Z</time></trkpt><trkpt lat="43.228764816592765" lon="12.866658735083698"><ele>595.0</ele><time>2026-04-11T08:56:38.999Z</time></trkpt><trkpt lat="43.228726218257584" lon="12.866509824482707"><ele>595.0</ele><time>2026-04-11T08:56:40.999Z</time></trkpt><trkpt lat="43.22871644357595" lon="12.866296644998696"><ele>590.6</ele><time>2026-04-11T08:56:42.999Z</time></trkpt><trkpt lat="43.228731151161995" lon="12.866206729518932"><ele>586.2</ele><time>2026-04-11T08:56:43.999Z</time></trkpt><trkpt lat="43.228770071266766" lon="12.866106725530829"><ele>581.8</ele><time>2026-04-11T08:56:44.999Z</time></trkpt><trkpt lat="43.22877509366931" lon="12.865977699739728"><ele>577.4</ele><time>2026-04-11T08:56:45.999Z</time></trkpt><trkpt lat="43.228801925821756" lon="12.865830229012149"><ele>573.0</ele><time>2026-04-11T08:56:46.999Z</time></trkpt><trkpt lat="43.22881583371762" lon="12.86570004075126"><ele>571.6</ele><time>2026-04-11T08:56:47.999Z</time></trkpt><trkpt lat="43.22881720028076" lon="12.86558491452421"><ele>570.1999999999999</ele><time>2026-04-11T08:56:48.999Z</time></trkpt><trkpt lat="43.22883440477753" lon="12.865485372570927"><ele>568.8</ele><time>2026-04-11T08:56:49.999Z</time></trkpt><trkpt lat="43.22886500478147" lon="12.865347079532635"><ele>567.4</ele><time>2026-04-11T08:56:51.999Z</time></trkpt><trkpt lat="43.22882693362383" lon="12.865111897604054"><ele>566.0</ele><time>2026-04-11T08:56:53.999Z</time></trkpt><trkpt lat="43.22869636435438" lon="12.865084101838022"><ele>565.6</ele><time>2026-04-11T08:56:55.999Z</time></trkpt><trkpt lat="43.228593849858285" lon="12.865059126285878"><ele>565.2</ele><time>2026-04-11T08:56:56.999Z</time></trkpt><trkpt lat="43.22848755794117" lon="12.865031734909866"><ele>564.8</ele><time>2026-04-11T08:56:57.999Z</time></trkpt><trkpt lat="43.228379350234725" lon="12.864967732128875"><ele>564.4</ele><time>2026-04-11T08:56:58.999Z</time></trkpt><trkpt lat="43.228271675090426" lon="12.864899467168765"><ele>564.0</ele><time>2026-04-11T08:56:59.999Z</time></trkpt><trkpt lat="43.22815597849207" lon="12.864849309345885"><ele>563.8</ele><time>2026-04-11T08:57:00.999Z</time></trkpt><trkpt lat="43.22806074140161" lon="12.864787113820967"><ele>563.5999999999999</ele><time>2026-04-11T08:57:01.999Z</time></trkpt><trkpt lat="43.227968944825946" lon="12.86472528990157"><ele>563.4</ele><time>2026-04-11T08:57:02.999Z</time></trkpt><trkpt lat="43.227874973368166" lon="12.864659820104821"><ele>563.1999999999999</ele><time>2026-04-11T08:57:03.999Z</time></trkpt><trkpt lat="43.227782362075395" lon="12.864590455767729"><ele>563.0</ele><time>2026-04-11T08:57:04.999Z</time></trkpt><trkpt lat="43.22768758895484" lon="12.864516167253404"><ele>563.0</ele><time>2026-04-11T08:57:05.999Z</time></trkpt><trkpt lat="43.22759267130098" lon="12.864444977688098"><ele>563.0</ele><time>2026-04-11T08:57:06.999Z</time></trkpt><trkpt lat="43.22749709749248" lon="12.86437283249085"><ele>563.0</ele><time>2026-04-11T08:57:07.999Z</time></trkpt><trkpt lat="43.22739771184567" lon="12.86429815528882"><ele>563.0</ele><time>2026-04-11T08:57:08.999Z</time></trkpt><trkpt lat="43.227302563017275" lon="12.864229483213373"><ele>563.0</ele><time>2026-04-11T08:57:09.999Z</time></trkpt><trkpt lat="43.22721607190357" lon="12.864140426100034"><ele>562.4</ele><time>2026-04-11T08:57:10.999Z</time></trkpt><trkpt lat="43.22711935846886" lon="12.864066794425163"><ele>561.8</ele><time>2026-04-11T08:57:11.999Z</time></trkpt><trkpt lat="43.22702704678312" lon="12.863996514020101"><ele>561.2</ele><time>2026-04-11T08:57:12.999Z</time></trkpt><trkpt lat="43.226936146776914" lon="12.863927308358424"><ele>560.6</ele><time>2026-04-11T08:57:13.999Z</time></trkpt><trkpt lat="43.22685369975223" lon="12.86386379853753"><ele>560.0</ele><time>2026-04-11T08:57:14.999Z</time></trkpt><trkpt lat="43.226775986617035" lon="12.86380380576246"><ele>560.0</ele><time>2026-04-11T08:57:15.999Z</time></trkpt><trkpt lat="43.226705866665206" lon="12.863749674768435"><ele>560.0</ele><time>2026-04-11T08:57:16.999Z</time></trkpt><trkpt lat="43.22664020015829" lon="12.863723598598657"><ele>560.0</ele><time>2026-04-11T08:57:17.999Z</time></trkpt><trkpt lat="43.2265563086467" lon="12.863634243335145"><ele>560.0</ele><time>2026-04-11T08:57:19.999Z</time></trkpt><trkpt lat="43.226496170191744" lon="12.863568854244459"><ele>560.0</ele><time>2026-04-11T08:57:21.999Z</time></trkpt><trkpt lat="43.22668792468981" lon="12.863545438522278"><ele>560.0</ele><time>2026-04-11T08:57:26.999Z</time></trkpt><trkpt lat="43.22678318529326" lon="12.863538107841915"><ele>560.0</ele><time>2026-04-11T08:57:27.999Z</time></trkpt><trkpt lat="43.22688824052316" lon="12.863522729770327"><ele>560.0</ele><time>2026-04-11T08:57:28.999Z</time></trkpt><trkpt lat="43.22700079431505" lon="12.863515558987103"><ele>560.0</ele><time>2026-04-11T08:57:29.999Z</time></trkpt><trkpt lat="43.22710991528753" lon="12.863540386089577"><ele>560.0</ele><time>2026-04-11T08:57:30.999Z</time></trkpt><trkpt lat="43.22717220813759" lon="12.86345323608313"><ele>559.3333333333333</ele><time>2026-04-11T08:57:31.999Z</time></trkpt><trkpt lat="43.227521276894514" lon="12.86334247382394"><ele>558.6666666666666</ele><time>2026-04-11T08:57:33.999Z</time></trkpt><trkpt lat="43.22752311250614" lon="12.863234142511514"><ele>558.0</ele><time>2026-04-11T08:57:35.999Z</time></trkpt><trkpt lat="43.227523870280834" lon="12.863127353420124"><ele>558.0</ele><time>2026-04-11T08:57:36.999Z</time></trkpt><trkpt lat="43.22752361729484" lon="12.863009637111855"><ele>558.0</ele><time>2026-04-11T08:57:37.999Z</time></trkpt><trkpt lat="43.22752320042785" lon="12.862815665837903"><ele>558.0</ele><time>2026-04-11T08:57:38.999Z</time></trkpt><trkpt lat="43.227512308386366" lon="12.862667141439138"><ele>558.0</ele><time>2026-04-11T08:57:39.999Z</time></trkpt><trkpt lat="43.227524159945936" lon="12.862538350781792"><ele>558.0</ele><time>2026-04-11T08:57:40.999Z</time></trkpt><trkpt lat="43.22751330342475" lon="12.862423798775751"><ele>557.1999999999999</ele><time>2026-04-11T08:57:41.999Z</time></trkpt><trkpt lat="43.22754558751621" lon="12.862338307933884"><ele>556.4</ele><time>2026-04-11T08:57:42.999Z</time></trkpt><trkpt lat="43.22760787593853" lon="12.862309764978162"><ele>555.5999999999999</ele><time>2026-04-11T08:57:43.999Z</time></trkpt><trkpt lat="43.227695790599306" lon="12.862299586981926"><ele>554.8</ele><time>2026-04-11T08:57:44.999Z</time></trkpt><trkpt lat="43.22780997008932" lon="12.862282864101767"><ele>554.0</ele><time>2026-04-11T08:57:45.999Z</time></trkpt><trkpt lat="43.22793434809383" lon="12.862295091175804"><ele>554.0</ele><time>2026-04-11T08:57:46.999Z</time></trkpt><trkpt lat="43.22806191608777" lon="12.862290467833986"><ele>554.0</ele><time>2026-04-11T08:57:47.999Z</time></trkpt><trkpt lat="43.228180718158654" lon="12.862285443289261"><ele>554.0</ele><time>2026-04-11T08:57:48.999Z</time></trkpt><trkpt lat="43.228288753704454" lon="12.862354059667314"><ele>554.0</ele><time>2026-04-11T08:57:49.999Z</time></trkpt><trkpt lat="43.22839738342149" lon="12.862429709724982"><ele>554.25</ele><time>2026-04-11T08:57:50.999Z</time></trkpt><trkpt lat="43.228505863586186" lon="12.862512936235655"><ele>554.5</ele><time>2026-04-11T08:57:51.999Z</time></trkpt><trkpt lat="43.22862786074967" lon="12.862614175556942"><ele>554.75</ele><time>2026-04-11T08:57:52.999Z</time></trkpt><trkpt lat="43.22874172791153" lon="12.862695479330295"><ele>555.0</ele><time>2026-04-11T08:57:53.999Z</time></trkpt><trkpt lat="43.22885890942084" lon="12.862766386773801"><ele>556.0</ele><time>2026-04-11T08:57:54.999Z</time></trkpt><trkpt lat="43.22897464673099" lon="12.862829878819474"><ele>557.0</ele><time>2026-04-11T08:57:55.999Z</time></trkpt><trkpt lat="43.229075263643914" lon="12.862883142657724"><ele>558.0</ele><time>2026-04-11T08:57:56.999Z</time></trkpt><trkpt lat="43.22918167332761" lon="12.86293430735289"><ele>559.0</ele><time>2026-04-11T08:57:57.999Z</time></trkpt><trkpt lat="43.22928592708312" lon="12.862982569774442"><ele>559.0</ele><time>2026-04-11T08:57:58.999Z</time></trkpt><trkpt lat="43.22938321138171" lon="12.863022783150909"><ele>559.0</ele><time>2026-04-11T08:57:59.999Z</time></trkpt><trkpt lat="43.22947793339548" lon="12.863043954145905"><ele>559.0</ele><time>2026-04-11T08:58:00.999Z</time></trkpt><trkpt lat="43.229556733278095" lon="12.8630663158074"><ele>559.0</ele><time>2026-04-11T08:58:01.999Z</time></trkpt><trkpt lat="43.22963624039808" lon="12.86307226424865"><ele>559.0</ele><time>2026-04-11T08:58:02.999Z</time></trkpt><trkpt lat="43.229723408732255" lon="12.863078192341986"><ele>559.0</ele><time>2026-04-11T08:58:03.999Z</time></trkpt><trkpt lat="43.22980099138481" lon="12.863077221709483"><ele>558.5</ele><time>2026-04-11T08:58:04.999Z</time></trkpt><trkpt lat="43.229869407276304" lon="12.86306897514437"><ele>558.0</ele><time>2026-04-11T08:58:05.999Z</time></trkpt><trkpt lat="43.22989746808691" lon="12.862954953329844"><ele>557.5</ele><time>2026-04-11T08:58:07.999Z</time></trkpt><trkpt lat="43.229909281280065" lon="12.862866826570341"><ele>557.0</ele><time>2026-04-11T08:58:08.999Z</time></trkpt><trkpt lat="43.22991881297157" lon="12.862749699898892"><ele>556.5</ele><time>2026-04-11T08:58:09.999Z</time></trkpt><trkpt lat="43.22991980037373" lon="12.862640240351624"><ele>556.0</ele><time>2026-04-11T08:58:10.999Z</time></trkpt><trkpt lat="43.22991063762466" lon="12.862530316866835"><ele>555.8</ele><time>2026-04-11T08:58:11.999Z</time></trkpt><trkpt lat="43.22988548409377" lon="12.862407379435473"><ele>555.6</ele><time>2026-04-11T08:58:12.999Z</time></trkpt><trkpt lat="43.22987829745927" lon="12.862249147940265"><ele>555.4</ele><time>2026-04-11T08:58:13.999Z</time></trkpt><trkpt lat="43.22988089392013" lon="12.862115727120063"><ele>555.2</ele><time>2026-04-11T08:58:14.999Z</time></trkpt><trkpt lat="43.229895510537986" lon="12.86194777006751"><ele>555.0</ele><time>2026-04-11T08:58:15.999Z</time></trkpt><trkpt lat="43.22993715007815" lon="12.861786612805224"><ele>556.0</ele><time>2026-04-11T08:58:16.999Z</time></trkpt><trkpt lat="43.229990569800975" lon="12.861644704539042"><ele>557.0</ele><time>2026-04-11T08:58:17.999Z</time></trkpt><trkpt lat="43.23004563825522" lon="12.861500018736209"><ele>558.0</ele><time>2026-04-11T08:58:18.999Z</time></trkpt><trkpt lat="43.23009520046153" lon="12.861350324393147"><ele>559.0</ele><time>2026-04-11T08:58:19.999Z</time></trkpt><trkpt lat="43.230138077491496" lon="12.861179924039774"><ele>559.0</ele><time>2026-04-11T08:58:20.999Z</time></trkpt><trkpt lat="43.23016828309627" lon="12.861026558167135"><ele>559.0</ele><time>2026-04-11T08:58:21.999Z</time></trkpt><trkpt lat="43.230185991274645" lon="12.860884361833428"><ele>559.0</ele><time>2026-04-11T08:58:22.999Z</time></trkpt><trkpt lat="43.23019659804454" lon="12.860736437261497"><ele>559.0</ele><time>2026-04-11T08:58:23.999Z</time></trkpt><trkpt lat="43.23020289471278" lon="12.86059069587074"><ele>559.0</ele><time>2026-04-11T08:58:24.999Z</time></trkpt><trkpt lat="43.230206621610684" lon="12.860458578275722"><ele>560.5</ele><time>2026-04-11T08:58:25.999Z</time></trkpt><trkpt lat="43.230203248094" lon="12.860328291707246"><ele>562.0</ele><time>2026-04-11T08:58:26.999Z</time></trkpt><trkpt lat="43.23019404797787" lon="12.860237129440367"><ele>563.5</ele><time>2026-04-11T08:58:27.999Z</time></trkpt><trkpt lat="43.23018055613373" lon="12.860120840027573"><ele>565.0</ele><time>2026-04-11T08:58:28.999Z</time></trkpt><trkpt lat="43.23016582640687" lon="12.86000446203081"><ele>566.5</ele><time>2026-04-11T08:58:29.999Z</time></trkpt><trkpt lat="43.23014808580077" lon="12.859868241223612"><ele>568.0</ele><time>2026-04-11T08:58:30.999Z</time></trkpt><trkpt lat="43.2301316937021" lon="12.859735269899875"><ele>569.3333333333334</ele><time>2026-04-11T08:58:31.999Z</time></trkpt><trkpt lat="43.23011437712217" lon="12.859603589392705"><ele>570.6666666666667</ele><time>2026-04-11T08:58:32.999Z</time></trkpt><trkpt lat="43.230106016730296" lon="12.85949706945048"><ele>572.0</ele><time>2026-04-11T08:58:33.999Z</time></trkpt><trkpt lat="43.230093276652774" lon="12.85938207042003"><ele>573.3333333333334</ele><time>2026-04-11T08:58:34.999Z</time></trkpt><trkpt lat="43.23006430918877" lon="12.859279635917112"><ele>574.6666666666666</ele><time>2026-04-11T08:58:35.999Z</time></trkpt><trkpt lat="43.23002663986425" lon="12.859174343282138"><ele>576.0</ele><time>2026-04-11T08:58:36.999Z</time></trkpt><trkpt lat="43.230007036617074" lon="12.85904335372886"><ele>577.8333333333334</ele><time>2026-04-11T08:58:37.999Z</time></trkpt><trkpt lat="43.22996947473992" lon="12.858958995933833"><ele>579.6666666666666</ele><time>2026-04-11T08:58:38.999Z</time></trkpt><trkpt lat="43.229906406045835" lon="12.858904033632927"><ele>581.5</ele><time>2026-04-11T08:58:39.999Z</time></trkpt><trkpt lat="43.22987719239052" lon="12.858810563466083"><ele>583.3333333333333</ele><time>2026-04-11T08:58:40.999Z</time></trkpt><trkpt lat="43.22987672196135" lon="12.85869411995226"><ele>585.1666666666666</ele><time>2026-04-11T08:58:41.999Z</time></trkpt><trkpt lat="43.22987529471583" lon="12.85858141690219"><ele>587.0</ele><time>2026-04-11T08:58:42.999Z</time></trkpt><trkpt lat="43.22986677170215" lon="12.858455667620815"><ele>586.8000000000001</ele><time>2026-04-11T08:58:44.999Z</time></trkpt><trkpt lat="43.22983015304921" lon="12.858361186538586"><ele>586.6</ele><time>2026-04-11T08:58:45.999Z</time></trkpt><trkpt lat="43.22973371294006" lon="12.858333420254572"><ele>586.4000000000001</ele><time>2026-04-11T08:58:46.999Z</time></trkpt><trkpt lat="43.22966266059961" lon="12.858409135262953"><ele>586.2</ele><time>2026-04-11T08:58:48.999Z</time></trkpt><trkpt lat="43.22958585864136" lon="12.858564411554408"><ele>586.0</ele><time>2026-04-11T08:58:50.999Z</time></trkpt><trkpt lat="43.229513825416255" lon="12.858561002907267"><ele>586.0</ele><time>2026-04-11T08:58:51.999Z</time></trkpt><trkpt lat="43.22942924211888" lon="12.85856574741865"><ele>586.0</ele><time>2026-04-11T08:58:52.999Z</time></trkpt><trkpt lat="43.22933692398598" lon="12.858533515307085"><ele>586.0</ele><time>2026-04-11T08:58:53.999Z</time></trkpt><trkpt lat="43.229257418216186" lon="12.858480374774826"><ele>586.0</ele><time>2026-04-11T08:58:54.999Z</time></trkpt><trkpt lat="43.2291510311813" lon="12.858404075357681"><ele>586.0</ele><time>2026-04-11T08:58:55.999Z</time></trkpt><trkpt lat="43.22907492211385" lon="12.858298268622166"><ele>588.4</ele><time>2026-04-11T08:58:56.999Z</time></trkpt><trkpt lat="43.229015833747255" lon="12.858194542876413"><ele>590.8</ele><time>2026-04-11T08:58:57.999Z</time></trkpt><trkpt lat="43.22895711633856" lon="12.858090077454506"><ele>593.1999999999999</ele><time>2026-04-11T08:58:58.999Z</time></trkpt><trkpt lat="43.22889402443742" lon="12.858003443745787"><ele>595.6</ele><time>2026-04-11T08:58:59.999Z</time></trkpt><trkpt lat="43.228839115764515" lon="12.857952185287616"><ele>598.0</ele><time>2026-04-11T08:59:00.999Z</time></trkpt><trkpt lat="43.22874172588172" lon="12.857881172134249"><ele>598.0</ele><time>2026-04-11T08:59:02.999Z</time></trkpt><trkpt lat="43.22876100106662" lon="12.85778939611663"><ele>598.0</ele><time>2026-04-11T08:59:03.999Z</time></trkpt><trkpt lat="43.22878146408302" lon="12.857680491181938"><ele>598.0</ele><time>2026-04-11T08:59:05.999Z</time></trkpt><trkpt lat="43.22883526670426" lon="12.857618981092376"><ele>598.0</ele><time>2026-04-11T08:59:06.999Z</time></trkpt><trkpt lat="43.22890251253199" lon="12.857573067379041"><ele>598.0</ele><time>2026-04-11T08:59:07.999Z</time></trkpt><trkpt lat="43.22892660701347" lon="12.857486124073056"><ele>598.0</ele><time>2026-04-11T08:59:08.999Z</time></trkpt><trkpt lat="43.22894329019568" lon="12.857399503030095"><ele>598.0</ele><time>2026-04-11T08:59:09.999Z</time></trkpt><trkpt lat="43.22892531259416" lon="12.857280400950682"><ele>602.1999999999999</ele><time>2026-04-11T08:59:11.999Z</time></trkpt><trkpt lat="43.228879303314095" lon="12.857159164350788"><ele>606.4</ele><time>2026-04-11T08:59:13.999Z</time></trkpt><trkpt lat="43.22878808410116" lon="12.857041704103358"><ele>610.5999999999999</ele><time>2026-04-11T08:59:15.999Z</time></trkpt><trkpt lat="43.228734309607276" lon="12.856991607044412"><ele>614.8</ele><time>2026-04-11T08:59:16.999Z</time></trkpt><trkpt lat="43.22863107524249" lon="12.856902500866573"><ele>619.0</ele><time>2026-04-11T08:59:18.999Z</time></trkpt><trkpt lat="43.22856156343196" lon="12.856845231562293"><ele>621.4</ele><time>2026-04-11T08:59:19.999Z</time></trkpt><trkpt lat="43.22849012760284" lon="12.856771948727602"><ele>623.8</ele><time>2026-04-11T08:59:20.999Z</time></trkpt><trkpt lat="43.228397590437545" lon="12.856710076176277"><ele>626.2</ele><time>2026-04-11T08:59:21.999Z</time></trkpt><trkpt lat="43.22829027063075" lon="12.856682584041083"><ele>628.6</ele><time>2026-04-11T08:59:22.999Z</time></trkpt><trkpt lat="43.22818371034617" lon="12.856654718060442"><ele>631.0</ele><time>2026-04-11T08:59:23.999Z</time></trkpt><trkpt lat="43.228085354985915" lon="12.856629056684143"><ele>631.0</ele><time>2026-04-11T08:59:24.999Z</time></trkpt><trkpt lat="43.22800077751607" lon="12.856641503302415"><ele>631.0</ele><time>2026-04-11T08:59:25.999Z</time></trkpt><trkpt lat="43.227936018549514" lon="12.856625076240825"><ele>631.0</ele><time>2026-04-11T08:59:26.999Z</time></trkpt><trkpt lat="43.22777119881929" lon="12.856562634418383"><ele>631.0</ele><time>2026-04-11T08:59:28.999Z</time></trkpt><trkpt lat="43.227894285220934" lon="12.856406390456462"><ele>631.0</ele><time>2026-04-11T08:59:29.999Z</time></trkpt><trkpt lat="43.227990078763256" lon="12.856388861338178"><ele>631.0</ele><time>2026-04-11T08:59:31.999Z</time></trkpt><trkpt lat="43.22810884539423" lon="12.856325334068876"><ele>631.0</ele><time>2026-04-11T08:59:33.999Z</time></trkpt><trkpt lat="43.2281751157644" lon="12.856265300678437"><ele>631.0</ele><time>2026-04-11T08:59:34.999Z</time></trkpt><trkpt lat="43.22823574553779" lon="12.856196239900624"><ele>631.0</ele><time>2026-04-11T08:59:35.999Z</time></trkpt><trkpt lat="43.228286311797895" lon="12.85612263720262"><ele>631.8333333333334</ele><time>2026-04-11T08:59:36.999Z</time></trkpt><trkpt lat="43.22833267211163" lon="12.856041048297834"><ele>632.6666666666667</ele><time>2026-04-11T08:59:37.999Z</time></trkpt><trkpt lat="43.228377196882604" lon="12.855948113202878"><ele>633.5</ele><time>2026-04-11T08:59:38.999Z</time></trkpt><trkpt lat="43.22842050165209" lon="12.855851824583707"><ele>634.3333333333334</ele><time>2026-04-11T08:59:39.999Z</time></trkpt><trkpt lat="43.228459473332464" lon="12.855754941309494"><ele>635.1666666666666</ele><time>2026-04-11T08:59:40.999Z</time></trkpt><trkpt lat="43.22848868677963" lon="12.855676559704506"><ele>636.0</ele><time>2026-04-11T08:59:41.999Z</time></trkpt><trkpt lat="43.22853102743968" lon="12.855557170118416"><ele>640.0</ele><time>2026-04-11T08:59:43.999Z</time></trkpt><trkpt lat="43.22857696289395" lon="12.85546194544427"><ele>644.0</ele><time>2026-04-11T08:59:45.999Z</time></trkpt><trkpt lat="43.22869290205757" lon="12.855359690352527"><ele>648.0</ele><time>2026-04-11T08:59:47.999Z</time></trkpt><trkpt lat="43.22878549306761" lon="12.855308130303735"><ele>652.0</ele><time>2026-04-11T08:59:48.999Z</time></trkpt><trkpt lat="43.228868994749206" lon="12.855274076371886"><ele>656.0</ele><time>2026-04-11T08:59:49.999Z</time></trkpt><trkpt lat="43.22894434237497" lon="12.855250081777873"><ele>657.1666666666666</ele><time>2026-04-11T08:59:50.999Z</time></trkpt><trkpt lat="43.229012804548454" lon="12.855218761567935"><ele>658.3333333333333</ele><time>2026-04-11T08:59:51.999Z</time></trkpt><trkpt lat="43.22908614839783" lon="12.855166510117348"><ele>659.5</ele><time>2026-04-11T08:59:52.999Z</time></trkpt><trkpt lat="43.229145798748945" lon="12.855114189335922"><ele>660.6666666666666</ele><time>2026-04-11T08:59:53.999Z</time></trkpt><trkpt lat="43.22919955455705" lon="12.855054327444819"><ele>661.8333333333334</ele><time>2026-04-11T08:59:54.999Z</time></trkpt><trkpt lat="43.22923874434542" lon="12.854973563064334"><ele>663.0</ele><time>2026-04-11T08:59:55.999Z</time></trkpt><trkpt lat="43.229276178872205" lon="12.854820196246804"><ele>663.0</ele><time>2026-04-11T08:59:57.999Z</time></trkpt><trkpt lat="43.22930427359656" lon="12.854705731484398"><ele>663.0</ele><time>2026-04-11T08:59:59.999Z</time></trkpt><trkpt lat="43.22936742692441" lon="12.854667566335676"><ele>663.0</ele><time>2026-04-11T09:00:01.999Z</time></trkpt><trkpt lat="43.22942085741004" lon="12.854747436669367"><ele>663.0</ele><time>2026-04-11T09:00:03.999Z</time></trkpt><trkpt lat="43.22949584509374" lon="12.8548718586353"><ele>663.0</ele><time>2026-04-11T09:00:05.999Z</time></trkpt><trkpt lat="43.22956801901458" lon="12.854933149272712"><ele>663.0</ele><time>2026-04-11T09:00:06.999Z</time></trkpt><trkpt lat="43.22964225000759" lon="12.854949614277754"><ele>662.9999999999999</ele><time>2026-04-11T09:00:07.999Z</time></trkpt><trkpt lat="43.22971271568761" lon="12.854954841948187"><ele>663.0</ele><time>2026-04-11T09:00:08.999Z</time></trkpt><trkpt lat="43.229779506074145" lon="12.854961353962976"><ele>663.0</ele><time>2026-04-11T09:00:09.999Z</time></trkpt><trkpt lat="43.22984580531803" lon="12.85496955161471"><ele>663.0</ele><time>2026-04-11T09:00:10.999Z</time></trkpt><trkpt lat="43.22992004362809" lon="12.854978730916601"><ele>663.0</ele><time>2026-04-11T09:00:11.999Z</time></trkpt><trkpt lat="43.22999380289136" lon="12.854967817814266"><ele>662.9999999999999</ele><time>2026-04-11T09:00:12.999Z</time></trkpt><trkpt lat="43.23006752228425" lon="12.854993265098722"><ele>663.0</ele><time>2026-04-11T09:00:13.999Z</time></trkpt><trkpt lat="43.230140169439714" lon="12.855003593326563"><ele>664.8</ele><time>2026-04-11T09:00:14.999Z</time></trkpt><trkpt lat="43.23025022139441" lon="12.85504985012754"><ele>666.5999999999999</ele><time>2026-04-11T09:00:16.999Z</time></trkpt><trkpt lat="43.23032254505618" lon="12.855068926514237"><ele>668.4000000000001</ele><time>2026-04-11T09:00:17.999Z</time></trkpt><trkpt lat="43.23039629075775" lon="12.855236692671493"><ele>670.2</ele><time>2026-04-11T09:00:18.999Z</time></trkpt><trkpt lat="43.23049621856144" lon="12.85525858260533"><ele>672.0</ele><time>2026-04-11T09:00:19.999Z</time></trkpt><trkpt lat="43.23057971992696" lon="12.855272711942066"><ele>674.0</ele><time>2026-04-11T09:00:20.999Z</time></trkpt><trkpt lat="43.23065179831561" lon="12.855284908362792"><ele>676.0</ele><time>2026-04-11T09:00:21.999Z</time></trkpt><trkpt lat="43.230722202676624" lon="12.855296821513733"><ele>678.0</ele><time>2026-04-11T09:00:22.999Z</time></trkpt><trkpt lat="43.23079789090119" lon="12.855309628751849"><ele>680.0</ele><time>2026-04-11T09:00:23.999Z</time></trkpt><trkpt lat="43.23087495481572" lon="12.85532266876906"><ele>682.0</ele><time>2026-04-11T09:00:24.999Z</time></trkpt><trkpt lat="43.2309895259849" lon="12.854851437861806"><ele>682.0</ele><time>2026-04-11T09:00:25.999Z</time></trkpt><trkpt lat="43.231055667699565" lon="12.854825163907945"><ele>682.0</ele><time>2026-04-11T09:00:26.999Z</time></trkpt><trkpt lat="43.23111213215618" lon="12.854777857154081"><ele>682.0</ele><time>2026-04-11T09:00:27.999Z</time></trkpt><trkpt lat="43.23117275451707" lon="12.85472390524589"><ele>682.0</ele><time>2026-04-11T09:00:28.999Z</time></trkpt><trkpt lat="43.23124672548729" lon="12.854675487918781"><ele>682.0</ele><time>2026-04-11T09:00:29.999Z</time></trkpt><trkpt lat="43.23132220236795" lon="12.854648989626172"><ele>682.0</ele><time>2026-04-11T09:00:30.999Z</time></trkpt><trkpt lat="43.231395947411386" lon="12.854613249570765"><ele>682.0</ele><time>2026-04-11T09:00:31.999Z</time></trkpt><trkpt lat="43.23146066550366" lon="12.85455928108475"><ele>680.7142857142857</ele><time>2026-04-11T09:00:32.999Z</time></trkpt><trkpt lat="43.23151671927349" lon="12.854511503462877"><ele>679.4285714285714</ele><time>2026-04-11T09:00:33.999Z</time></trkpt><trkpt lat="43.23159481229603" lon="12.854473907499095"><ele>678.1428571428571</ele><time>2026-04-11T09:00:34.999Z</time></trkpt><trkpt lat="43.23167508945773" lon="12.854436911234496"><ele>676.8571428571429</ele><time>2026-04-11T09:00:35.999Z</time></trkpt><trkpt lat="43.231729534462964" lon="12.854389277999246"><ele>675.5714285714286</ele><time>2026-04-11T09:00:36.999Z</time></trkpt><trkpt lat="43.231773809203176" lon="12.854320791385115"><ele>674.2857142857143</ele><time>2026-04-11T09:00:37.999Z</time></trkpt><trkpt lat="43.23182064833838" lon="12.854258593666925"><ele>673.0</ele><time>2026-04-11T09:00:38.999Z</time></trkpt><trkpt lat="43.2318894385138" lon="12.854138488570634"><ele>678.5</ele><time>2026-04-11T09:00:40.999Z</time></trkpt><trkpt lat="43.23191800283662" lon="12.853988644653297"><ele>684.0</ele><time>2026-04-11T09:00:42.999Z</time></trkpt><trkpt lat="43.23193816456194" lon="12.853888811633377"><ele>689.5</ele><time>2026-04-11T09:00:43.999Z</time></trkpt><trkpt lat="43.23196792242168" lon="12.853797454132103"><ele>695.0</ele><time>2026-04-11T09:00:44.999Z</time></trkpt><trkpt lat="43.23199365148463" lon="12.85370527566242"><ele>700.5</ele><time>2026-04-11T09:00:45.999Z</time></trkpt><trkpt lat="43.23198992801009" lon="12.8535561889126"><ele>706.0</ele><time>2026-04-11T09:00:47.999Z</time></trkpt><trkpt lat="43.23192783104782" lon="12.85347016007641"><ele>706.0</ele><time>2026-04-11T09:00:49.999Z</time></trkpt><trkpt lat="43.231862824928385" lon="12.85352787394139"><ele>706.0</ele><time>2026-04-11T09:00:52.999Z</time></trkpt><trkpt lat="43.23181212811401" lon="12.853589924347592"><ele>706.0</ele><time>2026-04-11T09:00:53.999Z</time></trkpt><trkpt lat="43.23175302544243" lon="12.853649306407027"><ele>706.0</ele><time>2026-04-11T09:00:54.999Z</time></trkpt><trkpt lat="43.231701442178135" lon="12.853707518720253"><ele>706.0</ele><time>2026-04-11T09:00:55.999Z</time></trkpt><trkpt lat="43.231642555011526" lon="12.853751505705011"><ele>706.0</ele><time>2026-04-11T09:00:56.999Z</time></trkpt><trkpt lat="43.23157725294658" lon="12.853788169316488"><ele>706.0</ele><time>2026-04-11T09:00:57.999Z</time></trkpt><trkpt lat="43.23151580265385" lon="12.85381936059591"><ele>708.0</ele><time>2026-04-11T09:00:58.999Z</time></trkpt><trkpt lat="43.23145113409391" lon="12.853823478723507"><ele>710.0</ele><time>2026-04-11T09:00:59.999Z</time></trkpt><trkpt lat="43.231368831447845" lon="12.853805398753618"><ele>712.0</ele><time>2026-04-11T09:01:01.999Z</time></trkpt><trkpt lat="43.231261451266235" lon="12.85381284784802"><ele>714.0</ele><time>2026-04-11T09:01:03.999Z</time></trkpt><trkpt lat="43.23114080742474" lon="12.853793058512126"><ele>716.0</ele><time>2026-04-11T09:01:05.999Z</time></trkpt><trkpt lat="43.23107407925935" lon="12.853777025118552"><ele>718.0</ele><time>2026-04-11T09:01:06.999Z</time></trkpt><trkpt lat="43.23100730304308" lon="12.853780346779644"><ele>718.0</ele><time>2026-04-11T09:01:07.999Z</time></trkpt><trkpt lat="43.230943252425156" lon="12.853793185862424"><ele>718.0</ele><time>2026-04-11T09:01:08.999Z</time></trkpt><trkpt lat="43.23083540471741" lon="12.853835686174222"><ele>718.0</ele><time>2026-04-11T09:01:10.999Z</time></trkpt><trkpt lat="43.23074004779362" lon="12.853872112289713"><ele>718.0</ele><time>2026-04-11T09:01:12.999Z</time></trkpt><trkpt lat="43.23064766277738" lon="12.853910092742819"><ele>718.0</ele><time>2026-04-11T09:01:14.999Z</time></trkpt><trkpt lat="43.23055138404307" lon="12.853910533024262"><ele>715.8</ele><time>2026-04-11T09:01:16.999Z</time></trkpt><trkpt lat="43.23045849367623" lon="12.853866442448073"><ele>713.5999999999999</ele><time>2026-04-11T09:01:18.999Z</time></trkpt><trkpt lat="43.23038207606891" lon="12.85382715116879"><ele>711.4000000000001</ele><time>2026-04-11T09:01:20.999Z</time></trkpt><trkpt lat="43.23031394054957" lon="12.8537606462927"><ele>709.2</ele><time>2026-04-11T09:01:23Z</time></trkpt><trkpt lat="43.23027766820344" lon="12.853655834078275"><ele>707.0</ele><time>2026-04-11T09:01:25Z</time></trkpt><trkpt lat="43.230264172653406" lon="12.853514192413746"><ele>711.4000000000001</ele><time>2026-04-11T09:01:27Z</time></trkpt><trkpt lat="43.23026425786053" lon="12.85336938600245"><ele>715.8000000000001</ele><time>2026-04-11T09:01:29Z</time></trkpt><trkpt lat="43.23029475034693" lon="12.853215547632619"><ele>720.2</ele><time>2026-04-11T09:01:31Z</time></trkpt><trkpt lat="43.23031726261772" lon="12.85307648148592"><ele>724.6</ele><time>2026-04-11T09:01:33Z</time></trkpt><trkpt lat="43.2303466020745" lon="12.852975133661902"><ele>729.0</ele><time>2026-04-11T09:01:35Z</time></trkpt><trkpt lat="43.230386393666485" lon="12.85290409262433"><ele>729.0</ele><time>2026-04-11T09:01:37Z</time></trkpt><trkpt lat="43.23044015614891" lon="12.852800552740474"><ele>729.0</ele><time>2026-04-11T09:01:40Z</time></trkpt><trkpt lat="43.23046704953222" lon="12.85271594609859"><ele>729.0</ele><time>2026-04-11T09:01:42Z</time></trkpt><trkpt lat="43.23050665411289" lon="12.852633519964188"><ele>729.0</ele><time>2026-04-11T09:01:44Z</time></trkpt><trkpt lat="43.23054819791348" lon="12.852560708647125"><ele>729.0</ele><time>2026-04-11T09:01:47Z</time></trkpt><trkpt lat="43.23060286150531" lon="12.852455052111479"><ele>729.0</ele><time>2026-04-11T09:01:50Z</time></trkpt><trkpt lat="43.23065881580721" lon="12.852338361039177"><ele>734.4000000000001</ele><time>2026-04-11T09:01:52Z</time></trkpt><trkpt lat="43.23071631522692" lon="12.852194185241462"><ele>739.8</ele><time>2026-04-11T09:01:54Z</time></trkpt><trkpt lat="43.23077428863014" lon="12.852042384335963"><ele>745.2</ele><time>2026-04-11T09:01:56Z</time></trkpt><trkpt lat="43.23084088469528" lon="12.851899580260415"><ele>750.5999999999999</ele><time>2026-04-11T09:01:58Z</time></trkpt><trkpt lat="43.2308778893924" lon="12.851826329460172"><ele>756.0</ele><time>2026-04-11T09:01:59Z</time></trkpt><trkpt lat="43.230915218098104" lon="12.851756017687016"><ele>760.5999999999999</ele><time>2026-04-11T09:02:00Z</time></trkpt><trkpt lat="43.23095012867068" lon="12.851682330747947"><ele>765.2</ele><time>2026-04-11T09:02:01Z</time></trkpt><trkpt lat="43.2309835595413" lon="12.85160881719792"><ele>769.8</ele><time>2026-04-11T09:02:02Z</time></trkpt><trkpt lat="43.23105500397806" lon="12.851470930421721"><ele>774.4000000000001</ele><time>2026-04-11T09:02:04Z</time></trkpt><trkpt lat="43.231112657928826" lon="12.851340874476518"><ele>779.0</ele><time>2026-04-11T09:02:06Z</time></trkpt><trkpt lat="43.2311830295129" lon="12.851233191908534"><ele>779.0000000000001</ele><time>2026-04-11T09:02:08Z</time></trkpt><trkpt lat="43.231250563953395" lon="12.851137921987691"><ele>779.0</ele><time>2026-04-11T09:02:10Z</time></trkpt><trkpt lat="43.2313270141027" lon="12.851084017741982"><ele>779.0</ele><time>2026-04-11T09:02:12Z</time></trkpt><trkpt lat="43.231377187300424" lon="12.851017675227771"><ele>779.0</ele><time>2026-04-11T09:02:14Z</time></trkpt><trkpt lat="43.23140697701613" lon="12.850926487784331"><ele>779.0000000000001</ele><time>2026-04-11T09:02:17Z</time></trkpt><trkpt lat="43.23141921822347" lon="12.85079990844687"><ele>779.0</ele><time>2026-04-11T09:02:20Z</time></trkpt><trkpt lat="43.23144205751218" lon="12.850682365700113"><ele>777.8333333333334</ele><time>2026-04-11T09:02:22Z</time></trkpt><trkpt lat="43.231472222502475" lon="12.850568106310135"><ele>776.6666666666667</ele><time>2026-04-11T09:02:24Z</time></trkpt><trkpt lat="43.23149754891989" lon="12.850453048547838"><ele>775.5</ele><time>2026-04-11T09:02:26Z</time></trkpt><trkpt lat="43.2314904470253" lon="12.850332044031349"><ele>774.3333333333333</ele><time>2026-04-11T09:02:28Z</time></trkpt><trkpt lat="43.231503923755696" lon="12.85023871949292"><ele>773.1666666666666</ele><time>2026-04-11T09:02:30Z</time></trkpt><trkpt lat="43.2315264994868" lon="12.850147201241436"><ele>772.0</ele><time>2026-04-11T09:02:32Z</time></trkpt><trkpt lat="43.23154854038113" lon="12.850064842664422"><ele>776.8</ele><time>2026-04-11T09:02:34Z</time></trkpt><trkpt lat="43.23158732080803" lon="12.849926953873924"><ele>781.6</ele><time>2026-04-11T09:02:36Z</time></trkpt><trkpt lat="43.23160884892924" lon="12.849837625185119"><ele>786.4</ele><time>2026-04-11T09:02:37Z</time></trkpt><trkpt lat="43.231645858891184" lon="12.849698378977234"><ele>791.1999999999999</ele><time>2026-04-11T09:02:39Z</time></trkpt><trkpt lat="43.23167155289281" lon="12.849590647015544"><ele>796.0</ele><time>2026-04-11T09:02:41Z</time></trkpt><trkpt lat="43.23170628407794" lon="12.849486280990552"><ele>795.9999999999999</ele><time>2026-04-11T09:02:43Z</time></trkpt><trkpt lat="43.2317467896706" lon="12.849394160509023"><ele>796.0</ele><time>2026-04-11T09:02:45Z</time></trkpt><trkpt lat="43.231767274997495" lon="12.849298596418642"><ele>796.0</ele><time>2026-04-11T09:02:50Z</time></trkpt><trkpt lat="43.231773884249414" lon="12.849196063405094"><ele>796.0</ele><time>2026-04-11T09:02:53Z</time></trkpt><trkpt lat="43.23180736907883" lon="12.849103927440465"><ele>795.9999999999999</ele><time>2026-04-11T09:02:56Z</time></trkpt><trkpt lat="43.23187368646333" lon="12.849014025503697"><ele>796.0</ele><time>2026-04-11T09:03:00Z</time></trkpt><trkpt lat="43.23193029863743" lon="12.84893993450583"><ele>800.75</ele><time>2026-04-11T09:03:04Z</time></trkpt><trkpt lat="43.23191255913107" lon="12.848851057914114"><ele>805.5</ele><time>2026-04-11T09:03:50Z</time></trkpt><trkpt lat="43.232078776214465" lon="12.848790255094857"><ele>810.25</ele><time>2026-04-11T09:04:05Z</time></trkpt><trkpt lat="43.23213631867192" lon="12.848524733295742"><ele>815.0</ele><time>2026-04-11T09:04:15Z</time></trkpt><trkpt lat="43.23220092346215" lon="12.848102639844528"><ele>825.0</ele><time>2026-04-11T09:04:20Z</time></trkpt><trkpt lat="43.232216804380464" lon="12.847691866150216"><ele>835.0</ele><time>2026-04-11T09:04:21Z</time></trkpt><trkpt lat="43.23222370869577" lon="12.847409623491341"><ele>836.6</ele><time>2026-04-11T09:04:22Z</time></trkpt><trkpt lat="43.23222636590927" lon="12.84719938889044"><ele>838.2</ele><time>2026-04-11T09:04:23Z</time></trkpt><trkpt lat="43.2322710067684" lon="12.847117906283795"><ele>839.8</ele><time>2026-04-11T09:04:25Z</time></trkpt><trkpt lat="43.232324635127576" lon="12.84707173696097"><ele>841.4</ele><time>2026-04-11T09:04:29Z</time></trkpt><trkpt lat="43.23231311598961" lon="12.846888220777137"><ele>843.0</ele><time>2026-04-11T09:04:31Z</time></trkpt><trkpt lat="43.232338464683295" lon="12.84679189360963"><ele>843.0</ele><time>2026-04-11T09:04:33Z</time></trkpt><trkpt lat="43.23238907563447" lon="12.846714009807767"><ele>843.0</ele><time>2026-04-11T09:04:35Z</time></trkpt><trkpt lat="43.232446163133226" lon="12.846676655348157"><ele>843.0</ele><time>2026-04-11T09:04:37Z</time></trkpt><trkpt lat="43.23250848592229" lon="12.84663945329613"><ele>843.0</ele><time>2026-04-11T09:04:39Z</time></trkpt><trkpt lat="43.23250922848675" lon="12.84654703695633"><ele>843.0</ele><time>2026-04-11T09:04:45Z</time></trkpt><trkpt lat="43.232471734312" lon="12.846472360881787"><ele>843.0</ele><time>2026-04-11T09:04:47Z</time></trkpt><trkpt lat="43.23241196385571" lon="12.846365006886398"><ele>843.0</ele><time>2026-04-11T09:04:49Z</time></trkpt><trkpt lat="43.23234762254548" lon="12.846280610531961"><ele>848.5999999999999</ele><time>2026-04-11T09:04:51Z</time></trkpt><trkpt lat="43.23228930114016" lon="12.846208566183918"><ele>854.1999999999999</ele><time>2026-04-11T09:04:54Z</time></trkpt><trkpt lat="43.23222525838784" lon="12.846150142218354"><ele>859.8</ele><time>2026-04-11T09:04:56Z</time></trkpt><trkpt lat="43.23212824392368" lon="12.846079243797917"><ele>865.4</ele><time>2026-04-11T09:04:58Z</time></trkpt><trkpt lat="43.23204225605277" lon="12.845988529193209"><ele>871.0</ele><time>2026-04-11T09:05:00Z</time></trkpt><trkpt lat="43.231989809971935" lon="12.845853761853945"><ele>873.8333333333333</ele><time>2026-04-11T09:05:02Z</time></trkpt><trkpt lat="43.23194964849257" lon="12.845779986628918"><ele>876.6666666666666</ele><time>2026-04-11T09:05:03Z</time></trkpt><trkpt lat="43.23190734698612" lon="12.845703287858683"><ele>879.5</ele><time>2026-04-11T09:05:04Z</time></trkpt><trkpt lat="43.231844485215795" lon="12.845586604839886"><ele>882.3333333333333</ele><time>2026-04-11T09:05:06Z</time></trkpt><trkpt lat="43.23180887451295" lon="12.845476903470376"><ele>885.1666666666666</ele><time>2026-04-11T09:05:08Z</time></trkpt><trkpt lat="43.23178338698334" lon="12.845329145120173"><ele>888.0</ele><time>2026-04-11T09:05:11Z</time></trkpt><trkpt lat="43.231790268766936" lon="12.845220431364732"><ele>888.0</ele><time>2026-04-11T09:05:13Z</time></trkpt><trkpt lat="43.23177922911056" lon="12.845134262631491"><ele>888.0</ele><time>2026-04-11T09:05:14Z</time></trkpt><trkpt lat="43.231771275142876" lon="12.845048209259751"><ele>888.0</ele><time>2026-04-11T09:05:15Z</time></trkpt><trkpt lat="43.2317469104943" lon="12.844960368506305"><ele>888.0</ele><time>2026-04-11T09:05:18Z</time></trkpt><trkpt lat="43.23165891554772" lon="12.84490829253007"><ele>888.0</ele><time>2026-04-11T09:05:21Z</time></trkpt><trkpt lat="43.231586904804594" lon="12.844912314962812"><ele>888.0</ele><time>2026-04-11T09:05:23Z</time></trkpt><trkpt lat="43.23152351887817" lon="12.844920420937028"><ele>888.0</ele><time>2026-04-11T09:05:25Z</time></trkpt><trkpt lat="43.23144615922443" lon="12.844909630762858"><ele>891.0</ele><time>2026-04-11T09:05:29Z</time></trkpt><trkpt lat="43.23147980993635" lon="12.844836040963507"><ele>894.0</ele><time>2026-04-11T09:05:34Z</time></trkpt><trkpt lat="43.23160932498875" lon="12.84481184813991"><ele>897.0</ele><time>2026-04-11T09:05:36Z</time></trkpt><trkpt lat="43.23165662251355" lon="12.844722980027964"><ele>900.0</ele><time>2026-04-11T09:05:37Z</time></trkpt><trkpt lat="43.23169469500632" lon="12.844645975786555"><ele>903.0</ele><time>2026-04-11T09:05:39Z</time></trkpt><trkpt lat="43.23171275229195" lon="12.844502720779415"><ele>906.0</ele><time>2026-04-11T09:05:42Z</time></trkpt><trkpt lat="43.231726918742" lon="12.84438752742799"><ele>907.5999999999999</ele><time>2026-04-11T09:05:43Z</time></trkpt><trkpt lat="43.23174158267315" lon="12.844274533151887"><ele>909.1999999999999</ele><time>2026-04-11T09:05:44Z</time></trkpt><trkpt lat="43.231755619478605" lon="12.844175680731288"><ele>910.8000000000001</ele><time>2026-04-11T09:05:45Z</time></trkpt><trkpt lat="43.23178219019368" lon="12.844015863922564"><ele>912.4000000000001</ele><time>2026-04-11T09:05:47Z</time></trkpt><trkpt lat="43.23181426142097" lon="12.843871847273492"><ele>914.0</ele><time>2026-04-11T09:05:49Z</time></trkpt><trkpt lat="43.23183561956228" lon="12.843769361017657"><ele>914.0</ele><time>2026-04-11T09:05:50Z</time></trkpt><trkpt lat="43.231857102064616" lon="12.843673236299722"><ele>914.0000000000001</ele><time>2026-04-11T09:05:51Z</time></trkpt><trkpt lat="43.23193497729116" lon="12.84353227720263"><ele>914.0000000000001</ele><time>2026-04-11T09:05:53Z</time></trkpt><trkpt lat="43.23199172020488" lon="12.843447636360729"><ele>914.0</ele><time>2026-04-11T09:05:54Z</time></trkpt><trkpt lat="43.23202847121573" lon="12.843330635177136"><ele>914.0</ele><time>2026-04-11T09:05:55Z</time></trkpt><trkpt lat="43.23205891207376" lon="12.843228479126946"><ele>918.8000000000001</ele><time>2026-04-11T09:05:56Z</time></trkpt><trkpt lat="43.232093703589506" lon="12.843081453378861"><ele>923.6000000000001</ele><time>2026-04-11T09:05:57Z</time></trkpt><trkpt lat="43.23212419134875" lon="12.842958160917894"><ele>928.4</ele><time>2026-04-11T09:05:58Z</time></trkpt><trkpt lat="43.232161170105186" lon="12.842837635483063"><ele>933.2</ele><time>2026-04-11T09:05:59Z</time></trkpt><trkpt lat="43.232210790619746" lon="12.842725357531567"><ele>938.0</ele><time>2026-04-11T09:06:00Z</time></trkpt><trkpt lat="43.23225994739201" lon="12.842618432191768"><ele>938.0000000000001</ele><time>2026-04-11T09:06:01Z</time></trkpt><trkpt lat="43.232299876879104" lon="12.842515106981793"><ele>938.0</ele><time>2026-04-11T09:06:02Z</time></trkpt><trkpt lat="43.23233596041771" lon="12.842406964917798"><ele>938.0</ele><time>2026-04-11T09:06:03Z</time></trkpt><trkpt lat="43.23236944691443" lon="12.84230322341608"><ele>938.0</ele><time>2026-04-11T09:06:04Z</time></trkpt><trkpt lat="43.232399039242566" lon="12.842213762689736"><ele>938.0000000000001</ele><time>2026-04-11T09:06:05Z</time></trkpt><trkpt lat="43.23244579226195" lon="12.842089540753314"><ele>938.0</ele><time>2026-04-11T09:06:06Z</time></trkpt><trkpt lat="43.23248754262347" lon="12.841968115244146"><ele>938.0000000000001</ele><time>2026-04-11T09:06:07Z</time></trkpt><trkpt lat="43.232544293558085" lon="12.84184868735923"><ele>938.0</ele><time>2026-04-11T09:06:08Z</time></trkpt><trkpt lat="43.23257201773928" lon="12.841758048212549"><ele>938.0</ele><time>2026-04-11T09:06:09Z</time></trkpt><trkpt lat="43.232599528292944" lon="12.841663599049994"><ele>938.0</ele><time>2026-04-11T09:06:10Z</time></trkpt><trkpt lat="43.232625758171686" lon="12.841560182097846"><ele>938.0000000000001</ele><time>2026-04-11T09:06:11Z</time></trkpt><trkpt lat="43.23265851682765" lon="12.841428807336351"><ele>938.0</ele><time>2026-04-11T09:06:12Z</time></trkpt><trkpt lat="43.23268430708944" lon="12.841310655695102"><ele>940.2</ele><time>2026-04-11T09:06:13Z</time></trkpt><trkpt lat="43.23271309258043" lon="12.841209731308162"><ele>942.4</ele><time>2026-04-11T09:06:14Z</time></trkpt><trkpt lat="43.23276405832641" lon="12.841069952367254"><ele>944.6000000000001</ele><time>2026-04-11T09:06:16Z</time></trkpt><trkpt lat="43.23280098105301" lon="12.840964743649998"><ele>946.8000000000001</ele><time>2026-04-11T09:06:18Z</time></trkpt><trkpt lat="43.232828654549444" lon="12.840832433116963"><ele>949.0</ele><time>2026-04-11T09:06:21Z</time></trkpt><trkpt lat="43.232866728753265" lon="12.840723560150687"><ele>948.1666666666666</ele><time>2026-04-11T09:06:24Z</time></trkpt><trkpt lat="43.23288890480884" lon="12.840582389689093"><ele>947.3333333333333</ele><time>2026-04-11T09:06:26Z</time></trkpt><trkpt lat="43.23293207333812" lon="12.840501263508278"><ele>946.5</ele><time>2026-04-11T09:06:27Z</time></trkpt><trkpt lat="43.232994781624164" lon="12.840454428978292"><ele>945.6666666666667</ele><time>2026-04-11T09:06:28Z</time></trkpt><trkpt lat="43.233060685814586" lon="12.840413679035034"><ele>944.8333333333334</ele><time>2026-04-11T09:06:29Z</time></trkpt><trkpt lat="43.23313369440627" lon="12.840339803865891"><ele>944.0</ele><time>2026-04-11T09:06:30Z</time></trkpt><trkpt lat="43.233199259080955" lon="12.840244253699973"><ele>944.0000000000001</ele><time>2026-04-11T09:06:31Z</time></trkpt><trkpt lat="43.23326258335737" lon="12.840167855767943"><ele>944.0</ele><time>2026-04-11T09:06:32Z</time></trkpt><trkpt lat="43.233317471980605" lon="12.840103160159776"><ele>944.0</ele><time>2026-04-11T09:06:33Z</time></trkpt><trkpt lat="43.23337165561369" lon="12.840027934291292"><ele>944.0</ele><time>2026-04-11T09:06:34Z</time></trkpt><trkpt lat="43.23343534786603" lon="12.83993408411941"><ele>944.0000000000001</ele><time>2026-04-11T09:06:35Z</time></trkpt><trkpt lat="43.23349126298797" lon="12.839866061941846"><ele>944.0</ele><time>2026-04-11T09:06:36Z</time></trkpt><trkpt lat="43.23357891886224" lon="12.83982355379651"><ele>942.8000000000001</ele><time>2026-04-11T09:06:38Z</time></trkpt><trkpt lat="43.23369814650751" lon="12.839718001792606"><ele>941.6000000000001</ele><time>2026-04-11T09:06:40Z</time></trkpt><trkpt lat="43.233759056212" lon="12.839675073793362"><ele>940.4</ele><time>2026-04-11T09:06:41Z</time></trkpt><trkpt lat="43.233820093269095" lon="12.83964416701155"><ele>939.2</ele><time>2026-04-11T09:06:42Z</time></trkpt><trkpt lat="43.23393999738383" lon="12.839540350934588"><ele>938.0</ele><time>2026-04-11T09:06:44Z</time></trkpt><trkpt lat="43.23402134573055" lon="12.83947297231157"><ele>938.0</ele><time>2026-04-11T09:06:46Z</time></trkpt><trkpt lat="43.23410116658486" lon="12.8394139494587"><ele>938.0</ele><time>2026-04-11T09:06:48Z</time></trkpt><trkpt lat="43.23419457713606" lon="12.839340693068486"><ele>938.0</ele><time>2026-04-11T09:06:50Z</time></trkpt><trkpt lat="43.23429386999864" lon="12.839279180597874"><ele>938.0</ele><time>2026-04-11T09:06:52Z</time></trkpt><trkpt lat="43.234360166151774" lon="12.83921454487076"><ele>938.0</ele><time>2026-04-11T09:06:54Z</time></trkpt><trkpt lat="43.234419781320966" lon="12.839147399279517"><ele>939.1666666666667</ele><time>2026-04-11T09:06:56Z</time></trkpt><trkpt lat="43.23446729687262" lon="12.839054279559804"><ele>940.3333333333334</ele><time>2026-04-11T09:06:58Z</time></trkpt><trkpt lat="43.23454831450876" lon="12.838978334480672"><ele>941.5</ele><time>2026-04-11T09:07:01Z</time></trkpt><trkpt lat="43.23462749978501" lon="12.838915196744276"><ele>942.6666666666667</ele><time>2026-04-11T09:07:04Z</time></trkpt><trkpt lat="43.23469167563161" lon="12.838870871847865"><ele>943.8333333333334</ele><time>2026-04-11T09:07:06Z</time></trkpt><trkpt lat="43.23475563448874" lon="12.838851590730275"><ele>945.0</ele><time>2026-04-11T09:07:08Z</time></trkpt><trkpt lat="43.234931760547624" lon="12.838784222126643"><ele>945.0</ele><time>2026-04-11T09:07:10Z</time></trkpt><trkpt lat="43.23500353918187" lon="12.838750628015616"><ele>945.0</ele><time>2026-04-11T09:07:13Z</time></trkpt><trkpt lat="43.235064113574765" lon="12.83870300986056"><ele>945.0</ele><time>2026-04-11T09:07:15Z</time></trkpt><trkpt lat="43.23513192141072" lon="12.838636519235608"><ele>945.0</ele><time>2026-04-11T09:07:17Z</time></trkpt><trkpt lat="43.235193496740244" lon="12.838604483713063"><ele>945.0</ele><time>2026-04-11T09:07:19Z</time></trkpt><trkpt lat="43.23529288959975" lon="12.838589517336437"><ele>945.0</ele><time>2026-04-11T09:07:22Z</time></trkpt><trkpt lat="43.23539908819358" lon="12.838584170376528"><ele>945.0</ele><time>2026-04-11T09:07:26Z</time></trkpt><trkpt lat="43.23546686327188" lon="12.838537201484778"><ele>945.0</ele><time>2026-04-11T09:07:29Z</time></trkpt><trkpt lat="43.23553720112154" lon="12.838500006113398"><ele>945.0</ele><time>2026-04-11T09:07:31Z</time></trkpt><trkpt lat="43.2356752501949" lon="12.838480211012033"><ele>945.0</ele><time>2026-04-11T09:07:33Z</time></trkpt><trkpt lat="43.235750258267075" lon="12.838459021823471"><ele>945.0</ele><time>2026-04-11T09:07:34Z</time></trkpt><trkpt lat="43.23581951393788" lon="12.8384272822848"><ele>945.0</ele><time>2026-04-11T09:07:35Z</time></trkpt><trkpt lat="43.23634225339341" lon="12.838201957456766"><ele>952.0</ele><time>2026-04-11T09:07:37Z</time></trkpt><trkpt lat="43.23641216079868" lon="12.838176346927531"><ele>959.0</ele><time>2026-04-11T09:07:38Z</time></trkpt><trkpt lat="43.236519761487095" lon="12.838123251977981"><ele>966.0</ele><time>2026-04-11T09:07:40Z</time></trkpt><trkpt lat="43.236581279058846" lon="12.838103855542581"><ele>973.0</ele><time>2026-04-11T09:07:41Z</time></trkpt><trkpt lat="43.23665515581934" lon="12.838097843195376"><ele>980.0</ele><time>2026-04-11T09:07:42Z</time></trkpt><trkpt lat="43.23680406839033" lon="12.838092115081423"><ele>982.0</ele><time>2026-04-11T09:07:46Z</time></trkpt><trkpt lat="43.23686528373556" lon="12.838060162136"><ele>984.0</ele><time>2026-04-11T09:07:49Z</time></trkpt><trkpt lat="43.236919511486654" lon="12.838011827202086"><ele>986.0</ele><time>2026-04-11T09:07:51Z</time></trkpt><trkpt lat="43.23698839509573" lon="12.837960348314493"><ele>988.0</ele><time>2026-04-11T09:07:54Z</time></trkpt><trkpt lat="43.2370558544539" lon="12.837928182117015"><ele>990.0</ele><time>2026-04-11T09:07:57Z</time></trkpt><trkpt lat="43.23720001650803" lon="12.837799586048279"><ele>990.0</ele><time>2026-04-11T09:07:58Z</time></trkpt><trkpt lat="43.23728396396687" lon="12.837730354650795"><ele>990.0</ele><time>2026-04-11T09:08:00Z</time></trkpt><trkpt lat="43.23738961340454" lon="12.837616112135544"><ele>990.0</ele><time>2026-04-11T09:08:01Z</time></trkpt><trkpt lat="43.23748689957986" lon="12.837512089994837"><ele>990.0</ele><time>2026-04-11T09:08:02Z</time></trkpt><trkpt lat="43.23755223193498" lon="12.837447684270957"><ele>990.0</ele><time>2026-04-11T09:08:03Z</time></trkpt><trkpt lat="43.23761799851384" lon="12.837390960746449"><ele>1001.0</ele><time>2026-04-11T09:08:04Z</time></trkpt><trkpt lat="43.2377029951184" lon="12.837327397068682"><ele>1012.0</ele><time>2026-04-11T09:08:06Z</time></trkpt><trkpt lat="43.23778589773859" lon="12.837263381288084"><ele>1023.0</ele><time>2026-04-11T09:08:08Z</time></trkpt><trkpt lat="43.237858864121776" lon="12.837141068717647"><ele>1034.0</ele><time>2026-04-11T09:08:10Z</time></trkpt><trkpt lat="43.23791397461359" lon="12.837097136679347"><ele>1045.0</ele><time>2026-04-11T09:08:11Z</time></trkpt><trkpt lat="43.238021555142275" lon="12.837039074369187"><ele>1048.8</ele><time>2026-04-11T09:08:13Z</time></trkpt><trkpt lat="43.23817205514563" lon="12.837013300336068"><ele>1052.6</ele><time>2026-04-11T09:08:16Z</time></trkpt><trkpt lat="43.2382712500245" lon="12.836984813894604"><ele>1056.4</ele><time>2026-04-11T09:08:18Z</time></trkpt><trkpt lat="43.23835924084336" lon="12.836972950085725"><ele>1060.2</ele><time>2026-04-11T09:08:20Z</time></trkpt><trkpt lat="43.238437108314194" lon="12.836955423589766"><ele>1064.0</ele><time>2026-04-11T09:08:22Z</time></trkpt><trkpt lat="43.23851210268991" lon="12.836938179436952"><ele>1064.0</ele><time>2026-04-11T09:08:23.999Z</time></trkpt><trkpt lat="43.23859096712255" lon="12.836918340851756"><ele>1064.0</ele><time>2026-04-11T09:08:26.999Z</time></trkpt><trkpt lat="43.2387043495651" lon="12.836918410782541"><ele>1064.0</ele><time>2026-04-11T09:08:29.999Z</time></trkpt><trkpt lat="43.238904289355084" lon="12.83690781514991"><ele>1064.0</ele><time>2026-04-11T09:08:36Z</time></trkpt><trkpt lat="43.23897423760405" lon="12.836892597967841"><ele>1068.75</ele><time>2026-04-11T09:08:40Z</time></trkpt><trkpt lat="43.23904783099322" lon="12.83688015763246"><ele>1073.5</ele><time>2026-04-11T09:08:45Z</time></trkpt><trkpt lat="43.23934231677547" lon="12.836880760029269"><ele>1078.25</ele><time>2026-04-11T09:09:09.999Z</time></trkpt><trkpt lat="43.239401605302604" lon="12.836918220338436"><ele>1083.0</ele><time>2026-04-11T09:09:11.999Z</time></trkpt><trkpt lat="43.23946723795989" lon="12.836964128210443"><ele>1083.0</ele><time>2026-04-11T09:09:13.999Z</time></trkpt><trkpt lat="43.239556110990605" lon="12.837000931692199"><ele>1083.0</ele><time>2026-04-11T09:09:15.999Z</time></trkpt><trkpt lat="43.23963566227755" lon="12.83705140704555"><ele>1083.0</ele><time>2026-04-11T09:09:17.999Z</time></trkpt><trkpt lat="43.239699010848696" lon="12.837107592383067"><ele>1083.0</ele><time>2026-04-11T09:09:19.999Z</time></trkpt><trkpt lat="43.23978204168079" lon="12.837171842545724"><ele>1083.0</ele><time>2026-04-11T09:09:21.999Z</time></trkpt><trkpt lat="43.23988838675503" lon="12.837255959089337"><ele>1087.5</ele><time>2026-04-11T09:09:23.999Z</time></trkpt><trkpt lat="43.23997678361354" lon="12.837321702523628"><ele>1092.0</ele><time>2026-04-11T09:09:25.999Z</time></trkpt><trkpt lat="43.24005575870516" lon="12.837373328434442"><ele>1096.5</ele><time>2026-04-11T09:09:27.999Z</time></trkpt><trkpt lat="43.240116085061324" lon="12.837412542581887"><ele>1101.0</ele><time>2026-04-11T09:09:29.999Z</time></trkpt><trkpt lat="43.24016767372654" lon="12.837480061799047"><ele>1105.5</ele><time>2026-04-11T09:09:33.999Z</time></trkpt><trkpt lat="43.24014836054776" lon="12.837390012110308"><ele>1110.0</ele><time>2026-04-11T09:09:42.999Z</time></trkpt><trkpt lat="43.2401249657821" lon="12.837285249662173"><ele>1110.0000000000002</ele><time>2026-04-11T09:09:45.999Z</time></trkpt><trkpt lat="43.240095952807145" lon="12.837192971354675"><ele>1110.0</ele><time>2026-04-11T09:09:47.999Z</time></trkpt><trkpt lat="43.240072301089754" lon="12.83709697233232"><ele>1110.0</ele><time>2026-04-11T09:09:49.999Z</time></trkpt><trkpt lat="43.24005526527115" lon="12.837000133672722"><ele>1110.0</ele><time>2026-04-11T09:09:51.999Z</time></trkpt><trkpt lat="43.240036465803456" lon="12.83691589197121"><ele>1110.0</ele><time>2026-04-11T09:09:53.999Z</time></trkpt><trkpt lat="43.24002843418196" lon="12.836822720855935"><ele>1110.0000000000002</ele><time>2026-04-11T09:09:55.999Z</time></trkpt><trkpt lat="43.24000161297689" lon="12.836703520958693"><ele>1110.0</ele><time>2026-04-11T09:09:57.999Z</time></trkpt><trkpt lat="43.239989939633645" lon="12.836615521238917"><ele>1110.6666666666667</ele><time>2026-04-11T09:09:59.999Z</time></trkpt><trkpt lat="43.2399780558808" lon="12.836493550797742"><ele>1111.3333333333333</ele><time>2026-04-11T09:10:02.999Z</time></trkpt><trkpt lat="43.23998269306033" lon="12.836395854567348"><ele>1112.0</ele><time>2026-04-11T09:10:04.999Z</time></trkpt><trkpt lat="43.2399549879888" lon="12.836301514950792"><ele>1112.6666666666665</ele><time>2026-04-11T09:10:07.999Z</time></trkpt><trkpt lat="43.23988669351758" lon="12.836248140261102"><ele>1113.3333333333333</ele><time>2026-04-11T09:10:11.999Z</time></trkpt><trkpt lat="43.239812670004" lon="12.836188618495553"><ele>1114.0</ele><time>2026-04-11T09:10:15.999Z</time></trkpt><trkpt lat="43.239728874482125" lon="12.83612313836979"><ele>1114.0</ele><time>2026-04-11T09:10:18.999Z</time></trkpt><trkpt lat="43.2396618959591" lon="12.836058258341394"><ele>1114.0</ele><time>2026-04-11T09:10:20.999Z</time></trkpt><trkpt lat="43.23958709135725" lon="12.836004139386551"><ele>1114.0</ele><time>2026-04-11T09:10:22.999Z</time></trkpt><trkpt lat="43.23948402089028" lon="12.835921339631676"><ele>1114.0</ele><time>2026-04-11T09:10:24.999Z</time></trkpt><trkpt lat="43.23943070823516" lon="12.835869279947747"><ele>1114.0</ele><time>2026-04-11T09:10:25.999Z</time></trkpt><trkpt lat="43.23937795376214" lon="12.83582073685418"><ele>1114.0</ele><time>2026-04-11T09:10:26.999Z</time></trkpt><trkpt lat="43.23932895597389" lon="12.835761980825856"><ele>1118.0</ele><time>2026-04-11T09:10:27.999Z</time></trkpt><trkpt lat="43.23927142442046" lon="12.835722050543653"><ele>1122.0</ele><time>2026-04-11T09:10:28.999Z</time></trkpt><trkpt lat="43.239179770141796" lon="12.835660003469323"><ele>1126.0</ele><time>2026-04-11T09:10:30.999Z</time></trkpt><trkpt lat="43.23910599648991" lon="12.835639405478348"><ele>1130.0</ele><time>2026-04-11T09:10:31.999Z</time></trkpt><trkpt lat="43.23903255837138" lon="12.835622449818086"><ele>1134.0</ele><time>2026-04-11T09:10:32.999Z</time></trkpt><trkpt lat="43.23895521316651" lon="12.835596333863386"><ele>1138.0</ele><time>2026-04-11T09:10:33.999Z</time></trkpt><trkpt lat="43.23889073725412" lon="12.835588684051201"><ele>1138.0</ele><time>2026-04-11T09:10:34.999Z</time></trkpt><trkpt lat="43.2388301130893" lon="12.835560704451316"><ele>1138.0</ele><time>2026-04-11T09:10:35.999Z</time></trkpt><trkpt lat="43.23872861937199" lon="12.835508297764783"><ele>1138.0</ele><time>2026-04-11T09:10:37.999Z</time></trkpt><trkpt lat="43.23865981710917" lon="12.83547891252965"><ele>1138.0</ele><time>2026-04-11T09:10:39.999Z</time></trkpt><trkpt lat="43.23856779888896" lon="12.835411684134142"><ele>1138.0</ele><time>2026-04-11T09:10:42.999Z</time></trkpt><trkpt lat="43.238524879105" lon="12.835294880590656"><ele>1138.0</ele><time>2026-04-11T09:10:44.999Z</time></trkpt><trkpt lat="43.23848903327243" lon="12.8352185242394"><ele>1144.6</ele><time>2026-04-11T09:10:45.999Z</time></trkpt><trkpt lat="43.23839972908453" lon="12.835090953572353"><ele>1151.1999999999998</ele><time>2026-04-11T09:10:47.999Z</time></trkpt><trkpt lat="43.23831085742641" lon="12.835025469704448"><ele>1157.8</ele><time>2026-04-11T09:10:49.999Z</time></trkpt><trkpt lat="43.238248873308784" lon="12.834997153119739"><ele>1164.3999999999999</ele><time>2026-04-11T09:10:50.999Z</time></trkpt><trkpt lat="43.23815955357309" lon="12.834935352373021"><ele>1171.0</ele><time>2026-04-11T09:10:52.999Z</time></trkpt><trkpt lat="43.23804005146116" lon="12.83492552281013"><ele>1171.0</ele><time>2026-04-11T09:10:54.999Z</time></trkpt><trkpt lat="43.23798612210646" lon="12.834856171659117"><ele>1171.0</ele><time>2026-04-11T09:10:56.999Z</time></trkpt><trkpt lat="43.23791951168164" lon="12.834841118907475"><ele>1171.0</ele><time>2026-04-11T09:10:57.999Z</time></trkpt><trkpt lat="43.23783889415627" lon="12.834715318479184"><ele>1171.0</ele><time>2026-04-11T09:10:59.999Z</time></trkpt><trkpt lat="43.23778929471669" lon="12.834651658340768"><ele>1171.0</ele><time>2026-04-11T09:11:00.999Z</time></trkpt><trkpt lat="43.237677590791826" lon="12.834615009980864"><ele>1171.0</ele><time>2026-04-11T09:11:02.999Z</time></trkpt><trkpt lat="43.23761094324122" lon="12.834623585442813"><ele>1171.0</ele><time>2026-04-11T09:11:03.999Z</time></trkpt><trkpt lat="43.237534858865935" lon="12.834636191223977"><ele>1171.0</ele><time>2026-04-11T09:11:04.999Z</time></trkpt><trkpt lat="43.23746388863382" lon="12.834658971044679"><ele>1171.0</ele><time>2026-04-11T09:11:05.999Z</time></trkpt><trkpt lat="43.237382517628525" lon="12.83470194172301"><ele>1171.0</ele><time>2026-04-11T09:11:06.999Z</time></trkpt><trkpt lat="43.23730577900783" lon="12.834776750160088"><ele>1171.0</ele><time>2026-04-11T09:11:08.999Z</time></trkpt><trkpt lat="43.23726377535982" lon="12.83487369873644"><ele>1171.0</ele><time>2026-04-11T09:11:10.999Z</time></trkpt><trkpt lat="43.23720188654992" lon="12.834961697492076"><ele>1166.75</ele><time>2026-04-11T09:11:12.999Z</time></trkpt><trkpt lat="43.23709239045855" lon="12.835034161137033"><ele>1162.5</ele><time>2026-04-11T09:11:14.999Z</time></trkpt><trkpt lat="43.23696973304161" lon="12.83509011572473"><ele>1158.25</ele><time>2026-04-11T09:11:16.999Z</time></trkpt><trkpt lat="43.236878793206216" lon="12.835083522569159"><ele>1154.0</ele><time>2026-04-11T09:11:18.999Z</time></trkpt><trkpt lat="43.23677175639914" lon="12.83512146668319"><ele>1154.0</ele><time>2026-04-11T09:11:20.999Z</time></trkpt><trkpt lat="43.236743063777666" lon="12.83504010304321"><ele>1154.0</ele><time>2026-04-11T09:11:22.999Z</time></trkpt><trkpt lat="43.23664717473209" lon="12.834999921935303"><ele>1154.0</ele><time>2026-04-11T09:11:24.999Z</time></trkpt><trkpt lat="43.236571904667706" lon="12.834942670218615"><ele>1154.0</ele><time>2026-04-11T09:11:26.999Z</time></trkpt><trkpt lat="43.23652263472887" lon="12.834867714037221"><ele>1154.0</ele><time>2026-04-11T09:11:31.999Z</time></trkpt><trkpt lat="43.23658647594888" lon="12.834507171008898"><ele>1165.5</ele><time>2026-04-11T09:11:39.999Z</time></trkpt><trkpt lat="43.23662647681327" lon="12.834196744808825"><ele>1177.0</ele><time>2026-04-11T09:11:40.999Z</time></trkpt><trkpt lat="43.23659950693158" lon="12.834065275714803"><ele>1188.5</ele><time>2026-04-11T09:11:42.999Z</time></trkpt><trkpt lat="43.236575638377346" lon="12.83393192546072"><ele>1200.0</ele><time>2026-04-11T09:11:44.999Z</time></trkpt><trkpt lat="43.23655023146035" lon="12.833833880458423"><ele>1200.0</ele><time>2026-04-11T09:11:46.999Z</time></trkpt><trkpt lat="43.236520352277616" lon="12.833757030061589"><ele>1200.0</ele><time>2026-04-11T09:11:48.999Z</time></trkpt><trkpt lat="43.236484616291015" lon="12.833654306443698"><ele>1200.0</ele><time>2026-04-11T09:11:51.999Z</time></trkpt><trkpt lat="43.23645990706445" lon="12.833536998335122"><ele>1200.0</ele><time>2026-04-11T09:11:54.999Z</time></trkpt><trkpt lat="43.23649738292894" lon="12.833417472912732"><ele>1200.0</ele><time>2026-04-11T09:11:55.999Z</time></trkpt><trkpt lat="43.236534466806646" lon="12.833293435677966"><ele>1200.0</ele><time>2026-04-11T09:11:57.999Z</time></trkpt><trkpt lat="43.23654051102451" lon="12.83319542528602"><ele>1202.8571428571427</ele><time>2026-04-11T09:12:00.999Z</time></trkpt><trkpt lat="43.23645267122512" lon="12.833135877843887"><ele>1205.7142857142858</ele><time>2026-04-11T09:12:02.999Z</time></trkpt><trkpt lat="43.236403143637446" lon="12.833080534838427"><ele>1208.5714285714284</ele><time>2026-04-11T09:12:05.999Z</time></trkpt><trkpt lat="43.23635638260817" lon="12.833008838532221"><ele>1211.4285714285713</ele><time>2026-04-11T09:12:11.999Z</time></trkpt><trkpt lat="43.23628659419664" lon="12.832976273564176"><ele>1214.2857142857142</ele><time>2026-04-11T09:12:15.999Z</time></trkpt><trkpt lat="43.23622566755321" lon="12.832950000529447"><ele>1217.142857142857</ele><time>2026-04-11T09:12:18.999Z</time></trkpt><trkpt lat="43.236158372312005" lon="12.832928959001897"><ele>1220.0</ele><time>2026-04-11T09:12:25.999Z</time></trkpt><trkpt lat="43.23616662710845" lon="12.83284033040733"><ele>1220.0</ele><time>2026-04-11T09:12:35.999Z</time></trkpt><trkpt lat="43.2361985185604" lon="12.832759923725053"><ele>1220.0</ele><time>2026-04-11T09:12:45.999Z</time></trkpt><trkpt lat="43.236260994692756" lon="12.832613428077616"><ele>1220.0</ele><time>2026-04-11T09:13:23.999Z</time></trkpt><trkpt lat="43.23627777971616" lon="12.832522842153748"><ele>1220.0</ele><time>2026-04-11T09:14:27.999Z</time></trkpt><trkpt lat="43.23632805648837" lon="12.832468512333879"><ele>1220.0</ele><time>2026-04-11T09:15:02.999Z</time></trkpt><trkpt lat="43.236254359239645" lon="12.832465065107028"><ele>1220.0</ele><time>2026-04-11T09:19:33Z</time></trkpt><trkpt lat="43.23617277969237" lon="12.832421439950158"><ele>1223.857142857143</ele><time>2026-04-11T09:19:35Z</time></trkpt><trkpt lat="43.23610431006964" lon="12.832405452061069"><ele>1227.7142857142856</ele><time>2026-04-11T09:19:36Z</time></trkpt><trkpt lat="43.23602351674913" lon="12.83239162923697"><ele>1231.5714285714284</ele><time>2026-04-11T09:19:37Z</time></trkpt><trkpt lat="43.23594966713255" lon="12.832363225935444"><ele>1235.4285714285716</ele><time>2026-04-11T09:19:38Z</time></trkpt><trkpt lat="43.23588824604313" lon="12.832327683798672"><ele>1239.2857142857142</ele><time>2026-04-11T09:19:39Z</time></trkpt><trkpt lat="43.23582458617152" lon="12.832286258543489"><ele>1243.142857142857</ele><time>2026-04-11T09:19:40Z</time></trkpt><trkpt lat="43.235750712615115" lon="12.832234159884996"><ele>1247.0</ele><time>2026-04-11T09:19:41Z</time></trkpt><trkpt lat="43.23567289032826" lon="12.832176295973486"><ele>1245.6666666666667</ele><time>2026-04-11T09:19:42Z</time></trkpt><trkpt lat="43.235600333015526" lon="12.832127737786246"><ele>1244.3333333333335</ele><time>2026-04-11T09:19:43Z</time></trkpt><trkpt lat="43.235545639307894" lon="12.83204624500928"><ele>1243.0</ele><time>2026-04-11T09:19:44Z</time></trkpt><trkpt lat="43.23547002367381" lon="12.832003361425642"><ele>1241.6666666666667</ele><time>2026-04-11T09:19:45Z</time></trkpt><trkpt lat="43.235385014227134" lon="12.831968055105214"><ele>1240.3333333333333</ele><time>2026-04-11T09:19:46Z</time></trkpt><trkpt lat="43.23530334523813" lon="12.83190968135645"><ele>1239.0</ele><time>2026-04-11T09:19:47Z</time></trkpt><trkpt lat="43.23519978406461" lon="12.831866409903279"><ele>1239.0</ele><time>2026-04-11T09:19:48Z</time></trkpt><trkpt lat="43.235080230824366" lon="12.831835907791195"><ele>1239.0</ele><time>2026-04-11T09:19:49Z</time></trkpt><trkpt lat="43.23497388445013" lon="12.83178156146582"><ele>1239.0</ele><time>2026-04-11T09:19:50Z</time></trkpt><trkpt lat="43.2348783351108" lon="12.831739311857953"><ele>1239.0</ele><time>2026-04-11T09:19:51Z</time></trkpt><trkpt lat="43.2347822468237" lon="12.831709439513343"><ele>1239.0</ele><time>2026-04-11T09:19:52Z</time></trkpt><trkpt lat="43.2346881645084" lon="12.831674230165133"><ele>1242.4</ele><time>2026-04-11T09:19:53Z</time></trkpt><trkpt lat="43.23458587362181" lon="12.83164577202189"><ele>1245.8000000000002</ele><time>2026-04-11T09:19:54Z</time></trkpt><trkpt lat="43.23447688635635" lon="12.831604759530409"><ele>1249.1999999999998</ele><time>2026-04-11T09:19:55Z</time></trkpt><trkpt lat="43.23437327511288" lon="12.831554472476807"><ele>1252.6</ele><time>2026-04-11T09:19:56Z</time></trkpt><trkpt lat="43.23426979898445" lon="12.831507920927681"><ele>1256.0</ele><time>2026-04-11T09:19:57Z</time></trkpt><trkpt lat="43.234167800259534" lon="12.831460562381002"><ele>1256.0</ele><time>2026-04-11T09:19:58Z</time></trkpt><trkpt lat="43.23406408723346" lon="12.831403074216649"><ele>1256.0</ele><time>2026-04-11T09:19:59Z</time></trkpt><trkpt lat="43.233961377568214" lon="12.83134662210045"><ele>1256.0</ele><time>2026-04-11T09:20:00Z</time></trkpt><trkpt lat="43.23386532506182" lon="12.831289456621612"><ele>1256.0</ele><time>2026-04-11T09:20:01Z</time></trkpt><trkpt lat="43.23377320276796" lon="12.831246875155484"><ele>1256.0</ele><time>2026-04-11T09:20:02Z</time></trkpt><trkpt lat="43.2336769441417" lon="12.831222113618248"><ele>1256.6666666666667</ele><time>2026-04-11T09:20:03Z</time></trkpt><trkpt lat="43.23358510070467" lon="12.831205869670422"><ele>1257.3333333333335</ele><time>2026-04-11T09:20:04Z</time></trkpt><trkpt lat="43.233498019618224" lon="12.831185987581426"><ele>1258.0</ele><time>2026-04-11T09:20:05Z</time></trkpt><trkpt lat="43.2334142791873" lon="12.831152467134137"><ele>1258.6666666666667</ele><time>2026-04-11T09:20:06Z</time></trkpt><trkpt lat="43.23333449285099" lon="12.831110254954794"><ele>1259.3333333333333</ele><time>2026-04-11T09:20:07Z</time></trkpt><trkpt lat="43.23324670932052" lon="12.83107980832737"><ele>1260.0</ele><time>2026-04-11T09:20:08Z</time></trkpt><trkpt lat="43.233170426388085" lon="12.831020969653663"><ele>1262.0</ele><time>2026-04-11T09:20:09Z</time></trkpt><trkpt lat="43.23310346671893" lon="12.83094568296748"><ele>1264.0</ele><time>2026-04-11T09:20:10Z</time></trkpt><trkpt lat="43.23303519564219" lon="12.830891043195784"><ele>1266.0</ele><time>2026-04-11T09:20:11Z</time></trkpt><trkpt lat="43.23296375682724" lon="12.830849099473937"><ele>1268.0</ele><time>2026-04-11T09:20:12Z</time></trkpt><trkpt lat="43.23288488288481" lon="12.830832977860755"><ele>1270.0</ele><time>2026-04-11T09:20:13Z</time></trkpt><trkpt lat="43.2328159195472" lon="12.83080200143886"><ele>1272.0</ele><time>2026-04-11T09:20:14Z</time></trkpt><trkpt lat="43.23273681848941" lon="12.83070924120558"><ele>1272.0</ele><time>2026-04-11T09:20:16Z</time></trkpt><trkpt lat="43.23273113221451" lon="12.830549788434958"><ele>1272.0</ele><time>2026-04-11T09:20:17.999Z</time></trkpt><trkpt lat="43.232729849251974" lon="12.830440050682443"><ele>1272.0</ele><time>2026-04-11T09:20:18.999Z</time></trkpt><trkpt lat="43.232734949807956" lon="12.83032747162172"><ele>1272.0</ele><time>2026-04-11T09:20:19.999Z</time></trkpt><trkpt lat="43.23274521039883" lon="12.830209154901995"><ele>1272.0</ele><time>2026-04-11T09:20:20.999Z</time></trkpt><trkpt lat="43.232758615025304" lon="12.830086472504261"><ele>1273.0</ele><time>2026-04-11T09:20:21.999Z</time></trkpt><trkpt lat="43.23277443951029" lon="12.829971683373309"><ele>1274.0</ele><time>2026-04-11T09:20:22.999Z</time></trkpt><trkpt lat="43.23279656603176" lon="12.829835340963841"><ele>1275.0</ele><time>2026-04-11T09:20:23.999Z</time></trkpt><trkpt lat="43.23282460794134" lon="12.829687294543907"><ele>1276.0</ele><time>2026-04-11T09:20:24.999Z</time></trkpt><trkpt lat="43.23286920622273" lon="12.829536969048826"><ele>1277.0</ele><time>2026-04-11T09:20:25.999Z</time></trkpt><trkpt lat="43.23294099495233" lon="12.829366004183267"><ele>1277.25</ele><time>2026-04-11T09:20:26.999Z</time></trkpt><trkpt lat="43.233001185266914" lon="12.829191375554517"><ele>1277.5</ele><time>2026-04-11T09:20:27.999Z</time></trkpt><trkpt lat="43.23305553385148" lon="12.829033444312882"><ele>1277.75</ele><time>2026-04-11T09:20:28.999Z</time></trkpt><trkpt lat="43.2331084508574" lon="12.828876077248166"><ele>1278.0</ele><time>2026-04-11T09:20:29.999Z</time></trkpt><trkpt lat="43.23316464532518" lon="12.828706410672146"><ele>1280.4</ele><time>2026-04-11T09:20:30.999Z</time></trkpt><trkpt lat="43.23321577102785" lon="12.828546419355407"><ele>1282.8</ele><time>2026-04-11T09:20:31.999Z</time></trkpt><trkpt lat="43.23325823425191" lon="12.828412031429908"><ele>1285.2</ele><time>2026-04-11T09:20:32.999Z</time></trkpt><trkpt lat="43.233298491501614" lon="12.828284624997474"><ele>1287.6</ele><time>2026-04-11T09:20:33.999Z</time></trkpt><trkpt lat="43.23333151058775" lon="12.828174171155485"><ele>1290.0</ele><time>2026-04-11T09:20:34.999Z</time></trkpt><trkpt lat="43.23336144668433" lon="12.82806284845959"><ele>1290.75</ele><time>2026-04-11T09:20:35.999Z</time></trkpt><trkpt lat="43.233400635719185" lon="12.82793918996512"><ele>1291.5</ele><time>2026-04-11T09:20:36.999Z</time></trkpt><trkpt lat="43.23341499508512" lon="12.827806285012194"><ele>1292.25</ele><time>2026-04-11T09:20:37.999Z</time></trkpt><trkpt lat="43.233440972866866" lon="12.827519343356379"><ele>1293.0</ele><time>2026-04-11T09:20:39.999Z</time></trkpt><trkpt lat="43.2334632254662" lon="12.827369921927977"><ele>1294.2</ele><time>2026-04-11T09:20:40.999Z</time></trkpt><trkpt lat="43.2334845551362" lon="12.827218675918706"><ele>1295.4</ele><time>2026-04-11T09:20:41.999Z</time></trkpt><trkpt lat="43.23350239740303" lon="12.82706872515152"><ele>1296.6000000000001</ele><time>2026-04-11T09:20:42.999Z</time></trkpt><trkpt lat="43.23353851391012" lon="12.82692976461246"><ele>1297.8000000000002</ele><time>2026-04-11T09:20:43.999Z</time></trkpt><trkpt lat="43.233563752994364" lon="12.82679531114229"><ele>1299.0</ele><time>2026-04-11T09:20:44.999Z</time></trkpt><trkpt lat="43.23359987493405" lon="12.826667412386785"><ele>1299.6</ele><time>2026-04-11T09:20:45.999Z</time></trkpt><trkpt lat="43.233640686058884" lon="12.826533042930622"><ele>1300.2</ele><time>2026-04-11T09:20:46.999Z</time></trkpt><trkpt lat="43.233682886375405" lon="12.826400363177207"><ele>1300.8</ele><time>2026-04-11T09:20:47.999Z</time></trkpt><trkpt lat="43.233732828204026" lon="12.826278974509382"><ele>1301.3999999999999</ele><time>2026-04-11T09:20:48.999Z</time></trkpt><trkpt lat="43.2337813387998" lon="12.826158162549415"><ele>1302.0</ele><time>2026-04-11T09:20:49.999Z</time></trkpt><trkpt lat="43.233821510220544" lon="12.826025648653093"><ele>1303.0</ele><time>2026-04-11T09:20:50.999Z</time></trkpt><trkpt lat="43.23386779181465" lon="12.825898312482614"><ele>1304.0</ele><time>2026-04-11T09:20:51.999Z</time></trkpt><trkpt lat="43.23387908139496" lon="12.825758995325183"><ele>1305.0</ele><time>2026-04-11T09:20:52.999Z</time></trkpt><trkpt lat="43.23389978429517" lon="12.825627077646097"><ele>1306.0</ele><time>2026-04-11T09:20:53.999Z</time></trkpt><trkpt lat="43.23392072312339" lon="12.825506985658905"><ele>1307.0</ele><time>2026-04-11T09:20:54.999Z</time></trkpt><trkpt lat="43.23394942969066" lon="12.825404939422056"><ele>1308.3333333333335</ele><time>2026-04-11T09:20:55.999Z</time></trkpt><trkpt lat="43.23398806220934" lon="12.825330035730952"><ele>1309.6666666666667</ele><time>2026-04-11T09:20:56.999Z</time></trkpt><trkpt lat="43.23406984890729" lon="12.825238630076253"><ele>1311.0</ele><time>2026-04-11T09:20:58.999Z</time></trkpt><trkpt lat="43.234131014288785" lon="12.82519367732584"><ele>1312.3333333333333</ele><time>2026-04-11T09:21:00.999Z</time></trkpt><trkpt lat="43.23413272237241" lon="12.825035627204382"><ele>1313.6666666666665</ele><time>2026-04-11T09:21:05.999Z</time></trkpt><trkpt lat="43.234195548125896" lon="12.825083300649219"><ele>1315.0</ele><time>2026-04-11T09:21:13.999Z</time></trkpt><trkpt lat="43.234266760494855" lon="12.825123120332153"><ele>1315.0</ele><time>2026-04-11T09:21:46.999Z</time></trkpt><trkpt lat="43.23432678535559" lon="12.825170925641599"><ele>1315.0</ele><time>2026-04-11T09:21:54.999Z</time></trkpt><trkpt lat="43.23438546499849" lon="12.82513642607309"><ele>1315.0</ele><time>2026-04-11T09:22:03.999Z</time></trkpt><trkpt lat="43.234454277253576" lon="12.825150139740733"><ele>1315.0</ele><time>2026-04-11T09:22:10.999Z</time></trkpt><trkpt lat="43.23451691379664" lon="12.82516156592888"><ele>1315.0</ele><time>2026-04-11T09:22:18.999Z</time></trkpt><trkpt lat="43.23445363223226" lon="12.825207212310337"><ele>1315.0</ele><time>2026-04-11T09:23:21Z</time></trkpt><trkpt lat="43.23438358720006" lon="12.82519509462279"><ele>1315.0</ele><time>2026-04-11T09:23:28Z</time></trkpt><trkpt lat="43.23490927033461" lon="12.825148401218724"><ele>1319.0</ele><time>2026-04-11T09:23:52Z</time></trkpt><trkpt lat="43.23473318828346" lon="12.825413407657441"><ele>1323.0</ele><time>2026-04-11T09:24:05Z</time></trkpt><trkpt lat="43.23466671453124" lon="12.825361106110782"><ele>1327.0</ele><time>2026-04-11T09:24:09Z</time></trkpt><trkpt lat="43.23456545672652" lon="12.825281926633316"><ele>1327.0000000000002</ele><time>2026-04-11T09:24:11Z</time></trkpt><trkpt lat="43.23450244917126" lon="12.825232657316388"><ele>1327.0</ele><time>2026-04-11T09:24:13Z</time></trkpt><trkpt lat="43.234553470010425" lon="12.825170288350698"><ele>1327.0</ele><time>2026-04-11T09:25:14Z</time></trkpt><trkpt lat="43.23457307700348" lon="12.825082644868733"><ele>1327.0</ele><time>2026-04-11T09:25:27Z</time></trkpt><trkpt lat="43.2346107155556" lon="12.824975470327075"><ele>1327.0</ele><time>2026-04-11T09:25:30Z</time></trkpt><trkpt lat="43.234636928011" lon="12.824890437228975"><ele>1327.0000000000002</ele><time>2026-04-11T09:25:35Z</time></trkpt><trkpt lat="43.23460327262867" lon="12.824799604262813"><ele>1327.0</ele><time>2026-04-11T09:25:39Z</time></trkpt><trkpt lat="43.23454391982393" lon="12.824699531722837"><ele>1324.0</ele><time>2026-04-11T09:25:43Z</time></trkpt><trkpt lat="43.23448137832897" lon="12.824720329379652"><ele>1321.0</ele><time>2026-04-11T09:25:45Z</time></trkpt><trkpt lat="43.23441976108928" lon="12.824741989307762"><ele>1318.0</ele><time>2026-04-11T09:25:50Z</time></trkpt><trkpt lat="43.234340476616175" lon="12.82474026634462"><ele>1315.0</ele><time>2026-04-11T09:25:53Z</time></trkpt><trkpt lat="43.23462464434007" lon="12.824758779649374"><ele>1315.0</ele><time>2026-04-11T09:26:53Z</time></trkpt><trkpt lat="43.234708040613796" lon="12.824782851409907"><ele>1315.0</ele><time>2026-04-11T09:26:55Z</time></trkpt><trkpt lat="43.23478021534055" lon="12.824801740769832"><ele>1315.0</ele><time>2026-04-11T09:26:57Z</time></trkpt><trkpt lat="43.23484592220068" lon="12.824831656578667"><ele>1315.0</ele><time>2026-04-11T09:26:59Z</time></trkpt><trkpt lat="43.23492945507161" lon="12.824863455816335"><ele>1315.0</ele><time>2026-04-11T09:27:01Z</time></trkpt><trkpt lat="43.234994077616" lon="12.824879517026575"><ele>1315.0</ele><time>2026-04-11T09:27:04Z</time></trkpt><trkpt lat="43.23501563240438" lon="12.82496093366689"><ele>1315.0</ele><time>2026-04-11T09:27:11Z</time></trkpt><trkpt lat="43.23507195766262" lon="12.825049352391423"><ele>1315.5714285714284</ele><time>2026-04-11T09:27:15Z</time></trkpt><trkpt lat="43.235106320426674" lon="12.825134667156046"><ele>1316.142857142857</ele><time>2026-04-11T09:27:17Z</time></trkpt><trkpt lat="43.23510130038767" lon="12.825227093259047"><ele>1316.7142857142858</ele><time>2026-04-11T09:27:21Z</time></trkpt><trkpt lat="43.235115561303495" lon="12.825320084713608"><ele>1317.2857142857142</ele><time>2026-04-11T09:27:24Z</time></trkpt><trkpt lat="43.235147525587045" lon="12.825428243447941"><ele>1317.857142857143</ele><time>2026-04-11T09:27:26Z</time></trkpt><trkpt lat="43.23516169373937" lon="12.82553145809077"><ele>1318.4285714285713</ele><time>2026-04-11T09:27:28Z</time></trkpt><trkpt lat="43.23516115454175" lon="12.825635612843227"><ele>1319.0</ele><time>2026-04-11T09:27:31Z</time></trkpt><trkpt lat="43.23517297068964" lon="12.82574960106296"><ele>1321.8000000000002</ele><time>2026-04-11T09:27:34Z</time></trkpt><trkpt lat="43.23519462010559" lon="12.82583087218425"><ele>1324.6000000000001</ele><time>2026-04-11T09:27:37Z</time></trkpt><trkpt lat="43.235240460812705" lon="12.825939018959454"><ele>1327.4</ele><time>2026-04-11T09:27:39Z</time></trkpt><trkpt lat="43.235300655728615" lon="12.825722016537208"><ele>1330.2</ele><time>2026-04-11T09:27:40Z</time></trkpt><trkpt lat="43.235373423169364" lon="12.82574723240117"><ele>1333.0</ele><time>2026-04-11T09:27:45Z</time></trkpt><trkpt lat="43.235476762447576" lon="12.825807919677114"><ele>1333.0</ele><time>2026-04-11T09:27:49Z</time></trkpt><trkpt lat="43.235568787148615" lon="12.825840406791606"><ele>1333.0</ele><time>2026-04-11T09:27:51Z</time></trkpt><trkpt lat="43.236231519161585" lon="12.826120105320346"><ele>1335.3333333333333</ele><time>2026-04-11T09:28:05Z</time></trkpt><trkpt lat="43.2363123452733" lon="12.82615145218405"><ele>1337.6666666666667</ele><time>2026-04-11T09:28:07Z</time></trkpt><trkpt lat="43.23605002681141" lon="12.82584819075707"><ele>1340.0</ele><time>2026-04-11T09:28:30Z</time></trkpt><trkpt lat="43.2359982429966" lon="12.825771345838529"><ele>1340.0</ele><time>2026-04-11T09:28:33Z</time></trkpt><trkpt lat="43.23596341877451" lon="12.825698146600033"><ele>1340.0</ele><time>2026-04-11T09:28:36Z</time></trkpt><trkpt lat="43.235780038063105" lon="12.825533189347645"><ele>1340.0</ele><time>2026-04-11T09:28:58Z</time></trkpt><trkpt lat="43.23576535756245" lon="12.825426144517115"><ele>1340.0</ele><time>2026-04-11T09:28:59Z</time></trkpt><trkpt lat="43.23566575634865" lon="12.825254167956208"><ele>1340.0</ele><time>2026-04-11T09:29:01Z</time></trkpt><trkpt lat="43.23575704510073" lon="12.825187139288388"><ele>1340.0</ele><time>2026-04-11T09:29:08Z</time></trkpt><trkpt lat="43.23579189822188" lon="12.825100717504005"><ele>1340.0</ele><time>2026-04-11T09:29:13Z</time></trkpt><trkpt lat="43.23585514087077" lon="12.825065349688922"><ele>1340.0</ele><time>2026-04-11T09:29:15Z</time></trkpt><trkpt lat="43.2359557421074" lon="12.825045851984154"><ele>1340.0</ele><time>2026-04-11T09:29:17Z</time></trkpt><trkpt lat="43.236057975543176" lon="12.824984394348471"><ele>1335.2</ele><time>2026-04-11T09:29:20Z</time></trkpt><trkpt lat="43.236143919043066" lon="12.824961903664155"><ele>1330.4</ele><time>2026-04-11T09:29:22Z</time></trkpt><trkpt lat="43.23619765468237" lon="12.824906577844489"><ele>1325.6</ele><time>2026-04-11T09:29:24Z</time></trkpt><trkpt lat="43.236329549258706" lon="12.824855848820214"><ele>1320.8</ele><time>2026-04-11T09:29:27Z</time></trkpt><trkpt lat="43.23643259322851" lon="12.824817037233208"><ele>1316.0</ele><time>2026-04-11T09:29:29Z</time></trkpt><trkpt lat="43.236545221355286" lon="12.8247895293447"><ele>1316.0</ele><time>2026-04-11T09:29:31Z</time></trkpt><trkpt lat="43.236613557446226" lon="12.82477528977785"><ele>1316.0</ele><time>2026-04-11T09:29:33Z</time></trkpt><trkpt lat="43.236679530511765" lon="12.824758637785196"><ele>1316.0</ele><time>2026-04-11T09:29:35Z</time></trkpt><trkpt lat="43.236778875351035" lon="12.82480721724999"><ele>1316.0</ele><time>2026-04-11T09:29:58.001Z</time></trkpt><trkpt lat="43.23684447437875" lon="12.82486501316958"><ele>1316.0</ele><time>2026-04-11T09:30:00.001Z</time></trkpt><trkpt lat="43.236934708459884" lon="12.824909312126728"><ele>1316.0</ele><time>2026-04-11T09:30:02.001Z</time></trkpt><trkpt lat="43.23705439358682" lon="12.824971858154782"><ele>1316.0</ele><time>2026-04-11T09:30:07.001Z</time></trkpt><trkpt lat="43.23699411960297" lon="12.824849082904281"><ele>1316.0</ele><time>2026-04-11T09:30:30Z</time></trkpt><trkpt lat="43.23690861635714" lon="12.824630529206367"><ele>1316.0</ele><time>2026-04-11T09:30:31Z</time></trkpt><trkpt lat="43.236837106803264" lon="12.824485015599176"><ele>1316.0</ele><time>2026-04-11T09:30:32Z</time></trkpt><trkpt lat="43.236779630439685" lon="12.824366643946444"><ele>1312.1999999999998</ele><time>2026-04-11T09:30:33Z</time></trkpt><trkpt lat="43.236727561636016" lon="12.824287734494336"><ele>1308.3999999999999</ele><time>2026-04-11T09:30:34Z</time></trkpt><trkpt lat="43.23665998565155" lon="12.824163427820269"><ele>1304.6</ele><time>2026-04-11T09:30:36Z</time></trkpt><trkpt lat="43.236585437575194" lon="12.824024223169545"><ele>1300.8</ele><time>2026-04-11T09:30:38Z</time></trkpt><trkpt lat="43.2365347694456" lon="12.823954087011462"><ele>1297.0</ele><time>2026-04-11T09:30:39Z</time></trkpt><trkpt lat="43.23646904160044" lon="12.823926333638129"><ele>1297.0</ele><time>2026-04-11T09:30:40Z</time></trkpt><trkpt lat="43.236399529127524" lon="12.823929227700756"><ele>1297.0</ele><time>2026-04-11T09:30:41Z</time></trkpt><trkpt lat="43.236297107937325" lon="12.823870295546138"><ele>1297.0</ele><time>2026-04-11T09:30:43Z</time></trkpt><trkpt lat="43.236243064049276" lon="12.823818117158554"><ele>1297.0</ele><time>2026-04-11T09:30:45Z</time></trkpt><trkpt lat="43.23607617928179" lon="12.824149864656729"><ele>1301.5</ele><time>2026-04-11T09:30:46Z</time></trkpt><trkpt lat="43.235930223297295" lon="12.824355371564685"><ele>1306.0</ele><time>2026-04-11T09:30:47Z</time></trkpt><trkpt lat="43.23587419748155" lon="12.82442084915532"><ele>1310.5</ele><time>2026-04-11T09:30:48Z</time></trkpt><trkpt lat="43.23577556657942" lon="12.824428401582168"><ele>1315.0</ele><time>2026-04-11T09:30:49Z</time></trkpt><trkpt lat="43.235681114476016" lon="12.824444266008035"><ele>1315.6666666666665</ele><time>2026-04-11T09:30:50Z</time></trkpt><trkpt lat="43.23559458552304" lon="12.824483046763469"><ele>1316.3333333333333</ele><time>2026-04-11T09:30:52Z</time></trkpt><trkpt lat="43.23552530788504" lon="12.824472760941049"><ele>1317.0</ele><time>2026-04-11T09:30:55Z</time></trkpt><trkpt lat="43.23545474431442" lon="12.824473686842715"><ele>1317.6666666666667</ele><time>2026-04-11T09:30:59Z</time></trkpt><trkpt lat="43.235367154269916" lon="12.824486318497868"><ele>1318.3333333333335</ele><time>2026-04-11T09:31:02Z</time></trkpt><trkpt lat="43.235268610672435" lon="12.824471313295097"><ele>1319.0</ele><time>2026-04-11T09:31:05Z</time></trkpt><trkpt lat="43.23519701043014" lon="12.824467528849699"><ele>1318.9999999999998</ele><time>2026-04-11T09:31:08Z</time></trkpt><trkpt lat="43.23514012289714" lon="12.824517128422986"><ele>1319.0</ele><time>2026-04-11T09:31:11Z</time></trkpt><trkpt lat="43.235071151751264" lon="12.82456520542292"><ele>1319.0</ele><time>2026-04-11T09:31:15Z</time></trkpt><trkpt lat="43.23500369102228" lon="12.824615966685489"><ele>1319.0</ele><time>2026-04-11T09:31:19Z</time></trkpt><trkpt lat="43.23494345265235" lon="12.824651464441558"><ele>1319.0</ele><time>2026-04-11T09:31:23Z</time></trkpt><trkpt lat="43.23488469934089" lon="12.824694763656419"><ele>1318.9999999999998</ele><time>2026-04-11T09:31:27Z</time></trkpt><trkpt lat="43.234824358237745" lon="12.824745175878471"><ele>1319.0</ele><time>2026-04-11T09:31:30Z</time></trkpt><trkpt lat="43.23476346251959" lon="12.824809478027204"><ele>1318.3333333333335</ele><time>2026-04-11T09:31:35Z</time></trkpt><trkpt lat="43.23471435967826" lon="12.824892271460927"><ele>1317.6666666666667</ele><time>2026-04-11T09:31:40Z</time></trkpt><trkpt lat="43.23465656827531" lon="12.824971170100518"><ele>1317.0</ele><time>2026-04-11T09:31:42Z</time></trkpt><trkpt lat="43.23460747555389" lon="12.825043456853845"><ele>1316.3333333333333</ele><time>2026-04-11T09:31:46Z</time></trkpt><trkpt lat="43.234549976975536" lon="12.825129631172734"><ele>1315.6666666666665</ele><time>2026-04-11T09:31:49Z</time></trkpt><trkpt lat="43.23452154673612" lon="12.825217263284511"><ele>1315.0</ele><time>2026-04-11T09:31:55Z</time></trkpt><trkpt lat="43.23456853757671" lon="12.825288090849968"><ele>1317.0</ele><time>2026-04-11T09:32:56.999Z</time></trkpt><trkpt lat="43.23461953951379" lon="12.825340689614048"><ele>1319.0</ele><time>2026-04-11T09:32:58.999Z</time></trkpt><trkpt lat="43.23471916851407" lon="12.82543651651901"><ele>1321.0</ele><time>2026-04-11T09:33:00.999Z</time></trkpt><trkpt lat="43.234781927344436" lon="12.825465438832257"><ele>1323.0</ele><time>2026-04-11T09:33:01.999Z</time></trkpt><trkpt lat="43.234851829905736" lon="12.825497763668244"><ele>1325.0</ele><time>2026-04-11T09:33:02.999Z</time></trkpt><trkpt lat="43.234956141665535" lon="12.82555288137585"><ele>1327.0</ele><time>2026-04-11T09:33:03.999Z</time></trkpt><trkpt lat="43.235040929127834" lon="12.825626570643003"><ele>1328.0</ele><time>2026-04-11T09:33:04.999Z</time></trkpt><trkpt lat="43.23512319400517" lon="12.825647546913299"><ele>1329.0</ele><time>2026-04-11T09:33:05.999Z</time></trkpt><trkpt lat="43.23520017528797" lon="12.825662534693992"><ele>1330.0</ele><time>2026-04-11T09:33:06.999Z</time></trkpt><trkpt lat="43.235263087456985" lon="12.8256999815792"><ele>1331.0</ele><time>2026-04-11T09:33:07.999Z</time></trkpt><trkpt lat="43.23533181398033" lon="12.825735238541458"><ele>1332.0</ele><time>2026-04-11T09:33:08.999Z</time></trkpt><trkpt lat="43.23541094900799" lon="12.825762136551557"><ele>1333.0</ele><time>2026-04-11T09:33:09.999Z</time></trkpt><trkpt lat="43.23550248630857" lon="12.825791639837144"><ele>1333.0</ele><time>2026-04-11T09:33:10.999Z</time></trkpt><trkpt lat="43.23560238279915" lon="12.825824862969036"><ele>1333.0</ele><time>2026-04-11T09:33:11.999Z</time></trkpt><trkpt lat="43.23570623907243" lon="12.82585749030767"><ele>1333.0</ele><time>2026-04-11T09:33:12.999Z</time></trkpt><trkpt lat="43.23581145812367" lon="12.825896640022677"><ele>1333.0</ele><time>2026-04-11T09:33:13.999Z</time></trkpt><trkpt lat="43.23590907465736" lon="12.825941828533548"><ele>1333.0</ele><time>2026-04-11T09:33:14.999Z</time></trkpt><trkpt lat="43.23599588030061" lon="12.82598074753089"><ele>1336.8000000000002</ele><time>2026-04-11T09:33:15.999Z</time></trkpt><trkpt lat="43.23608539037033" lon="12.826020767266751"><ele>1340.6</ele><time>2026-04-11T09:33:16.999Z</time></trkpt><trkpt lat="43.23617389107159" lon="12.826064646583808"><ele>1344.4</ele><time>2026-04-11T09:33:17.999Z</time></trkpt><trkpt lat="43.23626912120918" lon="12.826113815405293"><ele>1348.1999999999998</ele><time>2026-04-11T09:33:18.999Z</time></trkpt><trkpt lat="43.23635991474126" lon="12.826161750954123"><ele>1352.0</ele><time>2026-04-11T09:33:19.999Z</time></trkpt><trkpt lat="43.23645670764364" lon="12.82620102888061"><ele>1353.0</ele><time>2026-04-11T09:33:20.999Z</time></trkpt><trkpt lat="43.236576136618865" lon="12.826275099946841"><ele>1354.0</ele><time>2026-04-11T09:33:21.999Z</time></trkpt><trkpt lat="43.2366957156226" lon="12.826309349515192"><ele>1355.0</ele><time>2026-04-11T09:33:22.999Z</time></trkpt><trkpt lat="43.23681254359098" lon="12.82637847501232"><ele>1356.0</ele><time>2026-04-11T09:33:23.999Z</time></trkpt><trkpt lat="43.23693921662868" lon="12.826453362060702"><ele>1356.0</ele><time>2026-04-11T09:33:24.999Z</time></trkpt><trkpt lat="43.23708496694384" lon="12.826537667257947"><ele>1356.0</ele><time>2026-04-11T09:33:25.999Z</time></trkpt><trkpt lat="43.2372249667527" lon="12.82662245776031"><ele>1356.0</ele><time>2026-04-11T09:33:26.999Z</time></trkpt><trkpt lat="43.23736841525658" lon="12.826706462528147"><ele>1357.25</ele><time>2026-04-11T09:33:27.999Z</time></trkpt><trkpt lat="43.237514618796155" lon="12.826792998995785"><ele>1358.5</ele><time>2026-04-11T09:33:28.999Z</time></trkpt><trkpt lat="43.23764289790715" lon="12.826875260952718"><ele>1359.75</ele><time>2026-04-11T09:33:29.999Z</time></trkpt><trkpt lat="43.237768491609295" lon="12.826942345437724"><ele>1361.0</ele><time>2026-04-11T09:33:30.999Z</time></trkpt><trkpt lat="43.237885437442074" lon="12.826999894866528"><ele>1361.6</ele><time>2026-04-11T09:33:31.999Z</time></trkpt><trkpt lat="43.23800309747696" lon="12.827050710591275"><ele>1362.1999999999998</ele><time>2026-04-11T09:33:32.999Z</time></trkpt><trkpt lat="43.23810679185678" lon="12.827100521179846"><ele>1362.8000000000002</ele><time>2026-04-11T09:33:33.999Z</time></trkpt><trkpt lat="43.23820010074921" lon="12.827148271294167"><ele>1363.4</ele><time>2026-04-11T09:33:34.999Z</time></trkpt><trkpt lat="43.23830090329456" lon="12.827189480152294"><ele>1364.0</ele><time>2026-04-11T09:33:35.999Z</time></trkpt><trkpt lat="43.23840434155688" lon="12.827258857545448"><ele>1365.0</ele><time>2026-04-11T09:33:36.999Z</time></trkpt><trkpt lat="43.23851256809354" lon="12.827287719386911"><ele>1366.0</ele><time>2026-04-11T09:33:37.999Z</time></trkpt><trkpt lat="43.23861699513995" lon="12.827385681892633"><ele>1367.0</ele><time>2026-04-11T09:33:38.999Z</time></trkpt><trkpt lat="43.23872046033209" lon="12.827452661090577"><ele>1368.0</ele><time>2026-04-11T09:33:39.999Z</time></trkpt><trkpt lat="43.238808194961756" lon="12.827536393033755"><ele>1368.0</ele><time>2026-04-11T09:33:40.999Z</time></trkpt><trkpt lat="43.23888921018377" lon="12.827632142404843"><ele>1368.0</ele><time>2026-04-11T09:33:41.999Z</time></trkpt><trkpt lat="43.2389630599736" lon="12.827740607066389"><ele>1368.0</ele><time>2026-04-11T09:33:42.999Z</time></trkpt><trkpt lat="43.239031557049735" lon="12.827883847254652"><ele>1368.0</ele><time>2026-04-11T09:33:43.999Z</time></trkpt><trkpt lat="43.239112927502575" lon="12.827999070915315"><ele>1370.4</ele><time>2026-04-11T09:33:44.999Z</time></trkpt><trkpt lat="43.23918397010421" lon="12.828100294586156"><ele>1372.8000000000002</ele><time>2026-04-11T09:33:45.999Z</time></trkpt><trkpt lat="43.23923597003785" lon="12.828176632188617"><ele>1375.2</ele><time>2026-04-11T09:33:46.999Z</time></trkpt><trkpt lat="43.23929917717687" lon="12.828274615536163"><ele>1377.6</ele><time>2026-04-11T09:33:47.999Z</time></trkpt><trkpt lat="43.239369175406146" lon="12.828363491497047"><ele>1380.0</ele><time>2026-04-11T09:33:48.999Z</time></trkpt><trkpt lat="43.239438583421396" lon="12.82845849151977"><ele>1379.4</ele><time>2026-04-11T09:33:49.999Z</time></trkpt><trkpt lat="43.23953269897146" lon="12.82853380120972"><ele>1378.8</ele><time>2026-04-11T09:33:50.999Z</time></trkpt><trkpt lat="43.23962696930811" lon="12.828569815757447"><ele>1378.1999999999998</ele><time>2026-04-11T09:33:51.999Z</time></trkpt><trkpt lat="43.23971678710106" lon="12.82862787876034"><ele>1377.6</ele><time>2026-04-11T09:33:52.999Z</time></trkpt><trkpt lat="43.239823361997374" lon="12.828658009704336"><ele>1377.0</ele><time>2026-04-11T09:33:53.999Z</time></trkpt><trkpt lat="43.23991934003004" lon="12.828656703314016"><ele>1378.3333333333333</ele><time>2026-04-11T09:33:54.999Z</time></trkpt><trkpt lat="43.23999315621124" lon="12.828642800629305"><ele>1379.6666666666667</ele><time>2026-04-11T09:33:55.999Z</time></trkpt><trkpt lat="43.24006470890395" lon="12.82859767107214"><ele>1381.0</ele><time>2026-04-11T09:33:56.999Z</time></trkpt><trkpt lat="43.240124632801106" lon="12.828545662936111"><ele>1382.3333333333335</ele><time>2026-04-11T09:33:57.999Z</time></trkpt><trkpt lat="43.2401816991915" lon="12.828425011836043"><ele>1383.6666666666667</ele><time>2026-04-11T09:33:59.999Z</time></trkpt><trkpt lat="43.24022307252296" lon="12.828272018763426"><ele>1385.0</ele><time>2026-04-11T09:34:01.999Z</time></trkpt><trkpt lat="43.240244071928764" lon="12.828163456080581"><ele>1385.0</ele><time>2026-04-11T09:34:02.999Z</time></trkpt><trkpt lat="43.24025906713127" lon="12.828006827908505"><ele>1385.0</ele><time>2026-04-11T09:34:03.999Z</time></trkpt><trkpt lat="43.24030165184606" lon="12.827847084168587"><ele>1385.0</ele><time>2026-04-11T09:34:04.999Z</time></trkpt><trkpt lat="43.24031612398691" lon="12.82766711938126"><ele>1385.0</ele><time>2026-04-11T09:34:05.999Z</time></trkpt><trkpt lat="43.240360194696144" lon="12.827489289625621"><ele>1384.3333333333335</ele><time>2026-04-11T09:34:06.999Z</time></trkpt><trkpt lat="43.24038638068039" lon="12.82729842475364"><ele>1383.6666666666667</ele><time>2026-04-11T09:34:07.999Z</time></trkpt><trkpt lat="43.24041782412435" lon="12.8270816544438"><ele>1383.0</ele><time>2026-04-11T09:34:08.999Z</time></trkpt><trkpt lat="43.2404578559312" lon="12.826873665858052"><ele>1383.5</ele><time>2026-04-11T09:34:09.999Z</time></trkpt><trkpt lat="43.24049864667482" lon="12.826683127129254"><ele>1384.0</ele><time>2026-04-11T09:34:10.999Z</time></trkpt><trkpt lat="43.240538469591584" lon="12.826498210580418"><ele>1384.5</ele><time>2026-04-11T09:34:11.999Z</time></trkpt><trkpt lat="43.24058075616573" lon="12.826321832988496"><ele>1385.0</ele><time>2026-04-11T09:34:12.999Z</time></trkpt><trkpt lat="43.240601962043236" lon="12.826147815675359"><ele>1386.25</ele><time>2026-04-11T09:34:13.999Z</time></trkpt><trkpt lat="43.240610820608644" lon="12.82597605997388"><ele>1387.5</ele><time>2026-04-11T09:34:14.999Z</time></trkpt><trkpt lat="43.24057973395637" lon="12.825816787516855"><ele>1388.75</ele><time>2026-04-11T09:34:15.999Z</time></trkpt><trkpt lat="43.24056005094498" lon="12.825651338770879"><ele>1390.0</ele><time>2026-04-11T09:34:16.999Z</time></trkpt><trkpt lat="43.24054153414879" lon="12.825497936834722"><ele>1390.0</ele><time>2026-04-11T09:34:17.999Z</time></trkpt><trkpt lat="43.24052262951231" lon="12.825248664730976"><ele>1390.0</ele><time>2026-04-11T09:34:18.999Z</time></trkpt><trkpt lat="43.240544409402744" lon="12.825071481202004"><ele>1390.0</ele><time>2026-04-11T09:34:19.999Z</time></trkpt><trkpt lat="43.240568631607545" lon="12.82491107845823"><ele>1390.0</ele><time>2026-04-11T09:34:20.999Z</time></trkpt><trkpt lat="43.24059319253671" lon="12.824767789026483"><ele>1389.75</ele><time>2026-04-11T09:34:21.999Z</time></trkpt><trkpt lat="43.240621416901035" lon="12.82461537828909"><ele>1389.5</ele><time>2026-04-11T09:34:22.999Z</time></trkpt><trkpt lat="43.240650382811765" lon="12.82446336209783"><ele>1389.25</ele><time>2026-04-11T09:34:23.999Z</time></trkpt><trkpt lat="43.240687449905415" lon="12.824308093931258"><ele>1389.0</ele><time>2026-04-11T09:34:24.999Z</time></trkpt><trkpt lat="43.24073047532271" lon="12.824172812813217"><ele>1390.0</ele><time>2026-04-11T09:34:25.999Z</time></trkpt><trkpt lat="43.24083291781277" lon="12.823994384402381"><ele>1391.0</ele><time>2026-04-11T09:34:26.999Z</time></trkpt><trkpt lat="43.24089215328254" lon="12.823926782245271"><ele>1392.0</ele><time>2026-04-11T09:34:27.999Z</time></trkpt><trkpt lat="43.24098064040795" lon="12.823827057909563"><ele>1393.0</ele><time>2026-04-11T09:34:29.999Z</time></trkpt><trkpt lat="43.24106698960435" lon="12.82372730826833"><ele>1393.0</ele><time>2026-04-11T09:34:31.999Z</time></trkpt><trkpt lat="43.241135658165604" lon="12.823645289350251"><ele>1393.0</ele><time>2026-04-11T09:34:32.999Z</time></trkpt><trkpt lat="43.24121658713909" lon="12.82359351665658"><ele>1393.0</ele><time>2026-04-11T09:34:34.999Z</time></trkpt><trkpt lat="43.24129301517064" lon="12.823572229449242"><ele>1393.0</ele><time>2026-04-11T09:34:36.999Z</time></trkpt><trkpt lat="43.24158461778812" lon="12.824144652967897"><ele>1393.0</ele><time>2026-04-11T09:34:37.999Z</time></trkpt><trkpt lat="43.24168500600538" lon="12.824192259158727"><ele>1393.0</ele><time>2026-04-11T09:34:39.999Z</time></trkpt><trkpt lat="43.24173548775978" lon="12.824109565547918"><ele>1393.0</ele><time>2026-04-11T09:34:44.999Z</time></trkpt><trkpt lat="43.241659184260726" lon="12.824070469088252"><ele>1393.0</ele><time>2026-04-11T09:34:46.999Z</time></trkpt><trkpt lat="43.241597683126514" lon="12.8240064017862"><ele>1393.0</ele><time>2026-04-11T09:34:47.999Z</time></trkpt><trkpt lat="43.24153178073716" lon="12.823918950552484"><ele>1393.0</ele><time>2026-04-11T09:34:49.999Z</time></trkpt><trkpt lat="43.24144465202508" lon="12.823813805518322"><ele>1393.0</ele><time>2026-04-11T09:34:51.999Z</time></trkpt><trkpt lat="43.241370918198236" lon="12.823728753921738"><ele>1393.0</ele><time>2026-04-11T09:34:53.999Z</time></trkpt><trkpt lat="43.241327014130846" lon="12.823645143887843"><ele>1393.0</ele><time>2026-04-11T09:34:55.999Z</time></trkpt><trkpt lat="43.241267863748774" lon="12.823586383969609"><ele>1393.0</ele><time>2026-04-11T09:34:57.999Z</time></trkpt><trkpt lat="43.241205391835365" lon="12.823552214109327"><ele>1393.0</ele><time>2026-04-11T09:35:00.999Z</time></trkpt><trkpt lat="43.24127111833389" lon="12.823464300577292"><ele>1393.0</ele><time>2026-04-11T09:35:04.999Z</time></trkpt><trkpt lat="43.241329095924534" lon="12.82336133611894"><ele>1393.4</ele><time>2026-04-11T09:35:06.999Z</time></trkpt><trkpt lat="43.241376654839534" lon="12.82322765305509"><ele>1393.8000000000002</ele><time>2026-04-11T09:35:08.999Z</time></trkpt><trkpt lat="43.24142124378747" lon="12.82307227064812"><ele>1394.2</ele><time>2026-04-11T09:35:10.999Z</time></trkpt><trkpt lat="43.24146084249572" lon="12.822985979516043"><ele>1394.6</ele><time>2026-04-11T09:35:11.999Z</time></trkpt><trkpt lat="43.24147626994466" lon="12.822865977597408"><ele>1395.0</ele><time>2026-04-11T09:35:12.999Z</time></trkpt><trkpt lat="43.24152296514128" lon="12.822781419825727"><ele>1395.0</ele><time>2026-04-11T09:35:13.999Z</time></trkpt><trkpt lat="43.24155494810363" lon="12.822684398685713"><ele>1395.0</ele><time>2026-04-11T09:35:14.999Z</time></trkpt><trkpt lat="43.24158753957458" lon="12.822582521535873"><ele>1395.0</ele><time>2026-04-11T09:35:15.999Z</time></trkpt><trkpt lat="43.24160813851233" lon="12.822479625959863"><ele>1395.0</ele><time>2026-04-11T09:35:16.999Z</time></trkpt><trkpt lat="43.2416378079225" lon="12.822380671538184"><ele>1395.0</ele><time>2026-04-11T09:35:17.999Z</time></trkpt><trkpt lat="43.24168459185289" lon="12.822292803570301"><ele>1395.0</ele><time>2026-04-11T09:35:18.999Z</time></trkpt><trkpt lat="43.241705411866555" lon="12.822180864937653"><ele>1392.8</ele><time>2026-04-11T09:35:19.999Z</time></trkpt><trkpt lat="43.24174370907849" lon="12.822072967284669"><ele>1390.6</ele><time>2026-04-11T09:35:20.999Z</time></trkpt><trkpt lat="43.24179072217918" lon="12.821979820917889"><ele>1388.4</ele><time>2026-04-11T09:35:21.999Z</time></trkpt><trkpt lat="43.241843214759065" lon="12.821805000691501"><ele>1386.2</ele><time>2026-04-11T09:35:23.999Z</time></trkpt><trkpt lat="43.241874601095624" lon="12.821693733915406"><ele>1384.0</ele><time>2026-04-11T09:35:24.999Z</time></trkpt><trkpt lat="43.241886545845546" lon="12.82158128896237"><ele>1382.1666666666665</ele><time>2026-04-11T09:35:25.999Z</time></trkpt><trkpt lat="43.241912701139626" lon="12.821471661626836"><ele>1380.3333333333333</ele><time>2026-04-11T09:35:26.999Z</time></trkpt><trkpt lat="43.24192907870003" lon="12.821368476914527"><ele>1378.5</ele><time>2026-04-11T09:35:27.999Z</time></trkpt><trkpt lat="43.24193931764682" lon="12.821267730721488"><ele>1376.6666666666667</ele><time>2026-04-11T09:35:28.999Z</time></trkpt><trkpt lat="43.241938088965675" lon="12.821157428576234"><ele>1374.8333333333335</ele><time>2026-04-11T09:35:29.999Z</time></trkpt><trkpt lat="43.2419402786363" lon="12.821051620239226"><ele>1373.0</ele><time>2026-04-11T09:35:30.999Z</time></trkpt><trkpt lat="43.24194235062082" lon="12.820951497013578"><ele>1371.6666666666667</ele><time>2026-04-11T09:35:31.999Z</time></trkpt><trkpt lat="43.241929075436815" lon="12.820855352921452"><ele>1370.3333333333335</ele><time>2026-04-11T09:35:32.999Z</time></trkpt><trkpt lat="43.24194642225158" lon="12.820754745864972"><ele>1369.0</ele><time>2026-04-11T09:35:33.999Z</time></trkpt><trkpt lat="43.241930358471365" lon="12.820670327039764"><ele>1367.6666666666667</ele><time>2026-04-11T09:35:34.999Z</time></trkpt><trkpt lat="43.24193652481753" lon="12.820512078313609"><ele>1366.3333333333333</ele><time>2026-04-11T09:35:36.999Z</time></trkpt><trkpt lat="43.24196065814036" lon="12.82037818809493"><ele>1365.0</ele><time>2026-04-11T09:35:38.999Z</time></trkpt><trkpt lat="43.241981937821805" lon="12.820238671589705"><ele>1365.0</ele><time>2026-04-11T09:35:40.999Z</time></trkpt><trkpt lat="43.24200342905028" lon="12.820128398266796"><ele>1365.0</ele><time>2026-04-11T09:35:42.999Z</time></trkpt><trkpt lat="43.24206009359128" lon="12.82005634441432"><ele>1365.0</ele><time>2026-04-11T09:35:45.999Z</time></trkpt><trkpt lat="43.242155559985676" lon="12.820204535464734"><ele>1365.0</ele><time>2026-04-11T09:35:51.999Z</time></trkpt><trkpt lat="43.24218014097668" lon="12.820351603338654"><ele>1365.0</ele><time>2026-04-11T09:35:53.999Z</time></trkpt><trkpt lat="43.24217405329459" lon="12.820513380703012"><ele>1365.0</ele><time>2026-04-11T09:35:55.999Z</time></trkpt><trkpt lat="43.24217856936435" lon="12.820654843906473"><ele>1365.0</ele><time>2026-04-11T09:35:57.999Z</time></trkpt><trkpt lat="43.24218202898813" lon="12.82074184032488"><ele>1365.0</ele><time>2026-04-11T09:35:58.999Z</time></trkpt><trkpt lat="43.24219235015371" lon="12.820843645278197"><ele>1365.0</ele><time>2026-04-11T09:35:59.999Z</time></trkpt><trkpt lat="43.24220395948003" lon="12.820949733364023"><ele>1365.0</ele><time>2026-04-11T09:36:00.999Z</time></trkpt><trkpt lat="43.242228873330006" lon="12.82106479849827"><ele>1365.0</ele><time>2026-04-11T09:36:01.999Z</time></trkpt><trkpt lat="43.24225935824201" lon="12.821178461555292"><ele>1366.6</ele><time>2026-04-11T09:36:02.999Z</time></trkpt><trkpt lat="43.242283249676774" lon="12.821300962616442"><ele>1368.2</ele><time>2026-04-11T09:36:03.999Z</time></trkpt><trkpt lat="43.242305227815315" lon="12.821422119635512"><ele>1369.8000000000002</ele><time>2026-04-11T09:36:04.999Z</time></trkpt><trkpt lat="43.24231866658227" lon="12.821550036690372"><ele>1371.4</ele><time>2026-04-11T09:36:05.999Z</time></trkpt><trkpt lat="43.242335893309935" lon="12.821674038278209"><ele>1373.0</ele><time>2026-04-11T09:36:06.999Z</time></trkpt><trkpt lat="43.242358931122915" lon="12.821798437719126"><ele>1378.2</ele><time>2026-04-11T09:36:07.999Z</time></trkpt><trkpt lat="43.24238178207148" lon="12.82192489326646"><ele>1383.4</ele><time>2026-04-11T09:36:08.999Z</time></trkpt><trkpt lat="43.24240254943514" lon="12.822055890074788"><ele>1388.6000000000001</ele><time>2026-04-11T09:36:09.999Z</time></trkpt><trkpt lat="43.24242684684076" lon="12.822184697838809"><ele>1393.8000000000002</ele><time>2026-04-11T09:36:10.999Z</time></trkpt><trkpt lat="43.24244994838513" lon="12.822308043672209"><ele>1399.0</ele><time>2026-04-11T09:36:11.999Z</time></trkpt><trkpt lat="43.24247751762338" lon="12.822431270746119"><ele>1399.0</ele><time>2026-04-11T09:36:12.999Z</time></trkpt><trkpt lat="43.242509529788826" lon="12.822556958289228"><ele>1399.0</ele><time>2026-04-11T09:36:13.999Z</time></trkpt><trkpt lat="43.2425328565544" lon="12.82268503089571"><ele>1399.0</ele><time>2026-04-11T09:36:14.999Z</time></trkpt><trkpt lat="43.24255932567972" lon="12.822815205181348"><ele>1399.0</ele><time>2026-04-11T09:36:15.999Z</time></trkpt><trkpt lat="43.24258202268278" lon="12.822952025437433"><ele>1399.0</ele><time>2026-04-11T09:36:16.999Z</time></trkpt><trkpt lat="43.24260436767234" lon="12.823092468027227"><ele>1401.0</ele><time>2026-04-11T09:36:17.999Z</time></trkpt><trkpt lat="43.242627236220564" lon="12.823236665197026"><ele>1403.0</ele><time>2026-04-11T09:36:18.999Z</time></trkpt><trkpt lat="43.242653404955625" lon="12.82339045146941"><ele>1405.0</ele><time>2026-04-11T09:36:19.999Z</time></trkpt><trkpt lat="43.24267648237789" lon="12.823546081571216"><ele>1407.0</ele><time>2026-04-11T09:36:20.999Z</time></trkpt><trkpt lat="43.24268759269774" lon="12.823703050838402"><ele>1409.1999999999998</ele><time>2026-04-11T09:36:21.999Z</time></trkpt><trkpt lat="43.24271005815749" lon="12.823857555109486"><ele>1411.4</ele><time>2026-04-11T09:36:22.999Z</time></trkpt><trkpt lat="43.242730879633406" lon="12.824003661277441"><ele>1413.6</ele><time>2026-04-11T09:36:23.999Z</time></trkpt><trkpt lat="43.24275183250598" lon="12.824157392545914"><ele>1415.8000000000002</ele><time>2026-04-11T09:36:24.999Z</time></trkpt><trkpt lat="43.24276923534053" lon="12.824303901854424"><ele>1418.0</ele><time>2026-04-11T09:36:25.999Z</time></trkpt><trkpt lat="43.24278561667762" lon="12.824454474592795"><ele>1418.75</ele><time>2026-04-11T09:36:26.999Z</time></trkpt><trkpt lat="43.242805751665564" lon="12.824608504540754"><ele>1419.5</ele><time>2026-04-11T09:36:27.999Z</time></trkpt><trkpt lat="43.24282647700031" lon="12.824775925930613"><ele>1420.25</ele><time>2026-04-11T09:36:28.999Z</time></trkpt><trkpt lat="43.24285504021479" lon="12.82493544283986"><ele>1421.0</ele><time>2026-04-11T09:36:29.999Z</time></trkpt><trkpt lat="43.24288340485224" lon="12.825088075226759"><ele>1420.6</ele><time>2026-04-11T09:36:30.999Z</time></trkpt><trkpt lat="43.242912411890906" lon="12.82523235448251"><ele>1420.1999999999998</ele><time>2026-04-11T09:36:31.999Z</time></trkpt><trkpt lat="43.24293447911028" lon="12.825375449478418"><ele>1419.8000000000002</ele><time>2026-04-11T09:36:32.999Z</time></trkpt><trkpt lat="43.24296390762704" lon="12.825519929200345"><ele>1419.4</ele><time>2026-04-11T09:36:33.999Z</time></trkpt><trkpt lat="43.242996031931966" lon="12.825658323051618"><ele>1419.0</ele><time>2026-04-11T09:36:34.999Z</time></trkpt><trkpt lat="43.243034010058636" lon="12.825786153568217"><ele>1419.0</ele><time>2026-04-11T09:36:35.999Z</time></trkpt><trkpt lat="43.24307001522594" lon="12.825904068039927"><ele>1419.0</ele><time>2026-04-11T09:36:36.999Z</time></trkpt><trkpt lat="43.243100692462555" lon="12.826009114601623"><ele>1419.0</ele><time>2026-04-11T09:36:37.999Z</time></trkpt><trkpt lat="43.24313132639842" lon="12.826114890553134"><ele>1419.0</ele><time>2026-04-11T09:36:38.999Z</time></trkpt><trkpt lat="43.24316489656822" lon="12.826218091899058"><ele>1419.0</ele><time>2026-04-11T09:36:39.999Z</time></trkpt><trkpt lat="43.24320663994622" lon="12.826301000047069"><ele>1419.0</ele><time>2026-04-11T09:36:40.999Z</time></trkpt><trkpt lat="43.24328464121644" lon="12.826418858963699"><ele>1418.3333333333333</ele><time>2026-04-11T09:36:42.999Z</time></trkpt><trkpt lat="43.24334831965032" lon="12.826449971127802"><ele>1417.6666666666667</ele><time>2026-04-11T09:36:43.999Z</time></trkpt><trkpt lat="43.24342389055505" lon="12.826475751780714"><ele>1417.0</ele><time>2026-04-11T09:36:44.999Z</time></trkpt><trkpt lat="43.24351057461379" lon="12.826477151464301"><ele>1416.3333333333335</ele><time>2026-04-11T09:36:45.999Z</time></trkpt><trkpt lat="43.24360398565694" lon="12.826460879027604"><ele>1415.6666666666667</ele><time>2026-04-11T09:36:46.999Z</time></trkpt><trkpt lat="43.24370161534074" lon="12.826437014269409"><ele>1415.0</ele><time>2026-04-11T09:36:47.999Z</time></trkpt><trkpt lat="43.243797425424574" lon="12.826408896937762"><ele>1415.0</ele><time>2026-04-11T09:36:48.999Z</time></trkpt><trkpt lat="43.24389303311866" lon="12.826382425520634"><ele>1415.0</ele><time>2026-04-11T09:36:49.999Z</time></trkpt><trkpt lat="43.24398991775246" lon="12.826359434347525"><ele>1415.0</ele><time>2026-04-11T09:36:50.999Z</time></trkpt><trkpt lat="43.2440964853463" lon="12.826333155690332"><ele>1415.0</ele><time>2026-04-11T09:36:51.999Z</time></trkpt><trkpt lat="43.24419495123087" lon="12.826321391625394"><ele>1415.0</ele><time>2026-04-11T09:36:52.999Z</time></trkpt><trkpt lat="43.244296458086204" lon="12.826294203043583"><ele>1414.8</ele><time>2026-04-11T09:36:53.999Z</time></trkpt><trkpt lat="43.24439144017655" lon="12.826285248713315"><ele>1414.6</ele><time>2026-04-11T09:36:54.999Z</time></trkpt><trkpt lat="43.24448919158677" lon="12.826289252290984"><ele>1414.4</ele><time>2026-04-11T09:36:55.999Z</time></trkpt><trkpt lat="43.244580940981315" lon="12.82631421426139"><ele>1414.2</ele><time>2026-04-11T09:36:56.999Z</time></trkpt><trkpt lat="43.24466703813324" lon="12.826353941537796"><ele>1414.0</ele><time>2026-04-11T09:36:58Z</time></trkpt><trkpt lat="43.24474512937758" lon="12.826412664066845"><ele>1413.0</ele><time>2026-04-11T09:36:59Z</time></trkpt><trkpt lat="43.244812601183334" lon="12.826495502900817"><ele>1412.0</ele><time>2026-04-11T09:37:00Z</time></trkpt><trkpt lat="43.244868013822625" lon="12.826585373022091"><ele>1411.0</ele><time>2026-04-11T09:37:01Z</time></trkpt><trkpt lat="43.24492289872123" lon="12.826657776951762"><ele>1410.0</ele><time>2026-04-11T09:37:02Z</time></trkpt><trkpt lat="43.244982113020335" lon="12.826734100534921"><ele>1409.0</ele><time>2026-04-11T09:37:03Z</time></trkpt><trkpt lat="43.24503304838311" lon="12.826803595422437"><ele>1408.0</ele><time>2026-04-11T09:37:04Z</time></trkpt><trkpt lat="43.2450872628165" lon="12.826869179736605"><ele>1406.7142857142858</ele><time>2026-04-11T09:37:05Z</time></trkpt><trkpt lat="43.24514065010792" lon="12.826939717033289"><ele>1405.4285714285713</ele><time>2026-04-11T09:37:06Z</time></trkpt><trkpt lat="43.24519802846078" lon="12.827013188946383"><ele>1404.142857142857</ele><time>2026-04-11T09:37:07Z</time></trkpt><trkpt lat="43.24525283845679" lon="12.827078004590492"><ele>1402.857142857143</ele><time>2026-04-11T09:37:08Z</time></trkpt><trkpt lat="43.24530735748009" lon="12.82713846769374"><ele>1401.5714285714287</ele><time>2026-04-11T09:37:09Z</time></trkpt><trkpt lat="43.24536545326561" lon="12.827194537359167"><ele>1400.2857142857142</ele><time>2026-04-11T09:37:10Z</time></trkpt><trkpt lat="43.24542998688135" lon="12.827249854291388"><ele>1399.0</ele><time>2026-04-11T09:37:11Z</time></trkpt><trkpt lat="43.245506843881344" lon="12.827302450269032"><ele>1399.0</ele><time>2026-04-11T09:37:12Z</time></trkpt><trkpt lat="43.24558428153871" lon="12.827354421042006"><ele>1399.0</ele><time>2026-04-11T09:37:13Z</time></trkpt><trkpt lat="43.245661421080214" lon="12.827398680443956"><ele>1399.0</ele><time>2026-04-11T09:37:14Z</time></trkpt><trkpt lat="43.24573240159844" lon="12.827418737033923"><ele>1399.0</ele><time>2026-04-11T09:37:15Z</time></trkpt><trkpt lat="43.24580384915157" lon="12.827437280186125"><ele>1399.0</ele><time>2026-04-11T09:37:16Z</time></trkpt><trkpt lat="43.2458815553874" lon="12.827454334811033"><ele>1399.0</ele><time>2026-04-11T09:37:17Z</time></trkpt><trkpt lat="43.24595418942839" lon="12.827451156376954"><ele>1396.857142857143</ele><time>2026-04-11T09:37:18Z</time></trkpt><trkpt lat="43.246017586483276" lon="12.827449406193596"><ele>1394.7142857142858</ele><time>2026-04-11T09:37:19Z</time></trkpt><trkpt lat="43.246084430351914" lon="12.827440218331413"><ele>1392.5714285714284</ele><time>2026-04-11T09:37:20Z</time></trkpt><trkpt lat="43.24615725970604" lon="12.827441522815786"><ele>1390.4285714285716</ele><time>2026-04-11T09:37:21Z</time></trkpt><trkpt lat="43.246234501897504" lon="12.827451787860516"><ele>1388.2857142857144</ele><time>2026-04-11T09:37:22Z</time></trkpt><trkpt lat="43.24631365326419" lon="12.827466248602244"><ele>1386.142857142857</ele><time>2026-04-11T09:37:23Z</time></trkpt><trkpt lat="43.24639050259088" lon="12.827486501030403"><ele>1384.0</ele><time>2026-04-11T09:37:24Z</time></trkpt><trkpt lat="43.24646503951059" lon="12.82751698674663"><ele>1383.0</ele><time>2026-04-11T09:37:25Z</time></trkpt><trkpt lat="43.246540570500954" lon="12.827537564319238"><ele>1382.0</ele><time>2026-04-11T09:37:26Z</time></trkpt><trkpt lat="43.24662026456072" lon="12.827554191390645"><ele>1381.0</ele><time>2026-04-11T09:37:27Z</time></trkpt><trkpt lat="43.246700931538506" lon="12.827567880800132"><ele>1380.0</ele><time>2026-04-11T09:37:28Z</time></trkpt><trkpt lat="43.2467844463009" lon="12.82758067826377"><ele>1379.0</ele><time>2026-04-11T09:37:29Z</time></trkpt><trkpt lat="43.24686311371792" lon="12.827583568066952"><ele>1378.0</ele><time>2026-04-11T09:37:30Z</time></trkpt><trkpt lat="43.24693839885343" lon="12.827586752651124"><ele>1378.0</ele><time>2026-04-11T09:37:31Z</time></trkpt><trkpt lat="43.24701742387015" lon="12.82758659539416"><ele>1378.0</ele><time>2026-04-11T09:37:32Z</time></trkpt><trkpt lat="43.24709688291492" lon="12.82757952152335"><ele>1378.0</ele><time>2026-04-11T09:37:33Z</time></trkpt><trkpt lat="43.247169512358404" lon="12.82756616784025"><ele>1378.0</ele><time>2026-04-11T09:37:34Z</time></trkpt><trkpt lat="43.247236587046274" lon="12.827561164718226"><ele>1378.0</ele><time>2026-04-11T09:37:35Z</time></trkpt><trkpt lat="43.2473062128701" lon="12.82756594128072"><ele>1378.0</ele><time>2026-04-11T09:37:36Z</time></trkpt><trkpt lat="43.24737806424997" lon="12.827563367087803"><ele>1378.0</ele><time>2026-04-11T09:37:37Z</time></trkpt><trkpt lat="43.24747507220408" lon="12.82750013796146"><ele>1377.2</ele><time>2026-04-11T09:37:39Z</time></trkpt><trkpt lat="43.24756681687103" lon="12.82743250298508"><ele>1376.4</ele><time>2026-04-11T09:37:41Z</time></trkpt><trkpt lat="43.24767802773314" lon="12.827383746759944"><ele>1375.6000000000001</ele><time>2026-04-11T09:37:43Z</time></trkpt><trkpt lat="43.24774325150389" lon="12.827349426692006"><ele>1374.8000000000002</ele><time>2026-04-11T09:37:44Z</time></trkpt><trkpt lat="43.24781803135335" lon="12.827318688015007"><ele>1374.0</ele><time>2026-04-11T09:37:45Z</time></trkpt><trkpt lat="43.24789762884762" lon="12.827296591974127"><ele>1374.0</ele><time>2026-04-11T09:37:46Z</time></trkpt><trkpt lat="43.24797351942087" lon="12.827267915579409"><ele>1374.0</ele><time>2026-04-11T09:37:47Z</time></trkpt><trkpt lat="43.24804665561582" lon="12.827229723978206"><ele>1374.0</ele><time>2026-04-11T09:37:48Z</time></trkpt><trkpt lat="43.24812039714931" lon="12.827192816866853"><ele>1374.0</ele><time>2026-04-11T09:37:49Z</time></trkpt><trkpt lat="43.24819838583246" lon="12.82717842463636"><ele>1374.0</ele><time>2026-04-11T09:37:50Z</time></trkpt><trkpt lat="43.24827553769437" lon="12.827179172382674"><ele>1374.0</ele><time>2026-04-11T09:37:51Z</time></trkpt><trkpt lat="43.248352552413856" lon="12.827196285826595"><ele>1371.6666666666667</ele><time>2026-04-11T09:37:52Z</time></trkpt><trkpt lat="43.24843316661658" lon="12.8272088658953"><ele>1369.3333333333333</ele><time>2026-04-11T09:37:53Z</time></trkpt><trkpt lat="43.248517715519256" lon="12.827219199517113"><ele>1367.0</ele><time>2026-04-11T09:37:54Z</time></trkpt><trkpt lat="43.248600380670055" lon="12.82722903342435"><ele>1364.6666666666665</ele><time>2026-04-11T09:37:55Z</time></trkpt><trkpt lat="43.248685154477634" lon="12.827251509396614"><ele>1362.3333333333333</ele><time>2026-04-11T09:37:56Z</time></trkpt><trkpt lat="43.248768364314664" lon="12.827274190825278"><ele>1360.0</ele><time>2026-04-11T09:37:57Z</time></trkpt><trkpt lat="43.24885637868904" lon="12.827291123815561"><ele>1360.0</ele><time>2026-04-11T09:37:58Z</time></trkpt><trkpt lat="43.24894568980826" lon="12.827304006888024"><ele>1360.0</ele><time>2026-04-11T09:37:59Z</time></trkpt><trkpt lat="43.24903141099465" lon="12.827311438672844"><ele>1360.0</ele><time>2026-04-11T09:38:00Z</time></trkpt><trkpt lat="43.249121629725714" lon="12.82731581875816"><ele>1360.0</ele><time>2026-04-11T09:38:01Z</time></trkpt><trkpt lat="43.24921132073499" lon="12.827318103176623"><ele>1360.0</ele><time>2026-04-11T09:38:02Z</time></trkpt><trkpt lat="43.2492959841188" lon="12.827315550006482"><ele>1360.0</ele><time>2026-04-11T09:38:03Z</time></trkpt><trkpt lat="43.249377028078634" lon="12.827331806507443"><ele>1357.0</ele><time>2026-04-11T09:38:04Z</time></trkpt><trkpt lat="43.24946400019153" lon="12.827356825453268"><ele>1354.0</ele><time>2026-04-11T09:38:05Z</time></trkpt><trkpt lat="43.24956232151024" lon="12.827399219049465"><ele>1351.0</ele><time>2026-04-11T09:38:06Z</time></trkpt><trkpt lat="43.24965337112303" lon="12.827459602923254"><ele>1348.0</ele><time>2026-04-11T09:38:07Z</time></trkpt><trkpt lat="43.24974274083075" lon="12.827516496769368"><ele>1345.0</ele><time>2026-04-11T09:38:08Z</time></trkpt><trkpt lat="43.24983436485723" lon="12.827567053379292"><ele>1343.6</ele><time>2026-04-11T09:38:09Z</time></trkpt><trkpt lat="43.2499346281182" lon="12.82762674458889"><ele>1342.2</ele><time>2026-04-11T09:38:10Z</time></trkpt><trkpt lat="43.25003005325899" lon="12.827676007679917"><ele>1340.8000000000002</ele><time>2026-04-11T09:38:11Z</time></trkpt><trkpt lat="43.25012223528789" lon="12.827708735699927"><ele>1339.4</ele><time>2026-04-11T09:38:12Z</time></trkpt><trkpt lat="43.250212622603485" lon="12.827714277255273"><ele>1338.0</ele><time>2026-04-11T09:38:13Z</time></trkpt><trkpt lat="43.25030743930418" lon="12.827719981933946"><ele>1335.8000000000002</ele><time>2026-04-11T09:38:14Z</time></trkpt><trkpt lat="43.25041033269685" lon="12.827728086065616"><ele>1333.6</ele><time>2026-04-11T09:38:15Z</time></trkpt><trkpt lat="43.25051842913945" lon="12.827747884355308"><ele>1331.4</ele><time>2026-04-11T09:38:16Z</time></trkpt><trkpt lat="43.250631221201445" lon="12.827752127586862"><ele>1329.1999999999998</ele><time>2026-04-11T09:38:17Z</time></trkpt><trkpt lat="43.25074666947829" lon="12.82776287152084"><ele>1327.0</ele><time>2026-04-11T09:38:18Z</time></trkpt><trkpt lat="43.25087401956638" lon="12.8277703882574"><ele>1324.25</ele><time>2026-04-11T09:38:19Z</time></trkpt><trkpt lat="43.251011133818295" lon="12.827766892313647"><ele>1321.5</ele><time>2026-04-11T09:38:20Z</time></trkpt><trkpt lat="43.25114106826393" lon="12.827755815700364"><ele>1318.75</ele><time>2026-04-11T09:38:21Z</time></trkpt><trkpt lat="43.25124821529602" lon="12.827744786243905"><ele>1316.0</ele><time>2026-04-11T09:38:22Z</time></trkpt><trkpt lat="43.25133973325929" lon="12.827736309174918"><ele>1316.0</ele><time>2026-04-11T09:38:23Z</time></trkpt><trkpt lat="43.251422409397634" lon="12.827731526724484"><ele>1316.0</ele><time>2026-04-11T09:38:24Z</time></trkpt><trkpt lat="43.251502139573496" lon="12.827726620732397"><ele>1316.0</ele><time>2026-04-11T09:38:25Z</time></trkpt><trkpt lat="43.25157820304652" lon="12.827722795734624"><ele>1316.0</ele><time>2026-04-11T09:38:26Z</time></trkpt><trkpt lat="43.25166776491305" lon="12.827719861086706"><ele>1316.0</ele><time>2026-04-11T09:38:27Z</time></trkpt><trkpt lat="43.25173905885899" lon="12.827712333158468"><ele>1316.0</ele><time>2026-04-11T09:38:28Z</time></trkpt><trkpt lat="43.25180257347434" lon="12.82769967745722"><ele>1318.0</ele><time>2026-04-11T09:38:29Z</time></trkpt><trkpt lat="43.25186951411196" lon="12.827672645165885"><ele>1320.0</ele><time>2026-04-11T09:38:30Z</time></trkpt><trkpt lat="43.25194147423252" lon="12.827634619406629"><ele>1322.0</ele><time>2026-04-11T09:38:31Z</time></trkpt><trkpt lat="43.252029129538556" lon="12.827593872527544"><ele>1324.0</ele><time>2026-04-11T09:38:32Z</time></trkpt><trkpt lat="43.2522361973749" lon="12.827521153854658"><ele>1322.8333333333333</ele><time>2026-04-11T09:38:34Z</time></trkpt><trkpt lat="43.252308277796764" lon="12.827494863577058"><ele>1321.6666666666665</ele><time>2026-04-11T09:38:35Z</time></trkpt><trkpt lat="43.25238279294465" lon="12.827471592496602"><ele>1320.5</ele><time>2026-04-11T09:38:36Z</time></trkpt><trkpt lat="43.252453912388006" lon="12.827455183591319"><ele>1319.3333333333333</ele><time>2026-04-11T09:38:37Z</time></trkpt><trkpt lat="43.25258069397312" lon="12.82745622059046"><ele>1318.1666666666667</ele><time>2026-04-11T09:38:39Z</time></trkpt><trkpt lat="43.25265404921045" lon="12.827460033963128"><ele>1317.0</ele><time>2026-04-11T09:38:40Z</time></trkpt><trkpt lat="43.25271863300118" lon="12.827464135702924"><ele>1317.0</ele><time>2026-04-11T09:38:41Z</time></trkpt><trkpt lat="43.25278456895713" lon="12.827468902561584"><ele>1317.0</ele><time>2026-04-11T09:38:42Z</time></trkpt><trkpt lat="43.25286594533438" lon="12.827487833092523"><ele>1317.0</ele><time>2026-04-11T09:38:43Z</time></trkpt><trkpt lat="43.25293985582545" lon="12.82748315324801"><ele>1317.0</ele><time>2026-04-11T09:38:44Z</time></trkpt><trkpt lat="43.25301660276448" lon="12.82747493055607"><ele>1317.0</ele><time>2026-04-11T09:38:45Z</time></trkpt><trkpt lat="43.2530954879445" lon="12.827463574600374"><ele>1317.0</ele><time>2026-04-11T09:38:46Z</time></trkpt><trkpt lat="43.253180147865" lon="12.8274627985461"><ele>1316.6666666666667</ele><time>2026-04-11T09:38:47Z</time></trkpt><trkpt lat="43.253277748255904" lon="12.827461577765524"><ele>1316.3333333333333</ele><time>2026-04-11T09:38:48Z</time></trkpt><trkpt lat="43.253364959124376" lon="12.827456111291067"><ele>1316.0</ele><time>2026-04-11T09:38:49Z</time></trkpt><trkpt lat="43.253454138530266" lon="12.827451898037994"><ele>1315.6666666666665</ele><time>2026-04-11T09:38:50Z</time></trkpt><trkpt lat="43.25354142222621" lon="12.82744219037284"><ele>1315.3333333333333</ele><time>2026-04-11T09:38:51Z</time></trkpt><trkpt lat="43.253617428260625" lon="12.827433086232796"><ele>1315.0</ele><time>2026-04-11T09:38:52Z</time></trkpt><trkpt lat="43.25370349147321" lon="12.827424135103005"><ele>1315.0</ele><time>2026-04-11T09:38:53Z</time></trkpt><trkpt lat="43.25395302979011" lon="12.827433822769859"><ele>1315.0</ele><time>2026-04-11T09:38:56Z</time></trkpt><trkpt lat="43.25403327114883" lon="12.82742486228152"><ele>1315.0</ele><time>2026-04-11T09:38:57Z</time></trkpt><trkpt lat="43.25411036126776" lon="12.827404071011252"><ele>1315.0</ele><time>2026-04-11T09:38:58Z</time></trkpt><trkpt lat="43.2541919073286" lon="12.827365667755371"><ele>1313.5</ele><time>2026-04-11T09:38:59Z</time></trkpt><trkpt lat="43.25425821944715" lon="12.827297224088"><ele>1312.0</ele><time>2026-04-11T09:39:00Z</time></trkpt><trkpt lat="43.25432113670064" lon="12.82721522127087"><ele>1310.5</ele><time>2026-04-11T09:39:01Z</time></trkpt><trkpt lat="43.25439295609882" lon="12.827122089562563"><ele>1309.0</ele><time>2026-04-11T09:39:02Z</time></trkpt><trkpt lat="43.254428680205216" lon="12.82700048085257"><ele>1307.5</ele><time>2026-04-11T09:39:03Z</time></trkpt><trkpt lat="43.254454103254545" lon="12.826896427310798"><ele>1306.0</ele><time>2026-04-11T09:39:04Z</time></trkpt><trkpt lat="43.254500434608026" lon="12.82678047435381"><ele>1304.75</ele><time>2026-04-11T09:39:06Z</time></trkpt><trkpt lat="43.25459914329497" lon="12.826725028881112"><ele>1303.5</ele><time>2026-04-11T09:39:08Z</time></trkpt><trkpt lat="43.254699035185624" lon="12.826649249696843"><ele>1302.25</ele><time>2026-04-11T09:39:10Z</time></trkpt><trkpt lat="43.25488942231523" lon="12.82662255380854"><ele>1301.0</ele><time>2026-04-11T09:39:13Z</time></trkpt><trkpt lat="43.254955317023345" lon="12.826615572446652"><ele>1297.0</ele><time>2026-04-11T09:39:14Z</time></trkpt><trkpt lat="43.25502364511678" lon="12.826609214228867"><ele>1293.0</ele><time>2026-04-11T09:39:15Z</time></trkpt><trkpt lat="43.255103591898106" lon="12.82659956009417"><ele>1289.0</ele><time>2026-04-11T09:39:16Z</time></trkpt><trkpt lat="43.25518374977149" lon="12.82658907643626"><ele>1285.0</ele><time>2026-04-11T09:39:17Z</time></trkpt><trkpt lat="43.25527758103525" lon="12.826555834755634"><ele>1281.0</ele><time>2026-04-11T09:39:18Z</time></trkpt><trkpt lat="43.25534371304912" lon="12.82653137458194"><ele>1277.0</ele><time>2026-04-11T09:39:19Z</time></trkpt><trkpt lat="43.255275789008174" lon="12.82649701364054"><ele>1277.0</ele><time>2026-04-11T09:39:20Z</time></trkpt><trkpt lat="43.25526161380924" lon="12.826393785748031"><ele>1277.0</ele><time>2026-04-11T09:39:29Z</time></trkpt><trkpt lat="43.255183362564026" lon="12.826493343877404"><ele>1277.0</ele><time>2026-04-11T09:39:31Z</time></trkpt><trkpt lat="43.25521906073473" lon="12.826389784529876"><ele>1277.0</ele><time>2026-04-11T09:39:34Z</time></trkpt><trkpt lat="43.255101596052704" lon="12.826308622505355"><ele>1277.0</ele><time>2026-04-11T09:39:36Z</time></trkpt><trkpt lat="43.255027936691675" lon="12.826263750181266"><ele>1277.0</ele><time>2026-04-11T09:39:38Z</time></trkpt><trkpt lat="43.254950235250746" lon="12.826248770682179"><ele>1277.0</ele><time>2026-04-11T09:39:40Z</time></trkpt><trkpt lat="43.254931724631476" lon="12.826332245947677"><ele>1277.0</ele><time>2026-04-11T09:39:50Z</time></trkpt><trkpt lat="43.25489264685186" lon="12.826406202035878"><ele>1277.0</ele><time>2026-04-11T09:40:07Z</time></trkpt><trkpt lat="43.25483191663428" lon="12.826464397079167"><ele>1277.0</ele><time>2026-04-11T09:40:12Z</time></trkpt><trkpt lat="43.25472552350643" lon="12.826578105557715"><ele>1277.0</ele><time>2026-04-11T09:40:31Z</time></trkpt><trkpt lat="43.25470182925468" lon="12.826487134713929"><ele>1278.7142857142856</ele><time>2026-04-11T09:40:37Z</time></trkpt><trkpt lat="43.25467956897105" lon="12.826405599706549"><ele>1280.4285714285713</ele><time>2026-04-11T09:40:39Z</time></trkpt><trkpt lat="43.254638632103585" lon="12.826327971575559"><ele>1282.142857142857</ele><time>2026-04-11T09:40:42Z</time></trkpt><trkpt lat="43.25458525060125" lon="12.826261488852229"><ele>1283.8571428571427</ele><time>2026-04-11T09:40:45Z</time></trkpt><trkpt lat="43.254521366437956" lon="12.826191742092862"><ele>1285.5714285714284</ele><time>2026-04-11T09:40:48Z</time></trkpt><trkpt lat="43.25446048502529" lon="12.826117671636242"><ele>1287.2857142857142</ele><time>2026-04-11T09:40:51Z</time></trkpt><trkpt lat="43.254422769033" lon="12.82603426427909"><ele>1289.0</ele><time>2026-04-11T09:40:54Z</time></trkpt><trkpt lat="43.25440926431127" lon="12.825936062455886"><ele>1289.0</ele><time>2026-04-11T09:40:57Z</time></trkpt><trkpt lat="43.25438738360105" lon="12.825845543012402"><ele>1289.0</ele><time>2026-04-11T09:40:59Z</time></trkpt><trkpt lat="43.25437597161795" lon="12.825734990602989"><ele>1289.0</ele><time>2026-04-11T09:41:02Z</time></trkpt><trkpt lat="43.254380624991384" lon="12.82564097316337"><ele>1289.0</ele><time>2026-04-11T09:41:04Z</time></trkpt><trkpt lat="43.25438504063583" lon="12.825533668261828"><ele>1289.0</ele><time>2026-04-11T09:41:06Z</time></trkpt><trkpt lat="43.25437744873419" lon="12.825444430661666"><ele>1289.0</ele><time>2026-04-11T09:41:08Z</time></trkpt><trkpt lat="43.25435553414505" lon="12.825360836377277"><ele>1289.0</ele><time>2026-04-11T09:41:10Z</time></trkpt><trkpt lat="43.25432588260369" lon="12.825236216342235"><ele>1286.0</ele><time>2026-04-11T09:41:12Z</time></trkpt><trkpt lat="43.2542852542019" lon="12.825070653115938"><ele>1283.0</ele><time>2026-04-11T09:41:14Z</time></trkpt><trkpt lat="43.2542606633968" lon="12.824975536819865"><ele>1280.0</ele><time>2026-04-11T09:41:15Z</time></trkpt><trkpt lat="43.254236823774825" lon="12.8248871267898"><ele>1277.0</ele><time>2026-04-11T09:41:16Z</time></trkpt><trkpt lat="43.25421686267042" lon="12.824792500534063"><ele>1274.0</ele><time>2026-04-11T09:41:17Z</time></trkpt><trkpt lat="43.254174837584095" lon="12.824653200413472"><ele>1274.0</ele><time>2026-04-11T09:41:19Z</time></trkpt><trkpt lat="43.25414709624913" lon="12.824492658558418"><ele>1274.0</ele><time>2026-04-11T09:41:21Z</time></trkpt><trkpt lat="43.25412888640447" lon="12.824404690970338"><ele>1274.0</ele><time>2026-04-11T09:41:22Z</time></trkpt><trkpt lat="43.25408765912672" lon="12.824282666843251"><ele>1274.0</ele><time>2026-04-11T09:41:24Z</time></trkpt><trkpt lat="43.25405241447311" lon="12.824171822286091"><ele>1274.0</ele><time>2026-04-11T09:41:26Z</time></trkpt><trkpt lat="43.25399216437357" lon="12.824047086926692"><ele>1275.2</ele><time>2026-04-11T09:41:28Z</time></trkpt><trkpt lat="43.25396710121113" lon="12.823963070709686"><ele>1276.4</ele><time>2026-04-11T09:41:29Z</time></trkpt><trkpt lat="43.25394206290518" lon="12.82387924336164"><ele>1277.6</ele><time>2026-04-11T09:41:30Z</time></trkpt><trkpt lat="43.25392589499936" lon="12.823727494067807"><ele>1278.8</ele><time>2026-04-11T09:41:32Z</time></trkpt><trkpt lat="43.25391109608613" lon="12.823591530669415"><ele>1280.0</ele><time>2026-04-11T09:41:34Z</time></trkpt><trkpt lat="43.25387020579626" lon="12.82343949883392"><ele>1275.2</ele><time>2026-04-11T09:41:36Z</time></trkpt><trkpt lat="43.253837942172055" lon="12.823324041596491"><ele>1270.4</ele><time>2026-04-11T09:41:38Z</time></trkpt><trkpt lat="43.25378275501476" lon="12.823199128484205"><ele>1265.6</ele><time>2026-04-11T09:41:40Z</time></trkpt><trkpt lat="43.253747362152446" lon="12.823048503251929"><ele>1260.8</ele><time>2026-04-11T09:41:42Z</time></trkpt><trkpt lat="43.253713723257405" lon="12.822948047517052"><ele>1256.0</ele><time>2026-04-11T09:41:43Z</time></trkpt><trkpt lat="43.25368979561651" lon="12.822866618992107"><ele>1256.0</ele><time>2026-04-11T09:41:44Z</time></trkpt><trkpt lat="43.253652400034504" lon="12.822778567421468"><ele>1256.0</ele><time>2026-04-11T09:41:45Z</time></trkpt><trkpt lat="43.253615302903384" lon="12.822691651865464"><ele>1256.0</ele><time>2026-04-11T09:41:46Z</time></trkpt><trkpt lat="43.253566328831596" lon="12.822595310517883"><ele>1256.0</ele><time>2026-04-11T09:41:47Z</time></trkpt><trkpt lat="43.25352083465042" lon="12.822493560428164"><ele>1256.0</ele><time>2026-04-11T09:41:48Z</time></trkpt><trkpt lat="43.25346859450284" lon="12.822386911290053"><ele>1256.0</ele><time>2026-04-11T09:41:49Z</time></trkpt><trkpt lat="43.253434258250266" lon="12.822259503869102"><ele>1250.8</ele><time>2026-04-11T09:41:50Z</time></trkpt><trkpt lat="43.25338751610363" lon="12.822140739670736"><ele>1245.6</ele><time>2026-04-11T09:41:51Z</time></trkpt><trkpt lat="43.25332694225578" lon="12.822020456859432"><ele>1240.4</ele><time>2026-04-11T09:41:52Z</time></trkpt><trkpt lat="43.25325812245817" lon="12.821874119750882"><ele>1235.2</ele><time>2026-04-11T09:41:53Z</time></trkpt><trkpt lat="43.253202803689625" lon="12.821776704882652"><ele>1230.0</ele><time>2026-04-11T09:41:54Z</time></trkpt><trkpt lat="43.25316039500593" lon="12.821668534112717"><ele>1230.4</ele><time>2026-04-11T09:41:55Z</time></trkpt><trkpt lat="43.2531182532256" lon="12.821575691848725"><ele>1230.8</ele><time>2026-04-11T09:41:56Z</time></trkpt><trkpt lat="43.25304095335593" lon="12.821432106876214"><ele>1231.2</ele><time>2026-04-11T09:41:58Z</time></trkpt><trkpt lat="43.25296428519081" lon="12.82127141428643"><ele>1231.6</ele><time>2026-04-11T09:42:00Z</time></trkpt><trkpt lat="43.25291330553584" lon="12.82120363472851"><ele>1232.0</ele><time>2026-04-11T09:42:01Z</time></trkpt><trkpt lat="43.25285243680986" lon="12.821145101995658"><ele>1232.0</ele><time>2026-04-11T09:42:02Z</time></trkpt><trkpt lat="43.252780050877824" lon="12.821021679996134"><ele>1232.0</ele><time>2026-04-11T09:42:04Z</time></trkpt><trkpt lat="43.25274304246922" lon="12.820947151842727"><ele>1232.0</ele><time>2026-04-11T09:42:05Z</time></trkpt><trkpt lat="43.25271150079005" lon="12.820865245128203"><ele>1232.0</ele><time>2026-04-11T09:42:06Z</time></trkpt><trkpt lat="43.25268432940528" lon="12.82078675510508"><ele>1232.0</ele><time>2026-04-11T09:42:07Z</time></trkpt><trkpt lat="43.252648093505584" lon="12.820695270454387"><ele>1232.0</ele><time>2026-04-11T09:42:08Z</time></trkpt><trkpt lat="43.25261925367401" lon="12.8205993808219"><ele>1226.1666666666667</ele><time>2026-04-11T09:42:09Z</time></trkpt><trkpt lat="43.252587439542836" lon="12.820509319556445"><ele>1220.3333333333335</ele><time>2026-04-11T09:42:10Z</time></trkpt><trkpt lat="43.252529194434935" lon="12.820367814418805"><ele>1214.5</ele><time>2026-04-11T09:42:12Z</time></trkpt><trkpt lat="43.25250007946081" lon="12.820287607379898"><ele>1208.6666666666667</ele><time>2026-04-11T09:42:13Z</time></trkpt><trkpt lat="43.252466791854566" lon="12.820201569847141"><ele>1202.8333333333333</ele><time>2026-04-11T09:42:14Z</time></trkpt><trkpt lat="43.25243760522784" lon="12.820123859547335"><ele>1197.0</ele><time>2026-04-11T09:42:15Z</time></trkpt><trkpt lat="43.252406732827446" lon="12.820024713551183"><ele>1192.4</ele><time>2026-04-11T09:42:16Z</time></trkpt><trkpt lat="43.252381977376025" lon="12.819942433650251"><ele>1187.8000000000002</ele><time>2026-04-11T09:42:17Z</time></trkpt><trkpt lat="43.25236295779176" lon="12.819794449570411"><ele>1183.2</ele><time>2026-04-11T09:42:19Z</time></trkpt><trkpt lat="43.25234167541263" lon="12.81963719107246"><ele>1178.6000000000001</ele><time>2026-04-11T09:42:21Z</time></trkpt><trkpt lat="43.2523419206869" lon="12.81949683106327"><ele>1174.0</ele><time>2026-04-11T09:42:23Z</time></trkpt><trkpt lat="43.252310747054466" lon="12.819331406148109"><ele>1173.8333333333333</ele><time>2026-04-11T09:42:25Z</time></trkpt><trkpt lat="43.252284160300206" lon="12.81923506573158"><ele>1173.6666666666665</ele><time>2026-04-11T09:42:26Z</time></trkpt><trkpt lat="43.252252502791194" lon="12.819134628492156"><ele>1173.5</ele><time>2026-04-11T09:42:27Z</time></trkpt><trkpt lat="43.25222565526908" lon="12.819019943998134"><ele>1173.3333333333333</ele><time>2026-04-11T09:42:28Z</time></trkpt><trkpt lat="43.25219780370121" lon="12.818905358148672"><ele>1173.1666666666667</ele><time>2026-04-11T09:42:29Z</time></trkpt><trkpt lat="43.25217411383683" lon="12.818795880174667"><ele>1173.0</ele><time>2026-04-11T09:42:30Z</time></trkpt><trkpt lat="43.25214821428387" lon="12.818645414479525"><ele>1173.0</ele><time>2026-04-11T09:42:32Z</time></trkpt><trkpt lat="43.252126424777785" lon="12.81853673513581"><ele>1173.0</ele><time>2026-04-11T09:42:34Z</time></trkpt><trkpt lat="43.252136390147434" lon="12.818447626094803"><ele>1173.0</ele><time>2026-04-11T09:42:36Z</time></trkpt><trkpt lat="43.25210584407252" lon="12.818334846681525"><ele>1173.0</ele><time>2026-04-11T09:42:39Z</time></trkpt><trkpt lat="43.25204494451419" lon="12.818272576775632"><ele>1173.0</ele><time>2026-04-11T09:42:41Z</time></trkpt><trkpt lat="43.25197955239357" lon="12.818168745064991"><ele>1173.0</ele><time>2026-04-11T09:42:43Z</time></trkpt><trkpt lat="43.251926409090785" lon="12.818040717956794"><ele>1166.25</ele><time>2026-04-11T09:42:45Z</time></trkpt><trkpt lat="43.25186580138663" lon="12.81793137957559"><ele>1159.5</ele><time>2026-04-11T09:42:47Z</time></trkpt><trkpt lat="43.25179904533337" lon="12.817863276363944"><ele>1152.75</ele><time>2026-04-11T09:42:49Z</time></trkpt><trkpt lat="43.25172743395876" lon="12.817794051555664"><ele>1146.0</ele><time>2026-04-11T09:42:51Z</time></trkpt><trkpt lat="43.234553470010425" lon="12.825170288350698"><ele>1174.1666666666667</ele><time>2026-04-11T09:25:14Z</time></trkpt><trkpt lat="43.23457307700348" lon="12.825082644868733"><ele>1202.3333333333333</ele><time>2026-04-11T09:25:27Z</time></trkpt><trkpt lat="43.2346107155556" lon="12.824975470327075"><ele>1230.5</ele><time>2026-04-11T09:25:30Z</time></trkpt><trkpt lat="43.234636928011" lon="12.824890437228975"><ele>1258.6666666666665</ele><time>2026-04-11T09:25:35Z</time></trkpt><trkpt lat="43.23460327262867" lon="12.824799604262813"><ele>1286.8333333333333</ele><time>2026-04-11T09:25:39Z</time></trkpt><trkpt lat="43.23454391982393" lon="12.824699531722837"><ele>1315.0</ele><time>2026-04-11T09:25:43Z</time></trkpt><trkpt lat="43.23448137832897" lon="12.824720329379652"><ele>1315.0</ele><time>2026-04-11T09:25:45Z</time></trkpt><trkpt lat="43.23441976108928" lon="12.824741989307762"><ele>1315.0</ele><time>2026-04-11T09:25:50Z</time></trkpt><trkpt lat="43.234340476616175" lon="12.82474026634462"><ele>1315.0</ele><time>2026-04-11T09:25:53Z</time></trkpt><trkpt lat="43.23462464434007" lon="12.824758779649374"><ele>1315.0</ele><time>2026-04-11T09:26:53Z</time></trkpt><trkpt lat="43.234708040613796" lon="12.824782851409907"><ele>1315.0</ele><time>2026-04-11T09:26:55Z</time></trkpt><trkpt lat="43.23478021534055" lon="12.824801740769832"><ele>1315.0</ele><time>2026-04-11T09:26:57Z</time></trkpt><trkpt lat="43.23484592220068" lon="12.824831656578667"><ele>1315.0</ele><time>2026-04-11T09:26:59Z</time></trkpt><trkpt lat="43.23492945507161" lon="12.824863455816335"><ele>1315.0</ele><time>2026-04-11T09:27:01Z</time></trkpt><trkpt lat="43.234994077616" lon="12.824879517026575"><ele>1315.0</ele><time>2026-04-11T09:27:04Z</time></trkpt><trkpt lat="43.23501563240438" lon="12.82496093366689"><ele>1315.0</ele><time>2026-04-11T09:27:11Z</time></trkpt><trkpt lat="43.23507195766262" lon="12.825049352391423"><ele>1315.0</ele><time>2026-04-11T09:27:15Z</time></trkpt><trkpt lat="43.235106320426674" lon="12.825134667156046"><ele>1318.0</ele><time>2026-04-11T09:27:17Z</time></trkpt><trkpt lat="43.23510130038767" lon="12.825227093259047"><ele>1321.0</ele><time>2026-04-11T09:27:21Z</time></trkpt><trkpt lat="43.235115561303495" lon="12.825320084713608"><ele>1324.0</ele><time>2026-04-11T09:27:24Z</time></trkpt><trkpt lat="43.235147525587045" lon="12.825428243447941"><ele>1327.0</ele><time>2026-04-11T09:27:26Z</time></trkpt><trkpt lat="43.23516169373937" lon="12.82553145809077"><ele>1330.0</ele><time>2026-04-11T09:27:28Z</time></trkpt><trkpt lat="43.23516115454175" lon="12.825635612843227"><ele>1333.0</ele><time>2026-04-11T09:27:31Z</time></trkpt><trkpt lat="43.23517297068964" lon="12.82574960106296"><ele>1333.0</ele><time>2026-04-11T09:27:34Z</time></trkpt><trkpt lat="43.23519462010559" lon="12.82583087218425"><ele>1333.0</ele><time>2026-04-11T09:27:37Z</time></trkpt><trkpt lat="43.235240460812705" lon="12.825939018959454"><ele>1333.0</ele><time>2026-04-11T09:27:39Z</time></trkpt><trkpt lat="43.235300655728615" lon="12.825722016537208"><ele>1333.0</ele><time>2026-04-11T09:27:40Z</time></trkpt><trkpt lat="43.235373423169364" lon="12.82574723240117"><ele>1333.0</ele><time>2026-04-11T09:27:45Z</time></trkpt><trkpt lat="43.235476762447576" lon="12.825807919677114"><ele>1333.0</ele><time>2026-04-11T09:27:49Z</time></trkpt><trkpt lat="43.235568787148615" lon="12.825840406791606"><ele>1333.0</ele><time>2026-04-11T09:27:51Z</time></trkpt><trkpt lat="43.236231519161585" lon="12.826120105320346"><ele>1335.3333333333333</ele><time>2026-04-11T09:28:05Z</time></trkpt><trkpt lat="43.2363123452733" lon="12.82615145218405"><ele>1337.6666666666667</ele><time>2026-04-11T09:28:07Z</time></trkpt><trkpt lat="43.23605002681141" lon="12.82584819075707"><ele>1340.0</ele><time>2026-04-11T09:28:30Z</time></trkpt><trkpt lat="43.2359982429966" lon="12.825771345838529"><ele>1340.0</ele><time>2026-04-11T09:28:33Z</time></trkpt><trkpt lat="43.23596341877451" lon="12.825698146600033"><ele>1340.0</ele><time>2026-04-11T09:28:36Z</time></trkpt><trkpt lat="43.235780038063105" lon="12.825533189347645"><ele>1340.0</ele><time>2026-04-11T09:28:58Z</time></trkpt><trkpt lat="43.23576535756245" lon="12.825426144517115"><ele>1340.0</ele><time>2026-04-11T09:28:59Z</time></trkpt><trkpt lat="43.23566575634865" lon="12.825254167956208"><ele>1340.0</ele><time>2026-04-11T09:29:01Z</time></trkpt><trkpt lat="43.23575704510073" lon="12.825187139288388"><ele>1340.0</ele><time>2026-04-11T09:29:08Z</time></trkpt><trkpt lat="43.23579189822188" lon="12.825100717504005"><ele>1340.0</ele><time>2026-04-11T09:29:13Z</time></trkpt><trkpt lat="43.23585514087077" lon="12.825065349688922"><ele>1340.0</ele><time>2026-04-11T09:29:15Z</time></trkpt><trkpt lat="43.2359557421074" lon="12.825045851984154"><ele>1340.0</ele><time>2026-04-11T09:29:17Z</time></trkpt><trkpt lat="43.236057975543176" lon="12.824984394348471"><ele>1335.2</ele><time>2026-04-11T09:29:20Z</time></trkpt><trkpt lat="43.236143919043066" lon="12.824961903664155"><ele>1330.4</ele><time>2026-04-11T09:29:22Z</time></trkpt><trkpt lat="43.23619765468237" lon="12.824906577844489"><ele>1325.6</ele><time>2026-04-11T09:29:24Z</time></trkpt><trkpt lat="43.236329549258706" lon="12.824855848820214"><ele>1320.8</ele><time>2026-04-11T09:29:27Z</time></trkpt><trkpt lat="43.23643259322851" lon="12.824817037233208"><ele>1316.0</ele><time>2026-04-11T09:29:29Z</time></trkpt><trkpt lat="43.236545221355286" lon="12.8247895293447"><ele>1316.0</ele><time>2026-04-11T09:29:31Z</time></trkpt><trkpt lat="43.236613557446226" lon="12.82477528977785"><ele>1316.0</ele><time>2026-04-11T09:29:33Z</time></trkpt><trkpt lat="43.236679530511765" lon="12.824758637785196"><ele>1316.0</ele><time>2026-04-11T09:29:35Z</time></trkpt><trkpt lat="43.236778875351035" lon="12.82480721724999"><ele>1316.0</ele><time>2026-04-11T09:29:58.001Z</time></trkpt><trkpt lat="43.23684447437875" lon="12.82486501316958"><ele>1316.0</ele><time>2026-04-11T09:30:00.001Z</time></trkpt><trkpt lat="43.236934708459884" lon="12.824909312126728"><ele>1316.0</ele><time>2026-04-11T09:30:02.001Z</time></trkpt><trkpt lat="43.23705439358682" lon="12.824971858154782"><ele>1316.0</ele><time>2026-04-11T09:30:07.001Z</time></trkpt><trkpt lat="43.23699411960297" lon="12.824849082904281"><ele>1316.0</ele><time>2026-04-11T09:30:30Z</time></trkpt><trkpt lat="43.23690861635714" lon="12.824630529206367"><ele>1316.0</ele><time>2026-04-11T09:30:31Z</time></trkpt><trkpt lat="43.236837106803264" lon="12.824485015599176"><ele>1316.0</ele><time>2026-04-11T09:30:32Z</time></trkpt><trkpt lat="43.236779630439685" lon="12.824366643946444"><ele>1312.1999999999998</ele><time>2026-04-11T09:30:33Z</time></trkpt><trkpt lat="43.236727561636016" lon="12.824287734494336"><ele>1308.3999999999999</ele><time>2026-04-11T09:30:34Z</time></trkpt><trkpt lat="43.23665998565155" lon="12.824163427820269"><ele>1304.6</ele><time>2026-04-11T09:30:36Z</time></trkpt><trkpt lat="43.236585437575194" lon="12.824024223169545"><ele>1300.8</ele><time>2026-04-11T09:30:38Z</time></trkpt><trkpt lat="43.2365347694456" lon="12.823954087011462"><ele>1297.0</ele><time>2026-04-11T09:30:39Z</time></trkpt><trkpt lat="43.23646904160044" lon="12.823926333638129"><ele>1297.0</ele><time>2026-04-11T09:30:40Z</time></trkpt><trkpt lat="43.236399529127524" lon="12.823929227700756"><ele>1297.0</ele><time>2026-04-11T09:30:41Z</time></trkpt><trkpt lat="43.236297107937325" lon="12.823870295546138"><ele>1297.0</ele><time>2026-04-11T09:30:43Z</time></trkpt><trkpt lat="43.236243064049276" lon="12.823818117158554"><ele>1297.0</ele><time>2026-04-11T09:30:45Z</time></trkpt><trkpt lat="43.23607617928179" lon="12.824149864656729"><ele>1301.5</ele><time>2026-04-11T09:30:46Z</time></trkpt><trkpt lat="43.235930223297295" lon="12.824355371564685"><ele>1306.0</ele><time>2026-04-11T09:30:47Z</time></trkpt><trkpt lat="43.23587419748155" lon="12.82442084915532"><ele>1310.5</ele><time>2026-04-11T09:30:48Z</time></trkpt><trkpt lat="43.23577556657942" lon="12.824428401582168"><ele>1315.0</ele><time>2026-04-11T09:30:49Z</time></trkpt><trkpt lat="43.235681114476016" lon="12.824444266008035"><ele>1315.6666666666665</ele><time>2026-04-11T09:30:50Z</time></trkpt><trkpt lat="43.23559458552304" lon="12.824483046763469"><ele>1316.3333333333333</ele><time>2026-04-11T09:30:52Z</time></trkpt><trkpt lat="43.23552530788504" lon="12.824472760941049"><ele>1317.0</ele><time>2026-04-11T09:30:55Z</time></trkpt><trkpt lat="43.23545474431442" lon="12.824473686842715"><ele>1317.6666666666667</ele><time>2026-04-11T09:30:59Z</time></trkpt><trkpt lat="43.235367154269916" lon="12.824486318497868"><ele>1318.3333333333335</ele><time>2026-04-11T09:31:02Z</time></trkpt><trkpt lat="43.235268610672435" lon="12.824471313295097"><ele>1319.0</ele><time>2026-04-11T09:31:05Z</time></trkpt><trkpt lat="43.23519701043014" lon="12.824467528849699"><ele>1318.9999999999998</ele><time>2026-04-11T09:31:08Z</time></trkpt><trkpt lat="43.23514012289714" lon="12.824517128422986"><ele>1319.0</ele><time>2026-04-11T09:31:11Z</time></trkpt><trkpt lat="43.235071151751264" lon="12.82456520542292"><ele>1319.0</ele><time>2026-04-11T09:31:15Z</time></trkpt><trkpt lat="43.23500369102228" lon="12.824615966685489"><ele>1319.0</ele><time>2026-04-11T09:31:19Z</time></trkpt><trkpt lat="43.23494345265235" lon="12.824651464441558"><ele>1319.0</ele><time>2026-04-11T09:31:23Z</time></trkpt><trkpt lat="43.23488469934089" lon="12.824694763656419"><ele>1318.9999999999998</ele><time>2026-04-11T09:31:27Z</time></trkpt><trkpt lat="43.234824358237745" lon="12.824745175878471"><ele>1319.0</ele><time>2026-04-11T09:31:30Z</time></trkpt><trkpt lat="43.23476346251959" lon="12.824809478027204"><ele>1318.3333333333335</ele><time>2026-04-11T09:31:35Z</time></trkpt><trkpt lat="43.23471435967826" lon="12.824892271460927"><ele>1317.6666666666667</ele><time>2026-04-11T09:31:40Z</time></trkpt><trkpt lat="43.23465656827531" lon="12.824971170100518"><ele>1317.0</ele><time>2026-04-11T09:31:42Z</time></trkpt><trkpt lat="43.23460747555389" lon="12.825043456853845"><ele>1316.3333333333333</ele><time>2026-04-11T09:31:46Z</time></trkpt><trkpt lat="43.234549976975536" lon="12.825129631172734"><ele>1315.6666666666665</ele><time>2026-04-11T09:31:49Z</time></trkpt><trkpt lat="43.23452154673612" lon="12.825217263284511"><ele>1315.0</ele><time>2026-04-11T09:31:55Z</time></trkpt><trkpt lat="43.23456853757671" lon="12.825288090849968"><ele>1317.0</ele><time>2026-04-11T09:32:56.999Z</time></trkpt><trkpt lat="43.23461953951379" lon="12.825340689614048"><ele>1319.0</ele><time>2026-04-11T09:32:58.999Z</time></trkpt><trkpt lat="43.23471916851407" lon="12.82543651651901"><ele>1321.0</ele><time>2026-04-11T09:33:00.999Z</time></trkpt><trkpt lat="43.234781927344436" lon="12.825465438832257"><ele>1323.0</ele><time>2026-04-11T09:33:01.999Z</time></trkpt><trkpt lat="43.234851829905736" lon="12.825497763668244"><ele>1325.0</ele><time>2026-04-11T09:33:02.999Z</time></trkpt><trkpt lat="43.234956141665535" lon="12.82555288137585"><ele>1327.0</ele><time>2026-04-11T09:33:03.999Z</time></trkpt><trkpt lat="43.235040929127834" lon="12.825626570643003"><ele>1328.0</ele><time>2026-04-11T09:33:04.999Z</time></trkpt><trkpt lat="43.23512319400517" lon="12.825647546913299"><ele>1329.0</ele><time>2026-04-11T09:33:05.999Z</time></trkpt><trkpt lat="43.23520017528797" lon="12.825662534693992"><ele>1330.0</ele><time>2026-04-11T09:33:06.999Z</time></trkpt><trkpt lat="43.235263087456985" lon="12.8256999815792"><ele>1331.0</ele><time>2026-04-11T09:33:07.999Z</time></trkpt><trkpt lat="43.23533181398033" lon="12.825735238541458"><ele>1332.0</ele><time>2026-04-11T09:33:08.999Z</time></trkpt><trkpt lat="43.23541094900799" lon="12.825762136551557"><ele>1333.0</ele><time>2026-04-11T09:33:09.999Z</time></trkpt><trkpt lat="43.23550248630857" lon="12.825791639837144"><ele>1333.0</ele><time>2026-04-11T09:33:10.999Z</time></trkpt><trkpt lat="43.23560238279915" lon="12.825824862969036"><ele>1333.0</ele><time>2026-04-11T09:33:11.999Z</time></trkpt><trkpt lat="43.23570623907243" lon="12.82585749030767"><ele>1333.0</ele><time>2026-04-11T09:33:12.999Z</time></trkpt><trkpt lat="43.23581145812367" lon="12.825896640022677"><ele>1333.0</ele><time>2026-04-11T09:33:13.999Z</time></trkpt><trkpt lat="43.23590907465736" lon="12.825941828533548"><ele>1333.0</ele><time>2026-04-11T09:33:14.999Z</time></trkpt><trkpt lat="43.23599588030061" lon="12.82598074753089"><ele>1336.8000000000002</ele><time>2026-04-11T09:33:15.999Z</time></trkpt><trkpt lat="43.23608539037033" lon="12.826020767266751"><ele>1340.6</ele><time>2026-04-11T09:33:16.999Z</time></trkpt><trkpt lat="43.23617389107159" lon="12.826064646583808"><ele>1344.4</ele><time>2026-04-11T09:33:17.999Z</time></trkpt><trkpt lat="43.23626912120918" lon="12.826113815405293"><ele>1348.1999999999998</ele><time>2026-04-11T09:33:18.999Z</time></trkpt><trkpt lat="43.23635991474126" lon="12.826161750954123"><ele>1352.0</ele><time>2026-04-11T09:33:19.999Z</time></trkpt><trkpt lat="43.23645670764364" lon="12.82620102888061"><ele>1353.0</ele><time>2026-04-11T09:33:20.999Z</time></trkpt><trkpt lat="43.236576136618865" lon="12.826275099946841"><ele>1354.0</ele><time>2026-04-11T09:33:21.999Z</time></trkpt><trkpt lat="43.2366957156226" lon="12.826309349515192"><ele>1355.0</ele><time>2026-04-11T09:33:22.999Z</time></trkpt><trkpt lat="43.23681254359098" lon="12.82637847501232"><ele>1356.0</ele><time>2026-04-11T09:33:23.999Z</time></trkpt><trkpt lat="43.23693921662868" lon="12.826453362060702"><ele>1356.0</ele><time>2026-04-11T09:33:24.999Z</time></trkpt><trkpt lat="43.23708496694384" lon="12.826537667257947"><ele>1356.0</ele><time>2026-04-11T09:33:25.999Z</time></trkpt><trkpt lat="43.2372249667527" lon="12.82662245776031"><ele>1356.0</ele><time>2026-04-11T09:33:26.999Z</time></trkpt><trkpt lat="43.23736841525658" lon="12.826706462528147"><ele>1357.25</ele><time>2026-04-11T09:33:27.999Z</time></trkpt><trkpt lat="43.237514618796155" lon="12.826792998995785"><ele>1358.5</ele><time>2026-04-11T09:33:28.999Z</time></trkpt><trkpt lat="43.23764289790715" lon="12.826875260952718"><ele>1359.75</ele><time>2026-04-11T09:33:29.999Z</time></trkpt><trkpt lat="43.237768491609295" lon="12.826942345437724"><ele>1361.0</ele><time>2026-04-11T09:33:30.999Z</time></trkpt><trkpt lat="43.237885437442074" lon="12.826999894866528"><ele>1361.6</ele><time>2026-04-11T09:33:31.999Z</time></trkpt><trkpt lat="43.23800309747696" lon="12.827050710591275"><ele>1362.1999999999998</ele><time>2026-04-11T09:33:32.999Z</time></trkpt><trkpt lat="43.23810679185678" lon="12.827100521179846"><ele>1362.8000000000002</ele><time>2026-04-11T09:33:33.999Z</time></trkpt><trkpt lat="43.23820010074921" lon="12.827148271294167"><ele>1363.4</ele><time>2026-04-11T09:33:34.999Z</time></trkpt><trkpt lat="43.23830090329456" lon="12.827189480152294"><ele>1364.0</ele><time>2026-04-11T09:33:35.999Z</time></trkpt><trkpt lat="43.23840434155688" lon="12.827258857545448"><ele>1365.0</ele><time>2026-04-11T09:33:36.999Z</time></trkpt><trkpt lat="43.23851256809354" lon="12.827287719386911"><ele>1366.0</ele><time>2026-04-11T09:33:37.999Z</time></trkpt><trkpt lat="43.23861699513995" lon="12.827385681892633"><ele>1367.0</ele><time>2026-04-11T09:33:38.999Z</time></trkpt><trkpt lat="43.23872046033209" lon="12.827452661090577"><ele>1368.0</ele><time>2026-04-11T09:33:39.999Z</time></trkpt><trkpt lat="43.238808194961756" lon="12.827536393033755"><ele>1368.0</ele><time>2026-04-11T09:33:40.999Z</time></trkpt><trkpt lat="43.23888921018377" lon="12.827632142404843"><ele>1368.0</ele><time>2026-04-11T09:33:41.999Z</time></trkpt><trkpt lat="43.2389630599736" lon="12.827740607066389"><ele>1368.0</ele><time>2026-04-11T09:33:42.999Z</time></trkpt><trkpt lat="43.239031557049735" lon="12.827883847254652"><ele>1368.0</ele><time>2026-04-11T09:33:43.999Z</time></trkpt><trkpt lat="43.239112927502575" lon="12.827999070915315"><ele>1370.4</ele><time>2026-04-11T09:33:44.999Z</time></trkpt><trkpt lat="43.23918397010421" lon="12.828100294586156"><ele>1372.8000000000002</ele><time>2026-04-11T09:33:45.999Z</time></trkpt><trkpt lat="43.23923597003785" lon="12.828176632188617"><ele>1375.2</ele><time>2026-04-11T09:33:46.999Z</time></trkpt><trkpt lat="43.23929917717687" lon="12.828274615536163"><ele>1377.6</ele><time>2026-04-11T09:33:47.999Z</time></trkpt><trkpt lat="43.239369175406146" lon="12.828363491497047"><ele>1380.0</ele><time>2026-04-11T09:33:48.999Z</time></trkpt><trkpt lat="43.239438583421396" lon="12.82845849151977"><ele>1379.4</ele><time>2026-04-11T09:33:49.999Z</time></trkpt><trkpt lat="43.23953269897146" lon="12.82853380120972"><ele>1378.8</ele><time>2026-04-11T09:33:50.999Z</time></trkpt><trkpt lat="43.23962696930811" lon="12.828569815757447"><ele>1378.1999999999998</ele><time>2026-04-11T09:33:51.999Z</time></trkpt><trkpt lat="43.23971678710106" lon="12.82862787876034"><ele>1377.6</ele><time>2026-04-11T09:33:52.999Z</time></trkpt><trkpt lat="43.239823361997374" lon="12.828658009704336"><ele>1377.0</ele><time>2026-04-11T09:33:53.999Z</time></trkpt><trkpt lat="43.23991934003004" lon="12.828656703314016"><ele>1378.3333333333333</ele><time>2026-04-11T09:33:54.999Z</time></trkpt><trkpt lat="43.23999315621124" lon="12.828642800629305"><ele>1379.6666666666667</ele><time>2026-04-11T09:33:55.999Z</time></trkpt><trkpt lat="43.24006470890395" lon="12.82859767107214"><ele>1381.0</ele><time>2026-04-11T09:33:56.999Z</time></trkpt><trkpt lat="43.240124632801106" lon="12.828545662936111"><ele>1382.3333333333335</ele><time>2026-04-11T09:33:57.999Z</time></trkpt><trkpt lat="43.2401816991915" lon="12.828425011836043"><ele>1383.6666666666667</ele><time>2026-04-11T09:33:59.999Z</time></trkpt><trkpt lat="43.24022307252296" lon="12.828272018763426"><ele>1385.0</ele><time>2026-04-11T09:34:01.999Z</time></trkpt><trkpt lat="43.240244071928764" lon="12.828163456080581"><ele>1385.0</ele><time>2026-04-11T09:34:02.999Z</time></trkpt><trkpt lat="43.24025906713127" lon="12.828006827908505"><ele>1385.0</ele><time>2026-04-11T09:34:03.999Z</time></trkpt><trkpt lat="43.24030165184606" lon="12.827847084168587"><ele>1385.0</ele><time>2026-04-11T09:34:04.999Z</time></trkpt><trkpt lat="43.24031612398691" lon="12.82766711938126"><ele>1385.0</ele><time>2026-04-11T09:34:05.999Z</time></trkpt><trkpt lat="43.240360194696144" lon="12.827489289625621"><ele>1384.3333333333335</ele><time>2026-04-11T09:34:06.999Z</time></trkpt><trkpt lat="43.24038638068039" lon="12.82729842475364"><ele>1383.6666666666667</ele><time>2026-04-11T09:34:07.999Z</time></trkpt><trkpt lat="43.24041782412435" lon="12.8270816544438"><ele>1383.0</ele><time>2026-04-11T09:34:08.999Z</time></trkpt><trkpt lat="43.2404578559312" lon="12.826873665858052"><ele>1383.5</ele><time>2026-04-11T09:34:09.999Z</time></trkpt><trkpt lat="43.24049864667482" lon="12.826683127129254"><ele>1384.0</ele><time>2026-04-11T09:34:10.999Z</time></trkpt><trkpt lat="43.240538469591584" lon="12.826498210580418"><ele>1384.5</ele><time>2026-04-11T09:34:11.999Z</time></trkpt><trkpt lat="43.24058075616573" lon="12.826321832988496"><ele>1385.0</ele><time>2026-04-11T09:34:12.999Z</time></trkpt><trkpt lat="43.240601962043236" lon="12.826147815675359"><ele>1386.25</ele><time>2026-04-11T09:34:13.999Z</time></trkpt><trkpt lat="43.240610820608644" lon="12.82597605997388"><ele>1387.5</ele><time>2026-04-11T09:34:14.999Z</time></trkpt><trkpt lat="43.24057973395637" lon="12.825816787516855"><ele>1388.75</ele><time>2026-04-11T09:34:15.999Z</time></trkpt><trkpt lat="43.24056005094498" lon="12.825651338770879"><ele>1390.0</ele><time>2026-04-11T09:34:16.999Z</time></trkpt><trkpt lat="43.24054153414879" lon="12.825497936834722"><ele>1390.0</ele><time>2026-04-11T09:34:17.999Z</time></trkpt><trkpt lat="43.24052262951231" lon="12.825248664730976"><ele>1390.0</ele><time>2026-04-11T09:34:18.999Z</time></trkpt><trkpt lat="43.240544409402744" lon="12.825071481202004"><ele>1390.0</ele><time>2026-04-11T09:34:19.999Z</time></trkpt><trkpt lat="43.240568631607545" lon="12.82491107845823"><ele>1390.0</ele><time>2026-04-11T09:34:20.999Z</time></trkpt><trkpt lat="43.24059319253671" lon="12.824767789026483"><ele>1389.75</ele><time>2026-04-11T09:34:21.999Z</time></trkpt><trkpt lat="43.240621416901035" lon="12.82461537828909"><ele>1389.5</ele><time>2026-04-11T09:34:22.999Z</time></trkpt><trkpt lat="43.240650382811765" lon="12.82446336209783"><ele>1389.25</ele><time>2026-04-11T09:34:23.999Z</time></trkpt><trkpt lat="43.240687449905415" lon="12.824308093931258"><ele>1389.0</ele><time>2026-04-11T09:34:24.999Z</time></trkpt><trkpt lat="43.24073047532271" lon="12.824172812813217"><ele>1390.0</ele><time>2026-04-11T09:34:25.999Z</time></trkpt><trkpt lat="43.24083291781277" lon="12.823994384402381"><ele>1391.0</ele><time>2026-04-11T09:34:26.999Z</time></trkpt><trkpt lat="43.24089215328254" lon="12.823926782245271"><ele>1392.0</ele><time>2026-04-11T09:34:27.999Z</time></trkpt><trkpt lat="43.24098064040795" lon="12.823827057909563"><ele>1393.0</ele><time>2026-04-11T09:34:29.999Z</time></trkpt><trkpt lat="43.24106698960435" lon="12.82372730826833"><ele>1393.0</ele><time>2026-04-11T09:34:31.999Z</time></trkpt><trkpt lat="43.241135658165604" lon="12.823645289350251"><ele>1393.0</ele><time>2026-04-11T09:34:32.999Z</time></trkpt><trkpt lat="43.24121658713909" lon="12.82359351665658"><ele>1393.0</ele><time>2026-04-11T09:34:34.999Z</time></trkpt><trkpt lat="43.24129301517064" lon="12.823572229449242"><ele>1393.0</ele><time>2026-04-11T09:34:36.999Z</time></trkpt><trkpt lat="43.24158461778812" lon="12.824144652967897"><ele>1393.0</ele><time>2026-04-11T09:34:37.999Z</time></trkpt><trkpt lat="43.24168500600538" lon="12.824192259158727"><ele>1393.0</ele><time>2026-04-11T09:34:39.999Z</time></trkpt><trkpt lat="43.24173548775978" lon="12.824109565547918"><ele>1393.0</ele><time>2026-04-11T09:34:44.999Z</time></trkpt><trkpt lat="43.241659184260726" lon="12.824070469088252"><ele>1393.0</ele><time>2026-04-11T09:34:46.999Z</time></trkpt><trkpt lat="43.241597683126514" lon="12.8240064017862"><ele>1393.0</ele><time>2026-04-11T09:34:47.999Z</time></trkpt><trkpt lat="43.24153178073716" lon="12.823918950552484"><ele>1393.0</ele><time>2026-04-11T09:34:49.999Z</time></trkpt><trkpt lat="43.24144465202508" lon="12.823813805518322"><ele>1393.0</ele><time>2026-04-11T09:34:51.999Z</time></trkpt><trkpt lat="43.241370918198236" lon="12.823728753921738"><ele>1393.0</ele><time>2026-04-11T09:34:53.999Z</time></trkpt><trkpt lat="43.241327014130846" lon="12.823645143887843"><ele>1393.0</ele><time>2026-04-11T09:34:55.999Z</time></trkpt><trkpt lat="43.241267863748774" lon="12.823586383969609"><ele>1393.0</ele><time>2026-04-11T09:34:57.999Z</time></trkpt><trkpt lat="43.241205391835365" lon="12.823552214109327"><ele>1393.0</ele><time>2026-04-11T09:35:00.999Z</time></trkpt><trkpt lat="43.24127111833389" lon="12.823464300577292"><ele>1393.0</ele><time>2026-04-11T09:35:04.999Z</time></trkpt><trkpt lat="43.241329095924534" lon="12.82336133611894"><ele>1393.4</ele><time>2026-04-11T09:35:06.999Z</time></trkpt><trkpt lat="43.241376654839534" lon="12.82322765305509"><ele>1393.8000000000002</ele><time>2026-04-11T09:35:08.999Z</time></trkpt><trkpt lat="43.24142124378747" lon="12.82307227064812"><ele>1394.2</ele><time>2026-04-11T09:35:10.999Z</time></trkpt><trkpt lat="43.24146084249572" lon="12.822985979516043"><ele>1394.6</ele><time>2026-04-11T09:35:11.999Z</time></trkpt><trkpt lat="43.24147626994466" lon="12.822865977597408"><ele>1395.0</ele><time>2026-04-11T09:35:12.999Z</time></trkpt><trkpt lat="43.24152296514128" lon="12.822781419825727"><ele>1395.0</ele><time>2026-04-11T09:35:13.999Z</time></trkpt><trkpt lat="43.24155494810363" lon="12.822684398685713"><ele>1395.0</ele><time>2026-04-11T09:35:14.999Z</time></trkpt><trkpt lat="43.24158753957458" lon="12.822582521535873"><ele>1395.0</ele><time>2026-04-11T09:35:15.999Z</time></trkpt><trkpt lat="43.24160813851233" lon="12.822479625959863"><ele>1395.0</ele><time>2026-04-11T09:35:16.999Z</time></trkpt><trkpt lat="43.2416378079225" lon="12.822380671538184"><ele>1395.0</ele><time>2026-04-11T09:35:17.999Z</time></trkpt><trkpt lat="43.24168459185289" lon="12.822292803570301"><ele>1395.0</ele><time>2026-04-11T09:35:18.999Z</time></trkpt><trkpt lat="43.241705411866555" lon="12.822180864937653"><ele>1392.8</ele><time>2026-04-11T09:35:19.999Z</time></trkpt><trkpt lat="43.24174370907849" lon="12.822072967284669"><ele>1390.6</ele><time>2026-04-11T09:35:20.999Z</time></trkpt><trkpt lat="43.24179072217918" lon="12.821979820917889"><ele>1388.4</ele><time>2026-04-11T09:35:21.999Z</time></trkpt><trkpt lat="43.241843214759065" lon="12.821805000691501"><ele>1386.2</ele><time>2026-04-11T09:35:23.999Z</time></trkpt><trkpt lat="43.241874601095624" lon="12.821693733915406"><ele>1384.0</ele><time>2026-04-11T09:35:24.999Z</time></trkpt><trkpt lat="43.241886545845546" lon="12.82158128896237"><ele>1382.1666666666665</ele><time>2026-04-11T09:35:25.999Z</time></trkpt><trkpt lat="43.241912701139626" lon="12.821471661626836"><ele>1380.3333333333333</ele><time>2026-04-11T09:35:26.999Z</time></trkpt><trkpt lat="43.24192907870003" lon="12.821368476914527"><ele>1378.5</ele><time>2026-04-11T09:35:27.999Z</time></trkpt><trkpt lat="43.24193931764682" lon="12.821267730721488"><ele>1376.6666666666667</ele><time>2026-04-11T09:35:28.999Z</time></trkpt><trkpt lat="43.241938088965675" lon="12.821157428576234"><ele>1374.8333333333335</ele><time>2026-04-11T09:35:29.999Z</time></trkpt><trkpt lat="43.2419402786363" lon="12.821051620239226"><ele>1373.0</ele><time>2026-04-11T09:35:30.999Z</time></trkpt><trkpt lat="43.24194235062082" lon="12.820951497013578"><ele>1371.6666666666667</ele><time>2026-04-11T09:35:31.999Z</time></trkpt><trkpt lat="43.241929075436815" lon="12.820855352921452"><ele>1370.3333333333335</ele><time>2026-04-11T09:35:32.999Z</time></trkpt><trkpt lat="43.24194642225158" lon="12.820754745864972"><ele>1369.0</ele><time>2026-04-11T09:35:33.999Z</time></trkpt><trkpt lat="43.241930358471365" lon="12.820670327039764"><ele>1367.6666666666667</ele><time>2026-04-11T09:35:34.999Z</time></trkpt><trkpt lat="43.24193652481753" lon="12.820512078313609"><ele>1366.3333333333333</ele><time>2026-04-11T09:35:36.999Z</time></trkpt><trkpt lat="43.24196065814036" lon="12.82037818809493"><ele>1365.0</ele><time>2026-04-11T09:35:38.999Z</time></trkpt><trkpt lat="43.241981937821805" lon="12.820238671589705"><ele>1365.0</ele><time>2026-04-11T09:35:40.999Z</time></trkpt><trkpt lat="43.24200342905028" lon="12.820128398266796"><ele>1365.0</ele><time>2026-04-11T09:35:42.999Z</time></trkpt><trkpt lat="43.24206009359128" lon="12.82005634441432"><ele>1365.0</ele><time>2026-04-11T09:35:45.999Z</time></trkpt><trkpt lat="43.242155559985676" lon="12.820204535464734"><ele>1365.0</ele><time>2026-04-11T09:35:51.999Z</time></trkpt><trkpt lat="43.24218014097668" lon="12.820351603338654"><ele>1365.0</ele><time>2026-04-11T09:35:53.999Z</time></trkpt><trkpt lat="43.24217405329459" lon="12.820513380703012"><ele>1365.0</ele><time>2026-04-11T09:35:55.999Z</time></trkpt><trkpt lat="43.24217856936435" lon="12.820654843906473"><ele>1365.0</ele><time>2026-04-11T09:35:57.999Z</time></trkpt><trkpt lat="43.24218202898813" lon="12.82074184032488"><ele>1365.0</ele><time>2026-04-11T09:35:58.999Z</time></trkpt><trkpt lat="43.24219235015371" lon="12.820843645278197"><ele>1365.0</ele><time>2026-04-11T09:35:59.999Z</time></trkpt><trkpt lat="43.24220395948003" lon="12.820949733364023"><ele>1365.0</ele><time>2026-04-11T09:36:00.999Z</time></trkpt><trkpt lat="43.242228873330006" lon="12.82106479849827"><ele>1365.0</ele><time>2026-04-11T09:36:01.999Z</time></trkpt><trkpt lat="43.24225935824201" lon="12.821178461555292"><ele>1366.6</ele><time>2026-04-11T09:36:02.999Z</time></trkpt><trkpt lat="43.242283249676774" lon="12.821300962616442"><ele>1368.2</ele><time>2026-04-11T09:36:03.999Z</time></trkpt><trkpt lat="43.242305227815315" lon="12.821422119635512"><ele>1369.8000000000002</ele><time>2026-04-11T09:36:04.999Z</time></trkpt><trkpt lat="43.24231866658227" lon="12.821550036690372"><ele>1371.4</ele><time>2026-04-11T09:36:05.999Z</time></trkpt><trkpt lat="43.242335893309935" lon="12.821674038278209"><ele>1373.0</ele><time>2026-04-11T09:36:06.999Z</time></trkpt><trkpt lat="43.242358931122915" lon="12.821798437719126"><ele>1378.2</ele><time>2026-04-11T09:36:07.999Z</time></trkpt><trkpt lat="43.24238178207148" lon="12.82192489326646"><ele>1383.4</ele><time>2026-04-11T09:36:08.999Z</time></trkpt><trkpt lat="43.24240254943514" lon="12.822055890074788"><ele>1388.6000000000001</ele><time>2026-04-11T09:36:09.999Z</time></trkpt><trkpt lat="43.24242684684076" lon="12.822184697838809"><ele>1393.8000000000002</ele><time>2026-04-11T09:36:10.999Z</time></trkpt><trkpt lat="43.24244994838513" lon="12.822308043672209"><ele>1399.0</ele><time>2026-04-11T09:36:11.999Z</time></trkpt><trkpt lat="43.24247751762338" lon="12.822431270746119"><ele>1399.0</ele><time>2026-04-11T09:36:12.999Z</time></trkpt><trkpt lat="43.242509529788826" lon="12.822556958289228"><ele>1399.0</ele><time>2026-04-11T09:36:13.999Z</time></trkpt><trkpt lat="43.2425328565544" lon="12.82268503089571"><ele>1399.0</ele><time>2026-04-11T09:36:14.999Z</time></trkpt><trkpt lat="43.24255932567972" lon="12.822815205181348"><ele>1399.0</ele><time>2026-04-11T09:36:15.999Z</time></trkpt><trkpt lat="43.24258202268278" lon="12.822952025437433"><ele>1399.0</ele><time>2026-04-11T09:36:16.999Z</time></trkpt><trkpt lat="43.24260436767234" lon="12.823092468027227"><ele>1401.0</ele><time>2026-04-11T09:36:17.999Z</time></trkpt><trkpt lat="43.242627236220564" lon="12.823236665197026"><ele>1403.0</ele><time>2026-04-11T09:36:18.999Z</time></trkpt><trkpt lat="43.242653404955625" lon="12.82339045146941"><ele>1405.0</ele><time>2026-04-11T09:36:19.999Z</time></trkpt><trkpt lat="43.24267648237789" lon="12.823546081571216"><ele>1407.0</ele><time>2026-04-11T09:36:20.999Z</time></trkpt><trkpt lat="43.24268759269774" lon="12.823703050838402"><ele>1409.1999999999998</ele><time>2026-04-11T09:36:21.999Z</time></trkpt><trkpt lat="43.24271005815749" lon="12.823857555109486"><ele>1411.4</ele><time>2026-04-11T09:36:22.999Z</time></trkpt><trkpt lat="43.242730879633406" lon="12.824003661277441"><ele>1413.6</ele><time>2026-04-11T09:36:23.999Z</time></trkpt><trkpt lat="43.24275183250598" lon="12.824157392545914"><ele>1415.8000000000002</ele><time>2026-04-11T09:36:24.999Z</time></trkpt><trkpt lat="43.24276923534053" lon="12.824303901854424"><ele>1418.0</ele><time>2026-04-11T09:36:25.999Z</time></trkpt><trkpt lat="43.24278561667762" lon="12.824454474592795"><ele>1418.75</ele><time>2026-04-11T09:36:26.999Z</time></trkpt><trkpt lat="43.242805751665564" lon="12.824608504540754"><ele>1419.5</ele><time>2026-04-11T09:36:27.999Z</time></trkpt><trkpt lat="43.24282647700031" lon="12.824775925930613"><ele>1420.25</ele><time>2026-04-11T09:36:28.999Z</time></trkpt><trkpt lat="43.24285504021479" lon="12.82493544283986"><ele>1421.0</ele><time>2026-04-11T09:36:29.999Z</time></trkpt><trkpt lat="43.24288340485224" lon="12.825088075226759"><ele>1420.6</ele><time>2026-04-11T09:36:30.999Z</time></trkpt><trkpt lat="43.242912411890906" lon="12.82523235448251"><ele>1420.1999999999998</ele><time>2026-04-11T09:36:31.999Z</time></trkpt><trkpt lat="43.24293447911028" lon="12.825375449478418"><ele>1419.8000000000002</ele><time>2026-04-11T09:36:32.999Z</time></trkpt><trkpt lat="43.24296390762704" lon="12.825519929200345"><ele>1419.4</ele><time>2026-04-11T09:36:33.999Z</time></trkpt><trkpt lat="43.242996031931966" lon="12.825658323051618"><ele>1419.0</ele><time>2026-04-11T09:36:34.999Z</time></trkpt><trkpt lat="43.243034010058636" lon="12.825786153568217"><ele>1419.0</ele><time>2026-04-11T09:36:35.999Z</time></trkpt><trkpt lat="43.24307001522594" lon="12.825904068039927"><ele>1419.0</ele><time>2026-04-11T09:36:36.999Z</time></trkpt><trkpt lat="43.243100692462555" lon="12.826009114601623"><ele>1419.0</ele><time>2026-04-11T09:36:37.999Z</time></trkpt><trkpt lat="43.24313132639842" lon="12.826114890553134"><ele>1419.0</ele><time>2026-04-11T09:36:38.999Z</time></trkpt><trkpt lat="43.24316489656822" lon="12.826218091899058"><ele>1419.0</ele><time>2026-04-11T09:36:39.999Z</time></trkpt><trkpt lat="43.24320663994622" lon="12.826301000047069"><ele>1419.0</ele><time>2026-04-11T09:36:40.999Z</time></trkpt><trkpt lat="43.24328464121644" lon="12.826418858963699"><ele>1418.3333333333333</ele><time>2026-04-11T09:36:42.999Z</time></trkpt><trkpt lat="43.24334831965032" lon="12.826449971127802"><ele>1417.6666666666667</ele><time>2026-04-11T09:36:43.999Z</time></trkpt><trkpt lat="43.24342389055505" lon="12.826475751780714"><ele>1417.0</ele><time>2026-04-11T09:36:44.999Z</time></trkpt><trkpt lat="43.24351057461379" lon="12.826477151464301"><ele>1416.3333333333335</ele><time>2026-04-11T09:36:45.999Z</time></trkpt><trkpt lat="43.24360398565694" lon="12.826460879027604"><ele>1415.6666666666667</ele><time>2026-04-11T09:36:46.999Z</time></trkpt><trkpt lat="43.24370161534074" lon="12.826437014269409"><ele>1415.0</ele><time>2026-04-11T09:36:47.999Z</time></trkpt><trkpt lat="43.243797425424574" lon="12.826408896937762"><ele>1415.0</ele><time>2026-04-11T09:36:48.999Z</time></trkpt><trkpt lat="43.24389303311866" lon="12.826382425520634"><ele>1415.0</ele><time>2026-04-11T09:36:49.999Z</time></trkpt><trkpt lat="43.24398991775246" lon="12.826359434347525"><ele>1415.0</ele><time>2026-04-11T09:36:50.999Z</time></trkpt><trkpt lat="43.2440964853463" lon="12.826333155690332"><ele>1415.0</ele><time>2026-04-11T09:36:51.999Z</time></trkpt><trkpt lat="43.24419495123087" lon="12.826321391625394"><ele>1415.0</ele><time>2026-04-11T09:36:52.999Z</time></trkpt><trkpt lat="43.244296458086204" lon="12.826294203043583"><ele>1414.8</ele><time>2026-04-11T09:36:53.999Z</time></trkpt><trkpt lat="43.24439144017655" lon="12.826285248713315"><ele>1414.6</ele><time>2026-04-11T09:36:54.999Z</time></trkpt><trkpt lat="43.24448919158677" lon="12.826289252290984"><ele>1414.4</ele><time>2026-04-11T09:36:55.999Z</time></trkpt><trkpt lat="43.244580940981315" lon="12.82631421426139"><ele>1414.2</ele><time>2026-04-11T09:36:56.999Z</time></trkpt><trkpt lat="43.24466703813324" lon="12.826353941537796"><ele>1414.0</ele><time>2026-04-11T09:36:58Z</time></trkpt><trkpt lat="43.24474512937758" lon="12.826412664066845"><ele>1413.0</ele><time>2026-04-11T09:36:59Z</time></trkpt><trkpt lat="43.244812601183334" lon="12.826495502900817"><ele>1412.0</ele><time>2026-04-11T09:37:00Z</time></trkpt><trkpt lat="43.244868013822625" lon="12.826585373022091"><ele>1411.0</ele><time>2026-04-11T09:37:01Z</time></trkpt><trkpt lat="43.24492289872123" lon="12.826657776951762"><ele>1410.0</ele><time>2026-04-11T09:37:02Z</time></trkpt><trkpt lat="43.244982113020335" lon="12.826734100534921"><ele>1409.0</ele><time>2026-04-11T09:37:03Z</time></trkpt><trkpt lat="43.24503304838311" lon="12.826803595422437"><ele>1408.0</ele><time>2026-04-11T09:37:04Z</time></trkpt><trkpt lat="43.2450872628165" lon="12.826869179736605"><ele>1406.7142857142858</ele><time>2026-04-11T09:37:05Z</time></trkpt><trkpt lat="43.24514065010792" lon="12.826939717033289"><ele>1405.4285714285713</ele><time>2026-04-11T09:37:06Z</time></trkpt><trkpt lat="43.24519802846078" lon="12.827013188946383"><ele>1404.142857142857</ele><time>2026-04-11T09:37:07Z</time></trkpt><trkpt lat="43.24525283845679" lon="12.827078004590492"><ele>1402.857142857143</ele><time>2026-04-11T09:37:08Z</time></trkpt><trkpt lat="43.24530735748009" lon="12.82713846769374"><ele>1401.5714285714287</ele><time>2026-04-11T09:37:09Z</time></trkpt><trkpt lat="43.24536545326561" lon="12.827194537359167"><ele>1400.2857142857142</ele><time>2026-04-11T09:37:10Z</time></trkpt><trkpt lat="43.24542998688135" lon="12.827249854291388"><ele>1399.0</ele><time>2026-04-11T09:37:11Z</time></trkpt><trkpt lat="43.245506843881344" lon="12.827302450269032"><ele>1399.0</ele><time>2026-04-11T09:37:12Z</time></trkpt><trkpt lat="43.24558428153871" lon="12.827354421042006"><ele>1399.0</ele><time>2026-04-11T09:37:13Z</time></trkpt><trkpt lat="43.245661421080214" lon="12.827398680443956"><ele>1399.0</ele><time>2026-04-11T09:37:14Z</time></trkpt><trkpt lat="43.24573240159844" lon="12.827418737033923"><ele>1399.0</ele><time>2026-04-11T09:37:15Z</time></trkpt><trkpt lat="43.24580384915157" lon="12.827437280186125"><ele>1399.0</ele><time>2026-04-11T09:37:16Z</time></trkpt><trkpt lat="43.2458815553874" lon="12.827454334811033"><ele>1399.0</ele><time>2026-04-11T09:37:17Z</time></trkpt><trkpt lat="43.24595418942839" lon="12.827451156376954"><ele>1396.857142857143</ele><time>2026-04-11T09:37:18Z</time></trkpt><trkpt lat="43.246017586483276" lon="12.827449406193596"><ele>1394.7142857142858</ele><time>2026-04-11T09:37:19Z</time></trkpt><trkpt lat="43.246084430351914" lon="12.827440218331413"><ele>1392.5714285714284</ele><time>2026-04-11T09:37:20Z</time></trkpt><trkpt lat="43.24615725970604" lon="12.827441522815786"><ele>1390.4285714285716</ele><time>2026-04-11T09:37:21Z</time></trkpt><trkpt lat="43.246234501897504" lon="12.827451787860516"><ele>1388.2857142857144</ele><time>2026-04-11T09:37:22Z</time></trkpt><trkpt lat="43.24631365326419" lon="12.827466248602244"><ele>1386.142857142857</ele><time>2026-04-11T09:37:23Z</time></trkpt><trkpt lat="43.24639050259088" lon="12.827486501030403"><ele>1384.0</ele><time>2026-04-11T09:37:24Z</time></trkpt><trkpt lat="43.24646503951059" lon="12.82751698674663"><ele>1383.0</ele><time>2026-04-11T09:37:25Z</time></trkpt><trkpt lat="43.246540570500954" lon="12.827537564319238"><ele>1382.0</ele><time>2026-04-11T09:37:26Z</time></trkpt><trkpt lat="43.24662026456072" lon="12.827554191390645"><ele>1381.0</ele><time>2026-04-11T09:37:27Z</time></trkpt><trkpt lat="43.246700931538506" lon="12.827567880800132"><ele>1380.0</ele><time>2026-04-11T09:37:28Z</time></trkpt><trkpt lat="43.2467844463009" lon="12.82758067826377"><ele>1379.0</ele><time>2026-04-11T09:37:29Z</time></trkpt><trkpt lat="43.24686311371792" lon="12.827583568066952"><ele>1378.0</ele><time>2026-04-11T09:37:30Z</time></trkpt><trkpt lat="43.24693839885343" lon="12.827586752651124"><ele>1378.0</ele><time>2026-04-11T09:37:31Z</time></trkpt><trkpt lat="43.24701742387015" lon="12.82758659539416"><ele>1378.0</ele><time>2026-04-11T09:37:32Z</time></trkpt><trkpt lat="43.24709688291492" lon="12.82757952152335"><ele>1378.0</ele><time>2026-04-11T09:37:33Z</time></trkpt><trkpt lat="43.247169512358404" lon="12.82756616784025"><ele>1378.0</ele><time>2026-04-11T09:37:34Z</time></trkpt><trkpt lat="43.247236587046274" lon="12.827561164718226"><ele>1378.0</ele><time>2026-04-11T09:37:35Z</time></trkpt><trkpt lat="43.2473062128701" lon="12.82756594128072"><ele>1378.0</ele><time>2026-04-11T09:37:36Z</time></trkpt><trkpt lat="43.24737806424997" lon="12.827563367087803"><ele>1378.0</ele><time>2026-04-11T09:37:37Z</time></trkpt><trkpt lat="43.24747507220408" lon="12.82750013796146"><ele>1377.2</ele><time>2026-04-11T09:37:39Z</time></trkpt><trkpt lat="43.24756681687103" lon="12.82743250298508"><ele>1376.4</ele><time>2026-04-11T09:37:41Z</time></trkpt><trkpt lat="43.24767802773314" lon="12.827383746759944"><ele>1375.6000000000001</ele><time>2026-04-11T09:37:43Z</time></trkpt><trkpt lat="43.24774325150389" lon="12.827349426692006"><ele>1374.8000000000002</ele><time>2026-04-11T09:37:44Z</time></trkpt><trkpt lat="43.24781803135335" lon="12.827318688015007"><ele>1374.0</ele><time>2026-04-11T09:37:45Z</time></trkpt><trkpt lat="43.24789762884762" lon="12.827296591974127"><ele>1374.0</ele><time>2026-04-11T09:37:46Z</time></trkpt><trkpt lat="43.24797351942087" lon="12.827267915579409"><ele>1374.0</ele><time>2026-04-11T09:37:47Z</time></trkpt><trkpt lat="43.24804665561582" lon="12.827229723978206"><ele>1374.0</ele><time>2026-04-11T09:37:48Z</time></trkpt><trkpt lat="43.24812039714931" lon="12.827192816866853"><ele>1374.0</ele><time>2026-04-11T09:37:49Z</time></trkpt><trkpt lat="43.24819838583246" lon="12.82717842463636"><ele>1374.0</ele><time>2026-04-11T09:37:50Z</time></trkpt><trkpt lat="43.24827553769437" lon="12.827179172382674"><ele>1374.0</ele><time>2026-04-11T09:37:51Z</time></trkpt><trkpt lat="43.248352552413856" lon="12.827196285826595"><ele>1371.6666666666667</ele><time>2026-04-11T09:37:52Z</time></trkpt><trkpt lat="43.24843316661658" lon="12.8272088658953"><ele>1369.3333333333333</ele><time>2026-04-11T09:37:53Z</time></trkpt><trkpt lat="43.248517715519256" lon="12.827219199517113"><ele>1367.0</ele><time>2026-04-11T09:37:54Z</time></trkpt><trkpt lat="43.248600380670055" lon="12.82722903342435"><ele>1364.6666666666665</ele><time>2026-04-11T09:37:55Z</time></trkpt><trkpt lat="43.248685154477634" lon="12.827251509396614"><ele>1362.3333333333333</ele><time>2026-04-11T09:37:56Z</time></trkpt><trkpt lat="43.248768364314664" lon="12.827274190825278"><ele>1360.0</ele><time>2026-04-11T09:37:57Z</time></trkpt><trkpt lat="43.24885637868904" lon="12.827291123815561"><ele>1360.0</ele><time>2026-04-11T09:37:58Z</time></trkpt><trkpt lat="43.24894568980826" lon="12.827304006888024"><ele>1360.0</ele><time>2026-04-11T09:37:59Z</time></trkpt><trkpt lat="43.24903141099465" lon="12.827311438672844"><ele>1360.0</ele><time>2026-04-11T09:38:00Z</time></trkpt><trkpt lat="43.249121629725714" lon="12.82731581875816"><ele>1360.0</ele><time>2026-04-11T09:38:01Z</time></trkpt><trkpt lat="43.24921132073499" lon="12.827318103176623"><ele>1360.0</ele><time>2026-04-11T09:38:02Z</time></trkpt><trkpt lat="43.2492959841188" lon="12.827315550006482"><ele>1360.0</ele><time>2026-04-11T09:38:03Z</time></trkpt><trkpt lat="43.249377028078634" lon="12.827331806507443"><ele>1357.0</ele><time>2026-04-11T09:38:04Z</time></trkpt><trkpt lat="43.24946400019153" lon="12.827356825453268"><ele>1354.0</ele><time>2026-04-11T09:38:05Z</time></trkpt><trkpt lat="43.24956232151024" lon="12.827399219049465"><ele>1351.0</ele><time>2026-04-11T09:38:06Z</time></trkpt><trkpt lat="43.24965337112303" lon="12.827459602923254"><ele>1348.0</ele><time>2026-04-11T09:38:07Z</time></trkpt><trkpt lat="43.24974274083075" lon="12.827516496769368"><ele>1345.0</ele><time>2026-04-11T09:38:08Z</time></trkpt><trkpt lat="43.24983436485723" lon="12.827567053379292"><ele>1343.6</ele><time>2026-04-11T09:38:09Z</time></trkpt><trkpt lat="43.2499346281182" lon="12.82762674458889"><ele>1342.2</ele><time>2026-04-11T09:38:10Z</time></trkpt><trkpt lat="43.25003005325899" lon="12.827676007679917"><ele>1340.8000000000002</ele><time>2026-04-11T09:38:11Z</time></trkpt><trkpt lat="43.25012223528789" lon="12.827708735699927"><ele>1339.4</ele><time>2026-04-11T09:38:12Z</time></trkpt><trkpt lat="43.250212622603485" lon="12.827714277255273"><ele>1338.0</ele><time>2026-04-11T09:38:13Z</time></trkpt><trkpt lat="43.25030743930418" lon="12.827719981933946"><ele>1335.8000000000002</ele><time>2026-04-11T09:38:14Z</time></trkpt><trkpt lat="43.25041033269685" lon="12.827728086065616"><ele>1333.6</ele><time>2026-04-11T09:38:15Z</time></trkpt><trkpt lat="43.25051842913945" lon="12.827747884355308"><ele>1331.4</ele><time>2026-04-11T09:38:16Z</time></trkpt><trkpt lat="43.250631221201445" lon="12.827752127586862"><ele>1329.1999999999998</ele><time>2026-04-11T09:38:17Z</time></trkpt><trkpt lat="43.25074666947829" lon="12.82776287152084"><ele>1327.0</ele><time>2026-04-11T09:38:18Z</time></trkpt><trkpt lat="43.25087401956638" lon="12.8277703882574"><ele>1324.25</ele><time>2026-04-11T09:38:19Z</time></trkpt><trkpt lat="43.251011133818295" lon="12.827766892313647"><ele>1321.5</ele><time>2026-04-11T09:38:20Z</time></trkpt><trkpt lat="43.25114106826393" lon="12.827755815700364"><ele>1318.75</ele><time>2026-04-11T09:38:21Z</time></trkpt><trkpt lat="43.25124821529602" lon="12.827744786243905"><ele>1316.0</ele><time>2026-04-11T09:38:22Z</time></trkpt><trkpt lat="43.25133973325929" lon="12.827736309174918"><ele>1316.0</ele><time>2026-04-11T09:38:23Z</time></trkpt><trkpt lat="43.251422409397634" lon="12.827731526724484"><ele>1316.0</ele><time>2026-04-11T09:38:24Z</time></trkpt><trkpt lat="43.251502139573496" lon="12.827726620732397"><ele>1316.0</ele><time>2026-04-11T09:38:25Z</time></trkpt><trkpt lat="43.25157820304652" lon="12.827722795734624"><ele>1316.0</ele><time>2026-04-11T09:38:26Z</time></trkpt><trkpt lat="43.25166776491305" lon="12.827719861086706"><ele>1316.0</ele><time>2026-04-11T09:38:27Z</time></trkpt><trkpt lat="43.25173905885899" lon="12.827712333158468"><ele>1316.0</ele><time>2026-04-11T09:38:28Z</time></trkpt><trkpt lat="43.25180257347434" lon="12.82769967745722"><ele>1318.0</ele><time>2026-04-11T09:38:29Z</time></trkpt><trkpt lat="43.25186951411196" lon="12.827672645165885"><ele>1320.0</ele><time>2026-04-11T09:38:30Z</time></trkpt><trkpt lat="43.25194147423252" lon="12.827634619406629"><ele>1322.0</ele><time>2026-04-11T09:38:31Z</time></trkpt><trkpt lat="43.252029129538556" lon="12.827593872527544"><ele>1324.0</ele><time>2026-04-11T09:38:32Z</time></trkpt><trkpt lat="43.2522361973749" lon="12.827521153854658"><ele>1322.8333333333333</ele><time>2026-04-11T09:38:34Z</time></trkpt><trkpt lat="43.252308277796764" lon="12.827494863577058"><ele>1321.6666666666665</ele><time>2026-04-11T09:38:35Z</time></trkpt><trkpt lat="43.25238279294465" lon="12.827471592496602"><ele>1320.5</ele><time>2026-04-11T09:38:36Z</time></trkpt><trkpt lat="43.252453912388006" lon="12.827455183591319"><ele>1319.3333333333333</ele><time>2026-04-11T09:38:37Z</time></trkpt><trkpt lat="43.25258069397312" lon="12.82745622059046"><ele>1318.1666666666667</ele><time>2026-04-11T09:38:39Z</time></trkpt><trkpt lat="43.25265404921045" lon="12.827460033963128"><ele>1317.0</ele><time>2026-04-11T09:38:40Z</time></trkpt><trkpt lat="43.25271863300118" lon="12.827464135702924"><ele>1317.0</ele><time>2026-04-11T09:38:41Z</time></trkpt><trkpt lat="43.25278456895713" lon="12.827468902561584"><ele>1317.0</ele><time>2026-04-11T09:38:42Z</time></trkpt><trkpt lat="43.25286594533438" lon="12.827487833092523"><ele>1317.0</ele><time>2026-04-11T09:38:43Z</time></trkpt><trkpt lat="43.25293985582545" lon="12.82748315324801"><ele>1317.0</ele><time>2026-04-11T09:38:44Z</time></trkpt><trkpt lat="43.25301660276448" lon="12.82747493055607"><ele>1317.0</ele><time>2026-04-11T09:38:45Z</time></trkpt><trkpt lat="43.2530954879445" lon="12.827463574600374"><ele>1317.0</ele><time>2026-04-11T09:38:46Z</time></trkpt><trkpt lat="43.253180147865" lon="12.8274627985461"><ele>1316.6666666666667</ele><time>2026-04-11T09:38:47Z</time></trkpt><trkpt lat="43.253277748255904" lon="12.827461577765524"><ele>1316.3333333333333</ele><time>2026-04-11T09:38:48Z</time></trkpt><trkpt lat="43.253364959124376" lon="12.827456111291067"><ele>1316.0</ele><time>2026-04-11T09:38:49Z</time></trkpt><trkpt lat="43.253454138530266" lon="12.827451898037994"><ele>1315.6666666666665</ele><time>2026-04-11T09:38:50Z</time></trkpt><trkpt lat="43.25354142222621" lon="12.82744219037284"><ele>1315.3333333333333</ele><time>2026-04-11T09:38:51Z</time></trkpt><trkpt lat="43.253617428260625" lon="12.827433086232796"><ele>1315.0</ele><time>2026-04-11T09:38:52Z</time></trkpt><trkpt lat="43.25370349147321" lon="12.827424135103005"><ele>1315.0</ele><time>2026-04-11T09:38:53Z</time></trkpt><trkpt lat="43.25395302979011" lon="12.827433822769859"><ele>1315.0</ele><time>2026-04-11T09:38:56Z</time></trkpt><trkpt lat="43.25403327114883" lon="12.82742486228152"><ele>1315.0</ele><time>2026-04-11T09:38:57Z</time></trkpt><trkpt lat="43.25411036126776" lon="12.827404071011252"><ele>1315.0</ele><time>2026-04-11T09:38:58Z</time></trkpt><trkpt lat="43.2541919073286" lon="12.827365667755371"><ele>1313.5</ele><time>2026-04-11T09:38:59Z</time></trkpt><trkpt lat="43.25425821944715" lon="12.827297224088"><ele>1312.0</ele><time>2026-04-11T09:39:00Z</time></trkpt><trkpt lat="43.25432113670064" lon="12.82721522127087"><ele>1310.5</ele><time>2026-04-11T09:39:01Z</time></trkpt><trkpt lat="43.25439295609882" lon="12.827122089562563"><ele>1309.0</ele><time>2026-04-11T09:39:02Z</time></trkpt><trkpt lat="43.254428680205216" lon="12.82700048085257"><ele>1307.5</ele><time>2026-04-11T09:39:03Z</time></trkpt><trkpt lat="43.254454103254545" lon="12.826896427310798"><ele>1306.0</ele><time>2026-04-11T09:39:04Z</time></trkpt><trkpt lat="43.254500434608026" lon="12.82678047435381"><ele>1304.75</ele><time>2026-04-11T09:39:06Z</time></trkpt><trkpt lat="43.25459914329497" lon="12.826725028881112"><ele>1303.5</ele><time>2026-04-11T09:39:08Z</time></trkpt><trkpt lat="43.254699035185624" lon="12.826649249696843"><ele>1302.25</ele><time>2026-04-11T09:39:10Z</time></trkpt><trkpt lat="43.25488942231523" lon="12.82662255380854"><ele>1301.0</ele><time>2026-04-11T09:39:13Z</time></trkpt><trkpt lat="43.254955317023345" lon="12.826615572446652"><ele>1297.0</ele><time>2026-04-11T09:39:14Z</time></trkpt><trkpt lat="43.25502364511678" lon="12.826609214228867"><ele>1293.0</ele><time>2026-04-11T09:39:15Z</time></trkpt><trkpt lat="43.255103591898106" lon="12.82659956009417"><ele>1289.0</ele><time>2026-04-11T09:39:16Z</time></trkpt><trkpt lat="43.25518374977149" lon="12.82658907643626"><ele>1285.0</ele><time>2026-04-11T09:39:17Z</time></trkpt><trkpt lat="43.25527758103525" lon="12.826555834755634"><ele>1281.0</ele><time>2026-04-11T09:39:18Z</time></trkpt><trkpt lat="43.25534371304912" lon="12.82653137458194"><ele>1277.0</ele><time>2026-04-11T09:39:19Z</time></trkpt><trkpt lat="43.255275789008174" lon="12.82649701364054"><ele>1277.0</ele><time>2026-04-11T09:39:20Z</time></trkpt><trkpt lat="43.25526161380924" lon="12.826393785748031"><ele>1277.0</ele><time>2026-04-11T09:39:29Z</time></trkpt><trkpt lat="43.255183362564026" lon="12.826493343877404"><ele>1277.0</ele><time>2026-04-11T09:39:31Z</time></trkpt><trkpt lat="43.25521906073473" lon="12.826389784529876"><ele>1277.0</ele><time>2026-04-11T09:39:34Z</time></trkpt><trkpt lat="43.255101596052704" lon="12.826308622505355"><ele>1277.0</ele><time>2026-04-11T09:39:36Z</time></trkpt><trkpt lat="43.255027936691675" lon="12.826263750181266"><ele>1277.0</ele><time>2026-04-11T09:39:38Z</time></trkpt><trkpt lat="43.254950235250746" lon="12.826248770682179"><ele>1277.0</ele><time>2026-04-11T09:39:40Z</time></trkpt><trkpt lat="43.254931724631476" lon="12.826332245947677"><ele>1277.0</ele><time>2026-04-11T09:39:50Z</time></trkpt><trkpt lat="43.25489264685186" lon="12.826406202035878"><ele>1277.0</ele><time>2026-04-11T09:40:07Z</time></trkpt><trkpt lat="43.25483191663428" lon="12.826464397079167"><ele>1277.0</ele><time>2026-04-11T09:40:12Z</time></trkpt><trkpt lat="43.25472552350643" lon="12.826578105557715"><ele>1277.0</ele><time>2026-04-11T09:40:31Z</time></trkpt><trkpt lat="43.25470182925468" lon="12.826487134713929"><ele>1278.7142857142856</ele><time>2026-04-11T09:40:37Z</time></trkpt><trkpt lat="43.25467956897105" lon="12.826405599706549"><ele>1280.4285714285713</ele><time>2026-04-11T09:40:39Z</time></trkpt><trkpt lat="43.254638632103585" lon="12.826327971575559"><ele>1282.142857142857</ele><time>2026-04-11T09:40:42Z</time></trkpt><trkpt lat="43.25458525060125" lon="12.826261488852229"><ele>1283.8571428571427</ele><time>2026-04-11T09:40:45Z</time></trkpt><trkpt lat="43.254521366437956" lon="12.826191742092862"><ele>1285.5714285714284</ele><time>2026-04-11T09:40:48Z</time></trkpt><trkpt lat="43.25446048502529" lon="12.826117671636242"><ele>1287.2857142857142</ele><time>2026-04-11T09:40:51Z</time></trkpt><trkpt lat="43.254422769033" lon="12.82603426427909"><ele>1289.0</ele><time>2026-04-11T09:40:54Z</time></trkpt><trkpt lat="43.25440926431127" lon="12.825936062455886"><ele>1289.0</ele><time>2026-04-11T09:40:57Z</time></trkpt><trkpt lat="43.25438738360105" lon="12.825845543012402"><ele>1289.0</ele><time>2026-04-11T09:40:59Z</time></trkpt><trkpt lat="43.25437597161795" lon="12.825734990602989"><ele>1289.0</ele><time>2026-04-11T09:41:02Z</time></trkpt><trkpt lat="43.254380624991384" lon="12.82564097316337"><ele>1289.0</ele><time>2026-04-11T09:41:04Z</time></trkpt><trkpt lat="43.25438504063583" lon="12.825533668261828"><ele>1289.0</ele><time>2026-04-11T09:41:06Z</time></trkpt><trkpt lat="43.25437744873419" lon="12.825444430661666"><ele>1289.0</ele><time>2026-04-11T09:41:08Z</time></trkpt><trkpt lat="43.25435553414505" lon="12.825360836377277"><ele>1289.0</ele><time>2026-04-11T09:41:10Z</time></trkpt><trkpt lat="43.25432588260369" lon="12.825236216342235"><ele>1286.0</ele><time>2026-04-11T09:41:12Z</time></trkpt><trkpt lat="43.2542852542019" lon="12.825070653115938"><ele>1283.0</ele><time>2026-04-11T09:41:14Z</time></trkpt><trkpt lat="43.2542606633968" lon="12.824975536819865"><ele>1280.0</ele><time>2026-04-11T09:41:15Z</time></trkpt><trkpt lat="43.254236823774825" lon="12.8248871267898"><ele>1277.0</ele><time>2026-04-11T09:41:16Z</time></trkpt><trkpt lat="43.25421686267042" lon="12.824792500534063"><ele>1274.0</ele><time>2026-04-11T09:41:17Z</time></trkpt><trkpt lat="43.254174837584095" lon="12.824653200413472"><ele>1274.0</ele><time>2026-04-11T09:41:19Z</time></trkpt><trkpt lat="43.25414709624913" lon="12.824492658558418"><ele>1274.0</ele><time>2026-04-11T09:41:21Z</time></trkpt><trkpt lat="43.25412888640447" lon="12.824404690970338"><ele>1274.0</ele><time>2026-04-11T09:41:22Z</time></trkpt><trkpt lat="43.25408765912672" lon="12.824282666843251"><ele>1274.0</ele><time>2026-04-11T09:41:24Z</time></trkpt><trkpt lat="43.25405241447311" lon="12.824171822286091"><ele>1274.0</ele><time>2026-04-11T09:41:26Z</time></trkpt><trkpt lat="43.25399216437357" lon="12.824047086926692"><ele>1275.2</ele><time>2026-04-11T09:41:28Z</time></trkpt><trkpt lat="43.25396710121113" lon="12.823963070709686"><ele>1276.4</ele><time>2026-04-11T09:41:29Z</time></trkpt><trkpt lat="43.25394206290518" lon="12.82387924336164"><ele>1277.6</ele><time>2026-04-11T09:41:30Z</time></trkpt><trkpt lat="43.25392589499936" lon="12.823727494067807"><ele>1278.8</ele><time>2026-04-11T09:41:32Z</time></trkpt><trkpt lat="43.25391109608613" lon="12.823591530669415"><ele>1280.0</ele><time>2026-04-11T09:41:34Z</time></trkpt><trkpt lat="43.25387020579626" lon="12.82343949883392"><ele>1275.2</ele><time>2026-04-11T09:41:36Z</time></trkpt><trkpt lat="43.253837942172055" lon="12.823324041596491"><ele>1270.4</ele><time>2026-04-11T09:41:38Z</time></trkpt><trkpt lat="43.25378275501476" lon="12.823199128484205"><ele>1265.6</ele><time>2026-04-11T09:41:40Z</time></trkpt><trkpt lat="43.253747362152446" lon="12.823048503251929"><ele>1260.8</ele><time>2026-04-11T09:41:42Z</time></trkpt><trkpt lat="43.253713723257405" lon="12.822948047517052"><ele>1256.0</ele><time>2026-04-11T09:41:43Z</time></trkpt><trkpt lat="43.25368979561651" lon="12.822866618992107"><ele>1256.0</ele><time>2026-04-11T09:41:44Z</time></trkpt><trkpt lat="43.253652400034504" lon="12.822778567421468"><ele>1256.0</ele><time>2026-04-11T09:41:45Z</time></trkpt><trkpt lat="43.253615302903384" lon="12.822691651865464"><ele>1256.0</ele><time>2026-04-11T09:41:46Z</time></trkpt><trkpt lat="43.253566328831596" lon="12.822595310517883"><ele>1256.0</ele><time>2026-04-11T09:41:47Z</time></trkpt><trkpt lat="43.25352083465042" lon="12.822493560428164"><ele>1256.0</ele><time>2026-04-11T09:41:48Z</time></trkpt><trkpt lat="43.25346859450284" lon="12.822386911290053"><ele>1256.0</ele><time>2026-04-11T09:41:49Z</time></trkpt><trkpt lat="43.253434258250266" lon="12.822259503869102"><ele>1250.8</ele><time>2026-04-11T09:41:50Z</time></trkpt><trkpt lat="43.25338751610363" lon="12.822140739670736"><ele>1245.6</ele><time>2026-04-11T09:41:51Z</time></trkpt><trkpt lat="43.25332694225578" lon="12.822020456859432"><ele>1240.4</ele><time>2026-04-11T09:41:52Z</time></trkpt><trkpt lat="43.25325812245817" lon="12.821874119750882"><ele>1235.2</ele><time>2026-04-11T09:41:53Z</time></trkpt><trkpt lat="43.253202803689625" lon="12.821776704882652"><ele>1230.0</ele><time>2026-04-11T09:41:54Z</time></trkpt><trkpt lat="43.25316039500593" lon="12.821668534112717"><ele>1230.4</ele><time>2026-04-11T09:41:55Z</time></trkpt><trkpt lat="43.2531182532256" lon="12.821575691848725"><ele>1230.8</ele><time>2026-04-11T09:41:56Z</time></trkpt><trkpt lat="43.25304095335593" lon="12.821432106876214"><ele>1231.2</ele><time>2026-04-11T09:41:58Z</time></trkpt><trkpt lat="43.25296428519081" lon="12.82127141428643"><ele>1231.6</ele><time>2026-04-11T09:42:00Z</time></trkpt><trkpt lat="43.25291330553584" lon="12.82120363472851"><ele>1232.0</ele><time>2026-04-11T09:42:01Z</time></trkpt><trkpt lat="43.25285243680986" lon="12.821145101995658"><ele>1232.0</ele><time>2026-04-11T09:42:02Z</time></trkpt><trkpt lat="43.252780050877824" lon="12.821021679996134"><ele>1232.0</ele><time>2026-04-11T09:42:04Z</time></trkpt><trkpt lat="43.25274304246922" lon="12.820947151842727"><ele>1232.0</ele><time>2026-04-11T09:42:05Z</time></trkpt><trkpt lat="43.25271150079005" lon="12.820865245128203"><ele>1232.0</ele><time>2026-04-11T09:42:06Z</time></trkpt><trkpt lat="43.25268432940528" lon="12.82078675510508"><ele>1232.0</ele><time>2026-04-11T09:42:07Z</time></trkpt><trkpt lat="43.252648093505584" lon="12.820695270454387"><ele>1232.0</ele><time>2026-04-11T09:42:08Z</time></trkpt><trkpt lat="43.25261925367401" lon="12.8205993808219"><ele>1226.1666666666667</ele><time>2026-04-11T09:42:09Z</time></trkpt><trkpt lat="43.252587439542836" lon="12.820509319556445"><ele>1220.3333333333335</ele><time>2026-04-11T09:42:10Z</time></trkpt><trkpt lat="43.252529194434935" lon="12.820367814418805"><ele>1214.5</ele><time>2026-04-11T09:42:12Z</time></trkpt><trkpt lat="43.25250007946081" lon="12.820287607379898"><ele>1208.6666666666667</ele><time>2026-04-11T09:42:13Z</time></trkpt><trkpt lat="43.252466791854566" lon="12.820201569847141"><ele>1202.8333333333333</ele><time>2026-04-11T09:42:14Z</time></trkpt><trkpt lat="43.25243760522784" lon="12.820123859547335"><ele>1197.0</ele><time>2026-04-11T09:42:15Z</time></trkpt><trkpt lat="43.252406732827446" lon="12.820024713551183"><ele>1192.4</ele><time>2026-04-11T09:42:16Z</time></trkpt><trkpt lat="43.252381977376025" lon="12.819942433650251"><ele>1187.8000000000002</ele><time>2026-04-11T09:42:17Z</time></trkpt><trkpt lat="43.25236295779176" lon="12.819794449570411"><ele>1183.2</ele><time>2026-04-11T09:42:19Z</time></trkpt><trkpt lat="43.25234167541263" lon="12.81963719107246"><ele>1178.6000000000001</ele><time>2026-04-11T09:42:21Z</time></trkpt><trkpt lat="43.2523419206869" lon="12.81949683106327"><ele>1174.0</ele><time>2026-04-11T09:42:23Z</time></trkpt><trkpt lat="43.252310747054466" lon="12.819331406148109"><ele>1173.8333333333333</ele><time>2026-04-11T09:42:25Z</time></trkpt><trkpt lat="43.252284160300206" lon="12.81923506573158"><ele>1173.6666666666665</ele><time>2026-04-11T09:42:26Z</time></trkpt><trkpt lat="43.252252502791194" lon="12.819134628492156"><ele>1173.5</ele><time>2026-04-11T09:42:27Z</time></trkpt><trkpt lat="43.25222565526908" lon="12.819019943998134"><ele>1173.3333333333333</ele><time>2026-04-11T09:42:28Z</time></trkpt><trkpt lat="43.25219780370121" lon="12.818905358148672"><ele>1173.1666666666667</ele><time>2026-04-11T09:42:29Z</time></trkpt><trkpt lat="43.25217411383683" lon="12.818795880174667"><ele>1173.0</ele><time>2026-04-11T09:42:30Z</time></trkpt><trkpt lat="43.25214821428387" lon="12.818645414479525"><ele>1173.0</ele><time>2026-04-11T09:42:32Z</time></trkpt><trkpt lat="43.252126424777785" lon="12.81853673513581"><ele>1173.0</ele><time>2026-04-11T09:42:34Z</time></trkpt><trkpt lat="43.252136390147434" lon="12.818447626094803"><ele>1173.0</ele><time>2026-04-11T09:42:36Z</time></trkpt><trkpt lat="43.25210584407252" lon="12.818334846681525"><ele>1173.0</ele><time>2026-04-11T09:42:39Z</time></trkpt><trkpt lat="43.25204494451419" lon="12.818272576775632"><ele>1173.0</ele><time>2026-04-11T09:42:41Z</time></trkpt><trkpt lat="43.25197955239357" lon="12.818168745064991"><ele>1173.0</ele><time>2026-04-11T09:42:43Z</time></trkpt><trkpt lat="43.251926409090785" lon="12.818040717956794"><ele>1167.6</ele><time>2026-04-11T09:42:45Z</time></trkpt><trkpt lat="43.25186580138663" lon="12.81793137957559"><ele>1162.1999999999998</ele><time>2026-04-11T09:42:47Z</time></trkpt><trkpt lat="43.25179904533337" lon="12.817863276363944"><ele>1156.8</ele><time>2026-04-11T09:42:49Z</time></trkpt><trkpt lat="43.25172743395876" lon="12.817794051555664"><ele>1151.3999999999999</ele><time>2026-04-11T09:42:51Z</time></trkpt><trkpt lat="43.251661971194565" lon="12.817694484143368"><ele>1146.0</ele><time>2026-04-11T09:42:53Z</time></trkpt><trkpt lat="43.251612767764925" lon="12.817549912999517"><ele>1142.0</ele><time>2026-04-11T09:42:55Z</time></trkpt><trkpt lat="43.25162888260831" lon="12.817375857782833"><ele>1138.0</ele><time>2026-04-11T09:42:57Z</time></trkpt><trkpt lat="43.25171150325861" lon="12.817246064097718"><ele>1134.0</ele><time>2026-04-11T09:42:59Z</time></trkpt><trkpt lat="43.25176726730131" lon="12.817178158811794"><ele>1130.0</ele><time>2026-04-11T09:43:00Z</time></trkpt><trkpt lat="43.25182845837333" lon="12.817132571562583"><ele>1126.0</ele><time>2026-04-11T09:43:01Z</time></trkpt><trkpt lat="43.251951148675246" lon="12.817068029487311"><ele>1126.0</ele><time>2026-04-11T09:43:03Z</time></trkpt><trkpt lat="43.25200778708675" lon="12.817023462128564"><ele>1126.0</ele><time>2026-04-11T09:43:04Z</time></trkpt><trkpt lat="43.252074458794276" lon="12.81689290407056"><ele>1126.0</ele><time>2026-04-11T09:43:06Z</time></trkpt><trkpt lat="43.25211156299637" lon="12.816816139575938"><ele>1126.0</ele><time>2026-04-11T09:43:07Z</time></trkpt><trkpt lat="43.25216691022269" lon="12.816701961166304"><ele>1126.0</ele><time>2026-04-11T09:43:09Z</time></trkpt><trkpt lat="43.25220479720518" lon="12.816575405405507"><ele>1126.0</ele><time>2026-04-11T09:43:11.999Z</time></trkpt><trkpt lat="43.252524573505504" lon="12.816581904412864"><ele>1118.3999999999999</ele><time>2026-04-11T09:43:19.999Z</time></trkpt><trkpt lat="43.25263781253462" lon="12.816613956257385"><ele>1110.8</ele><time>2026-04-11T09:43:21.999Z</time></trkpt><trkpt lat="43.25273376081104" lon="12.81659415595286"><ele>1103.1999999999998</ele><time>2026-04-11T09:43:23.999Z</time></trkpt><trkpt lat="43.25281043122303" lon="12.816513165665445"><ele>1095.6</ele><time>2026-04-11T09:43:25.999Z</time></trkpt><trkpt lat="43.25292225286486" lon="12.816412934218972"><ele>1088.0</ele><time>2026-04-11T09:43:28.999Z</time></trkpt><trkpt lat="43.253025432631006" lon="12.81636957889986"><ele>1084.0</ele><time>2026-04-11T09:43:30.999Z</time></trkpt><trkpt lat="43.25313255547387" lon="12.816291383238653"><ele>1080.0</ele><time>2026-04-11T09:43:32.999Z</time></trkpt><trkpt lat="43.25323068423146" lon="12.816200152506685"><ele>1076.0</ele><time>2026-04-11T09:43:34.999Z</time></trkpt><trkpt lat="43.25331001819972" lon="12.81609791693202"><ele>1072.0</ele><time>2026-04-11T09:43:36.999Z</time></trkpt><trkpt lat="43.25340316994338" lon="12.815962759561435"><ele>1069.6</ele><time>2026-04-11T09:43:38.999Z</time></trkpt><trkpt lat="43.25356306308568" lon="12.815874711508059"><ele>1067.2</ele><time>2026-04-11T09:43:40.999Z</time></trkpt><trkpt lat="43.25361320390026" lon="12.815782263729439"><ele>1064.8</ele><time>2026-04-11T09:43:41.999Z</time></trkpt><trkpt lat="43.25366006016905" lon="12.815700245192943"><ele>1062.4</ele><time>2026-04-11T09:43:42.999Z</time></trkpt><trkpt lat="43.25371043434409" lon="12.815620135583412"><ele>1060.0</ele><time>2026-04-11T09:43:43.999Z</time></trkpt><trkpt lat="43.253765857313944" lon="12.815537512633309"><ele>1060.0</ele><time>2026-04-11T09:43:44.999Z</time></trkpt><trkpt lat="43.2538121220897" lon="12.81547667406155"><ele>1060.0</ele><time>2026-04-11T09:43:45.999Z</time></trkpt><trkpt lat="43.25391971694761" lon="12.815364233337085"><ele>1060.0</ele><time>2026-04-11T09:43:47.999Z</time></trkpt><trkpt lat="43.253991437921584" lon="12.815306578324485"><ele>1060.0</ele><time>2026-04-11T09:43:48.999Z</time></trkpt><trkpt lat="43.254078149332216" lon="12.815248268547705"><ele>1060.0</ele><time>2026-04-11T09:43:49.999Z</time></trkpt><trkpt lat="43.254160823035065" lon="12.81518437068868"><ele>1057.6</ele><time>2026-04-11T09:43:50.998Z</time></trkpt><trkpt lat="43.25425189225612" lon="12.815156757507026"><ele>1055.2</ele><time>2026-04-11T09:43:51.998Z</time></trkpt><trkpt lat="43.25434497038217" lon="12.815128918637049"><ele>1052.8</ele><time>2026-04-11T09:43:52.998Z</time></trkpt><trkpt lat="43.254430306673115" lon="12.81507658296805"><ele>1050.4</ele><time>2026-04-11T09:43:53.998Z</time></trkpt><trkpt lat="43.25451188921505" lon="12.815027225117477"><ele>1048.0</ele><time>2026-04-11T09:43:54.998Z</time></trkpt><trkpt lat="43.254580177398566" lon="12.81496512156773"><ele>1046.1666666666665</ele><time>2026-04-11T09:43:56.998Z</time></trkpt><trkpt lat="43.25464686029519" lon="12.814958962408367"><ele>1044.3333333333333</ele><time>2026-04-11T09:43:57.998Z</time></trkpt><trkpt lat="43.25471020347498" lon="12.814965484348894"><ele>1042.5</ele><time>2026-04-11T09:43:58.998Z</time></trkpt><trkpt lat="43.254832158494565" lon="12.814967319034082"><ele>1040.6666666666667</ele><time>2026-04-11T09:44:00.998Z</time></trkpt><trkpt lat="43.25493108235168" lon="12.814929464641859"><ele>1038.8333333333335</ele><time>2026-04-11T09:44:02.998Z</time></trkpt><trkpt lat="43.254995818646925" lon="12.814904879414486"><ele>1037.0</ele><time>2026-04-11T09:44:03.999Z</time></trkpt><trkpt lat="43.255117222885836" lon="12.814992946596968"><ele>1033.0</ele><time>2026-04-11T09:44:04.999Z</time></trkpt><trkpt lat="43.2552463089044" lon="12.815009927683558"><ele>1029.0</ele><time>2026-04-11T09:44:05.999Z</time></trkpt><trkpt lat="43.25536284853646" lon="12.815014510406332"><ele>1025.0</ele><time>2026-04-11T09:44:06.999Z</time></trkpt><trkpt lat="43.25548490387036" lon="12.815046204252113"><ele>1021.0</ele><time>2026-04-11T09:44:07.999Z</time></trkpt><trkpt lat="43.25560036587522" lon="12.815095271681255"><ele>1019.1999999999999</ele><time>2026-04-11T09:44:08.999Z</time></trkpt><trkpt lat="43.25572301294549" lon="12.815144010565426"><ele>1017.3999999999999</ele><time>2026-04-11T09:44:09.999Z</time></trkpt><trkpt lat="43.25582520632629" lon="12.81518824335375"><ele>1015.6</ele><time>2026-04-11T09:44:10.999Z</time></trkpt><trkpt lat="43.255920335035974" lon="12.81519441862946"><ele>1013.8</ele><time>2026-04-11T09:44:11.999Z</time></trkpt><trkpt lat="43.25600589650883" lon="12.815195196934333"><ele>1012.0</ele><time>2026-04-11T09:44:12.999Z</time></trkpt><trkpt lat="43.25608904089273" lon="12.815186210186125"><ele>1012.0</ele><time>2026-04-11T09:44:13.999Z</time></trkpt><trkpt lat="43.256165255933254" lon="12.815171101358485"><ele>1012.0</ele><time>2026-04-11T09:44:14.999Z</time></trkpt><trkpt lat="43.25623497355154" lon="12.815168618903677"><ele>1012.0</ele><time>2026-04-11T09:44:15.999Z</time></trkpt><trkpt lat="43.25633329952461" lon="12.8151902627634"><ele>1012.0</ele><time>2026-04-11T09:44:17.999Z</time></trkpt><trkpt lat="43.256542561983004" lon="12.815170045410472"><ele>1010.8333333333333</ele><time>2026-04-11T09:45:08Z</time></trkpt><trkpt lat="43.256617045555274" lon="12.815171131609723"><ele>1009.6666666666666</ele><time>2026-04-11T09:45:09Z</time></trkpt><trkpt lat="43.25671039827701" lon="12.815169878655949"><ele>1008.5</ele><time>2026-04-11T09:45:10Z</time></trkpt><trkpt lat="43.256795955052674" lon="12.815183146380779"><ele>1007.3333333333333</ele><time>2026-04-11T09:45:11Z</time></trkpt><trkpt lat="43.25688631990914" lon="12.815201748670763"><ele>1006.1666666666666</ele><time>2026-04-11T09:45:12Z</time></trkpt><trkpt lat="43.25698644245331" lon="12.815193375049425"><ele>1005.0</ele><time>2026-04-11T09:45:13Z</time></trkpt><trkpt lat="43.25707877036456" lon="12.815205039230143"><ele>1005.0</ele><time>2026-04-11T09:45:14Z</time></trkpt><trkpt lat="43.257153131008764" lon="12.815219067406304"><ele>1005.0</ele><time>2026-04-11T09:45:15Z</time></trkpt><trkpt lat="43.25725311544611" lon="12.815240397336545"><ele>1005.0</ele><time>2026-04-11T09:45:17Z</time></trkpt><trkpt lat="43.25736065787999" lon="12.81526204250833"><ele>1005.0</ele><time>2026-04-11T09:45:19Z</time></trkpt><trkpt lat="43.25747371276031" lon="12.815308742620775"><ele>1005.0</ele><time>2026-04-11T09:45:21Z</time></trkpt><trkpt lat="43.25755278767246" lon="12.815310070894895"><ele>1004.6</ele><time>2026-04-11T09:45:22Z</time></trkpt><trkpt lat="43.25761834749399" lon="12.815325587107724"><ele>1004.2</ele><time>2026-04-11T09:45:23Z</time></trkpt><trkpt lat="43.257711010596246" lon="12.81534156432292"><ele>1003.8</ele><time>2026-04-11T09:45:24Z</time></trkpt><trkpt lat="43.25780803714868" lon="12.815375254835493"><ele>1003.4</ele><time>2026-04-11T09:45:25Z</time></trkpt><trkpt lat="43.2579024317187" lon="12.815396007053518"><ele>1003.0</ele><time>2026-04-11T09:45:26Z</time></trkpt><trkpt lat="43.25800334161389" lon="12.81539629159193"><ele>1003.0</ele><time>2026-04-11T09:45:27Z</time></trkpt><trkpt lat="43.258109398002915" lon="12.815394322558198"><ele>1003.0</ele><time>2026-04-11T09:45:28Z</time></trkpt><trkpt lat="43.25822931518801" lon="12.815387191622657"><ele>1003.0</ele><time>2026-04-11T09:45:29Z</time></trkpt><trkpt lat="43.2583382674244" lon="12.815343798072085"><ele>1003.0</ele><time>2026-04-11T09:45:30Z</time></trkpt><trkpt lat="43.258444280343056" lon="12.815274257108975"><ele>1003.2</ele><time>2026-04-11T09:45:31Z</time></trkpt><trkpt lat="43.2585295126902" lon="12.815196402517772"><ele>1003.4</ele><time>2026-04-11T09:45:32Z</time></trkpt><trkpt lat="43.258612532865364" lon="12.81510498250683"><ele>1003.6000000000001</ele><time>2026-04-11T09:45:33Z</time></trkpt><trkpt lat="43.25868814701316" lon="12.815001738348215"><ele>1003.8000000000001</ele><time>2026-04-11T09:45:34Z</time></trkpt><trkpt lat="43.258752237056214" lon="12.814902734493804"><ele>1004.0</ele><time>2026-04-11T09:45:35Z</time></trkpt><trkpt lat="43.258816101394274" lon="12.814804080827773"><ele>1004.0</ele><time>2026-04-11T09:45:36Z</time></trkpt><trkpt lat="43.25885733600107" lon="12.814698681708316"><ele>1004.0</ele><time>2026-04-11T09:45:37Z</time></trkpt><trkpt lat="43.25891888297981" lon="12.814617502924616"><ele>1004.0</ele><time>2026-04-11T09:45:39Z</time></trkpt><trkpt lat="43.25894446988648" lon="12.814524879974037"><ele>1004.0</ele><time>2026-04-11T09:45:41Z</time></trkpt><trkpt lat="43.25913866428712" lon="12.814948267266265"><ele>1004.5</ele><time>2026-04-11T09:45:42Z</time></trkpt><trkpt lat="43.259157059964146" lon="12.814726496156833"><ele>1005.0</ele><time>2026-04-11T09:45:47Z</time></trkpt><trkpt lat="43.25910417393249" lon="12.814611795641174"><ele>1005.5</ele><time>2026-04-11T09:45:50Z</time></trkpt><trkpt lat="43.259053454232486" lon="12.814510189043473"><ele>1006.0</ele><time>2026-04-11T09:45:52Z</time></trkpt><trkpt lat="43.258995112084754" lon="12.814400848154662"><ele>1007.0</ele><time>2026-04-11T09:45:54Z</time></trkpt><trkpt lat="43.2589320057646" lon="12.814308746759071"><ele>1008.0</ele><time>2026-04-11T09:45:56Z</time></trkpt><trkpt lat="43.25888450968667" lon="12.814062204118633"><ele>1009.0</ele><time>2026-04-11T09:45:58Z</time></trkpt><trkpt lat="43.258857770486095" lon="12.813927099452384"><ele>1010.0</ele><time>2026-04-11T09:46:00Z</time></trkpt><trkpt lat="43.25883338516641" lon="12.81380291173568"><ele>1010.0</ele><time>2026-04-11T09:46:02Z</time></trkpt><trkpt lat="43.25881054784406" lon="12.813686607431558"><ele>1010.0</ele><time>2026-04-11T09:46:04Z</time></trkpt><trkpt lat="43.258836040964994" lon="12.813588454299248"><ele>1010.0</ele><time>2026-04-11T09:46:08Z</time></trkpt><trkpt lat="43.258934759528664" lon="12.81360657506513"><ele>1010.0</ele><time>2026-04-11T09:46:18Z</time></trkpt><trkpt lat="43.25905295536092" lon="12.81366449312335"><ele>1010.0</ele><time>2026-04-11T09:46:20Z</time></trkpt><trkpt lat="43.259119602401924" lon="12.81374516937276"><ele>1009.0000000000001</ele><time>2026-04-11T09:46:21Z</time></trkpt><trkpt lat="43.25919954152554" lon="12.813749432166349"><ele>1008.0</ele><time>2026-04-11T09:46:22Z</time></trkpt><trkpt lat="43.25929315161099" lon="12.813750449288852"><ele>1007.0</ele><time>2026-04-11T09:46:23Z</time></trkpt><trkpt lat="43.25938046653553" lon="12.813750798175173"><ele>1006.0</ele><time>2026-04-11T09:46:24Z</time></trkpt><trkpt lat="43.25946659849926" lon="12.813741145437485"><ele>1005.0000000000001</ele><time>2026-04-11T09:46:25Z</time></trkpt><trkpt lat="43.259542048407944" lon="12.813701242765628"><ele>1004.0</ele><time>2026-04-11T09:46:26Z</time></trkpt><trkpt lat="43.259633093295484" lon="12.813674683130117"><ele>1004.0000000000001</ele><time>2026-04-11T09:46:27Z</time></trkpt><trkpt lat="43.25970393415292" lon="12.813602391949708"><ele>1004.0</ele><time>2026-04-11T09:46:28Z</time></trkpt><trkpt lat="43.25976800764962" lon="12.813545578886723"><ele>1004.0</ele><time>2026-04-11T09:46:29Z</time></trkpt><trkpt lat="43.25983627041386" lon="12.813477667211718"><ele>1004.0</ele><time>2026-04-11T09:46:30Z</time></trkpt><trkpt lat="43.25988972705488" lon="12.81339946594414"><ele>1004.0000000000001</ele><time>2026-04-11T09:46:31Z</time></trkpt><trkpt lat="43.25995680512606" lon="12.813332090019674"><ele>1004.0</ele><time>2026-04-11T09:46:32Z</time></trkpt><trkpt lat="43.260025806907755" lon="12.813254465718412"><ele>1003.0</ele><time>2026-04-11T09:46:33Z</time></trkpt><trkpt lat="43.26009493366744" lon="12.81317003329746"><ele>1002.0000000000001</ele><time>2026-04-11T09:46:33.999Z</time></trkpt><trkpt lat="43.26017061585524" lon="12.813099934463738"><ele>1001.0000000000001</ele><time>2026-04-11T09:46:35Z</time></trkpt><trkpt lat="43.26025402617867" lon="12.813022420297711"><ele>1000.0</ele><time>2026-04-11T09:46:35.999Z</time></trkpt><trkpt lat="43.260337827325976" lon="12.81295170937251"><ele>999.0</ele><time>2026-04-11T09:46:36.999Z</time></trkpt><trkpt lat="43.260419555886514" lon="12.812892190283693"><ele>999.0</ele><time>2026-04-11T09:46:37.999Z</time></trkpt><trkpt lat="43.26049475457766" lon="12.812834123659512"><ele>999.0</ele><time>2026-04-11T09:46:38.999Z</time></trkpt><trkpt lat="43.26056589676326" lon="12.81276912870839"><ele>999.0</ele><time>2026-04-11T09:46:39.999Z</time></trkpt><trkpt lat="43.26063297756344" lon="12.812701853136423"><ele>999.0</ele><time>2026-04-11T09:46:40.999Z</time></trkpt><trkpt lat="43.26068354269195" lon="12.812613338649891"><ele>999.0</ele><time>2026-04-11T09:46:41.999Z</time></trkpt><trkpt lat="43.260732311830346" lon="12.812526606296311"><ele>999.0</ele><time>2026-04-11T09:46:42.999Z</time></trkpt><trkpt lat="43.2607712464395" lon="12.812427006434971"><ele>1001.5</ele><time>2026-04-11T09:46:43.999Z</time></trkpt><trkpt lat="43.26080962443701" lon="12.812318213377843"><ele>1004.0</ele><time>2026-04-11T09:46:44.999Z</time></trkpt><trkpt lat="43.260845092121514" lon="12.81220785984206"><ele>1006.5</ele><time>2026-04-11T09:46:45.999Z</time></trkpt><trkpt lat="43.26087305835492" lon="12.812101583973105"><ele>1009.0</ele><time>2026-04-11T09:46:46.999Z</time></trkpt><trkpt lat="43.26090567853708" lon="12.81198362112386"><ele>1011.5</ele><time>2026-04-11T09:46:47.999Z</time></trkpt><trkpt lat="43.26093664892348" lon="12.811880027394187"><ele>1014.0</ele><time>2026-04-11T09:46:48.999Z</time></trkpt><trkpt lat="43.26095609312199" lon="12.811761082667832"><ele>1014.4000000000001</ele><time>2026-04-11T09:46:49.999Z</time></trkpt><trkpt lat="43.26100337654471" lon="12.811656831088264"><ele>1014.8000000000001</ele><time>2026-04-11T09:46:50.999Z</time></trkpt><trkpt lat="43.26101514519123" lon="12.811523045885414"><ele>1015.1999999999999</ele><time>2026-04-11T09:46:51.999Z</time></trkpt><trkpt lat="43.261066444106284" lon="12.811411982917278"><ele>1015.5999999999999</ele><time>2026-04-11T09:46:52.999Z</time></trkpt><trkpt lat="43.26112158786855" lon="12.811313499504994"><ele>1016.0</ele><time>2026-04-11T09:46:53.999Z</time></trkpt><trkpt lat="43.26117141490612" lon="12.811218027471"><ele>1016.0</ele><time>2026-04-11T09:46:54.999Z</time></trkpt><trkpt lat="43.261210563584186" lon="12.811107962722865"><ele>1015.9999999999999</ele><time>2026-04-11T09:46:55.999Z</time></trkpt><trkpt lat="43.26124572098826" lon="12.811000411407758"><ele>1015.9999999999999</ele><time>2026-04-11T09:46:56.999Z</time></trkpt><trkpt lat="43.26129129208099" lon="12.810872304564457"><ele>1016.0</ele><time>2026-04-11T09:46:57.999Z</time></trkpt><trkpt lat="43.2613377889117" lon="12.810737892374771"><ele>1016.0</ele><time>2026-04-11T09:46:58.999Z</time></trkpt><trkpt lat="43.26138541547319" lon="12.810611924671178"><ele>1013.5999999999999</ele><time>2026-04-11T09:46:59.999Z</time></trkpt><trkpt lat="43.26142787320511" lon="12.810503522373581"><ele>1011.1999999999999</ele><time>2026-04-11T09:47:00.999Z</time></trkpt><trkpt lat="43.261470131121015" lon="12.810397177843134"><ele>1008.8000000000001</ele><time>2026-04-11T09:47:01.999Z</time></trkpt><trkpt lat="43.261506818429794" lon="12.810287520760774"><ele>1006.4000000000001</ele><time>2026-04-11T09:47:02.999Z</time></trkpt><trkpt lat="43.261530544986954" lon="12.810164884650947"><ele>1004.0</ele><time>2026-04-11T09:47:03.999Z</time></trkpt><trkpt lat="43.26155730497842" lon="12.810035984092842"><ele>1007.8000000000001</ele><time>2026-04-11T09:47:04.999Z</time></trkpt><trkpt lat="43.2615877634425" lon="12.809900876447742"><ele>1011.6000000000001</ele><time>2026-04-11T09:47:05.999Z</time></trkpt><trkpt lat="43.26162160222888" lon="12.809778297132562"><ele>1015.4</ele><time>2026-04-11T09:47:06.999Z</time></trkpt><trkpt lat="43.26165776936328" lon="12.809661097999292"><ele>1019.2</ele><time>2026-04-11T09:47:07.999Z</time></trkpt><trkpt lat="43.26168333645655" lon="12.809533109556579"><ele>1023.0</ele><time>2026-04-11T09:47:08.999Z</time></trkpt><trkpt lat="43.26170650305068" lon="12.809275820356756"><ele>1023.0</ele><time>2026-04-11T09:47:10.999Z</time></trkpt><trkpt lat="43.26171937479446" lon="12.809174694207885"><ele>1023.0</ele><time>2026-04-11T09:47:11.999Z</time></trkpt><trkpt lat="43.26171496145944" lon="12.809051344903985"><ele>1023.0</ele><time>2026-04-11T09:47:12.999Z</time></trkpt><trkpt lat="43.26170586916203" lon="12.80891866614983"><ele>1023.0</ele><time>2026-04-11T09:47:13.999Z</time></trkpt><trkpt lat="43.26167539785232" lon="12.808812684954603"><ele>1023.0</ele><time>2026-04-11T09:47:14.999Z</time></trkpt><trkpt lat="43.26165301574918" lon="12.808707818862336"><ele>1023.0</ele><time>2026-04-11T09:47:15.999Z</time></trkpt><trkpt lat="43.2616418013528" lon="12.80862028066514"><ele>1021.0</ele><time>2026-04-11T09:47:16.999Z</time></trkpt><trkpt lat="43.26161573153186" lon="12.80847826390148"><ele>1019.0</ele><time>2026-04-11T09:47:18.999Z</time></trkpt><trkpt lat="43.26158558874549" lon="12.80829542984473"><ele>1017.0</ele><time>2026-04-11T09:47:21.999Z</time></trkpt><trkpt lat="43.26160431191541" lon="12.808181718129884"><ele>1015.0</ele><time>2026-04-11T09:47:23.999Z</time></trkpt><trkpt lat="43.261775495241636" lon="12.808084401940603"><ele>1015.0</ele><time>2026-04-11T09:47:33.999Z</time></trkpt><trkpt lat="43.2618412389544" lon="12.80804049044668"><ele>1015.0</ele><time>2026-04-11T09:47:34.999Z</time></trkpt><trkpt lat="43.26191207992618" lon="12.80799823098787"><ele>1015.0</ele><time>2026-04-11T09:47:35.999Z</time></trkpt><trkpt lat="43.26199049699828" lon="12.807956142191223"><ele>1015.0</ele><time>2026-04-11T09:47:37.999Z</time></trkpt><trkpt lat="43.26213606721716" lon="12.80793324271956"><ele>1015.0</ele><time>2026-04-11T09:47:42.999Z</time></trkpt><trkpt lat="43.262259062122695" lon="12.80791735711049"><ele>1018.0</ele><time>2026-04-11T09:47:46.999Z</time></trkpt><trkpt lat="43.262398530908115" lon="12.807915649778328"><ele>1021.0</ele><time>2026-04-11T09:47:50.999Z</time></trkpt><trkpt lat="43.26248041236773" lon="12.807952086547232"><ele>1024.0</ele><time>2026-04-11T09:47:52.999Z</time></trkpt><trkpt lat="43.26254524632227" lon="12.808005047120128"><ele>1027.0</ele><time>2026-04-11T09:47:54.999Z</time></trkpt><trkpt lat="43.262669778492565" lon="12.808060958361882"><ele>1030.0</ele><time>2026-04-11T09:48:00.999Z</time></trkpt><trkpt lat="43.26292212079877" lon="12.808058054035417"><ele>1030.0</ele><time>2026-04-11T09:48:21.999Z</time></trkpt><trkpt lat="43.262986115460215" lon="12.80798598730666"><ele>1030.0</ele><time>2026-04-11T09:48:25.999Z</time></trkpt><trkpt lat="43.26300141596529" lon="12.807900995079105"><ele>1030.0</ele><time>2026-04-11T09:48:29.999Z</time></trkpt><trkpt lat="43.26305292711954" lon="12.807828226521416"><ele>1030.0</ele><time>2026-04-11T09:48:37.999Z</time></trkpt><trkpt lat="43.26311750246526" lon="12.80781675809079"><ele>1030.0</ele><time>2026-04-11T09:48:41.999Z</time></trkpt><trkpt lat="43.26319991652886" lon="12.80783963741105"><ele>1030.0</ele><time>2026-04-11T09:48:44.999Z</time></trkpt><trkpt lat="43.26327207381525" lon="12.80788013011962"><ele>1030.0</ele><time>2026-04-11T09:48:46.999Z</time></trkpt><trkpt lat="43.26333559873865" lon="12.807928503453201"><ele>1034.3333333333333</ele><time>2026-04-11T09:48:48.999Z</time></trkpt><trkpt lat="43.263417396960484" lon="12.807970000030714"><ele>1038.6666666666665</ele><time>2026-04-11T09:48:50.999Z</time></trkpt><trkpt lat="43.263526095441314" lon="12.808016117757676"><ele>1043.0</ele><time>2026-04-11T09:48:52.999Z</time></trkpt><trkpt lat="43.26360075281228" lon="12.80804293755339"><ele>1047.3333333333333</ele><time>2026-04-11T09:48:54.999Z</time></trkpt><trkpt lat="43.263667647686695" lon="12.808073504459554"><ele>1051.6666666666667</ele><time>2026-04-11T09:48:55.999Z</time></trkpt><trkpt lat="43.263727460913415" lon="12.808105189387124"><ele>1056.0</ele><time>2026-04-11T09:48:56.999Z</time></trkpt><trkpt lat="43.263789023987805" lon="12.808144497962328"><ele>1056.0</ele><time>2026-04-11T09:48:57.999Z</time></trkpt><trkpt lat="43.26385300842741" lon="12.808179147527655"><ele>1056.0</ele><time>2026-04-11T09:48:58.999Z</time></trkpt><trkpt lat="43.26391821042874" lon="12.80821422064043"><ele>1056.0</ele><time>2026-04-11T09:48:59.999Z</time></trkpt><trkpt lat="43.263983200931825" lon="12.808241830687118"><ele>1056.0</ele><time>2026-04-11T09:49:00.999Z</time></trkpt><trkpt lat="43.26404581135399" lon="12.808281862145936"><ele>1056.0</ele><time>2026-04-11T09:49:01.999Z</time></trkpt><trkpt lat="43.264115225609224" lon="12.808325796888079"><ele>1056.0</ele><time>2026-04-11T09:49:02.999Z</time></trkpt><trkpt lat="43.26418650869657" lon="12.808366074582446"><ele>1056.0</ele><time>2026-04-11T09:49:03.999Z</time></trkpt><trkpt lat="43.26425036787305" lon="12.808402438878622"><ele>1060.5</ele><time>2026-04-11T09:49:04.999Z</time></trkpt><trkpt lat="43.26432712753967" lon="12.808441017115438"><ele>1065.0</ele><time>2026-04-11T09:49:05.999Z</time></trkpt><trkpt lat="43.264391165165904" lon="12.808480068053335"><ele>1069.5</ele><time>2026-04-11T09:49:06.999Z</time></trkpt><trkpt lat="43.26445424823722" lon="12.808512669491188"><ele>1074.0</ele><time>2026-04-11T09:49:07.999Z</time></trkpt><trkpt lat="43.264512769363506" lon="12.808550248177045"><ele>1078.5</ele><time>2026-04-11T09:49:08.999Z</time></trkpt><trkpt lat="43.264612704041696" lon="12.808613674204361"><ele>1083.0</ele><time>2026-04-11T09:49:10.999Z</time></trkpt><trkpt lat="43.264682531250344" lon="12.808663015002788"><ele>1084.857142857143</ele><time>2026-04-11T09:49:13.999Z</time></trkpt><trkpt lat="43.264658041886776" lon="12.80874747351031"><ele>1086.7142857142858</ele><time>2026-04-11T09:49:20.999Z</time></trkpt><trkpt lat="43.26468628944372" lon="12.808842206993035"><ele>1088.5714285714287</ele><time>2026-04-11T09:49:44.999Z</time></trkpt><trkpt lat="43.26475798215412" lon="12.808875181149594"><ele>1090.4285714285716</ele><time>2026-04-11T09:49:46.999Z</time></trkpt><trkpt lat="43.26482920791092" lon="12.80892391256853"><ele>1092.2857142857142</ele><time>2026-04-11T09:49:49.999Z</time></trkpt><trkpt lat="43.26490466829353" lon="12.808937416860578"><ele>1094.1428571428573</ele><time>2026-04-11T09:49:51.999Z</time></trkpt><trkpt lat="43.26496602323667" lon="12.80895878174924"><ele>1096.0</ele><time>2026-04-11T09:49:53.999Z</time></trkpt><trkpt lat="43.26506307768788" lon="12.808935833953665"><ele>1101.8333333333333</ele><time>2026-04-11T09:49:55.999Z</time></trkpt><trkpt lat="43.265138022" lon="12.808918636771024"><ele>1107.6666666666665</ele><time>2026-04-11T09:49:58.999Z</time></trkpt><trkpt lat="43.26519017045571" lon="12.80885658235064"><ele>1113.5</ele><time>2026-04-11T09:50:05.999Z</time></trkpt><trkpt lat="43.26526353567683" lon="12.80873861666064"><ele>1119.3333333333333</ele><time>2026-04-11T09:50:45.999Z</time></trkpt><trkpt lat="43.26523742234211" lon="12.808824299533832"><ele>1125.1666666666667</ele><time>2026-04-11T09:50:50.999Z</time></trkpt><trkpt lat="43.26516908938368" lon="12.808803499323806"><ele>1131.0</ele><time>2026-04-11T09:50:57.999Z</time></trkpt><trkpt lat="43.26510778877855" lon="12.80875300707369"><ele>1131.0</ele><time>2026-04-11T09:51:04.999Z</time></trkpt><trkpt lat="43.26500733835812" lon="12.808791474084112"><ele>1131.0</ele><time>2026-04-11T09:51:06.999Z</time></trkpt><trkpt lat="43.2649350165068" lon="12.808788293605254"><ele>1131.0</ele><time>2026-04-11T09:51:16Z</time></trkpt><trkpt lat="43.2648561923998" lon="12.808785576825628"><ele>1131.0</ele><time>2026-04-11T09:51:19Z</time></trkpt><trkpt lat="43.26478287379422" lon="12.808766250528658"><ele>1131.0</ele><time>2026-04-11T09:51:22Z</time></trkpt><trkpt lat="43.264715285265275" lon="12.808762934699947"><ele>1131.0</ele><time>2026-04-11T09:51:26Z</time></trkpt><trkpt lat="43.26460479890613" lon="12.808797903862855"><ele>1124.0</ele><time>2026-04-11T09:51:27Z</time></trkpt><trkpt lat="43.26451514460449" lon="12.80885123088071"><ele>1117.0</ele><time>2026-04-11T09:51:29Z</time></trkpt><trkpt lat="43.264424025181206" lon="12.808937969995299"><ele>1110.0</ele><time>2026-04-11T09:51:34Z</time></trkpt><trkpt lat="43.26435574235763" lon="12.809034765316898"><ele>1103.0</ele><time>2026-04-11T09:51:36Z</time></trkpt><trkpt lat="43.26432151018505" lon="12.809117198006627"><ele>1096.0</ele><time>2026-04-11T09:51:37Z</time></trkpt><trkpt lat="43.264238423480165" lon="12.809164202613758"><ele>1096.0</ele><time>2026-04-11T09:51:43Z</time></trkpt><trkpt lat="43.26416853523764" lon="12.809240286423336"><ele>1096.0</ele><time>2026-04-11T09:51:46Z</time></trkpt><trkpt lat="43.26409980377593" lon="12.809294949895758"><ele>1096.0</ele><time>2026-04-11T09:51:48Z</time></trkpt><trkpt lat="43.26402957451374" lon="12.809248790644482"><ele>1096.0</ele><time>2026-04-11T09:51:52Z</time></trkpt><trkpt lat="43.26401075759759" lon="12.809154069298359"><ele>1096.0</ele><time>2026-04-11T09:51:56Z</time></trkpt><trkpt lat="43.264036894483816" lon="12.80906876927451"><ele>1096.0</ele><time>2026-04-11T09:52:00Z</time></trkpt><trkpt lat="43.26399823678344" lon="12.808967260390478"><ele>1092.4285714285716</ele><time>2026-04-11T09:52:03Z</time></trkpt><trkpt lat="43.26393655395991" lon="12.808906810885667"><ele>1088.857142857143</ele><time>2026-04-11T09:52:05Z</time></trkpt><trkpt lat="43.263877490623955" lon="12.808838060979095"><ele>1085.2857142857142</ele><time>2026-04-11T09:52:08Z</time></trkpt><trkpt lat="43.26384341553165" lon="12.808763351407263"><ele>1081.7142857142858</ele><time>2026-04-11T09:52:13Z</time></trkpt><trkpt lat="43.26380762631212" lon="12.808691580170857"><ele>1078.142857142857</ele><time>2026-04-11T09:52:18Z</time></trkpt><trkpt lat="43.26375955767396" lon="12.808623994723407"><ele>1074.5714285714287</ele><time>2026-04-11T09:52:24Z</time></trkpt><trkpt lat="43.26369823700604" lon="12.808594022716768"><ele>1071.0</ele><time>2026-04-11T09:52:34Z</time></trkpt><trkpt lat="43.263615693032435" lon="12.808612553528459"><ele>1071.0</ele><time>2026-04-11T09:52:38Z</time></trkpt><trkpt lat="43.2635365052294" lon="12.808662289936752"><ele>1071.0</ele><time>2026-04-11T09:52:42Z</time></trkpt><trkpt lat="43.26347058742502" lon="12.80874988759629"><ele>1071.0</ele><time>2026-04-11T09:52:45Z</time></trkpt><trkpt lat="43.263409391267075" lon="12.80882036391021"><ele>1071.0</ele><time>2026-04-11T09:52:47Z</time></trkpt><trkpt lat="43.26333242122707" lon="12.808864627630934"><ele>1071.0</ele><time>2026-04-11T09:52:49Z</time></trkpt><trkpt lat="43.263250138087415" lon="12.808919963035999"><ele>1071.0</ele><time>2026-04-11T09:52:51Z</time></trkpt><trkpt lat="43.263175154343045" lon="12.80899868452378"><ele>1066.3999999999999</ele><time>2026-04-11T09:52:53Z</time></trkpt><trkpt lat="43.26308599454765" lon="12.809055668555356"><ele>1061.8</ele><time>2026-04-11T09:52:55Z</time></trkpt><trkpt lat="43.2629897573996" lon="12.809092652452334"><ele>1057.1999999999998</ele><time>2026-04-11T09:52:57Z</time></trkpt><trkpt lat="43.26289282677442" lon="12.80910071483489"><ele>1052.6</ele><time>2026-04-11T09:52:59Z</time></trkpt><trkpt lat="43.26281934214264" lon="12.809136806564327"><ele>1048.0</ele><time>2026-04-11T09:53:02Z</time></trkpt><trkpt lat="43.26274221406141" lon="12.809259834434886"><ele>1050.1666666666665</ele><time>2026-04-11T09:53:04Z</time></trkpt><trkpt lat="43.26269926750595" lon="12.809344830554588"><ele>1052.3333333333333</ele><time>2026-04-11T09:53:05Z</time></trkpt><trkpt lat="43.26265822594763" lon="12.80944205851"><ele>1054.5</ele><time>2026-04-11T09:53:06Z</time></trkpt><trkpt lat="43.26260821129475" lon="12.809541304683366"><ele>1056.6666666666667</ele><time>2026-04-11T09:53:07Z</time></trkpt><trkpt lat="43.26256672595708" lon="12.809618532007491"><ele>1058.8333333333335</ele><time>2026-04-11T09:53:08Z</time></trkpt><trkpt lat="43.26251980713789" lon="12.809712226001853"><ele>1061.0</ele><time>2026-04-11T09:53:09Z</time></trkpt><trkpt lat="43.2624789746208" lon="12.809782847342516"><ele>1061.0000000000002</ele><time>2026-04-11T09:53:10Z</time></trkpt><trkpt lat="43.26243956134146" lon="12.80986197320209"><ele>1061.0</ele><time>2026-04-11T09:53:11Z</time></trkpt><trkpt lat="43.26240209030841" lon="12.80993624723779"><ele>1061.0</ele><time>2026-04-11T09:53:12Z</time></trkpt><trkpt lat="43.26236097836875" lon="12.810023766320771"><ele>1061.0</ele><time>2026-04-11T09:53:13Z</time></trkpt><trkpt lat="43.26232432469294" lon="12.81010270679726"><ele>1061.0</ele><time>2026-04-11T09:53:14Z</time></trkpt><trkpt lat="43.26227495954354" lon="12.810177611060865"><ele>1061.0000000000002</ele><time>2026-04-11T09:53:15Z</time></trkpt><trkpt lat="43.26222302164257" lon="12.810271829662009"><ele>1061.0</ele><time>2026-04-11T09:53:16Z</time></trkpt><trkpt lat="43.26216314502185" lon="12.810360832765513"><ele>1057.1666666666667</ele><time>2026-04-11T09:53:17Z</time></trkpt><trkpt lat="43.26211952702102" lon="12.810442905273852"><ele>1053.3333333333335</ele><time>2026-04-11T09:53:18Z</time></trkpt><trkpt lat="43.262053279268045" lon="12.810523228519159"><ele>1049.5</ele><time>2026-04-11T09:53:19Z</time></trkpt><trkpt lat="43.2619966626545" lon="12.810608800062269"><ele>1045.6666666666667</ele><time>2026-04-11T09:53:20Z</time></trkpt><trkpt lat="43.26194487541964" lon="12.810695556556388"><ele>1041.8333333333333</ele><time>2026-04-11T09:53:21Z</time></trkpt><trkpt lat="43.2619002858157" lon="12.810765348989436"><ele>1038.0</ele><time>2026-04-11T09:53:22Z</time></trkpt><trkpt lat="43.26183604035228" lon="12.810855432733561"><ele>1038.0</ele><time>2026-04-11T09:53:23Z</time></trkpt><trkpt lat="43.26177023024912" lon="12.81095929465865"><ele>1038.0</ele><time>2026-04-11T09:53:24Z</time></trkpt><trkpt lat="43.26170203014201" lon="12.811069006477709"><ele>1038.0</ele><time>2026-04-11T09:53:25Z</time></trkpt><trkpt lat="43.2616223656562" lon="12.811165711029822"><ele>1038.0</ele><time>2026-04-11T09:53:26Z</time></trkpt><trkpt lat="43.26153734294521" lon="12.811263524847782"><ele>1038.0</ele><time>2026-04-11T09:53:27Z</time></trkpt><trkpt lat="43.26147094235" lon="12.811346191838666"><ele>1034.3333333333333</ele><time>2026-04-11T09:53:28Z</time></trkpt><trkpt lat="43.26141892608721" lon="12.811429052660705"><ele>1030.6666666666667</ele><time>2026-04-11T09:53:29Z</time></trkpt><trkpt lat="43.26136066301556" lon="12.811514496420974"><ele>1027.0</ele><time>2026-04-11T09:53:30Z</time></trkpt><trkpt lat="43.261314894410646" lon="12.81158180176226"><ele>1023.3333333333334</ele><time>2026-04-11T09:53:31Z</time></trkpt><trkpt lat="43.261272032304745" lon="12.811670719357275"><ele>1019.6666666666667</ele><time>2026-04-11T09:53:32Z</time></trkpt><trkpt lat="43.26122787938462" lon="12.81175695772526"><ele>1016.0</ele><time>2026-04-11T09:53:33Z</time></trkpt><trkpt lat="43.261189481318596" lon="12.81185005833058"><ele>1015.5</ele><time>2026-04-11T09:53:34Z</time></trkpt><trkpt lat="43.26115949049784" lon="12.811936571981418"><ele>1015.0</ele><time>2026-04-11T09:53:35Z</time></trkpt><trkpt lat="43.26112718593837" lon="12.81202736788815"><ele>1014.5</ele><time>2026-04-11T09:53:36Z</time></trkpt><trkpt lat="43.26109372894507" lon="12.812126657342136"><ele>1014.0</ele><time>2026-04-11T09:53:37Z</time></trkpt><trkpt lat="43.26083262601034" lon="12.812120740784277"><ele>1014.0</ele><time>2026-04-11T09:53:38Z</time></trkpt><trkpt lat="43.260808889752056" lon="12.812205092214583"><ele>1014.0000000000001</ele><time>2026-04-11T09:53:39Z</time></trkpt><trkpt lat="43.26078324444901" lon="12.812287429467036"><ele>1014.0000000000001</ele><time>2026-04-11T09:53:40Z</time></trkpt><trkpt lat="43.26075173891703" lon="12.812378849875488"><ele>1014.0</ele><time>2026-04-11T09:53:41Z</time></trkpt><trkpt lat="43.260697461826815" lon="12.812518213544259"><ele>1014.0</ele><time>2026-04-11T09:53:43Z</time></trkpt><trkpt lat="43.26058988700169" lon="12.8126748597423"><ele>1010.25</ele><time>2026-04-11T09:53:45Z</time></trkpt><trkpt lat="43.260505300278254" lon="12.81277119642248"><ele>1006.5</ele><time>2026-04-11T09:53:46Z</time></trkpt><trkpt lat="43.2604018125439" lon="12.812865823682953"><ele>1002.75</ele><time>2026-04-11T09:53:47Z</time></trkpt><trkpt lat="43.26030698826435" lon="12.81294154280537"><ele>999.0</ele><time>2026-04-11T09:53:48Z</time></trkpt><trkpt lat="43.26018005967707" lon="12.813048490905423"><ele>999.0</ele><time>2026-04-11T09:53:49Z</time></trkpt><trkpt lat="43.26007661171238" lon="12.813152582962056"><ele>999.0</ele><time>2026-04-11T09:53:50Z</time></trkpt><trkpt lat="43.25998306505069" lon="12.81326237281699"><ele>999.0</ele><time>2026-04-11T09:53:51Z</time></trkpt><trkpt lat="43.25989632097126" lon="12.813359602407107"><ele>999.0</ele><time>2026-04-11T09:53:52Z</time></trkpt><trkpt lat="43.259819399204" lon="12.813442200914285"><ele>999.8333333333334</ele><time>2026-04-11T09:53:53Z</time></trkpt><trkpt lat="43.259747593630166" lon="12.81350939664104"><ele>1000.6666666666667</ele><time>2026-04-11T09:53:54Z</time></trkpt><trkpt lat="43.25968158089129" lon="12.813568194330054"><ele>1001.5</ele><time>2026-04-11T09:53:55Z</time></trkpt><trkpt lat="43.25962616286791" lon="12.813610765756387"><ele>1002.3333333333334</ele><time>2026-04-11T09:53:56Z</time></trkpt><trkpt lat="43.25952430924911" lon="12.813671780517149"><ele>1003.1666666666667</ele><time>2026-04-11T09:53:58Z</time></trkpt><trkpt lat="43.25944044393883" lon="12.813699450560875"><ele>1004.0</ele><time>2026-04-11T09:54:00Z</time></trkpt><trkpt lat="43.25938718648837" lon="12.813752188352764"><ele>1004.0000000000001</ele><time>2026-04-11T09:54:02Z</time></trkpt><trkpt lat="43.25930085471439" lon="12.813811543132111"><ele>1004.0</ele><time>2026-04-11T09:55:31Z</time></trkpt><trkpt lat="43.25926456578875" lon="12.813729715990043"><ele>1004.0</ele><time>2026-04-11T09:55:55Z</time></trkpt><trkpt lat="43.25928682553961" lon="12.813637611646715"><ele>1004.0</ele><time>2026-04-11T09:55:56Z</time></trkpt><trkpt lat="43.25931472179987" lon="12.81354724823221"><ele>1004.0000000000001</ele><time>2026-04-11T09:55:57Z</time></trkpt><trkpt lat="43.25933452267775" lon="12.813447040817502"><ele>1004.0</ele><time>2026-04-11T09:55:58Z</time></trkpt><trkpt lat="43.259374991715035" lon="12.813364295335019"><ele>1002.6666666666667</ele><time>2026-04-11T09:55:59Z</time></trkpt><trkpt lat="43.25942656030792" lon="12.813273220209854"><ele>1001.3333333333334</ele><time>2026-04-11T09:56:00Z</time></trkpt><trkpt lat="43.25947944933179" lon="12.813176930111576"><ele>1000.0</ele><time>2026-04-11T09:56:01Z</time></trkpt><trkpt lat="43.25952538299934" lon="12.813080627404215"><ele>998.6666666666667</ele><time>2026-04-11T09:56:02Z</time></trkpt><trkpt lat="43.259568923297714" lon="12.812978561455223"><ele>997.3333333333334</ele><time>2026-04-11T09:56:03Z</time></trkpt><trkpt lat="43.25961660275287" lon="12.81287707137311"><ele>996.0</ele><time>2026-04-11T09:56:04Z</time></trkpt><trkpt lat="43.259668056459944" lon="12.812773340355767"><ele>996.0</ele><time>2026-04-11T09:56:05Z</time></trkpt><trkpt lat="43.25971387138858" lon="12.81267027597397"><ele>996.0</ele><time>2026-04-11T09:56:05.999Z</time></trkpt><trkpt lat="43.25976349666392" lon="12.812573582934554"><ele>996.0</ele><time>2026-04-11T09:56:06.999Z</time></trkpt><trkpt lat="43.25980661958838" lon="12.812478800375638"><ele>996.0</ele><time>2026-04-11T09:56:07.999Z</time></trkpt><trkpt lat="43.25984333499339" lon="12.812388072002468"><ele>996.0</ele><time>2026-04-11T09:56:08.999Z</time></trkpt><trkpt lat="43.259877918414496" lon="12.81230065533374"><ele>996.0</ele><time>2026-04-11T09:56:09.999Z</time></trkpt><trkpt lat="43.2599118475773" lon="12.812215374884323"><ele>996.0</ele><time>2026-04-11T09:56:10.999Z</time></trkpt><trkpt lat="43.25993999262098" lon="12.812131578567953"><ele>995.9999999999999</ele><time>2026-04-11T09:56:11.999Z</time></trkpt><trkpt lat="43.259960730140584" lon="12.812047668649022"><ele>995.9999999999999</ele><time>2026-04-11T09:56:12.999Z</time></trkpt><trkpt lat="43.259987334317984" lon="12.811887793658508"><ele>996.0</ele><time>2026-04-11T09:56:14.999Z</time></trkpt><trkpt lat="43.260014347065734" lon="12.811765782057176"><ele>996.0</ele><time>2026-04-11T09:56:16.999Z</time></trkpt><trkpt lat="43.260042836447134" lon="12.811619589280697"><ele>995.4</ele><time>2026-04-11T09:56:19.999Z</time></trkpt><trkpt lat="43.26006080955723" lon="12.811505921441011"><ele>994.8</ele><time>2026-04-11T09:56:21.999Z</time></trkpt><trkpt lat="43.26007666567496" lon="12.811384316481353"><ele>994.1999999999999</ele><time>2026-04-11T09:56:23.999Z</time></trkpt><trkpt lat="43.26009783648765" lon="12.811233281834324"><ele>993.5999999999999</ele><time>2026-04-11T09:56:25.999Z</time></trkpt><trkpt lat="43.26011899937172" lon="12.811114272165439"><ele>993.0</ele><time>2026-04-11T09:56:27.999Z</time></trkpt><trkpt lat="43.2601400905796" lon="12.810959924395103"><ele>991.2</ele><time>2026-04-11T09:56:29.999Z</time></trkpt><trkpt lat="43.260177210253495" lon="12.81079908757593"><ele>989.4</ele><time>2026-04-11T09:56:31.999Z</time></trkpt><trkpt lat="43.260217699907734" lon="12.8106602600083"><ele>987.6000000000001</ele><time>2026-04-11T09:56:33.999Z</time></trkpt><trkpt lat="43.260280178142004" lon="12.810564845273854"><ele>985.8000000000001</ele><time>2026-04-11T09:56:35.999Z</time></trkpt><trkpt lat="43.260363046348786" lon="12.810487010712325"><ele>984.0</ele><time>2026-04-11T09:56:37.999Z</time></trkpt><trkpt lat="43.26041793568825" lon="12.810440734752996"><ele>984.0</ele><time>2026-04-11T09:56:38.999Z</time></trkpt><trkpt lat="43.2604768423384" lon="12.810408694012652"><ele>984.0</ele><time>2026-04-11T09:56:39.999Z</time></trkpt><trkpt lat="43.26057491945844" lon="12.810357622374582"><ele>984.0</ele><time>2026-04-11T09:56:41.999Z</time></trkpt><trkpt lat="43.26063796664777" lon="12.8102961268996"><ele>984.0</ele><time>2026-04-11T09:56:43.999Z</time></trkpt><trkpt lat="43.26066341928851" lon="12.810171307247947"><ele>984.0</ele><time>2026-04-11T09:56:45.999Z</time></trkpt><trkpt lat="43.260684548488754" lon="12.81007897312025"><ele>984.0</ele><time>2026-04-11T09:56:46.999Z</time></trkpt><trkpt lat="43.26069540901849" lon="12.809990471318352"><ele>986.0</ele><time>2026-04-11T09:56:47.999Z</time></trkpt><trkpt lat="43.260720676233156" lon="12.809869265842694"><ele>988.0000000000001</ele><time>2026-04-11T09:56:49.999Z</time></trkpt><trkpt lat="43.26071195351015" lon="12.809745007281093"><ele>990.0000000000001</ele><time>2026-04-11T09:56:51.999Z</time></trkpt><trkpt lat="43.26069745038199" lon="12.809595105809128"><ele>992.0</ele><time>2026-04-11T09:56:53.999Z</time></trkpt><trkpt lat="43.26067430553749" lon="12.8094619506809"><ele>994.0</ele><time>2026-04-11T09:56:55.999Z</time></trkpt><trkpt lat="43.26065664236264" lon="12.80930691201565"><ele>993.9999999999999</ele><time>2026-04-11T09:56:57.999Z</time></trkpt><trkpt lat="43.26065348687057" lon="12.809188414405257"><ele>994.0</ele><time>2026-04-11T09:56:58.999Z</time></trkpt><trkpt lat="43.26065522275644" lon="12.809085379841308"><ele>994.0</ele><time>2026-04-11T09:56:59.999Z</time></trkpt><trkpt lat="43.26067465889711" lon="12.808985692440942"><ele>994.0</ele><time>2026-04-11T09:57:00.999Z</time></trkpt><trkpt lat="43.260691379333274" lon="12.808876567631868"><ele>993.9999999999999</ele><time>2026-04-11T09:57:01.999Z</time></trkpt><trkpt lat="43.260700846263916" lon="12.808789382750584"><ele>994.0</ele><time>2026-04-11T09:57:02.999Z</time></trkpt><trkpt lat="43.26071112978051" lon="12.808657029765337"><ele>993.9999999999999</ele><time>2026-04-11T09:57:04.999Z</time></trkpt><trkpt lat="43.26072234583092" lon="12.808512508424451"><ele>994.0</ele><time>2026-04-11T09:57:06.999Z</time></trkpt><trkpt lat="43.26073631356084" lon="12.808421651885762"><ele>994.0</ele><time>2026-04-11T09:57:07.999Z</time></trkpt><trkpt lat="43.260765036257126" lon="12.808336838626454"><ele>994.0</ele><time>2026-04-11T09:57:08.999Z</time></trkpt><trkpt lat="43.26079864870333" lon="12.80826116400337"><ele>993.9999999999999</ele><time>2026-04-11T09:57:09.999Z</time></trkpt><trkpt lat="43.26083853649119" lon="12.808155605575374"><ele>994.0</ele><time>2026-04-11T09:57:11.999Z</time></trkpt><trkpt lat="43.26087917027555" lon="12.808015184778155"><ele>993.4999999999999</ele><time>2026-04-11T09:57:13.999Z</time></trkpt><trkpt lat="43.26090113208934" lon="12.807930219440731"><ele>993.0</ele><time>2026-04-11T09:57:14.999Z</time></trkpt><trkpt lat="43.26093173311895" lon="12.807843805056853"><ele>992.5</ele><time>2026-04-11T09:57:15.999Z</time></trkpt><trkpt lat="43.26099653794438" lon="12.807672711380388"><ele>992.0</ele><time>2026-04-11T09:57:17.999Z</time></trkpt><trkpt lat="43.26104228305318" lon="12.807570707512172"><ele>991.4999999999999</ele><time>2026-04-11T09:57:18.999Z</time></trkpt><trkpt lat="43.26108206118953" lon="12.807477295250864"><ele>991.0</ele><time>2026-04-11T09:57:19.999Z</time></trkpt><trkpt lat="43.261113502539914" lon="12.807397663362071"><ele>988.8</ele><time>2026-04-11T09:57:20.999Z</time></trkpt><trkpt lat="43.26115683503101" lon="12.807327855419341"><ele>986.5999999999999</ele><time>2026-04-11T09:57:21.999Z</time></trkpt><trkpt lat="43.261157271513476" lon="12.807134774873683"><ele>984.4</ele><time>2026-04-11T09:57:23.999Z</time></trkpt><trkpt lat="43.26122880287565" lon="12.807025898597015"><ele>982.2</ele><time>2026-04-11T09:57:25.999Z</time></trkpt><trkpt lat="43.26133188960795" lon="12.80702801207043"><ele>980.0</ele><time>2026-04-11T09:57:27.999Z</time></trkpt><trkpt lat="43.261382970825444" lon="12.806935167724825"><ele>979.2857142857142</ele><time>2026-04-11T09:57:29.999Z</time></trkpt><trkpt lat="43.26145903313272" lon="12.806901588491476"><ele>978.5714285714286</ele><time>2026-04-11T09:57:31.999Z</time></trkpt><trkpt lat="43.26151477217157" lon="12.806860203636782"><ele>977.8571428571429</ele><time>2026-04-11T09:57:34.999Z</time></trkpt><trkpt lat="43.26157013962208" lon="12.806817012374603"><ele>977.1428571428571</ele><time>2026-04-11T09:57:38.999Z</time></trkpt><trkpt lat="43.26164627631961" lon="12.806778468015212"><ele>976.4285714285713</ele><time>2026-04-11T09:57:41.999Z</time></trkpt><trkpt lat="43.261704466615555" lon="12.806739579582045"><ele>975.7142857142857</ele><time>2026-04-11T09:57:43.999Z</time></trkpt><trkpt lat="43.26175580585334" lon="12.806637257476986"><ele>975.0</ele><time>2026-04-11T09:57:45.999Z</time></trkpt><trkpt lat="43.26179614955165" lon="12.80652478767104"><ele>975.0</ele><time>2026-04-11T09:57:47.999Z</time></trkpt><trkpt lat="43.26185189660818" lon="12.806409381341311"><ele>975.0</ele><time>2026-04-11T09:57:49.999Z</time></trkpt><trkpt lat="43.261909388072894" lon="12.806305520221507"><ele>975.0</ele><time>2026-04-11T09:57:51.999Z</time></trkpt><trkpt lat="43.26196969444526" lon="12.806254287791388"><ele>975.0</ele><time>2026-04-11T09:57:52.999Z</time></trkpt><trkpt lat="43.26202889246282" lon="12.806196651200294"><ele>975.0</ele><time>2026-04-11T09:57:53.999Z</time></trkpt><trkpt lat="43.262219978609735" lon="12.806173801478481"><ele>977.4</ele><time>2026-04-11T09:57:55.999Z</time></trkpt><trkpt lat="43.26228545953467" lon="12.806040192908865"><ele>979.8</ele><time>2026-04-11T09:57:57.999Z</time></trkpt><trkpt lat="43.26236308527341" lon="12.805929351044329"><ele>982.2</ele><time>2026-04-11T09:57:59.999Z</time></trkpt><trkpt lat="43.26246175745012" lon="12.805838627520773"><ele>984.6</ele><time>2026-04-11T09:58:01.999Z</time></trkpt><trkpt lat="43.26251975402882" lon="12.805796589915587"><ele>987.0</ele><time>2026-04-11T09:58:02.999Z</time></trkpt><trkpt lat="43.26262044772574" lon="12.80573063964496"><ele>981.2</ele><time>2026-04-11T09:58:04.999Z</time></trkpt><trkpt lat="43.262721566519296" lon="12.805667679450162"><ele>975.4000000000001</ele><time>2026-04-11T09:58:06.999Z</time></trkpt><trkpt lat="43.26283775677915" lon="12.805590325818095"><ele>969.5999999999999</ele><time>2026-04-11T09:58:10.999Z</time></trkpt><trkpt lat="43.26290969372329" lon="12.805574319435573"><ele>963.8</ele><time>2026-04-11T09:58:12.999Z</time></trkpt><trkpt lat="43.26297541927607" lon="12.805541124691207"><ele>958.0</ele><time>2026-04-11T09:58:14.999Z</time></trkpt><trkpt lat="43.26304212723533" lon="12.80550083381415"><ele>958.0</ele><time>2026-04-11T09:58:15.999Z</time></trkpt><trkpt lat="43.263100531482884" lon="12.805399959692444"><ele>958.0</ele><time>2026-04-11T09:58:17.999Z</time></trkpt><trkpt lat="43.26313347827123" lon="12.805240444492462"><ele>958.0</ele><time>2026-04-11T09:58:19.999Z</time></trkpt><trkpt lat="43.263144167252676" lon="12.805100652075234"><ele>958.0</ele><time>2026-04-11T09:58:21.999Z</time></trkpt><trkpt lat="43.263170775168554" lon="12.804937714363092"><ele>958.0</ele><time>2026-04-11T09:58:23.999Z</time></trkpt><trkpt lat="43.26318584332812" lon="12.804842833845786"><ele>958.2</ele><time>2026-04-11T09:58:24.999Z</time></trkpt><trkpt lat="43.263201921648765" lon="12.804745184419449"><ele>958.4</ele><time>2026-04-11T09:58:25.999Z</time></trkpt><trkpt lat="43.26322422063809" lon="12.80462505393648"><ele>958.6000000000001</ele><time>2026-04-11T09:58:26.999Z</time></trkpt><trkpt lat="43.26325076141595" lon="12.804498332442536"><ele>958.8000000000001</ele><time>2026-04-11T09:58:27.999Z</time></trkpt><trkpt lat="43.26327688413886" lon="12.804373606682143"><ele>959.0</ele><time>2026-04-11T09:58:29Z</time></trkpt><trkpt lat="43.26330921810791" lon="12.804213725471442"><ele>956.6</ele><time>2026-04-11T09:58:30Z</time></trkpt><trkpt lat="43.26333734009915" lon="12.804071102491418"><ele>954.2</ele><time>2026-04-11T09:58:31Z</time></trkpt><trkpt lat="43.263363436629234" lon="12.803940365209877"><ele>951.8000000000001</ele><time>2026-04-11T09:58:32Z</time></trkpt><trkpt lat="43.26338761531703" lon="12.803819235824381"><ele>949.4000000000001</ele><time>2026-04-11T09:58:33Z</time></trkpt><trkpt lat="43.2634139028735" lon="12.80368724541271"><ele>947.0</ele><time>2026-04-11T09:58:34Z</time></trkpt><trkpt lat="43.26342376784501" lon="12.803564779771598"><ele>943.4000000000001</ele><time>2026-04-11T09:58:35Z</time></trkpt><trkpt lat="43.263452804194586" lon="12.80344049510298"><ele>939.8000000000001</ele><time>2026-04-11T09:58:36Z</time></trkpt><trkpt lat="43.26348447078851" lon="12.803313087378065"><ele>936.2</ele><time>2026-04-11T09:58:37Z</time></trkpt><trkpt lat="43.26351673032719" lon="12.803175683934422"><ele>932.6</ele><time>2026-04-11T09:58:38Z</time></trkpt><trkpt lat="43.26354282783202" lon="12.803044912156825"><ele>929.0</ele><time>2026-04-11T09:58:39Z</time></trkpt><trkpt lat="43.26355855667583" lon="12.80289449364961"><ele>929.0</ele><time>2026-04-11T09:58:40Z</time></trkpt><trkpt lat="43.263611964096974" lon="12.802763209289804"><ele>929.0000000000001</ele><time>2026-04-11T09:58:41Z</time></trkpt><trkpt lat="43.26364585769925" lon="12.802641127626616"><ele>929.0000000000001</ele><time>2026-04-11T09:58:42Z</time></trkpt><trkpt lat="43.26367554363293" lon="12.802527481359666"><ele>929.0</ele><time>2026-04-11T09:58:43Z</time></trkpt><trkpt lat="43.26370662346745" lon="12.802412332371617"><ele>929.0</ele><time>2026-04-11T09:58:44Z</time></trkpt><trkpt lat="43.26374101194738" lon="12.802304424759525"><ele>926.5000000000001</ele><time>2026-04-11T09:58:45Z</time></trkpt><trkpt lat="43.2637682484695" lon="12.802200273544107"><ele>924.0</ele><time>2026-04-11T09:58:46Z</time></trkpt><trkpt lat="43.26380039849752" lon="12.802101286087328"><ele>921.5</ele><time>2026-04-11T09:58:47Z</time></trkpt><trkpt lat="43.26382647451748" lon="12.801998320433272"><ele>919.0</ele><time>2026-04-11T09:58:48Z</time></trkpt><trkpt lat="43.26386374378151" lon="12.801922026955467"><ele>916.5000000000001</ele><time>2026-04-11T09:58:49Z</time></trkpt><trkpt lat="43.26389300742301" lon="12.801827833048526"><ele>914.0</ele><time>2026-04-11T09:58:50Z</time></trkpt><trkpt lat="43.263925644298794" lon="12.801722781300535"><ele>916.7142857142858</ele><time>2026-04-11T09:58:51Z</time></trkpt><trkpt lat="43.26395345988388" lon="12.801632031722676"><ele>919.4285714285714</ele><time>2026-04-11T09:58:52Z</time></trkpt><trkpt lat="43.26398512303319" lon="12.801525744229247"><ele>922.1428571428571</ele><time>2026-04-11T09:58:53Z</time></trkpt><trkpt lat="43.26400952483484" lon="12.801439385613586"><ele>924.8571428571429</ele><time>2026-04-11T09:58:54Z</time></trkpt><trkpt lat="43.26403001222109" lon="12.80134515576913"><ele>927.5714285714284</ele><time>2026-04-11T09:58:55Z</time></trkpt><trkpt lat="43.26405727438231" lon="12.80125466620973"><ele>930.2857142857142</ele><time>2026-04-11T09:58:56Z</time></trkpt><trkpt lat="43.26408787140904" lon="12.8011724664121"><ele>933.0</ele><time>2026-04-11T09:58:57Z</time></trkpt><trkpt lat="43.2641161753594" lon="12.801008163345092"><ele>928.5999999999999</ele><time>2026-04-11T09:58:59Z</time></trkpt><trkpt lat="43.26415510968902" lon="12.800846814763442"><ele>924.1999999999999</ele><time>2026-04-11T09:59:01Z</time></trkpt><trkpt lat="43.26417213663831" lon="12.80076080387039"><ele>919.8</ele><time>2026-04-11T09:59:02Z</time></trkpt><trkpt lat="43.2642012993624" lon="12.80063366916069"><ele>915.4</ele><time>2026-04-11T09:59:04Z</time></trkpt><trkpt lat="43.26424468729764" lon="12.800521800688337"><ele>911.0</ele><time>2026-04-11T09:59:06Z</time></trkpt><trkpt lat="43.264280472439815" lon="12.800356123799373"><ele>905.5</ele><time>2026-04-11T09:59:08Z</time></trkpt><trkpt lat="43.26435869328857" lon="12.800158086850534"><ele>900.0</ele><time>2026-04-11T09:59:10Z</time></trkpt><trkpt lat="43.264394784993755" lon="12.800050111116626"><ele>894.5</ele><time>2026-04-11T09:59:11Z</time></trkpt><trkpt lat="43.26442651977289" lon="12.799865389993087"><ele>889.0</ele><time>2026-04-11T09:59:13Z</time></trkpt><trkpt lat="43.2644518002772" lon="12.799756268842453"><ele>888.9999999999999</ele><time>2026-04-11T09:59:14Z</time></trkpt><trkpt lat="43.264469592559514" lon="12.799652669319995"><ele>889.0</ele><time>2026-04-11T09:59:15Z</time></trkpt><trkpt lat="43.26449042105705" lon="12.799542259001498"><ele>889.0</ele><time>2026-04-11T09:59:16Z</time></trkpt><trkpt lat="43.26451339257805" lon="12.799444213548679"><ele>889.0</ele><time>2026-04-11T09:59:17Z</time></trkpt><trkpt lat="43.2645176969851" lon="12.799347453889782"><ele>888.9999999999999</ele><time>2026-04-11T09:59:18Z</time></trkpt><trkpt lat="43.26450806918085" lon="12.799216859004432"><ele>889.0</ele><time>2026-04-11T09:59:20Z</time></trkpt><trkpt lat="43.26450463373339" lon="12.7991272131213"><ele>885.2</ele><time>2026-04-11T09:59:22Z</time></trkpt><trkpt lat="43.2646362826389" lon="12.799085494084407"><ele>881.4000000000001</ele><time>2026-04-11T09:59:23Z</time></trkpt><trkpt lat="43.2646828630566" lon="12.799012217589356"><ele>877.6</ele><time>2026-04-11T09:59:25Z</time></trkpt><trkpt lat="43.26474958693515" lon="12.798918755787659"><ele>873.8</ele><time>2026-04-11T09:59:27Z</time></trkpt><trkpt lat="43.264801326937025" lon="12.79883791062503"><ele>870.0</ele><time>2026-04-11T09:59:28Z</time></trkpt><trkpt lat="43.26485267201907" lon="12.7987453528274"><ele>873.8</ele><time>2026-04-11T09:59:29Z</time></trkpt><trkpt lat="43.2649040281372" lon="12.798644410909516"><ele>877.6</ele><time>2026-04-11T09:59:30Z</time></trkpt><trkpt lat="43.26494915150582" lon="12.798538277839583"><ele>881.4000000000001</ele><time>2026-04-11T09:59:31Z</time></trkpt><trkpt lat="43.26499660159566" lon="12.798418095886843"><ele>885.2</ele><time>2026-04-11T09:59:32Z</time></trkpt><trkpt lat="43.26503644986212" lon="12.798291794421974"><ele>889.0</ele><time>2026-04-11T09:59:33Z</time></trkpt><trkpt lat="43.265077063473676" lon="12.798168806147848"><ele>889.0</ele><time>2026-04-11T09:59:34Z</time></trkpt><trkpt lat="43.265142204098304" lon="12.798033728705429"><ele>889.0000000000001</ele><time>2026-04-11T09:59:35Z</time></trkpt><trkpt lat="43.26519089996051" lon="12.797911707854936"><ele>889.0000000000001</ele><time>2026-04-11T09:59:36Z</time></trkpt><trkpt lat="43.265237732938786" lon="12.797792961881768"><ele>889.0</ele><time>2026-04-11T09:59:37Z</time></trkpt><trkpt lat="43.265284670252555" lon="12.79768086621248"><ele>889.0</ele><time>2026-04-11T09:59:38Z</time></trkpt><trkpt lat="43.26532627527726" lon="12.797575105295728"><ele>885.4000000000001</ele><time>2026-04-11T09:59:39Z</time></trkpt><trkpt lat="43.265376796153824" lon="12.797457157332362"><ele>881.8000000000001</ele><time>2026-04-11T09:59:40Z</time></trkpt><trkpt lat="43.26542930123498" lon="12.79733855400819"><ele>878.1999999999999</ele><time>2026-04-11T09:59:41Z</time></trkpt><trkpt lat="43.2654807621572" lon="12.797201139759771"><ele>874.5999999999999</ele><time>2026-04-11T09:59:42Z</time></trkpt><trkpt lat="43.26552408857616" lon="12.797033824829187"><ele>871.0</ele><time>2026-04-11T09:59:43Z</time></trkpt><trkpt lat="43.265573007603" lon="12.79685815727815"><ele>876.5</ele><time>2026-04-11T09:59:44Z</time></trkpt><trkpt lat="43.26561468142304" lon="12.796685210948745"><ele>882.0</ele><time>2026-04-11T09:59:45Z</time></trkpt><trkpt lat="43.26567111284027" lon="12.79652292618347"><ele>887.5</ele><time>2026-04-11T09:59:46Z</time></trkpt><trkpt lat="43.2657155482824" lon="12.796366434901426"><ele>893.0</ele><time>2026-04-11T09:59:47Z</time></trkpt><trkpt lat="43.265761127067954" lon="12.796214234015213"><ele>893.0</ele><time>2026-04-11T09:59:48Z</time></trkpt><trkpt lat="43.26579158878978" lon="12.796075347583203"><ele>893.0</ele><time>2026-04-11T09:59:49Z</time></trkpt><trkpt lat="43.26581608830472" lon="12.795929514889037"><ele>893.0</ele><time>2026-04-11T09:59:50Z</time></trkpt><trkpt lat="43.265860644312994" lon="12.79575813300144"><ele>893.0</ele><time>2026-04-11T09:59:51Z</time></trkpt><trkpt lat="43.26591506290317" lon="12.795634215887741"><ele>889.8333333333334</ele><time>2026-04-11T09:59:52Z</time></trkpt><trkpt lat="43.26595872022253" lon="12.795515838868736"><ele>886.6666666666667</ele><time>2026-04-11T09:59:53Z</time></trkpt><trkpt lat="43.266006695960215" lon="12.795413782877137"><ele>883.5</ele><time>2026-04-11T09:59:54Z</time></trkpt><trkpt lat="43.26606214149699" lon="12.795306673306568"><ele>880.3333333333333</ele><time>2026-04-11T09:59:55Z</time></trkpt><trkpt lat="43.26608413663484" lon="12.795221823281347"><ele>877.1666666666666</ele><time>2026-04-11T09:59:56Z</time></trkpt><trkpt lat="43.26612462783321" lon="12.795118547197271"><ele>874.0</ele><time>2026-04-11T09:59:57Z</time></trkpt><trkpt lat="43.26616298002609" lon="12.795011585799582"><ele>871.6666666666666</ele><time>2026-04-11T09:59:58Z</time></trkpt><trkpt lat="43.266196567578405" lon="12.794914864295135"><ele>869.3333333333333</ele><time>2026-04-11T09:59:59Z</time></trkpt><trkpt lat="43.26622737991493" lon="12.794815500829907"><ele>867.0</ele><time>2026-04-11T10:00:00Z</time></trkpt><trkpt lat="43.2662567027975" lon="12.794705347477635"><ele>864.6666666666667</ele><time>2026-04-11T10:00:01Z</time></trkpt><trkpt lat="43.266282733968026" lon="12.794585788638862"><ele>862.3333333333334</ele><time>2026-04-11T10:00:02Z</time></trkpt><trkpt lat="43.266294475179194" lon="12.79444267294049"><ele>860.0</ele><time>2026-04-11T10:00:03Z</time></trkpt><trkpt lat="43.266295071192054" lon="12.794310096140132"><ele>857.8</ele><time>2026-04-11T10:00:04Z</time></trkpt><trkpt lat="43.266301671764026" lon="12.794177227889428"><ele>855.6</ele><time>2026-04-11T10:00:05Z</time></trkpt><trkpt lat="43.266304174102295" lon="12.79404041281356"><ele>853.4000000000001</ele><time>2026-04-11T10:00:06Z</time></trkpt><trkpt lat="43.26631977066713" lon="12.793897489665893"><ele>851.2</ele><time>2026-04-11T10:00:07Z</time></trkpt><trkpt lat="43.266337968707944" lon="12.793747848726172"><ele>849.0</ele><time>2026-04-11T10:00:08Z</time></trkpt><trkpt lat="43.26634681941912" lon="12.793603622022703"><ele>847.6</ele><time>2026-04-11T10:00:09Z</time></trkpt><trkpt lat="43.26636015319447" lon="12.793464461820694"><ele>846.2</ele><time>2026-04-11T10:00:10Z</time></trkpt><trkpt lat="43.26637561658088" lon="12.793317809617612"><ele>844.8000000000001</ele><time>2026-04-11T10:00:11Z</time></trkpt><trkpt lat="43.26638399291428" lon="12.793190280667984"><ele>843.4000000000001</ele><time>2026-04-11T10:00:12Z</time></trkpt><trkpt lat="43.266380708961215" lon="12.793062819940959"><ele>842.0</ele><time>2026-04-11T10:00:13Z</time></trkpt><trkpt lat="43.26636964287527" lon="12.792924180790708"><ele>842.0</ele><time>2026-04-11T10:00:14Z</time></trkpt><trkpt lat="43.26635144656583" lon="12.792810411346178"><ele>842.0</ele><time>2026-04-11T10:00:15Z</time></trkpt><trkpt lat="43.26633800114154" lon="12.792681265665804"><ele>842.0</ele><time>2026-04-11T10:00:16Z</time></trkpt><trkpt lat="43.26632479009144" lon="12.792548489463776"><ele>842.0</ele><time>2026-04-11T10:00:17Z</time></trkpt><trkpt lat="43.26631359111431" lon="12.792427762927158"><ele>842.0</ele><time>2026-04-11T10:00:18Z</time></trkpt><trkpt lat="43.26630345167166" lon="12.792297088829047"><ele>841.4000000000001</ele><time>2026-04-11T10:00:19Z</time></trkpt><trkpt lat="43.26629907020356" lon="12.79217492993528"><ele>840.8000000000001</ele><time>2026-04-11T10:00:20Z</time></trkpt><trkpt lat="43.266286052078186" lon="12.792044576963356"><ele>840.2</ele><time>2026-04-11T10:00:21Z</time></trkpt><trkpt lat="43.26627146196412" lon="12.791907904031609"><ele>839.6</ele><time>2026-04-11T10:00:22Z</time></trkpt><trkpt lat="43.266255093037955" lon="12.791768734364931"><ele>839.0</ele><time>2026-04-11T10:00:23Z</time></trkpt><trkpt lat="43.2662328231928" lon="12.791620097164305"><ele>839.0</ele><time>2026-04-11T10:00:24Z</time></trkpt><trkpt lat="43.26621231062914" lon="12.791483126675129"><ele>839.0</ele><time>2026-04-11T10:00:25Z</time></trkpt><trkpt lat="43.266177456168464" lon="12.79133980432706"><ele>839.0</ele><time>2026-04-11T10:00:26Z</time></trkpt><trkpt lat="43.266146060802264" lon="12.791190556361894"><ele>839.0</ele><time>2026-04-11T10:00:27Z</time></trkpt><trkpt lat="43.26610902274186" lon="12.791009653742021"><ele>838.5</ele><time>2026-04-11T10:00:28Z</time></trkpt><trkpt lat="43.26606663858707" lon="12.790839262475531"><ele>838.0</ele><time>2026-04-11T10:00:29Z</time></trkpt><trkpt lat="43.266030098682506" lon="12.79067852310856"><ele>837.5</ele><time>2026-04-11T10:00:30Z</time></trkpt><trkpt lat="43.2659989579733" lon="12.790520303636615"><ele>837.0</ele><time>2026-04-11T10:00:31Z</time></trkpt><trkpt lat="43.26596789127814" lon="12.790378312817225"><ele>837.0</ele><time>2026-04-11T10:00:32Z</time></trkpt><trkpt lat="43.26592640515976" lon="12.790241625968035"><ele>837.0</ele><time>2026-04-11T10:00:33Z</time></trkpt><trkpt lat="43.26589403996915" lon="12.790138783900511"><ele>837.0</ele><time>2026-04-11T10:00:34Z</time></trkpt><trkpt lat="43.265861179935634" lon="12.790047003951138"><ele>837.0</ele><time>2026-04-11T10:00:35Z</time></trkpt><trkpt lat="43.26579976236378" lon="12.789957364000637"><ele>837.0</ele><time>2026-04-11T10:00:37Z</time></trkpt><trkpt lat="43.265841022934254" lon="12.789854998848844"><ele>837.0</ele><time>2026-04-11T10:00:41Z</time></trkpt><trkpt lat="43.265908932777506" lon="12.789801810223551"><ele>835.3333333333334</ele><time>2026-04-11T10:00:43Z</time></trkpt><trkpt lat="43.26597787526204" lon="12.789738332263875"><ele>833.6666666666667</ele><time>2026-04-11T10:00:45Z</time></trkpt><trkpt lat="43.2660729469553" lon="12.789682825889768"><ele>832.0</ele><time>2026-04-11T10:00:47Z</time></trkpt><trkpt lat="43.26618935536367" lon="12.789667168767812"><ele>830.3333333333334</ele><time>2026-04-11T10:00:49Z</time></trkpt><trkpt lat="43.26626006251588" lon="12.7896555676123"><ele>828.6666666666667</ele><time>2026-04-11T10:00:50Z</time></trkpt><trkpt lat="43.26633345427504" lon="12.789647952261591"><ele>827.0</ele><time>2026-04-11T10:00:51Z</time></trkpt><trkpt lat="43.266398306191924" lon="12.789640886522236"><ele>830.1666666666667</ele><time>2026-04-11T10:00:52Z</time></trkpt><trkpt lat="43.26646034987978" lon="12.789621388055593"><ele>833.3333333333334</ele><time>2026-04-11T10:00:53Z</time></trkpt><trkpt lat="43.26652295908674" lon="12.789596186434704"><ele>836.5</ele><time>2026-04-11T10:00:54Z</time></trkpt><trkpt lat="43.2665819084004" lon="12.789553557296355"><ele>839.6666666666667</ele><time>2026-04-11T10:00:55Z</time></trkpt><trkpt lat="43.2666449035486" lon="12.789520806441946"><ele>842.8333333333334</ele><time>2026-04-11T10:00:56Z</time></trkpt><trkpt lat="43.266760286673296" lon="12.789450134210657"><ele>846.0</ele><time>2026-04-11T10:00:58Z</time></trkpt><trkpt lat="43.26681885235111" lon="12.789412347936729"><ele>846.0</ele><time>2026-04-11T10:00:59Z</time></trkpt><trkpt lat="43.266876163834496" lon="12.789368841508875"><ele>846.0</ele><time>2026-04-11T10:01:00Z</time></trkpt><trkpt lat="43.26693965999396" lon="12.78932266733591"><ele>846.0</ele><time>2026-04-11T10:01:01Z</time></trkpt><trkpt lat="43.267005543476756" lon="12.78927870605042"><ele>846.0</ele><time>2026-04-11T10:01:02Z</time></trkpt><trkpt lat="43.26707123962994" lon="12.78923620837046"><ele>846.0</ele><time>2026-04-11T10:01:03Z</time></trkpt><trkpt lat="43.26713351848702" lon="12.789199474371108"><ele>846.0</ele><time>2026-04-11T10:01:04Z</time></trkpt><trkpt lat="43.267197428526615" lon="12.789159002083268"><ele>846.0</ele><time>2026-04-11T10:01:05Z</time></trkpt><trkpt lat="43.26726287138248" lon="12.789119711508246"><ele>846.7142857142857</ele><time>2026-04-11T10:01:06Z</time></trkpt><trkpt lat="43.26732980522418" lon="12.78907563862438"><ele>847.4285714285714</ele><time>2026-04-11T10:01:07Z</time></trkpt><trkpt lat="43.267396270806316" lon="12.789029623708306"><ele>848.1428571428571</ele><time>2026-04-11T10:01:08Z</time></trkpt><trkpt lat="43.267464667098054" lon="12.788993389798812"><ele>848.8571428571429</ele><time>2026-04-11T10:01:09Z</time></trkpt><trkpt lat="43.267530270680915" lon="12.788968558154366"><ele>849.5714285714287</ele><time>2026-04-11T10:01:10Z</time></trkpt><trkpt lat="43.267597653792976" lon="12.788944226890386"><ele>850.2857142857143</ele><time>2026-04-11T10:01:11Z</time></trkpt><trkpt lat="43.26767500111182" lon="12.788915897875343"><ele>851.0</ele><time>2026-04-11T10:01:12Z</time></trkpt><trkpt lat="43.26776607239633" lon="12.788896535897733"><ele>851.0000000000001</ele><time>2026-04-11T10:01:13Z</time></trkpt><trkpt lat="43.26785781238326" lon="12.788887424912433"><ele>851.0</ele><time>2026-04-11T10:01:14Z</time></trkpt><trkpt lat="43.26793794017932" lon="12.788896016743257"><ele>851.0</ele><time>2026-04-11T10:01:15Z</time></trkpt><trkpt lat="43.268019229750585" lon="12.788890792845272"><ele>851.0</ele><time>2026-04-11T10:01:16Z</time></trkpt><trkpt lat="43.26810898211538" lon="12.788868901035398"><ele>851.0000000000001</ele><time>2026-04-11T10:01:17Z</time></trkpt><trkpt lat="43.26820337248453" lon="12.788832572931264"><ele>851.0</ele><time>2026-04-11T10:01:18Z</time></trkpt><trkpt lat="43.268297891051155" lon="12.788793682932974"><ele>849.4</ele><time>2026-04-11T10:01:19Z</time></trkpt><trkpt lat="43.26838810778085" lon="12.788750631413919"><ele>847.8</ele><time>2026-04-11T10:01:20Z</time></trkpt><trkpt lat="43.26847771280637" lon="12.788693044988"><ele>846.1999999999999</ele><time>2026-04-11T10:01:21Z</time></trkpt><trkpt lat="43.268568083232665" lon="12.788621093939303"><ele>844.5999999999999</ele><time>2026-04-11T10:01:22Z</time></trkpt><trkpt lat="43.26865495302237" lon="12.78855502814596"><ele>843.0</ele><time>2026-04-11T10:01:23Z</time></trkpt><trkpt lat="43.268729147054074" lon="12.788487005657675"><ele>843.0</ele><time>2026-04-11T10:01:24Z</time></trkpt><trkpt lat="43.268790600505966" lon="12.78842291596748"><ele>843.0</ele><time>2026-04-11T10:01:25Z</time></trkpt><trkpt lat="43.26886153338093" lon="12.788361337909715"><ele>843.0</ele><time>2026-04-11T10:01:26Z</time></trkpt><trkpt lat="43.26893684534454" lon="12.788297845622834"><ele>843.0</ele><time>2026-04-11T10:01:27Z</time></trkpt><trkpt lat="43.268994632165594" lon="12.788232791463575"><ele>843.0</ele><time>2026-04-11T10:01:29Z</time></trkpt><trkpt lat="43.2690575588442" lon="12.78811577856619"><ele>843.0</ele><time>2026-04-11T10:01:31Z</time></trkpt><trkpt lat="43.26909707895476" lon="12.788047189331166"><ele>841.3333333333334</ele><time>2026-04-11T10:01:32Z</time></trkpt><trkpt lat="43.26914821508044" lon="12.787972124573525"><ele>839.6666666666667</ele><time>2026-04-11T10:01:33Z</time></trkpt><trkpt lat="43.269223498347294" lon="12.787921355609104"><ele>838.0</ele><time>2026-04-11T10:01:34Z</time></trkpt><trkpt lat="43.269300619706975" lon="12.787885996807676"><ele>836.3333333333334</ele><time>2026-04-11T10:01:35Z</time></trkpt><trkpt lat="43.26935739324334" lon="12.78783919451199"><ele>834.6666666666667</ele><time>2026-04-11T10:01:36Z</time></trkpt><trkpt lat="43.269455797633064" lon="12.787707455235713"><ele>833.0</ele><time>2026-04-11T10:01:38Z</time></trkpt><trkpt lat="43.269515375821335" lon="12.787579003591874"><ele>833.0</ele><time>2026-04-11T10:01:39Z</time></trkpt><trkpt lat="43.2695720359613" lon="12.787465321967128"><ele>833.0</ele><time>2026-04-11T10:01:40Z</time></trkpt><trkpt lat="43.26962614409164" lon="12.787361144584207"><ele>833.0</ele><time>2026-04-11T10:01:41Z</time></trkpt><trkpt lat="43.26967185567835" lon="12.787270211493201"><ele>833.0</ele><time>2026-04-11T10:01:42Z</time></trkpt><trkpt lat="43.26972378407943" lon="12.787171801591802"><ele>833.0</ele><time>2026-04-11T10:01:43Z</time></trkpt><trkpt lat="43.269780550262894" lon="12.787067501619601"><ele>831.0</ele><time>2026-04-11T10:01:44Z</time></trkpt><trkpt lat="43.26984236569033" lon="12.786970127672694"><ele>829.0</ele><time>2026-04-11T10:01:45Z</time></trkpt><trkpt lat="43.269906829068276" lon="12.786886609744665"><ele>827.0</ele><time>2026-04-11T10:01:46Z</time></trkpt><trkpt lat="43.26998255740371" lon="12.786809145468244"><ele>825.0</ele><time>2026-04-11T10:01:47Z</time></trkpt><trkpt lat="43.270063782243156" lon="12.786734687676558"><ele>823.0</ele><time>2026-04-11T10:01:48Z</time></trkpt><trkpt lat="43.27015348145898" lon="12.786653123091003"><ele>823.0</ele><time>2026-04-11T10:01:49Z</time></trkpt><trkpt lat="43.27026275559687" lon="12.786563326141229"><ele>823.0</ele><time>2026-04-11T10:01:50Z</time></trkpt><trkpt lat="43.270372435958066" lon="12.786468451058882"><ele>823.0</ele><time>2026-04-11T10:01:51Z</time></trkpt><trkpt lat="43.27047233658678" lon="12.786374143217351"><ele>823.0</ele><time>2026-04-11T10:01:52Z</time></trkpt><trkpt lat="43.27057973768935" lon="12.786289547546529"><ele>826.5</ele><time>2026-04-11T10:01:53Z</time></trkpt><trkpt lat="43.27069111433072" lon="12.78622303579773"><ele>830.0</ele><time>2026-04-11T10:01:54Z</time></trkpt><trkpt lat="43.27079149203701" lon="12.786132776397304"><ele>833.5</ele><time>2026-04-11T10:01:55Z</time></trkpt><trkpt lat="43.27088310220117" lon="12.786047498839704"><ele>837.0</ele><time>2026-04-11T10:01:56Z</time></trkpt><trkpt lat="43.2709648793826" lon="12.78594850820913"><ele>830.8</ele><time>2026-04-11T10:01:57Z</time></trkpt><trkpt lat="43.27103586781667" lon="12.785850001441936"><ele>824.6</ele><time>2026-04-11T10:01:58Z</time></trkpt><trkpt lat="43.27109784648749" lon="12.785758905221906"><ele>818.4</ele><time>2026-04-11T10:01:59Z</time></trkpt><trkpt lat="43.271154340947035" lon="12.785680739393253"><ele>812.1999999999999</ele><time>2026-04-11T10:02:00Z</time></trkpt><trkpt lat="43.271208117579945" lon="12.785606285938577"><ele>806.0</ele><time>2026-04-11T10:02:01Z</time></trkpt><trkpt lat="43.27126399242742" lon="12.785484293668992"><ele>806.0000000000001</ele><time>2026-04-11T10:02:03Z</time></trkpt><trkpt lat="43.27130215981001" lon="12.78538136714349"><ele>806.0</ele><time>2026-04-11T10:02:05Z</time></trkpt><trkpt lat="43.27133084658635" lon="12.785283968513994"><ele>806.0</ele><time>2026-04-11T10:02:08Z</time></trkpt><trkpt lat="43.271364366685624" lon="12.785182695420689"><ele>806.0</ele><time>2026-04-11T10:02:11Z</time></trkpt><trkpt lat="43.27141037140889" lon="12.78511794350386"><ele>806.0000000000001</ele><time>2026-04-11T10:02:13Z</time></trkpt><trkpt lat="43.271480386085756" lon="12.785075398930083"><ele>806.0</ele><time>2026-04-11T10:02:16Z</time></trkpt><trkpt lat="43.2715358865411" lon="12.785026429242615"><ele>805.1999999999999</ele><time>2026-04-11T10:02:20Z</time></trkpt><trkpt lat="43.27160567686841" lon="12.784962550919357"><ele>804.4</ele><time>2026-04-11T10:02:22Z</time></trkpt><trkpt lat="43.271713710241585" lon="12.784904677008207"><ele>803.6</ele><time>2026-04-11T10:02:24Z</time></trkpt><trkpt lat="43.27180716390831" lon="12.784886102242131"><ele>802.8</ele><time>2026-04-11T10:02:26Z</time></trkpt><trkpt lat="43.27189790956999" lon="12.784853319071756"><ele>802.0</ele><time>2026-04-11T10:02:28Z</time></trkpt><trkpt lat="43.27199444313816" lon="12.784820663338076"><ele>802.0</ele><time>2026-04-11T10:02:30Z</time></trkpt><trkpt lat="43.27210485959981" lon="12.784782390193662"><ele>802.0</ele><time>2026-04-11T10:02:32Z</time></trkpt><trkpt lat="43.27221312870579" lon="12.7847357110545"><ele>802.0</ele><time>2026-04-11T10:02:34Z</time></trkpt><trkpt lat="43.27231471508806" lon="12.784691776143152"><ele>802.0</ele><time>2026-04-11T10:02:36Z</time></trkpt><trkpt lat="43.27238038833321" lon="12.784689656245078"><ele>802.0</ele><time>2026-04-11T10:02:38Z</time></trkpt><trkpt lat="43.272481530259064" lon="12.78464809909459"><ele>802.9999999999999</ele><time>2026-04-11T10:02:40Z</time></trkpt><trkpt lat="43.272544846693265" lon="12.784620805974338"><ele>804.0</ele><time>2026-04-11T10:02:41Z</time></trkpt><trkpt lat="43.27260819568454" lon="12.784601728365061"><ele>805.0</ele><time>2026-04-11T10:02:42Z</time></trkpt><trkpt lat="43.2726813156456" lon="12.784574360650947"><ele>806.0</ele><time>2026-04-11T10:02:43Z</time></trkpt><trkpt lat="43.27276446434602" lon="12.78453312704004"><ele>806.9999999999999</ele><time>2026-04-11T10:02:44Z</time></trkpt><trkpt lat="43.27284107997251" lon="12.784501425663642"><ele>808.0</ele><time>2026-04-11T10:02:45Z</time></trkpt><trkpt lat="43.272922163978876" lon="12.784470515293181"><ele>807.9999999999999</ele><time>2026-04-11T10:02:46Z</time></trkpt><trkpt lat="43.27300675070932" lon="12.784443474045172"><ele>808.0</ele><time>2026-04-11T10:02:47Z</time></trkpt><trkpt lat="43.27308791380798" lon="12.784415574768987"><ele>808.0</ele><time>2026-04-11T10:02:48Z</time></trkpt><trkpt lat="43.273162686377724" lon="12.78439014491182"><ele>808.0</ele><time>2026-04-11T10:02:49Z</time></trkpt><trkpt lat="43.2732570773116" lon="12.784337784939332"><ele>807.9999999999999</ele><time>2026-04-11T10:02:50Z</time></trkpt><trkpt lat="43.27332117770586" lon="12.784306853785125"><ele>808.0</ele><time>2026-04-11T10:02:51Z</time></trkpt><trkpt lat="43.27344141947334" lon="12.78427370270803"><ele>805.1666666666666</ele><time>2026-04-11T10:02:53Z</time></trkpt><trkpt lat="43.2735087102911" lon="12.784265816851546"><ele>802.3333333333333</ele><time>2026-04-11T10:02:54Z</time></trkpt><trkpt lat="43.27361847513967" lon="12.784256383726722"><ele>799.5</ele><time>2026-04-11T10:02:56Z</time></trkpt><trkpt lat="43.273732359198405" lon="12.78423001601252"><ele>796.6666666666667</ele><time>2026-04-11T10:02:58Z</time></trkpt><trkpt lat="43.273799041956224" lon="12.784229444053228"><ele>793.8333333333334</ele><time>2026-04-11T10:02:59Z</time></trkpt><trkpt lat="43.27388485249896" lon="12.78424052717956"><ele>791.0</ele><time>2026-04-11T10:03:01Z</time></trkpt><trkpt lat="43.27397876626413" lon="12.784230103044871"><ele>791.0</ele><time>2026-04-11T10:03:03Z</time></trkpt><trkpt lat="43.274044104315486" lon="12.78426785493691"><ele>791.0</ele><time>2026-04-11T10:03:06Z</time></trkpt><trkpt lat="43.27410102207536" lon="12.784306605303328"><ele>791.0</ele><time>2026-04-11T10:03:10Z</time></trkpt><trkpt lat="43.27417152543073" lon="12.784347331014404"><ele>791.0</ele><time>2026-04-11T10:03:14Z</time></trkpt><trkpt lat="43.27423950258874" lon="12.784376947696561"><ele>791.0</ele><time>2026-04-11T10:03:19Z</time></trkpt><trkpt lat="43.27428292055218" lon="12.784297978826332"><ele>791.0</ele><time>2026-04-11T10:03:22Z</time></trkpt><trkpt lat="43.274270353384956" lon="12.784192011629141"><ele>791.0</ele><time>2026-04-11T10:03:26Z</time></trkpt><trkpt lat="43.27422563139478" lon="12.784081915791216"><ele>791.0</ele><time>2026-04-11T10:03:29Z</time></trkpt><trkpt lat="43.27420290704841" lon="12.783926963441521"><ele>791.0</ele><time>2026-04-11T10:03:31Z</time></trkpt><trkpt lat="43.27418287571548" lon="12.783777724176174"><ele>791.0</ele><time>2026-04-11T10:03:33Z</time></trkpt><trkpt lat="43.274146836856985" lon="12.78362954952329"><ele>791.0</ele><time>2026-04-11T10:03:35Z</time></trkpt><trkpt lat="43.27412692257014" lon="12.783542658437103"><ele>791.0</ele><time>2026-04-11T10:03:36Z</time></trkpt><trkpt lat="43.27409896258589" lon="12.783464881516025"><ele>792.5999999999999</ele><time>2026-04-11T10:03:37Z</time></trkpt><trkpt lat="43.27404821475419" lon="12.783352980316273"><ele>794.2</ele><time>2026-04-11T10:03:39Z</time></trkpt><trkpt lat="43.27399120290232" lon="12.783221597844745"><ele>795.8</ele><time>2026-04-11T10:03:41Z</time></trkpt><trkpt lat="43.273943083741024" lon="12.783114278875434"><ele>797.4000000000001</ele><time>2026-04-11T10:03:43Z</time></trkpt><trkpt lat="43.27390936762212" lon="12.783005769637406"><ele>799.0</ele><time>2026-04-11T10:03:45Z</time></trkpt><trkpt lat="43.27386386715813" lon="12.78288434404633"><ele>796.8000000000001</ele><time>2026-04-11T10:03:47Z</time></trkpt><trkpt lat="43.27378896549391" lon="12.78274724648534"><ele>794.6</ele><time>2026-04-11T10:03:49Z</time></trkpt><trkpt lat="43.27374584625149" lon="12.782631146595731"><ele>792.4</ele><time>2026-04-11T10:03:50Z</time></trkpt><trkpt lat="43.273706423604935" lon="12.782525179983088"><ele>790.2</ele><time>2026-04-11T10:03:51Z</time></trkpt><trkpt lat="43.273677185349285" lon="12.782447982045124"><ele>788.0</ele><time>2026-04-11T10:03:52Z</time></trkpt><trkpt lat="43.27361072499304" lon="12.782347689810964"><ele>788.0</ele><time>2026-04-11T10:03:55Z</time></trkpt><trkpt lat="43.273521406421416" lon="12.782253341557084"><ele>788.0</ele><time>2026-04-11T10:03:57Z</time></trkpt><trkpt lat="43.27346345332402" lon="12.782191294754305"><ele>788.0</ele><time>2026-04-11T10:03:58Z</time></trkpt><trkpt lat="43.27336166048293" lon="12.782107436812746"><ele>788.0</ele><time>2026-04-11T10:03:59Z</time></trkpt><trkpt lat="43.27329031544705" lon="12.782040910735182"><ele>788.0</ele><time>2026-04-11T10:04:00Z</time></trkpt><trkpt lat="43.27321987266159" lon="12.781979104840625"><ele>788.0000000000001</ele><time>2026-04-11T10:04:01Z</time></trkpt><trkpt lat="43.27314617019998" lon="12.781913954564525"><ele>788.0</ele><time>2026-04-11T10:04:02Z</time></trkpt><trkpt lat="43.27307242315637" lon="12.781831138860861"><ele>788.0</ele><time>2026-04-11T10:04:03Z</time></trkpt><trkpt lat="43.27301269867997" lon="12.781753782271903"><ele>788.0</ele><time>2026-04-11T10:04:04Z</time></trkpt><trkpt lat="43.27295092883581" lon="12.781678340088533"><ele>788.0000000000001</ele><time>2026-04-11T10:04:05Z</time></trkpt><trkpt lat="43.27289305393676" lon="12.781625630135098"><ele>788.0</ele><time>2026-04-11T10:04:06Z</time></trkpt><trkpt lat="43.27283076761427" lon="12.781562821655097"><ele>786.4</ele><time>2026-04-11T10:04:07Z</time></trkpt><trkpt lat="43.27274556367812" lon="12.781446067520065"><ele>784.8</ele><time>2026-04-11T10:04:09Z</time></trkpt><trkpt lat="43.27268261396451" lon="12.781361347897333"><ele>783.2</ele><time>2026-04-11T10:04:11Z</time></trkpt><trkpt lat="43.27260441259603" lon="12.78123935111364"><ele>781.6</ele><time>2026-04-11T10:04:13Z</time></trkpt><trkpt lat="43.272541839368024" lon="12.781152483215294"><ele>780.0</ele><time>2026-04-11T10:04:15Z</time></trkpt><trkpt lat="43.272447108116204" lon="12.78100414503799"><ele>777.3333333333334</ele><time>2026-04-11T10:04:17Z</time></trkpt><trkpt lat="43.27239402321016" lon="12.780910309774109"><ele>774.6666666666666</ele><time>2026-04-11T10:04:18Z</time></trkpt><trkpt lat="43.27233810631634" lon="12.780826713460673"><ele>772.0</ele><time>2026-04-11T10:04:19Z</time></trkpt><trkpt lat="43.272283559323846" lon="12.780739127511369"><ele>769.3333333333333</ele><time>2026-04-11T10:04:20Z</time></trkpt><trkpt lat="43.27223750737769" lon="12.780651981620869"><ele>766.6666666666666</ele><time>2026-04-11T10:04:21Z</time></trkpt><trkpt lat="43.27218558517587" lon="12.780542377682272"><ele>764.0</ele><time>2026-04-11T10:04:22Z</time></trkpt><trkpt lat="43.27213418425553" lon="12.780431601201707"><ele>764.0</ele><time>2026-04-11T10:04:23Z</time></trkpt><trkpt lat="43.27208812466245" lon="12.78032187564784"><ele>764.0</ele><time>2026-04-11T10:04:24Z</time></trkpt><trkpt lat="43.272038461460596" lon="12.78020052205762"><ele>764.0</ele><time>2026-04-11T10:04:25Z</time></trkpt><trkpt lat="43.27197262244739" lon="12.78006712183463"><ele>764.0</ele><time>2026-04-11T10:04:26Z</time></trkpt><trkpt lat="43.271917950095286" lon="12.779940306649172"><ele>764.0</ele><time>2026-04-11T10:04:27Z</time></trkpt><trkpt lat="43.271865863991906" lon="12.779810692563078"><ele>766.75</ele><time>2026-04-11T10:04:28Z</time></trkpt><trkpt lat="43.27181178213746" lon="12.77967353403317"><ele>769.5</ele><time>2026-04-11T10:04:29Z</time></trkpt><trkpt lat="43.27176189941739" lon="12.779519946940512"><ele>772.25</ele><time>2026-04-11T10:04:30Z</time></trkpt><trkpt lat="43.271709297854144" lon="12.779369205429246"><ele>775.0</ele><time>2026-04-11T10:04:31Z</time></trkpt><trkpt lat="43.27165986332431" lon="12.779202508453363"><ele>778.0</ele><time>2026-04-11T10:04:32Z</time></trkpt><trkpt lat="43.27160525145888" lon="12.779035511943068"><ele>781.0</ele><time>2026-04-11T10:04:33Z</time></trkpt><trkpt lat="43.271536964601026" lon="12.778875433855882"><ele>784.0</ele><time>2026-04-11T10:04:34Z</time></trkpt><trkpt lat="43.27146952005306" lon="12.778691950598846"><ele>787.0</ele><time>2026-04-11T10:04:35Z</time></trkpt><trkpt lat="43.271399016043155" lon="12.778513555085405"><ele>778.5</ele><time>2026-04-11T10:04:36Z</time></trkpt><trkpt lat="43.27133265253564" lon="12.778344545840016"><ele>770.0</ele><time>2026-04-11T10:04:37Z</time></trkpt><trkpt lat="43.27126980434799" lon="12.778196023549178"><ele>761.5</ele><time>2026-04-11T10:04:38Z</time></trkpt><trkpt lat="43.27121591555857" lon="12.778056378055867"><ele>753.0</ele><time>2026-04-11T10:04:39Z</time></trkpt><trkpt lat="43.27116112797338" lon="12.777917325337242"><ele>753.0</ele><time>2026-04-11T10:04:40Z</time></trkpt><trkpt lat="43.27110848143908" lon="12.77778328359616"><ele>753.0</ele><time>2026-04-11T10:04:41Z</time></trkpt><trkpt lat="43.271057147011156" lon="12.777657996862398"><ele>753.0</ele><time>2026-04-11T10:04:42Z</time></trkpt><trkpt lat="43.27099910561676" lon="12.777550886302404"><ele>753.0</ele><time>2026-04-11T10:04:43Z</time></trkpt><trkpt lat="43.27093943472256" lon="12.777451853669117"><ele>753.0</ele><time>2026-04-11T10:04:44Z</time></trkpt><trkpt lat="43.27088307648813" lon="12.777375395094818"><ele>755.8333333333334</ele><time>2026-04-11T10:04:45Z</time></trkpt><trkpt lat="43.270803826215584" lon="12.777296816565723"><ele>758.6666666666667</ele><time>2026-04-11T10:04:46Z</time></trkpt><trkpt lat="43.27075375972782" lon="12.777240575408749"><ele>761.5</ele><time>2026-04-11T10:04:47Z</time></trkpt><trkpt lat="43.270709656137214" lon="12.777165080934537"><ele>764.3333333333334</ele><time>2026-04-11T10:04:48Z</time></trkpt><trkpt lat="43.270668367423134" lon="12.777090604689477"><ele>767.1666666666667</ele><time>2026-04-11T10:04:49Z</time></trkpt><trkpt lat="43.27061837922957" lon="12.77702094607471"><ele>770.0</ele><time>2026-04-11T10:04:50Z</time></trkpt><trkpt lat="43.270600349045644" lon="12.776912022738907"><ele>764.0</ele><time>2026-04-11T10:04:51Z</time></trkpt><trkpt lat="43.270594480796404" lon="12.77679926405338"><ele>758.0</ele><time>2026-04-11T10:04:52Z</time></trkpt><trkpt lat="43.27056895464774" lon="12.776682559514363"><ele>752.0</ele><time>2026-04-11T10:04:53Z</time></trkpt><trkpt lat="43.270546920197305" lon="12.776593659180362"><ele>746.0</ele><time>2026-04-11T10:04:54Z</time></trkpt><trkpt lat="43.270513653635504" lon="12.776424880225276"><ele>740.0</ele><time>2026-04-11T10:04:56Z</time></trkpt><trkpt lat="43.27050042454344" lon="12.776297526262292"><ele>740.0</ele><time>2026-04-11T10:04:57Z</time></trkpt><trkpt lat="43.27048715910532" lon="12.776186093465949"><ele>740.0</ele><time>2026-04-11T10:04:58Z</time></trkpt><trkpt lat="43.270486230453955" lon="12.776073282241857"><ele>740.0</ele><time>2026-04-11T10:04:59Z</time></trkpt><trkpt lat="43.27049238983815" lon="12.775946017146241"><ele>740.0</ele><time>2026-04-11T10:05:00Z</time></trkpt><trkpt lat="43.27050192132942" lon="12.775842980419995"><ele>740.0</ele><time>2026-04-11T10:05:01Z</time></trkpt><trkpt lat="43.27053146778771" lon="12.7757022275516"><ele>740.0</ele><time>2026-04-11T10:05:03Z</time></trkpt><trkpt lat="43.27062699665486" lon="12.775607090995454"><ele>741.6</ele><time>2026-04-11T10:05:05Z</time></trkpt><trkpt lat="43.27069945146303" lon="12.775579520424353"><ele>743.2</ele><time>2026-04-11T10:05:06Z</time></trkpt><trkpt lat="43.27078709750752" lon="12.775536069890842"><ele>744.8</ele><time>2026-04-11T10:05:07Z</time></trkpt><trkpt lat="43.27088655697608" lon="12.775505535265372"><ele>746.4</ele><time>2026-04-11T10:05:08Z</time></trkpt><trkpt lat="43.27098784634312" lon="12.775466554865975"><ele>748.0</ele><time>2026-04-11T10:05:09Z</time></trkpt><trkpt lat="43.27108085458696" lon="12.775430363056556"><ele>748.0</ele><time>2026-04-11T10:05:10Z</time></trkpt><trkpt lat="43.271183508068304" lon="12.775389879893064"><ele>748.0</ele><time>2026-04-11T10:05:11Z</time></trkpt><trkpt lat="43.271284856730944" lon="12.77535227340017"><ele>748.0</ele><time>2026-04-11T10:05:12Z</time></trkpt><trkpt lat="43.27139084465501" lon="12.775326634659445"><ele>748.0</ele><time>2026-04-11T10:05:13Z</time></trkpt><trkpt lat="43.27148520688509" lon="12.775305664237456"><ele>748.0</ele><time>2026-04-11T10:05:14Z</time></trkpt><trkpt lat="43.27154757527073" lon="12.775290824919088"><ele>747.8333333333334</ele><time>2026-04-11T10:05:15Z</time></trkpt><trkpt lat="43.271629139716794" lon="12.775310615427118"><ele>747.6666666666667</ele><time>2026-04-11T10:05:16Z</time></trkpt><trkpt lat="43.2717192063596" lon="12.775324432139119"><ele>747.5</ele><time>2026-04-11T10:05:17Z</time></trkpt><trkpt lat="43.27180775558757" lon="12.775327802558607"><ele>747.3333333333334</ele><time>2026-04-11T10:05:18Z</time></trkpt><trkpt lat="43.27189193439442" lon="12.775314335575658"><ele>747.1666666666666</ele><time>2026-04-11T10:05:19Z</time></trkpt><trkpt lat="43.27197507259778" lon="12.77528750559038"><ele>747.0</ele><time>2026-04-11T10:05:20Z</time></trkpt><trkpt lat="43.27205384530976" lon="12.775253612887273"><ele>747.0</ele><time>2026-04-11T10:05:21Z</time></trkpt><trkpt lat="43.27212874236739" lon="12.775214782569137"><ele>747.0</ele><time>2026-04-11T10:05:22Z</time></trkpt><trkpt lat="43.27220115658285" lon="12.775176408191365"><ele>747.0</ele><time>2026-04-11T10:05:23Z</time></trkpt><trkpt lat="43.27227642242102" lon="12.775135417403018"><ele>747.0</ele><time>2026-04-11T10:05:24Z</time></trkpt><trkpt lat="43.272359942410596" lon="12.775077143301216"><ele>747.0</ele><time>2026-04-11T10:05:25Z</time></trkpt><trkpt lat="43.27243807318473" lon="12.775017043075518"><ele>747.0</ele><time>2026-04-11T10:05:26Z</time></trkpt><trkpt lat="43.27250983104751" lon="12.774918891420805"><ele>744.6666666666666</ele><time>2026-04-11T10:05:27Z</time></trkpt><trkpt lat="43.27256781968866" lon="12.774831355819243"><ele>742.3333333333334</ele><time>2026-04-11T10:05:28Z</time></trkpt><trkpt lat="43.27262474963494" lon="12.774733651742634"><ele>740.0</ele><time>2026-04-11T10:05:29Z</time></trkpt><trkpt lat="43.27267091561791" lon="12.774649074929481"><ele>737.6666666666667</ele><time>2026-04-11T10:05:30Z</time></trkpt><trkpt lat="43.27270396524057" lon="12.774559762191432"><ele>735.3333333333334</ele><time>2026-04-11T10:05:31Z</time></trkpt><trkpt lat="43.27273765015891" lon="12.774481942425082"><ele>733.0</ele><time>2026-04-11T10:05:32Z</time></trkpt><trkpt lat="43.27279420950827" lon="12.774344060878306"><ele>729.0</ele><time>2026-04-11T10:05:34Z</time></trkpt><trkpt lat="43.27289668526934" lon="12.774200109692485"><ele>725.0</ele><time>2026-04-11T10:05:36Z</time></trkpt><trkpt lat="43.27297716727424" lon="12.774121101845715"><ele>721.0</ele><time>2026-04-11T10:05:37Z</time></trkpt><trkpt lat="43.273046533959366" lon="12.77405200281713"><ele>717.0</ele><time>2026-04-11T10:05:38Z</time></trkpt><trkpt lat="43.27311143160816" lon="12.773991709244504"><ele>713.0</ele><time>2026-04-11T10:05:39Z</time></trkpt><trkpt lat="43.27318129508225" lon="12.773946089532213"><ele>713.0</ele><time>2026-04-11T10:05:40Z</time></trkpt><trkpt lat="43.27325604369077" lon="12.773896852088871"><ele>713.0</ele><time>2026-04-11T10:05:41Z</time></trkpt><trkpt lat="43.27331277590852" lon="12.773851406481313"><ele>713.0</ele><time>2026-04-11T10:05:42Z</time></trkpt><trkpt lat="43.273383024022735" lon="12.77382657718669"><ele>713.0</ele><time>2026-04-11T10:05:43Z</time></trkpt><trkpt lat="43.273448741141294" lon="12.773794811588342"><ele>713.0</ele><time>2026-04-11T10:05:44Z</time></trkpt><trkpt lat="43.273554103465955" lon="12.773733497549701"><ele>713.0</ele><time>2026-04-11T10:05:46Z</time></trkpt><trkpt lat="43.27378485301111" lon="12.773807989465315"><ele>713.0</ele><time>2026-04-11T10:06:01Z</time></trkpt><trkpt lat="43.27384836818495" lon="12.773823750867344"><ele>713.0</ele><time>2026-04-11T10:06:02Z</time></trkpt><trkpt lat="43.27391570997646" lon="12.773835787922472"><ele>713.0</ele><time>2026-04-11T10:06:03Z</time></trkpt><trkpt lat="43.27403859138032" lon="12.773815948008325"><ele>713.0</ele><time>2026-04-11T10:06:05Z</time></trkpt><trkpt lat="43.2741039755727" lon="12.773776819964361"><ele>713.0</ele><time>2026-04-11T10:06:06Z</time></trkpt><trkpt lat="43.2741709506551" lon="12.77375318332732"><ele>713.0</ele><time>2026-04-11T10:06:07Z</time></trkpt><trkpt lat="43.274261060165664" lon="12.773668901252009"><ele>714.5999999999999</ele><time>2026-04-11T10:06:09Z</time></trkpt><trkpt lat="43.27431134793957" lon="12.773587503843947"><ele>716.1999999999999</ele><time>2026-04-11T10:06:11Z</time></trkpt><trkpt lat="43.27433154375533" lon="12.773484733233406"><ele>717.8</ele><time>2026-04-11T10:06:17Z</time></trkpt><trkpt lat="43.274361548533776" lon="12.773394415895416"><ele>719.4</ele><time>2026-04-11T10:06:19Z</time></trkpt><trkpt lat="43.27441752816941" lon="12.773272537293549"><ele>721.0</ele><time>2026-04-11T10:06:21Z</time></trkpt><trkpt lat="43.27449625325494" lon="12.773149897633681"><ele>718.6666666666667</ele><time>2026-04-11T10:06:23Z</time></trkpt><trkpt lat="43.27455617198539" lon="12.77307387982333"><ele>716.3333333333334</ele><time>2026-04-11T10:06:24Z</time></trkpt><trkpt lat="43.2746082880402" lon="12.772986465871451"><ele>714.0</ele><time>2026-04-11T10:06:25Z</time></trkpt><trkpt lat="43.274659527845735" lon="12.772896483510575"><ele>711.6666666666666</ele><time>2026-04-11T10:06:26Z</time></trkpt><trkpt lat="43.27471252841241" lon="12.772801033871765"><ele>709.3333333333333</ele><time>2026-04-11T10:06:27Z</time></trkpt><trkpt lat="43.27475889883253" lon="12.772701964404162"><ele>707.0</ele><time>2026-04-11T10:06:28Z</time></trkpt><trkpt lat="43.27479278249161" lon="12.772606427132368"><ele>707.0</ele><time>2026-04-11T10:06:29Z</time></trkpt><trkpt lat="43.274832365874985" lon="12.772499768964279"><ele>707.0</ele><time>2026-04-11T10:06:30Z</time></trkpt><trkpt lat="43.27487725680205" lon="12.77239341734879"><ele>707.0</ele><time>2026-04-11T10:06:31Z</time></trkpt><trkpt lat="43.274925335847" lon="12.772272506316467"><ele>707.0</ele><time>2026-04-11T10:06:32Z</time></trkpt><trkpt lat="43.27497283990153" lon="12.772159713175915"><ele>707.0</ele><time>2026-04-11T10:06:33Z</time></trkpt><trkpt lat="43.27503452184953" lon="12.772033047364078"><ele>707.0</ele><time>2026-04-11T10:06:34Z</time></trkpt><trkpt lat="43.2750999873943" lon="12.771915762054581"><ele>707.0</ele><time>2026-04-11T10:06:35Z</time></trkpt><trkpt lat="43.2751686490351" lon="12.771817976027984"><ele>707.0</ele><time>2026-04-11T10:06:36Z</time></trkpt><trkpt lat="43.275230750358745" lon="12.771734056287162"><ele>707.0</ele><time>2026-04-11T10:06:37Z</time></trkpt><trkpt lat="43.27528155616145" lon="12.771660775076075"><ele>707.0</ele><time>2026-04-11T10:06:38Z</time></trkpt><trkpt lat="43.27536502341536" lon="12.771532540136441"><ele>708.6</ele><time>2026-04-11T10:06:40Z</time></trkpt><trkpt lat="43.27545999767983" lon="12.771469251668634"><ele>710.2</ele><time>2026-04-11T10:06:41Z</time></trkpt><trkpt lat="43.27555436534844" lon="12.77141983557718"><ele>711.8</ele><time>2026-04-11T10:06:42Z</time></trkpt><trkpt lat="43.275647580595695" lon="12.771375909064226"><ele>713.4</ele><time>2026-04-11T10:06:43Z</time></trkpt><trkpt lat="43.275762681150034" lon="12.77132184166062"><ele>715.0</ele><time>2026-04-11T10:06:44Z</time></trkpt><trkpt lat="43.275872501471106" lon="12.77126143835509"><ele>715.0</ele><time>2026-04-11T10:06:45Z</time></trkpt><trkpt lat="43.27597914514792" lon="12.771213763996094"><ele>715.0</ele><time>2026-04-11T10:06:46Z</time></trkpt><trkpt lat="43.27608597121537" lon="12.771151915422111"><ele>715.0</ele><time>2026-04-11T10:06:47Z</time></trkpt><trkpt lat="43.276180153699585" lon="12.771097684141314"><ele>715.0</ele><time>2026-04-11T10:06:48Z</time></trkpt><trkpt lat="43.27626327755939" lon="12.771052890103869"><ele>715.0</ele><time>2026-04-11T10:06:49Z</time></trkpt><trkpt lat="43.27634846877016" lon="12.771016278407195"><ele>714.5</ele><time>2026-04-11T10:06:50Z</time></trkpt><trkpt lat="43.276448932707765" lon="12.770959083464716"><ele>714.0</ele><time>2026-04-11T10:06:51Z</time></trkpt><trkpt lat="43.27656128471037" lon="12.770921815605874"><ele>713.5</ele><time>2026-04-11T10:06:52Z</time></trkpt><trkpt lat="43.27667032542072" lon="12.770868539630781"><ele>713.0</ele><time>2026-04-11T10:06:53Z</time></trkpt><trkpt lat="43.27679160030872" lon="12.77079961653421"><ele>713.0</ele><time>2026-04-11T10:06:54Z</time></trkpt><trkpt lat="43.276892171439684" lon="12.77074617608521"><ele>713.0</ele><time>2026-04-11T10:06:55Z</time></trkpt><trkpt lat="43.27699495034755" lon="12.77068954903222"><ele>713.0</ele><time>2026-04-11T10:06:56Z</time></trkpt><trkpt lat="43.27708857983271" lon="12.770619812309524"><ele>713.0</ele><time>2026-04-11T10:06:57Z</time></trkpt><trkpt lat="43.277159200590106" lon="12.770547848466679"><ele>713.0</ele><time>2026-04-11T10:06:58Z</time></trkpt><trkpt lat="43.277231271514694" lon="12.770463133591889"><ele>711.5</ele><time>2026-04-11T10:06:59Z</time></trkpt><trkpt lat="43.27729023256694" lon="12.770382504737471"><ele>710.0</ele><time>2026-04-11T10:07:00Z</time></trkpt><trkpt lat="43.277350650618054" lon="12.770302526805017"><ele>708.5</ele><time>2026-04-11T10:07:01Z</time></trkpt><trkpt lat="43.27742314277067" lon="12.77023169377348"><ele>707.0</ele><time>2026-04-11T10:07:03Z</time></trkpt><trkpt lat="43.27747662956449" lon="12.770179410103863"><ele>705.5</ele><time>2026-04-11T10:07:05Z</time></trkpt><trkpt lat="43.2775390632685" lon="12.77014006349674"><ele>704.0</ele><time>2026-04-11T10:07:12Z</time></trkpt><trkpt lat="43.27761670398963" lon="12.77009272715821"><ele>704.0</ele><time>2026-04-11T10:07:15Z</time></trkpt><trkpt lat="43.27772026230361" lon="12.770020136344703"><ele>704.0</ele><time>2026-04-11T10:07:17Z</time></trkpt><trkpt lat="43.2778268558285" lon="12.769933579604452"><ele>704.0</ele><time>2026-04-11T10:07:19Z</time></trkpt><trkpt lat="43.27793972021122" lon="12.769882972165103"><ele>704.0</ele><time>2026-04-11T10:07:21Z</time></trkpt><trkpt lat="43.27800582606153" lon="12.769836300595397"><ele>704.0</ele><time>2026-04-11T10:07:23Z</time></trkpt><trkpt lat="43.27805397801287" lon="12.769779367132257"><ele>704.0</ele><time>2026-04-11T10:07:26Z</time></trkpt><trkpt lat="43.27809740488844" lon="12.769710026484281"><ele>704.0</ele><time>2026-04-11T10:07:31Z</time></trkpt><trkpt lat="43.27812421906445" lon="12.76962981824576"><ele>704.0</ele><time>2026-04-11T10:07:41Z</time></trkpt><trkpt lat="43.278144595198285" lon="12.769547593590321"><ele>704.0</ele><time>2026-04-11T10:07:43Z</time></trkpt><trkpt lat="43.27818224189293" lon="12.769450060493183"><ele>704.0</ele><time>2026-04-11T10:07:45Z</time></trkpt><trkpt lat="43.27819748712003" lon="12.769291581493565"><ele>704.0</ele><time>2026-04-11T10:07:48Z</time></trkpt><trkpt lat="43.27819594563016" lon="12.769189702487672"><ele>703.6666666666666</ele><time>2026-04-11T10:07:50.001Z</time></trkpt><trkpt lat="43.278182043734645" lon="12.769068447064509"><ele>703.3333333333333</ele><time>2026-04-11T10:07:52.001Z</time></trkpt><trkpt lat="43.27817082572853" lon="12.768962003227974"><ele>703.0</ele><time>2026-04-11T10:07:54.001Z</time></trkpt><trkpt lat="43.278161058983926" lon="12.768852913715795"><ele>702.6666666666666</ele><time>2026-04-11T10:07:56.001Z</time></trkpt><trkpt lat="43.2781318166962" lon="12.768761020093462"><ele>702.3333333333334</ele><time>2026-04-11T10:07:58.001Z</time></trkpt><trkpt lat="43.27809383780056" lon="12.768609174872024"><ele>702.0</ele><time>2026-04-11T10:08:00.001Z</time></trkpt><trkpt lat="43.27806220407032" lon="12.768483049760448"><ele>696.0</ele><time>2026-04-11T10:08:02.001Z</time></trkpt><trkpt lat="43.27804264564962" lon="12.768361503452864"><ele>690.0</ele><time>2026-04-11T10:08:04.001Z</time></trkpt><trkpt lat="43.278013743608504" lon="12.768231615079353"><ele>684.0</ele><time>2026-04-11T10:08:06.001Z</time></trkpt><trkpt lat="43.27796106430945" lon="12.768109608412594"><ele>678.0</ele><time>2026-04-11T10:08:08.001Z</time></trkpt><trkpt lat="43.278024470535115" lon="12.768274847798674"><ele>672.0</ele><time>2026-04-11T10:08:09.001Z</time></trkpt><trkpt lat="43.27797405723292" lon="12.768164085935263"><ele>672.0</ele><time>2026-04-11T10:08:20.001Z</time></trkpt><trkpt lat="43.277901497949166" lon="12.768185836764287"><ele>672.0</ele><time>2026-04-11T10:08:32Z</time></trkpt><trkpt lat="43.27783428488942" lon="12.768212379232244"><ele>672.0</ele><time>2026-04-11T10:08:36Z</time></trkpt><trkpt lat="43.27778298270184" lon="12.768135243936817"><ele>672.0</ele><time>2026-04-11T10:08:38Z</time></trkpt><trkpt lat="43.27771662589469" lon="12.768052535848676"><ele>672.0</ele><time>2026-04-11T10:08:41Z</time></trkpt><trkpt lat="43.277707055972755" lon="12.768140309412491"><ele>672.0</ele><time>2026-04-11T10:08:50Z</time></trkpt><trkpt lat="43.277697275514996" lon="12.768256618671083"><ele>672.0</ele><time>2026-04-11T10:08:56Z</time></trkpt><trkpt lat="43.27771786217933" lon="12.76834135730206"><ele>672.0</ele><time>2026-04-11T10:09:01Z</time></trkpt><trkpt lat="43.27774607439668" lon="12.768439731716574"><ele>672.0</ele><time>2026-04-11T10:09:04Z</time></trkpt><trkpt lat="43.27779360981964" lon="12.76853603352409"><ele>672.0</ele><time>2026-04-11T10:09:06Z</time></trkpt><trkpt lat="43.27785455374011" lon="12.768595482044203"><ele>672.0</ele><time>2026-04-11T10:09:08Z</time></trkpt><trkpt lat="43.27789913757756" lon="12.76865838807899"><ele>672.0</ele><time>2026-04-11T10:09:10Z</time></trkpt><trkpt lat="43.27794588225233" lon="12.768731626608199"><ele>672.0</ele><time>2026-04-11T10:09:13Z</time></trkpt><trkpt lat="43.277982088211665" lon="12.76880549933763"><ele>672.0</ele><time>2026-04-11T10:09:18Z</time></trkpt><trkpt lat="43.27812104693001" lon="12.768770714879327"><ele>672.0</ele><time>2026-04-11T10:09:53Z</time></trkpt><trkpt lat="43.27815583272451" lon="12.768691909538148"><ele>672.0</ele><time>2026-04-11T10:09:54Z</time></trkpt><trkpt lat="43.27816579005521" lon="12.768593079731296"><ele>672.0</ele><time>2026-04-11T10:09:57Z</time></trkpt><trkpt lat="43.27814263906932" lon="12.768511529243376"><ele>672.0</ele><time>2026-04-11T10:10:05Z</time></trkpt><trkpt lat="43.278091415088134" lon="12.768432438233052"><ele>672.0</ele><time>2026-04-11T10:10:11Z</time></trkpt><trkpt lat="43.27808205810635" lon="12.768335591269278"><ele>672.0</ele><time>2026-04-11T10:10:14Z</time></trkpt><trkpt lat="43.27808891598702" lon="12.768225421195307"><ele>672.0</ele><time>2026-04-11T10:10:17Z</time></trkpt><trkpt lat="43.278102654089906" lon="12.768138068222367"><ele>672.0</ele><time>2026-04-11T10:10:19Z</time></trkpt><trkpt lat="43.27819114994709" lon="12.768118288659121"><ele>672.0</ele><time>2026-04-11T10:10:42Z</time></trkpt><trkpt lat="43.27814855718399" lon="12.76821055496227"><ele>672.0</ele><time>2026-04-11T10:10:44Z</time></trkpt><trkpt lat="43.27811800683121" lon="12.768335917212196"><ele>672.0</ele><time>2026-04-11T10:10:45Z</time></trkpt><trkpt lat="43.2781592148228" lon="12.768474300479523"><ele>674.8333333333334</ele><time>2026-04-11T10:10:46Z</time></trkpt><trkpt lat="43.27819597322015" lon="12.768629343123955"><ele>677.6666666666666</ele><time>2026-04-11T10:10:48Z</time></trkpt><trkpt lat="43.278122438391165" lon="12.768718036835345"><ele>680.5</ele><time>2026-04-11T10:10:51Z</time></trkpt><trkpt lat="43.27812372341062" lon="12.768828940166907"><ele>683.3333333333333</ele><time>2026-04-11T10:10:52Z</time></trkpt><trkpt lat="43.27807992047125" lon="12.768897303896273"><ele>686.1666666666666</ele><time>2026-04-11T10:10:56Z</time></trkpt><trkpt lat="43.2781383323785" lon="12.768976271637994"><ele>689.0</ele><time>2026-04-11T10:11:03Z</time></trkpt><trkpt lat="43.27815941534138" lon="12.76906791592614"><ele>691.6</ele><time>2026-04-11T10:11:06Z</time></trkpt><trkpt lat="43.278205623422686" lon="12.769181413505937"><ele>694.2</ele><time>2026-04-11T10:11:08Z</time></trkpt><trkpt lat="43.27823640526095" lon="12.76926364912409"><ele>696.8000000000001</ele><time>2026-04-11T10:11:11Z</time></trkpt><trkpt lat="43.27834409616513" lon="12.769244606884758"><ele>699.4000000000001</ele><time>2026-04-11T10:11:16Z</time></trkpt><trkpt lat="43.27846985634613" lon="12.76921769413057"><ele>702.0</ele><time>2026-04-11T10:11:18Z</time></trkpt><trkpt lat="43.278554039509835" lon="12.76921095394125"><ele>702.0</ele><time>2026-04-11T10:11:19Z</time></trkpt><trkpt lat="43.27863223948023" lon="12.7692062557748"><ele>702.0</ele><time>2026-04-11T10:11:20Z</time></trkpt><trkpt lat="43.27870712443306" lon="12.769197931397414"><ele>702.0</ele><time>2026-04-11T10:11:21Z</time></trkpt><trkpt lat="43.27878905043073" lon="12.769186314370325"><ele>702.0</ele><time>2026-04-11T10:11:22Z</time></trkpt><trkpt lat="43.27887441947106" lon="12.769168788049654"><ele>702.0</ele><time>2026-04-11T10:11:23Z</time></trkpt><trkpt lat="43.27896135928025" lon="12.76914689497566"><ele>702.0</ele><time>2026-04-11T10:11:24Z</time></trkpt><trkpt lat="43.27905181140129" lon="12.769123858949118"><ele>703.6</ele><time>2026-04-11T10:11:25Z</time></trkpt><trkpt lat="43.27913630988549" lon="12.769101094859627"><ele>705.2</ele><time>2026-04-11T10:11:26Z</time></trkpt><trkpt lat="43.27922849684561" lon="12.769073423311735"><ele>706.8</ele><time>2026-04-11T10:11:27Z</time></trkpt><trkpt lat="43.2793259765309" lon="12.769034037075727"><ele>708.4</ele><time>2026-04-11T10:11:28Z</time></trkpt><trkpt lat="43.27942997398834" lon="12.768985365321864"><ele>710.0</ele><time>2026-04-11T10:11:29Z</time></trkpt><trkpt lat="43.27955272624999" lon="12.768959730062695"><ele>710.0</ele><time>2026-04-11T10:11:30Z</time></trkpt><trkpt lat="43.27966315530741" lon="12.768938315604053"><ele>710.0</ele><time>2026-04-11T10:11:31Z</time></trkpt><trkpt lat="43.2797669354483" lon="12.7688950674565"><ele>710.0</ele><time>2026-04-11T10:11:32Z</time></trkpt><trkpt lat="43.279876754191235" lon="12.768855606879713"><ele>710.0</ele><time>2026-04-11T10:11:33Z</time></trkpt><trkpt lat="43.27997198109865" lon="12.768810790709633"><ele>710.0</ele><time>2026-04-11T10:11:34Z</time></trkpt><trkpt lat="43.280052560361945" lon="12.768754160801445"><ele>711.4</ele><time>2026-04-11T10:11:35Z</time></trkpt><trkpt lat="43.280139359781494" lon="12.76870273025628"><ele>712.8</ele><time>2026-04-11T10:11:36Z</time></trkpt><trkpt lat="43.28022606428106" lon="12.768641987753481"><ele>714.2</ele><time>2026-04-11T10:11:37Z</time></trkpt><trkpt lat="43.28034475604305" lon="12.768587849766648"><ele>715.6</ele><time>2026-04-11T10:11:38Z</time></trkpt><trkpt lat="43.28044593519161" lon="12.76851564175729"><ele>717.0</ele><time>2026-04-11T10:11:39Z</time></trkpt><trkpt lat="43.28052228512503" lon="12.768448531173487"><ele>716.5</ele><time>2026-04-11T10:11:40Z</time></trkpt><trkpt lat="43.28061320517162" lon="12.76836083196637"><ele>716.0</ele><time>2026-04-11T10:11:41Z</time></trkpt><trkpt lat="43.28070203058715" lon="12.768269133999459"><ele>715.5</ele><time>2026-04-11T10:11:42Z</time></trkpt><trkpt lat="43.28079470195289" lon="12.768164551810804"><ele>715.0</ele><time>2026-04-11T10:11:43Z</time></trkpt><trkpt lat="43.28088624597946" lon="12.768055667678665"><ele>715.0</ele><time>2026-04-11T10:11:44Z</time></trkpt><trkpt lat="43.280973368487196" lon="12.76793866528177"><ele>715.0</ele><time>2026-04-11T10:11:45Z</time></trkpt><trkpt lat="43.281053488993514" lon="12.767836692658808"><ele>715.0</ele><time>2026-04-11T10:11:46Z</time></trkpt><trkpt lat="43.28113789004655" lon="12.767729894196043"><ele>715.0</ele><time>2026-04-11T10:11:47Z</time></trkpt><trkpt lat="43.281218164351934" lon="12.767648774282028"><ele>715.0</ele><time>2026-04-11T10:11:48Z</time></trkpt><trkpt lat="43.28130077531394" lon="12.767564497169495"><ele>715.4</ele><time>2026-04-11T10:11:49Z</time></trkpt><trkpt lat="43.28138497004643" lon="12.767476913265366"><ele>715.8</ele><time>2026-04-11T10:11:50Z</time></trkpt><trkpt lat="43.28147709626243" lon="12.767394724281765"><ele>716.2</ele><time>2026-04-11T10:11:51Z</time></trkpt><trkpt lat="43.281574115122936" lon="12.767320762703267"><ele>716.6</ele><time>2026-04-11T10:11:52Z</time></trkpt><trkpt lat="43.281680501427" lon="12.767256733663256"><ele>717.0</ele><time>2026-04-11T10:11:53Z</time></trkpt><trkpt lat="43.281796029852224" lon="12.767200065737667"><ele>717.0</ele><time>2026-04-11T10:11:54Z</time></trkpt><trkpt lat="43.28190909850706" lon="12.767158989046967"><ele>717.0</ele><time>2026-04-11T10:11:55Z</time></trkpt><trkpt lat="43.28201514003426" lon="12.767125195171007"><ele>717.0</ele><time>2026-04-11T10:11:56Z</time></trkpt><trkpt lat="43.282110767721406" lon="12.767096085317164"><ele>717.0</ele><time>2026-04-11T10:11:57Z</time></trkpt><trkpt lat="43.28220068218265" lon="12.767060251476515"><ele>717.0</ele><time>2026-04-11T10:11:58Z</time></trkpt><trkpt lat="43.28228595679805" lon="12.767028678108929"><ele>716.75</ele><time>2026-04-11T10:11:59Z</time></trkpt><trkpt lat="43.28235849606102" lon="12.767008024713482"><ele>716.5</ele><time>2026-04-11T10:12:00Z</time></trkpt><trkpt lat="43.282422994456155" lon="12.766984314990328"><ele>716.25</ele><time>2026-04-11T10:12:01Z</time></trkpt><trkpt lat="43.2824947014236" lon="12.766976932946971"><ele>716.0</ele><time>2026-04-11T10:12:02Z</time></trkpt><trkpt lat="43.282700239939565" lon="12.7671733993098"><ele>716.0000000000001</ele><time>2026-04-11T10:12:07Z</time></trkpt><trkpt lat="43.28270190512282" lon="12.767270228434231"><ele>716.0</ele><time>2026-04-11T10:12:08Z</time></trkpt><trkpt lat="43.28271251709177" lon="12.767372229673327"><ele>716.0</ele><time>2026-04-11T10:12:09Z</time></trkpt><trkpt lat="43.282720558002886" lon="12.76746570418687"><ele>716.0</ele><time>2026-04-11T10:12:10Z</time></trkpt><trkpt lat="43.282706944721404" lon="12.767552438862095"><ele>716.0</ele><time>2026-04-11T10:12:12Z</time></trkpt><trkpt lat="43.282662171576725" lon="12.767622274594245"><ele>716.0000000000001</ele><time>2026-04-11T10:12:19Z</time></trkpt><trkpt lat="43.282592660310996" lon="12.767688011967678"><ele>716.0</ele><time>2026-04-11T10:12:26Z</time></trkpt><trkpt lat="43.28252282449663" lon="12.767729737606649"><ele>718.0</ele><time>2026-04-11T10:12:28.002Z</time></trkpt><trkpt lat="43.28241356207481" lon="12.767802294201116"><ele>720.0</ele><time>2026-04-11T10:12:30.002Z</time></trkpt><trkpt lat="43.28236549394064" lon="12.767863868309952"><ele>722.0</ele><time>2026-04-11T10:12:31.002Z</time></trkpt><trkpt lat="43.282312081296055" lon="12.767929697395946"><ele>724.0</ele><time>2026-04-11T10:12:32.002Z</time></trkpt><trkpt lat="43.2822006611344" lon="12.767901209576717"><ele>726.0</ele><time>2026-04-11T10:12:33.001Z</time></trkpt><trkpt lat="43.28212161182729" lon="12.76798096193658"><ele>726.5</ele><time>2026-04-11T10:12:34.001Z</time></trkpt><trkpt lat="43.282048341151814" lon="12.768062323042216"><ele>727.0</ele><time>2026-04-11T10:12:35.001Z</time></trkpt><trkpt lat="43.2819712949742" lon="12.768153725401525"><ele>727.5</ele><time>2026-04-11T10:12:36.001Z</time></trkpt><trkpt lat="43.28187467386768" lon="12.768275833329284"><ele>728.0</ele><time>2026-04-11T10:12:37.001Z</time></trkpt><trkpt lat="43.281781901129094" lon="12.768402384212072"><ele>731.5</ele><time>2026-04-11T10:12:38.001Z</time></trkpt><trkpt lat="43.28169107313596" lon="12.768538101979225"><ele>735.0</ele><time>2026-04-11T10:12:39.001Z</time></trkpt><trkpt lat="43.28161437813679" lon="12.768658664535687"><ele>738.5</ele><time>2026-04-11T10:12:40.001Z</time></trkpt><trkpt lat="43.2815536703077" lon="12.768755715581726"><ele>742.0</ele><time>2026-04-11T10:12:41.001Z</time></trkpt><trkpt lat="43.28147662024826" lon="12.768878892306512"><ele>739.0</ele><time>2026-04-11T10:12:42.001Z</time></trkpt><trkpt lat="43.28140796438848" lon="12.768988649475881"><ele>736.0</ele><time>2026-04-11T10:12:43.001Z</time></trkpt><trkpt lat="43.28133313693467" lon="12.769108273031437"><ele>733.0</ele><time>2026-04-11T10:12:44.001Z</time></trkpt><trkpt lat="43.281252808968084" lon="12.769236689995926"><ele>730.0</ele><time>2026-04-11T10:12:45.001Z</time></trkpt><trkpt lat="43.28117981389143" lon="12.76934974195912"><ele>733.2</ele><time>2026-04-11T10:12:46.001Z</time></trkpt><trkpt lat="43.28111155370728" lon="12.769454685728764"><ele>736.4</ele><time>2026-04-11T10:12:47.001Z</time></trkpt><trkpt lat="43.281043531840666" lon="12.769559263144014"><ele>739.5999999999999</ele><time>2026-04-11T10:12:48.001Z</time></trkpt><trkpt lat="43.280975607530465" lon="12.769664128450641"><ele>742.8</ele><time>2026-04-11T10:12:49.001Z</time></trkpt><trkpt lat="43.28091227332015" lon="12.76976432189115"><ele>746.0</ele><time>2026-04-11T10:12:50.001Z</time></trkpt><trkpt lat="43.28085316209413" lon="12.769857834670763"><ele>746.0</ele><time>2026-04-11T10:12:51.001Z</time></trkpt><trkpt lat="43.280794556337725" lon="12.769950341621243"><ele>746.0</ele><time>2026-04-11T10:12:52.001Z</time></trkpt><trkpt lat="43.28073911385363" lon="12.770068369901049"><ele>746.0</ele><time>2026-04-11T10:12:53.001Z</time></trkpt><trkpt lat="43.280664068853056" lon="12.770177508275951"><ele>746.0</ele><time>2026-04-11T10:12:54Z</time></trkpt><trkpt lat="43.280599830016996" lon="12.770269870947608"><ele>746.0</ele><time>2026-04-11T10:12:55Z</time></trkpt><trkpt lat="43.28051207994462" lon="12.770356325004451"><ele>748.4</ele><time>2026-04-11T10:12:56Z</time></trkpt><trkpt lat="43.28043994117533" lon="12.770444937328097"><ele>750.8</ele><time>2026-04-11T10:12:57Z</time></trkpt><trkpt lat="43.280364259484124" lon="12.770550471488976"><ele>753.1999999999999</ele><time>2026-04-11T10:12:58Z</time></trkpt><trkpt lat="43.280273570900526" lon="12.77062523939524"><ele>755.5999999999999</ele><time>2026-04-11T10:12:59Z</time></trkpt><trkpt lat="43.280184870180186" lon="12.7706993547768"><ele>758.0</ele><time>2026-04-11T10:13:00Z</time></trkpt><trkpt lat="43.280077389534306" lon="12.770765074073994"><ele>758.0</ele><time>2026-04-11T10:13:01Z</time></trkpt><trkpt lat="43.27998589977971" lon="12.770835369344047"><ele>758.0</ele><time>2026-04-11T10:13:02Z</time></trkpt><trkpt lat="43.27989719185475" lon="12.770901517512998"><ele>758.0</ele><time>2026-04-11T10:13:03Z</time></trkpt><trkpt lat="43.27979863792732" lon="12.770975211170832"><ele>758.0</ele><time>2026-04-11T10:13:04Z</time></trkpt><trkpt lat="43.279692950558456" lon="12.7710444123201"><ele>758.0</ele><time>2026-04-11T10:13:05Z</time></trkpt><trkpt lat="43.279599379061075" lon="12.771139080774914"><ele>760.5</ele><time>2026-04-11T10:13:06Z</time></trkpt><trkpt lat="43.27949232967733" lon="12.771214334024203"><ele>763.0</ele><time>2026-04-11T10:13:07Z</time></trkpt><trkpt lat="43.27938390340014" lon="12.771296703519214"><ele>765.5</ele><time>2026-04-11T10:13:08Z</time></trkpt><trkpt lat="43.27928302933584" lon="12.771379749359665"><ele>768.0</ele><time>2026-04-11T10:13:09Z</time></trkpt><trkpt lat="43.27917154925495" lon="12.771441553264097"><ele>768.0</ele><time>2026-04-11T10:13:10Z</time></trkpt><trkpt lat="43.27907014743962" lon="12.771519958203754"><ele>768.0</ele><time>2026-04-11T10:13:11Z</time></trkpt><trkpt lat="43.27897880805839" lon="12.77162190060365"><ele>768.0</ele><time>2026-04-11T10:13:12Z</time></trkpt><trkpt lat="43.27887537224216" lon="12.771703648908362"><ele>768.0</ele><time>2026-04-11T10:13:13Z</time></trkpt><trkpt lat="43.278771807698256" lon="12.7717941962055"><ele>769.75</ele><time>2026-04-11T10:13:14Z</time></trkpt><trkpt lat="43.27867026142554" lon="12.771887317129831"><ele>771.5</ele><time>2026-04-11T10:13:15Z</time></trkpt><trkpt lat="43.278558432910124" lon="12.771969112629401"><ele>773.25</ele><time>2026-04-11T10:13:16Z</time></trkpt><trkpt lat="43.27845497691459" lon="12.772069247675564"><ele>775.0</ele><time>2026-04-11T10:13:17Z</time></trkpt><trkpt lat="43.27834991799666" lon="12.772173297299988"><ele>775.0</ele><time>2026-04-11T10:13:18Z</time></trkpt><trkpt lat="43.27824551906075" lon="12.772280847234313"><ele>775.0</ele><time>2026-04-11T10:13:19Z</time></trkpt><trkpt lat="43.278143248561925" lon="12.772390529626433"><ele>775.0</ele><time>2026-04-11T10:13:20Z</time></trkpt><trkpt lat="43.27804223800034" lon="12.772505787065542"><ele>775.0</ele><time>2026-04-11T10:13:21Z</time></trkpt><trkpt lat="43.2779427544291" lon="12.772623012095048"><ele>776.75</ele><time>2026-04-11T10:13:22Z</time></trkpt><trkpt lat="43.27784646313962" lon="12.772739285813422"><ele>778.5</ele><time>2026-04-11T10:13:23Z</time></trkpt><trkpt lat="43.27774979541544" lon="12.772855393173117"><ele>780.25</ele><time>2026-04-11T10:13:24Z</time></trkpt><trkpt lat="43.27765216046927" lon="12.772972257850423"><ele>782.0</ele><time>2026-04-11T10:13:25Z</time></trkpt><trkpt lat="43.27756549091058" lon="12.773103915809962"><ele>782.0</ele><time>2026-04-11T10:13:26Z</time></trkpt><trkpt lat="43.2774583536502" lon="12.773197996137672"><ele>782.0</ele><time>2026-04-11T10:13:27Z</time></trkpt><trkpt lat="43.27736975777907" lon="12.77332705529685"><ele>782.0</ele><time>2026-04-11T10:13:28Z</time></trkpt><trkpt lat="43.27727041283548" lon="12.773438808946226"><ele>782.0</ele><time>2026-04-11T10:13:29Z</time></trkpt><trkpt lat="43.27717135876936" lon="12.773544169324303"><ele>781.8</ele><time>2026-04-11T10:13:30Z</time></trkpt><trkpt lat="43.27707110707713" lon="12.773625639348728"><ele>781.6</ele><time>2026-04-11T10:13:31Z</time></trkpt><trkpt lat="43.27698970724468" lon="12.773712488663078"><ele>781.4</ele><time>2026-04-11T10:13:32Z</time></trkpt><trkpt lat="43.27692255917132" lon="12.773785294291482"><ele>781.1999999999999</ele><time>2026-04-11T10:13:33Z</time></trkpt><trkpt lat="43.27686514075153" lon="12.773846884958967"><ele>781.0</ele><time>2026-04-11T10:13:34Z</time></trkpt><trkpt lat="43.276790067736755" lon="12.773891752108325"><ele>781.0</ele><time>2026-04-11T10:13:35Z</time></trkpt><trkpt lat="43.27672135849202" lon="12.774010778093155"><ele>781.0</ele><time>2026-04-11T10:13:36Z</time></trkpt><trkpt lat="43.27677698810064" lon="12.774135158284045"><ele>781.0</ele><time>2026-04-11T10:13:37Z</time></trkpt><trkpt lat="43.27686632771758" lon="12.774152252627688"><ele>781.0</ele><time>2026-04-11T10:13:38Z</time></trkpt><trkpt lat="43.276980636934354" lon="12.774084138860363"><ele>781.0</ele><time>2026-04-11T10:13:40Z</time></trkpt><trkpt lat="43.27704139602303" lon="12.774036548671754"><ele>780.9999999999999</ele><time>2026-04-11T10:13:41Z</time></trkpt><trkpt lat="43.277107883241946" lon="12.773984799509261"><ele>781.0</ele><time>2026-04-11T10:13:42Z</time></trkpt><trkpt lat="43.27717955967526" lon="12.77393680964096"><ele>781.0</ele><time>2026-04-11T10:13:43Z</time></trkpt><trkpt lat="43.277251587198876" lon="12.77389299189083"><ele>781.0</ele><time>2026-04-11T10:13:44Z</time></trkpt><trkpt lat="43.27733209185848" lon="12.773845803039"><ele>780.9999999999999</ele><time>2026-04-11T10:13:45Z</time></trkpt><trkpt lat="43.27741753137876" lon="12.773796699356161"><ele>781.0</ele><time>2026-04-11T10:13:46Z</time></trkpt><trkpt lat="43.27750528788933" lon="12.773746896235563"><ele>781.1999999999999</ele><time>2026-04-11T10:13:47Z</time></trkpt><trkpt lat="43.27758861308597" lon="12.773699608029446"><ele>781.4</ele><time>2026-04-11T10:13:48Z</time></trkpt><trkpt lat="43.27767601849899" lon="12.773628520854581"><ele>781.6</ele><time>2026-04-11T10:13:49Z</time></trkpt><trkpt lat="43.27776257609004" lon="12.773578858642624"><ele>781.8</ele><time>2026-04-11T10:13:50Z</time></trkpt><trkpt lat="43.27784865408919" lon="12.773525569466933"><ele>782.0</ele><time>2026-04-11T10:13:51Z</time></trkpt><trkpt lat="43.27793536442725" lon="12.773475608798194"><ele>782.0000000000001</ele><time>2026-04-11T10:13:52Z</time></trkpt><trkpt lat="43.278021274377316" lon="12.77342740704912"><ele>782.0</ele><time>2026-04-11T10:13:53Z</time></trkpt><trkpt lat="43.278099461897604" lon="12.773383475017363"><ele>782.0</ele><time>2026-04-11T10:13:54Z</time></trkpt><trkpt lat="43.27817259810954" lon="12.773348791226816"><ele>782.0</ele><time>2026-04-11T10:13:55Z</time></trkpt><trkpt lat="43.27824706101387" lon="12.773339313666805"><ele>782.0000000000001</ele><time>2026-04-11T10:13:56Z</time></trkpt><trkpt lat="43.27833534727658" lon="12.77335481565731"><ele>782.0</ele><time>2026-04-11T10:13:58Z</time></trkpt><trkpt lat="43.278415012866375" lon="12.77339062783632"><ele>784.3333333333334</ele><time>2026-04-11T10:14:01Z</time></trkpt><trkpt lat="43.278337332687435" lon="12.773442866053387"><ele>786.6666666666667</ele><time>2026-04-11T10:14:03Z</time></trkpt><trkpt lat="43.27827479181374" lon="12.773475386792695"><ele>789.0</ele><time>2026-04-11T10:14:04Z</time></trkpt><trkpt lat="43.27821915163553" lon="12.773532158918583"><ele>791.3333333333333</ele><time>2026-04-11T10:14:05Z</time></trkpt><trkpt lat="43.27815296705147" lon="12.7736067509987"><ele>793.6666666666666</ele><time>2026-04-11T10:14:06Z</time></trkpt><trkpt lat="43.27809652239094" lon="12.773687788149493"><ele>796.0</ele><time>2026-04-11T10:14:07Z</time></trkpt><trkpt lat="43.278041213566844" lon="12.773772566250305"><ele>797.0</ele><time>2026-04-11T10:14:08Z</time></trkpt><trkpt lat="43.277974257684235" lon="12.773879258833636"><ele>798.0</ele><time>2026-04-11T10:14:09Z</time></trkpt><trkpt lat="43.277898226328624" lon="12.77400147784708"><ele>799.0</ele><time>2026-04-11T10:14:10Z</time></trkpt><trkpt lat="43.27781251130075" lon="12.774139263257911"><ele>800.0</ele><time>2026-04-11T10:14:11Z</time></trkpt><trkpt lat="43.27772228029178" lon="12.774286107390632"><ele>806.0</ele><time>2026-04-11T10:14:12Z</time></trkpt><trkpt lat="43.27763038362913" lon="12.774435831623402"><ele>812.0</ele><time>2026-04-11T10:14:13Z</time></trkpt><trkpt lat="43.27753561605082" lon="12.774596544932644"><ele>818.0</ele><time>2026-04-11T10:14:14Z</time></trkpt><trkpt lat="43.277446878775" lon="12.774783032567628"><ele>818.0</ele><time>2026-04-11T10:14:15Z</time></trkpt><trkpt lat="43.27735482329213" lon="12.774949709501717"><ele>818.0</ele><time>2026-04-11T10:14:16Z</time></trkpt><trkpt lat="43.27727383842805" lon="12.77511449356726"><ele>818.0</ele><time>2026-04-11T10:14:17Z</time></trkpt><trkpt lat="43.277179712138434" lon="12.775275108600662"><ele>818.0</ele><time>2026-04-11T10:14:18Z</time></trkpt><trkpt lat="43.27710624035373" lon="12.775448277083143"><ele>817.5</ele><time>2026-04-11T10:14:19Z</time></trkpt><trkpt lat="43.277048053811654" lon="12.775635137885327"><ele>817.0</ele><time>2026-04-11T10:14:20Z</time></trkpt><trkpt lat="43.276984458291125" lon="12.775804771970147"><ele>816.5</ele><time>2026-04-11T10:14:21Z</time></trkpt><trkpt lat="43.27692742124392" lon="12.775972500033692"><ele>816.0</ele><time>2026-04-11T10:14:22Z</time></trkpt><trkpt lat="43.27686826805354" lon="12.776154893897834"><ele>820.75</ele><time>2026-04-11T10:14:23Z</time></trkpt><trkpt lat="43.2768105637941" lon="12.776322360960013"><ele>825.5</ele><time>2026-04-11T10:14:24Z</time></trkpt><trkpt lat="43.27676454861812" lon="12.776481091120226"><ele>830.25</ele><time>2026-04-11T10:14:25Z</time></trkpt><trkpt lat="43.276724080627915" lon="12.776620832060773"><ele>835.0</ele><time>2026-04-11T10:14:26Z</time></trkpt><trkpt lat="43.27666671576075" lon="12.776737110679178"><ele>835.0</ele><time>2026-04-11T10:14:27Z</time></trkpt><trkpt lat="43.27662017341157" lon="12.77684613483937"><ele>835.0</ele><time>2026-04-11T10:14:28Z</time></trkpt><trkpt lat="43.27656616174467" lon="12.776926052598125"><ele>835.0</ele><time>2026-04-11T10:14:29Z</time></trkpt><trkpt lat="43.27640932059586" lon="12.777072912727954"><ele>835.0</ele><time>2026-04-11T10:14:31Z</time></trkpt><trkpt lat="43.276379951593654" lon="12.777206886195335"><ele>839.5</ele><time>2026-04-11T10:14:32Z</time></trkpt><trkpt lat="43.276501677504875" lon="12.777354855912243"><ele>844.0</ele><time>2026-04-11T10:14:33Z</time></trkpt><trkpt lat="43.276590388653844" lon="12.777270559204005"><ele>848.5</ele><time>2026-04-11T10:14:35Z</time></trkpt><trkpt lat="43.27667175904053" lon="12.77717433507401"><ele>853.0</ele><time>2026-04-11T10:14:37Z</time></trkpt><trkpt lat="43.2767345381179" lon="12.777114622854247"><ele>853.0</ele><time>2026-04-11T10:14:38Z</time></trkpt><trkpt lat="43.27680248996409" lon="12.777061355631977"><ele>853.0</ele><time>2026-04-11T10:14:39Z</time></trkpt><trkpt lat="43.27687327610834" lon="12.77699243742061"><ele>853.0</ele><time>2026-04-11T10:14:40Z</time></trkpt><trkpt lat="43.276951280929644" lon="12.776917521826828"><ele>853.0</ele><time>2026-04-11T10:14:41Z</time></trkpt><trkpt lat="43.2770343039394" lon="12.776839690913345"><ele>853.0</ele><time>2026-04-11T10:14:42Z</time></trkpt><trkpt lat="43.27712815925" lon="12.776772910274934"><ele>853.8</ele><time>2026-04-11T10:14:43Z</time></trkpt><trkpt lat="43.27722252621202" lon="12.776701992145728"><ele>854.5999999999999</ele><time>2026-04-11T10:14:44Z</time></trkpt><trkpt lat="43.277317504026605" lon="12.776639671060813"><ele>855.4000000000001</ele><time>2026-04-11T10:14:45Z</time></trkpt><trkpt lat="43.27741811053643" lon="12.77658043032693"><ele>856.2</ele><time>2026-04-11T10:14:46Z</time></trkpt><trkpt lat="43.277516541122665" lon="12.776515926104874"><ele>857.0</ele><time>2026-04-11T10:14:47Z</time></trkpt><trkpt lat="43.27761480844026" lon="12.776452063545277"><ele>857.0</ele><time>2026-04-11T10:14:48Z</time></trkpt><trkpt lat="43.277721964505815" lon="12.776410902911655"><ele>857.0</ele><time>2026-04-11T10:14:49Z</time></trkpt><trkpt lat="43.27782335823276" lon="12.776349657705763"><ele>857.0</ele><time>2026-04-11T10:14:50Z</time></trkpt><trkpt lat="43.2779184983147" lon="12.776271554693679"><ele>857.0</ele><time>2026-04-11T10:14:51Z</time></trkpt><trkpt lat="43.278016306855754" lon="12.776215655901646"><ele>857.0</ele><time>2026-04-11T10:14:52Z</time></trkpt><trkpt lat="43.27811405647186" lon="12.77616214282335"><ele>861.2</ele><time>2026-04-11T10:14:53Z</time></trkpt><trkpt lat="43.27821692961944" lon="12.776129854211172"><ele>865.4000000000001</ele><time>2026-04-11T10:14:54Z</time></trkpt><trkpt lat="43.278311880202416" lon="12.776089152112025"><ele>869.5999999999999</ele><time>2026-04-11T10:14:55Z</time></trkpt><trkpt lat="43.278409309631435" lon="12.776060014892893"><ele>873.8</ele><time>2026-04-11T10:14:56Z</time></trkpt><trkpt lat="43.278519819462105" lon="12.7760409764375"><ele>878.0</ele><time>2026-04-11T10:14:57Z</time></trkpt><trkpt lat="43.27861584485576" lon="12.776034028118042"><ele>877.5999999999999</ele><time>2026-04-11T10:14:58Z</time></trkpt><trkpt lat="43.278716926755024" lon="12.775994088593178"><ele>877.1999999999999</ele><time>2026-04-11T10:14:59Z</time></trkpt><trkpt lat="43.27882462367255" lon="12.776002901122503"><ele>876.8</ele><time>2026-04-11T10:15:00Z</time></trkpt><trkpt lat="43.27893443109761" lon="12.77599409099897"><ele>876.4</ele><time>2026-04-11T10:15:01Z</time></trkpt><trkpt lat="43.27903702275241" lon="12.775973059964038"><ele>876.0</ele><time>2026-04-11T10:15:02Z</time></trkpt><trkpt lat="43.279139517098386" lon="12.775984573521677"><ele>876.0</ele><time>2026-04-11T10:15:03Z</time></trkpt><trkpt lat="43.279250751852615" lon="12.775982831580695"><ele>875.9999999999999</ele><time>2026-04-11T10:15:04Z</time></trkpt><trkpt lat="43.279360512136726" lon="12.77600555576451"><ele>875.9999999999999</ele><time>2026-04-11T10:15:05Z</time></trkpt><trkpt lat="43.279471558477" lon="12.776007229333619"><ele>876.0</ele><time>2026-04-11T10:15:06Z</time></trkpt><trkpt lat="43.2795813810006" lon="12.776007804092275"><ele>876.0</ele><time>2026-04-11T10:15:07Z</time></trkpt><trkpt lat="43.27969401093379" lon="12.776007804089403"><ele>877.8</ele><time>2026-04-11T10:15:08Z</time></trkpt><trkpt lat="43.27980619433751" lon="12.77600780408701"><ele>879.5999999999999</ele><time>2026-04-11T10:15:09Z</time></trkpt><trkpt lat="43.279913804733326" lon="12.7760078040848"><ele>881.4</ele><time>2026-04-11T10:15:10Z</time></trkpt><trkpt lat="43.280022265000376" lon="12.776007804082008"><ele>883.2</ele><time>2026-04-11T10:15:11Z</time></trkpt><trkpt lat="43.28012761738674" lon="12.776007804078032"><ele>885.0</ele><time>2026-04-11T10:15:12Z</time></trkpt><trkpt lat="43.28023396629566" lon="12.77599054205578"><ele>885.0</ele><time>2026-04-11T10:15:13Z</time></trkpt><trkpt lat="43.28033839491272" lon="12.775990959083256"><ele>885.0</ele><time>2026-04-11T10:15:14Z</time></trkpt><trkpt lat="43.280443518791415" lon="12.775990570305478"><ele>885.0</ele><time>2026-04-11T10:15:15Z</time></trkpt><trkpt lat="43.280549957644" lon="12.776013561710398"><ele>885.0</ele><time>2026-04-11T10:15:16Z</time></trkpt><trkpt lat="43.2806545849528" lon="12.77601544652681"><ele>885.0</ele><time>2026-04-11T10:15:17Z</time></trkpt><trkpt lat="43.280751524556386" lon="12.776017192853551"><ele>887.4</ele><time>2026-04-11T10:15:18Z</time></trkpt><trkpt lat="43.28085260169072" lon="12.77601825205593"><ele>889.8</ele><time>2026-04-11T10:15:19Z</time></trkpt><trkpt lat="43.2809590020379" lon="12.776017116871731"><ele>892.2</ele><time>2026-04-11T10:15:20Z</time></trkpt><trkpt lat="43.28106667389524" lon="12.775996137640515"><ele>894.6</ele><time>2026-04-11T10:15:21Z</time></trkpt><trkpt lat="43.281173997661206" lon="12.775997471758318"><ele>897.0</ele><time>2026-04-11T10:15:22Z</time></trkpt><trkpt lat="43.28128171574022" lon="12.775993160388209"><ele>897.0</ele><time>2026-04-11T10:15:23Z</time></trkpt><trkpt lat="43.28138891220286" lon="12.775992662973167"><ele>897.0</ele><time>2026-04-11T10:15:24Z</time></trkpt><trkpt lat="43.281494501118736" lon="12.77601411184841"><ele>897.0</ele><time>2026-04-11T10:15:25Z</time></trkpt><trkpt lat="43.28160045615808" lon="12.776018343083468"><ele>897.0</ele><time>2026-04-11T10:15:26Z</time></trkpt><trkpt lat="43.281705873582" lon="12.776023469477375"><ele>897.0</ele><time>2026-04-11T10:15:27Z</time></trkpt><trkpt lat="43.281811798684025" lon="12.776012513020984"><ele>903.75</ele><time>2026-04-11T10:15:28Z</time></trkpt><trkpt lat="43.28192087948398" lon="12.776037665927554"><ele>910.5</ele><time>2026-04-11T10:15:29Z</time></trkpt><trkpt lat="43.28201878993358" lon="12.776042376713892"><ele>917.25</ele><time>2026-04-11T10:15:30Z</time></trkpt><trkpt lat="43.28210255264301" lon="12.776034606643888"><ele>924.0</ele><time>2026-04-11T10:15:31Z</time></trkpt><trkpt lat="43.28207534489551" lon="12.776261703739172"><ele>924.0</ele><time>2026-04-11T10:15:39Z</time></trkpt><trkpt lat="43.28199729452893" lon="12.776273919358347"><ele>924.0</ele><time>2026-04-11T10:15:40Z</time></trkpt><trkpt lat="43.28191108094081" lon="12.776307496134205"><ele>924.0</ele><time>2026-04-11T10:15:41Z</time></trkpt><trkpt lat="43.281832723402665" lon="12.776354296665728"><ele>924.0</ele><time>2026-04-11T10:15:42Z</time></trkpt><trkpt lat="43.28175342603947" lon="12.776408148108871"><ele>924.0</ele><time>2026-04-11T10:15:43Z</time></trkpt><trkpt lat="43.28167338860995" lon="12.776485857745572"><ele>924.0</ele><time>2026-04-11T10:15:44Z</time></trkpt><trkpt lat="43.28159120361103" lon="12.776549084081454"><ele>924.0</ele><time>2026-04-11T10:15:45Z</time></trkpt><trkpt lat="43.28150711990263" lon="12.776625976926056"><ele>924.0000000000001</ele><time>2026-04-11T10:15:46Z</time></trkpt><trkpt lat="43.28141770985251" lon="12.776676304394906"><ele>924.0000000000001</ele><time>2026-04-11T10:15:47Z</time></trkpt><trkpt lat="43.281350312064006" lon="12.7767352972403"><ele>924.0</ele><time>2026-04-11T10:15:48Z</time></trkpt><trkpt lat="43.281293706540936" lon="12.776784843675376"><ele>924.0</ele><time>2026-04-11T10:15:49Z</time></trkpt><trkpt lat="43.281208629844265" lon="12.776883912219454"><ele>927.2</ele><time>2026-04-11T10:15:51Z</time></trkpt><trkpt lat="43.28112630391059" lon="12.776921713483022"><ele>930.4000000000001</ele><time>2026-04-11T10:15:53Z</time></trkpt><trkpt lat="43.281075242790735" lon="12.776992595599037"><ele>933.6</ele><time>2026-04-11T10:16:04Z</time></trkpt><trkpt lat="43.28105024151975" lon="12.777106989349685"><ele>936.8</ele><time>2026-04-11T10:16:06Z</time></trkpt><trkpt lat="43.28106007740097" lon="12.777283406652337"><ele>940.0</ele><time>2026-04-11T10:16:09Z</time></trkpt><trkpt lat="43.2809333018705" lon="12.777271114558387"><ele>939.9999999999999</ele><time>2026-04-11T10:16:10Z</time></trkpt><trkpt lat="43.280988373105906" lon="12.777418584730354"><ele>940.0</ele><time>2026-04-11T10:16:11Z</time></trkpt><trkpt lat="43.280924130075896" lon="12.77749129349834"><ele>940.0</ele><time>2026-04-11T10:16:12Z</time></trkpt><trkpt lat="43.28087002601314" lon="12.777573736509336"><ele>940.0</ele><time>2026-04-11T10:16:13Z</time></trkpt><trkpt lat="43.28081962963805" lon="12.777649415280859"><ele>939.9999999999999</ele><time>2026-04-11T10:16:14Z</time></trkpt><trkpt lat="43.28077267672457" lon="12.77772042871014"><ele>940.0</ele><time>2026-04-11T10:16:15Z</time></trkpt><trkpt lat="43.280717925640424" lon="12.77778338803039"><ele>941.5714285714286</ele><time>2026-04-11T10:16:16Z</time></trkpt><trkpt lat="43.28066108899917" lon="12.777843442962274"><ele>943.1428571428571</ele><time>2026-04-11T10:16:17Z</time></trkpt><trkpt lat="43.28060021274112" lon="12.777898777719077"><ele>944.7142857142857</ele><time>2026-04-11T10:16:18Z</time></trkpt><trkpt lat="43.28054729612419" lon="12.77794840379566"><ele>946.2857142857142</ele><time>2026-04-11T10:16:19Z</time></trkpt><trkpt lat="43.28050659580457" lon="12.778028134200886"><ele>947.8571428571429</ele><time>2026-04-11T10:16:20Z</time></trkpt><trkpt lat="43.280456381906895" lon="12.778105253694081"><ele>949.4285714285713</ele><time>2026-04-11T10:16:21Z</time></trkpt><trkpt lat="43.28040326518752" lon="12.77817912680189"><ele>951.0</ele><time>2026-04-11T10:16:22Z</time></trkpt><trkpt lat="43.28034987036156" lon="12.778262301150386"><ele>951.0</ele><time>2026-04-11T10:16:23Z</time></trkpt><trkpt lat="43.280301431899424" lon="12.778347572030329"><ele>951.0</ele><time>2026-04-11T10:16:24Z</time></trkpt><trkpt lat="43.28025241404417" lon="12.778441908223957"><ele>951.0</ele><time>2026-04-11T10:16:25Z</time></trkpt><trkpt lat="43.28019707160592" lon="12.778536236625657"><ele>951.0</ele><time>2026-04-11T10:16:26Z</time></trkpt><trkpt lat="43.28014853974461" lon="12.778629687242018"><ele>951.0</ele><time>2026-04-11T10:16:27Z</time></trkpt><trkpt lat="43.28010483044803" lon="12.778716924426499"><ele>951.0</ele><time>2026-04-11T10:16:28Z</time></trkpt><trkpt lat="43.28006592144776" lon="12.778809946110993"><ele>954.1666666666666</ele><time>2026-04-11T10:16:29Z</time></trkpt><trkpt lat="43.28002802699609" lon="12.7789003416302"><ele>957.3333333333333</ele><time>2026-04-11T10:16:30Z</time></trkpt><trkpt lat="43.27998251093547" lon="12.77898558879716"><ele>960.5</ele><time>2026-04-11T10:16:31Z</time></trkpt><trkpt lat="43.279933856351" lon="12.77906981135765"><ele>963.6666666666666</ele><time>2026-04-11T10:16:32Z</time></trkpt><trkpt lat="43.27989064496428" lon="12.779167790973435"><ele>966.8333333333333</ele><time>2026-04-11T10:16:33Z</time></trkpt><trkpt lat="43.27984712568486" lon="12.77926468293063"><ele>970.0</ele><time>2026-04-11T10:16:34Z</time></trkpt><trkpt lat="43.279809965355525" lon="12.779352341506309"><ele>969.9999999999999</ele><time>2026-04-11T10:16:35Z</time></trkpt><trkpt lat="43.27977853116863" lon="12.779445239989832"><ele>970.0</ele><time>2026-04-11T10:16:36Z</time></trkpt><trkpt lat="43.27975039610006" lon="12.779557997316408"><ele>970.0</ele><time>2026-04-11T10:16:37Z</time></trkpt><trkpt lat="43.27972036983328" lon="12.779673904440502"><ele>970.0</ele><time>2026-04-11T10:16:38Z</time></trkpt><trkpt lat="43.27969425971607" lon="12.77978660991068"><ele>969.9999999999999</ele><time>2026-04-11T10:16:39Z</time></trkpt><trkpt lat="43.27965573609706" lon="12.779898499752216"><ele>970.0</ele><time>2026-04-11T10:16:40Z</time></trkpt><trkpt lat="43.27963068049933" lon="12.780005447001793"><ele>969.9999999999999</ele><time>2026-04-11T10:16:41Z</time></trkpt><trkpt lat="43.279610885113115" lon="12.78011360908324"><ele>970.0</ele><time>2026-04-11T10:16:42Z</time></trkpt><trkpt lat="43.2795938124064" lon="12.780216478894962"><ele>970.0</ele><time>2026-04-11T10:16:43Z</time></trkpt><trkpt lat="43.279571889879044" lon="12.780311322011586"><ele>970.0</ele><time>2026-04-11T10:16:44Z</time></trkpt><trkpt lat="43.27954040033386" lon="12.780394010462109"><ele>969.9999999999999</ele><time>2026-04-11T10:16:45Z</time></trkpt><trkpt lat="43.27949600405451" lon="12.78045969123182"><ele>970.0</ele><time>2026-04-11T10:16:46Z</time></trkpt><trkpt lat="43.27941306108846" lon="12.780554959235458"><ele>972.8333333333333</ele><time>2026-04-11T10:16:48Z</time></trkpt><trkpt lat="43.27950914631281" lon="12.780506657309228"><ele>975.6666666666666</ele><time>2026-04-11T10:16:55Z</time></trkpt><trkpt lat="43.279568912629394" lon="12.780436691153977"><ele>978.5</ele><time>2026-04-11T10:16:56Z</time></trkpt><trkpt lat="43.279627300519905" lon="12.78036250157117"><ele>981.3333333333333</ele><time>2026-04-11T10:16:57Z</time></trkpt><trkpt lat="43.279677436148695" lon="12.780298927741564"><ele>984.1666666666666</ele><time>2026-04-11T10:16:58Z</time></trkpt><trkpt lat="43.279759610465504" lon="12.78020044955506"><ele>987.0</ele><time>2026-04-11T10:17:00Z</time></trkpt><trkpt lat="43.27983341658342" lon="12.78015223477101"><ele>987.0</ele><time>2026-04-11T10:17:02Z</time></trkpt><trkpt lat="43.279828073555514" lon="12.780269773169426"><ele>987.0</ele><time>2026-04-11T10:17:06Z</time></trkpt><trkpt lat="43.279786563263364" lon="12.78036860543651"><ele>987.0</ele><time>2026-04-11T10:17:07Z</time></trkpt><trkpt lat="43.279735492372865" lon="12.780473344133743"><ele>987.0</ele><time>2026-04-11T10:17:08Z</time></trkpt><trkpt lat="43.279689821617275" lon="12.780593183086358"><ele>987.0</ele><time>2026-04-11T10:17:09Z</time></trkpt><trkpt lat="43.279641991738046" lon="12.78072159388447"><ele>987.0</ele><time>2026-04-11T10:17:10Z</time></trkpt><trkpt lat="43.279576199243" lon="12.780831921755466"><ele>987.0</ele><time>2026-04-11T10:17:11Z</time></trkpt><trkpt lat="43.27951095567847" lon="12.780932723161426"><ele>987.0</ele><time>2026-04-11T10:17:12Z</time></trkpt><trkpt lat="43.27945914436961" lon="12.781021091296866"><ele>987.0</ele><time>2026-04-11T10:17:13Z</time></trkpt><trkpt lat="43.27941122521319" lon="12.781087097315721"><ele>987.0</ele><time>2026-04-11T10:17:14Z</time></trkpt><trkpt lat="43.27957471157094" lon="12.781305393760764"><ele>989.8333333333334</ele><time>2026-04-11T10:17:15Z</time></trkpt><trkpt lat="43.27954296054308" lon="12.781389261776225"><ele>992.6666666666667</ele><time>2026-04-11T10:17:16Z</time></trkpt><trkpt lat="43.279475269620534" lon="12.78152680250638"><ele>995.5</ele><time>2026-04-11T10:17:18Z</time></trkpt><trkpt lat="43.279455260637036" lon="12.781625421456502"><ele>998.3333333333334</ele><time>2026-04-11T10:17:19Z</time></trkpt><trkpt lat="43.279437646942874" lon="12.78171223553011"><ele>1001.1666666666667</ele><time>2026-04-11T10:17:20Z</time></trkpt><trkpt lat="43.2794199674064" lon="12.781798120629622"><ele>1004.0</ele><time>2026-04-11T10:17:21Z</time></trkpt><trkpt lat="43.27940228459314" lon="12.781884264196393"><ele>1005.3333333333334</ele><time>2026-04-11T10:17:22Z</time></trkpt><trkpt lat="43.27938297250231" lon="12.781975643574569"><ele>1006.6666666666667</ele><time>2026-04-11T10:17:23Z</time></trkpt><trkpt lat="43.27936534011585" lon="12.782077105264088"><ele>1008.0</ele><time>2026-04-11T10:17:24Z</time></trkpt><trkpt lat="43.27935984485608" lon="12.782201561252498"><ele>1009.3333333333333</ele><time>2026-04-11T10:17:25Z</time></trkpt><trkpt lat="43.27934923434907" lon="12.782334977439621"><ele>1010.6666666666666</ele><time>2026-04-11T10:17:26Z</time></trkpt><trkpt lat="43.27934128231024" lon="12.782472152431469"><ele>1012.0</ele><time>2026-04-11T10:17:27Z</time></trkpt><trkpt lat="43.279335663556026" lon="12.78259649388624"><ele>1011.6666666666666</ele><time>2026-04-11T10:17:28Z</time></trkpt><trkpt lat="43.27932162871214" lon="12.782707913195729"><ele>1011.3333333333333</ele><time>2026-04-11T10:17:29Z</time></trkpt><trkpt lat="43.27929983745555" lon="12.782814696775151"><ele>1011.0</ele><time>2026-04-11T10:17:30Z</time></trkpt><trkpt lat="43.279275989108726" lon="12.782921159490332"><ele>1010.6666666666667</ele><time>2026-04-11T10:17:31Z</time></trkpt><trkpt lat="43.27924679980602" lon="12.783021503646639"><ele>1010.3333333333334</ele><time>2026-04-11T10:17:32Z</time></trkpt><trkpt lat="43.27923539157656" lon="12.783194367167482"><ele>1010.0</ele><time>2026-04-11T10:17:34Z</time></trkpt><trkpt lat="43.27927120347978" lon="12.783267666340036"><ele>1010.0</ele><time>2026-04-11T10:17:35Z</time></trkpt><trkpt lat="43.279375005716716" lon="12.7833856950367"><ele>1010.0</ele><time>2026-04-11T10:17:37Z</time></trkpt><trkpt lat="43.27944047612437" lon="12.783450011251945"><ele>1010.0</ele><time>2026-04-11T10:17:38Z</time></trkpt><trkpt lat="43.27950217107894" lon="12.783514287014793"><ele>1010.0</ele><time>2026-04-11T10:17:39Z</time></trkpt><trkpt lat="43.279551087024096" lon="12.78360216181038"><ele>1010.0</ele><time>2026-04-11T10:17:40Z</time></trkpt><trkpt lat="43.2796115037473" lon="12.78367889201166"><ele>1013.6</ele><time>2026-04-11T10:17:41Z</time></trkpt><trkpt lat="43.27967455645665" lon="12.78375845147426"><ele>1017.2</ele><time>2026-04-11T10:17:42Z</time></trkpt><trkpt lat="43.2797372448182" lon="12.78383755125788"><ele>1020.8</ele><time>2026-04-11T10:17:43Z</time></trkpt><trkpt lat="43.27980771927639" lon="12.783926200543313"><ele>1024.4</ele><time>2026-04-11T10:17:44Z</time></trkpt><trkpt lat="43.2798867658203" lon="12.784023836939356"><ele>1028.0</ele><time>2026-04-11T10:17:45Z</time></trkpt><trkpt lat="43.27996604502111" lon="12.784120822189694"><ele>1028.0</ele><time>2026-04-11T10:17:46Z</time></trkpt><trkpt lat="43.28004096298811" lon="12.784211442346761"><ele>1028.0</ele><time>2026-04-11T10:17:47Z</time></trkpt><trkpt lat="43.28011785907379" lon="12.78430308946135"><ele>1028.0</ele><time>2026-04-11T10:17:48Z</time></trkpt><trkpt lat="43.28019792128765" lon="12.784397981080083"><ele>1028.0</ele><time>2026-04-11T10:17:49Z</time></trkpt><trkpt lat="43.28027664578872" lon="12.784489043595826"><ele>1028.0</ele><time>2026-04-11T10:17:50Z</time></trkpt><trkpt lat="43.28036141215279" lon="12.784586662759635"><ele>1028.6</ele><time>2026-04-11T10:17:51Z</time></trkpt><trkpt lat="43.28044699487064" lon="12.784683436378804"><ele>1029.1999999999998</ele><time>2026-04-11T10:17:52Z</time></trkpt><trkpt lat="43.28053298480732" lon="12.78478043350352"><ele>1029.8</ele><time>2026-04-11T10:17:53Z</time></trkpt><trkpt lat="43.28061842193407" lon="12.78487525869717"><ele>1030.3999999999999</ele><time>2026-04-11T10:17:54Z</time></trkpt><trkpt lat="43.280703943215286" lon="12.784967202067063"><ele>1031.0</ele><time>2026-04-11T10:17:55Z</time></trkpt><trkpt lat="43.280795530740996" lon="12.785060189683612"><ele>1031.0</ele><time>2026-04-11T10:17:56Z</time></trkpt><trkpt lat="43.280887873096304" lon="12.785148543154708"><ele>1031.0</ele><time>2026-04-11T10:17:57Z</time></trkpt><trkpt lat="43.28098491127632" lon="12.785234925815356"><ele>1031.0</ele><time>2026-04-11T10:17:58Z</time></trkpt><trkpt lat="43.28108813264648" lon="12.7853260244351"><ele>1031.0</ele><time>2026-04-11T10:17:59Z</time></trkpt><trkpt lat="43.28118728713987" lon="12.785413533849205"><ele>1030.3999999999999</ele><time>2026-04-11T10:18:00Z</time></trkpt><trkpt lat="43.28128115322956" lon="12.785496375880832"><ele>1029.8</ele><time>2026-04-11T10:18:01Z</time></trkpt><trkpt lat="43.28137155287244" lon="12.785577074251362"><ele>1029.1999999999998</ele><time>2026-04-11T10:18:02Z</time></trkpt><trkpt lat="43.28146106156987" lon="12.785657059408774"><ele>1028.6</ele><time>2026-04-11T10:18:03Z</time></trkpt><trkpt lat="43.28154419860195" lon="12.785731793489392"><ele>1028.0</ele><time>2026-04-11T10:18:04Z</time></trkpt><trkpt lat="43.28162539106232" lon="12.785804833028013"><ele>1028.0</ele><time>2026-04-11T10:18:05Z</time></trkpt><trkpt lat="43.28170477911983" lon="12.785876249358834"><ele>1028.0</ele><time>2026-04-11T10:18:06Z</time></trkpt><trkpt lat="43.2817851295882" lon="12.78594853141813"><ele>1028.0</ele><time>2026-04-11T10:18:07Z</time></trkpt><trkpt lat="43.281861652055774" lon="12.786016238936881"><ele>1028.0</ele><time>2026-04-11T10:18:08Z</time></trkpt><trkpt lat="43.281932803329966" lon="12.78607773167123"><ele>1028.0</ele><time>2026-04-11T10:18:09Z</time></trkpt><trkpt lat="43.281999053596756" lon="12.786134988763466"><ele>1028.0</ele><time>2026-04-11T10:18:10Z</time></trkpt><trkpt lat="43.28206397888097" lon="12.786191100705883"><ele>1026.5</ele><time>2026-04-11T10:18:11Z</time></trkpt><trkpt lat="43.28213854996256" lon="12.786252681156979"><ele>1025.0</ele><time>2026-04-11T10:18:12Z</time></trkpt><trkpt lat="43.282222617303084" lon="12.786322091522084"><ele>1023.5</ele><time>2026-04-11T10:18:13Z</time></trkpt><trkpt lat="43.282304820050975" lon="12.78638508146891"><ele>1022.0</ele><time>2026-04-11T10:18:14Z</time></trkpt><trkpt lat="43.28237793198509" lon="12.786436396076788"><ele>1020.5000000000001</ele><time>2026-04-11T10:18:15Z</time></trkpt><trkpt lat="43.28244977225374" lon="12.786489341932798"><ele>1019.0</ele><time>2026-04-11T10:18:16Z</time></trkpt><trkpt lat="43.282507167468005" lon="12.786544204183318"><ele>1019.0000000000001</ele><time>2026-04-11T10:18:17Z</time></trkpt><trkpt lat="43.28255888631696" lon="12.786599025815931"><ele>1019.0</ele><time>2026-04-11T10:18:18Z</time></trkpt><trkpt lat="43.28260722842669" lon="12.786654781175436"><ele>1019.0000000000001</ele><time>2026-04-11T10:18:19Z</time></trkpt><trkpt lat="43.2826590189953" lon="12.786717554231156"><ele>1019.0000000000001</ele><time>2026-04-11T10:18:20Z</time></trkpt><trkpt lat="43.28271520358966" lon="12.786785653061523"><ele>1019.0</ele><time>2026-04-11T10:18:21Z</time></trkpt><trkpt lat="43.282773258195924" lon="12.786852985903327"><ele>1019.0000000000001</ele><time>2026-04-11T10:18:22Z</time></trkpt><trkpt lat="43.282829877464046" lon="12.78691662062063"><ele>1019.0000000000001</ele><time>2026-04-11T10:18:23Z</time></trkpt><trkpt lat="43.28288478838026" lon="12.786979398665247"><ele>1016.0000000000001</ele><time>2026-04-11T10:18:24Z</time></trkpt><trkpt lat="43.28294598132746" lon="12.787088768247008"><ele>1013.0</ele><time>2026-04-11T10:18:26Z</time></trkpt><trkpt lat="43.282936702959674" lon="12.78718441686853"><ele>1010.0</ele><time>2026-04-11T10:18:29Z</time></trkpt><trkpt lat="43.2829204476827" lon="12.78727213152857"><ele>1007.0</ele><time>2026-04-11T10:18:30Z</time></trkpt><trkpt lat="43.28289159709282" lon="12.787370796827705"><ele>1004.0000000000001</ele><time>2026-04-11T10:18:31Z</time></trkpt><trkpt lat="43.282854782033716" lon="12.787500124208696"><ele>1001.0</ele><time>2026-04-11T10:18:32Z</time></trkpt><trkpt lat="43.28281966894269" lon="12.787651493161633"><ele>999.1999999999999</ele><time>2026-04-11T10:18:33Z</time></trkpt><trkpt lat="43.28279235544106" lon="12.787784349905618"><ele>997.3999999999999</ele><time>2026-04-11T10:18:34Z</time></trkpt><trkpt lat="43.28276459951299" lon="12.787921700220375"><ele>995.6</ele><time>2026-04-11T10:18:35Z</time></trkpt><trkpt lat="43.282736191587546" lon="12.788062277017133"><ele>993.8</ele><time>2026-04-11T10:18:36Z</time></trkpt><trkpt lat="43.282706888004796" lon="12.78820397203373"><ele>992.0</ele><time>2026-04-11T10:18:37Z</time></trkpt><trkpt lat="43.282677221400306" lon="12.788346961567715"><ele>992.0000000000001</ele><time>2026-04-11T10:18:38Z</time></trkpt><trkpt lat="43.282651619336896" lon="12.788478126310496"><ele>992.0</ele><time>2026-04-11T10:18:39Z</time></trkpt><trkpt lat="43.28262729278027" lon="12.78859459582204"><ele>992.0</ele><time>2026-04-11T10:18:40Z</time></trkpt><trkpt lat="43.28260145061599" lon="12.78869807041257"><ele>992.0</ele><time>2026-04-11T10:18:41Z</time></trkpt><trkpt lat="43.28257053257998" lon="12.788798891071663"><ele>992.0000000000001</ele><time>2026-04-11T10:18:42Z</time></trkpt><trkpt lat="43.282535374633625" lon="12.788887039069424"><ele>992.0</ele><time>2026-04-11T10:18:43Z</time></trkpt><trkpt lat="43.28249561045049" lon="12.788974765916766"><ele>992.0</ele><time>2026-04-11T10:18:44Z</time></trkpt><trkpt lat="43.282449194143254" lon="12.789044805905792"><ele>992.0</ele><time>2026-04-11T10:18:45Z</time></trkpt><trkpt lat="43.28241036196909" lon="12.789125343506752"><ele>992.0</ele><time>2026-04-11T10:18:46Z</time></trkpt><trkpt lat="43.28250119576729" lon="12.789378127984559"><ele>992.0</ele><time>2026-04-11T10:18:48Z</time></trkpt><trkpt lat="43.28255833781953" lon="12.789464738276417"><ele>992.0</ele><time>2026-04-11T10:18:49Z</time></trkpt><trkpt lat="43.28261622752137" lon="12.789555116403456"><ele>992.0</ele><time>2026-04-11T10:18:50Z</time></trkpt><trkpt lat="43.28267656588179" lon="12.789649654945913"><ele>992.0</ele><time>2026-04-11T10:18:51Z</time></trkpt><trkpt lat="43.28273714158023" lon="12.78975130271059"><ele>992.0</ele><time>2026-04-11T10:18:52Z</time></trkpt><trkpt lat="43.282804022448055" lon="12.789851298572058"><ele>992.0</ele><time>2026-04-11T10:18:53Z</time></trkpt><trkpt lat="43.28287130790194" lon="12.789958010828421"><ele>992.0</ele><time>2026-04-11T10:18:54Z</time></trkpt><trkpt lat="43.28293608970242" lon="12.790064489661935"><ele>992.0000000000001</ele><time>2026-04-11T10:18:55Z</time></trkpt><trkpt lat="43.28299611927526" lon="12.790167367525585"><ele>992.0</ele><time>2026-04-11T10:18:56Z</time></trkpt><trkpt lat="43.283053413279184" lon="12.790263092430168"><ele>992.0</ele><time>2026-04-11T10:18:57Z</time></trkpt><trkpt lat="43.28310976492233" lon="12.790348973523482"><ele>992.0</ele><time>2026-04-11T10:18:58Z</time></trkpt><trkpt lat="43.283159817518744" lon="12.790437699141059"><ele>992.0000000000001</ele><time>2026-04-11T10:18:59Z</time></trkpt><trkpt lat="43.283207431532624" lon="12.790526611052552"><ele>992.0</ele><time>2026-04-11T10:19:00Z</time></trkpt><trkpt lat="43.28325317247721" lon="12.790615501905785"><ele>989.0000000000001</ele><time>2026-04-11T10:19:01Z</time></trkpt><trkpt lat="43.283290664087176" lon="12.790694133765633"><ele>986.0</ele><time>2026-04-11T10:19:02Z</time></trkpt><trkpt lat="43.28333608137883" lon="12.790826386530123"><ele>983.0</ele><time>2026-04-11T10:19:04Z</time></trkpt><trkpt lat="43.28335288245885" lon="12.790926962513812"><ele>980.0</ele><time>2026-04-11T10:19:06Z</time></trkpt><trkpt lat="43.283363819190114" lon="12.791022998201628"><ele>977.0000000000001</ele><time>2026-04-11T10:19:09Z</time></trkpt><trkpt lat="43.28332907554454" lon="12.791110175255426"><ele>974.0</ele><time>2026-04-11T10:19:14Z</time></trkpt><trkpt lat="43.28328135949787" lon="12.791177084808531"><ele>973.2</ele><time>2026-04-11T10:19:24Z</time></trkpt><trkpt lat="43.28324709496165" lon="12.791276789791615"><ele>972.4000000000001</ele><time>2026-04-11T10:19:59Z</time></trkpt><trkpt lat="43.2832383395834" lon="12.791411105102368"><ele>971.6</ele><time>2026-04-11T10:20:01Z</time></trkpt><trkpt lat="43.28323384049219" lon="12.7915676794306"><ele>970.8</ele><time>2026-04-11T10:20:03Z</time></trkpt><trkpt lat="43.28322321399643" lon="12.79170147222079"><ele>970.0</ele><time>2026-04-11T10:20:05Z</time></trkpt><trkpt lat="43.28321779815657" lon="12.791810879730876"><ele>968.2</ele><time>2026-04-11T10:20:07Z</time></trkpt><trkpt lat="43.28320531290354" lon="12.79193327643102"><ele>966.4</ele><time>2026-04-11T10:20:09.999Z</time></trkpt><trkpt lat="43.28312124805046" lon="12.79198095620031"><ele>964.5999999999999</ele><time>2026-04-11T10:20:11.999Z</time></trkpt><trkpt lat="43.28299010481082" lon="12.792000505387064"><ele>962.8</ele><time>2026-04-11T10:20:13.999Z</time></trkpt><trkpt lat="43.28291329949065" lon="12.792000598291132"><ele>961.0</ele><time>2026-04-11T10:20:14.999Z</time></trkpt><trkpt lat="43.28284073560955" lon="12.791991922291922"><ele>960.9999999999999</ele><time>2026-04-11T10:20:15.999Z</time></trkpt><trkpt lat="43.28276937339138" lon="12.791988863286242"><ele>961.0</ele><time>2026-04-11T10:20:16.999Z</time></trkpt><trkpt lat="43.282696616835935" lon="12.791989109438957"><ele>961.0</ele><time>2026-04-11T10:20:17.999Z</time></trkpt><trkpt lat="43.282623599839596" lon="12.791977425592837"><ele>961.0</ele><time>2026-04-11T10:20:18.999Z</time></trkpt><trkpt lat="43.28254905252888" lon="12.79196158131251"><ele>960.9999999999999</ele><time>2026-04-11T10:20:19.999Z</time></trkpt><trkpt lat="43.28247104785484" lon="12.791952339468349"><ele>961.0</ele><time>2026-04-11T10:20:20.999Z</time></trkpt><trkpt lat="43.282388753873526" lon="12.791942306747293"><ele>960.9999999999999</ele><time>2026-04-11T10:20:21.999Z</time></trkpt><trkpt lat="43.28230623568536" lon="12.791937164285258"><ele>961.0</ele><time>2026-04-11T10:20:22.999Z</time></trkpt><trkpt lat="43.2822249136996" lon="12.791935354221156"><ele>961.0</ele><time>2026-04-11T10:20:23.999Z</time></trkpt><trkpt lat="43.28214721889166" lon="12.791953361010936"><ele>961.0</ele><time>2026-04-11T10:20:24.999Z</time></trkpt><trkpt lat="43.282068507212884" lon="12.791970970890839"><ele>960.9999999999999</ele><time>2026-04-11T10:20:25.999Z</time></trkpt><trkpt lat="43.28198890601408" lon="12.792000566028596"><ele>961.0</ele><time>2026-04-11T10:20:26.999Z</time></trkpt><trkpt lat="43.281914482255246" lon="12.792039440638705"><ele>961.9999999999999</ele><time>2026-04-11T10:20:27.999Z</time></trkpt><trkpt lat="43.28184646561721" lon="12.792083540996458"><ele>963.0</ele><time>2026-04-11T10:20:28.999Z</time></trkpt><trkpt lat="43.28178748609929" lon="12.792122447306014"><ele>964.0</ele><time>2026-04-11T10:20:29.999Z</time></trkpt><trkpt lat="43.28170889156314" lon="12.792187971397208"><ele>965.0</ele><time>2026-04-11T10:20:31.999Z</time></trkpt><trkpt lat="43.2816591859953" lon="12.792241859080999"><ele>965.9999999999999</ele><time>2026-04-11T10:20:35.999Z</time></trkpt><trkpt lat="43.281602523136904" lon="12.792290943624417"><ele>967.0</ele><time>2026-04-11T10:21:23.999Z</time></trkpt><trkpt lat="43.281588248311586" lon="12.792445368322133"><ele>967.0</ele><time>2026-04-11T10:21:26.999Z</time></trkpt><trkpt lat="43.281584858114435" lon="12.79260729708669"><ele>967.0</ele><time>2026-04-11T10:21:28.999Z</time></trkpt><trkpt lat="43.28158714376374" lon="12.792693913714832"><ele>967.0</ele><time>2026-04-11T10:21:29.999Z</time></trkpt><trkpt lat="43.28158958294792" lon="12.792783432183072"><ele>967.0</ele><time>2026-04-11T10:21:30.999Z</time></trkpt><trkpt lat="43.281589441519" lon="12.79287827311686"><ele>967.0</ele><time>2026-04-11T10:21:31.999Z</time></trkpt><trkpt lat="43.281590485023166" lon="12.792968716590071"><ele>967.0</ele><time>2026-04-11T10:21:32.999Z</time></trkpt><trkpt lat="43.281592762908616" lon="12.793061346128638"><ele>967.0</ele><time>2026-04-11T10:21:33.999Z</time></trkpt><trkpt lat="43.28160007959958" lon="12.79316598853786"><ele>967.0</ele><time>2026-04-11T10:21:34.999Z</time></trkpt><trkpt lat="43.28161043262604" lon="12.793271895452769"><ele>967.0</ele><time>2026-04-11T10:21:35.999Z</time></trkpt><trkpt lat="43.28162242670463" lon="12.793372046598712"><ele>967.0</ele><time>2026-04-11T10:21:36.999Z</time></trkpt><trkpt lat="43.281637118384815" lon="12.793459532113532"><ele>967.0</ele><time>2026-04-11T10:21:37.999Z</time></trkpt><trkpt lat="43.28164596740477" lon="12.793548598165788"><ele>967.0</ele><time>2026-04-11T10:21:38.999Z</time></trkpt><trkpt lat="43.28164890596087" lon="12.793674044286197"><ele>967.0</ele><time>2026-04-11T10:21:40.999Z</time></trkpt><trkpt lat="43.28165047208401" lon="12.793763719865373"><ele>967.0</ele><time>2026-04-11T10:21:41.999Z</time></trkpt><trkpt lat="43.281652594541825" lon="12.793870672567897"><ele>966.9999999999999</ele><time>2026-04-11T10:21:42.999Z</time></trkpt><trkpt lat="43.28163825499867" lon="12.793974050426892"><ele>967.0</ele><time>2026-04-11T10:21:43.999Z</time></trkpt><trkpt lat="43.28164148689308" lon="12.794081442132276"><ele>967.0</ele><time>2026-04-11T10:21:44.999Z</time></trkpt><trkpt lat="43.28165059484411" lon="12.794180292650019"><ele>967.0</ele><time>2026-04-11T10:21:45.999Z</time></trkpt><trkpt lat="43.28167029558851" lon="12.794271343436316"><ele>966.9999999999999</ele><time>2026-04-11T10:21:46.999Z</time></trkpt><trkpt lat="43.28168637683789" lon="12.794358511112152"><ele>967.0</ele><time>2026-04-11T10:21:47.999Z</time></trkpt><trkpt lat="43.28170564715221" lon="12.794522483850871"><ele>966.9999999999999</ele><time>2026-04-11T10:21:49.999Z</time></trkpt><trkpt lat="43.28171607916268" lon="12.794693385999672"><ele>967.0</ele><time>2026-04-11T10:21:51.999Z</time></trkpt><trkpt lat="43.28172400780668" lon="12.794791318451022"><ele>967.0</ele><time>2026-04-11T10:21:52.999Z</time></trkpt><trkpt lat="43.281738166561354" lon="12.794899004738872"><ele>967.0</ele><time>2026-04-11T10:21:53.999Z</time></trkpt><trkpt lat="43.281760403434006" lon="12.795013201328926"><ele>966.9999999999999</ele><time>2026-04-11T10:21:54.999Z</time></trkpt><trkpt lat="43.281774672928634" lon="12.795125613434488"><ele>967.0</ele><time>2026-04-11T10:21:55.999Z</time></trkpt><trkpt lat="43.28178432077488" lon="12.795224835226005"><ele>967.1428571428571</ele><time>2026-04-11T10:21:56.999Z</time></trkpt><trkpt lat="43.281793534263194" lon="12.79531234813654"><ele>967.2857142857142</ele><time>2026-04-11T10:21:57.999Z</time></trkpt><trkpt lat="43.281804619707955" lon="12.795399094361818"><ele>967.4285714285713</ele><time>2026-04-11T10:21:58.999Z</time></trkpt><trkpt lat="43.281807064344285" lon="12.79548918949115"><ele>967.5714285714286</ele><time>2026-04-11T10:21:59.999Z</time></trkpt><trkpt lat="43.281813050390774" lon="12.795587435845514"><ele>967.7142857142856</ele><time>2026-04-11T10:22:00.999Z</time></trkpt><trkpt lat="43.28181494862835" lon="12.795700107859481"><ele>967.8571428571428</ele><time>2026-04-11T10:22:01.999Z</time></trkpt><trkpt lat="43.2818118852589" lon="12.795820991117843"><ele>968.0</ele><time>2026-04-11T10:22:02.999Z</time></trkpt><trkpt lat="43.28180206377383" lon="12.7959426828857"><ele>968.0000000000001</ele><time>2026-04-11T10:22:03.999Z</time></trkpt><trkpt lat="43.28179452744962" lon="12.796062654053413"><ele>968.0</ele><time>2026-04-11T10:22:04.999Z</time></trkpt><trkpt lat="43.28179619101918" lon="12.796169350074843"><ele>968.0</ele><time>2026-04-11T10:22:05.999Z</time></trkpt><trkpt lat="43.28179573928746" lon="12.796316889210923"><ele>968.0</ele><time>2026-04-11T10:22:07.999Z</time></trkpt><trkpt lat="43.2817974737717" lon="12.796410082942646"><ele>968.0000000000001</ele><time>2026-04-11T10:22:10.999Z</time></trkpt><trkpt lat="43.28181563159913" lon="12.796496013269014"><ele>968.0</ele><time>2026-04-11T10:22:21.999Z</time></trkpt><trkpt lat="43.281764509809555" lon="12.796566501779575"><ele>968.0</ele><time>2026-04-11T10:22:27.999Z</time></trkpt><trkpt lat="43.281763520010635" lon="12.796679964424074"><ele>968.0</ele><time>2026-04-11T10:22:34.999Z</time></trkpt><trkpt lat="43.28175524083297" lon="12.796813452903372"><ele>968.0</ele><time>2026-04-11T10:22:36.999Z</time></trkpt><trkpt lat="43.28173232998776" lon="12.79697892686247"><ele>968.0</ele><time>2026-04-11T10:22:38.999Z</time></trkpt><trkpt lat="43.281717465446526" lon="12.797107770921674"><ele>968.0</ele><time>2026-04-11T10:22:40.999Z</time></trkpt><trkpt lat="43.28173329474896" lon="12.797271699067036"><ele>967.8333333333334</ele><time>2026-04-11T10:22:42.999Z</time></trkpt><trkpt lat="43.281717756786264" lon="12.797441733637154"><ele>967.6666666666667</ele><time>2026-04-11T10:22:44.999Z</time></trkpt><trkpt lat="43.28171615214069" lon="12.797542182730547"><ele>967.5</ele><time>2026-04-11T10:22:45.999Z</time></trkpt><trkpt lat="43.281720634170924" lon="12.797653968565049"><ele>967.3333333333333</ele><time>2026-04-11T10:22:46.999Z</time></trkpt><trkpt lat="43.281715534219714" lon="12.797752116304052"><ele>967.1666666666666</ele><time>2026-04-11T10:22:47.999Z</time></trkpt><trkpt lat="43.2817121548476" lon="12.797850667123132"><ele>967.0</ele><time>2026-04-11T10:22:48.999Z</time></trkpt><trkpt lat="43.28171364932891" lon="12.797945155687986"><ele>966.2</ele><time>2026-04-11T10:22:49.999Z</time></trkpt><trkpt lat="43.281707195391085" lon="12.7980343789483"><ele>965.4000000000001</ele><time>2026-04-11T10:22:50.999Z</time></trkpt><trkpt lat="43.28168906794685" lon="12.798197470850488"><ele>964.5999999999999</ele><time>2026-04-11T10:22:52.999Z</time></trkpt><trkpt lat="43.28166596601149" lon="12.798376775111402"><ele>963.8</ele><time>2026-04-11T10:22:54.999Z</time></trkpt><trkpt lat="43.28164247655749" lon="12.798466789034244"><ele>963.0</ele><time>2026-04-11T10:22:55.999Z</time></trkpt><trkpt lat="43.2816192324449" lon="12.798555979109237"><ele>961.0</ele><time>2026-04-11T10:22:56.999Z</time></trkpt><trkpt lat="43.28159805708011" lon="12.798638624788893"><ele>959.0</ele><time>2026-04-11T10:22:57.999Z</time></trkpt><trkpt lat="43.28153182279426" lon="12.798762698742287"><ele>957.0</ele><time>2026-04-11T10:22:59.999Z</time></trkpt><trkpt lat="43.28148100701052" lon="12.798875193304108"><ele>955.0</ele><time>2026-04-11T10:23:01.999Z</time></trkpt><trkpt lat="43.281427317131346" lon="12.79897661632793"><ele>953.0</ele><time>2026-04-11T10:23:03.999Z</time></trkpt><trkpt lat="43.28138124111457" lon="12.799054372342853"><ele>951.0</ele><time>2026-04-11T10:23:05.999Z</time></trkpt><trkpt lat="43.28134578057387" lon="12.799149475013824"><ele>954.0</ele><time>2026-04-11T10:23:07.999Z</time></trkpt><trkpt lat="43.28130544475964" lon="12.799219314081551"><ele>957.0</ele><time>2026-04-11T10:23:08.999Z</time></trkpt><trkpt lat="43.28125562248292" lon="12.799275066091731"><ele>960.0</ele><time>2026-04-11T10:23:09.999Z</time></trkpt><trkpt lat="43.28120781061449" lon="12.799336275517712"><ele>963.0</ele><time>2026-04-11T10:23:10.999Z</time></trkpt><trkpt lat="43.28114558801297" lon="12.7994061164052"><ele>966.0</ele><time>2026-04-11T10:23:11.999Z</time></trkpt><trkpt lat="43.28106980136382" lon="12.799493240775556"><ele>969.0</ele><time>2026-04-11T10:23:12.999Z</time></trkpt><trkpt lat="43.28099754371079" lon="12.79958615789976"><ele>969.0</ele><time>2026-04-11T10:23:13.999Z</time></trkpt><trkpt lat="43.280915111199434" lon="12.799659523111035"><ele>969.0000000000001</ele><time>2026-04-11T10:23:14.999Z</time></trkpt><trkpt lat="43.28082609651029" lon="12.799737994251645"><ele>969.0000000000001</ele><time>2026-04-11T10:23:15.999Z</time></trkpt><trkpt lat="43.28074204549155" lon="12.799807387728466"><ele>969.0</ele><time>2026-04-11T10:23:16.999Z</time></trkpt><trkpt lat="43.28064951527818" lon="12.799873067230422"><ele>969.0</ele><time>2026-04-11T10:23:17.999Z</time></trkpt><trkpt lat="43.280564711422656" lon="12.799937072538736"><ele>972.1666666666666</ele><time>2026-04-11T10:23:18.999Z</time></trkpt><trkpt lat="43.28048380821476" lon="12.800020435576391"><ele>975.3333333333333</ele><time>2026-04-11T10:23:19.999Z</time></trkpt><trkpt lat="43.28041494339405" lon="12.800117592054075"><ele>978.5</ele><time>2026-04-11T10:23:20.999Z</time></trkpt><trkpt lat="43.28034490449082" lon="12.800200681605707"><ele>981.6666666666666</ele><time>2026-04-11T10:23:21.999Z</time></trkpt><trkpt lat="43.28028502763964" lon="12.800267098282655"><ele>984.8333333333333</ele><time>2026-04-11T10:23:22.999Z</time></trkpt><trkpt lat="43.28023841865456" lon="12.800336953480548"><ele>988.0</ele><time>2026-04-11T10:23:23.999Z</time></trkpt><trkpt lat="43.280147258258765" lon="12.800411563080104"><ele>987.9999999999999</ele><time>2026-04-11T10:23:25.999Z</time></trkpt><trkpt lat="43.28005077034081" lon="12.80050656659166"><ele>988.0</ele><time>2026-04-11T10:23:27.999Z</time></trkpt><trkpt lat="43.28000031921116" lon="12.800573237984064"><ele>988.0</ele><time>2026-04-11T10:23:28.999Z</time></trkpt><trkpt lat="43.27995360475193" lon="12.800656596452615"><ele>988.0</ele><time>2026-04-11T10:23:29.999Z</time></trkpt><trkpt lat="43.27990153018602" lon="12.800733694145778"><ele>987.9999999999999</ele><time>2026-04-11T10:23:30.999Z</time></trkpt><trkpt lat="43.27985233293024" lon="12.800863709660522"><ele>988.0</ele><time>2026-04-11T10:23:32.999Z</time></trkpt><trkpt lat="43.27978900674836" lon="12.800988010956052"><ele>993.0</ele><time>2026-04-11T10:23:34.999Z</time></trkpt><trkpt lat="43.27974504950937" lon="12.801132183431607"><ele>998.0</ele><time>2026-04-11T10:23:36.999Z</time></trkpt><trkpt lat="43.279706969565574" lon="12.801267544369242"><ele>1003.0</ele><time>2026-04-11T10:23:38.999Z</time></trkpt><trkpt lat="43.27968255213919" lon="12.801369302537049"><ele>1008.0</ele><time>2026-04-11T10:23:40.999Z</time></trkpt><trkpt lat="43.279635225316255" lon="12.801427099815603"><ele>1013.0</ele><time>2026-04-11T10:23:41.999Z</time></trkpt><trkpt lat="43.27951029485568" lon="12.801527678244208"><ele>1013.0</ele><time>2026-04-11T10:23:43.999Z</time></trkpt><trkpt lat="43.279419853963994" lon="12.801607713109913"><ele>1013.0</ele><time>2026-04-11T10:23:44.999Z</time></trkpt><trkpt lat="43.279333279203186" lon="12.8016928013834"><ele>1013.0</ele><time>2026-04-11T10:23:45.999Z</time></trkpt><trkpt lat="43.27925982401066" lon="12.801809328344172"><ele>1013.0</ele><time>2026-04-11T10:23:46.999Z</time></trkpt><trkpt lat="43.27917432405017" lon="12.801953761394445"><ele>1010.5999999999999</ele><time>2026-04-11T10:23:47.999Z</time></trkpt><trkpt lat="43.27910291447708" lon="12.802102154768107"><ele>1008.1999999999999</ele><time>2026-04-11T10:23:48.999Z</time></trkpt><trkpt lat="43.2790592289036" lon="12.802230092114774"><ele>1005.8</ele><time>2026-04-11T10:23:49.999Z</time></trkpt><trkpt lat="43.27902490226923" lon="12.802339224438866"><ele>1003.4</ele><time>2026-04-11T10:23:50.999Z</time></trkpt><trkpt lat="43.27898527235658" lon="12.80243363472744"><ele>1001.0</ele><time>2026-04-11T10:23:51.999Z</time></trkpt><trkpt lat="43.27893226761461" lon="12.802532523594785"><ele>1004.8</ele><time>2026-04-11T10:23:52.999Z</time></trkpt><trkpt lat="43.27890201500184" lon="12.802620222938732"><ele>1008.5999999999999</ele><time>2026-04-11T10:23:53.999Z</time></trkpt><trkpt lat="43.2788376830004" lon="12.802767682733275"><ele>1012.4</ele><time>2026-04-11T10:23:55.999Z</time></trkpt><trkpt lat="43.2787771651533" lon="12.802884742709967"><ele>1016.2</ele><time>2026-04-11T10:23:57.999Z</time></trkpt><trkpt lat="43.278686926445694" lon="12.802980711333191"><ele>1020.0</ele><time>2026-04-11T10:23:59.999Z</time></trkpt><trkpt lat="43.27862413078731" lon="12.803020478419"><ele>1020.0</ele><time>2026-04-11T10:24:00.999Z</time></trkpt><trkpt lat="43.27856534415458" lon="12.803071147285873"><ele>1020.0</ele><time>2026-04-11T10:24:01.999Z</time></trkpt><trkpt lat="43.27849920344939" lon="12.803185052049077"><ele>1020.0</ele><time>2026-04-11T10:24:03.999Z</time></trkpt><trkpt lat="43.278488360311925" lon="12.803305110840393"><ele>1020.0</ele><time>2026-04-11T10:24:05.999Z</time></trkpt><trkpt lat="43.27846739606078" lon="12.803390370318937"><ele>1020.0</ele><time>2026-04-11T10:24:06.999Z</time></trkpt><trkpt lat="43.278454485774674" lon="12.803543383564627"><ele>1020.0</ele><time>2026-04-11T10:24:08.999Z</time></trkpt><trkpt lat="43.27845045617523" lon="12.80366708308554"><ele>1019.0</ele><time>2026-04-11T10:24:11.999Z</time></trkpt><trkpt lat="43.278435257686446" lon="12.803781363256263"><ele>1018.0</ele><time>2026-04-11T10:24:13.999Z</time></trkpt><trkpt lat="43.27841006818079" lon="12.80394666525715"><ele>1017.0</ele><time>2026-04-11T10:24:15.999Z</time></trkpt><trkpt lat="43.27839849561429" lon="12.804113564132509"><ele>1016.0</ele><time>2026-04-11T10:24:17.999Z</time></trkpt><trkpt lat="43.27838241098726" lon="12.804204513436364"><ele>1015.0</ele><time>2026-04-11T10:24:18.999Z</time></trkpt><trkpt lat="43.278345315204774" lon="12.804349586712613"><ele>1012.9999999999999</ele><time>2026-04-11T10:24:20.999Z</time></trkpt><trkpt lat="43.278282025025106" lon="12.804435259967878"><ele>1011.0</ele><time>2026-04-11T10:24:23.999Z</time></trkpt><trkpt lat="43.27822956705973" lon="12.80451355263713"><ele>1009.0</ele><time>2026-04-11T10:24:27.999Z</time></trkpt><trkpt lat="43.27819963750205" lon="12.804600316787294"><ele>1007.0</ele><time>2026-04-11T10:24:30.999Z</time></trkpt><trkpt lat="43.2781638831693" lon="12.804680277353143"><ele>1004.9999999999999</ele><time>2026-04-11T10:24:32.999Z</time></trkpt><trkpt lat="43.27811682608773" lon="12.804787900674864"><ele>1003.0</ele><time>2026-04-11T10:24:34.999Z</time></trkpt><trkpt lat="43.278075584168924" lon="12.80490985672929"><ele>1008.75</ele><time>2026-04-11T10:24:36.999Z</time></trkpt><trkpt lat="43.27801993537797" lon="12.805058463977243"><ele>1014.5</ele><time>2026-04-11T10:24:38.999Z</time></trkpt><trkpt lat="43.277972617893184" lon="12.805204946905125"><ele>1020.25</ele><time>2026-04-11T10:24:40.999Z</time></trkpt><trkpt lat="43.277937207584266" lon="12.805365829605172"><ele>1026.0</ele><time>2026-04-11T10:24:42.999Z</time></trkpt><trkpt lat="43.2778907712033" lon="12.805479521578757"><ele>1026.0</ele><time>2026-04-11T10:24:44.999Z</time></trkpt><trkpt lat="43.277857607447224" lon="12.805599318870092"><ele>1026.0</ele><time>2026-04-11T10:24:46.999Z</time></trkpt><trkpt lat="43.27782908286392" lon="12.805735342576726"><ele>1026.0</ele><time>2026-04-11T10:24:48.999Z</time></trkpt><trkpt lat="43.27780434459575" lon="12.805831641072162"><ele>1026.0</ele><time>2026-04-11T10:24:49.999Z</time></trkpt><trkpt lat="43.27777574664564" lon="12.805916884726265"><ele>1026.0</ele><time>2026-04-11T10:24:50.999Z</time></trkpt><trkpt lat="43.27773421863446" lon="12.805985086602487"><ele>1026.0</ele><time>2026-04-11T10:24:51.999Z</time></trkpt><trkpt lat="43.27769111594464" lon="12.806053010566151"><ele>1023.1666666666666</ele><time>2026-04-11T10:24:52.999Z</time></trkpt><trkpt lat="43.27761085848389" lon="12.806173474607496"><ele>1020.3333333333333</ele><time>2026-04-11T10:24:54.999Z</time></trkpt><trkpt lat="43.27756025503081" lon="12.806258792252372"><ele>1017.5</ele><time>2026-04-11T10:24:55.999Z</time></trkpt><trkpt lat="43.27751535510087" lon="12.80633671168398"><ele>1014.6666666666666</ele><time>2026-04-11T10:24:56.999Z</time></trkpt><trkpt lat="43.2774562080978" lon="12.806411050461112"><ele>1011.8333333333333</ele><time>2026-04-11T10:24:57.999Z</time></trkpt><trkpt lat="43.27740608817801" lon="12.806480747823556"><ele>1009.0</ele><time>2026-04-11T10:24:58.999Z</time></trkpt><trkpt lat="43.27735848748544" lon="12.806554239050788"><ele>1009.0</ele><time>2026-04-11T10:24:59.999Z</time></trkpt><trkpt lat="43.2773161276799" lon="12.806625726308507"><ele>1009.0000000000001</ele><time>2026-04-11T10:25:00.999Z</time></trkpt><trkpt lat="43.27722299618361" lon="12.80674538895372"><ele>1009.0000000000001</ele><time>2026-04-11T10:25:02.999Z</time></trkpt><trkpt lat="43.277138973942" lon="12.806833143059658"><ele>1009.0</ele><time>2026-04-11T10:25:04.999Z</time></trkpt><trkpt lat="43.27705896374795" lon="12.806917701576415"><ele>1009.0</ele><time>2026-04-11T10:25:06.999Z</time></trkpt><trkpt lat="43.27698237080633" lon="12.80702313944423"><ele>1014.8000000000001</ele><time>2026-04-11T10:25:08.999Z</time></trkpt><trkpt lat="43.27690624406118" lon="12.807119165237953"><ele>1020.6000000000001</ele><time>2026-04-11T10:25:10.999Z</time></trkpt><trkpt lat="43.27686093641261" lon="12.807215156592653"><ele>1026.4</ele><time>2026-04-11T10:25:12.999Z</time></trkpt><trkpt lat="43.27680826498374" lon="12.80734036372857"><ele>1032.2</ele><time>2026-04-11T10:25:14.999Z</time></trkpt><trkpt lat="43.27677729168956" lon="12.807427444355652"><ele>1038.0</ele><time>2026-04-11T10:25:15.999Z</time></trkpt><trkpt lat="43.276732250737474" lon="12.807549652380363"><ele>1038.0</ele><time>2026-04-11T10:25:17.999Z</time></trkpt><trkpt lat="43.27669820115568" lon="12.807641329151624"><ele>1038.0</ele><time>2026-04-11T10:25:19.999Z</time></trkpt><trkpt lat="43.276662598141755" lon="12.807730927894836"><ele>1038.0</ele><time>2026-04-11T10:25:21.999Z</time></trkpt><trkpt lat="43.27661758711251" lon="12.807799793504016"><ele>1038.0</ele><time>2026-04-11T10:25:26.999Z</time></trkpt><trkpt lat="43.276553286068285" lon="12.807830139112712"><ele>1038.0</ele><time>2026-04-11T10:25:35.999Z</time></trkpt><trkpt lat="43.276513845039275" lon="12.807905345870864"><ele>1038.0</ele><time>2026-04-11T10:25:39.999Z</time></trkpt><trkpt lat="43.27645168712264" lon="12.807921047427996"><ele>1038.0</ele><time>2026-04-11T10:25:50.999Z</time></trkpt><trkpt lat="43.27640290557907" lon="12.807984815716052"><ele>1045.4</ele><time>2026-04-11T10:25:57.999Z</time></trkpt><trkpt lat="43.276356562358444" lon="12.808048485577084"><ele>1052.8</ele><time>2026-04-11T10:26:05.999Z</time></trkpt><trkpt lat="43.27633410769792" lon="12.808245425813285"><ele>1060.2</ele><time>2026-04-11T10:26:44Z</time></trkpt><trkpt lat="43.276278196479744" lon="12.808331069728041"><ele>1067.6</ele><time>2026-04-11T10:26:46Z</time></trkpt><trkpt lat="43.27619081281373" lon="12.808381693743806"><ele>1075.0</ele><time>2026-04-11T10:26:48Z</time></trkpt><trkpt lat="43.2761374226263" lon="12.808461042395395"><ele>1072.5</ele><time>2026-04-11T10:26:50Z</time></trkpt><trkpt lat="43.27609176316186" lon="12.808525893531026"><ele>1070.0</ele><time>2026-04-11T10:26:52Z</time></trkpt><trkpt lat="43.276049124124135" lon="12.80859821534784"><ele>1067.5</ele><time>2026-04-11T10:26:54Z</time></trkpt><trkpt lat="43.275975051627604" lon="12.808691981233723"><ele>1065.0</ele><time>2026-04-11T10:26:56Z</time></trkpt><trkpt lat="43.275914851405545" lon="12.808810694310376"><ele>1062.5</ele><time>2026-04-11T10:26:58Z</time></trkpt><trkpt lat="43.27587006362971" lon="12.808920658717453"><ele>1060.0</ele><time>2026-04-11T10:27:00Z</time></trkpt><trkpt lat="43.275831596710695" lon="12.808997206534825"><ele>1060.0</ele><time>2026-04-11T10:27:02Z</time></trkpt><trkpt lat="43.2757775840561" lon="12.809082794482412"><ele>1060.0</ele><time>2026-04-11T10:27:05Z</time></trkpt><trkpt lat="43.275727531665936" lon="12.80914011317517"><ele>1060.0</ele><time>2026-04-11T10:27:07Z</time></trkpt><trkpt lat="43.275669680338545" lon="12.809228146151266"><ele>1060.0</ele><time>2026-04-11T10:27:09Z</time></trkpt><trkpt lat="43.275602490282715" lon="12.809338027296763"><ele>1060.0</ele><time>2026-04-11T10:27:11Z</time></trkpt><trkpt lat="43.27551822511244" lon="12.809451251319391"><ele>1064.4285714285713</ele><time>2026-04-11T10:27:13Z</time></trkpt><trkpt lat="43.275468152113454" lon="12.80951334337694"><ele>1068.857142857143</ele><time>2026-04-11T10:27:14Z</time></trkpt><trkpt lat="43.27541557590237" lon="12.809592895627702"><ele>1073.2857142857142</ele><time>2026-04-11T10:27:15Z</time></trkpt><trkpt lat="43.27536158876003" lon="12.809676877742275"><ele>1077.7142857142858</ele><time>2026-04-11T10:27:16Z</time></trkpt><trkpt lat="43.2753245303527" lon="12.80976828487866"><ele>1082.142857142857</ele><time>2026-04-11T10:27:17Z</time></trkpt><trkpt lat="43.27528182023419" lon="12.809842750787862"><ele>1086.5714285714284</ele><time>2026-04-11T10:27:18Z</time></trkpt><trkpt lat="43.275227600770776" lon="12.80990238741292"><ele>1091.0</ele><time>2026-04-11T10:27:19Z</time></trkpt><trkpt lat="43.27518005432999" lon="12.80997429135984"><ele>1091.0</ele><time>2026-04-11T10:27:20Z</time></trkpt><trkpt lat="43.27512275824328" lon="12.810038606179175"><ele>1091.0</ele><time>2026-04-11T10:27:21Z</time></trkpt><trkpt lat="43.275043136335434" lon="12.81009975684682"><ele>1091.0</ele><time>2026-04-11T10:27:22Z</time></trkpt><trkpt lat="43.27498135453254" lon="12.810161071904568"><ele>1091.0</ele><time>2026-04-11T10:27:23Z</time></trkpt><trkpt lat="43.27493195857072" lon="12.810234106235265"><ele>1091.0</ele><time>2026-04-11T10:27:24Z</time></trkpt><trkpt lat="43.27488070643967" lon="12.810309829095461"><ele>1091.0</ele><time>2026-04-11T10:27:25Z</time></trkpt><trkpt lat="43.27482522989184" lon="12.81037592526696"><ele>1094.0</ele><time>2026-04-11T10:27:26Z</time></trkpt><trkpt lat="43.27477329239927" lon="12.810442712479338"><ele>1097.0</ele><time>2026-04-11T10:27:27Z</time></trkpt><trkpt lat="43.27466768233648" lon="12.81049450875772"><ele>1100.0</ele><time>2026-04-11T10:27:29Z</time></trkpt><trkpt lat="43.27456613370017" lon="12.81056659392595"><ele>1103.0</ele><time>2026-04-11T10:27:31Z</time></trkpt><trkpt lat="43.2745019235822" lon="12.810714603251428"><ele>1106.0</ele><time>2026-04-11T10:27:33Z</time></trkpt><trkpt lat="43.27447276858888" lon="12.810811085409753"><ele>1106.0</ele><time>2026-04-11T10:27:34Z</time></trkpt><trkpt lat="43.27444406572346" lon="12.810957247746826"><ele>1106.0</ele><time>2026-04-11T10:27:36Z</time></trkpt><trkpt lat="43.27442858055147" lon="12.81108347404862"><ele>1106.0</ele><time>2026-04-11T10:27:38Z</time></trkpt><trkpt lat="43.274399955778634" lon="12.811197190599989"><ele>1106.0</ele><time>2026-04-11T10:27:40Z</time></trkpt><trkpt lat="43.27438548099251" lon="12.811311635127481"><ele>1106.0</ele><time>2026-04-11T10:27:42Z</time></trkpt><trkpt lat="43.27438318036594" lon="12.811412759552253"><ele>1106.0</ele><time>2026-04-11T10:27:44Z</time></trkpt><trkpt lat="43.27436913568172" lon="12.811507951329634"><ele>1103.8333333333335</ele><time>2026-04-11T10:27:46Z</time></trkpt><trkpt lat="43.27433449128186" lon="12.811602945495054"><ele>1101.6666666666667</ele><time>2026-04-11T10:27:48Z</time></trkpt><trkpt lat="43.2742646032327" lon="12.811731886415657"><ele>1099.5</ele><time>2026-04-11T10:27:50Z</time></trkpt><trkpt lat="43.274234940741145" lon="12.811855512794367"><ele>1097.3333333333333</ele><time>2026-04-11T10:27:52Z</time></trkpt><trkpt lat="43.274195389607385" lon="12.81193542854792"><ele>1095.1666666666665</ele><time>2026-04-11T10:27:54Z</time></trkpt><trkpt lat="43.274185719396925" lon="12.812034132642035"><ele>1093.0</ele><time>2026-04-11T10:27:58Z</time></trkpt><trkpt lat="43.27414048734812" lon="12.812122658080956"><ele>1091.5714285714287</ele><time>2026-04-11T10:28:02Z</time></trkpt><trkpt lat="43.27409659105541" lon="12.812202458491662"><ele>1090.142857142857</ele><time>2026-04-11T10:28:06Z</time></trkpt><trkpt lat="43.2740706298309" lon="12.81228966389469"><ele>1088.7142857142858</ele><time>2026-04-11T10:28:14Z</time></trkpt><trkpt lat="43.27405884311586" lon="12.812383639979293"><ele>1087.2857142857142</ele><time>2026-04-11T10:28:17Z</time></trkpt><trkpt lat="43.27401933499013" lon="12.812473589355152"><ele>1085.857142857143</ele><time>2026-04-11T10:28:21Z</time></trkpt><trkpt lat="43.27398219331382" lon="12.812543805100931"><ele>1084.4285714285716</ele><time>2026-04-11T10:28:26Z</time></trkpt><trkpt lat="43.27392669084624" lon="12.81259688190134"><ele>1083.0</ele><time>2026-04-11T10:28:32Z</time></trkpt><trkpt lat="43.27392065702626" lon="12.812719111817632"><ele>1081.3333333333333</ele><time>2026-04-11T10:28:38Z</time></trkpt><trkpt lat="43.273954637983984" lon="12.812832185095766"><ele>1079.6666666666667</ele><time>2026-04-11T10:28:41Z</time></trkpt><trkpt lat="43.27395394813124" lon="12.812940185988834"><ele>1078.0</ele><time>2026-04-11T10:28:43Z</time></trkpt><trkpt lat="43.27394474193671" lon="12.813057659052077"><ele>1076.3333333333335</ele><time>2026-04-11T10:28:45Z</time></trkpt><trkpt lat="43.273963607637064" lon="12.813157389696011"><ele>1074.6666666666667</ele><time>2026-04-11T10:28:48Z</time></trkpt><trkpt lat="43.27397783437992" lon="12.813260298458308"><ele>1073.0</ele><time>2026-04-11T10:28:50Z</time></trkpt><trkpt lat="43.273981201812695" lon="12.813372195930288"><ele>1071.8</ele><time>2026-04-11T10:28:52Z</time></trkpt><trkpt lat="43.273981030999686" lon="12.813504103578799"><ele>1070.6</ele><time>2026-04-11T10:28:54Z</time></trkpt><trkpt lat="43.273993310613825" lon="12.813653753039233"><ele>1069.4</ele><time>2026-04-11T10:28:56Z</time></trkpt><trkpt lat="43.2739995378469" lon="12.813792721079954"><ele>1068.2</ele><time>2026-04-11T10:28:58Z</time></trkpt><trkpt lat="43.27400857378096" lon="12.813927290152243"><ele>1067.0</ele><time>2026-04-11T10:29:00Z</time></trkpt><trkpt lat="43.27399915716036" lon="12.81411425429536"><ele>1066.9999999999998</ele><time>2026-04-11T10:29:02Z</time></trkpt><trkpt lat="43.27399143972283" lon="12.814213626961378"><ele>1067.0</ele><time>2026-04-11T10:29:03Z</time></trkpt><trkpt lat="43.273981680597984" lon="12.814310290021405"><ele>1067.0</ele><time>2026-04-11T10:29:04Z</time></trkpt><trkpt lat="43.27397966317458" lon="12.814411654142386"><ele>1067.0</ele><time>2026-04-11T10:29:05Z</time></trkpt><trkpt lat="43.27397828991501" lon="12.8145154438865"><ele>1067.0</ele><time>2026-04-11T10:29:06Z</time></trkpt><trkpt lat="43.27396902949598" lon="12.814616641204568"><ele>1066.9999999999998</ele><time>2026-04-11T10:29:07Z</time></trkpt><trkpt lat="43.27396562047777" lon="12.814720655560388"><ele>1067.0</ele><time>2026-04-11T10:29:08Z</time></trkpt><trkpt lat="43.27396076652475" lon="12.814822962434588"><ele>1066.5</ele><time>2026-04-11T10:29:09Z</time></trkpt><trkpt lat="43.27394784141547" lon="12.814922763023167"><ele>1066.0</ele><time>2026-04-11T10:29:10Z</time></trkpt><trkpt lat="43.273939654202266" lon="12.81501100535771"><ele>1065.5</ele><time>2026-04-11T10:29:11Z</time></trkpt><trkpt lat="43.27391893037812" lon="12.815133813199807"><ele>1065.0</ele><time>2026-04-11T10:29:13Z</time></trkpt><trkpt lat="43.27391121841403" lon="12.815259330741778"><ele>1064.5</ele><time>2026-04-11T10:29:15Z</time></trkpt><trkpt lat="43.27389234259158" lon="12.815405245025575"><ele>1064.0</ele><time>2026-04-11T10:29:17Z</time></trkpt><trkpt lat="43.27387933952809" lon="12.815555693648188"><ele>1069.8</ele><time>2026-04-11T10:29:19Z</time></trkpt><trkpt lat="43.27386739047255" lon="12.815690537340485"><ele>1075.6000000000001</ele><time>2026-04-11T10:29:21Z</time></trkpt><trkpt lat="43.27386734925454" lon="12.81582651456694"><ele>1081.4</ele><time>2026-04-11T10:29:23Z</time></trkpt><trkpt lat="43.27382989680051" lon="12.81597601728417"><ele>1087.2</ele><time>2026-04-11T10:29:25Z</time></trkpt><trkpt lat="43.27382493649464" lon="12.81612534927237"><ele>1093.0</ele><time>2026-04-11T10:29:27Z</time></trkpt><trkpt lat="43.27381889180199" lon="12.816262394369812"><ele>1093.0</ele><time>2026-04-11T10:29:29Z</time></trkpt><trkpt lat="43.27381287586265" lon="12.816389299160221"><ele>1093.0</ele><time>2026-04-11T10:29:31Z</time></trkpt><trkpt lat="43.27380390803884" lon="12.816520754683363"><ele>1093.0</ele><time>2026-04-11T10:29:33Z</time></trkpt><trkpt lat="43.27379993070073" lon="12.816658266821259"><ele>1093.0</ele><time>2026-04-11T10:29:35Z</time></trkpt><trkpt lat="43.27379813999512" lon="12.81679687042902"><ele>1093.0</ele><time>2026-04-11T10:29:37Z</time></trkpt><trkpt lat="43.273794594709315" lon="12.816959403311262"><ele>1091.1666666666665</ele><time>2026-04-11T10:29:39Z</time></trkpt><trkpt lat="43.273794906887524" lon="12.817131027605283"><ele>1089.3333333333333</ele><time>2026-04-11T10:29:41Z</time></trkpt><trkpt lat="43.2737816743812" lon="12.817232029194448"><ele>1087.5</ele><time>2026-04-11T10:29:42Z</time></trkpt><trkpt lat="43.273764968920766" lon="12.817326968986242"><ele>1085.6666666666667</ele><time>2026-04-11T10:29:43Z</time></trkpt><trkpt lat="43.27376322546353" lon="12.817434390856132"><ele>1083.8333333333335</ele><time>2026-04-11T10:29:44Z</time></trkpt><trkpt lat="43.27375862591531" lon="12.817531711475333"><ele>1082.0</ele><time>2026-04-11T10:29:45Z</time></trkpt><trkpt lat="43.273760734675975" lon="12.817639330719036"><ele>1079.5</ele><time>2026-04-11T10:29:46Z</time></trkpt><trkpt lat="43.27376463731316" lon="12.817746026299515"><ele>1077.0</ele><time>2026-04-11T10:29:47Z</time></trkpt><trkpt lat="43.27376578621674" lon="12.81785060391896"><ele>1074.5</ele><time>2026-04-11T10:29:48Z</time></trkpt><trkpt lat="43.27375935785438" lon="12.817948268339205"><ele>1072.0</ele><time>2026-04-11T10:29:49Z</time></trkpt><trkpt lat="43.27375591970119" lon="12.818041511781482"><ele>1069.5</ele><time>2026-04-11T10:29:50Z</time></trkpt><trkpt lat="43.273735343643295" lon="12.818141583114844"><ele>1067.0</ele><time>2026-04-11T10:29:51Z</time></trkpt><trkpt lat="43.27371752128082" lon="12.818268975350934"><ele>1067.0</ele><time>2026-04-11T10:29:52Z</time></trkpt><trkpt lat="43.273695271138216" lon="12.818401477238384"><ele>1067.0</ele><time>2026-04-11T10:29:53Z</time></trkpt><trkpt lat="43.27367326206732" lon="12.818490023996349"><ele>1067.0</ele><time>2026-04-11T10:29:54Z</time></trkpt><trkpt lat="43.27366690544508" lon="12.818595571615573"><ele>1067.0</ele><time>2026-04-11T10:29:55Z</time></trkpt><trkpt lat="43.273656473652125" lon="12.818705646965599"><ele>1067.0</ele><time>2026-04-11T10:29:56Z</time></trkpt><trkpt lat="43.273638562996624" lon="12.818812941672254"><ele>1067.0</ele><time>2026-04-11T10:29:57Z</time></trkpt><trkpt lat="43.2736295393674" lon="12.81893240673981"><ele>1063.4</ele><time>2026-04-11T10:29:58Z</time></trkpt><trkpt lat="43.27362449169517" lon="12.819045956789601"><ele>1059.8000000000002</ele><time>2026-04-11T10:29:59Z</time></trkpt><trkpt lat="43.273599467134346" lon="12.819156877869679"><ele>1056.2</ele><time>2026-04-11T10:30:00Z</time></trkpt><trkpt lat="43.27356534010723" lon="12.819267439489538"><ele>1052.6000000000001</ele><time>2026-04-11T10:30:01Z</time></trkpt><trkpt lat="43.27353376914565" lon="12.819361039856478"><ele>1049.0</ele><time>2026-04-11T10:30:02Z</time></trkpt><trkpt lat="43.2734875582455" lon="12.81951359295034"><ele>1045.6000000000001</ele><time>2026-04-11T10:30:04Z</time></trkpt><trkpt lat="43.27345646786434" lon="12.819674853997284"><ele>1042.2</ele><time>2026-04-11T10:30:06Z</time></trkpt><trkpt lat="43.273448266515906" lon="12.819765875198666"><ele>1038.8000000000002</ele><time>2026-04-11T10:30:07Z</time></trkpt><trkpt lat="43.27341284543152" lon="12.81989997167302"><ele>1035.4</ele><time>2026-04-11T10:30:09Z</time></trkpt><trkpt lat="43.273363027095044" lon="12.820038163292647"><ele>1032.0</ele><time>2026-04-11T10:30:11Z</time></trkpt><trkpt lat="43.27333611562771" lon="12.820122516173303"><ele>1027.2</ele><time>2026-04-11T10:30:12Z</time></trkpt><trkpt lat="43.27331146731978" lon="12.820211756917097"><ele>1022.4000000000001</ele><time>2026-04-11T10:30:13Z</time></trkpt><trkpt lat="43.273275652825085" lon="12.820350835198552"><ele>1017.5999999999999</ele><time>2026-04-11T10:30:15Z</time></trkpt><trkpt lat="43.273253601622216" lon="12.820497282688173"><ele>1012.8</ele><time>2026-04-11T10:30:17Z</time></trkpt><trkpt lat="43.27323849418036" lon="12.820586234886557"><ele>1008.0</ele><time>2026-04-11T10:30:18Z</time></trkpt><trkpt lat="43.27322260984064" lon="12.820735558235436"><ele>1008.0</ele><time>2026-04-11T10:30:20Z</time></trkpt><trkpt lat="43.273195053372156" lon="12.82086985045456"><ele>1008.0</ele><time>2026-04-11T10:30:22Z</time></trkpt><trkpt lat="43.27316700617834" lon="12.821003956607983"><ele>1008.0</ele><time>2026-04-11T10:30:24Z</time></trkpt><trkpt lat="43.27313196366028" lon="12.821117098991756"><ele>1008.0</ele><time>2026-04-11T10:30:26Z</time></trkpt><trkpt lat="43.273097002029914" lon="12.821228089320165"><ele>1008.0</ele><time>2026-04-11T10:30:28Z</time></trkpt><trkpt lat="43.273039057717014" lon="12.82133410585021"><ele>1007.7142857142858</ele><time>2026-04-11T10:30:30Z</time></trkpt><trkpt lat="43.27301292155386" lon="12.821419727840594"><ele>1007.4285714285714</ele><time>2026-04-11T10:30:31Z</time></trkpt><trkpt lat="43.272990883675156" lon="12.821514721465523"><ele>1007.1428571428571</ele><time>2026-04-11T10:30:32Z</time></trkpt><trkpt lat="43.27296984473246" lon="12.82161933779586"><ele>1006.8571428571429</ele><time>2026-04-11T10:30:33Z</time></trkpt><trkpt lat="43.27295445463593" lon="12.821718441040161"><ele>1006.5714285714287</ele><time>2026-04-11T10:30:34Z</time></trkpt><trkpt lat="43.27294121971062" lon="12.821818147394206"><ele>1006.2857142857143</ele><time>2026-04-11T10:30:35Z</time></trkpt><trkpt lat="43.27292272413755" lon="12.821917099856929"><ele>1006.0</ele><time>2026-04-11T10:30:36Z</time></trkpt><trkpt lat="43.27290550213612" lon="12.822010374242977"><ele>1005.9999999999999</ele><time>2026-04-11T10:30:37Z</time></trkpt><trkpt lat="43.272876313526666" lon="12.82211107584161"><ele>1006.0</ele><time>2026-04-11T10:30:38Z</time></trkpt><trkpt lat="43.27285757806114" lon="12.822222516271001"><ele>1006.0</ele><time>2026-04-11T10:30:39Z</time></trkpt><trkpt lat="43.27284513379901" lon="12.822333537008019"><ele>1006.0</ele><time>2026-04-11T10:30:40Z</time></trkpt><trkpt lat="43.27283382817356" lon="12.82243141338539"><ele>1005.9999999999999</ele><time>2026-04-11T10:30:41Z</time></trkpt><trkpt lat="43.272828267324705" lon="12.822523206719858"><ele>1006.0</ele><time>2026-04-11T10:30:42Z</time></trkpt><trkpt lat="43.272799662196164" lon="12.822694536874828"><ele>1002.9999999999999</ele><time>2026-04-11T10:30:44Z</time></trkpt><trkpt lat="43.27275845920065" lon="12.822846862638945"><ele>1000.0</ele><time>2026-04-11T10:30:46Z</time></trkpt><trkpt lat="43.272726314102805" lon="12.822939342891733"><ele>997.0</ele><time>2026-04-11T10:30:47Z</time></trkpt><trkpt lat="43.272691631204914" lon="12.823024217804672"><ele>994.0</ele><time>2026-04-11T10:30:48Z</time></trkpt><trkpt lat="43.27264891954164" lon="12.823101216286203"><ele>990.9999999999999</ele><time>2026-04-11T10:30:49Z</time></trkpt><trkpt lat="43.272620030195306" lon="12.82318802820926"><ele>988.0</ele><time>2026-04-11T10:30:50Z</time></trkpt><trkpt lat="43.27259579209127" lon="12.823271765387288"><ele>988.0</ele><time>2026-04-11T10:30:51Z</time></trkpt><trkpt lat="43.272559767408126" lon="12.823415063749387"><ele>988.0</ele><time>2026-04-11T10:30:53Z</time></trkpt><trkpt lat="43.27254431033635" lon="12.823499267471623"><ele>988.0</ele><time>2026-04-11T10:30:55Z</time></trkpt><trkpt lat="43.27254089095996" lon="12.82361989172377"><ele>988.0</ele><time>2026-04-11T10:30:58Z</time></trkpt><trkpt lat="43.272536788658584" lon="12.823731632215681"><ele>988.0</ele><time>2026-04-11T10:31:00Z</time></trkpt><trkpt lat="43.27252454330815" lon="12.823888163586698"><ele>984.6666666666666</ele><time>2026-04-11T10:31:02Z</time></trkpt><trkpt lat="43.27250718355443" lon="12.82401390845504"><ele>981.3333333333333</ele><time>2026-04-11T10:31:04Z</time></trkpt><trkpt lat="43.272465360813364" lon="12.824100725885794"><ele>978.0</ele><time>2026-04-11T10:31:06Z</time></trkpt><trkpt lat="43.272413000789996" lon="12.824160684284989"><ele>974.6666666666667</ele><time>2026-04-11T10:31:13Z</time></trkpt><trkpt lat="43.27247806000277" lon="12.824163477863648"><ele>971.3333333333334</ele><time>2026-04-11T10:31:32Z</time></trkpt><trkpt lat="43.272527965882254" lon="12.824088456816174"><ele>968.0</ele><time>2026-04-11T10:31:34Z</time></trkpt><trkpt lat="43.2726155849415" lon="12.824042049638942"><ele>968.0</ele><time>2026-04-11T10:31:36Z</time></trkpt><trkpt lat="43.27266891842918" lon="12.823991603563728"><ele>967.9999999999999</ele><time>2026-04-11T10:31:38Z</time></trkpt><trkpt lat="43.272727073497286" lon="12.823920705325348"><ele>968.0</ele><time>2026-04-11T10:31:40Z</time></trkpt><trkpt lat="43.272758358491025" lon="12.823841671303647"><ele>968.0</ele><time>2026-04-11T10:31:44Z</time></trkpt><trkpt lat="43.272735302139786" lon="12.823754206027193"><ele>967.9999999999999</ele><time>2026-04-11T10:31:53Z</time></trkpt><trkpt lat="43.27272223575889" lon="12.823642331675481"><ele>968.0</ele><time>2026-04-11T10:32:07.999Z</time></trkpt><trkpt lat="43.27270907526385" lon="12.823753527290663"><ele>968.0</ele><time>2026-04-11T10:32:15.999Z</time></trkpt><trkpt lat="43.27268704742006" lon="12.823863873573021"><ele>968.0000000000001</ele><time>2026-04-11T10:32:17.999Z</time></trkpt><trkpt lat="43.27264662420446" lon="12.823991303117307"><ele>968.0</ele><time>2026-04-11T10:32:19.999Z</time></trkpt><trkpt lat="43.27261815947429" lon="12.824092645047411"><ele>968.0</ele><time>2026-04-11T10:32:21.999Z</time></trkpt><trkpt lat="43.27259825847339" lon="12.824194193676057"><ele>968.0</ele><time>2026-04-11T10:32:25.999Z</time></trkpt><trkpt lat="43.27257941239731" lon="12.824276766167348"><ele>968.0000000000001</ele><time>2026-04-11T10:32:32.999Z</time></trkpt><trkpt lat="43.27252265257491" lon="12.824345092360078"><ele>968.0</ele><time>2026-04-11T10:32:39.999Z</time></trkpt><trkpt lat="43.27246831593196" lon="12.82440663109666"><ele>970.0000000000001</ele><time>2026-04-11T10:32:42.999Z</time></trkpt><trkpt lat="43.27240838457411" lon="12.82446285861047"><ele>972.0</ele><time>2026-04-11T10:32:46.999Z</time></trkpt><trkpt lat="43.27235012076318" lon="12.824542957382796"><ele>974.0</ele><time>2026-04-11T10:32:52.999Z</time></trkpt><trkpt lat="43.272295407634026" lon="12.824632693787134"><ele>976.0</ele><time>2026-04-11T10:32:58.999Z</time></trkpt><trkpt lat="43.27221096600032" lon="12.824690861918219"><ele>978.0000000000001</ele><time>2026-04-11T10:33:01.999Z</time></trkpt><trkpt lat="43.27215266090514" lon="12.824735232456012"><ele>980.0</ele><time>2026-04-11T10:33:03.999Z</time></trkpt><trkpt lat="43.27208610192033" lon="12.824790933779163"><ele>980.0</ele><time>2026-04-11T10:33:05.999Z</time></trkpt><trkpt lat="43.27201069327488" lon="12.824867267220096"><ele>980.0</ele><time>2026-04-11T10:33:08.999Z</time></trkpt><trkpt lat="43.27196928955649" lon="12.82493484927794"><ele>980.0</ele><time>2026-04-11T10:33:10.999Z</time></trkpt><trkpt lat="43.27191380114735" lon="12.825010437629182"><ele>980.0</ele><time>2026-04-11T10:33:13.999Z</time></trkpt><trkpt lat="43.27185932496216" lon="12.825060760784641"><ele>980.0</ele><time>2026-04-11T10:33:16.999Z</time></trkpt><trkpt lat="43.27181511394137" lon="12.82512596541869"><ele>980.0</ele><time>2026-04-11T10:33:18.999Z</time></trkpt><trkpt lat="43.27177415325975" lon="12.82519814921997"><ele>980.0</ele><time>2026-04-11T10:33:20.999Z</time></trkpt><trkpt lat="43.27172777052213" lon="12.82530044341808"><ele>981.0</ele><time>2026-04-11T10:33:23.999Z</time></trkpt><trkpt lat="43.27167174697822" lon="12.825385795571066"><ele>982.0</ele><time>2026-04-11T10:33:26.999Z</time></trkpt><trkpt lat="43.27162124956298" lon="12.825462273647037"><ele>983.0</ele><time>2026-04-11T10:33:29.999Z</time></trkpt><trkpt lat="43.27155578295457" lon="12.825489466513044"><ele>984.0</ele><time>2026-04-11T10:33:35.999Z</time></trkpt><trkpt lat="43.27150505139066" lon="12.82555663220252"><ele>985.0</ele><time>2026-04-11T10:33:38.999Z</time></trkpt><trkpt lat="43.27146077042383" lon="12.82564306104165"><ele>986.0</ele><time>2026-04-11T10:33:41.999Z</time></trkpt><trkpt lat="43.271430707711986" lon="12.825720956283895"><ele>987.0</ele><time>2026-04-11T10:33:44.999Z</time></trkpt><trkpt lat="43.27138391398009" lon="12.825811322637952"><ele>987.0</ele><time>2026-04-11T10:33:47.999Z</time></trkpt><trkpt lat="43.27133455631525" lon="12.825884819357046"><ele>987.0</ele><time>2026-04-11T10:33:50.999Z</time></trkpt><trkpt lat="43.27128432796592" lon="12.825964246398087"><ele>987.0</ele><time>2026-04-11T10:33:55Z</time></trkpt><trkpt lat="43.27121664916166" lon="12.826037550370861"><ele>987.0</ele><time>2026-04-11T10:33:58Z</time></trkpt><trkpt lat="43.27120116392024" lon="12.82612632978263"><ele>987.0</ele><time>2026-04-11T10:34:00Z</time></trkpt><trkpt lat="43.27116689402943" lon="12.82624315480986"><ele>987.0</ele><time>2026-04-11T10:34:02Z</time></trkpt><trkpt lat="43.271110479137405" lon="12.826325710086838"><ele>982.4285714285714</ele><time>2026-04-11T10:34:05Z</time></trkpt><trkpt lat="43.27106938036648" lon="12.826412002955049"><ele>977.8571428571429</ele><time>2026-04-11T10:34:07Z</time></trkpt><trkpt lat="43.271011139266875" lon="12.826453995013779"><ele>973.2857142857142</ele><time>2026-04-11T10:34:10Z</time></trkpt><trkpt lat="43.27094511527909" lon="12.826474069617701"><ele>968.7142857142857</ele><time>2026-04-11T10:34:14Z</time></trkpt><trkpt lat="43.27088372349314" lon="12.826510991108792"><ele>964.1428571428571</ele><time>2026-04-11T10:34:19Z</time></trkpt><trkpt lat="43.27081332432244" lon="12.826561079458635"><ele>959.5714285714284</ele><time>2026-04-11T10:34:25Z</time></trkpt><trkpt lat="43.270754453044276" lon="12.826620153067914"><ele>954.9999999999999</ele><time>2026-04-11T10:34:28Z</time></trkpt><trkpt lat="43.270715366988696" lon="12.826699716118412"><ele>954.9999999999999</ele><time>2026-04-11T10:34:32Z</time></trkpt><trkpt lat="43.270675450055066" lon="12.826779607341617"><ele>955.0</ele><time>2026-04-11T10:34:35Z</time></trkpt><trkpt lat="43.270607325346404" lon="12.826803431573886"><ele>954.9999999999999</ele><time>2026-04-11T10:34:40Z</time></trkpt><trkpt lat="43.27055715185226" lon="12.826885389455306"><ele>954.9999999999999</ele><time>2026-04-11T10:34:44Z</time></trkpt><trkpt lat="43.2705143636658" lon="12.826952490149143"><ele>955.0</ele><time>2026-04-11T10:34:46Z</time></trkpt><trkpt lat="43.27045744686412" lon="12.827020028610166"><ele>954.9999999999999</ele><time>2026-04-11T10:34:48Z</time></trkpt><trkpt lat="43.27044078994985" lon="12.827115393476799"><ele>954.9999999999999</ele><time>2026-04-11T10:34:54Z</time></trkpt><trkpt lat="43.27046113256572" lon="12.827198627193788"><ele>952.2857142857142</ele><time>2026-04-11T10:35:02Z</time></trkpt><trkpt lat="43.270513778946146" lon="12.827253313795572"><ele>949.5714285714286</ele><time>2026-04-11T10:35:34Z</time></trkpt><trkpt lat="43.270503306440666" lon="12.827339652803035"><ele>946.8571428571429</ele><time>2026-04-11T10:35:52Z</time></trkpt><trkpt lat="43.270545775770316" lon="12.8274117052767"><ele>944.1428571428571</ele><time>2026-04-11T10:36:04Z</time></trkpt><trkpt lat="43.27061071505626" lon="12.827454886670674"><ele>941.4285714285716</ele><time>2026-04-11T10:36:09Z</time></trkpt><trkpt lat="43.27067991960816" lon="12.82748086759517"><ele>938.7142857142858</ele><time>2026-04-11T10:36:12Z</time></trkpt><trkpt lat="43.27074049052972" lon="12.827532694223157"><ele>936.0</ele><time>2026-04-11T10:36:15Z</time></trkpt><trkpt lat="43.27081621774046" lon="12.827609301519876"><ele>931.0</ele><time>2026-04-11T10:36:18Z</time></trkpt><trkpt lat="43.27088794188131" lon="12.827716971737221"><ele>925.9999999999999</ele><time>2026-04-11T10:36:20Z</time></trkpt><trkpt lat="43.27093425591308" lon="12.827781492373376"><ele>920.9999999999999</ele><time>2026-04-11T10:36:22Z</time></trkpt><trkpt lat="43.27098925547483" lon="12.827834720871609"><ele>916.0</ele><time>2026-04-11T10:36:28Z</time></trkpt><trkpt lat="43.271069041276746" lon="12.827925198941767"><ele>911.0</ele><time>2026-04-11T10:36:33Z</time></trkpt><trkpt lat="43.27116697452753" lon="12.827996004194102"><ele>911.0000000000001</ele><time>2026-04-11T10:36:35Z</time></trkpt><trkpt lat="43.27124445590587" lon="12.828055151984572"><ele>911.0</ele><time>2026-04-11T10:36:37Z</time></trkpt><trkpt lat="43.27132429114662" lon="12.828108113658347"><ele>911.0</ele><time>2026-04-11T10:36:39Z</time></trkpt><trkpt lat="43.27139211433254" lon="12.828158353779889"><ele>911.0</ele><time>2026-04-11T10:36:41Z</time></trkpt><trkpt lat="43.27144190986499" lon="12.82823799070742"><ele>911.0000000000001</ele><time>2026-04-11T10:36:43Z</time></trkpt><trkpt lat="43.27150943743492" lon="12.828310843655535"><ele>911.0</ele><time>2026-04-11T10:36:45Z</time></trkpt><trkpt lat="43.27155482307955" lon="12.828378822179898"><ele>910.0000000000001</ele><time>2026-04-11T10:36:47Z</time></trkpt><trkpt lat="43.27163028261874" lon="12.828444689662923"><ele>909.0</ele><time>2026-04-11T10:36:50Z</time></trkpt><trkpt lat="43.271669054518114" lon="12.828523624052995"><ele>908.0</ele><time>2026-04-11T10:36:52Z</time></trkpt><trkpt lat="43.27170603276701" lon="12.828617078472053"><ele>907.0</ele><time>2026-04-11T10:36:55Z</time></trkpt><trkpt lat="43.27175328359374" lon="12.828725527095958"><ele>906.0000000000001</ele><time>2026-04-11T10:36:58Z</time></trkpt><trkpt lat="43.27180277299024" lon="12.828831109384586"><ele>905.0</ele><time>2026-04-11T10:37:01Z</time></trkpt><trkpt lat="43.27186535417846" lon="12.828945273142772"><ele>907.3333333333334</ele><time>2026-04-11T10:37:03Z</time></trkpt><trkpt lat="43.27193548024279" lon="12.82905938726298"><ele>909.6666666666667</ele><time>2026-04-11T10:37:05Z</time></trkpt><trkpt lat="43.2719976779941" lon="12.829170029895966"><ele>912.0</ele><time>2026-04-11T10:37:07Z</time></trkpt><trkpt lat="43.272057564542074" lon="12.829271960266663"><ele>914.3333333333333</ele><time>2026-04-11T10:37:09Z</time></trkpt><trkpt lat="43.27209828044407" lon="12.829357234066148"><ele>916.6666666666666</ele><time>2026-04-11T10:37:11Z</time></trkpt><trkpt lat="43.272127717824155" lon="12.829441445268673"><ele>919.0</ele><time>2026-04-11T10:37:16Z</time></trkpt><trkpt lat="43.272142160025616" lon="12.829531428107364"><ele>921.4999999999999</ele><time>2026-04-11T10:37:24Z</time></trkpt><trkpt lat="43.272215640011616" lon="12.829558998970926"><ele>924.0</ele><time>2026-04-11T10:37:33Z</time></trkpt><trkpt lat="43.27226129997719" lon="12.82964031353105"><ele>926.5</ele><time>2026-04-11T10:37:56Z</time></trkpt><trkpt lat="43.272279917099695" lon="12.829729369162928"><ele>929.0</ele><time>2026-04-11T10:38:38Z</time></trkpt><trkpt lat="43.27222360901191" lon="12.829642061984748"><ele>931.4999999999999</ele><time>2026-04-11T10:39:17Z</time></trkpt><trkpt lat="43.27215792250439" lon="12.829549997947655"><ele>934.0</ele><time>2026-04-11T10:39:20Z</time></trkpt><trkpt lat="43.27210572166912" lon="12.829478830693452"><ele>933.9999999999999</ele><time>2026-04-11T10:39:22Z</time></trkpt><trkpt lat="43.27204493484028" lon="12.829400002571466"><ele>934.0</ele><time>2026-04-11T10:39:24Z</time></trkpt><trkpt lat="43.271986375419374" lon="12.829332263780156"><ele>934.0</ele><time>2026-04-11T10:39:26Z</time></trkpt><trkpt lat="43.27194619679941" lon="12.829255033592299"><ele>934.0</ele><time>2026-04-11T10:39:28Z</time></trkpt><trkpt lat="43.2718923367892" lon="12.829142228145479"><ele>933.9999999999999</ele><time>2026-04-11T10:39:30Z</time></trkpt><trkpt lat="43.271835987080074" lon="12.82902723341951"><ele>934.0</ele><time>2026-04-11T10:39:32Z</time></trkpt><trkpt lat="43.271787993754906" lon="12.828933471063051"><ele>931.0</ele><time>2026-04-11T10:39:34Z</time></trkpt><trkpt lat="43.27173810563437" lon="12.828821374802867"><ele>928.0000000000001</ele><time>2026-04-11T10:39:36Z</time></trkpt><trkpt lat="43.271681168439464" lon="12.828684866756324"><ele>925.0000000000001</ele><time>2026-04-11T10:39:39Z</time></trkpt><trkpt lat="43.27164276312156" lon="12.8286034233902"><ele>922.0</ele><time>2026-04-11T10:39:40Z</time></trkpt><trkpt lat="43.27157487758436" lon="12.828486704934415"><ele>919.0</ele><time>2026-04-11T10:39:42Z</time></trkpt><trkpt lat="43.27149609191607" lon="12.828407717803035"><ele>917.4000000000001</ele><time>2026-04-11T10:39:44Z</time></trkpt><trkpt lat="43.271411818275325" lon="12.828345961085278"><ele>915.8000000000001</ele><time>2026-04-11T10:39:46Z</time></trkpt><trkpt lat="43.271317092067754" lon="12.828274610977184"><ele>914.1999999999999</ele><time>2026-04-11T10:39:48Z</time></trkpt><trkpt lat="43.27122347311916" lon="12.828208307452934"><ele>912.5999999999999</ele><time>2026-04-11T10:39:50Z</time></trkpt><trkpt lat="43.271159676389836" lon="12.828145149248908"><ele>911.0</ele><time>2026-04-11T10:39:52Z</time></trkpt><trkpt lat="43.27107807007271" lon="12.828072640839386"><ele>911.0</ele><time>2026-04-11T10:39:55Z</time></trkpt><trkpt lat="43.271056824224274" lon="12.827976802610733"><ele>911.0</ele><time>2026-04-11T10:39:59Z</time></trkpt><trkpt lat="43.27098462218587" lon="12.82800331388152"><ele>911.0</ele><time>2026-04-11T10:40:09Z</time></trkpt><trkpt lat="43.27094446779948" lon="12.828070848572603"><ele>911.0</ele><time>2026-04-11T10:40:11Z</time></trkpt><trkpt lat="43.27089926759221" lon="12.82813305528707"><ele>911.0</ele><time>2026-04-11T10:40:13Z</time></trkpt><trkpt lat="43.270863117292095" lon="12.82821226331858"><ele>911.0</ele><time>2026-04-11T10:40:15Z</time></trkpt><trkpt lat="43.270837480271354" lon="12.82831024669306"><ele>911.0</ele><time>2026-04-11T10:40:17Z</time></trkpt><trkpt lat="43.270816129477886" lon="12.828439919926495"><ele>910.4</ele><time>2026-04-11T10:40:19Z</time></trkpt><trkpt lat="43.270799488699815" lon="12.828567439425253"><ele>909.8</ele><time>2026-04-11T10:40:21Z</time></trkpt><trkpt lat="43.27080412797791" lon="12.8287246617447"><ele>909.1999999999999</ele><time>2026-04-11T10:40:23Z</time></trkpt><trkpt lat="43.27081076549424" lon="12.828888930730376"><ele>908.5999999999999</ele><time>2026-04-11T10:40:25Z</time></trkpt><trkpt lat="43.270808332452745" lon="12.829015844523937"><ele>908.0</ele><time>2026-04-11T10:40:27Z</time></trkpt><trkpt lat="43.27081960103267" lon="12.829166127526234"><ele>908.0</ele><time>2026-04-11T10:40:29Z</time></trkpt><trkpt lat="43.27082350946162" lon="12.82932646434795"><ele>908.0</ele><time>2026-04-11T10:40:31Z</time></trkpt><trkpt lat="43.270824922153125" lon="12.829477099029186"><ele>908.0</ele><time>2026-04-11T10:40:33Z</time></trkpt><trkpt lat="43.27082152138194" lon="12.829599879533944"><ele>908.0</ele><time>2026-04-11T10:40:35Z</time></trkpt><trkpt lat="43.27080643712427" lon="12.829720515274088"><ele>908.0</ele><time>2026-04-11T10:40:38Z</time></trkpt><trkpt lat="43.27081887374247" lon="12.829817365339789"><ele>908.0000000000001</ele><time>2026-04-11T10:40:40Z</time></trkpt><trkpt lat="43.270828693796254" lon="12.829914917993197"><ele>908.0</ele><time>2026-04-11T10:40:42Z</time></trkpt><trkpt lat="43.270822749736745" lon="12.830013507936746"><ele>908.0</ele><time>2026-04-11T10:40:44Z</time></trkpt><trkpt lat="43.27080617973719" lon="12.830112614919575"><ele>908.0</ele><time>2026-04-11T10:40:46Z</time></trkpt><trkpt lat="43.27078483733094" lon="12.830212735864094"><ele>908.0000000000001</ele><time>2026-04-11T10:40:48Z</time></trkpt><trkpt lat="43.27077046831904" lon="12.830323141476935"><ele>908.0</ele><time>2026-04-11T10:40:50Z</time></trkpt><trkpt lat="43.27075834466427" lon="12.83045924989483"><ele>907.2</ele><time>2026-04-11T10:40:52Z</time></trkpt><trkpt lat="43.270752246364886" lon="12.830545399083126"><ele>906.4</ele><time>2026-04-11T10:40:53Z</time></trkpt><trkpt lat="43.27071717078733" lon="12.830707228064577"><ele>905.6000000000001</ele><time>2026-04-11T10:40:55Z</time></trkpt><trkpt lat="43.27069415356853" lon="12.830861997415015"><ele>904.8000000000001</ele><time>2026-04-11T10:40:57Z</time></trkpt><trkpt lat="43.27065686962872" lon="12.83102500137729"><ele>904.0</ele><time>2026-04-11T10:40:59Z</time></trkpt><trkpt lat="43.270636554615656" lon="12.831195308427068"><ele>903.3333333333333</ele><time>2026-04-11T10:41:01Z</time></trkpt><trkpt lat="43.27062309115329" lon="12.83132439445263"><ele>902.6666666666666</ele><time>2026-04-11T10:41:03Z</time></trkpt><trkpt lat="43.27061885460379" lon="12.83142580431725"><ele>902.0</ele><time>2026-04-11T10:41:05Z</time></trkpt><trkpt lat="43.27061802974185" lon="12.831515258495475"><ele>901.3333333333333</ele><time>2026-04-11T10:41:07Z</time></trkpt><trkpt lat="43.270598938572874" lon="12.831611111847932"><ele>900.6666666666666</ele><time>2026-04-11T10:41:10Z</time></trkpt><trkpt lat="43.27059871199717" lon="12.831718412640875"><ele>900.0</ele><time>2026-04-11T10:41:14Z</time></trkpt><trkpt lat="43.27058743656805" lon="12.831814280227753"><ele>887.8</ele><time>2026-04-11T10:41:19Z</time></trkpt><trkpt lat="43.270579150512425" lon="12.831925667974048"><ele>875.6</ele><time>2026-04-11T10:41:22Z</time></trkpt><trkpt lat="43.270569255698476" lon="12.832040510749621"><ele>863.4000000000001</ele><time>2026-04-11T10:41:24Z</time></trkpt><trkpt lat="43.27054501732108" lon="12.832182976661501"><ele>851.2</ele><time>2026-04-11T10:41:26Z</time></trkpt><trkpt lat="43.2705410548392" lon="12.832322446681754"><ele>839.0</ele><time>2026-04-11T10:41:28Z</time></trkpt><trkpt lat="43.27054192853075" lon="12.832459460174338"><ele>839.0000000000001</ele><time>2026-04-11T10:41:30Z</time></trkpt><trkpt lat="43.27053364151183" lon="12.832552733277824"><ele>839.0</ele><time>2026-04-11T10:41:32Z</time></trkpt><trkpt lat="43.27050059516369" lon="12.832650026339758"><ele>839.0</ele><time>2026-04-11T10:41:35Z</time></trkpt><trkpt lat="43.27047753839875" lon="12.832746980076706"><ele>839.0</ele><time>2026-04-11T10:41:37Z</time></trkpt><trkpt lat="43.2704434793037" lon="12.832883954053539"><ele>839.0000000000001</ele><time>2026-04-11T10:41:39Z</time></trkpt><trkpt lat="43.27041780479222" lon="12.832969344056716"><ele>839.0</ele><time>2026-04-11T10:41:40Z</time></trkpt><trkpt lat="43.27037591242578" lon="12.833120055071678"><ele>838.8333333333334</ele><time>2026-04-11T10:41:42Z</time></trkpt><trkpt lat="43.27032238440546" lon="12.83324440301492"><ele>838.6666666666667</ele><time>2026-04-11T10:41:44Z</time></trkpt><trkpt lat="43.27026813203914" lon="12.833394297105881"><ele>838.5</ele><time>2026-04-11T10:41:46Z</time></trkpt><trkpt lat="43.27024121482015" lon="12.833473549632513"><ele>838.3333333333333</ele><time>2026-04-11T10:41:47Z</time></trkpt><trkpt lat="43.270206927947285" lon="12.833567161855385"><ele>838.1666666666666</ele><time>2026-04-11T10:41:48Z</time></trkpt><trkpt lat="43.27017865050744" lon="12.833668315381313"><ele>838.0</ele><time>2026-04-11T10:41:49Z</time></trkpt><trkpt lat="43.27014853355127" lon="12.833775848149022"><ele>838.6666666666666</ele><time>2026-04-11T10:41:50Z</time></trkpt><trkpt lat="43.27011992625012" lon="12.833873376412894"><ele>839.3333333333333</ele><time>2026-04-11T10:41:51Z</time></trkpt><trkpt lat="43.27009610678226" lon="12.833967872956979"><ele>840.0</ele><time>2026-04-11T10:41:52Z</time></trkpt><trkpt lat="43.270072272386216" lon="12.834048623796566"><ele>840.6666666666667</ele><time>2026-04-11T10:41:53Z</time></trkpt><trkpt lat="43.27003176767966" lon="12.834186538732002"><ele>841.3333333333334</ele><time>2026-04-11T10:41:55Z</time></trkpt><trkpt lat="43.26998710498162" lon="12.834319037072767"><ele>842.0</ele><time>2026-04-11T10:41:57Z</time></trkpt><trkpt lat="43.26992761207361" lon="12.83446017749455"><ele>843.8571428571429</ele><time>2026-04-11T10:41:59Z</time></trkpt><trkpt lat="43.26989893169482" lon="12.834547347753787"><ele>845.7142857142858</ele><time>2026-04-11T10:42:00Z</time></trkpt><trkpt lat="43.2698572991122" lon="12.834627645413665"><ele>847.5714285714287</ele><time>2026-04-11T10:42:01Z</time></trkpt><trkpt lat="43.2698338543819" lon="12.834722805186356"><ele>849.4285714285714</ele><time>2026-04-11T10:42:02Z</time></trkpt><trkpt lat="43.2698146172291" lon="12.834810983350936"><ele>851.2857142857142</ele><time>2026-04-11T10:42:03Z</time></trkpt><trkpt lat="43.26979073459043" lon="12.834906734881885"><ele>853.1428571428572</ele><time>2026-04-11T10:42:04Z</time></trkpt><trkpt lat="43.26975875931473" lon="12.834986124452758"><ele>855.0</ele><time>2026-04-11T10:42:05Z</time></trkpt><trkpt lat="43.26971042187969" lon="12.835149064934892"><ele>843.4</ele><time>2026-04-11T10:42:07Z</time></trkpt><trkpt lat="43.26967855049406" lon="12.83529022687241"><ele>831.8</ele><time>2026-04-11T10:42:09Z</time></trkpt><trkpt lat="43.26963146206311" lon="12.83542792206756"><ele>820.2</ele><time>2026-04-11T10:42:11Z</time></trkpt><trkpt lat="43.269601188021255" lon="12.83555809748251"><ele>808.6</ele><time>2026-04-11T10:42:13Z</time></trkpt><trkpt lat="43.26960608660855" lon="12.835666240471934"><ele>797.0</ele><time>2026-04-11T10:42:16Z</time></trkpt><trkpt lat="43.26962004571506" lon="12.83576335380747"><ele>797.0000000000001</ele><time>2026-04-11T10:42:18Z</time></trkpt><trkpt lat="43.26961864250481" lon="12.835881013634772"><ele>797.0</ele><time>2026-04-11T10:42:21Z</time></trkpt><trkpt lat="43.269602508731005" lon="12.836008053358261"><ele>797.0</ele><time>2026-04-11T10:42:24Z</time></trkpt><trkpt lat="43.26960123910148" lon="12.836110519497248"><ele>797.0</ele><time>2026-04-11T10:42:26Z</time></trkpt><trkpt lat="43.26960315299821" lon="12.836203658532488"><ele>797.0000000000001</ele><time>2026-04-11T10:42:28Z</time></trkpt><trkpt lat="43.269602463758964" lon="12.83629543528833"><ele>797.0</ele><time>2026-04-11T10:42:30Z</time></trkpt><trkpt lat="43.26960274732722" lon="12.83640132022666"><ele>794.0</ele><time>2026-04-11T10:42:32Z</time></trkpt><trkpt lat="43.26959144673458" lon="12.836495622302758"><ele>791.0</ele><time>2026-04-11T10:42:34Z</time></trkpt><trkpt lat="43.26957613031105" lon="12.836599025447581"><ele>788.0</ele><time>2026-04-11T10:42:36Z</time></trkpt><trkpt lat="43.26955556021281" lon="12.836718830192101"><ele>785.0</ele><time>2026-04-11T10:42:38Z</time></trkpt><trkpt lat="43.26953028580446" lon="12.836880800706771"><ele>782.0</ele><time>2026-04-11T10:42:40Z</time></trkpt><trkpt lat="43.269504297660376" lon="12.837039463738893"><ele>779.6</ele><time>2026-04-11T10:42:42Z</time></trkpt><trkpt lat="43.26947243336104" lon="12.837191355027873"><ele>777.2</ele><time>2026-04-11T10:42:44Z</time></trkpt><trkpt lat="43.269459846937416" lon="12.837316220789734"><ele>774.8</ele><time>2026-04-11T10:42:46Z</time></trkpt><trkpt lat="43.26944723631685" lon="12.83744146200999"><ele>772.4</ele><time>2026-04-11T10:42:48Z</time></trkpt><trkpt lat="43.26942932228256" lon="12.837586873803568"><ele>770.0</ele><time>2026-04-11T10:42:50Z</time></trkpt><trkpt lat="43.2694208988465" lon="12.837727997485494"><ele>768.6666666666667</ele><time>2026-04-11T10:42:52Z</time></trkpt><trkpt lat="43.26939892932647" lon="12.837869319917411"><ele>767.3333333333334</ele><time>2026-04-11T10:42:54Z</time></trkpt><trkpt lat="43.26936959398662" lon="12.838008734012444"><ele>766.0</ele><time>2026-04-11T10:42:56Z</time></trkpt><trkpt lat="43.26933305642863" lon="12.83810230786338"><ele>764.6666666666667</ele><time>2026-04-11T10:42:57Z</time></trkpt><trkpt lat="43.269306647133014" lon="12.83818472467901"><ele>763.3333333333334</ele><time>2026-04-11T10:42:58Z</time></trkpt><trkpt lat="43.269290226810206" lon="12.838276787865246"><ele>762.0</ele><time>2026-04-11T10:42:59Z</time></trkpt><trkpt lat="43.26928579851755" lon="12.838364741619138"><ele>760.3333333333334</ele><time>2026-04-11T10:43:00Z</time></trkpt><trkpt lat="43.269266533159524" lon="12.838480740247514"><ele>758.6666666666666</ele><time>2026-04-11T10:43:02Z</time></trkpt><trkpt lat="43.26925696005671" lon="12.838602577548253"><ele>757.0</ele><time>2026-04-11T10:43:04Z</time></trkpt><trkpt lat="43.26925099018582" lon="12.838718988316563"><ele>755.3333333333333</ele><time>2026-04-11T10:43:06Z</time></trkpt><trkpt lat="43.26924582660757" lon="12.838835998120835"><ele>753.6666666666666</ele><time>2026-04-11T10:43:08Z</time></trkpt><trkpt lat="43.26923889788102" lon="12.838942009230491"><ele>752.0</ele><time>2026-04-11T10:43:10Z</time></trkpt><trkpt lat="43.26922888229165" lon="12.839082291342747"><ele>752.0</ele><time>2026-04-11T10:43:12Z</time></trkpt><trkpt lat="43.26922398796512" lon="12.839183425092203"><ele>752.0</ele><time>2026-04-11T10:43:14Z</time></trkpt><trkpt lat="43.26922504991582" lon="12.839270646222873"><ele>752.0</ele><time>2026-04-11T10:43:16Z</time></trkpt><trkpt lat="43.269204569268425" lon="12.83936337168398"><ele>752.0</ele><time>2026-04-11T10:43:18Z</time></trkpt><trkpt lat="43.269189300061214" lon="12.83949539051162"><ele>752.0</ele><time>2026-04-11T10:43:20Z</time></trkpt><trkpt lat="43.26918609955444" lon="12.839664378678158"><ele>752.0</ele><time>2026-04-11T10:43:22Z</time></trkpt><trkpt lat="43.26918777373981" lon="12.839819678996788"><ele>750.3333333333333</ele><time>2026-04-11T10:43:24Z</time></trkpt><trkpt lat="43.269182743052184" lon="12.839973062699826"><ele>748.6666666666666</ele><time>2026-04-11T10:43:26Z</time></trkpt><trkpt lat="43.26917214927845" lon="12.840096723088557"><ele>747.0</ele><time>2026-04-11T10:43:28Z</time></trkpt><trkpt lat="43.26916651166148" lon="12.840192323983159"><ele>745.3333333333334</ele><time>2026-04-11T10:43:31Z</time></trkpt><trkpt lat="43.26915303446944" lon="12.840284706685878"><ele>743.6666666666667</ele><time>2026-04-11T10:43:41Z</time></trkpt><trkpt lat="43.26919197441265" lon="12.840391589607444"><ele>742.0</ele><time>2026-04-11T10:43:45Z</time></trkpt><trkpt lat="43.26925475188502" lon="12.840498005010335"><ele>739.5</ele><time>2026-04-11T10:43:48Z</time></trkpt><trkpt lat="43.26931277369652" lon="12.840541146914655"><ele>737.0</ele><time>2026-04-11T10:43:50Z</time></trkpt><trkpt lat="43.269377862088106" lon="12.840561029462645"><ele>734.5</ele><time>2026-04-11T10:43:52Z</time></trkpt><trkpt lat="43.26945511322093" lon="12.840562778667671"><ele>732.0</ele><time>2026-04-11T10:43:54Z</time></trkpt><trkpt lat="43.269567578593396" lon="12.840577811487455"><ele>729.5</ele><time>2026-04-11T10:43:56Z</time></trkpt><trkpt lat="43.26968572131587" lon="12.840590685638286"><ele>727.0</ele><time>2026-04-11T10:43:58Z</time></trkpt><trkpt lat="43.26981227840695" lon="12.84059950462457"><ele>724.8333333333334</ele><time>2026-04-11T10:44:00Z</time></trkpt><trkpt lat="43.269887200002984" lon="12.840578280354105"><ele>722.6666666666667</ele><time>2026-04-11T10:44:01Z</time></trkpt><trkpt lat="43.26995347468973" lon="12.840553566686086"><ele>720.5</ele><time>2026-04-11T10:44:02Z</time></trkpt><trkpt lat="43.270017255934725" lon="12.840534915686591"><ele>718.3333333333334</ele><time>2026-04-11T10:44:03Z</time></trkpt><trkpt lat="43.27007755676211" lon="12.840508857639765"><ele>716.1666666666666</ele><time>2026-04-11T10:44:04Z</time></trkpt><trkpt lat="43.27018595309274" lon="12.840450413165494"><ele>714.0</ele><time>2026-04-11T10:44:06Z</time></trkpt><trkpt lat="43.270285660247055" lon="12.84037943367066"><ele>714.0</ele><time>2026-04-11T10:44:08Z</time></trkpt><trkpt lat="43.270346516594685" lon="12.840344004769475"><ele>714.0</ele><time>2026-04-11T10:44:09Z</time></trkpt><trkpt lat="43.27041688701598" lon="12.840315475320894"><ele>714.0</ele><time>2026-04-11T10:44:10Z</time></trkpt><trkpt lat="43.27048178721694" lon="12.840328905810278"><ele>714.0</ele><time>2026-04-11T10:44:11Z</time></trkpt><trkpt lat="43.27054688957816" lon="12.840339789037063"><ele>714.0</ele><time>2026-04-11T10:44:12Z</time></trkpt><trkpt lat="43.27062153669773" lon="12.840347682106152"><ele>714.0</ele><time>2026-04-11T10:44:12.999Z</time></trkpt><trkpt lat="43.270694539859015" lon="12.840338013813763"><ele>714.0</ele><time>2026-04-11T10:44:13.999Z</time></trkpt><trkpt lat="43.27078343850595" lon="12.84030817073392"><ele>709.2</ele><time>2026-04-11T10:44:14.999Z</time></trkpt><trkpt lat="43.270865005196626" lon="12.840272438978209"><ele>704.4000000000001</ele><time>2026-04-11T10:44:15.999Z</time></trkpt><trkpt lat="43.270944305869236" lon="12.840249365929573"><ele>699.6</ele><time>2026-04-11T10:44:16.999Z</time></trkpt><trkpt lat="43.27104411079043" lon="12.84023537154952"><ele>694.8</ele><time>2026-04-11T10:44:17.999Z</time></trkpt><trkpt lat="43.27114656013409" lon="12.840236331505388"><ele>690.0</ele><time>2026-04-11T10:44:18.999Z</time></trkpt><trkpt lat="43.27124343818156" lon="12.840234712276905"><ele>690.0</ele><time>2026-04-11T10:44:19.999Z</time></trkpt><trkpt lat="43.27133372301971" lon="12.840232853388581"><ele>690.0</ele><time>2026-04-11T10:44:20.999Z</time></trkpt><trkpt lat="43.271420346176825" lon="12.840228628633813"><ele>690.0</ele><time>2026-04-11T10:44:21.999Z</time></trkpt><trkpt lat="43.2715126254543" lon="12.840229287970471"><ele>690.0</ele><time>2026-04-11T10:44:22.999Z</time></trkpt><trkpt lat="43.27161139215568" lon="12.84021418154918"><ele>690.0</ele><time>2026-04-11T10:44:23.999Z</time></trkpt><trkpt lat="43.27170568630191" lon="12.84020078972408"><ele>684.4</ele><time>2026-04-11T10:44:24.999Z</time></trkpt><trkpt lat="43.271795384377086" lon="12.840186734813535"><ele>678.8</ele><time>2026-04-11T10:44:25.999Z</time></trkpt><trkpt lat="43.27188799320528" lon="12.840173427405702"><ele>673.2</ele><time>2026-04-11T10:44:26.999Z</time></trkpt><trkpt lat="43.27198348135615" lon="12.84018372482769"><ele>667.6</ele><time>2026-04-11T10:44:27.999Z</time></trkpt><trkpt lat="43.272080467074154" lon="12.840206172110506"><ele>662.0</ele><time>2026-04-11T10:44:28.999Z</time></trkpt><trkpt lat="43.272182866390274" lon="12.840231017403955"><ele>658.4000000000001</ele><time>2026-04-11T10:44:29.999Z</time></trkpt><trkpt lat="43.272280485817056" lon="12.840242443582108"><ele>654.8000000000001</ele><time>2026-04-11T10:44:30.999Z</time></trkpt><trkpt lat="43.272384028630356" lon="12.840254017907856"><ele>651.2</ele><time>2026-04-11T10:44:31.999Z</time></trkpt><trkpt lat="43.27249270108779" lon="12.84027557373681"><ele>647.6</ele><time>2026-04-11T10:44:32.999Z</time></trkpt><trkpt lat="43.27259994539788" lon="12.840308159130853"><ele>644.0</ele><time>2026-04-11T10:44:33.999Z</time></trkpt><trkpt lat="43.27270720950527" lon="12.840338924923266"><ele>644.0</ele><time>2026-04-11T10:44:34.999Z</time></trkpt><trkpt lat="43.272812885294414" lon="12.84038051640822"><ele>644.0</ele><time>2026-04-11T10:44:35.999Z</time></trkpt><trkpt lat="43.272928014648556" lon="12.840408778660795"><ele>644.0</ele><time>2026-04-11T10:44:36.999Z</time></trkpt><trkpt lat="43.27304999124889" lon="12.840427186953685"><ele>644.0</ele><time>2026-04-11T10:44:37.999Z</time></trkpt><trkpt lat="43.27317013679421" lon="12.840462713466636"><ele>642.6</ele><time>2026-04-11T10:44:38.999Z</time></trkpt><trkpt lat="43.273276464417336" lon="12.840492204954083"><ele>641.2</ele><time>2026-04-11T10:44:39.999Z</time></trkpt><trkpt lat="43.273370313991876" lon="12.84052371497322"><ele>639.8000000000001</ele><time>2026-04-11T10:44:40.999Z</time></trkpt><trkpt lat="43.27345730543708" lon="12.840548664328859"><ele>638.4000000000001</ele><time>2026-04-11T10:44:41.999Z</time></trkpt><trkpt lat="43.27354201278982" lon="12.840583823960975"><ele>637.0</ele><time>2026-04-11T10:44:42.999Z</time></trkpt><trkpt lat="43.27361176613812" lon="12.840634247401738"><ele>637.0</ele><time>2026-04-11T10:44:43.999Z</time></trkpt><trkpt lat="43.273725643041715" lon="12.840655627024425"><ele>637.0</ele><time>2026-04-11T10:44:45.999Z</time></trkpt><trkpt lat="43.273850673511674" lon="12.840625322390983"><ele>637.0</ele><time>2026-04-11T10:44:47.999Z</time></trkpt><trkpt lat="43.27391455853468" lon="12.840587900510043"><ele>637.0</ele><time>2026-04-11T10:44:48.999Z</time></trkpt><trkpt lat="43.273974400395204" lon="12.840553410467923"><ele>637.0</ele><time>2026-04-11T10:44:49.999Z</time></trkpt><trkpt lat="43.27406737952778" lon="12.840451923786995"><ele>635.6666666666667</ele><time>2026-04-11T10:44:51.999Z</time></trkpt><trkpt lat="43.27412282664627" lon="12.840401398299477"><ele>634.3333333333334</ele><time>2026-04-11T10:44:52.999Z</time></trkpt><trkpt lat="43.27421510822825" lon="12.840325945735902"><ele>633.0</ele><time>2026-04-11T10:44:54.999Z</time></trkpt><trkpt lat="43.27429252866711" lon="12.840271920181825"><ele>631.6666666666666</ele><time>2026-04-11T10:44:56.999Z</time></trkpt><trkpt lat="43.274356367946154" lon="12.840266414081118"><ele>630.3333333333333</ele><time>2026-04-11T10:44:59.999Z</time></trkpt><trkpt lat="43.27436938866236" lon="12.84041166100466"><ele>629.0</ele><time>2026-04-11T10:45:02.999Z</time></trkpt><trkpt lat="43.274383051196295" lon="12.8405321356278"><ele>629.0</ele><time>2026-04-11T10:45:03.999Z</time></trkpt><trkpt lat="43.27437001099482" lon="12.840618567182226"><ele>629.0</ele><time>2026-04-11T10:45:04.999Z</time></trkpt><trkpt lat="43.274352545553576" lon="12.840762289498297"><ele>629.0</ele><time>2026-04-11T10:45:06.999Z</time></trkpt><trkpt lat="43.274349002716804" lon="12.84091952229446"><ele>629.0</ele><time>2026-04-11T10:45:08.999Z</time></trkpt><trkpt lat="43.27434811214933" lon="12.841015406001175"><ele>629.0</ele><time>2026-04-11T10:45:09.999Z</time></trkpt><trkpt lat="43.274345149152396" lon="12.841101777841502"><ele>629.0</ele><time>2026-04-11T10:45:10.999Z</time></trkpt><trkpt lat="43.27432127005642" lon="12.841220830356587"><ele>625.6666666666666</ele><time>2026-04-11T10:45:12.999Z</time></trkpt><trkpt lat="43.27437347239709" lon="12.841302632303936"><ele>622.3333333333333</ele><time>2026-04-11T10:45:14.999Z</time></trkpt><trkpt lat="43.2744830574515" lon="12.841342573645694"><ele>619.0</ele><time>2026-04-11T10:45:16.999Z</time></trkpt><trkpt lat="43.27454330658846" lon="12.84137750338494"><ele>615.6666666666666</ele><time>2026-04-11T10:45:17.999Z</time></trkpt><trkpt lat="43.27460514120819" lon="12.841416762257198"><ele>612.3333333333334</ele><time>2026-04-11T10:45:18.999Z</time></trkpt><trkpt lat="43.27465936805206" lon="12.841461555890236"><ele>609.0</ele><time>2026-04-11T10:45:19.999Z</time></trkpt><trkpt lat="43.2747224310742" lon="12.84150507529677"><ele>605.8</ele><time>2026-04-11T10:45:20.999Z</time></trkpt><trkpt lat="43.27483269718288" lon="12.841556985295393"><ele>602.5999999999999</ele><time>2026-04-11T10:45:22.999Z</time></trkpt><trkpt lat="43.27492935106569" lon="12.841581050408426"><ele>599.4</ele><time>2026-04-11T10:45:24.999Z</time></trkpt><trkpt lat="43.275053873085" lon="12.841585034486126"><ele>596.1999999999999</ele><time>2026-04-11T10:45:26.999Z</time></trkpt><trkpt lat="43.27512069921217" lon="12.841580101157847"><ele>593.0</ele><time>2026-04-11T10:45:27.999Z</time></trkpt><trkpt lat="43.27518584561989" lon="12.841578770414776"><ele>593.0</ele><time>2026-04-11T10:45:28.999Z</time></trkpt><trkpt lat="43.27525133997534" lon="12.841572335673451"><ele>593.0</ele><time>2026-04-11T10:45:29.999Z</time></trkpt><trkpt lat="43.27532135979357" lon="12.84158807439292"><ele>593.0</ele><time>2026-04-11T10:45:30.999Z</time></trkpt><trkpt lat="43.2754014893981" lon="12.841613062551655"><ele>593.0</ele><time>2026-04-11T10:45:31.999Z</time></trkpt><trkpt lat="43.275478636766444" lon="12.841615559113565"><ele>593.0</ele><time>2026-04-11T10:45:32.999Z</time></trkpt><trkpt lat="43.27555694826112" lon="12.841610572338341"><ele>593.0</ele><time>2026-04-11T10:45:33.999Z</time></trkpt><trkpt lat="43.27563816185627" lon="12.841611709350802"><ele>590.5714285714286</ele><time>2026-04-11T10:45:34.999Z</time></trkpt><trkpt lat="43.2757156575473" lon="12.84160638913672"><ele>588.1428571428571</ele><time>2026-04-11T10:45:35.999Z</time></trkpt><trkpt lat="43.275787050575644" lon="12.841593914124745"><ele>585.7142857142858</ele><time>2026-04-11T10:45:36.999Z</time></trkpt><trkpt lat="43.27585373889546" lon="12.841575250343448"><ele>583.2857142857142</ele><time>2026-04-11T10:45:37.999Z</time></trkpt><trkpt lat="43.27591714041196" lon="12.841551246572568"><ele>580.8571428571429</ele><time>2026-04-11T10:45:38.999Z</time></trkpt><trkpt lat="43.27598480002954" lon="12.841548995474843"><ele>578.4285714285714</ele><time>2026-04-11T10:45:39.999Z</time></trkpt><trkpt lat="43.27605602433962" lon="12.841557331274934"><ele>576.0</ele><time>2026-04-11T10:45:40.999Z</time></trkpt><trkpt lat="43.27612507332981" lon="12.841555929387154"><ele>576.0</ele><time>2026-04-11T10:45:41.999Z</time></trkpt><trkpt lat="43.276225153961164" lon="12.841452704752843"><ele>576.0</ele><time>2026-04-11T10:45:43.999Z</time></trkpt><trkpt lat="43.27625863774489" lon="12.841366306831903"><ele>576.0</ele><time>2026-04-11T10:45:44.999Z</time></trkpt><trkpt lat="43.27630136275647" lon="12.841282172605457"><ele>576.0</ele><time>2026-04-11T10:45:45.999Z</time></trkpt><trkpt lat="43.27634612046286" lon="12.841190668537608"><ele>576.0</ele><time>2026-04-11T10:45:46.999Z</time></trkpt><trkpt lat="43.27638877792948" lon="12.841101005074302"><ele>576.0</ele><time>2026-04-11T10:45:47.999Z</time></trkpt><trkpt lat="43.2764277479353" lon="12.841014963249004"><ele>573.6</ele><time>2026-04-11T10:45:48.999Z</time></trkpt><trkpt lat="43.276462669252105" lon="12.840939526931791"><ele>571.2</ele><time>2026-04-11T10:45:49.999Z</time></trkpt><trkpt lat="43.27653257573903" lon="12.840796507166095"><ele>568.8</ele><time>2026-04-11T10:45:51.999Z</time></trkpt><trkpt lat="43.27660020362656" lon="12.840680036552405"><ele>566.4</ele><time>2026-04-11T10:45:53.999Z</time></trkpt><trkpt lat="43.27669338290685" lon="12.840630531688394"><ele>564.0</ele><time>2026-04-11T10:45:55.999Z</time></trkpt><trkpt lat="43.276796179099435" lon="12.84062958562749"><ele>564.0</ele><time>2026-04-11T10:45:57.999Z</time></trkpt><trkpt lat="43.27689365904947" lon="12.840654620687717"><ele>564.0</ele><time>2026-04-11T10:45:59.999Z</time></trkpt><trkpt lat="43.27697715640241" lon="12.840751401819587"><ele>564.0</ele><time>2026-04-11T10:46:01.999Z</time></trkpt><trkpt lat="43.27707479479155" lon="12.840863916262743"><ele>564.0</ele><time>2026-04-11T10:46:03.999Z</time></trkpt><trkpt lat="43.27714218433544" lon="12.840992083596232"><ele>563.0</ele><time>2026-04-11T10:46:05.999Z</time></trkpt><trkpt lat="43.27719172918689" lon="12.841110461211901"><ele>562.0</ele><time>2026-04-11T10:46:07.999Z</time></trkpt><trkpt lat="43.27722497494025" lon="12.841230508341392"><ele>561.0</ele><time>2026-04-11T10:46:09.999Z</time></trkpt><trkpt lat="43.2772653753106" lon="12.841341713814298"><ele>560.0</ele><time>2026-04-11T10:46:11.999Z</time></trkpt><trkpt lat="43.27730515507651" lon="12.841445989629058"><ele>559.0</ele><time>2026-04-11T10:46:13.999Z</time></trkpt><trkpt lat="43.27736973281545" lon="12.841540716946733"><ele>555.4</ele><time>2026-04-11T10:46:15.999Z</time></trkpt><trkpt lat="43.27742802040466" lon="12.841656651499127"><ele>551.8</ele><time>2026-04-11T10:46:17.999Z</time></trkpt><trkpt lat="43.277425485983876" lon="12.841828856574363"><ele>548.2</ele><time>2026-04-11T10:46:19.999Z</time></trkpt><trkpt lat="43.27745615642026" lon="12.841909049583663"><ele>544.6</ele><time>2026-04-11T10:46:20.999Z</time></trkpt><trkpt lat="43.2774945168742" lon="12.841982213429665"><ele>541.0</ele><time>2026-04-11T10:46:21.999Z</time></trkpt><trkpt lat="43.27758733221442" lon="12.842084385467292"><ele>540.8</ele><time>2026-04-11T10:46:23.999Z</time></trkpt><trkpt lat="43.277664952303404" lon="12.842143064555701"><ele>540.6</ele><time>2026-04-11T10:46:25.999Z</time></trkpt><trkpt lat="43.277746823201404" lon="12.84219165769331"><ele>540.4</ele><time>2026-04-11T10:46:27.999Z</time></trkpt><trkpt lat="43.277832888384715" lon="12.84223763341401"><ele>540.2</ele><time>2026-04-11T10:46:29.999Z</time></trkpt><trkpt lat="43.27790491224438" lon="12.84224952605621"><ele>540.0</ele><time>2026-04-11T10:46:30.999Z</time></trkpt><trkpt lat="43.2780153847512" lon="12.842280741232416"><ele>538.8</ele><time>2026-04-11T10:46:32.999Z</time></trkpt><trkpt lat="43.27811933023583" lon="12.842314165842451"><ele>537.6</ele><time>2026-04-11T10:46:34.999Z</time></trkpt><trkpt lat="43.278239874461754" lon="12.842349433563527"><ele>536.4</ele><time>2026-04-11T10:46:36.999Z</time></trkpt><trkpt lat="43.27831448656889" lon="12.842363472144292"><ele>535.2</ele><time>2026-04-11T10:46:37.999Z</time></trkpt><trkpt lat="43.27838365152862" lon="12.842371071721605"><ele>534.0</ele><time>2026-04-11T10:46:38.999Z</time></trkpt><trkpt lat="43.2785262440677" lon="12.842369966811821"><ele>534.0</ele><time>2026-04-11T10:46:40.999Z</time></trkpt><trkpt lat="43.27861170880807" lon="12.84236325431111"><ele>534.0</ele><time>2026-04-11T10:46:41.999Z</time></trkpt><trkpt lat="43.278699778964956" lon="12.842351297698302"><ele>534.0</ele><time>2026-04-11T10:46:42.999Z</time></trkpt><trkpt lat="43.27878520894074" lon="12.842333215643068"><ele>534.0</ele><time>2026-04-11T10:46:43.999Z</time></trkpt><trkpt lat="43.27886295925126" lon="12.84230657959028"><ele>534.0</ele><time>2026-04-11T10:46:44.999Z</time></trkpt><trkpt lat="43.27894225580476" lon="12.84227886768109"><ele>534.0</ele><time>2026-04-11T10:46:45.999Z</time></trkpt><trkpt lat="43.279013590056195" lon="12.842263088837676"><ele>532.6666666666666</ele><time>2026-04-11T10:46:46.999Z</time></trkpt><trkpt lat="43.27907693713853" lon="12.84225647331159"><ele>531.3333333333334</ele><time>2026-04-11T10:46:47.999Z</time></trkpt><trkpt lat="43.279146382989786" lon="12.842276112509936"><ele>530.0</ele><time>2026-04-11T10:46:48.999Z</time></trkpt><trkpt lat="43.27921488058827" lon="12.842279956778471"><ele>528.6666666666667</ele><time>2026-04-11T10:46:49.999Z</time></trkpt><trkpt lat="43.2793120176017" lon="12.842346691387831"><ele>527.3333333333334</ele><time>2026-04-11T10:46:51.999Z</time></trkpt><trkpt lat="43.279387972346555" lon="12.842389997967773"><ele>526.0</ele><time>2026-04-11T10:46:52.999Z</time></trkpt><trkpt lat="43.2794231338921" lon="12.84246892594264"><ele>526.0</ele><time>2026-04-11T10:46:53.999Z</time></trkpt><trkpt lat="43.279428634264484" lon="12.842564658424802"><ele>526.0</ele><time>2026-04-11T10:46:54.999Z</time></trkpt><trkpt lat="43.279435486438366" lon="12.842654253354738"><ele>526.0</ele><time>2026-04-11T10:46:55.999Z</time></trkpt><trkpt lat="43.27933104498947" lon="12.842790200106611"><ele>526.0</ele><time>2026-04-11T10:46:57.999Z</time></trkpt><trkpt lat="43.27924308664384" lon="12.842745810869273"><ele>526.0</ele><time>2026-04-11T10:46:59.999Z</time></trkpt><trkpt lat="43.27916961427024" lon="12.84272150121887"><ele>526.0</ele><time>2026-04-11T10:47:00.999Z</time></trkpt><trkpt lat="43.27907848834353" lon="12.84271982824166"><ele>525.3333333333334</ele><time>2026-04-11T10:47:01.999Z</time></trkpt><trkpt lat="43.27899162901593" lon="12.84272980878557"><ele>524.6666666666667</ele><time>2026-04-11T10:47:02.999Z</time></trkpt><trkpt lat="43.27891377952879" lon="12.842744022605117"><ele>524.0</ele><time>2026-04-11T10:47:03.999Z</time></trkpt><trkpt lat="43.27883339355873" lon="12.842764273397245"><ele>523.3333333333334</ele><time>2026-04-11T10:47:04.999Z</time></trkpt><trkpt lat="43.27875971839883" lon="12.842788083062288"><ele>522.6666666666666</ele><time>2026-04-11T10:47:05.999Z</time></trkpt><trkpt lat="43.2786851735289" lon="12.842813756278572"><ele>522.0</ele><time>2026-04-11T10:47:06.999Z</time></trkpt><trkpt lat="43.27861331304029" lon="12.842841760260598"><ele>522.0</ele><time>2026-04-11T10:47:07.999Z</time></trkpt><trkpt lat="43.27854861805816" lon="12.842868886802465"><ele>522.0</ele><time>2026-04-11T10:47:08.999Z</time></trkpt><trkpt lat="43.27848690262386" lon="12.842905344732294"><ele>522.0</ele><time>2026-04-11T10:47:09.999Z</time></trkpt><trkpt lat="43.27842240159831" lon="12.842923370869498"><ele>522.0</ele><time>2026-04-11T10:47:10.999Z</time></trkpt><trkpt lat="43.27835601609589" lon="12.84299125188892"><ele>522.0</ele><time>2026-04-11T10:47:12.999Z</time></trkpt><trkpt lat="43.27841458314567" lon="12.84293926482527"><ele>522.0</ele><time>2026-04-11T10:47:13.999Z</time></trkpt><trkpt lat="43.278458853137245" lon="12.843132915702785"><ele>522.0</ele><time>2026-04-11T10:47:15.999Z</time></trkpt><trkpt lat="43.27854679491833" lon="12.843135300027482"><ele>522.0</ele><time>2026-04-11T10:47:16.999Z</time></trkpt><trkpt lat="43.27861867715255" lon="12.843115115947027"><ele>522.0</ele><time>2026-04-11T10:47:17.999Z</time></trkpt><trkpt lat="43.27869047698513" lon="12.843083978719234"><ele>522.0</ele><time>2026-04-11T10:47:18.999Z</time></trkpt><trkpt lat="43.27876115364814" lon="12.843041700867511"><ele>522.0</ele><time>2026-04-11T10:47:19.999Z</time></trkpt><trkpt lat="43.27881915967536" lon="12.843004312478449"><ele>522.0</ele><time>2026-04-11T10:47:20.999Z</time></trkpt><trkpt lat="43.278971903296394" lon="12.842850577480254"><ele>520.8333333333334</ele><time>2026-04-11T10:47:22.999Z</time></trkpt><trkpt lat="43.279031659278914" lon="12.842903467717653"><ele>519.6666666666666</ele><time>2026-04-11T10:47:23.999Z</time></trkpt><trkpt lat="43.27912480656186" lon="12.843050408594006"><ele>518.5</ele><time>2026-04-11T10:47:25.999Z</time></trkpt><trkpt lat="43.279170435571515" lon="12.843142434374561"><ele>517.3333333333333</ele><time>2026-04-11T10:47:26.999Z</time></trkpt><trkpt lat="43.279211132039805" lon="12.84322428805375"><ele>516.1666666666666</ele><time>2026-04-11T10:47:27.999Z</time></trkpt><trkpt lat="43.279258773839615" lon="12.843314232192826"><ele>515.0</ele><time>2026-04-11T10:47:28.999Z</time></trkpt><trkpt lat="43.27930159676091" lon="12.843398017031207"><ele>510.49999999999994</ele><time>2026-04-11T10:47:29.999Z</time></trkpt><trkpt lat="43.27933704720595" lon="12.843500084415163"><ele>506.0</ele><time>2026-04-11T10:47:30.999Z</time></trkpt><trkpt lat="43.279420942608326" lon="12.843540166645123"><ele>501.5</ele><time>2026-04-11T10:47:31.999Z</time></trkpt><trkpt lat="43.27950144418411" lon="12.843592342709188"><ele>497.0</ele><time>2026-04-11T10:47:32.999Z</time></trkpt><trkpt lat="43.27958314384207" lon="12.843608212489542"><ele>492.49999999999994</ele><time>2026-04-11T10:47:33.999Z</time></trkpt><trkpt lat="43.27965927151328" lon="12.84360147740233"><ele>488.0</ele><time>2026-04-11T10:47:34.999Z</time></trkpt><trkpt lat="43.27973231954124" lon="12.8436356820446"><ele>488.4</ele><time>2026-04-11T10:47:35.999Z</time></trkpt><trkpt lat="43.27980486920431" lon="12.843645902989877"><ele>488.79999999999995</ele><time>2026-04-11T10:47:36.999Z</time></trkpt><trkpt lat="43.27992846324927" lon="12.843663315193593"><ele>489.2</ele><time>2026-04-11T10:47:38.999Z</time></trkpt><trkpt lat="43.28005568991242" lon="12.843676260447422"><ele>489.6</ele><time>2026-04-11T10:47:40.999Z</time></trkpt><trkpt lat="43.28012277268369" lon="12.843613495374143"><ele>490.0</ele><time>2026-04-11T10:47:41.999Z</time></trkpt><trkpt lat="43.28006262186111" lon="12.843778782127718"><ele>490.00000000000006</ele><time>2026-04-11T10:47:44.999Z</time></trkpt><trkpt lat="43.279975629155" lon="12.84376259303973"><ele>490.0</ele><time>2026-04-11T10:47:46.999Z</time></trkpt><trkpt lat="43.279889905164175" lon="12.843757840703324"><ele>490.0</ele><time>2026-04-11T10:47:48.999Z</time></trkpt><trkpt lat="43.2797868213881" lon="12.843772199138815"><ele>490.0</ele><time>2026-04-11T10:47:50.999Z</time></trkpt><trkpt lat="43.27970738197971" lon="12.843767628660226"><ele>490.00000000000006</ele><time>2026-04-11T10:47:51.999Z</time></trkpt><trkpt lat="43.27961603020069" lon="12.843765305052946"><ele>490.0</ele><time>2026-04-11T10:47:52.999Z</time></trkpt><trkpt lat="43.27952130278911" lon="12.84373269442696"><ele>489.6</ele><time>2026-04-11T10:47:53.999Z</time></trkpt><trkpt lat="43.27942485588548" lon="12.843719409969262"><ele>489.2</ele><time>2026-04-11T10:47:54.999Z</time></trkpt><trkpt lat="43.27933186249518" lon="12.843697357832166"><ele>488.79999999999995</ele><time>2026-04-11T10:47:56Z</time></trkpt><trkpt lat="43.27924537692313" lon="12.84366391755874"><ele>488.4</ele><time>2026-04-11T10:47:57Z</time></trkpt><trkpt lat="43.279174545701736" lon="12.84360808391654"><ele>488.0</ele><time>2026-04-11T10:47:58Z</time></trkpt><trkpt lat="43.279091774735626" lon="12.843548624166134"><ele>487.99999999999994</ele><time>2026-04-11T10:47:59Z</time></trkpt><trkpt lat="43.27901583786286" lon="12.843497900179543"><ele>488.0</ele><time>2026-04-11T10:48:00Z</time></trkpt><trkpt lat="43.27894313296633" lon="12.843454567372099"><ele>488.0</ele><time>2026-04-11T10:48:01Z</time></trkpt><trkpt lat="43.27887277219991" lon="12.843437112090587"><ele>488.0</ele><time>2026-04-11T10:48:02Z</time></trkpt><trkpt lat="43.278814862189755" lon="12.843488724911248"><ele>487.99999999999994</ele><time>2026-04-11T10:48:03Z</time></trkpt><trkpt lat="43.27889450616459" lon="12.843569946008667"><ele>488.0</ele><time>2026-04-11T10:48:08Z</time></trkpt><trkpt lat="43.278977276866904" lon="12.843600099093043"><ele>488.0</ele><time>2026-04-11T10:48:09Z</time></trkpt><trkpt lat="43.27905331729702" lon="12.843643086883871"><ele>487.99999999999994</ele><time>2026-04-11T10:48:10Z</time></trkpt><trkpt lat="43.27910902910948" lon="12.843791612057409"><ele>487.99999999999994</ele><time>2026-04-11T10:48:11Z</time></trkpt><trkpt lat="43.27918582596071" lon="12.843832419395232"><ele>488.0</ele><time>2026-04-11T10:48:12Z</time></trkpt><trkpt lat="43.27926953721742" lon="12.843877105473151"><ele>488.0</ele><time>2026-04-11T10:48:13Z</time></trkpt><trkpt lat="43.279352795847394" lon="12.843920225679817"><ele>488.0</ele><time>2026-04-11T10:48:14Z</time></trkpt><trkpt lat="43.27944324524714" lon="12.843951531640633"><ele>487.99999999999994</ele><time>2026-04-11T10:48:15Z</time></trkpt><trkpt lat="43.279524624265555" lon="12.843985290096658"><ele>487.99999999999994</ele><time>2026-04-11T10:48:16Z</time></trkpt><trkpt lat="43.27961103318095" lon="12.844027481259394"><ele>488.0</ele><time>2026-04-11T10:48:17Z</time></trkpt><trkpt lat="43.279707071299605" lon="12.844053420359128"><ele>488.0</ele><time>2026-04-11T10:48:18Z</time></trkpt><trkpt lat="43.27980557880684" lon="12.84407864763019"><ele>488.4</ele><time>2026-04-11T10:48:19Z</time></trkpt><trkpt lat="43.279901149396544" lon="12.844083272061873"><ele>488.79999999999995</ele><time>2026-04-11T10:48:20Z</time></trkpt><trkpt lat="43.27999248178224" lon="12.84410572908865"><ele>489.2</ele><time>2026-04-11T10:48:21Z</time></trkpt><trkpt lat="43.28009135593471" lon="12.844132183802499"><ele>489.6</ele><time>2026-04-11T10:48:22Z</time></trkpt><trkpt lat="43.28017395715436" lon="12.844165740921557"><ele>490.0</ele><time>2026-04-11T10:48:23Z</time></trkpt><trkpt lat="43.28025744029796" lon="12.84418280537343"><ele>490.00000000000006</ele><time>2026-04-11T10:48:24Z</time></trkpt><trkpt lat="43.28034119869688" lon="12.844199750251269"><ele>490.0</ele><time>2026-04-11T10:48:25Z</time></trkpt><trkpt lat="43.28042200340732" lon="12.844215682508588"><ele>490.0</ele><time>2026-04-11T10:48:26Z</time></trkpt><trkpt lat="43.28050054299839" lon="12.844231168118393"><ele>490.0</ele><time>2026-04-11T10:48:27Z</time></trkpt><trkpt lat="43.28058626622206" lon="12.844232427306313"><ele>490.00000000000006</ele><time>2026-04-11T10:48:28Z</time></trkpt><trkpt lat="43.280670831920276" lon="12.84427279517888"><ele>490.0</ele><time>2026-04-11T10:48:29Z</time></trkpt><trkpt lat="43.280762762513724" lon="12.84427223368014"><ele>489.6</ele><time>2026-04-11T10:48:30Z</time></trkpt><trkpt lat="43.28086159285288" lon="12.844297336443557"><ele>489.2</ele><time>2026-04-11T10:48:31Z</time></trkpt><trkpt lat="43.28097091366197" lon="12.844289869261404"><ele>488.79999999999995</ele><time>2026-04-11T10:48:32Z</time></trkpt><trkpt lat="43.281082522874826" lon="12.844268111532628"><ele>488.4</ele><time>2026-04-11T10:48:33Z</time></trkpt><trkpt lat="43.281191183701566" lon="12.844236810235627"><ele>488.0</ele><time>2026-04-11T10:48:34Z</time></trkpt><trkpt lat="43.281301378796" lon="12.84420359647582"><ele>488.0</ele><time>2026-04-11T10:48:35Z</time></trkpt><trkpt lat="43.28140771350879" lon="12.844165889383312"><ele>487.99999999999994</ele><time>2026-04-11T10:48:36Z</time></trkpt><trkpt lat="43.28149894213127" lon="12.844116209979987"><ele>487.99999999999994</ele><time>2026-04-11T10:48:37Z</time></trkpt><trkpt lat="43.28159830375312" lon="12.844093629838396"><ele>488.0</ele><time>2026-04-11T10:48:38Z</time></trkpt><trkpt lat="43.28167404794211" lon="12.844013110232586"><ele>488.0</ele><time>2026-04-11T10:48:39Z</time></trkpt><trkpt lat="43.28172679866531" lon="12.843926715513536"><ele>484.8333333333333</ele><time>2026-04-11T10:48:40Z</time></trkpt><trkpt lat="43.281770725041724" lon="12.843854773442345"><ele>481.66666666666663</ele><time>2026-04-11T10:48:41Z</time></trkpt><trkpt lat="43.28178244325583" lon="12.843721067052758"><ele>478.5</ele><time>2026-04-11T10:48:42Z</time></trkpt><trkpt lat="43.28184709494538" lon="12.843711719059002"><ele>475.33333333333337</ele><time>2026-04-11T10:48:43Z</time></trkpt><trkpt lat="43.281912316879" lon="12.84371116357964"><ele>472.1666666666667</ele><time>2026-04-11T10:48:44Z</time></trkpt><trkpt lat="43.282035124476266" lon="12.843793308604226"><ele>469.0</ele><time>2026-04-11T10:48:45Z</time></trkpt><trkpt lat="43.28211189977454" lon="12.84389239610396"><ele>469.0</ele><time>2026-04-11T10:48:46Z</time></trkpt><trkpt lat="43.28219115682107" lon="12.843996492679524"><ele>469.0</ele><time>2026-04-11T10:48:47Z</time></trkpt><trkpt lat="43.28227075027461" lon="12.844101031207897"><ele>469.0</ele><time>2026-04-11T10:48:48Z</time></trkpt><trkpt lat="43.28235017757812" lon="12.844208060532932"><ele>469.0</ele><time>2026-04-11T10:48:49Z</time></trkpt><trkpt lat="43.28242849807429" lon="12.844313690194147"><ele>469.0</ele><time>2026-04-11T10:48:50Z</time></trkpt><trkpt lat="43.282501034516" lon="12.844411519018898"><ele>466.4</ele><time>2026-04-11T10:48:51Z</time></trkpt><trkpt lat="43.28257310613316" lon="12.84450872088625"><ele>463.79999999999995</ele><time>2026-04-11T10:48:52Z</time></trkpt><trkpt lat="43.28264505765116" lon="12.844605760749676"><ele>461.20000000000005</ele><time>2026-04-11T10:48:53Z</time></trkpt><trkpt lat="43.282713168742525" lon="12.844703072127205"><ele>458.6</ele><time>2026-04-11T10:48:54Z</time></trkpt><trkpt lat="43.28278386511088" lon="12.844781985117416"><ele>456.0</ele><time>2026-04-11T10:48:55Z</time></trkpt><trkpt lat="43.282852205350515" lon="12.844861880337744"><ele>456.0</ele><time>2026-04-11T10:48:56Z</time></trkpt><trkpt lat="43.282918655423835" lon="12.844945300809366"><ele>456.0</ele><time>2026-04-11T10:48:57Z</time></trkpt><trkpt lat="43.2829764830924" lon="12.845020824300086"><ele>456.0</ele><time>2026-04-11T10:48:58Z</time></trkpt><trkpt lat="43.28302533296837" lon="12.845083748074046"><ele>456.0</ele><time>2026-04-11T10:48:59Z</time></trkpt><trkpt lat="43.283097501571866" lon="12.845171064076515"><ele>456.0</ele><time>2026-04-11T10:49:01Z</time></trkpt><trkpt lat="43.28314755088908" lon="12.845235479918848"><ele>456.0</ele><time>2026-04-11T10:49:03Z</time></trkpt><trkpt lat="43.283237688644284" lon="12.845308808157943"><ele>461.0</ele><time>2026-04-11T10:49:21Z</time></trkpt><trkpt lat="43.28340932349139" lon="12.845477278368385"><ele>466.0</ele><time>2026-04-11T10:49:23Z</time></trkpt><trkpt lat="43.28351998822383" lon="12.845443897126032"><ele>471.0</ele><time>2026-04-11T10:49:24Z</time></trkpt><trkpt lat="43.28362687185066" lon="12.84539722549571"><ele>476.0</ele><time>2026-04-11T10:49:25Z</time></trkpt><trkpt lat="43.283742927920436" lon="12.845328049785023"><ele>476.0</ele><time>2026-04-11T10:49:26Z</time></trkpt><trkpt lat="43.28385021996578" lon="12.845233126253321"><ele>476.0</ele><time>2026-04-11T10:49:27Z</time></trkpt><trkpt lat="43.283943930764316" lon="12.845117892803751"><ele>476.0</ele><time>2026-04-11T10:49:28Z</time></trkpt><trkpt lat="43.28401293987907" lon="12.845001470722911"><ele>476.0</ele><time>2026-04-11T10:49:29Z</time></trkpt><trkpt lat="43.28407275015653" lon="12.844882059041563"><ele>475.0</ele><time>2026-04-11T10:49:30Z</time></trkpt><trkpt lat="43.28412842851971" lon="12.844766430367303"><ele>474.0</ele><time>2026-04-11T10:49:31Z</time></trkpt><trkpt lat="43.28418581548121" lon="12.844643506303056"><ele>473.0</ele><time>2026-04-11T10:49:32Z</time></trkpt><trkpt lat="43.284242199787826" lon="12.844515308152204"><ele>472.0</ele><time>2026-04-11T10:49:33Z</time></trkpt><trkpt lat="43.28429496563483" lon="12.844389085543833"><ele>471.0</ele><time>2026-04-11T10:49:34Z</time></trkpt><trkpt lat="43.28433026858716" lon="12.844253202141783"><ele>468.20000000000005</ele><time>2026-04-11T10:49:35Z</time></trkpt><trkpt lat="43.28437996754064" lon="12.844125564349026"><ele>465.40000000000003</ele><time>2026-04-11T10:49:36Z</time></trkpt><trkpt lat="43.284425093583806" lon="12.843989395378257"><ele>462.6</ele><time>2026-04-11T10:49:37Z</time></trkpt><trkpt lat="43.28446297951202" lon="12.843844144109752"><ele>459.8</ele><time>2026-04-11T10:49:38Z</time></trkpt><trkpt lat="43.28449754143744" lon="12.843686474795001"><ele>457.0</ele><time>2026-04-11T10:49:39Z</time></trkpt><trkpt lat="43.28452465575942" lon="12.84351457121592"><ele>455.75</ele><time>2026-04-11T10:49:40Z</time></trkpt><trkpt lat="43.28454589988708" lon="12.84334218693767"><ele>454.5</ele><time>2026-04-11T10:49:41Z</time></trkpt><trkpt lat="43.284568949548316" lon="12.843165770912183"><ele>453.25</ele><time>2026-04-11T10:49:42Z</time></trkpt><trkpt lat="43.28458989396108" lon="12.842986280474154"><ele>452.0</ele><time>2026-04-11T10:49:43Z</time></trkpt><trkpt lat="43.284608011851994" lon="12.84280751447258"><ele>452.25</ele><time>2026-04-11T10:49:44Z</time></trkpt><trkpt lat="43.28459244414809" lon="12.842624631695093"><ele>452.5</ele><time>2026-04-11T10:49:45Z</time></trkpt><trkpt lat="43.28461226152398" lon="12.84245957636662"><ele>452.75</ele><time>2026-04-11T10:49:46Z</time></trkpt><trkpt lat="43.28464959589994" lon="12.842295521312725"><ele>453.0</ele><time>2026-04-11T10:49:47Z</time></trkpt><trkpt lat="43.284675527484325" lon="12.842127167462635"><ele>453.0</ele><time>2026-04-11T10:49:48Z</time></trkpt><trkpt lat="43.28471024354229" lon="12.841961993385182"><ele>453.0</ele><time>2026-04-11T10:49:49Z</time></trkpt><trkpt lat="43.284757313240426" lon="12.841801293625217"><ele>453.0</ele><time>2026-04-11T10:49:50Z</time></trkpt><trkpt lat="43.28481543778185" lon="12.841655578127568"><ele>453.0</ele><time>2026-04-11T10:49:51Z</time></trkpt><trkpt lat="43.284878800871184" lon="12.84152588787911"><ele>451.0</ele><time>2026-04-11T10:49:52Z</time></trkpt><trkpt lat="43.28495210160375" lon="12.841398127939325"><ele>449.0</ele><time>2026-04-11T10:49:53Z</time></trkpt><trkpt lat="43.28502291962173" lon="12.841260397315406"><ele>447.0</ele><time>2026-04-11T10:49:54Z</time></trkpt><trkpt lat="43.28512324391176" lon="12.841148746552767"><ele>445.0</ele><time>2026-04-11T10:49:55Z</time></trkpt><trkpt lat="43.28524228468878" lon="12.841065356605318"><ele>445.0</ele><time>2026-04-11T10:49:56Z</time></trkpt><trkpt lat="43.28536600519931" lon="12.840969901936944"><ele>445.0</ele><time>2026-04-11T10:49:57Z</time></trkpt><trkpt lat="43.285481432762595" lon="12.840862408609022"><ele>445.0</ele><time>2026-04-11T10:49:58Z</time></trkpt><trkpt lat="43.28560686158644" lon="12.840779963470688"><ele>445.0</ele><time>2026-04-11T10:49:59Z</time></trkpt><trkpt lat="43.28573541749485" lon="12.84069261139231"><ele>445.25</ele><time>2026-04-11T10:50:00Z</time></trkpt><trkpt lat="43.28585877326079" lon="12.840605176447339"><ele>445.5</ele><time>2026-04-11T10:50:01Z</time></trkpt><trkpt lat="43.28598797321779" lon="12.840536227750967"><ele>445.75</ele><time>2026-04-11T10:50:02Z</time></trkpt><trkpt lat="43.28611645748533" lon="12.8404482029465"><ele>446.0</ele><time>2026-04-11T10:50:03Z</time></trkpt><trkpt lat="43.28624195308046" lon="12.840362641392908"><ele>446.0</ele><time>2026-04-11T10:50:04Z</time></trkpt><trkpt lat="43.286365203621244" lon="12.840278726387327"><ele>446.0</ele><time>2026-04-11T10:50:05Z</time></trkpt><trkpt lat="43.28648692243846" lon="12.840196578124786"><ele>446.0</ele><time>2026-04-11T10:50:06Z</time></trkpt><trkpt lat="43.286615938089625" lon="12.84010951515491"><ele>446.0</ele><time>2026-04-11T10:50:07Z</time></trkpt><trkpt lat="43.28674423197305" lon="12.839998796266018"><ele>446.0</ele><time>2026-04-11T10:50:08Z</time></trkpt><trkpt lat="43.28688734064371" lon="12.839928451998107"><ele>446.0</ele><time>2026-04-11T10:50:09Z</time></trkpt><trkpt lat="43.28703044028921" lon="12.839836233289159"><ele>446.0</ele><time>2026-04-11T10:50:10Z</time></trkpt><trkpt lat="43.28718264672057" lon="12.839739236441186"><ele>444.0</ele><time>2026-04-11T10:50:11Z</time></trkpt><trkpt lat="43.287332111018586" lon="12.839645630244826"><ele>442.0</ele><time>2026-04-11T10:50:12Z</time></trkpt><trkpt lat="43.28746879794881" lon="12.839560026168984"><ele>440.0</ele><time>2026-04-11T10:50:13Z</time></trkpt><trkpt lat="43.287597009777656" lon="12.839480209218653"><ele>440.0</ele><time>2026-04-11T10:50:14Z</time></trkpt><trkpt lat="43.287724162070106" lon="12.8394016241365"><ele>440.0</ele><time>2026-04-11T10:50:15Z</time></trkpt><trkpt lat="43.287843328215125" lon="12.839327974759033"><ele>440.0</ele><time>2026-04-11T10:50:16Z</time></trkpt><trkpt lat="43.28797658962062" lon="12.839223370353139"><ele>440.0</ele><time>2026-04-11T10:50:17Z</time></trkpt><trkpt lat="43.28811360594075" lon="12.83914426935396"><ele>440.0</ele><time>2026-04-11T10:50:18Z</time></trkpt><trkpt lat="43.28824813937307" lon="12.839058254207576"><ele>440.0</ele><time>2026-04-11T10:50:19Z</time></trkpt><trkpt lat="43.28839619749817" lon="12.839059640125727"><ele>440.0</ele><time>2026-04-11T10:50:20Z</time></trkpt><trkpt lat="43.288532513793214" lon="12.838996225926595"><ele>440.0</ele><time>2026-04-11T10:50:21Z</time></trkpt><trkpt lat="43.28866997574791" lon="12.838953543851119"><ele>440.0</ele><time>2026-04-11T10:50:22Z</time></trkpt><trkpt lat="43.288811383659926" lon="12.838931048895285"><ele>440.0</ele><time>2026-04-11T10:50:23Z</time></trkpt><trkpt lat="43.288963505647594" lon="12.838935823364034"><ele>440.0</ele><time>2026-04-11T10:50:24Z</time></trkpt><trkpt lat="43.28911112520938" lon="12.838927349156878"><ele>440.0</ele><time>2026-04-11T10:50:25Z</time></trkpt><trkpt lat="43.28925867293599" lon="12.838908428577042"><ele>438.5</ele><time>2026-04-11T10:50:26Z</time></trkpt><trkpt lat="43.289401632309385" lon="12.838892363438708"><ele>437.0</ele><time>2026-04-11T10:50:27Z</time></trkpt><trkpt lat="43.28954000601882" lon="12.83890154866248"><ele>435.5</ele><time>2026-04-11T10:50:28Z</time></trkpt><trkpt lat="43.28968233906339" lon="12.838926080217663"><ele>434.0</ele><time>2026-04-11T10:50:29Z</time></trkpt><trkpt lat="43.289841478417486" lon="12.838939061633488"><ele>433.3333333333333</ele><time>2026-04-11T10:50:30Z</time></trkpt><trkpt lat="43.289979824052" lon="12.839026576103905"><ele>432.66666666666663</ele><time>2026-04-11T10:50:31Z</time></trkpt><trkpt lat="43.29012554475676" lon="12.839103729077769"><ele>432.0</ele><time>2026-04-11T10:50:32Z</time></trkpt><trkpt lat="43.290265629037776" lon="12.839182313698629"><ele>432.0</ele><time>2026-04-11T10:50:33Z</time></trkpt><trkpt lat="43.29040055730694" lon="12.839257799518087"><ele>432.0</ele><time>2026-04-11T10:50:34Z</time></trkpt><trkpt lat="43.29053064282984" lon="12.839329232263701"><ele>432.0</ele><time>2026-04-11T10:50:35Z</time></trkpt><trkpt lat="43.29066287584423" lon="12.839398339353666"><ele>432.0</ele><time>2026-04-11T10:50:36Z</time></trkpt><trkpt lat="43.290797217765736" lon="12.839468548412068"><ele>435.25</ele><time>2026-04-11T10:50:37Z</time></trkpt><trkpt lat="43.290937957888" lon="12.839542126944698"><ele>438.5</ele><time>2026-04-11T10:50:38Z</time></trkpt><trkpt lat="43.2910724538009" lon="12.839613213757616"><ele>441.75</ele><time>2026-04-11T10:50:39Z</time></trkpt><trkpt lat="43.29121114497595" lon="12.839688511110833"><ele>445.0</ele><time>2026-04-11T10:50:40Z</time></trkpt><trkpt lat="43.29135457613953" lon="12.83976749197416"><ele>443.25</ele><time>2026-04-11T10:50:41Z</time></trkpt><trkpt lat="43.29149817055789" lon="12.839845162908743"><ele>441.5</ele><time>2026-04-11T10:50:42Z</time></trkpt><trkpt lat="43.291628146028074" lon="12.839915260815484"><ele>439.75</ele><time>2026-04-11T10:50:43Z</time></trkpt><trkpt lat="43.29176216569133" lon="12.839984903839394"><ele>438.0</ele><time>2026-04-11T10:50:44Z</time></trkpt><trkpt lat="43.29188681942521" lon="12.840046350045126"><ele>438.0</ele><time>2026-04-11T10:50:45Z</time></trkpt><trkpt lat="43.29202348465736" lon="12.840101681296558"><ele>438.0</ele><time>2026-04-11T10:50:46Z</time></trkpt><trkpt lat="43.292155528826086" lon="12.840140511167451"><ele>438.0</ele><time>2026-04-11T10:50:47Z</time></trkpt><trkpt lat="43.2922848858162" lon="12.840171151064844"><ele>438.0</ele><time>2026-04-11T10:50:48Z</time></trkpt><trkpt lat="43.29241596785901" lon="12.840191326703836"><ele>444.25</ele><time>2026-04-11T10:50:49Z</time></trkpt><trkpt lat="43.292543987074254" lon="12.840198196883392"><ele>450.5</ele><time>2026-04-11T10:50:50Z</time></trkpt><trkpt lat="43.2926756996233" lon="12.840191216105808"><ele>456.75</ele><time>2026-04-11T10:50:51Z</time></trkpt><trkpt lat="43.29280539802618" lon="12.840179397375751"><ele>463.0</ele><time>2026-04-11T10:50:52Z</time></trkpt><trkpt lat="43.29293944546448" lon="12.840161862261446"><ele>456.75</ele><time>2026-04-11T10:50:53Z</time></trkpt><trkpt lat="43.29306574009978" lon="12.840125158661397"><ele>450.5</ele><time>2026-04-11T10:50:54Z</time></trkpt><trkpt lat="43.29320146911292" lon="12.84010676543529"><ele>444.25</ele><time>2026-04-11T10:50:55Z</time></trkpt><trkpt lat="43.293344033502784" lon="12.84009650086959"><ele>438.0</ele><time>2026-04-11T10:50:56Z</time></trkpt><trkpt lat="43.29347114162502" lon="12.84004903059149"><ele>437.75</ele><time>2026-04-11T10:50:57Z</time></trkpt><trkpt lat="43.293612819734996" lon="12.840011578234447"><ele>437.5</ele><time>2026-04-11T10:50:58Z</time></trkpt><trkpt lat="43.293750575825" lon="12.839967519441215"><ele>437.25</ele><time>2026-04-11T10:50:59Z</time></trkpt><trkpt lat="43.29389087963849" lon="12.839963923902973"><ele>437.0</ele><time>2026-04-11T10:51:00Z</time></trkpt><trkpt lat="43.294018186928106" lon="12.839928291095827"><ele>437.0</ele><time>2026-04-11T10:51:01Z</time></trkpt><trkpt lat="43.294165986567805" lon="12.839925756415981"><ele>437.0</ele><time>2026-04-11T10:51:02Z</time></trkpt><trkpt lat="43.29430820976657" lon="12.839887001852968"><ele>437.0</ele><time>2026-04-11T10:51:03Z</time></trkpt><trkpt lat="43.29445024335806" lon="12.83987696547856"><ele>437.0</ele><time>2026-04-11T10:51:04Z</time></trkpt><trkpt lat="43.29459578478251" lon="12.839862651757254"><ele>437.0</ele><time>2026-04-11T10:51:05Z</time></trkpt><trkpt lat="43.294731072122666" lon="12.83984391425428"><ele>437.0</ele><time>2026-04-11T10:51:06Z</time></trkpt><trkpt lat="43.294868413530686" lon="12.839829410353564"><ele>437.0</ele><time>2026-04-11T10:51:07Z</time></trkpt><trkpt lat="43.29500688383509" lon="12.83982924143491"><ele>437.0</ele><time>2026-04-11T10:51:08Z</time></trkpt><trkpt lat="43.295158522103705" lon="12.839807245841415"><ele>437.0</ele><time>2026-04-11T10:51:09Z</time></trkpt><trkpt lat="43.295302214910365" lon="12.83978516472362"><ele>437.0</ele><time>2026-04-11T10:51:10Z</time></trkpt><trkpt lat="43.2954391121092" lon="12.839748200257608"><ele>437.0</ele><time>2026-04-11T10:51:11Z</time></trkpt><trkpt lat="43.29558487947554" lon="12.839728446445596"><ele>437.0</ele><time>2026-04-11T10:51:12Z</time></trkpt><trkpt lat="43.29572026315935" lon="12.839701003915268"><ele>437.25</ele><time>2026-04-11T10:51:13Z</time></trkpt><trkpt lat="43.29585904476784" lon="12.839697928578573"><ele>437.5</ele><time>2026-04-11T10:51:14Z</time></trkpt><trkpt lat="43.29598749844859" lon="12.83967768595234"><ele>437.75</ele><time>2026-04-11T10:51:15Z</time></trkpt><trkpt lat="43.296111737384045" lon="12.8396579358162"><ele>438.0</ele><time>2026-04-11T10:51:16Z</time></trkpt><trkpt lat="43.2962353824488" lon="12.839637854957113"><ele>438.0</ele><time>2026-04-11T10:51:17Z</time></trkpt><trkpt lat="43.29634744479512" lon="12.839619655235378"><ele>438.0</ele><time>2026-04-11T10:51:18Z</time></trkpt><trkpt lat="43.29646913263969" lon="12.839599892210957"><ele>438.0</ele><time>2026-04-11T10:51:19Z</time></trkpt><trkpt lat="43.296599929961694" lon="12.83957773040013"><ele>438.0</ele><time>2026-04-11T10:51:20Z</time></trkpt><trkpt lat="43.29672214557149" lon="12.839556819502224"><ele>438.25</ele><time>2026-04-11T10:51:21Z</time></trkpt><trkpt lat="43.296847443187936" lon="12.839539150044267"><ele>438.5</ele><time>2026-04-11T10:51:22Z</time></trkpt><trkpt lat="43.296974490326726" lon="12.839524438550868"><ele>438.75</ele><time>2026-04-11T10:51:23Z</time></trkpt><trkpt lat="43.29710915466712" lon="12.839521845185946"><ele>439.0</ele><time>2026-04-11T10:51:24Z</time></trkpt><trkpt lat="43.29723692903734" lon="12.839538126009264"><ele>438.5</ele><time>2026-04-11T10:51:25Z</time></trkpt><trkpt lat="43.29736610653937" lon="12.839558613635308"><ele>438.0</ele><time>2026-04-11T10:51:26Z</time></trkpt><trkpt lat="43.2975002804933" lon="12.839613636583133"><ele>437.5</ele><time>2026-04-11T10:51:27Z</time></trkpt><trkpt lat="43.2976255303695" lon="12.839642261119158"><ele>437.0</ele><time>2026-04-11T10:51:28Z</time></trkpt><trkpt lat="43.29774341542176" lon="12.839689606193867"><ele>437.0</ele><time>2026-04-11T10:51:29Z</time></trkpt><trkpt lat="43.297872942781616" lon="12.83975337609471"><ele>437.0</ele><time>2026-04-11T10:51:30Z</time></trkpt><trkpt lat="43.29801277013313" lon="12.839805100952386"><ele>437.0</ele><time>2026-04-11T10:51:31Z</time></trkpt><trkpt lat="43.29814956062688" lon="12.839855727558282"><ele>437.0</ele><time>2026-04-11T10:51:32Z</time></trkpt><trkpt lat="43.29829092451923" lon="12.839899372860842"><ele>434.25</ele><time>2026-04-11T10:51:33Z</time></trkpt><trkpt lat="43.298415011087755" lon="12.839951513164925"><ele>431.5</ele><time>2026-04-11T10:51:34Z</time></trkpt><trkpt lat="43.29853456319885" lon="12.839986268757873"><ele>428.75</ele><time>2026-04-11T10:51:35Z</time></trkpt><trkpt lat="43.29865431810296" lon="12.840023711652318"><ele>426.0</ele><time>2026-04-11T10:51:36Z</time></trkpt><trkpt lat="43.29877689363855" lon="12.840071268181246"><ele>426.0</ele><time>2026-04-11T10:51:37Z</time></trkpt><trkpt lat="43.298882930368784" lon="12.840099677586169"><ele>426.0</ele><time>2026-04-11T10:51:38Z</time></trkpt><trkpt lat="43.298981312472115" lon="12.840109774426903"><ele>426.0</ele><time>2026-04-11T10:51:39Z</time></trkpt><trkpt lat="43.29907361716464" lon="12.8401115772649"><ele>426.0</ele><time>2026-04-11T10:51:40Z</time></trkpt><trkpt lat="43.29916067963561" lon="12.840104832118358"><ele>426.0</ele><time>2026-04-11T10:51:41Z</time></trkpt><trkpt lat="43.2992496976662" lon="12.840098672757152"><ele>425.6666666666667</ele><time>2026-04-11T10:51:42Z</time></trkpt><trkpt lat="43.2993398037867" lon="12.840096189982564"><ele>425.33333333333337</ele><time>2026-04-11T10:51:43Z</time></trkpt><trkpt lat="43.29942453376101" lon="12.840093450169356"><ele>425.0</ele><time>2026-04-11T10:51:44Z</time></trkpt><trkpt lat="43.29950983441301" lon="12.84010047203753"><ele>424.6666666666667</ele><time>2026-04-11T10:51:45Z</time></trkpt><trkpt lat="43.29958982008463" lon="12.840122527139165"><ele>424.33333333333337</ele><time>2026-04-11T10:51:46Z</time></trkpt><trkpt lat="43.299668913409775" lon="12.840161394789373"><ele>424.0</ele><time>2026-04-11T10:51:47Z</time></trkpt><trkpt lat="43.299764241690255" lon="12.840213745031381"><ele>425.1666666666667</ele><time>2026-04-11T10:51:48Z</time></trkpt><trkpt lat="43.299861492438005" lon="12.84025066096677"><ele>426.33333333333337</ele><time>2026-04-11T10:51:49Z</time></trkpt><trkpt lat="43.299942701335034" lon="12.840318468687412"><ele>427.5</ele><time>2026-04-11T10:51:50Z</time></trkpt><trkpt lat="43.30002591142192" lon="12.840354279284472"><ele>428.66666666666663</ele><time>2026-04-11T10:51:51Z</time></trkpt><trkpt lat="43.30009125320755" lon="12.840375191982195"><ele>429.8333333333333</ele><time>2026-04-11T10:51:52Z</time></trkpt><trkpt lat="43.30018393420168" lon="12.840397605876458"><ele>431.0</ele><time>2026-04-11T10:51:54Z</time></trkpt><trkpt lat="43.3003704508839" lon="12.840433911559352"><ele>430.99999999999994</ele><time>2026-04-11T10:52:20Z</time></trkpt><trkpt lat="43.300438295670034" lon="12.84037112855098"><ele>431.0</ele><time>2026-04-11T10:52:21Z</time></trkpt><trkpt lat="43.30051980400843" lon="12.840368430254681"><ele>431.0</ele><time>2026-04-11T10:52:22Z</time></trkpt><trkpt lat="43.30054422982681" lon="12.840463515448144"><ele>431.0</ele><time>2026-04-11T10:52:23Z</time></trkpt><trkpt lat="43.30055433697303" lon="12.840591069860094"><ele>430.99999999999994</ele><time>2026-04-11T10:52:25Z</time></trkpt><trkpt lat="43.30056476866562" lon="12.840701333140336"><ele>431.0</ele><time>2026-04-11T10:52:27Z</time></trkpt><trkpt lat="43.300578138582885" lon="12.84079142404865"><ele>431.0</ele><time>2026-04-11T10:52:28Z</time></trkpt><trkpt lat="43.300553488579865" lon="12.840879426362854"><ele>431.0</ele><time>2026-04-11T10:52:31Z</time></trkpt><trkpt lat="43.30045216832231" lon="12.840795661256726"><ele>431.0</ele><time>2026-04-11T10:52:33Z</time></trkpt><trkpt lat="43.30038464969401" lon="12.84074780393103"><ele>431.0</ele><time>2026-04-11T10:52:34Z</time></trkpt><trkpt lat="43.300333115307495" lon="12.84038102796386"><ele>430.99999999999994</ele><time>2026-04-11T10:52:35Z</time></trkpt><trkpt lat="43.3002561914434" lon="12.840367248245888"><ele>431.0</ele><time>2026-04-11T10:52:36Z</time></trkpt><trkpt lat="43.300172991774495" lon="12.840349037556475"><ele>431.0</ele><time>2026-04-11T10:52:37Z</time></trkpt><trkpt lat="43.300102140165755" lon="12.840331680209495"><ele>431.0</ele><time>2026-04-11T10:52:38Z</time></trkpt><trkpt lat="43.300021042554924" lon="12.840305268650551"><ele>430.99999999999994</ele><time>2026-04-11T10:52:40Z</time></trkpt><trkpt lat="43.29991616725531" lon="12.840245318140234"><ele>431.0</ele><time>2026-04-11T10:52:42Z</time></trkpt><trkpt lat="43.299937475850136" lon="12.84046315446636"><ele>430.99999999999994</ele><time>2026-04-11T10:52:48Z</time></trkpt><trkpt lat="43.29998518288672" lon="12.840541940491947"><ele>431.0</ele><time>2026-04-11T10:52:49Z</time></trkpt><trkpt lat="43.30004468126022" lon="12.84062161573647"><ele>431.0</ele><time>2026-04-11T10:52:50Z</time></trkpt><trkpt lat="43.300104201750806" lon="12.840686336462865"><ele>431.0</ele><time>2026-04-11T10:52:51Z</time></trkpt><trkpt lat="43.3001535119177" lon="12.840773365157096"><ele>430.99999999999994</ele><time>2026-04-11T10:52:53Z</time></trkpt><trkpt lat="43.300065303178116" lon="12.840793323473486"><ele>431.0</ele><time>2026-04-11T10:52:58Z</time></trkpt><trkpt lat="43.299945732946426" lon="12.840773568562671"><ele>431.0</ele><time>2026-04-11T10:53:00Z</time></trkpt><trkpt lat="43.29988039926807" lon="12.840761356394973"><ele>431.0</ele><time>2026-04-11T10:53:01Z</time></trkpt><trkpt lat="43.29981503047408" lon="12.8407513528274"><ele>431.0</ele><time>2026-04-11T10:53:02Z</time></trkpt><trkpt lat="43.29974512513786" lon="12.840743172931365"><ele>431.0</ele><time>2026-04-11T10:53:03Z</time></trkpt><trkpt lat="43.299682103633074" lon="12.840725970793128"><ele>431.0</ele><time>2026-04-11T10:53:04Z</time></trkpt><trkpt lat="43.29957951607352" lon="12.840724963744066"><ele>431.0</ele><time>2026-04-11T10:53:06Z</time></trkpt><trkpt lat="43.29949915814436" lon="12.840735977547348"><ele>431.0</ele><time>2026-04-11T10:53:08Z</time></trkpt><trkpt lat="43.29942484943169" lon="12.840731089089232"><ele>436.0</ele><time>2026-04-11T10:53:10Z</time></trkpt><trkpt lat="43.299318591714574" lon="12.840780981007132"><ele>441.0</ele><time>2026-04-11T10:53:12Z</time></trkpt><trkpt lat="43.29925303445601" lon="12.840772155999694"><ele>446.0</ele><time>2026-04-11T10:53:13Z</time></trkpt><trkpt lat="43.29915023815258" lon="12.840734075541691"><ele>451.0</ele><time>2026-04-11T10:53:15Z</time></trkpt><trkpt lat="43.29905537387131" lon="12.84073146977307"><ele>456.0</ele><time>2026-04-11T10:53:17Z</time></trkpt><trkpt lat="43.298973619580245" lon="12.840737094154733"><ele>455.5</ele><time>2026-04-11T10:53:18Z</time></trkpt><trkpt lat="43.298896150852784" lon="12.840748575344513"><ele>455.0</ele><time>2026-04-11T10:53:19Z</time></trkpt><trkpt lat="43.29881671631568" lon="12.84082393382689"><ele>454.5</ele><time>2026-04-11T10:53:21Z</time></trkpt><trkpt lat="43.29874366606969" lon="12.840929614102368"><ele>454.0</ele><time>2026-04-11T10:53:23Z</time></trkpt><trkpt lat="43.29870939643778" lon="12.8410115407429"><ele>453.5</ele><time>2026-04-11T10:53:24Z</time></trkpt><trkpt lat="43.29866895494247" lon="12.841129361350719"><ele>453.0</ele><time>2026-04-11T10:53:25Z</time></trkpt><trkpt lat="43.29861584813324" lon="12.841221144892252"><ele>456.42857142857133</ele><time>2026-04-11T10:53:26Z</time></trkpt><trkpt lat="43.298571836719574" lon="12.841302943884777"><ele>459.85714285714283</ele><time>2026-04-11T10:53:27Z</time></trkpt><trkpt lat="43.29852013570643" lon="12.841385756832773"><ele>463.2857142857142</ele><time>2026-04-11T10:53:28Z</time></trkpt><trkpt lat="43.29848313698713" lon="12.841468649752906"><ele>466.71428571428567</ele><time>2026-04-11T10:53:29Z</time></trkpt><trkpt lat="43.29843865920171" lon="12.841551314315435"><ele>470.1428571428571</ele><time>2026-04-11T10:53:31Z</time></trkpt><trkpt lat="43.2983834499551" lon="12.84160333580941"><ele>473.57142857142856</ele><time>2026-04-11T10:53:33Z</time></trkpt><trkpt lat="43.298334135547655" lon="12.841663096199479"><ele>477.0</ele><time>2026-04-11T10:53:36Z</time></trkpt><trkpt lat="43.298412165189646" lon="12.841613139490182"><ele>477.0</ele><time>2026-04-11T10:53:41Z</time></trkpt><trkpt lat="43.29847409890104" lon="12.84155800496101"><ele>477.00000000000006</ele><time>2026-04-11T10:53:44Z</time></trkpt><trkpt lat="43.29857351184482" lon="12.84152009327776"><ele>477.00000000000006</ele><time>2026-04-11T10:53:46Z</time></trkpt><trkpt lat="43.29868303005851" lon="12.841536087319527"><ele>477.0</ele><time>2026-04-11T10:53:48Z</time></trkpt><trkpt lat="43.29875813397587" lon="12.841591713783309"><ele>477.0</ele><time>2026-04-11T10:53:50Z</time></trkpt><trkpt lat="43.2988495682704" lon="12.841678757143828"><ele>478.6666666666667</ele><time>2026-04-11T10:53:52Z</time></trkpt><trkpt lat="43.298945869722615" lon="12.84177792387485"><ele>480.33333333333337</ele><time>2026-04-11T10:53:54Z</time></trkpt><trkpt lat="43.29900579040062" lon="12.8418357095999"><ele>482.0</ele><time>2026-04-11T10:53:55Z</time></trkpt><trkpt lat="43.29906045856968" lon="12.841898912631851"><ele>483.6666666666667</ele><time>2026-04-11T10:53:56Z</time></trkpt><trkpt lat="43.299128195218934" lon="12.841970555963067"><ele>485.33333333333337</ele><time>2026-04-11T10:53:57Z</time></trkpt><trkpt lat="43.29919773508489" lon="12.842047651535752"><ele>487.0</ele><time>2026-04-11T10:53:58Z</time></trkpt><trkpt lat="43.299270276555475" lon="12.842144724065195"><ele>491.14285714285717</ele><time>2026-04-11T10:53:59Z</time></trkpt><trkpt lat="43.29933314350355" lon="12.842222948312275"><ele>495.2857142857142</ele><time>2026-04-11T10:54:00Z</time></trkpt><trkpt lat="43.29938593688685" lon="12.842290044053897"><ele>499.4285714285714</ele><time>2026-04-11T10:54:01Z</time></trkpt><trkpt lat="43.299433256663875" lon="12.84234992275419"><ele>503.57142857142856</ele><time>2026-04-11T10:54:02Z</time></trkpt><trkpt lat="43.2994889273103" lon="12.842398969816967"><ele>507.71428571428567</ele><time>2026-04-11T10:54:03Z</time></trkpt><trkpt lat="43.29953945607371" lon="12.842453738715717"><ele>511.8571428571428</ele><time>2026-04-11T10:54:04Z</time></trkpt><trkpt lat="43.299582983908316" lon="12.842549670286399"><ele>516.0</ele><time>2026-04-11T10:54:06Z</time></trkpt><trkpt lat="43.29953859125299" lon="12.842638504206525"><ele>520.0</ele><time>2026-04-11T10:54:10Z</time></trkpt><trkpt lat="43.2994507384441" lon="12.842645023702557"><ele>524.0</ele><time>2026-04-11T10:54:12Z</time></trkpt><trkpt lat="43.2993313486906" lon="12.842661911104177"><ele>528.0</ele><time>2026-04-11T10:54:14Z</time></trkpt><trkpt lat="43.299261794832745" lon="12.842659163373936"><ele>532.0</ele><time>2026-04-11T10:54:15Z</time></trkpt><trkpt lat="43.29917682245499" lon="12.842653703106862"><ele>536.0</ele><time>2026-04-11T10:54:16Z</time></trkpt><trkpt lat="43.29909372822728" lon="12.842646442788245"><ele>540.0</ele><time>2026-04-11T10:54:17Z</time></trkpt><trkpt lat="43.29902469989273" lon="12.842641424545748"><ele>540.0</ele><time>2026-04-11T10:54:18Z</time></trkpt><trkpt lat="43.298928868255054" lon="12.842668895165724"><ele>540.0</ele><time>2026-04-11T10:54:20Z</time></trkpt><trkpt lat="43.29902977019385" lon="12.842831673665907"><ele>540.0</ele><time>2026-04-11T10:54:29Z</time></trkpt><trkpt lat="43.299113667193296" lon="12.842915293954784"><ele>540.0</ele><time>2026-04-11T10:54:31Z</time></trkpt><trkpt lat="43.29919305195296" lon="12.843028138361062"><ele>540.0</ele><time>2026-04-11T10:54:33Z</time></trkpt><trkpt lat="43.29926925647086" lon="12.843147040497877"><ele>540.0</ele><time>2026-04-11T10:54:35Z</time></trkpt><trkpt lat="43.299318216910784" lon="12.843204159640926"><ele>540.0</ele><time>2026-04-11T10:54:36Z</time></trkpt><trkpt lat="43.29937284194448" lon="12.84325830829391"><ele>540.0</ele><time>2026-04-11T10:54:37Z</time></trkpt><trkpt lat="43.29942665268366" lon="12.843316506560393"><ele>540.0</ele><time>2026-04-11T10:54:38Z</time></trkpt><trkpt lat="43.299481847591906" lon="12.843392937058683"><ele>540.0</ele><time>2026-04-11T10:54:39Z</time></trkpt><trkpt lat="43.29955718509411" lon="12.84345774232136"><ele>543.0</ele><time>2026-04-11T10:54:40Z</time></trkpt><trkpt lat="43.299614530800085" lon="12.843532918106426"><ele>546.0</ele><time>2026-04-11T10:54:41Z</time></trkpt><trkpt lat="43.29966235402615" lon="12.84360622262074"><ele>549.0</ele><time>2026-04-11T10:54:42Z</time></trkpt><trkpt lat="43.299708560289915" lon="12.843680033224867"><ele>552.0</ele><time>2026-04-11T10:54:43Z</time></trkpt><trkpt lat="43.29974926075607" lon="12.843755103272695"><ele>555.0</ele><time>2026-04-11T10:54:44Z</time></trkpt><trkpt lat="43.29979294588055" lon="12.843843928965018"><ele>558.0</ele><time>2026-04-11T10:54:45Z</time></trkpt><trkpt lat="43.299837124170914" lon="12.843940683077015"><ele>558.0</ele><time>2026-04-11T10:54:46Z</time></trkpt><trkpt lat="43.29989162810305" lon="12.844041887740184"><ele>558.0</ele><time>2026-04-11T10:54:47Z</time></trkpt><trkpt lat="43.29994787708787" lon="12.844137766645678"><ele>558.0</ele><time>2026-04-11T10:54:48Z</time></trkpt><trkpt lat="43.300004088200545" lon="12.844222271210649"><ele>558.0</ele><time>2026-04-11T10:54:49Z</time></trkpt><trkpt lat="43.30005231924808" lon="12.844309523412374"><ele>558.0</ele><time>2026-04-11T10:54:50Z</time></trkpt><trkpt lat="43.30010139918621" lon="12.844391085911594"><ele>558.0</ele><time>2026-04-11T10:54:51Z</time></trkpt><trkpt lat="43.30015357735948" lon="12.844476954438468"><ele>563.1666666666666</ele><time>2026-04-11T10:54:52Z</time></trkpt><trkpt lat="43.30019815179871" lon="12.844559138653391"><ele>568.3333333333334</ele><time>2026-04-11T10:54:53Z</time></trkpt><trkpt lat="43.30023019437508" lon="12.844655579338346"><ele>573.5</ele><time>2026-04-11T10:54:54Z</time></trkpt><trkpt lat="43.30026930120826" lon="12.844743062688442"><ele>578.6666666666667</ele><time>2026-04-11T10:54:55Z</time></trkpt><trkpt lat="43.30031755182832" lon="12.844827573631665"><ele>583.8333333333334</ele><time>2026-04-11T10:54:56Z</time></trkpt><trkpt lat="43.30037885777916" lon="12.844915986919098"><ele>589.0</ele><time>2026-04-11T10:54:57Z</time></trkpt><trkpt lat="43.30044367241725" lon="12.845004894289033"><ele>589.0</ele><time>2026-04-11T10:54:58Z</time></trkpt><trkpt lat="43.30050567861952" lon="12.845087110162213"><ele>589.0</ele><time>2026-04-11T10:54:59Z</time></trkpt><trkpt lat="43.30055632828305" lon="12.845165948729763"><ele>589.0</ele><time>2026-04-11T10:55:00Z</time></trkpt><trkpt lat="43.30060351425533" lon="12.845232557068698"><ele>589.0</ele><time>2026-04-11T10:55:01.001Z</time></trkpt><trkpt lat="43.30065408955935" lon="12.845301633305672"><ele>589.0</ele><time>2026-04-11T10:55:02.001Z</time></trkpt><trkpt lat="43.30070899359302" lon="12.845380277698274"><ele>589.0</ele><time>2026-04-11T10:55:03.001Z</time></trkpt><trkpt lat="43.30076769262207" lon="12.845453956327843"><ele>590.8333333333334</ele><time>2026-04-11T10:55:04.001Z</time></trkpt><trkpt lat="43.30082638064776" lon="12.845518374459653"><ele>592.6666666666667</ele><time>2026-04-11T10:55:05.001Z</time></trkpt><trkpt lat="43.30088689344731" lon="12.845585594106668"><ele>594.5</ele><time>2026-04-11T10:55:06Z</time></trkpt><trkpt lat="43.30094986937878" lon="12.845663455953455"><ele>596.3333333333334</ele><time>2026-04-11T10:55:07Z</time></trkpt><trkpt lat="43.301011169518986" lon="12.845730431641895"><ele>598.1666666666666</ele><time>2026-04-11T10:55:08Z</time></trkpt><trkpt lat="43.30107660538025" lon="12.845805838076235"><ele>600.0</ele><time>2026-04-11T10:55:09Z</time></trkpt><trkpt lat="43.3011513000216" lon="12.845883986106521"><ele>600.0</ele><time>2026-04-11T10:55:10Z</time></trkpt><trkpt lat="43.301220720920725" lon="12.84595570938606"><ele>600.0</ele><time>2026-04-11T10:55:11Z</time></trkpt><trkpt lat="43.30129695253538" lon="12.846049083108277"><ele>600.0</ele><time>2026-04-11T10:55:12Z</time></trkpt><trkpt lat="43.301368402129576" lon="12.846135591620198"><ele>600.0</ele><time>2026-04-11T10:55:13Z</time></trkpt><trkpt lat="43.30143641366312" lon="12.846221024452193"><ele>600.0</ele><time>2026-04-11T10:55:14Z</time></trkpt><trkpt lat="43.30150259471724" lon="12.84630518779697"><ele>601.1666666666666</ele><time>2026-04-11T10:55:15Z</time></trkpt><trkpt lat="43.301551898328" lon="12.846374143422594"><ele>602.3333333333334</ele><time>2026-04-11T10:55:16Z</time></trkpt><trkpt lat="43.3016069062603" lon="12.846452241955932"><ele>603.5</ele><time>2026-04-11T10:55:17Z</time></trkpt><trkpt lat="43.3016612127573" lon="12.846531293258025"><ele>604.6666666666667</ele><time>2026-04-11T10:55:18Z</time></trkpt><trkpt lat="43.30171973625242" lon="12.846634608179174"><ele>605.8333333333334</ele><time>2026-04-11T10:55:19Z</time></trkpt><trkpt lat="43.30177981546978" lon="12.846756195028663"><ele>607.0</ele><time>2026-04-11T10:55:20Z</time></trkpt><trkpt lat="43.301839854681894" lon="12.846878905561136"><ele>609.3333333333334</ele><time>2026-04-11T10:55:21Z</time></trkpt><trkpt lat="43.30190808366044" lon="12.846989100277721"><ele>611.6666666666667</ele><time>2026-04-11T10:55:22Z</time></trkpt><trkpt lat="43.3019756660673" lon="12.847107517604774"><ele>614.0</ele><time>2026-04-11T10:55:23Z</time></trkpt><trkpt lat="43.30201568294863" lon="12.847198393681044"><ele>616.3333333333334</ele><time>2026-04-11T10:55:24Z</time></trkpt><trkpt lat="43.30204956595699" lon="12.847290288072102"><ele>618.6666666666666</ele><time>2026-04-11T10:55:25Z</time></trkpt><trkpt lat="43.3020722878301" lon="12.847379404568262"><ele>621.0</ele><time>2026-04-11T10:55:26Z</time></trkpt><trkpt lat="43.30214267042204" lon="12.847518274497515"><ele>618.0</ele><time>2026-04-11T10:55:28Z</time></trkpt><trkpt lat="43.30224354815262" lon="12.847632786344622"><ele>615.0</ele><time>2026-04-11T10:55:30Z</time></trkpt><trkpt lat="43.302307708923045" lon="12.847686625499762"><ele>612.0</ele><time>2026-04-11T10:55:31Z</time></trkpt><trkpt lat="43.302385729873265" lon="12.847737149216801"><ele>609.0</ele><time>2026-04-11T10:55:32Z</time></trkpt><trkpt lat="43.30246022890009" lon="12.847780575021693"><ele>606.0</ele><time>2026-04-11T10:55:33Z</time></trkpt><trkpt lat="43.3025351868537" lon="12.84781972718164"><ele>605.6666666666666</ele><time>2026-04-11T10:55:34Z</time></trkpt><trkpt lat="43.302614417497054" lon="12.847857956846605"><ele>605.3333333333334</ele><time>2026-04-11T10:55:35Z</time></trkpt><trkpt lat="43.30270335757065" lon="12.847904996947804"><ele>605.0</ele><time>2026-04-11T10:55:36Z</time></trkpt><trkpt lat="43.302790538417064" lon="12.847939695557391"><ele>604.6666666666667</ele><time>2026-04-11T10:55:37Z</time></trkpt><trkpt lat="43.3028653585133" lon="12.84796239824399"><ele>604.3333333333334</ele><time>2026-04-11T10:55:38Z</time></trkpt><trkpt lat="43.30293933920844" lon="12.847990388976001"><ele>604.0</ele><time>2026-04-11T10:55:39Z</time></trkpt><trkpt lat="43.303012166734604" lon="12.848030370527708"><ele>604.0</ele><time>2026-04-11T10:55:40Z</time></trkpt><trkpt lat="43.30307926299345" lon="12.848086306744946"><ele>604.0</ele><time>2026-04-11T10:55:41Z</time></trkpt><trkpt lat="43.30314806242145" lon="12.848148780965502"><ele>604.0</ele><time>2026-04-11T10:55:42Z</time></trkpt><trkpt lat="43.30321244213888" lon="12.848202449026678"><ele>604.0</ele><time>2026-04-11T10:55:43Z</time></trkpt><trkpt lat="43.30327811727843" lon="12.848252775603697"><ele>604.0</ele><time>2026-04-11T10:55:44Z</time></trkpt><trkpt lat="43.30334828719489" lon="12.848300329034098"><ele>604.0</ele><time>2026-04-11T10:55:45Z</time></trkpt><trkpt lat="43.303415885914994" lon="12.848353212033595"><ele>602.3333333333334</ele><time>2026-04-11T10:55:46Z</time></trkpt><trkpt lat="43.303471426887974" lon="12.84843263412571"><ele>600.6666666666667</ele><time>2026-04-11T10:55:47Z</time></trkpt><trkpt lat="43.30352904973275" lon="12.848504811451365"><ele>599.0</ele><time>2026-04-11T10:55:48Z</time></trkpt><trkpt lat="43.30358690673379" lon="12.848551403148653"><ele>597.3333333333334</ele><time>2026-04-11T10:55:49Z</time></trkpt><trkpt lat="43.3036621291156" lon="12.848597786853126"><ele>595.6666666666666</ele><time>2026-04-11T10:55:50Z</time></trkpt><trkpt lat="43.30374656428717" lon="12.848648422784086"><ele>594.0</ele><time>2026-04-11T10:55:51Z</time></trkpt><trkpt lat="43.30382269443865" lon="12.84870496422322"><ele>592.2</ele><time>2026-04-11T10:55:52Z</time></trkpt><trkpt lat="43.303903431922976" lon="12.848776902284868"><ele>590.4</ele><time>2026-04-11T10:55:53Z</time></trkpt><trkpt lat="43.30398051093574" lon="12.848854094313694"><ele>588.6</ele><time>2026-04-11T10:55:54Z</time></trkpt><trkpt lat="43.3040478032631" lon="12.848937892226676"><ele>586.8</ele><time>2026-04-11T10:55:55Z</time></trkpt><trkpt lat="43.304113921111366" lon="12.84903674293246"><ele>585.0</ele><time>2026-04-11T10:55:56Z</time></trkpt><trkpt lat="43.30417640852317" lon="12.849133808568586"><ele>585.0</ele><time>2026-04-11T10:55:57Z</time></trkpt><trkpt lat="43.30425817929738" lon="12.849254199063996"><ele>585.0</ele><time>2026-04-11T10:55:58Z</time></trkpt><trkpt lat="43.304341048716076" lon="12.849370309664895"><ele>585.0</ele><time>2026-04-11T10:55:59Z</time></trkpt><trkpt lat="43.30442366805515" lon="12.849497156683254"><ele>585.0</ele><time>2026-04-11T10:56:00Z</time></trkpt><trkpt lat="43.304504611015275" lon="12.849624874298783"><ele>582.25</ele><time>2026-04-11T10:56:01Z</time></trkpt><trkpt lat="43.30458823653299" lon="12.849757634592128"><ele>579.5</ele><time>2026-04-11T10:56:02Z</time></trkpt><trkpt lat="43.304664369746796" lon="12.849875005641328"><ele>576.75</ele><time>2026-04-11T10:56:03Z</time></trkpt><trkpt lat="43.304736469633454" lon="12.849983630906879"><ele>574.0</ele><time>2026-04-11T10:56:04Z</time></trkpt><trkpt lat="43.304802988218235" lon="12.850092640182726"><ele>574.8</ele><time>2026-04-11T10:56:05Z</time></trkpt><trkpt lat="43.30486402652191" lon="12.850197583549534"><ele>575.5999999999999</ele><time>2026-04-11T10:56:06Z</time></trkpt><trkpt lat="43.30490235619072" lon="12.850288841857692"><ele>576.4</ele><time>2026-04-11T10:56:07Z</time></trkpt><trkpt lat="43.30494744406981" lon="12.850431085359943"><ele>577.1999999999999</ele><time>2026-04-11T10:56:09Z</time></trkpt><trkpt lat="43.30498372724124" lon="12.850568426508984"><ele>578.0</ele><time>2026-04-11T10:56:11Z</time></trkpt><trkpt lat="43.305003397894694" lon="12.85065746509294"><ele>578.0</ele><time>2026-04-11T10:56:12Z</time></trkpt><trkpt lat="43.30502418763531" lon="12.850754290193137"><ele>578.0</ele><time>2026-04-11T10:56:13Z</time></trkpt><trkpt lat="43.30504644569182" lon="12.850841415556978"><ele>578.0</ele><time>2026-04-11T10:56:14Z</time></trkpt><trkpt lat="43.30507726544371" lon="12.850923498569248"><ele>578.0</ele><time>2026-04-11T10:56:15Z</time></trkpt><trkpt lat="43.30511238986064" lon="12.851002663740642"><ele>578.0</ele><time>2026-04-11T10:56:16Z</time></trkpt><trkpt lat="43.305160197129055" lon="12.851088472736649"><ele>578.0</ele><time>2026-04-11T10:56:17Z</time></trkpt><trkpt lat="43.30521740351347" lon="12.851176358396316"><ele>578.0</ele><time>2026-04-11T10:56:18Z</time></trkpt><trkpt lat="43.30527235554167" lon="12.851268149539639"><ele>575.4</ele><time>2026-04-11T10:56:18.999Z</time></trkpt><trkpt lat="43.30532906617583" lon="12.85134894250626"><ele>572.8</ele><time>2026-04-11T10:56:19.999Z</time></trkpt><trkpt lat="43.30537949283036" lon="12.85142059057184"><ele>570.2</ele><time>2026-04-11T10:56:20.999Z</time></trkpt><trkpt lat="43.305424459282385" lon="12.851486212216694"><ele>567.6</ele><time>2026-04-11T10:56:21.999Z</time></trkpt><trkpt lat="43.305499237086465" lon="12.8516127226899"><ele>565.0</ele><time>2026-04-11T10:56:23.999Z</time></trkpt><trkpt lat="43.30558263560619" lon="12.85175149000971"><ele>564.5</ele><time>2026-04-11T10:56:25.999Z</time></trkpt><trkpt lat="43.305627406043044" lon="12.851834434742258"><ele>564.0</ele><time>2026-04-11T10:56:26.999Z</time></trkpt><trkpt lat="43.30566802506713" lon="12.851935478772548"><ele>563.5</ele><time>2026-04-11T10:56:27.999Z</time></trkpt><trkpt lat="43.3057038631862" lon="12.852050573705998"><ele>563.0</ele><time>2026-04-11T10:56:28.999Z</time></trkpt><trkpt lat="43.305736122553974" lon="12.85216332418903"><ele>562.5</ele><time>2026-04-11T10:56:29.999Z</time></trkpt><trkpt lat="43.30577429530421" lon="12.852277496260696"><ele>562.0</ele><time>2026-04-11T10:56:30.999Z</time></trkpt><trkpt lat="43.30581610950725" lon="12.852387853969903"><ele>562.0</ele><time>2026-04-11T10:56:31.999Z</time></trkpt><trkpt lat="43.3058651344639" lon="12.852483763385802"><ele>562.0</ele><time>2026-04-11T10:56:32.999Z</time></trkpt><trkpt lat="43.30590644218102" lon="12.852568388795303"><ele>562.0</ele><time>2026-04-11T10:56:33.999Z</time></trkpt><trkpt lat="43.30597007455326" lon="12.8527009544689"><ele>562.0</ele><time>2026-04-11T10:56:35.999Z</time></trkpt><trkpt lat="43.30602454389407" lon="12.852814453075947"><ele>562.0</ele><time>2026-04-11T10:56:37.999Z</time></trkpt><trkpt lat="43.306066040247046" lon="12.852930636824796"><ele>559.6666666666667</ele><time>2026-04-11T10:56:39.999Z</time></trkpt><trkpt lat="43.30610277557584" lon="12.853038889921542"><ele>557.3333333333334</ele><time>2026-04-11T10:56:41.999Z</time></trkpt><trkpt lat="43.30615093475051" lon="12.853105557942303"><ele>555.0</ele><time>2026-04-11T10:56:43.999Z</time></trkpt><trkpt lat="43.30617828016159" lon="12.853197943635047"><ele>552.6666666666666</ele><time>2026-04-11T10:56:46.999Z</time></trkpt><trkpt lat="43.30619841089392" lon="12.853291055130562"><ele>550.3333333333333</ele><time>2026-04-11T10:56:49.999Z</time></trkpt><trkpt lat="43.306221859140656" lon="12.853403394014308"><ele>548.0</ele><time>2026-04-11T10:56:52.999Z</time></trkpt><trkpt lat="43.306241268462166" lon="12.853509354202867"><ele>545.8</ele><time>2026-04-11T10:56:54.999Z</time></trkpt><trkpt lat="43.306276155788396" lon="12.853616124468678"><ele>543.5999999999999</ele><time>2026-04-11T10:56:56.999Z</time></trkpt><trkpt lat="43.30631953683058" lon="12.85374353018214"><ele>541.4000000000001</ele><time>2026-04-11T10:56:58.999Z</time></trkpt><trkpt lat="43.30637685870966" lon="12.85388038773362"><ele>539.2</ele><time>2026-04-11T10:57:00.999Z</time></trkpt><trkpt lat="43.306418963277736" lon="12.854040808772865"><ele>537.0</ele><time>2026-04-11T10:57:02.999Z</time></trkpt><trkpt lat="43.30644558974434" lon="12.854124633633464"><ele>537.0</ele><time>2026-04-11T10:57:03.999Z</time></trkpt><trkpt lat="43.30647246758416" lon="12.8542074096553"><ele>537.0</ele><time>2026-04-11T10:57:04.999Z</time></trkpt><trkpt lat="43.30653457969975" lon="12.854353998148017"><ele>537.0</ele><time>2026-04-11T10:57:06.999Z</time></trkpt><trkpt lat="43.306564010104445" lon="12.85443253617229"><ele>537.0</ele><time>2026-04-11T10:57:07.999Z</time></trkpt><trkpt lat="43.306585943192495" lon="12.854519657563797"><ele>537.0</ele><time>2026-04-11T10:57:08.999Z</time></trkpt><trkpt lat="43.30662418435513" lon="12.854680569567536"><ele>537.0</ele><time>2026-04-11T10:57:10.999Z</time></trkpt><trkpt lat="43.306669799380025" lon="12.854845895173115"><ele>535.0</ele><time>2026-04-11T10:57:12.999Z</time></trkpt><trkpt lat="43.306699598481" lon="12.85499487309865"><ele>533.0</ele><time>2026-04-11T10:57:14.999Z</time></trkpt><trkpt lat="43.30674065592957" lon="12.85514266122878"><ele>531.0</ele><time>2026-04-11T10:57:16.999Z</time></trkpt><trkpt lat="43.30679073150149" lon="12.855271041442993"><ele>529.0</ele><time>2026-04-11T10:57:18.999Z</time></trkpt><trkpt lat="43.30682889233699" lon="12.855403737080993"><ele>527.0</ele><time>2026-04-11T10:57:20.999Z</time></trkpt><trkpt lat="43.306878627375106" lon="12.85551751980087"><ele>523.1666666666666</ele><time>2026-04-11T10:57:22.999Z</time></trkpt><trkpt lat="43.30690974312685" lon="12.855637518772232"><ele>519.3333333333333</ele><time>2026-04-11T10:57:24.999Z</time></trkpt><trkpt lat="43.306908916217786" lon="12.855749762420219"><ele>515.5</ele><time>2026-04-11T10:57:26.999Z</time></trkpt><trkpt lat="43.30691730539296" lon="12.855847872470507"><ele>511.66666666666663</ele><time>2026-04-11T10:57:28.999Z</time></trkpt><trkpt lat="43.30693373099743" lon="12.855946082977798"><ele>507.8333333333333</ele><time>2026-04-11T10:57:31.999Z</time></trkpt><trkpt lat="43.30696666691565" lon="12.856032780775463"><ele>504.0</ele><time>2026-04-11T10:57:34.999Z</time></trkpt><trkpt lat="43.30703908869366" lon="12.856077889015141"><ele>500.0</ele><time>2026-04-11T10:57:38.999Z</time></trkpt><trkpt lat="43.307097027763106" lon="12.856143725526485"><ele>496.0</ele><time>2026-04-11T10:57:40.999Z</time></trkpt><trkpt lat="43.30714826099407" lon="12.85622850414624"><ele>492.0</ele><time>2026-04-11T10:57:42.999Z</time></trkpt><trkpt lat="43.307191840456966" lon="12.856386717815786"><ele>488.0</ele><time>2026-04-11T10:57:44.999Z</time></trkpt><trkpt lat="43.307227109481815" lon="12.856462575676844"><ele>484.0</ele><time>2026-04-11T10:57:45.999Z</time></trkpt><trkpt lat="43.30729397489941" lon="12.856603039649364"><ele>484.00000000000006</ele><time>2026-04-11T10:57:47.999Z</time></trkpt><trkpt lat="43.307329385439935" lon="12.856677204298062"><ele>484.0</ele><time>2026-04-11T10:57:48.999Z</time></trkpt><trkpt lat="43.307403614788086" lon="12.856812419310863"><ele>484.0</ele><time>2026-04-11T10:57:50.999Z</time></trkpt><trkpt lat="43.30744786247033" lon="12.85688590286222"><ele>484.0</ele><time>2026-04-11T10:57:51.999Z</time></trkpt><trkpt lat="43.30749364207646" lon="12.85695918944871"><ele>484.00000000000006</ele><time>2026-04-11T10:57:52.999Z</time></trkpt><trkpt lat="43.30754343795881" lon="12.85702530960086"><ele>484.0</ele><time>2026-04-11T10:57:53.999Z</time></trkpt><trkpt lat="43.30759975117909" lon="12.857080539262993"><ele>481.6666666666667</ele><time>2026-04-11T10:57:54.999Z</time></trkpt><trkpt lat="43.30765110380137" lon="12.857134149925463"><ele>479.33333333333337</ele><time>2026-04-11T10:57:55.999Z</time></trkpt><trkpt lat="43.30773252608939" lon="12.857240372772184"><ele>477.0</ele><time>2026-04-11T10:57:57.999Z</time></trkpt><trkpt lat="43.30778311845904" lon="12.857292556368634"><ele>474.66666666666663</ele><time>2026-04-11T10:57:58.999Z</time></trkpt><trkpt lat="43.307892985529" lon="12.85738181909561"><ele>472.3333333333333</ele><time>2026-04-11T10:58:00.999Z</time></trkpt><trkpt lat="43.30795859557994" lon="12.857423339603141"><ele>470.0</ele><time>2026-04-11T10:58:01.999Z</time></trkpt><trkpt lat="43.30808773724238" lon="12.857483332708158"><ele>467.66666666666663</ele><time>2026-04-11T10:58:03.999Z</time></trkpt><trkpt lat="43.30815331890615" lon="12.857517820964977"><ele>465.3333333333333</ele><time>2026-04-11T10:58:04.999Z</time></trkpt><trkpt lat="43.308212879835594" lon="12.85754714091711"><ele>463.0</ele><time>2026-04-11T10:58:05.999Z</time></trkpt><trkpt lat="43.308308901039325" lon="12.857574510961955"><ele>460.66666666666663</ele><time>2026-04-11T10:58:06.999Z</time></trkpt><trkpt lat="43.30838597695882" lon="12.857600496857046"><ele>458.3333333333333</ele><time>2026-04-11T10:58:07.999Z</time></trkpt><trkpt lat="43.30846840282669" lon="12.85764130493295"><ele>456.0</ele><time>2026-04-11T10:58:08.999Z</time></trkpt><trkpt lat="43.3085676681333" lon="12.857691928524309"><ele>456.0</ele><time>2026-04-11T10:58:09.999Z</time></trkpt><trkpt lat="43.3086611069441" lon="12.857738025580435"><ele>456.0</ele><time>2026-04-11T10:58:11Z</time></trkpt><trkpt lat="43.30875309034906" lon="12.857795520913054"><ele>456.0</ele><time>2026-04-11T10:58:12Z</time></trkpt><trkpt lat="43.308836355267594" lon="12.857864915824878"><ele>456.0</ele><time>2026-04-11T10:58:13Z</time></trkpt><trkpt lat="43.30891788406256" lon="12.857931580060875"><ele>456.0</ele><time>2026-04-11T10:58:14Z</time></trkpt><trkpt lat="43.30899559056909" lon="12.858005824912013"><ele>451.8333333333333</ele><time>2026-04-11T10:58:15Z</time></trkpt><trkpt lat="43.30907034549485" lon="12.85807606518112"><ele>447.66666666666663</ele><time>2026-04-11T10:58:16Z</time></trkpt><trkpt lat="43.30912919492413" lon="12.858157977913706"><ele>443.5</ele><time>2026-04-11T10:58:17Z</time></trkpt><trkpt lat="43.30918476114152" lon="12.858245521918759"><ele>439.3333333333333</ele><time>2026-04-11T10:58:18Z</time></trkpt><trkpt lat="43.309240137551214" lon="12.858326624858877"><ele>435.16666666666663</ele><time>2026-04-11T10:58:19Z</time></trkpt><trkpt lat="43.309280196944826" lon="12.858414796584361"><ele>431.0</ele><time>2026-04-11T10:58:20Z</time></trkpt><trkpt lat="43.30931136202672" lon="12.858523358633363"><ele>429.8333333333333</ele><time>2026-04-11T10:58:21Z</time></trkpt><trkpt lat="43.30934030988914" lon="12.858622784531747"><ele>428.66666666666663</ele><time>2026-04-11T10:58:22Z</time></trkpt><trkpt lat="43.30937475981856" lon="12.858718377565609"><ele>427.5</ele><time>2026-04-11T10:58:23Z</time></trkpt><trkpt lat="43.30940926494094" lon="12.858823825355948"><ele>426.33333333333337</ele><time>2026-04-11T10:58:24Z</time></trkpt><trkpt lat="43.30944052745724" lon="12.858926270297204"><ele>425.1666666666667</ele><time>2026-04-11T10:58:25Z</time></trkpt><trkpt lat="43.309469829416656" lon="12.859033449221696"><ele>424.0</ele><time>2026-04-11T10:58:26Z</time></trkpt><trkpt lat="43.30949194380472" lon="12.859137456059985"><ele>424.00000000000006</ele><time>2026-04-11T10:58:27Z</time></trkpt><trkpt lat="43.309505845672206" lon="12.859246161489326"><ele>424.0</ele><time>2026-04-11T10:58:28Z</time></trkpt><trkpt lat="43.30952251666574" lon="12.859350872711174"><ele>424.0</ele><time>2026-04-11T10:58:29Z</time></trkpt><trkpt lat="43.309544310110276" lon="12.859445592724374"><ele>424.0</ele><time>2026-04-11T10:58:30Z</time></trkpt><trkpt lat="43.3095613631733" lon="12.859531503941657"><ele>424.00000000000006</ele><time>2026-04-11T10:58:31Z</time></trkpt><trkpt lat="43.30960895500954" lon="12.859651212497377"><ele>424.0</ele><time>2026-04-11T10:58:33Z</time></trkpt><trkpt lat="43.30969331970742" lon="12.859742545314301"><ele>418.6</ele><time>2026-04-11T10:58:35Z</time></trkpt><trkpt lat="43.30975239573074" lon="12.859845826027852"><ele>413.2</ele><time>2026-04-11T10:58:37Z</time></trkpt><trkpt lat="43.309813377863286" lon="12.86001941427688"><ele>407.8</ele><time>2026-04-11T10:58:39Z</time></trkpt><trkpt lat="43.30983820054922" lon="12.860121409288043"><ele>402.40000000000003</ele><time>2026-04-11T10:58:40Z</time></trkpt><trkpt lat="43.3098650551842" lon="12.86021119377859"><ele>397.0</ele><time>2026-04-11T10:58:41Z</time></trkpt><trkpt lat="43.30989581818885" lon="12.860303089222942"><ele>395.50000000000006</ele><time>2026-04-11T10:58:42Z</time></trkpt><trkpt lat="43.30992782375393" lon="12.860416626112077"><ele>394.0</ele><time>2026-04-11T10:58:43Z</time></trkpt><trkpt lat="43.30995509227034" lon="12.860539742678494"><ele>392.5</ele><time>2026-04-11T10:58:44Z</time></trkpt><trkpt lat="43.30998073371705" lon="12.860657060475145"><ele>391.0</ele><time>2026-04-11T10:58:45Z</time></trkpt><trkpt lat="43.31001023412408" lon="12.86075033008751"><ele>389.50000000000006</ele><time>2026-04-11T10:58:46Z</time></trkpt><trkpt lat="43.310051077585825" lon="12.86082513642708"><ele>388.0</ele><time>2026-04-11T10:58:47Z</time></trkpt><trkpt lat="43.31010051963942" lon="12.86089935132435"><ele>388.00000000000006</ele><time>2026-04-11T10:58:48Z</time></trkpt><trkpt lat="43.31014372648035" lon="12.860978647086027"><ele>388.0</ele><time>2026-04-11T10:58:49Z</time></trkpt><trkpt lat="43.31020935515693" lon="12.86102686892849"><ele>388.0</ele><time>2026-04-11T10:58:50Z</time></trkpt><trkpt lat="43.31035294563506" lon="12.861032779254144"><ele>388.0</ele><time>2026-04-11T10:58:52Z</time></trkpt><trkpt lat="43.31041309161249" lon="12.861000164743176"><ele>388.00000000000006</ele><time>2026-04-11T10:58:53Z</time></trkpt><trkpt lat="43.31045965182275" lon="12.860936435030576"><ele>388.0</ele><time>2026-04-11T10:58:54Z</time></trkpt><trkpt lat="43.310478653648865" lon="12.860852856787623"><ele>388.0</ele><time>2026-04-11T10:58:55Z</time></trkpt><trkpt lat="43.3105196804242" lon="12.860703088062799"><ele>388.0</ele><time>2026-04-11T10:58:57Z</time></trkpt><trkpt lat="43.31056073820327" lon="12.860612748905831"><ele>388.0</ele><time>2026-04-11T10:58:59Z</time></trkpt><trkpt lat="43.310647709441234" lon="12.860529329486377"><ele>388.0</ele><time>2026-04-11T10:59:02Z</time></trkpt><trkpt lat="43.31074851317228" lon="12.860466851390418"><ele>388.0</ele><time>2026-04-11T10:59:04Z</time></trkpt><trkpt lat="43.3108135765671" lon="12.860461411466643"><ele>386.79999999999995</ele><time>2026-04-11T10:59:05Z</time></trkpt><trkpt lat="43.31091815872081" lon="12.860463352050877"><ele>385.6</ele><time>2026-04-11T10:59:07Z</time></trkpt><trkpt lat="43.31103441836489" lon="12.86050471680712"><ele>384.4</ele><time>2026-04-11T10:59:09Z</time></trkpt><trkpt lat="43.31111483536424" lon="12.860438124106665"><ele>383.20000000000005</ele><time>2026-04-11T10:59:11Z</time></trkpt><trkpt lat="43.311186087060904" lon="12.86033785718605"><ele>382.0</ele><time>2026-04-11T10:59:13Z</time></trkpt><trkpt lat="43.3111595195538" lon="12.86021450537411"><ele>382.0</ele><time>2026-04-11T10:59:14Z</time></trkpt><trkpt lat="43.31121235286125" lon="12.86012494625219"><ele>382.0</ele><time>2026-04-11T10:59:16Z</time></trkpt><trkpt lat="43.31128765956391" lon="12.860003313872426"><ele>382.0</ele><time>2026-04-11T10:59:18Z</time></trkpt><trkpt lat="43.31133267164389" lon="12.859932038706479"><ele>382.0</ele><time>2026-04-11T10:59:19Z</time></trkpt><trkpt lat="43.311399674932446" lon="12.859873563835599"><ele>382.0</ele><time>2026-04-11T10:59:20Z</time></trkpt><trkpt lat="43.31146274474443" lon="12.859820828467024"><ele>382.0</ele><time>2026-04-11T10:59:21Z</time></trkpt><trkpt lat="43.311520623877726" lon="12.859765914843956"><ele>380.75</ele><time>2026-04-11T10:59:22Z</time></trkpt><trkpt lat="43.31161699051721" lon="12.85965395085609"><ele>379.5</ele><time>2026-04-11T10:59:24Z</time></trkpt><trkpt lat="43.3117116120714" lon="12.859541725151036"><ele>378.25</ele><time>2026-04-11T10:59:26Z</time></trkpt><trkpt lat="43.31189186930471" lon="12.859621623308866"><ele>377.0</ele><time>2026-04-11T10:59:28Z</time></trkpt><trkpt lat="43.31196418364012" lon="12.859638134798791"><ele>377.0</ele><time>2026-04-11T10:59:29Z</time></trkpt><trkpt lat="43.31203882553532" lon="12.8596816667041"><ele>377.0</ele><time>2026-04-11T10:59:30Z</time></trkpt><trkpt lat="43.31211114256697" lon="12.859682266543594"><ele>377.0</ele><time>2026-04-11T10:59:31Z</time></trkpt><trkpt lat="43.312188049523954" lon="12.859708849041768"><ele>377.0</ele><time>2026-04-11T10:59:32Z</time></trkpt><trkpt lat="43.31227004178013" lon="12.859701510433412"><ele>377.0</ele><time>2026-04-11T10:59:33Z</time></trkpt><trkpt lat="43.31235230008582" lon="12.859746867629617"><ele>377.0</ele><time>2026-04-11T10:59:34Z</time></trkpt><trkpt lat="43.312424504381234" lon="12.859759384715348"><ele>377.0</ele><time>2026-04-11T10:59:35Z</time></trkpt><trkpt lat="43.31248206969961" lon="12.859867175351518"><ele>377.0</ele><time>2026-04-11T10:59:36Z</time></trkpt><trkpt lat="43.3125567759644" lon="12.859972597993051"><ele>377.0</ele><time>2026-04-11T10:59:37Z</time></trkpt><trkpt lat="43.312638172175134" lon="12.860054994788381"><ele>377.0</ele><time>2026-04-11T10:59:38Z</time></trkpt><trkpt lat="43.31271729423164" lon="12.860182227660493"><ele>377.0</ele><time>2026-04-11T10:59:39Z</time></trkpt><trkpt lat="43.31281261074794" lon="12.86021792751401"><ele>377.0</ele><time>2026-04-11T10:59:40Z</time></trkpt><trkpt lat="43.31290913847475" lon="12.860220964663116"><ele>377.0</ele><time>2026-04-11T10:59:41Z</time></trkpt><trkpt lat="43.31299940957979" lon="12.86023711672371"><ele>377.0</ele><time>2026-04-11T10:59:42Z</time></trkpt><trkpt lat="43.313083808158154" lon="12.860304355070335"><ele>377.0</ele><time>2026-04-11T10:59:43Z</time></trkpt><trkpt lat="43.31314806499137" lon="12.860423372803783"><ele>377.0</ele><time>2026-04-11T10:59:44Z</time></trkpt><trkpt lat="43.313222263891014" lon="12.86053733556702"><ele>377.0</ele><time>2026-04-11T10:59:45Z</time></trkpt><trkpt lat="43.31330265612535" lon="12.860638824549879"><ele>377.0</ele><time>2026-04-11T10:59:46Z</time></trkpt><trkpt lat="43.31337711117248" lon="12.860729770396208"><ele>377.0</ele><time>2026-04-11T10:59:47Z</time></trkpt><trkpt lat="43.3134403189395" lon="12.860831839341378"><ele>377.0</ele><time>2026-04-11T10:59:48Z</time></trkpt><trkpt lat="43.313507287357865" lon="12.86092981567748"><ele>377.0</ele><time>2026-04-11T10:59:49Z</time></trkpt><trkpt lat="43.313564519939696" lon="12.861044822229976"><ele>376.8</ele><time>2026-04-11T10:59:50Z</time></trkpt><trkpt lat="43.31362059558786" lon="12.861167700865602"><ele>376.6</ele><time>2026-04-11T10:59:51Z</time></trkpt><trkpt lat="43.31367884936457" lon="12.861295363962562"><ele>376.40000000000003</ele><time>2026-04-11T10:59:52Z</time></trkpt><trkpt lat="43.31373191317416" lon="12.861416416196931"><ele>376.20000000000005</ele><time>2026-04-11T10:59:53Z</time></trkpt><trkpt lat="43.313770757693675" lon="12.861555160474795"><ele>376.0</ele><time>2026-04-11T10:59:54Z</time></trkpt><trkpt lat="43.31382705704134" lon="12.861677724871361"><ele>376.20000000000005</ele><time>2026-04-11T10:59:55Z</time></trkpt><trkpt lat="43.313836076647334" lon="12.861816355038004"><ele>376.40000000000003</ele><time>2026-04-11T10:59:56Z</time></trkpt><trkpt lat="43.31385861986346" lon="12.86194553015448"><ele>376.6</ele><time>2026-04-11T10:59:57Z</time></trkpt><trkpt lat="43.31389133659024" lon="12.86206522481647"><ele>376.8</ele><time>2026-04-11T10:59:58Z</time></trkpt><trkpt lat="43.31391796713441" lon="12.862178830228666"><ele>377.0</ele><time>2026-04-11T10:59:59Z</time></trkpt><trkpt lat="43.313935110738164" lon="12.862291337330722"><ele>376.8</ele><time>2026-04-11T11:00:00Z</time></trkpt><trkpt lat="43.31395456598088" lon="12.862400083810451"><ele>376.6</ele><time>2026-04-11T11:00:01Z</time></trkpt><trkpt lat="43.31397816499164" lon="12.862498444356573"><ele>376.40000000000003</ele><time>2026-04-11T11:00:02Z</time></trkpt><trkpt lat="43.31397892171339" lon="12.862597159262734"><ele>376.20000000000005</ele><time>2026-04-11T11:00:03Z</time></trkpt><trkpt lat="43.314004450290675" lon="12.862744249714057"><ele>376.0</ele><time>2026-04-11T11:00:05Z</time></trkpt><trkpt lat="43.314058579054716" lon="12.862949087967472"><ele>376.0</ele><time>2026-04-11T11:00:07Z</time></trkpt><trkpt lat="43.31398738112154" lon="12.863004207392448"><ele>376.0</ele><time>2026-04-11T11:00:10Z</time></trkpt><trkpt lat="43.31393179742582" lon="12.863074174421053"><ele>376.0</ele><time>2026-04-11T11:00:13Z</time></trkpt><trkpt lat="43.31387736966048" lon="12.8631238545286"><ele>376.0</ele><time>2026-04-11T11:00:15Z</time></trkpt><trkpt lat="43.31387405236095" lon="12.863335322026291"><ele>376.0</ele><time>2026-04-11T11:00:18Z</time></trkpt><trkpt lat="43.313848883269536" lon="12.863457043061985"><ele>376.16666666666663</ele><time>2026-04-11T11:00:20Z</time></trkpt><trkpt lat="43.31385535402581" lon="12.863557761264465"><ele>376.3333333333333</ele><time>2026-04-11T11:00:21Z</time></trkpt><trkpt lat="43.31388986071624" lon="12.863671973077551"><ele>376.5</ele><time>2026-04-11T11:00:22Z</time></trkpt><trkpt lat="43.31391146053096" lon="12.863776912445632"><ele>376.6666666666667</ele><time>2026-04-11T11:00:23Z</time></trkpt><trkpt lat="43.3138985509529" lon="12.863876055003924"><ele>376.83333333333337</ele><time>2026-04-11T11:00:24Z</time></trkpt><trkpt lat="43.313928122399794" lon="12.863956899918213"><ele>377.0</ele><time>2026-04-11T11:00:26Z</time></trkpt><trkpt lat="43.313954751391876" lon="12.864071388983854"><ele>377.0</ele><time>2026-04-11T11:00:29Z</time></trkpt><trkpt lat="43.31390881672117" lon="12.864184586833249"><ele>377.0</ele><time>2026-04-11T11:00:31Z</time></trkpt><trkpt lat="43.31391493736799" lon="12.864282667698188"><ele>377.0</ele><time>2026-04-11T11:00:34Z</time></trkpt><trkpt lat="43.313943183745366" lon="12.864366505240822"><ele>377.0</ele><time>2026-04-11T11:00:36Z</time></trkpt><trkpt lat="43.3137497137156" lon="12.864573189237325"><ele>381.0</ele><time>2026-04-11T11:00:38Z</time></trkpt><trkpt lat="43.31368399488003" lon="12.86464348078397"><ele>385.0</ele><time>2026-04-11T11:00:40Z</time></trkpt><trkpt lat="43.31359435379219" lon="12.864640100331119"><ele>389.0</ele><time>2026-04-11T11:00:42Z</time></trkpt><trkpt lat="43.313499973969215" lon="12.864683777077198"><ele>393.0</ele><time>2026-04-11T11:00:44Z</time></trkpt><trkpt lat="43.313441267226985" lon="12.86479698097799"><ele>397.0</ele><time>2026-04-11T11:00:46Z</time></trkpt><trkpt lat="43.313400885406615" lon="12.864945928101122"><ele>397.0</ele><time>2026-04-11T11:00:48Z</time></trkpt><trkpt lat="43.313325100383615" lon="12.864959988596752"><ele>397.0</ele><time>2026-04-11T11:00:50Z</time></trkpt><trkpt lat="43.313269409266034" lon="12.86506745815777"><ele>397.0</ele><time>2026-04-11T11:00:52Z</time></trkpt><trkpt lat="43.313228902826104" lon="12.86514894076375"><ele>397.0</ele><time>2026-04-11T11:00:53Z</time></trkpt><trkpt lat="43.31316294887315" lon="12.865297149898186"><ele>397.0</ele><time>2026-04-11T11:00:55Z</time></trkpt><trkpt lat="43.313074901867616" lon="12.8654566017603"><ele>400.25</ele><time>2026-04-11T11:00:57Z</time></trkpt><trkpt lat="43.31299043580105" lon="12.865539830859648"><ele>403.5</ele><time>2026-04-11T11:00:58Z</time></trkpt><trkpt lat="43.312856668833604" lon="12.865666962137126"><ele>406.75</ele><time>2026-04-11T11:01:00Z</time></trkpt><trkpt lat="43.31279818078721" lon="12.865733014008192"><ele>410.0</ele><time>2026-04-11T11:01:01Z</time></trkpt><trkpt lat="43.31270275964463" lon="12.865835383135355"><ele>410.0</ele><time>2026-04-11T11:01:03Z</time></trkpt><trkpt lat="43.312599353434926" lon="12.865845463223291"><ele>410.0</ele><time>2026-04-11T11:01:04Z</time></trkpt><trkpt lat="43.3125100177437" lon="12.86590862913579"><ele>410.0</ele><time>2026-04-11T11:01:05Z</time></trkpt><trkpt lat="43.31244651543449" lon="12.865960964298365"><ele>410.0</ele><time>2026-04-11T11:01:06Z</time></trkpt><trkpt lat="43.3123343442828" lon="12.86599746506497"><ele>410.0</ele><time>2026-04-11T11:01:07Z</time></trkpt><trkpt lat="43.312223182054225" lon="12.866066458442035"><ele>412.8</ele><time>2026-04-11T11:01:08Z</time></trkpt><trkpt lat="43.31212953366209" lon="12.866128104468991"><ele>415.6</ele><time>2026-04-11T11:01:09Z</time></trkpt><trkpt lat="43.312033178341714" lon="12.866210395100016"><ele>418.4</ele><time>2026-04-11T11:01:10Z</time></trkpt><trkpt lat="43.311922791088996" lon="12.866300742776081"><ele>421.2</ele><time>2026-04-11T11:01:11Z</time></trkpt><trkpt lat="43.31184892034084" lon="12.866382831367181"><ele>424.0</ele><time>2026-04-11T11:01:12Z</time></trkpt><trkpt lat="43.311746840986" lon="12.866474950274812"><ele>424.0</ele><time>2026-04-11T11:01:13Z</time></trkpt><trkpt lat="43.31162574149848" lon="12.866568690772652"><ele>424.0</ele><time>2026-04-11T11:01:14Z</time></trkpt><trkpt lat="43.3115028348648" lon="12.866635528096937"><ele>424.0</ele><time>2026-04-11T11:01:15Z</time></trkpt><trkpt lat="43.311392373574314" lon="12.866702391145234"><ele>424.0</ele><time>2026-04-11T11:01:16Z</time></trkpt><trkpt lat="43.31129104915381" lon="12.866768406577203"><ele>428.25</ele><time>2026-04-11T11:01:17Z</time></trkpt><trkpt lat="43.31118370545118" lon="12.866829739611164"><ele>432.5</ele><time>2026-04-11T11:01:18Z</time></trkpt><trkpt lat="43.311074224028616" lon="12.866916369396655"><ele>436.75</ele><time>2026-04-11T11:01:19Z</time></trkpt><trkpt lat="43.31095603478138" lon="12.867007726132648"><ele>441.0</ele><time>2026-04-11T11:01:20Z</time></trkpt><trkpt lat="43.31085795391359" lon="12.867084604757325"><ele>441.0</ele><time>2026-04-11T11:01:21Z</time></trkpt><trkpt lat="43.31074102541573" lon="12.86717253889394"><ele>441.0</ele><time>2026-04-11T11:01:22Z</time></trkpt><trkpt lat="43.31061829679979" lon="12.86725998744323"><ele>441.0</ele><time>2026-04-11T11:01:23Z</time></trkpt><trkpt lat="43.310496903239056" lon="12.867341368225427"><ele>441.0</ele><time>2026-04-11T11:01:24Z</time></trkpt><trkpt lat="43.310381728297784" lon="12.867412096342623"><ele>442.0</ele><time>2026-04-11T11:01:25Z</time></trkpt><trkpt lat="43.3102667541501" lon="12.867472032932731"><ele>443.0</ele><time>2026-04-11T11:01:26Z</time></trkpt><trkpt lat="43.31014703800297" lon="12.867529895876425"><ele>444.0</ele><time>2026-04-11T11:01:27Z</time></trkpt><trkpt lat="43.31003053188046" lon="12.867586571248696"><ele>445.0</ele><time>2026-04-11T11:01:28Z</time></trkpt><trkpt lat="43.30991397037715" lon="12.867642227627405"><ele>448.5</ele><time>2026-04-11T11:01:29Z</time></trkpt><trkpt lat="43.30979778218895" lon="12.867699545437896"><ele>452.0</ele><time>2026-04-11T11:01:30Z</time></trkpt><trkpt lat="43.30967371360298" lon="12.867762439017161"><ele>455.5</ele><time>2026-04-11T11:01:31Z</time></trkpt><trkpt lat="43.30955140793977" lon="12.86782486336177"><ele>459.0</ele><time>2026-04-11T11:01:32Z</time></trkpt><trkpt lat="43.30944072690443" lon="12.867880383170196"><ele>459.0</ele><time>2026-04-11T11:01:33Z</time></trkpt><trkpt lat="43.30932741795457" lon="12.867939789181932"><ele>459.0</ele><time>2026-04-11T11:01:34Z</time></trkpt><trkpt lat="43.309219983988704" lon="12.86799023583176"><ele>459.0</ele><time>2026-04-11T11:01:35Z</time></trkpt><trkpt lat="43.309116232516345" lon="12.868054308685831"><ele>459.0</ele><time>2026-04-11T11:01:36Z</time></trkpt><trkpt lat="43.30903043240735" lon="12.868101313691097"><ele>459.0</ele><time>2026-04-11T11:01:37Z</time></trkpt><trkpt lat="43.30895326855016" lon="12.8681405750893"><ele>461.0</ele><time>2026-04-11T11:01:38Z</time></trkpt><trkpt lat="43.30887555570452" lon="12.868174948782858"><ele>463.0</ele><time>2026-04-11T11:01:39Z</time></trkpt><trkpt lat="43.30879544602939" lon="12.868223130062118"><ele>465.0</ele><time>2026-04-11T11:01:40Z</time></trkpt><trkpt lat="43.30872108223087" lon="12.868276555108629"><ele>467.0</ele><time>2026-04-11T11:01:41Z</time></trkpt><trkpt lat="43.30865304534089" lon="12.868338777713996"><ele>469.0</ele><time>2026-04-11T11:01:42Z</time></trkpt><trkpt lat="43.3085853485973" lon="12.868408179791139"><ele>471.0</ele><time>2026-04-11T11:01:43Z</time></trkpt><trkpt lat="43.30852890176411" lon="12.868486615076698"><ele>473.6</ele><time>2026-04-11T11:01:44Z</time></trkpt><trkpt lat="43.30848861318923" lon="12.868554508268232"><ele>476.20000000000005</ele><time>2026-04-11T11:01:45Z</time></trkpt><trkpt lat="43.3084455972377" lon="12.868640043925934"><ele>478.79999999999995</ele><time>2026-04-11T11:01:47Z</time></trkpt><trkpt lat="43.3084435883861" lon="12.868744549430518"><ele>481.4</ele><time>2026-04-11T11:01:50Z</time></trkpt><trkpt lat="43.30850889059484" lon="12.868806422101262"><ele>484.0</ele><time>2026-04-11T11:01:52Z</time></trkpt><trkpt lat="43.30878343706385" lon="12.868833589994788"><ele>484.00000000000006</ele><time>2026-04-11T11:01:56Z</time></trkpt><trkpt lat="43.30884714897212" lon="12.868894643649542"><ele>484.0</ele><time>2026-04-11T11:01:57Z</time></trkpt><trkpt lat="43.308898810635974" lon="12.868953798391548"><ele>484.0</ele><time>2026-04-11T11:01:58Z</time></trkpt><trkpt lat="43.30896648170466" lon="12.868998609157"><ele>484.0</ele><time>2026-04-11T11:01:59Z</time></trkpt><trkpt lat="43.3090836667016" lon="12.869053396856891"><ele>484.00000000000006</ele><time>2026-04-11T11:02:01Z</time></trkpt><trkpt lat="43.309155975426265" lon="12.869050781939356"><ele>484.0</ele><time>2026-04-11T11:02:02Z</time></trkpt><trkpt lat="43.30925361412314" lon="12.869039480201103"><ele>484.0</ele><time>2026-04-11T11:02:04Z</time></trkpt><trkpt lat="43.30936662692899" lon="12.868918243276083"><ele>484.0</ele><time>2026-04-11T11:02:06Z</time></trkpt><trkpt lat="43.30943951894981" lon="12.868883147944036"><ele>484.0</ele><time>2026-04-11T11:02:07Z</time></trkpt><trkpt lat="43.30953037415415" lon="12.868849038119002"><ele>484.0</ele><time>2026-04-11T11:02:08Z</time></trkpt><trkpt lat="43.30961472276385" lon="12.868823859144667"><ele>484.0</ele><time>2026-04-11T11:02:09Z</time></trkpt><trkpt lat="43.30970129852422" lon="12.868800985109973"><ele>486.79999999999995</ele><time>2026-04-11T11:02:10Z</time></trkpt><trkpt lat="43.30981412933417" lon="12.868773255480859"><ele>489.59999999999997</ele><time>2026-04-11T11:02:11Z</time></trkpt><trkpt lat="43.309908113100256" lon="12.8687516311"><ele>492.4</ele><time>2026-04-11T11:02:12Z</time></trkpt><trkpt lat="43.31002480295109" lon="12.868725417254824"><ele>495.2</ele><time>2026-04-11T11:02:13Z</time></trkpt><trkpt lat="43.31012659897655" lon="12.868711145153739"><ele>498.0</ele><time>2026-04-11T11:02:14Z</time></trkpt><trkpt lat="43.31022917969939" lon="12.86870878036918"><ele>498.0</ele><time>2026-04-11T11:02:15Z</time></trkpt><trkpt lat="43.310342705140144" lon="12.868711624238863"><ele>497.99999999999994</ele><time>2026-04-11T11:02:16Z</time></trkpt><trkpt lat="43.310456581435474" lon="12.868712287498516"><ele>497.99999999999994</ele><time>2026-04-11T11:02:17Z</time></trkpt><trkpt lat="43.31056457782194" lon="12.868721824081524"><ele>498.0</ele><time>2026-04-11T11:02:18Z</time></trkpt><trkpt lat="43.31067391173308" lon="12.868732081591293"><ele>498.0</ele><time>2026-04-11T11:02:19Z</time></trkpt><trkpt lat="43.3109822213975" lon="12.868725808905154"><ele>501.0</ele><time>2026-04-11T11:02:22Z</time></trkpt><trkpt lat="43.311096066447526" lon="12.868728114799405"><ele>504.0</ele><time>2026-04-11T11:02:23Z</time></trkpt><trkpt lat="43.31122123621372" lon="12.86872998932279"><ele>507.0</ele><time>2026-04-11T11:02:24Z</time></trkpt><trkpt lat="43.31134161567597" lon="12.868731771553069"><ele>510.0</ele><time>2026-04-11T11:02:25Z</time></trkpt><trkpt lat="43.31169814427382" lon="12.86872229371057"><ele>511.25</ele><time>2026-04-11T11:02:28Z</time></trkpt><trkpt lat="43.31181872128553" lon="12.868734223859184"><ele>512.5</ele><time>2026-04-11T11:02:29Z</time></trkpt><trkpt lat="43.31194407801389" lon="12.868753508022792"><ele>513.75</ele><time>2026-04-11T11:02:30Z</time></trkpt><trkpt lat="43.31208690965613" lon="12.868783606824973"><ele>515.0</ele><time>2026-04-11T11:02:31Z</time></trkpt><trkpt lat="43.31222171509508" lon="12.86880539139814"><ele>515.4</ele><time>2026-04-11T11:02:32Z</time></trkpt><trkpt lat="43.312350927315684" lon="12.868836315079568"><ele>515.8</ele><time>2026-04-11T11:02:33Z</time></trkpt><trkpt lat="43.31246517363509" lon="12.86886956568995"><ele>516.2</ele><time>2026-04-11T11:02:34Z</time></trkpt><trkpt lat="43.31256871074352" lon="12.868903940342134"><ele>516.6</ele><time>2026-04-11T11:02:35Z</time></trkpt><trkpt lat="43.312659189651974" lon="12.868938716388"><ele>517.0</ele><time>2026-04-11T11:02:36Z</time></trkpt><trkpt lat="43.31274196316118" lon="12.869005605298891"><ele>517.0</ele><time>2026-04-11T11:02:37Z</time></trkpt><trkpt lat="43.31281070776882" lon="12.869092166096161"><ele>517.0</ele><time>2026-04-11T11:02:38Z</time></trkpt><trkpt lat="43.312871059727804" lon="12.869181760518037"><ele>517.0</ele><time>2026-04-11T11:02:39Z</time></trkpt><trkpt lat="43.3129216452469" lon="12.869265031746703"><ele>517.0</ele><time>2026-04-11T11:02:40Z</time></trkpt><trkpt lat="43.31296475594419" lon="12.869352803273339"><ele>517.0</ele><time>2026-04-11T11:02:41Z</time></trkpt><trkpt lat="43.31300888567756" lon="12.86945025748672"><ele>517.0</ele><time>2026-04-11T11:02:42Z</time></trkpt><trkpt lat="43.3130386733237" lon="12.869564267564023"><ele>516.4</ele><time>2026-04-11T11:02:43Z</time></trkpt><trkpt lat="43.31305068693764" lon="12.869680700681208"><ele>515.8000000000001</ele><time>2026-04-11T11:02:44Z</time></trkpt><trkpt lat="43.31302933535496" lon="12.869781547152812"><ele>515.2</ele><time>2026-04-11T11:02:45Z</time></trkpt><trkpt lat="43.312995759025476" lon="12.869892519668317"><ele>514.6</ele><time>2026-04-11T11:02:46Z</time></trkpt><trkpt lat="43.312942802763025" lon="12.86999953238521"><ele>514.0</ele><time>2026-04-11T11:02:47Z</time></trkpt><trkpt lat="43.31287900040679" lon="12.870115959648867"><ele>509.75</ele><time>2026-04-11T11:02:48Z</time></trkpt><trkpt lat="43.31280408357231" lon="12.87023866371866"><ele>505.5</ele><time>2026-04-11T11:02:49Z</time></trkpt><trkpt lat="43.312728304555776" lon="12.870357914326984"><ele>501.25</ele><time>2026-04-11T11:02:50Z</time></trkpt><trkpt lat="43.31265235562668" lon="12.87048023660485"><ele>497.0</ele><time>2026-04-11T11:02:51Z</time></trkpt><trkpt lat="43.312581749143" lon="12.870601556811646"><ele>497.0</ele><time>2026-04-11T11:02:52Z</time></trkpt><trkpt lat="43.312511227247484" lon="12.870714090437437"><ele>497.00000000000006</ele><time>2026-04-11T11:02:53Z</time></trkpt><trkpt lat="43.31243976797338" lon="12.870816818951791"><ele>497.00000000000006</ele><time>2026-04-11T11:02:54Z</time></trkpt><trkpt lat="43.3123714607262" lon="12.870920906517604"><ele>497.0</ele><time>2026-04-11T11:02:55Z</time></trkpt><trkpt lat="43.31230714527142" lon="12.870997900439553"><ele>497.0</ele><time>2026-04-11T11:02:56Z</time></trkpt><trkpt lat="43.31221505772543" lon="12.871075599215883"><ele>495.20000000000005</ele><time>2026-04-11T11:02:57Z</time></trkpt><trkpt lat="43.31211908285617" lon="12.871159682643242"><ele>493.40000000000003</ele><time>2026-04-11T11:02:58Z</time></trkpt><trkpt lat="43.3120315942687" lon="12.871251854724926"><ele>491.59999999999997</ele><time>2026-04-11T11:02:59Z</time></trkpt><trkpt lat="43.311952837790614" lon="12.87134381388803"><ele>489.79999999999995</ele><time>2026-04-11T11:03:00Z</time></trkpt><trkpt lat="43.311881211262886" lon="12.871422065606616"><ele>488.0</ele><time>2026-04-11T11:03:01Z</time></trkpt><trkpt lat="43.311810637513766" lon="12.871486175937989"><ele>487.99999999999994</ele><time>2026-04-11T11:03:02Z</time></trkpt><trkpt lat="43.311743035560994" lon="12.871547323460241"><ele>488.0</ele><time>2026-04-11T11:03:03Z</time></trkpt><trkpt lat="43.31167933065362" lon="12.871611807990142"><ele>488.0</ele><time>2026-04-11T11:03:04Z</time></trkpt><trkpt lat="43.311632320036885" lon="12.871694902622151"><ele>488.0</ele><time>2026-04-11T11:03:05Z</time></trkpt><trkpt lat="43.311590319766474" lon="12.871782960309531"><ele>487.99999999999994</ele><time>2026-04-11T11:03:06Z</time></trkpt><trkpt lat="43.311540084226145" lon="12.871849559192874"><ele>488.0</ele><time>2026-04-11T11:03:07Z</time></trkpt><trkpt lat="43.31147693972538" lon="12.871912146852848"><ele>489.8333333333333</ele><time>2026-04-11T11:03:08Z</time></trkpt><trkpt lat="43.31141881744279" lon="12.871976546192464"><ele>491.66666666666663</ele><time>2026-04-11T11:03:09Z</time></trkpt><trkpt lat="43.311363285287335" lon="12.872056240958617"><ele>493.5</ele><time>2026-04-11T11:03:10Z</time></trkpt><trkpt lat="43.31130817521418" lon="12.872133880558424"><ele>495.33333333333337</ele><time>2026-04-11T11:03:11Z</time></trkpt><trkpt lat="43.31124963019515" lon="12.87220474889575"><ele>497.1666666666667</ele><time>2026-04-11T11:03:12Z</time></trkpt><trkpt lat="43.3111819690391" lon="12.872263113855523"><ele>499.0</ele><time>2026-04-11T11:03:13Z</time></trkpt><trkpt lat="43.311121922132486" lon="12.87232031752088"><ele>499.00000000000006</ele><time>2026-04-11T11:03:14Z</time></trkpt><trkpt lat="43.31107495378479" lon="12.872403666680167"><ele>499.0</ele><time>2026-04-11T11:03:15Z</time></trkpt><trkpt lat="43.31101873950728" lon="12.872497896730543"><ele>499.0</ele><time>2026-04-11T11:03:16Z</time></trkpt><trkpt lat="43.31097107303981" lon="12.872580981349124"><ele>499.0</ele><time>2026-04-11T11:03:17Z</time></trkpt><trkpt lat="43.31091868611646" lon="12.87268228164694"><ele>499.00000000000006</ele><time>2026-04-11T11:03:18Z</time></trkpt><trkpt lat="43.310879307753076" lon="12.87275670164734"><ele>499.0</ele><time>2026-04-11T11:03:19Z</time></trkpt><trkpt lat="43.310823884665126" lon="12.872840319826913"><ele>498.4</ele><time>2026-04-11T11:03:21Z</time></trkpt><trkpt lat="43.310778557620274" lon="12.872938520778105"><ele>497.79999999999995</ele><time>2026-04-11T11:03:23Z</time></trkpt><trkpt lat="43.31075441680152" lon="12.873024498253258"><ele>497.20000000000005</ele><time>2026-04-11T11:03:24Z</time></trkpt><trkpt lat="43.310736043952964" lon="12.8731102276283"><ele>496.6</ele><time>2026-04-11T11:03:25Z</time></trkpt><trkpt lat="43.31073661555166" lon="12.873273821702332"><ele>496.0</ele><time>2026-04-11T11:03:27Z</time></trkpt><trkpt lat="43.31074795652035" lon="12.873430443263583"><ele>497.83333333333337</ele><time>2026-04-11T11:03:29Z</time></trkpt><trkpt lat="43.310753452208665" lon="12.873527034406575"><ele>499.6666666666667</ele><time>2026-04-11T11:03:30Z</time></trkpt><trkpt lat="43.31078433196598" lon="12.873704297443194"><ele>501.5</ele><time>2026-04-11T11:03:32Z</time></trkpt><trkpt lat="43.31082931813737" lon="12.873795569009545"><ele>503.33333333333337</ele><time>2026-04-11T11:03:33Z</time></trkpt><trkpt lat="43.31088229121452" lon="12.873890903811308"><ele>505.1666666666667</ele><time>2026-04-11T11:03:34Z</time></trkpt><trkpt lat="43.310935964444944" lon="12.873964883714958"><ele>507.0</ele><time>2026-04-11T11:03:35Z</time></trkpt><trkpt lat="43.31099459642594" lon="12.874019357671681"><ele>507.0</ele><time>2026-04-11T11:03:36Z</time></trkpt><trkpt lat="43.31105772258489" lon="12.874069981804453"><ele>507.00000000000006</ele><time>2026-04-11T11:03:37Z</time></trkpt><trkpt lat="43.31111028142446" lon="12.874138277172698"><ele>507.00000000000006</ele><time>2026-04-11T11:03:38Z</time></trkpt><trkpt lat="43.3111968519576" lon="12.874254419976229"><ele>507.0</ele><time>2026-04-11T11:03:40Z</time></trkpt><trkpt lat="43.3112969119871" lon="12.87430433720669"><ele>507.0</ele><time>2026-04-11T11:03:42Z</time></trkpt><trkpt lat="43.311372031146206" lon="12.874368730556982"><ele>504.85714285714283</ele><time>2026-04-11T11:03:44Z</time></trkpt><trkpt lat="43.3114240982186" lon="12.874423618667187"><ele>502.7142857142858</ele><time>2026-04-11T11:03:46Z</time></trkpt><trkpt lat="43.31148977052436" lon="12.874459684963028"><ele>500.5714285714286</ele><time>2026-04-11T11:03:49Z</time></trkpt><trkpt lat="43.31155680514615" lon="12.874456777085268"><ele>498.42857142857144</ele><time>2026-04-11T11:03:51Z</time></trkpt><trkpt lat="43.31158014591157" lon="12.874366333856791"><ele>496.28571428571433</ele><time>2026-04-11T11:03:54Z</time></trkpt><trkpt lat="43.311618781487745" lon="12.874247170715053"><ele>494.1428571428572</ele><time>2026-04-11T11:03:57Z</time></trkpt><trkpt lat="43.31165418066318" lon="12.874149680080885"><ele>492.00000000000006</ele><time>2026-04-11T11:03:59Z</time></trkpt><trkpt lat="43.31169906311677" lon="12.874047661977269"><ele>488.5</ele><time>2026-04-11T11:04:01Z</time></trkpt><trkpt lat="43.31175815165786" lon="12.87396618252386"><ele>485.0</ele><time>2026-04-11T11:04:03Z</time></trkpt><trkpt lat="43.31184630645632" lon="12.873888681370554"><ele>481.5</ele><time>2026-04-11T11:04:05Z</time></trkpt><trkpt lat="43.31190936230338" lon="12.873839162342774"><ele>478.0</ele><time>2026-04-11T11:04:06Z</time></trkpt><trkpt lat="43.3119723647228" lon="12.873798867814857"><ele>474.5</ele><time>2026-04-11T11:04:07Z</time></trkpt><trkpt lat="43.31204473973573" lon="12.873776645484933"><ele>471.0</ele><time>2026-04-11T11:04:08Z</time></trkpt><trkpt lat="43.312119056518696" lon="12.873754402721493"><ele>471.00000000000006</ele><time>2026-04-11T11:04:09Z</time></trkpt><trkpt lat="43.312197707498065" lon="12.873736022368046"><ele>471.0</ele><time>2026-04-11T11:04:10Z</time></trkpt><trkpt lat="43.31226625050792" lon="12.87371384592611"><ele>471.00000000000006</ele><time>2026-04-11T11:04:11Z</time></trkpt><trkpt lat="43.312335117765635" lon="12.873692242249467"><ele>471.00000000000006</ele><time>2026-04-11T11:04:12Z</time></trkpt><trkpt lat="43.31240162197114" lon="12.873684427443102"><ele>471.0</ele><time>2026-04-11T11:04:13Z</time></trkpt><trkpt lat="43.312462957371984" lon="12.873662924206913"><ele>471.00000000000006</ele><time>2026-04-11T11:04:14Z</time></trkpt><trkpt lat="43.31253016350593" lon="12.873641594811922"><ele>471.00000000000006</ele><time>2026-04-11T11:04:15Z</time></trkpt><trkpt lat="43.312595743435104" lon="12.873619379763383"><ele>470.1666666666667</ele><time>2026-04-11T11:04:16Z</time></trkpt><trkpt lat="43.312668559631895" lon="12.873598240354166"><ele>469.33333333333337</ele><time>2026-04-11T11:04:17Z</time></trkpt><trkpt lat="43.312749601108344" lon="12.873594861808963"><ele>468.5</ele><time>2026-04-11T11:04:18Z</time></trkpt><trkpt lat="43.31282569675649" lon="12.873600231152286"><ele>467.6666666666667</ele><time>2026-04-11T11:04:19Z</time></trkpt><trkpt lat="43.31290953638251" lon="12.87360450508285"><ele>466.83333333333337</ele><time>2026-04-11T11:04:20Z</time></trkpt><trkpt lat="43.312997146657175" lon="12.873609028243946"><ele>466.0</ele><time>2026-04-11T11:04:21Z</time></trkpt><trkpt lat="43.313102989036466" lon="12.873615884685888"><ele>464.0</ele><time>2026-04-11T11:04:22Z</time></trkpt><trkpt lat="43.31320944851385" lon="12.87360502798879"><ele>462.0</ele><time>2026-04-11T11:04:23Z</time></trkpt><trkpt lat="43.313306471808005" lon="12.873601718194882"><ele>460.0</ele><time>2026-04-11T11:04:24Z</time></trkpt><trkpt lat="43.313405807485076" lon="12.873594517082283"><ele>458.0</ele><time>2026-04-11T11:04:25Z</time></trkpt><trkpt lat="43.313503683122086" lon="12.873589345206733"><ele>456.0</ele><time>2026-04-11T11:04:26Z</time></trkpt><trkpt lat="43.31360597932106" lon="12.873588130300103"><ele>456.0</ele><time>2026-04-11T11:04:27Z</time></trkpt><trkpt lat="43.313699935801075" lon="12.873572970898786"><ele>456.0</ele><time>2026-04-11T11:04:28Z</time></trkpt><trkpt lat="43.31378598740598" lon="12.873562131771674"><ele>456.0</ele><time>2026-04-11T11:04:29Z</time></trkpt><trkpt lat="43.31387130534238" lon="12.87354835192271"><ele>456.0</ele><time>2026-04-11T11:04:30Z</time></trkpt><trkpt lat="43.31395792954295" lon="12.873514405359591"><ele>456.0</ele><time>2026-04-11T11:04:31Z</time></trkpt><trkpt lat="43.31403678561397" lon="12.873484890875275"><ele>456.0</ele><time>2026-04-11T11:04:32Z</time></trkpt><trkpt lat="43.31411725474299" lon="12.873458629557922"><ele>450.5</ele><time>2026-04-11T11:04:33Z</time></trkpt><trkpt lat="43.31418575059107" lon="12.87343215236989"><ele>445.0</ele><time>2026-04-11T11:04:34Z</time></trkpt><trkpt lat="43.314260389888354" lon="12.873402597040183"><ele>439.5</ele><time>2026-04-11T11:04:35Z</time></trkpt><trkpt lat="43.31434507123966" lon="12.873377156424183"><ele>434.0</ele><time>2026-04-11T11:04:36Z</time></trkpt><trkpt lat="43.3144292095639" lon="12.873360664868606"><ele>428.5</ele><time>2026-04-11T11:04:37Z</time></trkpt><trkpt lat="43.31451680487987" lon="12.873344683821175"><ele>423.0</ele><time>2026-04-11T11:04:38Z</time></trkpt><trkpt lat="43.314595392624035" lon="12.873334986940625"><ele>423.0</ele><time>2026-04-11T11:04:39Z</time></trkpt><trkpt lat="43.31466349567632" lon="12.873325916477542"><ele>423.0</ele><time>2026-04-11T11:04:40Z</time></trkpt><trkpt lat="43.31476021036735" lon="12.873300425391035"><ele>423.0</ele><time>2026-04-11T11:04:42Z</time></trkpt><trkpt lat="43.31484383638018" lon="12.873287836086325"><ele>423.0</ele><time>2026-04-11T11:04:44Z</time></trkpt><trkpt lat="43.31494532595927" lon="12.87330413790029"><ele>423.0</ele><time>2026-04-11T11:04:46Z</time></trkpt><trkpt lat="43.31506027401667" lon="12.873371350511581"><ele>425.0</ele><time>2026-04-11T11:04:48Z</time></trkpt><trkpt lat="43.31513320698484" lon="12.87344797633099"><ele>427.0</ele><time>2026-04-11T11:04:49Z</time></trkpt><trkpt lat="43.31521277141735" lon="12.87351474098072"><ele>428.99999999999994</ele><time>2026-04-11T11:04:50Z</time></trkpt><trkpt lat="43.315307608218326" lon="12.873592396490228"><ele>431.0</ele><time>2026-04-11T11:04:51Z</time></trkpt><trkpt lat="43.315403386387906" lon="12.873688114963961"><ele>433.0</ele><time>2026-04-11T11:04:52Z</time></trkpt><trkpt lat="43.3154698471296" lon="12.873758871507897"><ele>433.00000000000006</ele><time>2026-04-11T11:04:53Z</time></trkpt><trkpt lat="43.31553110267575" lon="12.873831699359643"><ele>433.0</ele><time>2026-04-11T11:04:54Z</time></trkpt><trkpt lat="43.31560016545289" lon="12.873929226509155"><ele>433.0</ele><time>2026-04-11T11:04:55Z</time></trkpt><trkpt lat="43.315666639133674" lon="12.874034652090113"><ele>433.0</ele><time>2026-04-11T11:04:56Z</time></trkpt><trkpt lat="43.315721727692434" lon="12.874123739891576"><ele>433.00000000000006</ele><time>2026-04-11T11:04:57Z</time></trkpt><trkpt lat="43.3157626180974" lon="12.87421889515429"><ele>433.0</ele><time>2026-04-11T11:04:58Z</time></trkpt><trkpt lat="43.31579850388941" lon="12.874300069213582"><ele>432.1666666666667</ele><time>2026-04-11T11:04:59Z</time></trkpt><trkpt lat="43.31583738235431" lon="12.874384593973682"><ele>431.33333333333337</ele><time>2026-04-11T11:05:00Z</time></trkpt><trkpt lat="43.315878240743075" lon="12.874486875525553"><ele>430.5</ele><time>2026-04-11T11:05:01Z</time></trkpt><trkpt lat="43.31592359026878" lon="12.874577677346053"><ele>429.66666666666663</ele><time>2026-04-11T11:05:02Z</time></trkpt><trkpt lat="43.31596544083139" lon="12.874658601836146"><ele>428.8333333333333</ele><time>2026-04-11T11:05:03Z</time></trkpt><trkpt lat="43.316032119046476" lon="12.874776100896844"><ele>428.0</ele><time>2026-04-11T11:05:05Z</time></trkpt><trkpt lat="43.31606800856989" lon="12.87489688528707"><ele>428.0</ele><time>2026-04-11T11:05:07Z</time></trkpt><trkpt lat="43.31608040726304" lon="12.874988099576065"><ele>427.99999999999994</ele><time>2026-04-11T11:05:09Z</time></trkpt><trkpt lat="43.316034104233935" lon="12.875120833625338"><ele>427.99999999999994</ele><time>2026-04-11T11:05:11Z</time></trkpt><trkpt lat="43.316029121412136" lon="12.875265780760893"><ele>428.0</ele><time>2026-04-11T11:05:13Z</time></trkpt><trkpt lat="43.31607945814601" lon="12.875382877819652"><ele>428.0</ele><time>2026-04-11T11:05:15Z</time></trkpt><trkpt lat="43.316142918204164" lon="12.87549608672736"><ele>428.8333333333333</ele><time>2026-04-11T11:05:17Z</time></trkpt><trkpt lat="43.31619851726896" lon="12.875665160840624"><ele>429.66666666666663</ele><time>2026-04-11T11:05:19Z</time></trkpt><trkpt lat="43.31621231958889" lon="12.87576584587006"><ele>430.5</ele><time>2026-04-11T11:05:20Z</time></trkpt><trkpt lat="43.31622158374285" lon="12.875862115385921"><ele>431.33333333333337</ele><time>2026-04-11T11:05:21Z</time></trkpt><trkpt lat="43.31622577318365" lon="12.875967018023431"><ele>432.1666666666667</ele><time>2026-04-11T11:05:22Z</time></trkpt><trkpt lat="43.31621881562748" lon="12.876060385840304"><ele>433.0</ele><time>2026-04-11T11:05:23Z</time></trkpt><trkpt lat="43.31619096091894" lon="12.87614247761219"><ele>433.57142857142856</ele><time>2026-04-11T11:05:24Z</time></trkpt><trkpt lat="43.316144610548285" lon="12.876207442050527"><ele>434.1428571428571</ele><time>2026-04-11T11:05:25Z</time></trkpt><trkpt lat="43.31612010840218" lon="12.876290229945138"><ele>434.71428571428567</ele><time>2026-04-11T11:05:26Z</time></trkpt><trkpt lat="43.316095983242214" lon="12.876381702448008"><ele>435.2857142857143</ele><time>2026-04-11T11:05:27Z</time></trkpt><trkpt lat="43.31607912852443" lon="12.876477951197952"><ele>435.8571428571429</ele><time>2026-04-11T11:05:28Z</time></trkpt><trkpt lat="43.31607147319299" lon="12.876576114339219"><ele>436.4285714285714</ele><time>2026-04-11T11:05:29Z</time></trkpt><trkpt lat="43.316076493122814" lon="12.8766798444149"><ele>437.0</ele><time>2026-04-11T11:05:30Z</time></trkpt><trkpt lat="43.31607632556287" lon="12.87677542123328"><ele>437.49999999999994</ele><time>2026-04-11T11:05:31Z</time></trkpt><trkpt lat="43.31608019438481" lon="12.876870078017205"><ele>438.0</ele><time>2026-04-11T11:05:32Z</time></trkpt><trkpt lat="43.31607329959247" lon="12.876972063294398"><ele>438.5</ele><time>2026-04-11T11:05:33Z</time></trkpt><trkpt lat="43.31604865841827" lon="12.877075091878213"><ele>439.0</ele><time>2026-04-11T11:05:34Z</time></trkpt><trkpt lat="43.316036048530215" lon="12.87719448137849"><ele>439.49999999999994</ele><time>2026-04-11T11:05:35Z</time></trkpt><trkpt lat="43.31601623271953" lon="12.877293944987974"><ele>440.0</ele><time>2026-04-11T11:05:36Z</time></trkpt><trkpt lat="43.31599802493707" lon="12.877385368057418"><ele>440.0</ele><time>2026-04-11T11:05:37Z</time></trkpt><trkpt lat="43.31598885938629" lon="12.877474336998723"><ele>440.0</ele><time>2026-04-11T11:05:38Z</time></trkpt><trkpt lat="43.31586954967533" lon="12.8775904900398"><ele>440.0</ele><time>2026-04-11T11:05:39Z</time></trkpt><trkpt lat="43.31588366627872" lon="12.877683804398055"><ele>440.0</ele><time>2026-04-11T11:05:40Z</time></trkpt><trkpt lat="43.315836269983215" lon="12.877863081287382"><ele>440.0</ele><time>2026-04-11T11:05:41Z</time></trkpt><trkpt lat="43.31586176473216" lon="12.878013944830629"><ele>440.4</ele><time>2026-04-11T11:05:43Z</time></trkpt><trkpt lat="43.315906137274375" lon="12.878158545103759"><ele>440.8</ele><time>2026-04-11T11:05:45Z</time></trkpt><trkpt lat="43.31589622378302" lon="12.878324699563175"><ele>441.20000000000005</ele><time>2026-04-11T11:05:47Z</time></trkpt><trkpt lat="43.3159248792686" lon="12.8784724049162"><ele>441.6</ele><time>2026-04-11T11:05:50Z</time></trkpt><trkpt lat="43.31593399411498" lon="12.878580963578973"><ele>442.0</ele><time>2026-04-11T11:05:51Z</time></trkpt><trkpt lat="43.31595902736605" lon="12.878677455773284"><ele>446.0</ele><time>2026-04-11T11:05:52Z</time></trkpt><trkpt lat="43.31598765432655" lon="12.878765339698417"><ele>450.00000000000006</ele><time>2026-04-11T11:05:53Z</time></trkpt><trkpt lat="43.3160293045527" lon="12.87886381313236"><ele>454.00000000000006</ele><time>2026-04-11T11:05:54Z</time></trkpt><trkpt lat="43.31606176555485" lon="12.878975021492684"><ele>458.0</ele><time>2026-04-11T11:05:55Z</time></trkpt><trkpt lat="43.316083343734476" lon="12.879115699588624"><ele>462.0</ele><time>2026-04-11T11:05:56Z</time></trkpt><trkpt lat="43.31614985297754" lon="12.879253941398547"><ele>466.0</ele><time>2026-04-11T11:05:57Z</time></trkpt><trkpt lat="43.31621727559352" lon="12.879408304098858"><ele>470.00000000000006</ele><time>2026-04-11T11:05:58Z</time></trkpt><trkpt lat="43.31626125215666" lon="12.879549409862571"><ele>474.00000000000006</ele><time>2026-04-11T11:05:59Z</time></trkpt><trkpt lat="43.31626650051554" lon="12.879663552244489"><ele>478.0</ele><time>2026-04-11T11:06:00Z</time></trkpt><trkpt lat="43.316261620206014" lon="12.879771488837255"><ele>482.0</ele><time>2026-04-11T11:06:01Z</time></trkpt><trkpt lat="43.31629373497097" lon="12.879864329658231"><ele>482.0</ele><time>2026-04-11T11:06:02Z</time></trkpt><trkpt lat="43.316339783793076" lon="12.88004525296052"><ele>482.00000000000006</ele><time>2026-04-11T11:06:04Z</time></trkpt><trkpt lat="43.31636973177414" lon="12.88016281622746"><ele>482.00000000000006</ele><time>2026-04-11T11:06:05Z</time></trkpt><trkpt lat="43.31639783848367" lon="12.880280654374952"><ele>482.0</ele><time>2026-04-11T11:06:06Z</time></trkpt><trkpt lat="43.31642765894792" lon="12.880380770972705"><ele>482.0</ele><time>2026-04-11T11:06:07Z</time></trkpt><trkpt lat="43.31644349248375" lon="12.8804839304988"><ele>479.28571428571433</ele><time>2026-04-11T11:06:08Z</time></trkpt><trkpt lat="43.31649227440297" lon="12.880569162023138"><ele>476.5714285714286</ele><time>2026-04-11T11:06:09Z</time></trkpt><trkpt lat="43.31652538177005" lon="12.880663331597578"><ele>473.8571428571429</ele><time>2026-04-11T11:06:10Z</time></trkpt><trkpt lat="43.31655109654042" lon="12.88075290013158"><ele>471.1428571428571</ele><time>2026-04-11T11:06:11Z</time></trkpt><trkpt lat="43.31656816923959" lon="12.88084842588397"><ele>468.4285714285714</ele><time>2026-04-11T11:06:12Z</time></trkpt><trkpt lat="43.316596702137545" lon="12.880935966399473"><ele>465.71428571428567</ele><time>2026-04-11T11:06:13Z</time></trkpt><trkpt lat="43.316625701769624" lon="12.881020165985841"><ele>463.0</ele><time>2026-04-11T11:06:14Z</time></trkpt><trkpt lat="43.31665986318362" lon="12.88112021191857"><ele>463.0</ele><time>2026-04-11T11:06:15Z</time></trkpt><trkpt lat="43.316700413572" lon="12.88123593654165"><ele>462.99999999999994</ele><time>2026-04-11T11:06:16Z</time></trkpt><trkpt lat="43.31673697176948" lon="12.881345448039289"><ele>462.99999999999994</ele><time>2026-04-11T11:06:17Z</time></trkpt><trkpt lat="43.31677639205779" lon="12.881462039581528"><ele>463.0</ele><time>2026-04-11T11:06:18Z</time></trkpt><trkpt lat="43.31681863244331" lon="12.881586987873927"><ele>463.0</ele><time>2026-04-11T11:06:19Z</time></trkpt><trkpt lat="43.316863301289736" lon="12.881721878184981"><ele>466.2</ele><time>2026-04-11T11:06:20Z</time></trkpt><trkpt lat="43.31690936580288" lon="12.881859792033271"><ele>469.4</ele><time>2026-04-11T11:06:21Z</time></trkpt><trkpt lat="43.31694945726993" lon="12.88199153624451"><ele>472.59999999999997</ele><time>2026-04-11T11:06:22Z</time></trkpt><trkpt lat="43.31698897966837" lon="12.882119928432202"><ele>475.79999999999995</ele><time>2026-04-11T11:06:23Z</time></trkpt><trkpt lat="43.317030679404695" lon="12.88225445446488"><ele>479.0</ele><time>2026-04-11T11:06:24Z</time></trkpt><trkpt lat="43.317059730288626" lon="12.882379186724163"><ele>479.0</ele><time>2026-04-11T11:06:25Z</time></trkpt><trkpt lat="43.31708642751228" lon="12.882498512886063"><ele>479.0</ele><time>2026-04-11T11:06:26Z</time></trkpt><trkpt lat="43.31712448899304" lon="12.88260884167422"><ele>479.0</ele><time>2026-04-11T11:06:27Z</time></trkpt><trkpt lat="43.31717847271261" lon="12.88271912548312"><ele>479.0</ele><time>2026-04-11T11:06:28Z</time></trkpt><trkpt lat="43.31721245791159" lon="12.882847724357681"><ele>479.0</ele><time>2026-04-11T11:06:29Z</time></trkpt><trkpt lat="43.31724291146615" lon="12.882966609975524"><ele>472.79999999999995</ele><time>2026-04-11T11:06:30Z</time></trkpt><trkpt lat="43.31727749325104" lon="12.8830678634601"><ele>466.59999999999997</ele><time>2026-04-11T11:06:31Z</time></trkpt><trkpt lat="43.317319760145885" lon="12.88317807090177"><ele>460.4</ele><time>2026-04-11T11:06:32Z</time></trkpt><trkpt lat="43.31735777946915" lon="12.883302457235931"><ele>454.2</ele><time>2026-04-11T11:06:33Z</time></trkpt><trkpt lat="43.31740305741939" lon="12.883431731796742"><ele>448.0</ele><time>2026-04-11T11:06:34Z</time></trkpt><trkpt lat="43.317447270015876" lon="12.88355802145146"><ele>448.0</ele><time>2026-04-11T11:06:35Z</time></trkpt><trkpt lat="43.31749257711014" lon="12.883684638895607"><ele>447.99999999999994</ele><time>2026-04-11T11:06:36Z</time></trkpt><trkpt lat="43.31752485015068" lon="12.883813338705478"><ele>447.99999999999994</ele><time>2026-04-11T11:06:37Z</time></trkpt><trkpt lat="43.31755477187464" lon="12.883946398767467"><ele>448.0</ele><time>2026-04-11T11:06:38Z</time></trkpt><trkpt lat="43.31760177531969" lon="12.884078248472873"><ele>448.0</ele><time>2026-04-11T11:06:39Z</time></trkpt><trkpt lat="43.317644643854855" lon="12.884227491141328"><ele>449.6666666666667</ele><time>2026-04-11T11:06:40Z</time></trkpt><trkpt lat="43.31768728671568" lon="12.884370791539023"><ele>451.33333333333337</ele><time>2026-04-11T11:06:41Z</time></trkpt><trkpt lat="43.31772185509386" lon="12.8844732459057"><ele>453.0</ele><time>2026-04-11T11:06:42Z</time></trkpt><trkpt lat="43.317734015605645" lon="12.884568383226132"><ele>454.66666666666663</ele><time>2026-04-11T11:06:43Z</time></trkpt><trkpt lat="43.31776463288916" lon="12.884652527020531"><ele>456.3333333333333</ele><time>2026-04-11T11:06:44Z</time></trkpt><trkpt lat="43.317810618288874" lon="12.884752590277383"><ele>458.0</ele><time>2026-04-11T11:06:45Z</time></trkpt><trkpt lat="43.31784494844128" lon="12.884842700231165"><ele>457.99999999999994</ele><time>2026-04-11T11:06:46Z</time></trkpt><trkpt lat="43.31787564711898" lon="12.88493744256233"><ele>458.0</ele><time>2026-04-11T11:06:47Z</time></trkpt><trkpt lat="43.31789552357798" lon="12.88504148763375"><ele>458.0</ele><time>2026-04-11T11:06:48Z</time></trkpt><trkpt lat="43.31792474199149" lon="12.88513632268092"><ele>458.0</ele><time>2026-04-11T11:06:49Z</time></trkpt><trkpt lat="43.31796205742263" lon="12.885216321082291"><ele>457.99999999999994</ele><time>2026-04-11T11:06:50Z</time></trkpt><trkpt lat="43.31798859077964" lon="12.885346456645882"><ele>458.0</ele><time>2026-04-11T11:06:52Z</time></trkpt><trkpt lat="43.31805999602147" lon="12.885450730153286"><ele>446.0</ele><time>2026-04-11T11:06:54Z</time></trkpt><trkpt lat="43.31813934233421" lon="12.885514645281786"><ele>433.99999999999994</ele><time>2026-04-11T11:06:56Z</time></trkpt><trkpt lat="43.318224648712274" lon="12.885543614146142"><ele>422.0</ele><time>2026-04-11T11:06:58Z</time></trkpt><trkpt lat="43.31812451609449" lon="12.88573494980313"><ele>410.0</ele><time>2026-04-11T11:06:59Z</time></trkpt><trkpt lat="43.31819113330749" lon="12.885805779236659"><ele>398.0</ele><time>2026-04-11T11:07:01Z</time></trkpt><trkpt lat="43.318153670058585" lon="12.885946996410649"><ele>393.66666666666663</ele><time>2026-04-11T11:07:02Z</time></trkpt><trkpt lat="43.31817834653003" lon="12.886094373537958"><ele>389.3333333333333</ele><time>2026-04-11T11:07:04Z</time></trkpt><trkpt lat="43.318255744678076" lon="12.886144588696508"><ele>385.0</ele><time>2026-04-11T11:07:06Z</time></trkpt><trkpt lat="43.31834781835345" lon="12.886182487979905"><ele>380.66666666666663</ele><time>2026-04-11T11:07:08Z</time></trkpt><trkpt lat="43.318410313220795" lon="12.886213834573775"><ele>376.3333333333333</ele><time>2026-04-11T11:07:09Z</time></trkpt><trkpt lat="43.31849288437345" lon="12.886260298846167"><ele>372.0</ele><time>2026-04-11T11:07:11Z</time></trkpt><trkpt lat="43.31872453518595" lon="12.886264449715043"><ele>372.0</ele><time>2026-04-11T11:07:16Z</time></trkpt><trkpt lat="43.318796277784024" lon="12.886313041249396"><ele>372.0</ele><time>2026-04-11T11:07:18Z</time></trkpt><trkpt lat="43.318856023023805" lon="12.886379316335956"><ele>372.0</ele><time>2026-04-11T11:07:20Z</time></trkpt><trkpt lat="43.31888476544211" lon="12.886524207913666"><ele>372.0</ele><time>2026-04-11T11:07:22Z</time></trkpt><trkpt lat="43.31890034460111" lon="12.886688065578127"><ele>372.0</ele><time>2026-04-11T11:07:24Z</time></trkpt><trkpt lat="43.3188954694546" lon="12.886795228316185"><ele>373.20000000000005</ele><time>2026-04-11T11:07:25Z</time></trkpt><trkpt lat="43.318872357701615" lon="12.886924741704702"><ele>374.4</ele><time>2026-04-11T11:07:26Z</time></trkpt><trkpt lat="43.318847236775255" lon="12.887059543342962"><ele>375.6</ele><time>2026-04-11T11:07:27Z</time></trkpt><trkpt lat="43.318818412776515" lon="12.887169777553463"><ele>376.79999999999995</ele><time>2026-04-11T11:07:28Z</time></trkpt><trkpt lat="43.318784462037726" lon="12.887341300751975"><ele>378.0</ele><time>2026-04-11T11:07:30Z</time></trkpt><trkpt lat="43.31879723317158" lon="12.887481681334924"><ele>382.2</ele><time>2026-04-11T11:07:31Z</time></trkpt><trkpt lat="43.31879777486227" lon="12.887646598153044"><ele>386.4</ele><time>2026-04-11T11:07:32Z</time></trkpt><trkpt lat="43.318791811159194" lon="12.887801179416481"><ele>390.59999999999997</ele><time>2026-04-11T11:07:33Z</time></trkpt><trkpt lat="43.31880383637224" lon="12.887930031244888"><ele>394.79999999999995</ele><time>2026-04-11T11:07:34Z</time></trkpt><trkpt lat="43.318822383080565" lon="12.888069877691892"><ele>399.0</ele><time>2026-04-11T11:07:35Z</time></trkpt><trkpt lat="43.31884033490048" lon="12.888195585698494"><ele>398.25</ele><time>2026-04-11T11:07:36Z</time></trkpt><trkpt lat="43.31896270042891" lon="12.888277766826953"><ele>397.5</ele><time>2026-04-11T11:07:37Z</time></trkpt><trkpt lat="43.31900027212246" lon="12.888429028425254"><ele>396.75</ele><time>2026-04-11T11:07:38Z</time></trkpt><trkpt lat="43.319035345978314" lon="12.888575595930497"><ele>396.0</ele><time>2026-04-11T11:07:39Z</time></trkpt><trkpt lat="43.31907603927964" lon="12.888701576692894"><ele>395.6</ele><time>2026-04-11T11:07:40Z</time></trkpt><trkpt lat="43.319117175612526" lon="12.888819154009116"><ele>395.20000000000005</ele><time>2026-04-11T11:07:41Z</time></trkpt><trkpt lat="43.319123340995056" lon="12.88894116005597"><ele>394.79999999999995</ele><time>2026-04-11T11:07:42Z</time></trkpt><trkpt lat="43.319145684189486" lon="12.88903257100438"><ele>394.4</ele><time>2026-04-11T11:07:43Z</time></trkpt><trkpt lat="43.31919435370424" lon="12.889221202960575"><ele>394.0</ele><time>2026-04-11T11:07:45Z</time></trkpt><trkpt lat="43.31923330854138" lon="12.889348859764649"><ele>394.0</ele><time>2026-04-11T11:07:46Z</time></trkpt><trkpt lat="43.31929267870822" lon="12.889409094362774"><ele>394.0</ele><time>2026-04-11T11:07:47Z</time></trkpt><trkpt lat="43.31934556252773" lon="12.889470569752916"><ele>394.0</ele><time>2026-04-11T11:07:48Z</time></trkpt><trkpt lat="43.31940335280149" lon="12.88953803885481"><ele>394.0</ele><time>2026-04-11T11:07:49Z</time></trkpt><trkpt lat="43.319447394048204" lon="12.889619164245001"><ele>394.0</ele><time>2026-04-11T11:07:50Z</time></trkpt><trkpt lat="43.319467710187666" lon="12.88970793615658"><ele>394.0</ele><time>2026-04-11T11:07:51Z</time></trkpt><trkpt lat="43.319494018715886" lon="12.889790979718292"><ele>394.0</ele><time>2026-04-11T11:07:52Z</time></trkpt><trkpt lat="43.31951932198303" lon="12.889871008806518"><ele>394.00000000000006</ele><time>2026-04-11T11:07:53Z</time></trkpt><trkpt lat="43.31955042865956" lon="12.889967691382207"><ele>394.0</ele><time>2026-04-11T11:07:54Z</time></trkpt><trkpt lat="43.31957680058077" lon="12.890049658229886"><ele>394.0</ele><time>2026-04-11T11:07:55Z</time></trkpt><trkpt lat="43.31960418731771" lon="12.8901347790755"><ele>394.0</ele><time>2026-04-11T11:07:56Z</time></trkpt><trkpt lat="43.31965066967443" lon="12.89028008987633"><ele>394.00000000000006</ele><time>2026-04-11T11:07:58Z</time></trkpt><trkpt lat="43.31969514947387" lon="12.890420224599048"><ele>394.0</ele><time>2026-04-11T11:08:00Z</time></trkpt><trkpt lat="43.319734122593374" lon="12.890542988369724"><ele>379.5</ele><time>2026-04-11T11:08:02Z</time></trkpt><trkpt lat="43.31976933314959" lon="12.890653872961988"><ele>365.0</ele><time>2026-04-11T11:08:05Z</time></trkpt><trkpt lat="43.32020827458272" lon="12.8904172708694"><ele>365.0</ele><time>2026-04-11T11:08:06Z</time></trkpt><trkpt lat="43.32010739376126" lon="12.890492746809985"><ele>365.0</ele><time>2026-04-11T11:08:11Z</time></trkpt><trkpt lat="43.320028180585425" lon="12.890605591294218"><ele>365.0</ele><time>2026-04-11T11:08:13Z</time></trkpt><trkpt lat="43.319990760908496" lon="12.890741948228122"><ele>365.0</ele><time>2026-04-11T11:08:15Z</time></trkpt><trkpt lat="43.31994162166442" lon="12.890836714599171"><ele>365.0</ele><time>2026-04-11T11:08:16.999Z</time></trkpt><trkpt lat="43.319878330561366" lon="12.89094064724535"><ele>364.83333333333337</ele><time>2026-04-11T11:08:18.999Z</time></trkpt><trkpt lat="43.31983215581246" lon="12.891040211703823"><ele>364.6666666666667</ele><time>2026-04-11T11:08:20.999Z</time></trkpt><trkpt lat="43.31980299644678" lon="12.891194682645107"><ele>364.5</ele><time>2026-04-11T11:08:22.999Z</time></trkpt><trkpt lat="43.31977652026553" lon="12.891299916926592"><ele>364.3333333333333</ele><time>2026-04-11T11:08:24.999Z</time></trkpt><trkpt lat="43.31977041060513" lon="12.891407556264209"><ele>364.16666666666663</ele><time>2026-04-11T11:08:26.999Z</time></trkpt><trkpt lat="43.31975939285311" lon="12.8915052765627"><ele>364.0</ele><time>2026-04-11T11:08:28.999Z</time></trkpt><trkpt lat="43.31971426237743" lon="12.891590730615675"><ele>365.2</ele><time>2026-04-11T11:08:30.999Z</time></trkpt><trkpt lat="43.31963522515845" lon="12.891658037041319"><ele>366.4</ele><time>2026-04-11T11:08:32.999Z</time></trkpt><trkpt lat="43.31955774880087" lon="12.891748108662146"><ele>367.6</ele><time>2026-04-11T11:08:34.999Z</time></trkpt><trkpt lat="43.31951820167739" lon="12.891867648093465"><ele>368.8</ele><time>2026-04-11T11:08:36.999Z</time></trkpt><trkpt lat="43.31943879326457" lon="12.891990250708032"><ele>370.0</ele><time>2026-04-11T11:08:38.999Z</time></trkpt><trkpt lat="43.31937738709944" lon="12.892064935656562"><ele>370.16666666666663</ele><time>2026-04-11T11:08:40.999Z</time></trkpt><trkpt lat="43.3193063990576" lon="12.892107802652587"><ele>370.3333333333333</ele><time>2026-04-11T11:08:43.999Z</time></trkpt><trkpt lat="43.319284609603265" lon="12.892189401826906"><ele>370.5</ele><time>2026-04-11T11:08:44.999Z</time></trkpt><trkpt lat="43.319219243133716" lon="12.892308311169675"><ele>370.6666666666667</ele><time>2026-04-11T11:08:46.999Z</time></trkpt><trkpt lat="43.31915625112471" lon="12.892359888855129"><ele>370.83333333333337</ele><time>2026-04-11T11:08:47.999Z</time></trkpt><trkpt lat="43.319079122034786" lon="12.892421313900769"><ele>371.0</ele><time>2026-04-11T11:08:48.999Z</time></trkpt><trkpt lat="43.31901152131211" lon="12.892490503273661"><ele>371.0</ele><time>2026-04-11T11:08:49.999Z</time></trkpt><trkpt lat="43.31893952575793" lon="12.892555021118525"><ele>371.0</ele><time>2026-04-11T11:08:50.999Z</time></trkpt><trkpt lat="43.31886752352189" lon="12.89261659131382"><ele>371.0</ele><time>2026-04-11T11:08:51.999Z</time></trkpt><trkpt lat="43.31879858100362" lon="12.892696742522531"><ele>371.0</ele><time>2026-04-11T11:08:52.999Z</time></trkpt><trkpt lat="43.31872992812789" lon="12.892762845762123"><ele>371.0</ele><time>2026-04-11T11:08:53.999Z</time></trkpt><trkpt lat="43.318664617968246" lon="12.892836104480121"><ele>371.0</ele><time>2026-04-11T11:08:54.999Z</time></trkpt><trkpt lat="43.31860535731372" lon="12.892919073758389"><ele>371.8</ele><time>2026-04-11T11:08:55.999Z</time></trkpt><trkpt lat="43.31855150129878" lon="12.893003415802415"><ele>372.6</ele><time>2026-04-11T11:08:56.999Z</time></trkpt><trkpt lat="43.318486070606674" lon="12.893099488957278"><ele>373.4</ele><time>2026-04-11T11:08:57.999Z</time></trkpt><trkpt lat="43.318419633432974" lon="12.893210297577346"><ele>374.2</ele><time>2026-04-11T11:08:58.999Z</time></trkpt><trkpt lat="43.31836604885928" lon="12.89332682940938"><ele>375.0</ele><time>2026-04-11T11:08:59.999Z</time></trkpt><trkpt lat="43.318316167449005" lon="12.893430756733292"><ele>375.1666666666667</ele><time>2026-04-11T11:09:00.999Z</time></trkpt><trkpt lat="43.318274746393506" lon="12.893515611192528"><ele>375.3333333333333</ele><time>2026-04-11T11:09:01.999Z</time></trkpt><trkpt lat="43.318207990459314" lon="12.893578089448834"><ele>375.5</ele><time>2026-04-11T11:09:02.999Z</time></trkpt><trkpt lat="43.31813152411086" lon="12.893635374625932"><ele>375.66666666666663</ele><time>2026-04-11T11:09:03.999Z</time></trkpt><trkpt lat="43.31806442655416" lon="12.893700257096889"><ele>375.8333333333333</ele><time>2026-04-11T11:09:04.999Z</time></trkpt><trkpt lat="43.318005631337385" lon="12.893782480380292"><ele>376.0</ele><time>2026-04-11T11:09:05.999Z</time></trkpt><trkpt lat="43.31794686274275" lon="12.893897469356252"><ele>376.0</ele><time>2026-04-11T11:09:06.999Z</time></trkpt><trkpt lat="43.31788923025711" lon="12.893999681633009"><ele>376.0</ele><time>2026-04-11T11:09:07.999Z</time></trkpt><trkpt lat="43.31783077456863" lon="12.894098438843344"><ele>376.0</ele><time>2026-04-11T11:09:08.999Z</time></trkpt><trkpt lat="43.31778190082152" lon="12.894198220261517"><ele>376.0</ele><time>2026-04-11T11:09:09.999Z</time></trkpt><trkpt lat="43.31773599416138" lon="12.894307277385561"><ele>376.0</ele><time>2026-04-11T11:09:10.999Z</time></trkpt><trkpt lat="43.31769233516889" lon="12.894418484729329"><ele>377.0</ele><time>2026-04-11T11:09:11.999Z</time></trkpt><trkpt lat="43.31764888232033" lon="12.894525314476784"><ele>378.0</ele><time>2026-04-11T11:09:13Z</time></trkpt><trkpt lat="43.31760611928126" lon="12.894633239016699"><ele>379.0</ele><time>2026-04-11T11:09:14Z</time></trkpt><trkpt lat="43.31758079798099" lon="12.894728671449476"><ele>380.0</ele><time>2026-04-11T11:09:15Z</time></trkpt><trkpt lat="43.3175608141398" lon="12.89482721955377"><ele>381.0</ele><time>2026-04-11T11:09:16Z</time></trkpt><trkpt lat="43.31751267099311" lon="12.89499880118613"><ele>383.85714285714283</ele><time>2026-04-11T11:09:18Z</time></trkpt><trkpt lat="43.31747750983252" lon="12.895106951251423"><ele>386.7142857142857</ele><time>2026-04-11T11:09:19Z</time></trkpt><trkpt lat="43.31744574598185" lon="12.895202492508073"><ele>389.57142857142856</ele><time>2026-04-11T11:09:20Z</time></trkpt><trkpt lat="43.31741359293069" lon="12.895301517830465"><ele>392.42857142857144</ele><time>2026-04-11T11:09:21Z</time></trkpt><trkpt lat="43.31738322854149" lon="12.89538563878248"><ele>395.28571428571433</ele><time>2026-04-11T11:09:22Z</time></trkpt><trkpt lat="43.31735125131204" lon="12.895466848360021"><ele>398.14285714285717</ele><time>2026-04-11T11:09:23Z</time></trkpt><trkpt lat="43.317321978097716" lon="12.895544066844533"><ele>401.0</ele><time>2026-04-11T11:09:24Z</time></trkpt><trkpt lat="43.31729759318212" lon="12.895628237771323"><ele>401.0</ele><time>2026-04-11T11:09:25Z</time></trkpt><trkpt lat="43.31727176565476" lon="12.895726415538238"><ele>401.0</ele><time>2026-04-11T11:09:26Z</time></trkpt><trkpt lat="43.31724780117768" lon="12.895817169476878"><ele>401.0</ele><time>2026-04-11T11:09:27Z</time></trkpt><trkpt lat="43.31718897932039" lon="12.895931937898675"><ele>401.0</ele><time>2026-04-11T11:09:29Z</time></trkpt><trkpt lat="43.317077213207156" lon="12.896020774751108"><ele>401.0</ele><time>2026-04-11T11:09:31Z</time></trkpt><trkpt lat="43.31700631736353" lon="12.896083315080638"><ele>400.49999999999994</ele><time>2026-04-11T11:09:32Z</time></trkpt><trkpt lat="43.316924509495145" lon="12.896145515195347"><ele>400.0</ele><time>2026-04-11T11:09:33Z</time></trkpt><trkpt lat="43.316846010929666" lon="12.896214165411603"><ele>399.5</ele><time>2026-04-11T11:09:34Z</time></trkpt><trkpt lat="43.31677269413511" lon="12.896292230886921"><ele>399.0</ele><time>2026-04-11T11:09:35Z</time></trkpt><trkpt lat="43.31670978794126" lon="12.896362956033059"><ele>398.49999999999994</ele><time>2026-04-11T11:09:36Z</time></trkpt><trkpt lat="43.31664560966692" lon="12.896443759913685"><ele>398.0</ele><time>2026-04-11T11:09:37Z</time></trkpt><trkpt lat="43.31658465263398" lon="12.896539350792528"><ele>397.99999999999994</ele><time>2026-04-11T11:09:38Z</time></trkpt><trkpt lat="43.316526650961166" lon="12.896624324030476"><ele>398.0</ele><time>2026-04-11T11:09:39Z</time></trkpt><trkpt lat="43.31645990007925" lon="12.896710749358757"><ele>398.0</ele><time>2026-04-11T11:09:40Z</time></trkpt><trkpt lat="43.316399825626384" lon="12.896780304070102"><ele>398.0</ele><time>2026-04-11T11:09:41Z</time></trkpt><trkpt lat="43.3163363050347" lon="12.896835875548561"><ele>397.99999999999994</ele><time>2026-04-11T11:09:42Z</time></trkpt><trkpt lat="43.31626001005282" lon="12.896888558821793"><ele>398.0</ele><time>2026-04-11T11:09:43Z</time></trkpt><trkpt lat="43.3161893954985" lon="12.896941621178872"><ele>398.3333333333333</ele><time>2026-04-11T11:09:44Z</time></trkpt><trkpt lat="43.3161389005434" lon="12.897031776110303"><ele>398.66666666666663</ele><time>2026-04-11T11:09:45Z</time></trkpt><trkpt lat="43.31609595756074" lon="12.89714014336665"><ele>399.0</ele><time>2026-04-11T11:09:46Z</time></trkpt><trkpt lat="43.31605022856535" lon="12.897230466772118"><ele>399.33333333333337</ele><time>2026-04-11T11:09:47Z</time></trkpt><trkpt lat="43.31599375475116" lon="12.897295188201491"><ele>399.6666666666667</ele><time>2026-04-11T11:09:48Z</time></trkpt><trkpt lat="43.31593837515124" lon="12.89733783071209"><ele>400.0</ele><time>2026-04-11T11:09:49Z</time></trkpt><trkpt lat="43.315885635623395" lon="12.897387146636934"><ele>400.00000000000006</ele><time>2026-04-11T11:09:50Z</time></trkpt><trkpt lat="43.31583229653657" lon="12.897436211717299"><ele>400.0</ele><time>2026-04-11T11:09:51Z</time></trkpt><trkpt lat="43.31578221745091" lon="12.89750034001229"><ele>400.0</ele><time>2026-04-11T11:09:52Z</time></trkpt><trkpt lat="43.31573167145013" lon="12.897571529264981"><ele>400.0</ele><time>2026-04-11T11:09:53Z</time></trkpt><trkpt lat="43.31568659112238" lon="12.897633868025181"><ele>400.0</ele><time>2026-04-11T11:09:54Z</time></trkpt><trkpt lat="43.315639351409835" lon="12.897699272400407"><ele>400.00000000000006</ele><time>2026-04-11T11:09:55Z</time></trkpt><trkpt lat="43.315587710450586" lon="12.897772296356422"><ele>400.0</ele><time>2026-04-11T11:09:56Z</time></trkpt><trkpt lat="43.31553839439333" lon="12.897842322370577"><ele>401.33333333333337</ele><time>2026-04-11T11:09:57Z</time></trkpt><trkpt lat="43.31548683687016" lon="12.89793066858323"><ele>402.6666666666667</ele><time>2026-04-11T11:09:58Z</time></trkpt><trkpt lat="43.31545290037635" lon="12.898026418425117"><ele>404.0</ele><time>2026-04-11T11:09:59Z</time></trkpt><trkpt lat="43.315418653141236" lon="12.898153637142686"><ele>405.33333333333337</ele><time>2026-04-11T11:10:00Z</time></trkpt><trkpt lat="43.315381226643765" lon="12.898271512061035"><ele>406.6666666666667</ele><time>2026-04-11T11:10:01Z</time></trkpt><trkpt lat="43.315348182098035" lon="12.898376709469044"><ele>408.0</ele><time>2026-04-11T11:10:02Z</time></trkpt><trkpt lat="43.315312001481125" lon="12.898475468509961"><ele>410.5</ele><time>2026-04-11T11:10:03Z</time></trkpt><trkpt lat="43.315282532213196" lon="12.89856844826052"><ele>413.0</ele><time>2026-04-11T11:10:04Z</time></trkpt><trkpt lat="43.31524454240495" lon="12.89869590622098"><ele>415.5</ele><time>2026-04-11T11:10:06Z</time></trkpt><trkpt lat="43.31519255083685" lon="12.898774452003154"><ele>418.0</ele><time>2026-04-11T11:10:08Z</time></trkpt><trkpt lat="43.315126748360925" lon="12.898850295716567"><ele>420.5</ele><time>2026-04-11T11:10:10Z</time></trkpt><trkpt lat="43.31506013561177" lon="12.898962744266449"><ele>423.0</ele><time>2026-04-11T11:10:12Z</time></trkpt><trkpt lat="43.31499044763536" lon="12.899074771343615"><ele>423.0</ele><time>2026-04-11T11:10:14Z</time></trkpt><trkpt lat="43.314909976518244" lon="12.89919383649137"><ele>423.0</ele><time>2026-04-11T11:10:16Z</time></trkpt><trkpt lat="43.31486201838551" lon="12.899260352534501"><ele>423.0</ele><time>2026-04-11T11:10:17Z</time></trkpt><trkpt lat="43.31481541559605" lon="12.899326163205059"><ele>423.0</ele><time>2026-04-11T11:10:18Z</time></trkpt><trkpt lat="43.31476670560237" lon="12.899392295696448"><ele>423.0</ele><time>2026-04-11T11:10:19Z</time></trkpt><trkpt lat="43.31467296603154" lon="12.899526251584117"><ele>424.7142857142857</ele><time>2026-04-11T11:10:21Z</time></trkpt><trkpt lat="43.3146351692121" lon="12.899611673413363"><ele>426.42857142857144</ele><time>2026-04-11T11:10:22Z</time></trkpt><trkpt lat="43.31459618458496" lon="12.89968690737538"><ele>428.14285714285717</ele><time>2026-04-11T11:10:23Z</time></trkpt><trkpt lat="43.3145565156881" lon="12.899759027006295"><ele>429.8571428571429</ele><time>2026-04-11T11:10:24Z</time></trkpt><trkpt lat="43.31451302799909" lon="12.899830276312509"><ele>431.57142857142856</ele><time>2026-04-11T11:10:25Z</time></trkpt><trkpt lat="43.31446708014097" lon="12.899899165240877"><ele>433.28571428571433</ele><time>2026-04-11T11:10:26Z</time></trkpt><trkpt lat="43.31442031879613" lon="12.899962900332593"><ele>435.0</ele><time>2026-04-11T11:10:27Z</time></trkpt><trkpt lat="43.31437420893134" lon="12.900026546628954"><ele>437.8333333333333</ele><time>2026-04-11T11:10:28Z</time></trkpt><trkpt lat="43.31433461653404" lon="12.900094094019693"><ele>440.66666666666663</ele><time>2026-04-11T11:10:29Z</time></trkpt><trkpt lat="43.314293637173854" lon="12.900159784158886"><ele>443.5</ele><time>2026-04-11T11:10:30Z</time></trkpt><trkpt lat="43.31424913371337" lon="12.900226935491892"><ele>446.3333333333333</ele><time>2026-04-11T11:10:31Z</time></trkpt><trkpt lat="43.31420483234102" lon="12.900290448644967"><ele>449.16666666666663</ele><time>2026-04-11T11:10:32Z</time></trkpt><trkpt lat="43.314127179178335" lon="12.900395560011047"><ele>452.0</ele><time>2026-04-11T11:10:34Z</time></trkpt><trkpt lat="43.31406562046237" lon="12.900521115239615"><ele>452.0</ele><time>2026-04-11T11:10:36Z</time></trkpt><trkpt lat="43.3140008001059" lon="12.900661848264598"><ele>452.00000000000006</ele><time>2026-04-11T11:10:38Z</time></trkpt><trkpt lat="43.31394766798418" lon="12.900741757291467"><ele>452.00000000000006</ele><time>2026-04-11T11:10:40Z</time></trkpt><trkpt lat="43.313835350118445" lon="12.900799755760696"><ele>452.0</ele><time>2026-04-11T11:10:43Z</time></trkpt><trkpt lat="43.31374632448208" lon="12.900847711677445"><ele>452.0</ele><time>2026-04-11T11:10:44Z</time></trkpt><trkpt lat="43.31366441084137" lon="12.900892318378263"><ele>459.0</ele><time>2026-04-11T11:10:46Z</time></trkpt><trkpt lat="43.31389787082763" lon="12.90097663114087"><ele>466.0</ele><time>2026-04-11T11:10:56Z</time></trkpt><trkpt lat="43.31400955022096" lon="12.901016050869114"><ele>473.0</ele><time>2026-04-11T11:10:58Z</time></trkpt><trkpt lat="43.314114540175254" lon="12.901059320855886"><ele>473.59999999999997</ele><time>2026-04-11T11:11:00Z</time></trkpt><trkpt lat="43.314184605263165" lon="12.901080222154524"><ele>474.19999999999993</ele><time>2026-04-11T11:11:01Z</time></trkpt><trkpt lat="43.31430009845246" lon="12.901108636289962"><ele>474.8</ele><time>2026-04-11T11:11:03Z</time></trkpt><trkpt lat="43.314389593186725" lon="12.901121385851729"><ele>475.4</ele><time>2026-04-11T11:11:05Z</time></trkpt><trkpt lat="43.31447199220599" lon="12.90113273997665"><ele>476.0</ele><time>2026-04-11T11:11:07Z</time></trkpt><trkpt lat="43.31457195867329" lon="12.901128710674008"><ele>476.0</ele><time>2026-04-11T11:11:09Z</time></trkpt><trkpt lat="43.31468031435049" lon="12.901143558561913"><ele>476.0</ele><time>2026-04-11T11:11:11Z</time></trkpt><trkpt lat="43.31479154282182" lon="12.901156202640607"><ele>476.0</ele><time>2026-04-11T11:11:13Z</time></trkpt><trkpt lat="43.314912796504785" lon="12.901172698779241"><ele>476.0</ele><time>2026-04-11T11:11:15Z</time></trkpt><trkpt lat="43.3150180467628" lon="12.901182399852923"><ele>476.0</ele><time>2026-04-11T11:11:17Z</time></trkpt><trkpt lat="43.315083366063796" lon="12.901210795113595"><ele>476.99999999999994</ele><time>2026-04-11T11:11:21Z</time></trkpt><trkpt lat="43.315089806843545" lon="12.90130270864768"><ele>478.0</ele><time>2026-04-11T11:11:25Z</time></trkpt><trkpt lat="43.31506749212412" lon="12.9013944888928"><ele>479.0</ele><time>2026-04-11T11:11:28Z</time></trkpt><trkpt lat="43.31499017840725" lon="12.901495318448386"><ele>480.0</ele><time>2026-04-11T11:11:31Z</time></trkpt><trkpt lat="43.31492386272023" lon="12.901596739875675"><ele>480.99999999999994</ele><time>2026-04-11T11:11:33Z</time></trkpt><trkpt lat="43.31485249570958" lon="12.901662524575995"><ele>482.0</ele><time>2026-04-11T11:11:35Z</time></trkpt><trkpt lat="43.31476804087112" lon="12.901738968729752"><ele>484.8333333333333</ele><time>2026-04-11T11:11:37Z</time></trkpt><trkpt lat="43.31470997672611" lon="12.901775801713645"><ele>487.66666666666663</ele><time>2026-04-11T11:11:38Z</time></trkpt><trkpt lat="43.31464859436597" lon="12.901831056306614"><ele>490.5</ele><time>2026-04-11T11:11:39Z</time></trkpt><trkpt lat="43.31458101390223" lon="12.90187755151409"><ele>493.33333333333337</ele><time>2026-04-11T11:11:40Z</time></trkpt><trkpt lat="43.31449612651664" lon="12.901916430052303"><ele>496.1666666666667</ele><time>2026-04-11T11:11:41Z</time></trkpt><trkpt lat="43.3144203401106" lon="12.90194141288765"><ele>499.0</ele><time>2026-04-11T11:11:42Z</time></trkpt><trkpt lat="43.31432620645609" lon="12.90198974982429"><ele>499.00000000000006</ele><time>2026-04-11T11:11:43Z</time></trkpt><trkpt lat="43.31424261902142" lon="12.902039748797462"><ele>499.0</ele><time>2026-04-11T11:11:44Z</time></trkpt><trkpt lat="43.314179685416484" lon="12.90210474037914"><ele>499.0</ele><time>2026-04-11T11:11:45Z</time></trkpt><trkpt lat="43.314115780851346" lon="12.902147831884186"><ele>499.0</ele><time>2026-04-11T11:11:46Z</time></trkpt><trkpt lat="43.314049131501136" lon="12.902193915583732"><ele>499.00000000000006</ele><time>2026-04-11T11:11:47Z</time></trkpt><trkpt lat="43.31397351504748" lon="12.902278971456262"><ele>499.0</ele><time>2026-04-11T11:11:49Z</time></trkpt><trkpt lat="43.31405152278722" lon="12.902295692325328"><ele>499.0</ele><time>2026-04-11T11:11:54Z</time></trkpt><trkpt lat="43.3141517827837" lon="12.902324391835307"><ele>499.0</ele><time>2026-04-11T11:11:55Z</time></trkpt><trkpt lat="43.3142632468204" lon="12.902349094364343"><ele>499.0</ele><time>2026-04-11T11:11:56Z</time></trkpt><trkpt lat="43.314388246439464" lon="12.902388872380541"><ele>499.0</ele><time>2026-04-11T11:11:57Z</time></trkpt><trkpt lat="43.31448880358823" lon="12.90241861590905"><ele>499.0</ele><time>2026-04-11T11:11:58Z</time></trkpt><trkpt lat="43.31458629019128" lon="12.902452181974116"><ele>499.0</ele><time>2026-04-11T11:11:59Z</time></trkpt><trkpt lat="43.314680689822076" lon="12.902490684874683"><ele>499.0</ele><time>2026-04-11T11:12:00Z</time></trkpt><trkpt lat="43.31477285997792" lon="12.902534670818447"><ele>499.0</ele><time>2026-04-11T11:12:01Z</time></trkpt><trkpt lat="43.31487939068694" lon="12.902578349943104"><ele>499.0</ele><time>2026-04-11T11:12:02Z</time></trkpt><trkpt lat="43.314986316930494" lon="12.902630504530968"><ele>499.0</ele><time>2026-04-11T11:12:03Z</time></trkpt><trkpt lat="43.31509813993019" lon="12.902680951073362"><ele>502.2</ele><time>2026-04-11T11:12:04Z</time></trkpt><trkpt lat="43.31520898655675" lon="12.902724459710102"><ele>505.4</ele><time>2026-04-11T11:12:05Z</time></trkpt><trkpt lat="43.315312548892074" lon="12.902769623852677"><ele>508.6</ele><time>2026-04-11T11:12:06Z</time></trkpt><trkpt lat="43.31540170228954" lon="12.902809899398619"><ele>511.8</ele><time>2026-04-11T11:12:07Z</time></trkpt><trkpt lat="43.3154724048016" lon="12.902846992115181"><ele>515.0</ele><time>2026-04-11T11:12:08Z</time></trkpt><trkpt lat="43.315548054644225" lon="12.902885740532142"><ele>515.2</ele><time>2026-04-11T11:12:09Z</time></trkpt><trkpt lat="43.315609797407916" lon="12.902932315854166"><ele>515.4</ele><time>2026-04-11T11:12:10Z</time></trkpt><trkpt lat="43.315679624751944" lon="12.903018223126617"><ele>515.6</ele><time>2026-04-11T11:12:12Z</time></trkpt><trkpt lat="43.31567503156791" lon="12.903145901637197"><ele>515.8</ele><time>2026-04-11T11:12:14Z</time></trkpt><trkpt lat="43.31564820374731" lon="12.903298541728715"><ele>516.0</ele><time>2026-04-11T11:12:16Z</time></trkpt><trkpt lat="43.31558491013667" lon="12.903443671602734"><ele>517.2</ele><time>2026-04-11T11:12:18Z</time></trkpt><trkpt lat="43.315533166757646" lon="12.903521756407603"><ele>518.4000000000001</ele><time>2026-04-11T11:12:19Z</time></trkpt><trkpt lat="43.31548009202085" lon="12.90360927801404"><ele>519.6</ele><time>2026-04-11T11:12:20Z</time></trkpt><trkpt lat="43.31542872328186" lon="12.903716610901364"><ele>520.8000000000001</ele><time>2026-04-11T11:12:21Z</time></trkpt><trkpt lat="43.31537730561411" lon="12.903831979805362"><ele>522.0</ele><time>2026-04-11T11:12:22Z</time></trkpt><trkpt lat="43.31532179026597" lon="12.903950295859959"><ele>522.0</ele><time>2026-04-11T11:12:23Z</time></trkpt><trkpt lat="43.3152584136515" lon="12.904068643538768"><ele>522.0</ele><time>2026-04-11T11:12:24Z</time></trkpt><trkpt lat="43.3151968726914" lon="12.904176940583717"><ele>522.0</ele><time>2026-04-11T11:12:25Z</time></trkpt><trkpt lat="43.31513685313846" lon="12.90428290365667"><ele>522.0</ele><time>2026-04-11T11:12:26Z</time></trkpt><trkpt lat="43.315080823932036" lon="12.904398853262812"><ele>522.0</ele><time>2026-04-11T11:12:27Z</time></trkpt><trkpt lat="43.315024682175604" lon="12.904495683047926"><ele>522.8000000000001</ele><time>2026-04-11T11:12:28Z</time></trkpt><trkpt lat="43.31496240682725" lon="12.904610665411091"><ele>523.6</ele><time>2026-04-11T11:12:29Z</time></trkpt><trkpt lat="43.3148983557777" lon="12.904707798501269"><ele>524.4000000000001</ele><time>2026-04-11T11:12:30Z</time></trkpt><trkpt lat="43.31482648231714" lon="12.904820920967717"><ele>525.2</ele><time>2026-04-11T11:12:31Z</time></trkpt><trkpt lat="43.31476311208967" lon="12.904921623170614"><ele>526.0</ele><time>2026-04-11T11:12:32Z</time></trkpt><trkpt lat="43.31470863902004" lon="12.90501218847258"><ele>527.1666666666667</ele><time>2026-04-11T11:12:33Z</time></trkpt><trkpt lat="43.31468080567276" lon="12.905106203862323"><ele>528.3333333333334</ele><time>2026-04-11T11:12:34Z</time></trkpt><trkpt lat="43.31466591559335" lon="12.905207640474663"><ele>529.5</ele><time>2026-04-11T11:12:35Z</time></trkpt><trkpt lat="43.31465774791153" lon="12.90530386297528"><ele>530.6666666666666</ele><time>2026-04-11T11:12:36Z</time></trkpt><trkpt lat="43.31464538268828" lon="12.90545282648891"><ele>531.8333333333333</ele><time>2026-04-11T11:12:38Z</time></trkpt><trkpt lat="43.31465936505252" lon="12.90556731090572"><ele>533.0</ele><time>2026-04-11T11:12:41Z</time></trkpt><trkpt lat="43.314642246101215" lon="12.905665754272446"><ele>533.0</ele><time>2026-04-11T11:12:47Z</time></trkpt><trkpt lat="43.314626120142904" lon="12.90576535046812"><ele>533.0</ele><time>2026-04-11T11:12:49Z</time></trkpt><trkpt lat="43.31459293601086" lon="12.905892234606245"><ele>533.0</ele><time>2026-04-11T11:12:51Z</time></trkpt><trkpt lat="43.3145353356713" lon="12.906023679260286"><ele>533.0</ele><time>2026-04-11T11:12:53Z</time></trkpt><trkpt lat="43.31450085082059" lon="12.906107971693727"><ele>533.0</ele><time>2026-04-11T11:12:54Z</time></trkpt><trkpt lat="43.31447054815775" lon="12.90620248805895"><ele>533.0</ele><time>2026-04-11T11:12:55Z</time></trkpt><trkpt lat="43.31444202617225" lon="12.906298978808907"><ele>533.6666666666666</ele><time>2026-04-11T11:12:56Z</time></trkpt><trkpt lat="43.31441540408224" lon="12.906398660551064"><ele>534.3333333333333</ele><time>2026-04-11T11:12:57Z</time></trkpt><trkpt lat="43.31439409045516" lon="12.90648507200228"><ele>535.0</ele><time>2026-04-11T11:12:58Z</time></trkpt><trkpt lat="43.31436667135086" lon="12.906632200430133"><ele>535.6666666666666</ele><time>2026-04-11T11:13:00Z</time></trkpt><trkpt lat="43.314331636926354" lon="12.906786876026707"><ele>536.3333333333334</ele><time>2026-04-11T11:13:02Z</time></trkpt><trkpt lat="43.314301377190645" lon="12.90686710603116"><ele>537.0</ele><time>2026-04-11T11:13:03Z</time></trkpt><trkpt lat="43.314251885232736" lon="12.907011100129909"><ele>537.3333333333334</ele><time>2026-04-11T11:13:05Z</time></trkpt><trkpt lat="43.31421560893246" lon="12.907156959555763"><ele>537.6666666666666</ele><time>2026-04-11T11:13:07Z</time></trkpt><trkpt lat="43.31418424397307" lon="12.907285923960972"><ele>538.0</ele><time>2026-04-11T11:13:09Z</time></trkpt><trkpt lat="43.31413271828491" lon="12.907392833870762"><ele>538.3333333333333</ele><time>2026-04-11T11:13:11Z</time></trkpt><trkpt lat="43.31409276385598" lon="12.907476997362716"><ele>538.6666666666666</ele><time>2026-04-11T11:13:13Z</time></trkpt><trkpt lat="43.31404954091335" lon="12.907540573468163"><ele>539.0</ele><time>2026-04-11T11:13:15Z</time></trkpt><trkpt lat="43.31398656712897" lon="12.907573992018731"><ele>539.0</ele><time>2026-04-11T11:13:17Z</time></trkpt><trkpt lat="43.31392139805944" lon="12.9075551164761"><ele>539.0</ele><time>2026-04-11T11:13:18Z</time></trkpt><trkpt lat="43.313851570893426" lon="12.907523750750437"><ele>539.0</ele><time>2026-04-11T11:13:19Z</time></trkpt><trkpt lat="43.31376983782646" lon="12.907498509342023"><ele>539.0</ele><time>2026-04-11T11:13:20Z</time></trkpt><trkpt lat="43.313678704939164" lon="12.90746480279751"><ele>539.0</ele><time>2026-04-11T11:13:21Z</time></trkpt><trkpt lat="43.313584383837664" lon="12.907414696625503"><ele>539.0</ele><time>2026-04-11T11:13:22Z</time></trkpt><trkpt lat="43.31348844724081" lon="12.907378701014977"><ele>539.8</ele><time>2026-04-11T11:13:23Z</time></trkpt><trkpt lat="43.31338558636111" lon="12.907352706855582"><ele>540.5999999999999</ele><time>2026-04-11T11:13:24Z</time></trkpt><trkpt lat="43.313289441627646" lon="12.907314713297167"><ele>541.4</ele><time>2026-04-11T11:13:25Z</time></trkpt><trkpt lat="43.313199535791505" lon="12.907279391711496"><ele>542.1999999999999</ele><time>2026-04-11T11:13:26Z</time></trkpt><trkpt lat="43.31311621181557" lon="12.907258614808521"><ele>543.0</ele><time>2026-04-11T11:13:27Z</time></trkpt><trkpt lat="43.31303082559424" lon="12.907251583944872"><ele>541.1999999999999</ele><time>2026-04-11T11:13:28Z</time></trkpt><trkpt lat="43.31294605569834" lon="12.907235663509253"><ele>539.4</ele><time>2026-04-11T11:13:29Z</time></trkpt><trkpt lat="43.312867428299874" lon="12.90721024303873"><ele>537.5999999999999</ele><time>2026-04-11T11:13:30Z</time></trkpt><trkpt lat="43.312779313389115" lon="12.907174500709626"><ele>535.8</ele><time>2026-04-11T11:13:31Z</time></trkpt><trkpt lat="43.31268075855031" lon="12.907141611157243"><ele>534.0</ele><time>2026-04-11T11:13:32Z</time></trkpt><trkpt lat="43.312580045769316" lon="12.907096098130163"><ele>534.0</ele><time>2026-04-11T11:13:33Z</time></trkpt><trkpt lat="43.31248248740156" lon="12.907057201860011"><ele>534.0</ele><time>2026-04-11T11:13:34Z</time></trkpt><trkpt lat="43.31238888520161" lon="12.907020425412961"><ele>534.0</ele><time>2026-04-11T11:13:35Z</time></trkpt><trkpt lat="43.312298400512354" lon="12.906985072457044"><ele>534.0</ele><time>2026-04-11T11:13:36Z</time></trkpt><trkpt lat="43.312210637235886" lon="12.906945414934006"><ele>534.0</ele><time>2026-04-11T11:13:37Z</time></trkpt><trkpt lat="43.3121212333551" lon="12.90690347074003"><ele>536.8</ele><time>2026-04-11T11:13:38Z</time></trkpt><trkpt lat="43.31203196027097" lon="12.906866471166088"><ele>539.5999999999999</ele><time>2026-04-11T11:13:39Z</time></trkpt><trkpt lat="43.31193974772172" lon="12.90683681829723"><ele>542.4</ele><time>2026-04-11T11:13:40Z</time></trkpt><trkpt lat="43.31184385447048" lon="12.906804705116151"><ele>545.1999999999999</ele><time>2026-04-11T11:13:41Z</time></trkpt><trkpt lat="43.31174690106721" lon="12.906772386985226"><ele>548.0</ele><time>2026-04-11T11:13:42Z</time></trkpt><trkpt lat="43.31165183964039" lon="12.906737877181527"><ele>548.0</ele><time>2026-04-11T11:13:43Z</time></trkpt><trkpt lat="43.31155525282998" lon="12.906708710902207"><ele>548.0</ele><time>2026-04-11T11:13:44Z</time></trkpt><trkpt lat="43.31145779220065" lon="12.906688907391205"><ele>548.0</ele><time>2026-04-11T11:13:45Z</time></trkpt><trkpt lat="43.31135439054504" lon="12.906663381876442"><ele>548.0</ele><time>2026-04-11T11:13:46Z</time></trkpt><trkpt lat="43.311250047994776" lon="12.906643589473227"><ele>548.0</ele><time>2026-04-11T11:13:47Z</time></trkpt><trkpt lat="43.311144986111024" lon="12.906622095545833"><ele>546.6</ele><time>2026-04-11T11:13:48Z</time></trkpt><trkpt lat="43.31103778509047" lon="12.906606655296043"><ele>545.1999999999999</ele><time>2026-04-11T11:13:49Z</time></trkpt><trkpt lat="43.31092956436883" lon="12.906590475518794"><ele>543.8</ele><time>2026-04-11T11:13:50Z</time></trkpt><trkpt lat="43.310830348765215" lon="12.906574799953562"><ele>542.4</ele><time>2026-04-11T11:13:51Z</time></trkpt><trkpt lat="43.3107505263464" lon="12.906559552086692"><ele>541.0</ele><time>2026-04-11T11:13:52Z</time></trkpt><trkpt lat="43.31064486979951" lon="12.906538229560665"><ele>543.0</ele><time>2026-04-11T11:13:54Z</time></trkpt><trkpt lat="43.31056158344829" lon="12.906556795451573"><ele>545.0</ele><time>2026-04-11T11:13:56Z</time></trkpt><trkpt lat="43.31052228616054" lon="12.90663359692789"><ele>547.0</ele><time>2026-04-11T11:13:58Z</time></trkpt><trkpt lat="43.31056054900394" lon="12.90677106992465"><ele>549.0</ele><time>2026-04-11T11:14:00Z</time></trkpt><trkpt lat="43.31060430543256" lon="12.906916907955303"><ele>551.0</ele><time>2026-04-11T11:14:02Z</time></trkpt><trkpt lat="43.31064199117831" lon="12.907084256870647"><ele>546.8333333333333</ele><time>2026-04-11T11:14:04Z</time></trkpt><trkpt lat="43.31066394098373" lon="12.907172761534598"><ele>542.6666666666666</ele><time>2026-04-11T11:14:05Z</time></trkpt><trkpt lat="43.310689299279204" lon="12.907267633224382"><ele>538.5</ele><time>2026-04-11T11:14:06Z</time></trkpt><trkpt lat="43.310712258671984" lon="12.907366900898193"><ele>534.3333333333334</ele><time>2026-04-11T11:14:07Z</time></trkpt><trkpt lat="43.31073178011054" lon="12.90746960242899"><ele>530.1666666666667</ele><time>2026-04-11T11:14:08Z</time></trkpt><trkpt lat="43.31075729173812" lon="12.907571928873788"><ele>526.0</ele><time>2026-04-11T11:14:09Z</time></trkpt><trkpt lat="43.31078340427304" lon="12.907681141410528"><ele>525.5</ele><time>2026-04-11T11:14:10Z</time></trkpt><trkpt lat="43.3108016463114" lon="12.907782312003153"><ele>525.0</ele><time>2026-04-11T11:14:11Z</time></trkpt><trkpt lat="43.3108272029724" lon="12.907882395392276"><ele>524.5</ele><time>2026-04-11T11:14:12Z</time></trkpt><trkpt lat="43.31085735761591" lon="12.907983386518595"><ele>524.0</ele><time>2026-04-11T11:14:13Z</time></trkpt><trkpt lat="43.31089008353836" lon="12.908086853703704"><ele>523.5</ele><time>2026-04-11T11:14:14Z</time></trkpt><trkpt lat="43.310922429284425" lon="12.908197327647239"><ele>523.0</ele><time>2026-04-11T11:14:15Z</time></trkpt><trkpt lat="43.31094665141086" lon="12.908309266355467"><ele>523.0</ele><time>2026-04-11T11:14:16Z</time></trkpt><trkpt lat="43.310977946980074" lon="12.908404084002573"><ele>523.0</ele><time>2026-04-11T11:14:17Z</time></trkpt><trkpt lat="43.31100855923651" lon="12.908484558437042"><ele>523.0</ele><time>2026-04-11T11:14:18Z</time></trkpt><trkpt lat="43.31103818445065" lon="12.90856929140898"><ele>523.0</ele><time>2026-04-11T11:14:19Z</time></trkpt><trkpt lat="43.31105228128225" lon="12.908662480557151"><ele>523.0</ele><time>2026-04-11T11:14:20Z</time></trkpt><trkpt lat="43.31107470707029" lon="12.908822968928353"><ele>523.0</ele><time>2026-04-11T11:14:22Z</time></trkpt><trkpt lat="43.311052975620434" lon="12.908985353698501"><ele>521.5</ele><time>2026-04-11T11:14:24Z</time></trkpt><trkpt lat="43.311030054332036" lon="12.909069077681748"><ele>520.0</ele><time>2026-04-11T11:14:25Z</time></trkpt><trkpt lat="43.311007497515995" lon="12.909152237051206"><ele>518.5</ele><time>2026-04-11T11:14:26Z</time></trkpt><trkpt lat="43.31098258556773" lon="12.909239061404099"><ele>517.0</ele><time>2026-04-11T11:14:27Z</time></trkpt><trkpt lat="43.310946200654584" lon="12.909316954647576"><ele>515.5</ele><time>2026-04-11T11:14:28Z</time></trkpt><trkpt lat="43.31089138037872" lon="12.909431841496826"><ele>514.0</ele><time>2026-04-11T11:14:30Z</time></trkpt><trkpt lat="43.31087037326003" lon="12.9095795354736"><ele>513.5</ele><time>2026-04-11T11:14:32Z</time></trkpt><trkpt lat="43.3108708866194" lon="12.909725990685097"><ele>513.0</ele><time>2026-04-11T11:14:34Z</time></trkpt><trkpt lat="43.310902938158044" lon="12.90988170031357"><ele>512.5</ele><time>2026-04-11T11:14:36Z</time></trkpt><trkpt lat="43.31094436908816" lon="12.910045141551223"><ele>512.0</ele><time>2026-04-11T11:14:38Z</time></trkpt><trkpt lat="43.31097496182666" lon="12.91019774439883"><ele>512.0</ele><time>2026-04-11T11:14:40Z</time></trkpt><trkpt lat="43.31099096083915" lon="12.910283008697176"><ele>512.0</ele><time>2026-04-11T11:14:41Z</time></trkpt><trkpt lat="43.311006022553485" lon="12.910368896570612"><ele>512.0</ele><time>2026-04-11T11:14:42Z</time></trkpt><trkpt lat="43.31103965166181" lon="12.910528286123569"><ele>512.0</ele><time>2026-04-11T11:14:44Z</time></trkpt><trkpt lat="43.311090922303414" lon="12.910695439915585"><ele>512.0</ele><time>2026-04-11T11:14:46Z</time></trkpt><trkpt lat="43.311137174928504" lon="12.910779114108724"><ele>511.99999999999994</ele><time>2026-04-11T11:14:47Z</time></trkpt><trkpt lat="43.31118748786552" lon="12.910869347431543"><ele>512.0</ele><time>2026-04-11T11:14:48Z</time></trkpt><trkpt lat="43.31123304274552" lon="12.910968468504993"><ele>512.0</ele><time>2026-04-11T11:14:49Z</time></trkpt><trkpt lat="43.311269452937886" lon="12.911067880448327"><ele>512.0</ele><time>2026-04-11T11:14:50Z</time></trkpt><trkpt lat="43.311310088339994" lon="12.91116479972147"><ele>511.99999999999994</ele><time>2026-04-11T11:14:51Z</time></trkpt><trkpt lat="43.311350797782055" lon="12.911268291016608"><ele>512.0</ele><time>2026-04-11T11:14:52Z</time></trkpt><trkpt lat="43.31139815878627" lon="12.911377312236356"><ele>512.4</ele><time>2026-04-11T11:14:53Z</time></trkpt><trkpt lat="43.311450555332165" lon="12.911492183462052"><ele>512.8000000000001</ele><time>2026-04-11T11:14:54Z</time></trkpt><trkpt lat="43.31150898224607" lon="12.911607820009733"><ele>513.2</ele><time>2026-04-11T11:14:55Z</time></trkpt><trkpt lat="43.31156426082274" lon="12.911727502339637"><ele>513.6</ele><time>2026-04-11T11:14:56Z</time></trkpt><trkpt lat="43.31161884486824" lon="12.9118440829951"><ele>514.0</ele><time>2026-04-11T11:14:57Z</time></trkpt><trkpt lat="43.31168038577192" lon="12.911960970700065"><ele>514.0</ele><time>2026-04-11T11:14:58Z</time></trkpt><trkpt lat="43.31174918699887" lon="12.91208484713495"><ele>514.0</ele><time>2026-04-11T11:14:59Z</time></trkpt><trkpt lat="43.31181705463191" lon="12.912194961201683"><ele>514.0</ele><time>2026-04-11T11:15:00Z</time></trkpt><trkpt lat="43.311875580705816" lon="12.912301760871843"><ele>514.0</ele><time>2026-04-11T11:15:01Z</time></trkpt><trkpt lat="43.311927814654645" lon="12.912390738033912"><ele>514.0</ele><time>2026-04-11T11:15:02Z</time></trkpt><trkpt lat="43.311980704972854" lon="12.912476003841343"><ele>514.0</ele><time>2026-04-11T11:15:03Z</time></trkpt><trkpt lat="43.312019232284264" lon="12.912555246061856"><ele>514.0</ele><time>2026-04-11T11:15:04Z</time></trkpt><trkpt lat="43.312050996601116" lon="12.912705652604414"><ele>514.0</ele><time>2026-04-11T11:15:06Z</time></trkpt><trkpt lat="43.312091116361444" lon="12.912835498775166"><ele>514.0</ele><time>2026-04-11T11:15:08Z</time></trkpt><trkpt lat="43.312121632871246" lon="12.912953264124498"><ele>514.0</ele><time>2026-04-11T11:15:10Z</time></trkpt><trkpt lat="43.3121554305573" lon="12.913079137460056"><ele>517.3333333333334</ele><time>2026-04-11T11:15:12Z</time></trkpt><trkpt lat="43.31218602618034" lon="12.913224340677614"><ele>520.6666666666667</ele><time>2026-04-11T11:15:14Z</time></trkpt><trkpt lat="43.31220112157742" lon="12.913320783586679"><ele>524.0</ele><time>2026-04-11T11:15:15Z</time></trkpt><trkpt lat="43.31221134120802" lon="12.913435416260056"><ele>527.3333333333334</ele><time>2026-04-11T11:15:16Z</time></trkpt><trkpt lat="43.31221198339556" lon="12.913548593717348"><ele>530.6666666666666</ele><time>2026-04-11T11:15:17Z</time></trkpt><trkpt lat="43.31221361909294" lon="12.913659092080609"><ele>534.0</ele><time>2026-04-11T11:15:18Z</time></trkpt><trkpt lat="43.31221158696437" lon="12.913784029614702"><ele>534.0</ele><time>2026-04-11T11:15:19Z</time></trkpt><trkpt lat="43.31220856308984" lon="12.91392312114946"><ele>534.0</ele><time>2026-04-11T11:15:20Z</time></trkpt><trkpt lat="43.312199347304606" lon="12.914081670999357"><ele>534.0</ele><time>2026-04-11T11:15:21Z</time></trkpt><trkpt lat="43.31218525823758" lon="12.914240714034465"><ele>534.0</ele><time>2026-04-11T11:15:22Z</time></trkpt><trkpt lat="43.3121647232152" lon="12.914406079184467"><ele>532.0</ele><time>2026-04-11T11:15:23Z</time></trkpt><trkpt lat="43.31212928047476" lon="12.914562283808843"><ele>530.0</ele><time>2026-04-11T11:15:24Z</time></trkpt><trkpt lat="43.31209163698885" lon="12.91470446527814"><ele>528.0</ele><time>2026-04-11T11:15:25Z</time></trkpt><trkpt lat="43.31205201012129" lon="12.914839843070684"><ele>526.0</ele><time>2026-04-11T11:15:26Z</time></trkpt><trkpt lat="43.312011691279565" lon="12.914977935274988"><ele>524.0</ele><time>2026-04-11T11:15:27Z</time></trkpt><trkpt lat="43.31196603945734" lon="12.915111362077589"><ele>521.2</ele><time>2026-04-11T11:15:28Z</time></trkpt><trkpt lat="43.31192009275828" lon="12.915255362340163"><ele>518.4</ele><time>2026-04-11T11:15:29Z</time></trkpt><trkpt lat="43.311873547660205" lon="12.915396922588819"><ele>515.6</ele><time>2026-04-11T11:15:30Z</time></trkpt><trkpt lat="43.311828571917" lon="12.915521842868307"><ele>512.8</ele><time>2026-04-11T11:15:31Z</time></trkpt><trkpt lat="43.31178600485924" lon="12.915635406547663"><ele>510.0</ele><time>2026-04-11T11:15:32Z</time></trkpt><trkpt lat="43.31175600905238" lon="12.91574631741598"><ele>510.0</ele><time>2026-04-11T11:15:33Z</time></trkpt><trkpt lat="43.31173081720838" lon="12.915855314221375"><ele>510.0</ele><time>2026-04-11T11:15:34Z</time></trkpt><trkpt lat="43.311722722562834" lon="12.915964259283141"><ele>510.0</ele><time>2026-04-11T11:15:35Z</time></trkpt><trkpt lat="43.311725752361" lon="12.916073808473332"><ele>510.0</ele><time>2026-04-11T11:15:36Z</time></trkpt><trkpt lat="43.31172490600984" lon="12.916190622326559"><ele>510.0</ele><time>2026-04-11T11:15:37Z</time></trkpt><trkpt lat="43.31172553026471" lon="12.91631710257664"><ele>510.0</ele><time>2026-04-11T11:15:38Z</time></trkpt><trkpt lat="43.311733391582834" lon="12.916439855134113"><ele>508.5</ele><time>2026-04-11T11:15:39Z</time></trkpt><trkpt lat="43.311740610270654" lon="12.91654971114127"><ele>507.0</ele><time>2026-04-11T11:15:40Z</time></trkpt><trkpt lat="43.31174187335085" lon="12.916665968614547"><ele>505.5</ele><time>2026-04-11T11:15:41Z</time></trkpt><trkpt lat="43.311753754560584" lon="12.916779574356104"><ele>504.0</ele><time>2026-04-11T11:15:42Z</time></trkpt><trkpt lat="43.31175779932895" lon="12.91688140727259"><ele>502.5</ele><time>2026-04-11T11:15:43Z</time></trkpt><trkpt lat="43.31175236755234" lon="12.91697260750025"><ele>501.0</ele><time>2026-04-11T11:15:44Z</time></trkpt><trkpt lat="43.311719565748405" lon="12.917120996821101"><ele>500.0</ele><time>2026-04-11T11:15:46Z</time></trkpt><trkpt lat="43.31169023041189" lon="12.917229658880595"><ele>499.0</ele><time>2026-04-11T11:15:48Z</time></trkpt><trkpt lat="43.311645225983504" lon="12.917301131588573"><ele>498.0</ele><time>2026-04-11T11:15:50Z</time></trkpt><trkpt lat="43.311570525050044" lon="12.917381824908139"><ele>497.0</ele><time>2026-04-11T11:15:52Z</time></trkpt><trkpt lat="43.31148658553562" lon="12.917467317076815"><ele>496.0</ele><time>2026-04-11T11:15:54Z</time></trkpt><trkpt lat="43.31138299225262" lon="12.917600618540712"><ele>492.4</ele><time>2026-04-11T11:15:56Z</time></trkpt><trkpt lat="43.31130526709245" lon="12.917673831110585"><ele>488.8</ele><time>2026-04-11T11:15:57Z</time></trkpt><trkpt lat="43.31122780220959" lon="12.917758614930793"><ele>485.19999999999993</ele><time>2026-04-11T11:15:58Z</time></trkpt><trkpt lat="43.311149775242555" lon="12.917828732019098"><ele>481.59999999999997</ele><time>2026-04-11T11:15:59Z</time></trkpt><trkpt lat="43.31107788404315" lon="12.91789556724243"><ele>478.0</ele><time>2026-04-11T11:16:00Z</time></trkpt><trkpt lat="43.31100311767307" lon="12.917950283085798"><ele>478.00000000000006</ele><time>2026-04-11T11:16:01Z</time></trkpt><trkpt lat="43.310920650033964" lon="12.918000016806422"><ele>478.0</ele><time>2026-04-11T11:16:02Z</time></trkpt><trkpt lat="43.31084791583489" lon="12.918058536586043"><ele>478.0</ele><time>2026-04-11T11:16:03Z</time></trkpt><trkpt lat="43.31077312839777" lon="12.918097399256382"><ele>478.0</ele><time>2026-04-11T11:16:04Z</time></trkpt><trkpt lat="43.31069639337491" lon="12.918136659340199"><ele>478.00000000000006</ele><time>2026-04-11T11:16:05Z</time></trkpt><trkpt lat="43.31061145289721" lon="12.918176713519788"><ele>478.0</ele><time>2026-04-11T11:16:06Z</time></trkpt><trkpt lat="43.31052990330175" lon="12.918214746322462"><ele>477.1666666666667</ele><time>2026-04-11T11:16:07Z</time></trkpt><trkpt lat="43.310447015737104" lon="12.91825303321774"><ele>476.33333333333337</ele><time>2026-04-11T11:16:08Z</time></trkpt><trkpt lat="43.310370253484784" lon="12.918288838409971"><ele>475.5</ele><time>2026-04-11T11:16:09Z</time></trkpt><trkpt lat="43.31028708456504" lon="12.918326453425836"><ele>474.66666666666663</ele><time>2026-04-11T11:16:10Z</time></trkpt><trkpt lat="43.310204658081936" lon="12.91836889501392"><ele>473.8333333333333</ele><time>2026-04-11T11:16:11Z</time></trkpt><trkpt lat="43.310134498986606" lon="12.918414413601262"><ele>473.0</ele><time>2026-04-11T11:16:12Z</time></trkpt><trkpt lat="43.31007748070998" lon="12.91847324761407"><ele>469.3333333333333</ele><time>2026-04-11T11:16:13Z</time></trkpt><trkpt lat="43.31002288028532" lon="12.91855221804435"><ele>465.66666666666663</ele><time>2026-04-11T11:16:14Z</time></trkpt><trkpt lat="43.30997084297499" lon="12.918637474851204"><ele>462.0</ele><time>2026-04-11T11:16:15Z</time></trkpt><trkpt lat="43.309928180945576" lon="12.918717747758636"><ele>458.33333333333337</ele><time>2026-04-11T11:16:16Z</time></trkpt><trkpt lat="43.30987504779452" lon="12.91883777383846"><ele>454.6666666666667</ele><time>2026-04-11T11:16:18Z</time></trkpt><trkpt lat="43.3098186249585" lon="12.918956258847533"><ele>451.0</ele><time>2026-04-11T11:16:20Z</time></trkpt><trkpt lat="43.30977388322771" lon="12.919090194735293"><ele>451.00000000000006</ele><time>2026-04-11T11:16:22Z</time></trkpt><trkpt lat="43.30974354635301" lon="12.919206283380648"><ele>451.0</ele><time>2026-04-11T11:16:24Z</time></trkpt><trkpt lat="43.309730156460915" lon="12.919307359697308"><ele>451.0</ele><time>2026-04-11T11:16:26Z</time></trkpt><trkpt lat="43.30970239202775" lon="12.919402584676156"><ele>451.0</ele><time>2026-04-11T11:16:28Z</time></trkpt><trkpt lat="43.309651099493834" lon="12.919484373207442"><ele>451.00000000000006</ele><time>2026-04-11T11:16:30Z</time></trkpt><trkpt lat="43.30957716127071" lon="12.91947696189918"><ele>451.0</ele><time>2026-04-11T11:16:32Z</time></trkpt><trkpt lat="43.30959541828481" lon="12.91960872871282"><ele>446.6</ele><time>2026-04-11T11:16:38Z</time></trkpt><trkpt lat="43.30961870957702" lon="12.919918565650471"><ele>442.20000000000005</ele><time>2026-04-11T11:16:40Z</time></trkpt><trkpt lat="43.30967337478795" lon="12.919965167132075"><ele>437.79999999999995</ele><time>2026-04-11T11:16:41Z</time></trkpt><trkpt lat="43.30973439299998" lon="12.920020249035407"><ele>433.4</ele><time>2026-04-11T11:16:42Z</time></trkpt><trkpt lat="43.309793866951686" lon="12.920076331866522"><ele>429.0</ele><time>2026-04-11T11:16:43Z</time></trkpt><trkpt lat="43.30985861499385" lon="12.920140871359365"><ele>428.2</ele><time>2026-04-11T11:16:44Z</time></trkpt><trkpt lat="43.30992064767782" lon="12.920212339389275"><ele>427.4</ele><time>2026-04-11T11:16:45Z</time></trkpt><trkpt lat="43.30997061442539" lon="12.920289166621222"><ele>426.6</ele><time>2026-04-11T11:16:46Z</time></trkpt><trkpt lat="43.310022534733754" lon="12.920379901978638"><ele>425.8</ele><time>2026-04-11T11:16:47Z</time></trkpt><trkpt lat="43.31010847397451" lon="12.920470845168635"><ele>425.0</ele><time>2026-04-11T11:16:48Z</time></trkpt><trkpt lat="43.310167724877616" lon="12.920595473069612"><ele>425.0</ele><time>2026-04-11T11:16:49Z</time></trkpt><trkpt lat="43.31020332235411" lon="12.920729825954488"><ele>425.0</ele><time>2026-04-11T11:16:50Z</time></trkpt><trkpt lat="43.31023608548749" lon="12.92087175181196"><ele>425.0</ele><time>2026-04-11T11:16:51Z</time></trkpt><trkpt lat="43.31025690233733" lon="12.921003909987624"><ele>425.0</ele><time>2026-04-11T11:16:52Z</time></trkpt><trkpt lat="43.310269645260945" lon="12.921140619867806"><ele>425.0</ele><time>2026-04-11T11:16:53Z</time></trkpt><trkpt lat="43.3102809536077" lon="12.92127427484973"><ele>424.25</ele><time>2026-04-11T11:16:54Z</time></trkpt><trkpt lat="43.3102924330772" lon="12.921425709237456"><ele>423.5</ele><time>2026-04-11T11:16:55Z</time></trkpt><trkpt lat="43.31030289344303" lon="12.921583183051828"><ele>422.75</ele><time>2026-04-11T11:16:56Z</time></trkpt><trkpt lat="43.310310332272955" lon="12.921739380573669"><ele>422.0</ele><time>2026-04-11T11:16:57Z</time></trkpt><trkpt lat="43.31031341995636" lon="12.921897823269626"><ele>420.40000000000003</ele><time>2026-04-11T11:16:58Z</time></trkpt><trkpt lat="43.31031045095386" lon="12.922049223473692"><ele>418.8</ele><time>2026-04-11T11:16:59Z</time></trkpt><trkpt lat="43.31030628261255" lon="12.922198733792614"><ele>417.2</ele><time>2026-04-11T11:17:00Z</time></trkpt><trkpt lat="43.310303659995114" lon="12.922336548680407"><ele>415.6</ele><time>2026-04-11T11:17:01Z</time></trkpt><trkpt lat="43.31030519655413" lon="12.92250620906516"><ele>414.0</ele><time>2026-04-11T11:17:02Z</time></trkpt><trkpt lat="43.31030756388144" lon="12.922672179140758"><ele>411.6</ele><time>2026-04-11T11:17:03Z</time></trkpt><trkpt lat="43.3103034630658" lon="12.922836588237987"><ele>409.2</ele><time>2026-04-11T11:17:04Z</time></trkpt><trkpt lat="43.310298780238114" lon="12.92298483868956"><ele>406.8</ele><time>2026-04-11T11:17:05Z</time></trkpt><trkpt lat="43.31031062765032" lon="12.923129708376653"><ele>404.40000000000003</ele><time>2026-04-11T11:17:06Z</time></trkpt><trkpt lat="43.310343851291066" lon="12.923242698055265"><ele>402.0</ele><time>2026-04-11T11:17:07Z</time></trkpt><trkpt lat="43.31040227164567" lon="12.923313939466693"><ele>402.0</ele><time>2026-04-11T11:17:08Z</time></trkpt><trkpt lat="43.31047523818821" lon="12.923380492865231"><ele>402.0</ele><time>2026-04-11T11:17:09Z</time></trkpt><trkpt lat="43.31056112161226" lon="12.923461232339296"><ele>402.0</ele><time>2026-04-11T11:17:10Z</time></trkpt><trkpt lat="43.31065149230738" lon="12.923528410007041"><ele>402.0</ele><time>2026-04-11T11:17:11Z</time></trkpt><trkpt lat="43.31073214018467" lon="12.923591161165222"><ele>402.0</ele><time>2026-04-11T11:17:12Z</time></trkpt><trkpt lat="43.310827930181084" lon="12.92364058139112"><ele>401.25</ele><time>2026-04-11T11:17:13Z</time></trkpt><trkpt lat="43.31093771050563" lon="12.923680265843798"><ele>400.5</ele><time>2026-04-11T11:17:14Z</time></trkpt><trkpt lat="43.311054122947425" lon="12.92371304358717"><ele>399.75</ele><time>2026-04-11T11:17:15Z</time></trkpt><trkpt lat="43.31117741590989" lon="12.92369846409378"><ele>399.0</ele><time>2026-04-11T11:17:16Z</time></trkpt><trkpt lat="43.31129232530591" lon="12.923717350933977"><ele>399.0</ele><time>2026-04-11T11:17:17Z</time></trkpt><trkpt lat="43.31139798169331" lon="12.923725751146515"><ele>399.0</ele><time>2026-04-11T11:17:18Z</time></trkpt><trkpt lat="43.311504003476614" lon="12.923728851306938"><ele>399.0</ele><time>2026-04-11T11:17:19Z</time></trkpt><trkpt lat="43.31163105326702" lon="12.923743436462226"><ele>399.0</ele><time>2026-04-11T11:17:20Z</time></trkpt><trkpt lat="43.311734726992945" lon="12.923790960473152"><ele>399.0</ele><time>2026-04-11T11:17:21Z</time></trkpt><trkpt lat="43.31183435430926" lon="12.923869100811224"><ele>399.75</ele><time>2026-04-11T11:17:22Z</time></trkpt><trkpt lat="43.31193730621773" lon="12.923958500239959"><ele>400.5</ele><time>2026-04-11T11:17:23Z</time></trkpt><trkpt lat="43.3120372873128" lon="12.924056979320659"><ele>401.25</ele><time>2026-04-11T11:17:24Z</time></trkpt><trkpt lat="43.31213836278487" lon="12.924162865932466"><ele>402.0</ele><time>2026-04-11T11:17:25Z</time></trkpt><trkpt lat="43.31223431666292" lon="12.92427196909585"><ele>401.25</ele><time>2026-04-11T11:17:26Z</time></trkpt><trkpt lat="43.312354316047184" lon="12.924373314044074"><ele>400.5</ele><time>2026-04-11T11:17:27Z</time></trkpt><trkpt lat="43.31247469533302" lon="12.924484821132717"><ele>399.75</ele><time>2026-04-11T11:17:28Z</time></trkpt><trkpt lat="43.3125954946373" lon="12.92459307636334"><ele>399.0</ele><time>2026-04-11T11:17:29Z</time></trkpt><trkpt lat="43.31272403117575" lon="12.924685166258072"><ele>399.0</ele><time>2026-04-11T11:17:30Z</time></trkpt><trkpt lat="43.31284813050779" lon="12.924772433259573"><ele>399.0</ele><time>2026-04-11T11:17:31Z</time></trkpt><trkpt lat="43.31295801461564" lon="12.92485013160041"><ele>399.0</ele><time>2026-04-11T11:17:32Z</time></trkpt><trkpt lat="43.31306297313852" lon="12.924901262423491"><ele>399.0</ele><time>2026-04-11T11:17:33Z</time></trkpt><trkpt lat="43.313152393970874" lon="12.924968084828489"><ele>399.79999999999995</ele><time>2026-04-11T11:17:34Z</time></trkpt><trkpt lat="43.31325079226277" lon="12.92503368799821"><ele>400.59999999999997</ele><time>2026-04-11T11:17:35Z</time></trkpt><trkpt lat="43.31334355302126" lon="12.925099381123092"><ele>401.4</ele><time>2026-04-11T11:17:36Z</time></trkpt><trkpt lat="43.313426386725276" lon="12.925183298998302"><ele>402.2</ele><time>2026-04-11T11:17:37Z</time></trkpt><trkpt lat="43.31351002876364" lon="12.925261798506538"><ele>403.0</ele><time>2026-04-11T11:17:38Z</time></trkpt><trkpt lat="43.313589684243944" lon="12.925333584567271"><ele>403.00000000000006</ele><time>2026-04-11T11:17:39Z</time></trkpt><trkpt lat="43.31366105393923" lon="12.925401930851603"><ele>403.0</ele><time>2026-04-11T11:17:40Z</time></trkpt><trkpt lat="43.313717516731565" lon="12.9254554565893"><ele>403.0</ele><time>2026-04-11T11:17:41Z</time></trkpt><trkpt lat="43.31378986673341" lon="12.925527394236402"><ele>403.0</ele><time>2026-04-11T11:17:43Z</time></trkpt><trkpt lat="43.3138350861538" lon="12.925593664845413"><ele>403.00000000000006</ele><time>2026-04-11T11:17:56Z</time></trkpt><trkpt lat="43.31373968339328" lon="12.92569063418596"><ele>403.0</ele><time>2026-04-11T11:18:08Z</time></trkpt><trkpt lat="43.31364218664013" lon="12.925807317742207"><ele>403.00000000000006</ele><time>2026-04-11T11:18:10Z</time></trkpt><trkpt lat="43.31359445664469" lon="12.925872058747002"><ele>403.0</ele><time>2026-04-11T11:18:11Z</time></trkpt><trkpt lat="43.313540410390175" lon="12.925937609155985"><ele>403.0</ele><time>2026-04-11T11:18:12Z</time></trkpt><trkpt lat="43.31348221530267" lon="12.926000937469494"><ele>403.0</ele><time>2026-04-11T11:18:13Z</time></trkpt><trkpt lat="43.313400983483156" lon="12.926037014945967"><ele>403.00000000000006</ele><time>2026-04-11T11:18:14Z</time></trkpt><trkpt lat="43.3133050050353" lon="12.926015718485875"><ele>403.0</ele><time>2026-04-11T11:18:15Z</time></trkpt><trkpt lat="43.31321208102324" lon="12.925974794177598"><ele>402.79999999999995</ele><time>2026-04-11T11:18:16Z</time></trkpt><trkpt lat="43.3131197449642" lon="12.92592919946932"><ele>402.6</ele><time>2026-04-11T11:18:17Z</time></trkpt><trkpt lat="43.313030196918476" lon="12.925880471929403"><ele>402.4</ele><time>2026-04-11T11:18:18Z</time></trkpt><trkpt lat="43.31293966645316" lon="12.925831988944369"><ele>402.20000000000005</ele><time>2026-04-11T11:18:19Z</time></trkpt><trkpt lat="43.31284917652684" lon="12.925794233415205"><ele>402.0</ele><time>2026-04-11T11:18:20Z</time></trkpt><trkpt lat="43.312758246681014" lon="12.925765795117703"><ele>402.0</ele><time>2026-04-11T11:18:21Z</time></trkpt><trkpt lat="43.31266283310598" lon="12.925758804874445"><ele>402.0</ele><time>2026-04-11T11:18:22Z</time></trkpt><trkpt lat="43.31256263029205" lon="12.925764504518163"><ele>402.0</ele><time>2026-04-11T11:18:23Z</time></trkpt><trkpt lat="43.31245791761287" lon="12.925779919460293"><ele>402.0</ele><time>2026-04-11T11:18:24Z</time></trkpt><trkpt lat="43.31235580633921" lon="12.925808178406907"><ele>402.0</ele><time>2026-04-11T11:18:25Z</time></trkpt><trkpt lat="43.31225224078727" lon="12.925834945225734"><ele>400.6</ele><time>2026-04-11T11:18:26Z</time></trkpt><trkpt lat="43.31214797586727" lon="12.925838991437669"><ele>399.20000000000005</ele><time>2026-04-11T11:18:27Z</time></trkpt><trkpt lat="43.31203550318475" lon="12.925826611361364"><ele>397.8</ele><time>2026-04-11T11:18:28Z</time></trkpt><trkpt lat="43.31191671850011" lon="12.925835301398843"><ele>396.4</ele><time>2026-04-11T11:18:29Z</time></trkpt><trkpt lat="43.311808100795865" lon="12.925858661803272"><ele>395.0</ele><time>2026-04-11T11:18:30Z</time></trkpt><trkpt lat="43.311714970691874" lon="12.925745947665574"><ele>395.0</ele><time>2026-04-11T11:18:31Z</time></trkpt><trkpt lat="43.31164935525897" lon="12.925603420597758"><ele>395.0</ele><time>2026-04-11T11:18:32Z</time></trkpt><trkpt lat="43.311574797918645" lon="12.925478358126218"><ele>395.0</ele><time>2026-04-11T11:18:33Z</time></trkpt><trkpt lat="43.31151453905508" lon="12.925341647604053"><ele>395.0</ele><time>2026-04-11T11:18:34Z</time></trkpt><trkpt lat="43.31145624900669" lon="12.925211469494084"><ele>392.8</ele><time>2026-04-11T11:18:35Z</time></trkpt><trkpt lat="43.31140254044778" lon="12.925077822731042"><ele>390.6</ele><time>2026-04-11T11:18:36Z</time></trkpt><trkpt lat="43.31134077046055" lon="12.924961042541051"><ele>388.4</ele><time>2026-04-11T11:18:37Z</time></trkpt><trkpt lat="43.3112688872261" lon="12.924854787845971"><ele>386.2</ele><time>2026-04-11T11:18:38Z</time></trkpt><trkpt lat="43.31117425116221" lon="12.924798052315838"><ele>384.0</ele><time>2026-04-11T11:18:39Z</time></trkpt><trkpt lat="43.311081042950356" lon="12.924761685848944"><ele>384.0</ele><time>2026-04-11T11:18:40Z</time></trkpt><trkpt lat="43.310984142683864" lon="12.924753946998313"><ele>384.0</ele><time>2026-04-11T11:18:41Z</time></trkpt><trkpt lat="43.31090044252012" lon="12.924724294908332"><ele>384.0</ele><time>2026-04-11T11:18:42Z</time></trkpt><trkpt lat="43.31081946527398" lon="12.92469344647812"><ele>384.0</ele><time>2026-04-11T11:18:43Z</time></trkpt><trkpt lat="43.31073611575428" lon="12.924661307717535"><ele>384.0</ele><time>2026-04-11T11:18:44Z</time></trkpt><trkpt lat="43.31065158111025" lon="12.92465379413139"><ele>384.0</ele><time>2026-04-11T11:18:45Z</time></trkpt><trkpt lat="43.31058101885374" lon="12.924633408985695"><ele>382.79999999999995</ele><time>2026-04-11T11:18:46Z</time></trkpt><trkpt lat="43.31047775341329" lon="12.924633667696472"><ele>381.59999999999997</ele><time>2026-04-11T11:18:48Z</time></trkpt><trkpt lat="43.310431497112134" lon="12.924704453443153"><ele>380.4</ele><time>2026-04-11T11:18:50Z</time></trkpt><trkpt lat="43.310450644242515" lon="12.924888713665435"><ele>379.2</ele><time>2026-04-11T11:18:52Z</time></trkpt><trkpt lat="43.31049990529042" lon="12.925005789734367"><ele>378.0</ele><time>2026-04-11T11:18:53Z</time></trkpt><trkpt lat="43.31055033789208" lon="12.925119273872882"><ele>378.5</ele><time>2026-04-11T11:18:54Z</time></trkpt><trkpt lat="43.31060326712979" lon="12.92524522331819"><ele>379.0</ele><time>2026-04-11T11:18:55Z</time></trkpt><trkpt lat="43.31067952189673" lon="12.925348082517559"><ele>379.5</ele><time>2026-04-11T11:18:56Z</time></trkpt><trkpt lat="43.31075873740015" lon="12.925487563125419"><ele>380.0</ele><time>2026-04-11T11:18:57Z</time></trkpt><trkpt lat="43.310816017802885" lon="12.925645438679334"><ele>380.0</ele><time>2026-04-11T11:18:58Z</time></trkpt><trkpt lat="43.31078882174846" lon="12.925895112235093"><ele>380.0</ele><time>2026-04-11T11:18:59Z</time></trkpt><trkpt lat="43.31067702426317" lon="12.925957954383666"><ele>380.0</ele><time>2026-04-11T11:19:00Z</time></trkpt><trkpt lat="43.3105967528472" lon="12.925985533553986"><ele>380.0</ele><time>2026-04-11T11:19:01Z</time></trkpt><trkpt lat="43.31049362472224" lon="12.92609528805309"><ele>376.5</ele><time>2026-04-11T11:19:02Z</time></trkpt><trkpt lat="43.31037668655647" lon="12.926112281514769"><ele>373.0</ele><time>2026-04-11T11:19:03Z</time></trkpt><trkpt lat="43.31026626223068" lon="12.92613820136348"><ele>369.5</ele><time>2026-04-11T11:19:04Z</time></trkpt><trkpt lat="43.310158657918315" lon="12.926169060678923"><ele>366.0</ele><time>2026-04-11T11:19:05Z</time></trkpt><trkpt lat="43.31004551537254" lon="12.926155923412082"><ele>366.0</ele><time>2026-04-11T11:19:06Z</time></trkpt><trkpt lat="43.309931448495426" lon="12.926166227247512"><ele>366.0</ele><time>2026-04-11T11:19:07Z</time></trkpt><trkpt lat="43.30981826980652" lon="12.926168526196236"><ele>366.0</ele><time>2026-04-11T11:19:08Z</time></trkpt><trkpt lat="43.309708033843854" lon="12.926176005742025"><ele>366.0</ele><time>2026-04-11T11:19:09Z</time></trkpt><trkpt lat="43.30959966289584" lon="12.926179536587794"><ele>366.0</ele><time>2026-04-11T11:19:10Z</time></trkpt><trkpt lat="43.30949445547507" lon="12.926182809882366"><ele>364.8</ele><time>2026-04-11T11:19:11Z</time></trkpt><trkpt lat="43.30939299349503" lon="12.92618607988817"><ele>363.6</ele><time>2026-04-11T11:19:12Z</time></trkpt><trkpt lat="43.30929392921269" lon="12.926194102814756"><ele>362.4</ele><time>2026-04-11T11:19:13Z</time></trkpt><trkpt lat="43.30920359281193" lon="12.926206118219406"><ele>361.2</ele><time>2026-04-11T11:19:14Z</time></trkpt><trkpt lat="43.30911300659277" lon="12.926212160556684"><ele>360.0</ele><time>2026-04-11T11:19:15Z</time></trkpt><trkpt lat="43.30902172925672" lon="12.926213547101293"><ele>360.0</ele><time>2026-04-11T11:19:16Z</time></trkpt><trkpt lat="43.30899790396612" lon="12.92613306281407"><ele>360.0</ele><time>2026-04-11T11:19:17Z</time></trkpt><trkpt lat="43.30895356756405" lon="12.926059118468844"><ele>360.0</ele><time>2026-04-11T11:19:18Z</time></trkpt><trkpt lat="43.3088958483446" lon="12.925954749041445"><ele>360.0</ele><time>2026-04-11T11:19:19Z</time></trkpt><trkpt lat="43.30883199745897" lon="12.925833085762092"><ele>360.0</ele><time>2026-04-11T11:19:20Z</time></trkpt><trkpt lat="43.30876320313994" lon="12.925701205004499"><ele>359.75</ele><time>2026-04-11T11:19:21Z</time></trkpt><trkpt lat="43.30869252453539" lon="12.925569582961193"><ele>359.5</ele><time>2026-04-11T11:19:22Z</time></trkpt><trkpt lat="43.30861918584716" lon="12.92543348972013"><ele>359.25</ele><time>2026-04-11T11:19:23Z</time></trkpt><trkpt lat="43.30854239942165" lon="12.925299233197276"><ele>359.0</ele><time>2026-04-11T11:19:24Z</time></trkpt><trkpt lat="43.30846288613817" lon="12.925163794099397"><ele>360.5</ele><time>2026-04-11T11:19:25Z</time></trkpt><trkpt lat="43.308373909702794" lon="12.925029393219651"><ele>362.0</ele><time>2026-04-11T11:19:26Z</time></trkpt><trkpt lat="43.308277277958425" lon="12.924912238450165"><ele>363.5</ele><time>2026-04-11T11:19:27Z</time></trkpt><trkpt lat="43.308185421816205" lon="12.924818339482497"><ele>365.0</ele><time>2026-04-11T11:19:28Z</time></trkpt><trkpt lat="43.30809826930132" lon="12.924731161118553"><ele>366.0</ele><time>2026-04-11T11:19:29Z</time></trkpt><trkpt lat="43.308005245853764" lon="12.92464692570621"><ele>367.0</ele><time>2026-04-11T11:19:30Z</time></trkpt><trkpt lat="43.307905775052454" lon="12.924582102639379"><ele>368.0</ele><time>2026-04-11T11:19:31Z</time></trkpt><trkpt lat="43.30782414675441" lon="12.924489651448248"><ele>369.0</ele><time>2026-04-11T11:19:32Z</time></trkpt><trkpt lat="43.30776711742186" lon="12.924381485263572"><ele>370.0</ele><time>2026-04-11T11:19:33Z</time></trkpt><trkpt lat="43.307709437094" lon="12.924295521959"><ele>370.0</ele><time>2026-04-11T11:19:34Z</time></trkpt><trkpt lat="43.30764654183306" lon="12.924231242666933"><ele>370.0</ele><time>2026-04-11T11:19:35Z</time></trkpt><trkpt lat="43.30760523550481" lon="12.92414201944159"><ele>370.0</ele><time>2026-04-11T11:19:36Z</time></trkpt><trkpt lat="43.30755330637547" lon="12.924065521010286"><ele>370.0</ele><time>2026-04-11T11:19:37Z</time></trkpt><trkpt lat="43.307441716837815" lon="12.924011949484894"><ele>370.0</ele><time>2026-04-11T11:19:38Z</time></trkpt><trkpt lat="43.30736051855385" lon="12.924029141020172"><ele>370.0</ele><time>2026-04-11T11:19:39Z</time></trkpt><trkpt lat="43.3072663052035" lon="12.92402220954479"><ele>371.4</ele><time>2026-04-11T11:19:40Z</time></trkpt><trkpt lat="43.30716535684024" lon="12.924037362812244"><ele>372.8</ele><time>2026-04-11T11:19:41Z</time></trkpt><trkpt lat="43.30705555673607" lon="12.924039230643373"><ele>374.20000000000005</ele><time>2026-04-11T11:19:42Z</time></trkpt><trkpt lat="43.306943106666246" lon="12.924052534451011"><ele>375.6</ele><time>2026-04-11T11:19:43Z</time></trkpt><trkpt lat="43.306828101902845" lon="12.924069543252198"><ele>377.0</ele><time>2026-04-11T11:19:44Z</time></trkpt><trkpt lat="43.30669267579385" lon="12.924090536994536"><ele>377.0</ele><time>2026-04-11T11:19:45Z</time></trkpt><trkpt lat="43.30658270545125" lon="12.924124388965144"><ele>377.0</ele><time>2026-04-11T11:19:46Z</time></trkpt><trkpt lat="43.30650046624773" lon="12.924033930650213"><ele>377.0</ele><time>2026-04-11T11:19:47Z</time></trkpt><trkpt lat="43.30642503518423" lon="12.923951656374246"><ele>377.0</ele><time>2026-04-11T11:19:48Z</time></trkpt><trkpt lat="43.306361734069235" lon="12.923857963763142"><ele>377.0</ele><time>2026-04-11T11:19:49Z</time></trkpt><trkpt lat="43.30630108239812" lon="12.923758408158431"><ele>378.6</ele><time>2026-04-11T11:19:50Z</time></trkpt><trkpt lat="43.30623826046518" lon="12.923635975593012"><ele>380.20000000000005</ele><time>2026-04-11T11:19:51Z</time></trkpt><trkpt lat="43.30616330680597" lon="12.923524315456396"><ele>381.8</ele><time>2026-04-11T11:19:52Z</time></trkpt><trkpt lat="43.30609652051343" lon="12.92341219783695"><ele>383.4</ele><time>2026-04-11T11:19:53Z</time></trkpt><trkpt lat="43.30603787995168" lon="12.923291180881503"><ele>385.0</ele><time>2026-04-11T11:19:54Z</time></trkpt><trkpt lat="43.30595982834395" lon="12.9232119694217"><ele>385.0</ele><time>2026-04-11T11:19:55Z</time></trkpt><trkpt lat="43.30587224920823" lon="12.923149219054658"><ele>385.0</ele><time>2026-04-11T11:19:56Z</time></trkpt><trkpt lat="43.30578943417694" lon="12.9230723630967"><ele>385.0</ele><time>2026-04-11T11:19:57Z</time></trkpt><trkpt lat="43.305685544623394" lon="12.923034446689499"><ele>385.0</ele><time>2026-04-11T11:19:58Z</time></trkpt><trkpt lat="43.30560008565998" lon="12.92296279909379"><ele>385.0</ele><time>2026-04-11T11:19:59Z</time></trkpt><trkpt lat="43.3055164789198" lon="12.92289919197193"><ele>386.6666666666667</ele><time>2026-04-11T11:20:00Z</time></trkpt><trkpt lat="43.305437752589505" lon="12.922837341998525"><ele>388.33333333333337</ele><time>2026-04-11T11:20:01Z</time></trkpt><trkpt lat="43.30536518753073" lon="12.92277658223757"><ele>390.0</ele><time>2026-04-11T11:20:02Z</time></trkpt><trkpt lat="43.305302420521336" lon="12.922728690733859"><ele>391.66666666666663</ele><time>2026-04-11T11:20:03Z</time></trkpt><trkpt lat="43.30519325706949" lon="12.922638692648823"><ele>393.3333333333333</ele><time>2026-04-11T11:20:05Z</time></trkpt><trkpt lat="43.30513138652765" lon="12.922589378618376"><ele>395.0</ele><time>2026-04-11T11:20:06Z</time></trkpt><trkpt lat="43.305011791152644" lon="12.922689804687442"><ele>394.99999999999994</ele><time>2026-04-11T11:20:07Z</time></trkpt><trkpt lat="43.304935740499204" lon="12.922699801596403"><ele>395.0</ele><time>2026-04-11T11:20:08Z</time></trkpt><trkpt lat="43.30485529724015" lon="12.922711842925183"><ele>395.0</ele><time>2026-04-11T11:20:09Z</time></trkpt><trkpt lat="43.30477275761567" lon="12.922722584548868"><ele>395.0</ele><time>2026-04-11T11:20:10Z</time></trkpt><trkpt lat="43.30468840782848" lon="12.92274015726399"><ele>394.99999999999994</ele><time>2026-04-11T11:20:10.999Z</time></trkpt><trkpt lat="43.304595603527936" lon="12.922711792063955"><ele>395.0</ele><time>2026-04-11T11:20:11.999Z</time></trkpt><trkpt lat="43.30450724268772" lon="12.922741013796271"><ele>396.49999999999994</ele><time>2026-04-11T11:20:12.999Z</time></trkpt><trkpt lat="43.30442080464555" lon="12.922804734758726"><ele>398.0</ele><time>2026-04-11T11:20:13.999Z</time></trkpt><trkpt lat="43.304353331674" lon="12.922876727913184"><ele>399.5</ele><time>2026-04-11T11:20:14.999Z</time></trkpt><trkpt lat="43.304279697195966" lon="12.922962202549298"><ele>401.0</ele><time>2026-04-11T11:20:15.999Z</time></trkpt><trkpt lat="43.304219430643364" lon="12.92303496385129"><ele>402.49999999999994</ele><time>2026-04-11T11:20:16.999Z</time></trkpt><trkpt lat="43.30416337986127" lon="12.923105781474234"><ele>404.0</ele><time>2026-04-11T11:20:17.999Z</time></trkpt><trkpt lat="43.30408755829095" lon="12.923160185902516"><ele>404.0</ele><time>2026-04-11T11:20:18.999Z</time></trkpt><trkpt lat="43.30400387871916" lon="12.923213559948215"><ele>404.0</ele><time>2026-04-11T11:20:19.999Z</time></trkpt><trkpt lat="43.30391111240078" lon="12.923224897256675"><ele>404.0</ele><time>2026-04-11T11:20:20.999Z</time></trkpt><trkpt lat="43.303818630268715" lon="12.923217831848095"><ele>404.0</ele><time>2026-04-11T11:20:21.999Z</time></trkpt><trkpt lat="43.303727090043786" lon="12.923205010389387"><ele>404.0</ele><time>2026-04-11T11:20:22.999Z</time></trkpt><trkpt lat="43.30363241260182" lon="12.92318696677328"><ele>405.0</ele><time>2026-04-11T11:20:23.999Z</time></trkpt><trkpt lat="43.30353463042672" lon="12.92316311919823"><ele>406.0</ele><time>2026-04-11T11:20:24.999Z</time></trkpt><trkpt lat="43.3034366610621" lon="12.92314709363679"><ele>407.0</ele><time>2026-04-11T11:20:25.999Z</time></trkpt><trkpt lat="43.30334020598938" lon="12.923118626828506"><ele>408.0</ele><time>2026-04-11T11:20:26.999Z</time></trkpt><trkpt lat="43.30325012787331" lon="12.923114546018775"><ele>409.0</ele><time>2026-04-11T11:20:27.999Z</time></trkpt><trkpt lat="43.30316184398157" lon="12.923128243409518"><ele>409.2</ele><time>2026-04-11T11:20:28.999Z</time></trkpt><trkpt lat="43.303056928442096" lon="12.923109381008736"><ele>409.4</ele><time>2026-04-11T11:20:29.999Z</time></trkpt><trkpt lat="43.302975489406805" lon="12.923180979208036"><ele>409.6</ele><time>2026-04-11T11:20:30.999Z</time></trkpt><trkpt lat="43.30291202205156" lon="12.923266703240126"><ele>409.8</ele><time>2026-04-11T11:20:31.999Z</time></trkpt><trkpt lat="43.3028512589223" lon="12.92335723066171"><ele>410.0</ele><time>2026-04-11T11:20:32.999Z</time></trkpt><trkpt lat="43.302788433993804" lon="12.923453467898904"><ele>410.0</ele><time>2026-04-11T11:20:33.999Z</time></trkpt><trkpt lat="43.302726901976236" lon="12.923551283041457"><ele>410.0</ele><time>2026-04-11T11:20:34.999Z</time></trkpt><trkpt lat="43.30266611238879" lon="12.92364969031541"><ele>410.0</ele><time>2026-04-11T11:20:35.999Z</time></trkpt><trkpt lat="43.302603771922946" lon="12.923751047510777"><ele>410.0</ele><time>2026-04-11T11:20:36.999Z</time></trkpt><trkpt lat="43.302543789408375" lon="12.923851747733954"><ele>410.0</ele><time>2026-04-11T11:20:37.999Z</time></trkpt><trkpt lat="43.30248488337181" lon="12.92395184939282"><ele>410.0</ele><time>2026-04-11T11:20:38.999Z</time></trkpt><trkpt lat="43.30242372473904" lon="12.924055778833551"><ele>410.0</ele><time>2026-04-11T11:20:39.999Z</time></trkpt><trkpt lat="43.302360464518244" lon="12.92416323100471"><ele>410.0</ele><time>2026-04-11T11:20:40.999Z</time></trkpt><trkpt lat="43.302295731071176" lon="12.924266992465734"><ele>410.0</ele><time>2026-04-11T11:20:41.999Z</time></trkpt><trkpt lat="43.30222697778306" lon="12.924368904829153"><ele>410.0</ele><time>2026-04-11T11:20:42.999Z</time></trkpt><trkpt lat="43.30215832805188" lon="12.924458617399532"><ele>412.0</ele><time>2026-04-11T11:20:43.999Z</time></trkpt><trkpt lat="43.30209773829852" lon="12.924526850074141"><ele>414.0</ele><time>2026-04-11T11:20:44.999Z</time></trkpt><trkpt lat="43.30203785239797" lon="12.924587518313158"><ele>416.0</ele><time>2026-04-11T11:20:45.999Z</time></trkpt><trkpt lat="43.30197399729423" lon="12.924639667124769"><ele>418.0</ele><time>2026-04-11T11:20:46.999Z</time></trkpt><trkpt lat="43.30191207943346" lon="12.92468012891735"><ele>420.0</ele><time>2026-04-11T11:20:47.999Z</time></trkpt><trkpt lat="43.301848492054454" lon="12.924713236290026"><ele>422.0</ele><time>2026-04-11T11:20:48.999Z</time></trkpt><trkpt lat="43.30178751690756" lon="12.92474082503911"><ele>424.0</ele><time>2026-04-11T11:20:49.999Z</time></trkpt><trkpt lat="43.30171532865548" lon="12.924780774023839"><ele>424.00000000000006</ele><time>2026-04-11T11:20:50.999Z</time></trkpt><trkpt lat="43.30164660354911" lon="12.924820909372883"><ele>424.0</ele><time>2026-04-11T11:20:51.999Z</time></trkpt><trkpt lat="43.30157649981834" lon="12.92485685218698"><ele>424.0</ele><time>2026-04-11T11:20:52.999Z</time></trkpt><trkpt lat="43.30149855824033" lon="12.92488446853942"><ele>424.0</ele><time>2026-04-11T11:20:53.999Z</time></trkpt><trkpt lat="43.30141260510641" lon="12.924913217011854"><ele>424.00000000000006</ele><time>2026-04-11T11:20:54.999Z</time></trkpt><trkpt lat="43.30131933849462" lon="12.924941154826891"><ele>424.0</ele><time>2026-04-11T11:20:55.999Z</time></trkpt><trkpt lat="43.30125787004973" lon="12.925018212805485"><ele>428.1666666666667</ele><time>2026-04-11T11:20:56.999Z</time></trkpt><trkpt lat="43.301188586158005" lon="12.925075380431082"><ele>432.33333333333337</ele><time>2026-04-11T11:20:57.999Z</time></trkpt><trkpt lat="43.30112739049043" lon="12.925148206689048"><ele>436.5</ele><time>2026-04-11T11:20:58.999Z</time></trkpt><trkpt lat="43.30106330510136" lon="12.925223191437123"><ele>440.66666666666663</ele><time>2026-04-11T11:20:59.999Z</time></trkpt><trkpt lat="43.30099277346154" lon="12.925296963037722"><ele>444.8333333333333</ele><time>2026-04-11T11:21:00.999Z</time></trkpt><trkpt lat="43.30092153174294" lon="12.925363798401607"><ele>449.0</ele><time>2026-04-11T11:21:01.999Z</time></trkpt><trkpt lat="43.300849248414615" lon="12.925423254302233"><ele>448.99999999999994</ele><time>2026-04-11T11:21:02.999Z</time></trkpt><trkpt lat="43.30077779372447" lon="12.92547675629334"><ele>449.0</ele><time>2026-04-11T11:21:03.999Z</time></trkpt><trkpt lat="43.30069518047672" lon="12.925531270592742"><ele>449.0</ele><time>2026-04-11T11:21:04.999Z</time></trkpt><trkpt lat="43.30061713490487" lon="12.925598779367743"><ele>449.0</ele><time>2026-04-11T11:21:05.999Z</time></trkpt><trkpt lat="43.30053348388143" lon="12.925627999699369"><ele>448.99999999999994</ele><time>2026-04-11T11:21:06.999Z</time></trkpt><trkpt lat="43.300446188620185" lon="12.925654506361678"><ele>449.0</ele><time>2026-04-11T11:21:07.999Z</time></trkpt><trkpt lat="43.30035918971034" lon="12.925675310689646"><ele>451.2</ele><time>2026-04-11T11:21:08.999Z</time></trkpt><trkpt lat="43.30026788058068" lon="12.925698789116831"><ele>453.4</ele><time>2026-04-11T11:21:09.999Z</time></trkpt><trkpt lat="43.300179090875254" lon="12.925712921853874"><ele>455.6</ele><time>2026-04-11T11:21:10.999Z</time></trkpt><trkpt lat="43.30008812071585" lon="12.925700060680517"><ele>457.8</ele><time>2026-04-11T11:21:11.999Z</time></trkpt><trkpt lat="43.29999232608039" lon="12.9257000086879"><ele>460.0</ele><time>2026-04-11T11:21:12.999Z</time></trkpt><trkpt lat="43.29990398609588" lon="12.925697191693558"><ele>460.0</ele><time>2026-04-11T11:21:13.999Z</time></trkpt><trkpt lat="43.299796376636785" lon="12.925693513538338"><ele>460.0</ele><time>2026-04-11T11:21:14.999Z</time></trkpt><trkpt lat="43.299703896772264" lon="12.925682538853513"><ele>460.0</ele><time>2026-04-11T11:21:15.999Z</time></trkpt><trkpt lat="43.29961482997393" lon="12.925671901027373"><ele>460.0</ele><time>2026-04-11T11:21:16.999Z</time></trkpt><trkpt lat="43.299522049450644" lon="12.925661044112523"><ele>460.0</ele><time>2026-04-11T11:21:17.999Z</time></trkpt><trkpt lat="43.29943323939517" lon="12.92564741004404"><ele>461.33333333333337</ele><time>2026-04-11T11:21:18.999Z</time></trkpt><trkpt lat="43.29935171119607" lon="12.925635935363342"><ele>462.6666666666667</ele><time>2026-04-11T11:21:19.999Z</time></trkpt><trkpt lat="43.29928002756153" lon="12.925624479869633"><ele>464.0</ele><time>2026-04-11T11:21:20.999Z</time></trkpt><trkpt lat="43.29921110439636" lon="12.9256381540413"><ele>465.33333333333337</ele><time>2026-04-11T11:21:21.999Z</time></trkpt><trkpt lat="43.29913976288229" lon="12.925614899880655"><ele>466.6666666666667</ele><time>2026-04-11T11:21:22.999Z</time></trkpt><trkpt lat="43.29903588439058" lon="12.925647339150261"><ele>468.0</ele><time>2026-04-11T11:21:24.999Z</time></trkpt><trkpt lat="43.29896063220698" lon="12.925670839112714"><ele>468.1666666666667</ele><time>2026-04-11T11:21:26.999Z</time></trkpt><trkpt lat="43.298897278746075" lon="12.925761947017104"><ele>468.33333333333337</ele><time>2026-04-11T11:21:28.999Z</time></trkpt><trkpt lat="43.29883309934039" lon="12.925813698109232"><ele>468.5</ele><time>2026-04-11T11:21:30.999Z</time></trkpt><trkpt lat="43.298770882150265" lon="12.925866926599781"><ele>468.6666666666667</ele><time>2026-04-11T11:21:32.999Z</time></trkpt><trkpt lat="43.29870722524071" lon="12.925921386743466"><ele>468.83333333333337</ele><time>2026-04-11T11:21:34.999Z</time></trkpt><trkpt lat="43.298649246264056" lon="12.925970989299673"><ele>469.0</ele><time>2026-04-11T11:21:36.999Z</time></trkpt><trkpt lat="43.29859013222156" lon="12.92604953664255"><ele>469.00000000000006</ele><time>2026-04-11T11:21:38.999Z</time></trkpt><trkpt lat="43.298530307552596" lon="12.926117848680311"><ele>469.0</ele><time>2026-04-11T11:21:40.999Z</time></trkpt><trkpt lat="43.298445141146246" lon="12.926183982541342"><ele>469.0</ele><time>2026-04-11T11:21:42.999Z</time></trkpt><trkpt lat="43.29833558504336" lon="12.926238040194761"><ele>469.0</ele><time>2026-04-11T11:21:44.999Z</time></trkpt><trkpt lat="43.298273267661145" lon="12.92626110423834"><ele>469.00000000000006</ele><time>2026-04-11T11:21:45.999Z</time></trkpt><trkpt lat="43.29820135811664" lon="12.926278513527752"><ele>469.0</ele><time>2026-04-11T11:21:46.999Z</time></trkpt><trkpt lat="43.29812649106421" lon="12.92629437785281"><ele>466.33333333333337</ele><time>2026-04-11T11:21:47.999Z</time></trkpt><trkpt lat="43.298048447930704" lon="12.926302549339733"><ele>463.6666666666667</ele><time>2026-04-11T11:21:48.999Z</time></trkpt><trkpt lat="43.29796075902259" lon="12.926298027175882"><ele>461.0</ele><time>2026-04-11T11:21:49.999Z</time></trkpt><trkpt lat="43.297878420997954" lon="12.926292584692279"><ele>458.33333333333337</ele><time>2026-04-11T11:21:50.999Z</time></trkpt><trkpt lat="43.29780494604048" lon="12.926290592892643"><ele>455.6666666666667</ele><time>2026-04-11T11:21:51.999Z</time></trkpt><trkpt lat="43.2976909037442" lon="12.926307902646549"><ele>453.0</ele><time>2026-04-11T11:21:53.999Z</time></trkpt><trkpt lat="43.29756844179212" lon="12.926339934937936"><ele>452.99999999999994</ele><time>2026-04-11T11:21:55.999Z</time></trkpt><trkpt lat="43.29749911455944" lon="12.92636320966202"><ele>453.0</ele><time>2026-04-11T11:21:56.999Z</time></trkpt><trkpt lat="43.29743193597566" lon="12.92638209284049"><ele>452.99999999999994</ele><time>2026-04-11T11:21:57.999Z</time></trkpt><trkpt lat="43.29736261811934" lon="12.926391677516595"><ele>452.99999999999994</ele><time>2026-04-11T11:21:58.999Z</time></trkpt><trkpt lat="43.297287344446396" lon="12.9263992441834"><ele>453.0</ele><time>2026-04-11T11:21:59.999Z</time></trkpt><trkpt lat="43.29721345004393" lon="12.926406956491341"><ele>452.99999999999994</ele><time>2026-04-11T11:22:00.999Z</time></trkpt><trkpt lat="43.29714581232672" lon="12.926410056698517"><ele>452.99999999999994</ele><time>2026-04-11T11:22:01.999Z</time></trkpt><trkpt lat="43.297023907293664" lon="12.9264166010511"><ele>449.79999999999995</ele><time>2026-04-11T11:22:03.999Z</time></trkpt><trkpt lat="43.29691328586807" lon="12.926411869655995"><ele>446.59999999999997</ele><time>2026-04-11T11:22:05.999Z</time></trkpt><trkpt lat="43.29681370285169" lon="12.926418998536793"><ele>443.40000000000003</ele><time>2026-04-11T11:22:07.999Z</time></trkpt><trkpt lat="43.29674034004087" lon="12.92643247042492"><ele>440.20000000000005</ele><time>2026-04-11T11:22:09.999Z</time></trkpt><trkpt lat="43.29665989106924" lon="12.92644999280841"><ele>437.0</ele><time>2026-04-11T11:22:11.999Z</time></trkpt><trkpt lat="43.29653088209559" lon="12.926489516362274"><ele>436.99999999999994</ele><time>2026-04-11T11:22:13.999Z</time></trkpt><trkpt lat="43.29646007890368" lon="12.92650861903775"><ele>437.0</ele><time>2026-04-11T11:22:14.999Z</time></trkpt><trkpt lat="43.296374790020366" lon="12.926506101064021"><ele>437.0</ele><time>2026-04-11T11:22:15.999Z</time></trkpt><trkpt lat="43.29628856554273" lon="12.926490259680104"><ele>437.0</ele><time>2026-04-11T11:22:16.999Z</time></trkpt><trkpt lat="43.296197921292666" lon="12.926473222416018"><ele>436.99999999999994</ele><time>2026-04-11T11:22:17.999Z</time></trkpt><trkpt lat="43.296126252324946" lon="12.926475460949517"><ele>437.0</ele><time>2026-04-11T11:22:18.999Z</time></trkpt><trkpt lat="43.29605425780297" lon="12.926518968809228"><ele>435.1428571428571</ele><time>2026-04-11T11:22:19.999Z</time></trkpt><trkpt lat="43.295987898044615" lon="12.926569731772679"><ele>433.28571428571433</ele><time>2026-04-11T11:22:20.999Z</time></trkpt><trkpt lat="43.295922029941" lon="12.926619375887515"><ele>431.42857142857144</ele><time>2026-04-11T11:22:21.999Z</time></trkpt><trkpt lat="43.29586295995961" lon="12.926667865171003"><ele>429.57142857142856</ele><time>2026-04-11T11:22:22.999Z</time></trkpt><trkpt lat="43.295801296096116" lon="12.926717588756986"><ele>427.71428571428567</ele><time>2026-04-11T11:22:23.999Z</time></trkpt><trkpt lat="43.295740073224394" lon="12.926778631288945"><ele>425.8571428571429</ele><time>2026-04-11T11:22:24.999Z</time></trkpt><trkpt lat="43.29568131276298" lon="12.926847863460429"><ele>424.0</ele><time>2026-04-11T11:22:25.999Z</time></trkpt><trkpt lat="43.295626186684856" lon="12.92692274720355"><ele>423.0</ele><time>2026-04-11T11:22:26.999Z</time></trkpt><trkpt lat="43.29557814120937" lon="12.926980158480166"><ele>422.0</ele><time>2026-04-11T11:22:27.999Z</time></trkpt><trkpt lat="43.295485247489516" lon="12.92708167361045"><ele>421.0</ele><time>2026-04-11T11:22:29.999Z</time></trkpt><trkpt lat="43.29539179469175" lon="12.927166500505074"><ele>420.0</ele><time>2026-04-11T11:22:31.999Z</time></trkpt><trkpt lat="43.29530338148206" lon="12.927239394245833"><ele>419.0</ele><time>2026-04-11T11:22:33.999Z</time></trkpt><trkpt lat="43.295222893130706" lon="12.927297052873609"><ele>419.0</ele><time>2026-04-11T11:22:35.999Z</time></trkpt><trkpt lat="43.29514474755708" lon="12.9273733721866"><ele>419.0</ele><time>2026-04-11T11:22:37.999Z</time></trkpt><trkpt lat="43.295058982189175" lon="12.927512750745763"><ele>419.0</ele><time>2026-04-11T11:22:39.999Z</time></trkpt><trkpt lat="43.29502150555513" lon="12.927606943189174"><ele>419.0</ele><time>2026-04-11T11:22:40.999Z</time></trkpt><trkpt lat="43.29498217300116" lon="12.927696168743696"><ele>419.0</ele><time>2026-04-11T11:22:41.999Z</time></trkpt><trkpt lat="43.294950117864" lon="12.927791718403604"><ele>417.49999999999994</ele><time>2026-04-11T11:22:42.999Z</time></trkpt><trkpt lat="43.29492241710377" lon="12.927884653688581"><ele>416.0</ele><time>2026-04-11T11:22:43.999Z</time></trkpt><trkpt lat="43.294901985387064" lon="12.927984288253922"><ele>414.5</ele><time>2026-04-11T11:22:44.999Z</time></trkpt><trkpt lat="43.29488661041148" lon="12.928082682949508"><ele>413.0</ele><time>2026-04-11T11:22:45.999Z</time></trkpt><trkpt lat="43.294860921015996" lon="12.928182621638104"><ele>411.49999999999994</ele><time>2026-04-11T11:22:46.999Z</time></trkpt><trkpt lat="43.29482421186324" lon="12.928284185428822"><ele>410.0</ele><time>2026-04-11T11:22:47.999Z</time></trkpt><trkpt lat="43.29479426897086" lon="12.92839667868492"><ele>408.3333333333333</ele><time>2026-04-11T11:22:48.999Z</time></trkpt><trkpt lat="43.29477440565964" lon="12.928514950917357"><ele>406.66666666666663</ele><time>2026-04-11T11:22:49.999Z</time></trkpt><trkpt lat="43.29475781692873" lon="12.928637130060777"><ele>405.0</ele><time>2026-04-11T11:22:50.999Z</time></trkpt><trkpt lat="43.29473912515644" lon="12.928752492079056"><ele>403.33333333333337</ele><time>2026-04-11T11:22:51.999Z</time></trkpt><trkpt lat="43.29472504777855" lon="12.92887406865599"><ele>401.6666666666667</ele><time>2026-04-11T11:22:52.999Z</time></trkpt><trkpt lat="43.29470595618782" lon="12.928997826861966"><ele>400.0</ele><time>2026-04-11T11:22:53.999Z</time></trkpt><trkpt lat="43.294683645213205" lon="12.929115003600947"><ele>400.00000000000006</ele><time>2026-04-11T11:22:54.999Z</time></trkpt><trkpt lat="43.294670688519744" lon="12.929217788967904"><ele>400.0</ele><time>2026-04-11T11:22:55.999Z</time></trkpt><trkpt lat="43.29462916052595" lon="12.929362292906614"><ele>400.0</ele><time>2026-04-11T11:22:57.999Z</time></trkpt><trkpt lat="43.294601222385" lon="12.929441764443386"><ele>400.0</ele><time>2026-04-11T11:22:58.999Z</time></trkpt><trkpt lat="43.294580989613785" lon="12.929526453551995"><ele>400.00000000000006</ele><time>2026-04-11T11:22:59.999Z</time></trkpt><trkpt lat="43.294516329508504" lon="12.929658700684215"><ele>400.0</ele><time>2026-04-11T11:23:01.999Z</time></trkpt><trkpt lat="43.29444960570287" lon="12.92972283318013"><ele>398.00000000000006</ele><time>2026-04-11T11:23:02.999Z</time></trkpt><trkpt lat="43.29436814465637" lon="12.929704673898486"><ele>396.0</ele><time>2026-04-11T11:23:03.999Z</time></trkpt><trkpt lat="43.29427961103295" lon="12.929716677785814"><ele>394.0</ele><time>2026-04-11T11:23:04.999Z</time></trkpt><trkpt lat="43.29419528502197" lon="12.929691199088124"><ele>392.0</ele><time>2026-04-11T11:23:05.999Z</time></trkpt><trkpt lat="43.2941269091926" lon="12.929632169257511"><ele>390.00000000000006</ele><time>2026-04-11T11:23:06.999Z</time></trkpt><trkpt lat="43.294057431569314" lon="12.929575620822073"><ele>388.0</ele><time>2026-04-11T11:23:07.999Z</time></trkpt><trkpt lat="43.29400483666734" lon="12.929491342530595"><ele>388.0</ele><time>2026-04-11T11:23:08.999Z</time></trkpt><trkpt lat="43.293966487339425" lon="12.929408323457299"><ele>388.0</ele><time>2026-04-11T11:23:09.999Z</time></trkpt><trkpt lat="43.29391894117307" lon="12.929345682421957"><ele>388.0</ele><time>2026-04-11T11:23:10.999Z</time></trkpt><trkpt lat="43.29380352128903" lon="12.929278505270508"><ele>388.0</ele><time>2026-04-11T11:23:12.999Z</time></trkpt><trkpt lat="43.29368149527847" lon="12.92927856191217"><ele>388.0</ele><time>2026-04-11T11:23:14.999Z</time></trkpt><trkpt lat="43.2936120723811" lon="12.929278677743504"><ele>387.6666666666667</ele><time>2026-04-11T11:23:15.999Z</time></trkpt><trkpt lat="43.29354330109598" lon="12.929261230133552"><ele>387.33333333333337</ele><time>2026-04-11T11:23:16.999Z</time></trkpt><trkpt lat="43.293465565044" lon="12.929245971236293"><ele>387.0</ele><time>2026-04-11T11:23:17.999Z</time></trkpt><trkpt lat="43.29338936649453" lon="12.929212796398016"><ele>386.66666666666663</ele><time>2026-04-11T11:23:18.999Z</time></trkpt><trkpt lat="43.2933166268472" lon="12.929160252293585"><ele>386.3333333333333</ele><time>2026-04-11T11:23:19.999Z</time></trkpt><trkpt lat="43.29323168286764" lon="12.929096768391503"><ele>386.0</ele><time>2026-04-11T11:23:20.999Z</time></trkpt><trkpt lat="43.293135753827485" lon="12.929028269970077"><ele>387.20000000000005</ele><time>2026-04-11T11:23:21.999Z</time></trkpt><trkpt lat="43.29303938506763" lon="12.928961672363618"><ele>388.40000000000003</ele><time>2026-04-11T11:23:22.999Z</time></trkpt><trkpt lat="43.292942259588095" lon="12.928905356484549"><ele>389.6</ele><time>2026-04-11T11:23:24Z</time></trkpt><trkpt lat="43.2928456551994" lon="12.928849466424001"><ele>390.8</ele><time>2026-04-11T11:23:25Z</time></trkpt><trkpt lat="43.292751005415525" lon="12.928783243788352"><ele>392.0</ele><time>2026-04-11T11:23:26Z</time></trkpt><trkpt lat="43.292652976240106" lon="12.928709390882261"><ele>392.0</ele><time>2026-04-11T11:23:27Z</time></trkpt><trkpt lat="43.29255437254554" lon="12.928648632950049"><ele>392.0</ele><time>2026-04-11T11:23:28Z</time></trkpt><trkpt lat="43.292455181132915" lon="12.928600485944154"><ele>392.0</ele><time>2026-04-11T11:23:29Z</time></trkpt><trkpt lat="43.29236048748615" lon="12.928565135203453"><ele>392.0</ele><time>2026-04-11T11:23:30Z</time></trkpt><trkpt lat="43.292265300889895" lon="12.928551083257812"><ele>392.0</ele><time>2026-04-11T11:23:31Z</time></trkpt><trkpt lat="43.29217071100622" lon="12.928478785850366"><ele>392.6</ele><time>2026-04-11T11:23:32Z</time></trkpt><trkpt lat="43.29207310401531" lon="12.928468172517373"><ele>393.20000000000005</ele><time>2026-04-11T11:23:33Z</time></trkpt><trkpt lat="43.291985663099716" lon="12.92846797310438"><ele>393.8</ele><time>2026-04-11T11:23:34Z</time></trkpt><trkpt lat="43.29190034913673" lon="12.928459494053563"><ele>394.4</ele><time>2026-04-11T11:23:35Z</time></trkpt><trkpt lat="43.291818501490525" lon="12.928416325417716"><ele>395.0</ele><time>2026-04-11T11:23:36Z</time></trkpt><trkpt lat="43.291735115753646" lon="12.928345741949807"><ele>395.0</ele><time>2026-04-11T11:23:37Z</time></trkpt><trkpt lat="43.291655285241816" lon="12.928272185624786"><ele>395.0</ele><time>2026-04-11T11:23:38Z</time></trkpt><trkpt lat="43.29157672009487" lon="12.928196560400583"><ele>395.0</ele><time>2026-04-11T11:23:39Z</time></trkpt><trkpt lat="43.29148986423665" lon="12.928136712060226"><ele>395.0</ele><time>2026-04-11T11:23:40Z</time></trkpt><trkpt lat="43.29141241738774" lon="12.928064202896916"><ele>395.0</ele><time>2026-04-11T11:23:41Z</time></trkpt><trkpt lat="43.291336350015" lon="12.927993544987554"><ele>396.0</ele><time>2026-04-11T11:23:42Z</time></trkpt><trkpt lat="43.29126244190306" lon="12.92789833556252"><ele>397.0</ele><time>2026-04-11T11:23:43Z</time></trkpt><trkpt lat="43.29118056818448" lon="12.927820770707646"><ele>398.0</ele><time>2026-04-11T11:23:44Z</time></trkpt><trkpt lat="43.29109905627816" lon="12.927740078542188"><ele>399.0</ele><time>2026-04-11T11:23:45Z</time></trkpt><trkpt lat="43.29101680715611" lon="12.927658726373712"><ele>400.0</ele><time>2026-04-11T11:23:46Z</time></trkpt><trkpt lat="43.290938244873416" lon="12.927577912458139"><ele>400.0</ele><time>2026-04-11T11:23:47Z</time></trkpt><trkpt lat="43.29085601390472" lon="12.927489766635672"><ele>400.0</ele><time>2026-04-11T11:23:48Z</time></trkpt><trkpt lat="43.29077265156999" lon="12.927398016451033"><ele>400.0</ele><time>2026-04-11T11:23:49Z</time></trkpt><trkpt lat="43.2906900156672" lon="12.9273039559962"><ele>400.0</ele><time>2026-04-11T11:23:50Z</time></trkpt><trkpt lat="43.2905931377495" lon="12.927222877106209"><ele>400.0</ele><time>2026-04-11T11:23:51Z</time></trkpt><trkpt lat="43.290519025199025" lon="12.927107870228596"><ele>400.6</ele><time>2026-04-11T11:23:52Z</time></trkpt><trkpt lat="43.290435517188804" lon="12.927008642712446"><ele>401.2</ele><time>2026-04-11T11:23:53Z</time></trkpt><trkpt lat="43.29035205023488" lon="12.926908830553971"><ele>401.79999999999995</ele><time>2026-04-11T11:23:54Z</time></trkpt><trkpt lat="43.29027237617576" lon="12.926814656433182"><ele>402.4</ele><time>2026-04-11T11:23:55Z</time></trkpt><trkpt lat="43.29019117556255" lon="12.926718677857737"><ele>403.0</ele><time>2026-04-11T11:23:56Z</time></trkpt><trkpt lat="43.29010793418411" lon="12.926625814377681"><ele>404.0</ele><time>2026-04-11T11:23:57Z</time></trkpt><trkpt lat="43.29002519047727" lon="12.926543164367287"><ele>405.0</ele><time>2026-04-11T11:23:58Z</time></trkpt><trkpt lat="43.28994063711157" lon="12.926462865556989"><ele>406.0</ele><time>2026-04-11T11:23:59Z</time></trkpt><trkpt lat="43.28985194660864" lon="12.926378558571999"><ele>407.0</ele><time>2026-04-11T11:24:00Z</time></trkpt><trkpt lat="43.28976393625249" lon="12.926291928596077"><ele>408.0</ele><time>2026-04-11T11:24:01Z</time></trkpt><trkpt lat="43.28968093873827" lon="12.926207680305192"><ele>408.0</ele><time>2026-04-11T11:24:02Z</time></trkpt><trkpt lat="43.28960066471029" lon="12.926125278153851"><ele>408.0</ele><time>2026-04-11T11:24:03Z</time></trkpt><trkpt lat="43.289515203484484" lon="12.926060119620763"><ele>408.0</ele><time>2026-04-11T11:24:04Z</time></trkpt><trkpt lat="43.289441519567006" lon="12.925971642204203"><ele>408.0</ele><time>2026-04-11T11:24:05Z</time></trkpt><trkpt lat="43.28937947144742" lon="12.925896681218017"><ele>408.0</ele><time>2026-04-11T11:24:06Z</time></trkpt><trkpt lat="43.28931978570989" lon="12.925845174517507"><ele>408.0</ele><time>2026-04-11T11:24:07Z</time></trkpt><trkpt lat="43.28922915715932" lon="12.925785563626535"><ele>409.79999999999995</ele><time>2026-04-11T11:24:09Z</time></trkpt><trkpt lat="43.28911094912335" lon="12.925731216194583"><ele>411.6</ele><time>2026-04-11T11:24:11Z</time></trkpt><trkpt lat="43.289034015286866" lon="12.925764083878867"><ele>413.4</ele><time>2026-04-11T11:24:12Z</time></trkpt><trkpt lat="43.28896673124195" lon="12.925845105655577"><ele>415.20000000000005</ele><time>2026-04-11T11:24:13Z</time></trkpt><trkpt lat="43.28891728828324" lon="12.925938193140755"><ele>417.0</ele><time>2026-04-11T11:24:14Z</time></trkpt><trkpt lat="43.28886008340636" lon="12.926060914255286"><ele>418.6</ele><time>2026-04-11T11:24:15Z</time></trkpt><trkpt lat="43.28882153565168" lon="12.926186043055873"><ele>420.20000000000005</ele><time>2026-04-11T11:24:16Z</time></trkpt><trkpt lat="43.28879882206717" lon="12.926297638879536"><ele>421.8</ele><time>2026-04-11T11:24:17Z</time></trkpt><trkpt lat="43.28877942768406" lon="12.926398505674745"><ele>423.4</ele><time>2026-04-11T11:24:18Z</time></trkpt><trkpt lat="43.28874570621981" lon="12.92654055385372"><ele>425.0</ele><time>2026-04-11T11:24:20Z</time></trkpt><trkpt lat="43.288790508700664" lon="12.926648574945995"><ele>425.0</ele><time>2026-04-11T11:24:22Z</time></trkpt><trkpt lat="43.28870857034157" lon="12.926659371831182"><ele>425.0</ele><time>2026-04-11T11:24:24Z</time></trkpt><trkpt lat="43.288592503953126" lon="12.926602944774311"><ele>425.0</ele><time>2026-04-11T11:24:26Z</time></trkpt><trkpt lat="43.288534114246815" lon="12.926551249409227"><ele>425.0</ele><time>2026-04-11T11:24:27Z</time></trkpt><trkpt lat="43.28846139713441" lon="12.926439358758408"><ele>425.0</ele><time>2026-04-11T11:24:29Z</time></trkpt><trkpt lat="43.288413017386794" lon="12.926309391558235"><ele>425.0</ele><time>2026-04-11T11:24:31Z</time></trkpt><trkpt lat="43.28831640319477" lon="12.92622890749447"><ele>425.0</ele><time>2026-04-11T11:24:33Z</time></trkpt><trkpt lat="43.28825028795842" lon="12.926180794259338"><ele>425.0</ele><time>2026-04-11T11:24:35Z</time></trkpt><trkpt lat="43.288157272644284" lon="12.926068603517049"><ele>425.0</ele><time>2026-04-11T11:24:37Z</time></trkpt><trkpt lat="43.28804333083672" lon="12.9261921852202"><ele>424.99999999999994</ele><time>2026-04-11T11:24:40Z</time></trkpt><trkpt lat="43.28811705018978" lon="12.926320045413028"><ele>425.0</ele><time>2026-04-11T11:24:42Z</time></trkpt><trkpt lat="43.28817881181403" lon="12.926410328229881"><ele>425.0</ele><time>2026-04-11T11:24:45Z</time></trkpt><trkpt lat="43.288239204072674" lon="12.926446388978187"><ele>425.0</ele><time>2026-04-11T11:24:47Z</time></trkpt><trkpt lat="43.28825006198686" lon="12.926553945975282"><ele>424.99999999999994</ele><time>2026-04-11T11:24:49Z</time></trkpt><trkpt lat="43.28829479646193" lon="12.926638042016114"><ele>425.0</ele><time>2026-04-11T11:24:51Z</time></trkpt><trkpt lat="43.28830488625069" lon="12.926741952803122"><ele>425.2</ele><time>2026-04-11T11:24:53Z</time></trkpt><trkpt lat="43.288244805456856" lon="12.92685645913414"><ele>425.4</ele><time>2026-04-11T11:24:55Z</time></trkpt><trkpt lat="43.28815222214028" lon="12.92693524888697"><ele>425.6</ele><time>2026-04-11T11:24:57Z</time></trkpt><trkpt lat="43.288084988080605" lon="12.927004839318862"><ele>425.8</ele><time>2026-04-11T11:24:59Z</time></trkpt><trkpt lat="43.288007292309274" lon="12.927062633614813"><ele>426.0</ele><time>2026-04-11T11:25:01Z</time></trkpt><trkpt lat="43.287922531580556" lon="12.927125610283014"><ele>430.8333333333333</ele><time>2026-04-11T11:25:03Z</time></trkpt><trkpt lat="43.28784412079708" lon="12.927178255656056"><ele>435.66666666666663</ele><time>2026-04-11T11:25:05Z</time></trkpt><trkpt lat="43.287758797691694" lon="12.927214590216156"><ele>440.5</ele><time>2026-04-11T11:25:07Z</time></trkpt><trkpt lat="43.28764457827972" lon="12.92730405291874"><ele>445.3333333333333</ele><time>2026-04-11T11:25:09Z</time></trkpt><trkpt lat="43.287586660343834" lon="12.927356366694656"><ele>450.16666666666663</ele><time>2026-04-11T11:25:10Z</time></trkpt><trkpt lat="43.28754194929408" lon="12.927423539070517"><ele>455.0</ele><time>2026-04-11T11:25:11Z</time></trkpt><trkpt lat="43.287501656481595" lon="12.92750409811585"><ele>453.2857142857143</ele><time>2026-04-11T11:25:12Z</time></trkpt><trkpt lat="43.287469627750184" lon="12.927589362494931"><ele>451.57142857142856</ele><time>2026-04-11T11:25:13Z</time></trkpt><trkpt lat="43.28744392593815" lon="12.927679872474071"><ele>449.8571428571429</ele><time>2026-04-11T11:25:14Z</time></trkpt><trkpt lat="43.2874170402421" lon="12.927768793822379"><ele>448.1428571428571</ele><time>2026-04-11T11:25:15Z</time></trkpt><trkpt lat="43.287388795560716" lon="12.927864788112707"><ele>446.42857142857144</ele><time>2026-04-11T11:25:16Z</time></trkpt><trkpt lat="43.287374123531656" lon="12.927969386933484"><ele>444.7142857142857</ele><time>2026-04-11T11:25:17Z</time></trkpt><trkpt lat="43.28735739801432" lon="12.9280747781058"><ele>443.0</ele><time>2026-04-11T11:25:18Z</time></trkpt><trkpt lat="43.28735754907205" lon="12.928172785950764"><ele>442.99999999999994</ele><time>2026-04-11T11:25:19Z</time></trkpt><trkpt lat="43.287345645293954" lon="12.928266570756664"><ele>443.0</ele><time>2026-04-11T11:25:20Z</time></trkpt><trkpt lat="43.28732372338567" lon="12.928359537153"><ele>443.0</ele><time>2026-04-11T11:25:21Z</time></trkpt><trkpt lat="43.28729903172225" lon="12.92845219427577"><ele>443.0</ele><time>2026-04-11T11:25:22Z</time></trkpt><trkpt lat="43.287290891485526" lon="12.928538437158425"><ele>442.99999999999994</ele><time>2026-04-11T11:25:23Z</time></trkpt><trkpt lat="43.28726153409967" lon="12.928698652642103"><ele>443.0</ele><time>2026-04-11T11:25:25Z</time></trkpt><trkpt lat="43.287237874709035" lon="12.928780452615777"><ele>449.0</ele><time>2026-04-11T11:25:26Z</time></trkpt><trkpt lat="43.28722089196621" lon="12.928876712558026"><ele>455.0</ele><time>2026-04-11T11:25:27Z</time></trkpt><trkpt lat="43.28720234059432" lon="12.928971959634934"><ele>461.0</ele><time>2026-04-11T11:25:28Z</time></trkpt><trkpt lat="43.28718174527503" lon="12.92905641845005"><ele>467.0</ele><time>2026-04-11T11:25:29Z</time></trkpt><trkpt lat="43.28714730863627" lon="12.929133073170846"><ele>473.0</ele><time>2026-04-11T11:25:30Z</time></trkpt><trkpt lat="43.28710883605872" lon="12.929213772550405"><ele>479.00000000000006</ele><time>2026-04-11T11:25:31Z</time></trkpt><trkpt lat="43.28708400317599" lon="12.929296059615043"><ele>485.00000000000006</ele><time>2026-04-11T11:25:32Z</time></trkpt><trkpt lat="43.28706552331712" lon="12.929379413717017"><ele>485.0</ele><time>2026-04-11T11:25:33Z</time></trkpt><trkpt lat="43.28700757705484" lon="12.929517974904696"><ele>485.0</ele><time>2026-04-11T11:25:35Z</time></trkpt><trkpt lat="43.28695022917571" lon="12.92957018187851"><ele>485.0</ele><time>2026-04-11T11:25:36Z</time></trkpt><trkpt lat="43.28684451858411" lon="12.929653395427316"><ele>485.0</ele><time>2026-04-11T11:25:38Z</time></trkpt><trkpt lat="43.28664299759905" lon="12.9295965679799"><ele>484.99999999999994</ele><time>2026-04-11T11:25:40Z</time></trkpt><trkpt lat="43.28658092723127" lon="12.929687640141593"><ele>485.0</ele><time>2026-04-11T11:25:42Z</time></trkpt><trkpt lat="43.28649822434668" lon="12.9297885491998"><ele>485.0</ele><time>2026-04-11T11:25:44Z</time></trkpt><trkpt lat="43.286448133845816" lon="12.929841485595494"><ele>485.0</ele><time>2026-04-11T11:25:45Z</time></trkpt><trkpt lat="43.286391118732105" lon="12.92987994956204"><ele>484.99999999999994</ele><time>2026-04-11T11:25:46Z</time></trkpt><trkpt lat="43.28632357990091" lon="12.929896886666096"><ele>485.0</ele><time>2026-04-11T11:25:47Z</time></trkpt><trkpt lat="43.28624681991959" lon="12.929884505816215"><ele>487.66666666666663</ele><time>2026-04-11T11:25:48Z</time></trkpt><trkpt lat="43.28615841828421" lon="12.929942846218516"><ele>490.3333333333333</ele><time>2026-04-11T11:25:49Z</time></trkpt><trkpt lat="43.286033716572355" lon="12.929966016884654"><ele>493.0</ele><time>2026-04-11T11:25:51Z</time></trkpt><trkpt lat="43.285954448308956" lon="12.929981109220725"><ele>495.66666666666663</ele><time>2026-04-11T11:25:52Z</time></trkpt><trkpt lat="43.28588172438809" lon="12.929995976030808"><ele>498.3333333333333</ele><time>2026-04-11T11:25:53Z</time></trkpt><trkpt lat="43.2858157365664" lon="12.9300095147791"><ele>501.0</ele><time>2026-04-11T11:25:54Z</time></trkpt><trkpt lat="43.285751391766105" lon="12.930020563796344"><ele>501.0</ele><time>2026-04-11T11:25:55Z</time></trkpt><trkpt lat="43.28569037687228" lon="12.930045036049528"><ele>501.0</ele><time>2026-04-11T11:25:56Z</time></trkpt><trkpt lat="43.28561401935485" lon="12.930053131288435"><ele>501.0</ele><time>2026-04-11T11:25:57Z</time></trkpt><trkpt lat="43.285543546371706" lon="12.93004926354376"><ele>501.0</ele><time>2026-04-11T11:25:58Z</time></trkpt><trkpt lat="43.28547471789865" lon="12.930056684735336"><ele>501.0</ele><time>2026-04-11T11:25:59Z</time></trkpt><trkpt lat="43.28539596873343" lon="12.930065175628457"><ele>501.0</ele><time>2026-04-11T11:26:00Z</time></trkpt><trkpt lat="43.28532826900052" lon="12.930072475144971"><ele>501.0</ele><time>2026-04-11T11:26:01Z</time></trkpt><trkpt lat="43.285236398332245" lon="12.930082380828463"><ele>499.1666666666667</ele><time>2026-04-11T11:26:02Z</time></trkpt><trkpt lat="43.28515517119149" lon="12.930092925907262"><ele>497.33333333333337</ele><time>2026-04-11T11:26:03Z</time></trkpt><trkpt lat="43.28506978065367" lon="12.930105737397467"><ele>495.5</ele><time>2026-04-11T11:26:04Z</time></trkpt><trkpt lat="43.28499138746914" lon="12.930112840808174"><ele>493.6666666666667</ele><time>2026-04-11T11:26:05Z</time></trkpt><trkpt lat="43.28491916888384" lon="12.9301126604422"><ele>491.83333333333337</ele><time>2026-04-11T11:26:06Z</time></trkpt><trkpt lat="43.28485147396882" lon="12.93010538277015"><ele>490.0</ele><time>2026-04-11T11:26:07Z</time></trkpt><trkpt lat="43.28478402511734" lon="12.930097592714901"><ele>490.2</ele><time>2026-04-11T11:26:08Z</time></trkpt><trkpt lat="43.28470924134288" lon="12.930086431352954"><ele>490.4</ele><time>2026-04-11T11:26:09Z</time></trkpt><trkpt lat="43.28463502197443" lon="12.930093984373121"><ele>490.6</ele><time>2026-04-11T11:26:10Z</time></trkpt><trkpt lat="43.28456702314904" lon="12.93008002932555"><ele>490.8</ele><time>2026-04-11T11:26:11Z</time></trkpt><trkpt lat="43.2844510971244" lon="12.930048982381264"><ele>491.0</ele><time>2026-04-11T11:26:13Z</time></trkpt><trkpt lat="43.284335440818644" lon="12.93000585914917"><ele>495.49999999999994</ele><time>2026-04-11T11:26:15Z</time></trkpt><trkpt lat="43.284265988958694" lon="12.929981500016625"><ele>500.0</ele><time>2026-04-11T11:26:16Z</time></trkpt><trkpt lat="43.28419756030707" lon="12.929971206379795"><ele>504.5</ele><time>2026-04-11T11:26:17Z</time></trkpt><trkpt lat="43.284075278468514" lon="12.929922435484116"><ele>509.0</ele><time>2026-04-11T11:26:19Z</time></trkpt><trkpt lat="43.28401426721743" lon="12.929890533354586"><ele>513.5</ele><time>2026-04-11T11:26:20Z</time></trkpt><trkpt lat="43.28395204325111" lon="12.929865146710558"><ele>518.0</ele><time>2026-04-11T11:26:21Z</time></trkpt><trkpt lat="43.28384700141812" lon="12.929780967758544"><ele>518.0</ele><time>2026-04-11T11:26:23Z</time></trkpt><trkpt lat="43.283723573254555" lon="12.929752364720995"><ele>518.0</ele><time>2026-04-11T11:26:25Z</time></trkpt><trkpt lat="43.28364012959011" lon="12.929741589322935"><ele>518.0</ele><time>2026-04-11T11:26:26Z</time></trkpt><trkpt lat="43.28356328371413" lon="12.929739455793001"><ele>518.0</ele><time>2026-04-11T11:26:27Z</time></trkpt><trkpt lat="43.2834870260359" lon="12.929747270051575"><ele>518.0</ele><time>2026-04-11T11:26:28Z</time></trkpt><trkpt lat="43.28340739923673" lon="12.929766404504708"><ele>518.0</ele><time>2026-04-11T11:26:29Z</time></trkpt><trkpt lat="43.28333377038125" lon="12.929803129640758"><ele>518.0</ele><time>2026-04-11T11:26:30Z</time></trkpt><trkpt lat="43.28324747754286" lon="12.9298983743476"><ele>518.0</ele><time>2026-04-11T11:26:32Z</time></trkpt><trkpt lat="43.28318866522448" lon="12.929957674426209"><ele>518.0</ele><time>2026-04-11T11:26:33Z</time></trkpt><trkpt lat="43.283135395376874" lon="12.930014469157495"><ele>518.0</ele><time>2026-04-11T11:26:34Z</time></trkpt><trkpt lat="43.28307589112351" lon="12.930076272141394"><ele>518.0</ele><time>2026-04-11T11:26:35Z</time></trkpt><trkpt lat="43.28302150333734" lon="12.930134680499055"><ele>518.0</ele><time>2026-04-11T11:26:36Z</time></trkpt><trkpt lat="43.282941238702676" lon="12.930205943239882"><ele>527.0</ele><time>2026-04-11T11:26:38Z</time></trkpt><trkpt lat="43.282549923467485" lon="12.929673071761936"><ele>527.0</ele><time>2026-04-11T11:26:39Z</time></trkpt><trkpt lat="43.2824744826508" lon="12.92964060302216"><ele>527.0</ele><time>2026-04-11T11:26:40Z</time></trkpt><trkpt lat="43.2824083741609" lon="12.929610155001171"><ele>527.0</ele><time>2026-04-11T11:26:41Z</time></trkpt><trkpt lat="43.282330711852715" lon="12.929571052350179"><ele>527.0</ele><time>2026-04-11T11:26:42Z</time></trkpt><trkpt lat="43.28226271325022" lon="12.92952145585838"><ele>527.0</ele><time>2026-04-11T11:26:43Z</time></trkpt><trkpt lat="43.282198983151304" lon="12.929481115414642"><ele>527.0</ele><time>2026-04-11T11:26:44Z</time></trkpt><trkpt lat="43.28213096801145" lon="12.929431809041356"><ele>525.8333333333333</ele><time>2026-04-11T11:26:45Z</time></trkpt><trkpt lat="43.282069514086636" lon="12.92936207130464"><ele>524.6666666666666</ele><time>2026-04-11T11:26:46Z</time></trkpt><trkpt lat="43.282027223779565" lon="12.92926861098259"><ele>523.5</ele><time>2026-04-11T11:26:47Z</time></trkpt><trkpt lat="43.281989594155135" lon="12.929188878880428"><ele>522.3333333333334</ele><time>2026-04-11T11:26:48Z</time></trkpt><trkpt lat="43.28194694993298" lon="12.929118944725118"><ele>521.1666666666667</ele><time>2026-04-11T11:26:49Z</time></trkpt><trkpt lat="43.28185079737439" lon="12.929013946720012"><ele>520.0</ele><time>2026-04-11T11:26:51Z</time></trkpt><trkpt lat="43.28176009692743" lon="12.928948336590114"><ele>524.4</ele><time>2026-04-11T11:26:53Z</time></trkpt><trkpt lat="43.2816601258023" lon="12.928873373224611"><ele>528.8</ele><time>2026-04-11T11:26:55Z</time></trkpt><trkpt lat="43.2816008080448" lon="12.928816421987486"><ele>533.2</ele><time>2026-04-11T11:26:56Z</time></trkpt><trkpt lat="43.281537227565686" lon="12.928737525935297"><ele>537.6</ele><time>2026-04-11T11:26:57Z</time></trkpt><trkpt lat="43.28146502275894" lon="12.928646388475315"><ele>542.0</ele><time>2026-04-11T11:26:58Z</time></trkpt><trkpt lat="43.28138712511122" lon="12.92855300132174"><ele>542.0</ele><time>2026-04-11T11:26:59Z</time></trkpt><trkpt lat="43.28131739693585" lon="12.928475652531437"><ele>542.0</ele><time>2026-04-11T11:27:00Z</time></trkpt><trkpt lat="43.281240399174166" lon="12.928399517115334"><ele>542.0</ele><time>2026-04-11T11:27:01Z</time></trkpt><trkpt lat="43.281174719943294" lon="12.928317687959115"><ele>542.0</ele><time>2026-04-11T11:27:02Z</time></trkpt><trkpt lat="43.28110995942355" lon="12.928245690197627"><ele>542.0</ele><time>2026-04-11T11:27:03Z</time></trkpt><trkpt lat="43.28102845674642" lon="12.928204715664563"><ele>542.0</ele><time>2026-04-11T11:27:04Z</time></trkpt><trkpt lat="43.28093507068953" lon="12.928153023670196"><ele>547.8333333333333</ele><time>2026-04-11T11:27:05Z</time></trkpt><trkpt lat="43.28084365527283" lon="12.92808898171268"><ele>553.6666666666666</ele><time>2026-04-11T11:27:06Z</time></trkpt><trkpt lat="43.28076791679588" lon="12.928010922025956"><ele>559.5</ele><time>2026-04-11T11:27:07Z</time></trkpt><trkpt lat="43.280703573845855" lon="12.927936338059673"><ele>565.3333333333334</ele><time>2026-04-11T11:27:08Z</time></trkpt><trkpt lat="43.280635534963466" lon="12.927869288456067"><ele>571.1666666666667</ele><time>2026-04-11T11:27:09Z</time></trkpt><trkpt lat="43.28057517763013" lon="12.927811325145598"><ele>577.0</ele><time>2026-04-11T11:27:10Z</time></trkpt><trkpt lat="43.28050975450681" lon="12.927737265750194"><ele>577.5</ele><time>2026-04-11T11:27:11Z</time></trkpt><trkpt lat="43.28043983157107" lon="12.927669818663533"><ele>578.0</ele><time>2026-04-11T11:27:12Z</time></trkpt><trkpt lat="43.280373194275285" lon="12.92760377075461"><ele>578.5</ele><time>2026-04-11T11:27:13Z</time></trkpt><trkpt lat="43.2803121987688" lon="12.927536092798942"><ele>579.0</ele><time>2026-04-11T11:27:14Z</time></trkpt><trkpt lat="43.280254288693925" lon="12.927475015503793"><ele>579.5</ele><time>2026-04-11T11:27:15Z</time></trkpt><trkpt lat="43.28019056022194" lon="12.927414081745267"><ele>580.0</ele><time>2026-04-11T11:27:16Z</time></trkpt><trkpt lat="43.28012291442011" lon="12.92735533248638"><ele>583.8333333333334</ele><time>2026-04-11T11:27:17Z</time></trkpt><trkpt lat="43.280053786285265" lon="12.927295314879899"><ele>587.6666666666667</ele><time>2026-04-11T11:27:18Z</time></trkpt><trkpt lat="43.27998893139487" lon="12.927240861537815"><ele>591.5</ele><time>2026-04-11T11:27:19Z</time></trkpt><trkpt lat="43.279914960478976" lon="12.927173324219105"><ele>595.3333333333334</ele><time>2026-04-11T11:27:20Z</time></trkpt><trkpt lat="43.27984171291947" lon="12.927110089945861"><ele>599.1666666666666</ele><time>2026-04-11T11:27:21Z</time></trkpt><trkpt lat="43.279769649991366" lon="12.927030125796435"><ele>603.0</ele><time>2026-04-11T11:27:22Z</time></trkpt><trkpt lat="43.27970130782539" lon="12.92695325434534"><ele>603.1666666666666</ele><time>2026-04-11T11:27:23Z</time></trkpt><trkpt lat="43.27963045932239" lon="12.926883849996582"><ele>603.3333333333334</ele><time>2026-04-11T11:27:24Z</time></trkpt><trkpt lat="43.279559557376494" lon="12.92680763975044"><ele>603.5</ele><time>2026-04-11T11:27:25Z</time></trkpt><trkpt lat="43.27949413167729" lon="12.926728855690767"><ele>603.6666666666667</ele><time>2026-04-11T11:27:26Z</time></trkpt><trkpt lat="43.27942941200233" lon="12.926654571486818"><ele>603.8333333333334</ele><time>2026-04-11T11:27:27Z</time></trkpt><trkpt lat="43.27936890012666" lon="12.926577955900791"><ele>604.0</ele><time>2026-04-11T11:27:28Z</time></trkpt><trkpt lat="43.279313374436775" lon="12.926505815176519"><ele>607.5</ele><time>2026-04-11T11:27:29Z</time></trkpt><trkpt lat="43.279256294851976" lon="12.926431684157608"><ele>611.0</ele><time>2026-04-11T11:27:30Z</time></trkpt><trkpt lat="43.279191029147604" lon="12.926351753611149"><ele>614.5</ele><time>2026-04-11T11:27:31Z</time></trkpt><trkpt lat="43.27913200238407" lon="12.926273512919611"><ele>618.0</ele><time>2026-04-11T11:27:32Z</time></trkpt><trkpt lat="43.27908017377587" lon="12.926202713008179"><ele>621.5</ele><time>2026-04-11T11:27:33Z</time></trkpt><trkpt lat="43.27903208410972" lon="12.92614416956342"><ele>625.0</ele><time>2026-04-11T11:27:34Z</time></trkpt><trkpt lat="43.27898206604083" lon="12.926083165417777"><ele>623.8333333333334</ele><time>2026-04-11T11:27:35Z</time></trkpt><trkpt lat="43.278925467896634" lon="12.926015926154967"><ele>622.6666666666667</ele><time>2026-04-11T11:27:36Z</time></trkpt><trkpt lat="43.27887342462611" lon="12.925947684388543"><ele>621.5</ele><time>2026-04-11T11:27:37Z</time></trkpt><trkpt lat="43.2788201677704" lon="12.925880430927892"><ele>620.3333333333334</ele><time>2026-04-11T11:27:38Z</time></trkpt><trkpt lat="43.27876958024517" lon="12.925801148856769"><ele>619.1666666666666</ele><time>2026-04-11T11:27:39Z</time></trkpt><trkpt lat="43.27871628059567" lon="12.925727177411753"><ele>618.0</ele><time>2026-04-11T11:27:40Z</time></trkpt><trkpt lat="43.27866039217106" lon="12.925636620728813"><ele>621.8</ele><time>2026-04-11T11:27:41Z</time></trkpt><trkpt lat="43.27860784979943" lon="12.925556261842786"><ele>625.5999999999999</ele><time>2026-04-11T11:27:42Z</time></trkpt><trkpt lat="43.27856132508298" lon="12.925493672778805"><ele>629.4000000000001</ele><time>2026-04-11T11:27:43Z</time></trkpt><trkpt lat="43.2784997245504" lon="12.92538457759733"><ele>633.2</ele><time>2026-04-11T11:27:45Z</time></trkpt><trkpt lat="43.27843071539836" lon="12.925261532791337"><ele>637.0</ele><time>2026-04-11T11:27:47Z</time></trkpt><trkpt lat="43.278367639007335" lon="12.925151457714739"><ele>637.6</ele><time>2026-04-11T11:27:49Z</time></trkpt><trkpt lat="43.27830588762119" lon="12.925036685771055"><ele>638.2</ele><time>2026-04-11T11:27:51Z</time></trkpt><trkpt lat="43.27825156006339" lon="12.924936557597098"><ele>638.8</ele><time>2026-04-11T11:27:53Z</time></trkpt><trkpt lat="43.27818872568724" lon="12.924821891647497"><ele>639.4</ele><time>2026-04-11T11:27:55Z</time></trkpt><trkpt lat="43.27812075444619" lon="12.924699690470485"><ele>640.0</ele><time>2026-04-11T11:27:57Z</time></trkpt><trkpt lat="43.278075724687675" lon="12.924581864376746"><ele>640.0</ele><time>2026-04-11T11:27:59Z</time></trkpt><trkpt lat="43.277994233757504" lon="12.9244537730261"><ele>640.0</ele><time>2026-04-11T11:28:01Z</time></trkpt><trkpt lat="43.277914702717005" lon="12.924318702196643"><ele>640.0</ele><time>2026-04-11T11:28:03Z</time></trkpt><trkpt lat="43.27784695878401" lon="12.924193084091128"><ele>640.0</ele><time>2026-04-11T11:28:05Z</time></trkpt><trkpt lat="43.2777895917162" lon="12.924043310382862"><ele>643.2857142857142</ele><time>2026-04-11T11:28:07Z</time></trkpt><trkpt lat="43.2777541245816" lon="12.923963558769534"><ele>646.5714285714286</ele><time>2026-04-11T11:28:08Z</time></trkpt><trkpt lat="43.27769795592187" lon="12.923872944057997"><ele>649.8571428571429</ele><time>2026-04-11T11:28:10Z</time></trkpt><trkpt lat="43.277669371888216" lon="12.923780933816655"><ele>653.1428571428571</ele><time>2026-04-11T11:28:16Z</time></trkpt><trkpt lat="43.277619628388756" lon="12.923702209692875"><ele>656.4285714285714</ele><time>2026-04-11T11:28:20Z</time></trkpt><trkpt lat="43.27757633941681" lon="12.923616605929054"><ele>659.7142857142857</ele><time>2026-04-11T11:28:27Z</time></trkpt><trkpt lat="43.27751631130314" lon="12.923643719343792"><ele>663.0</ele><time>2026-04-11T11:28:29Z</time></trkpt><trkpt lat="43.27743737541077" lon="12.923670268882292"><ele>663.0</ele><time>2026-04-11T11:28:31Z</time></trkpt><trkpt lat="43.27732303014754" lon="12.923683278772966"><ele>663.0</ele><time>2026-04-11T11:28:33Z</time></trkpt><trkpt lat="43.27721588172036" lon="12.923694051664555"><ele>663.0</ele><time>2026-04-11T11:28:35Z</time></trkpt><trkpt lat="43.2770918962773" lon="12.923715175520414"><ele>663.0</ele><time>2026-04-11T11:28:37Z</time></trkpt><trkpt lat="43.276975504549746" lon="12.923743975874366"><ele>660.8333333333334</ele><time>2026-04-11T11:28:39Z</time></trkpt><trkpt lat="43.27688153586291" lon="12.923816595206198"><ele>658.6666666666666</ele><time>2026-04-11T11:28:41Z</time></trkpt><trkpt lat="43.27678580396133" lon="12.923865541421268"><ele>656.5</ele><time>2026-04-11T11:28:43Z</time></trkpt><trkpt lat="43.27672035794134" lon="12.92392494767152"><ele>654.3333333333333</ele><time>2026-04-11T11:28:44Z</time></trkpt><trkpt lat="43.27665123460629" lon="12.923967447961152"><ele>652.1666666666666</ele><time>2026-04-11T11:28:45Z</time></trkpt><trkpt lat="43.27658686357783" lon="12.924003224119652"><ele>650.0</ele><time>2026-04-11T11:28:46Z</time></trkpt><trkpt lat="43.276516424371195" lon="12.924042997800822"><ele>650.0</ele><time>2026-04-11T11:28:47Z</time></trkpt><trkpt lat="43.276447689296056" lon="12.924090349658648"><ele>650.0</ele><time>2026-04-11T11:28:48Z</time></trkpt><trkpt lat="43.27637395012477" lon="12.924121728507782"><ele>650.0</ele><time>2026-04-11T11:28:49Z</time></trkpt><trkpt lat="43.27630710655123" lon="12.924129174482417"><ele>650.0</ele><time>2026-04-11T11:28:50Z</time></trkpt><trkpt lat="43.276243288138424" lon="12.924129085220356"><ele>650.0</ele><time>2026-04-11T11:28:51Z</time></trkpt><trkpt lat="43.27617758591571" lon="12.924141858315455"><ele>650.0</ele><time>2026-04-11T11:28:52Z</time></trkpt><trkpt lat="43.27611347680286" lon="12.92416085049388"><ele>650.0</ele><time>2026-04-11T11:28:53Z</time></trkpt><trkpt lat="43.27605157027435" lon="12.92418519201043"><ele>649.6</ele><time>2026-04-11T11:28:54Z</time></trkpt><trkpt lat="43.27599273080321" lon="12.9242282227291"><ele>649.2</ele><time>2026-04-11T11:28:55Z</time></trkpt><trkpt lat="43.275891078802466" lon="12.924272972637072"><ele>648.8</ele><time>2026-04-11T11:28:57Z</time></trkpt><trkpt lat="43.27577114682399" lon="12.924268150271645"><ele>648.4</ele><time>2026-04-11T11:28:59Z</time></trkpt><trkpt lat="43.27564129818557" lon="12.924291774720798"><ele>648.0</ele><time>2026-04-11T11:29:01Z</time></trkpt><trkpt lat="43.27557017913991" lon="12.924307954337543"><ele>642.3333333333334</ele><time>2026-04-11T11:29:02Z</time></trkpt><trkpt lat="43.27549305451828" lon="12.924301961723298"><ele>636.6666666666666</ele><time>2026-04-11T11:29:03Z</time></trkpt><trkpt lat="43.275411396375375" lon="12.92428488227344"><ele>631.0</ele><time>2026-04-11T11:29:04Z</time></trkpt><trkpt lat="43.27532930863001" lon="12.924268948531925"><ele>625.3333333333333</ele><time>2026-04-11T11:29:05Z</time></trkpt><trkpt lat="43.27524359428949" lon="12.92425983249192"><ele>619.6666666666666</ele><time>2026-04-11T11:29:06Z</time></trkpt><trkpt lat="43.27516926817929" lon="12.924252626672105"><ele>614.0</ele><time>2026-04-11T11:29:07Z</time></trkpt><trkpt lat="43.275092128907716" lon="12.924237570114178"><ele>614.0</ele><time>2026-04-11T11:29:08Z</time></trkpt><trkpt lat="43.27501471488868" lon="12.924219425415556"><ele>614.0</ele><time>2026-04-11T11:29:09Z</time></trkpt><trkpt lat="43.274933851872376" lon="12.924218845850364"><ele>614.0</ele><time>2026-04-11T11:29:10Z</time></trkpt><trkpt lat="43.27484029598546" lon="12.924238036280736"><ele>614.0</ele><time>2026-04-11T11:29:11Z</time></trkpt><trkpt lat="43.27474322573796" lon="12.924254801634723"><ele>614.0</ele><time>2026-04-11T11:29:12Z</time></trkpt><trkpt lat="43.27464827835849" lon="12.924276423342437"><ele>614.0</ele><time>2026-04-11T11:29:13Z</time></trkpt><trkpt lat="43.27456175419309" lon="12.924280603335898"><ele>613.8333333333333</ele><time>2026-04-11T11:29:14Z</time></trkpt><trkpt lat="43.27448305319878" lon="12.924282926854174"><ele>613.6666666666666</ele><time>2026-04-11T11:29:15Z</time></trkpt><trkpt lat="43.27440087490228" lon="12.924286697708407"><ele>613.5</ele><time>2026-04-11T11:29:16Z</time></trkpt><trkpt lat="43.274314530392495" lon="12.92429834366004"><ele>613.3333333333334</ele><time>2026-04-11T11:29:17Z</time></trkpt><trkpt lat="43.27422238750542" lon="12.924313009482582"><ele>613.1666666666667</ele><time>2026-04-11T11:29:18Z</time></trkpt><trkpt lat="43.274126891982654" lon="12.924329519420455"><ele>613.0</ele><time>2026-04-11T11:29:19Z</time></trkpt><trkpt lat="43.27403784044765" lon="12.92434486760865"><ele>613.0</ele><time>2026-04-11T11:29:20Z</time></trkpt><trkpt lat="43.27395843870261" lon="12.924355209206043"><ele>613.0</ele><time>2026-04-11T11:29:21Z</time></trkpt><trkpt lat="43.273883334645596" lon="12.92436530798034"><ele>613.0</ele><time>2026-04-11T11:29:22Z</time></trkpt><trkpt lat="43.27380220323006" lon="12.924385535827277"><ele>613.0</ele><time>2026-04-11T11:29:23Z</time></trkpt><trkpt lat="43.27371721419829" lon="12.924411591376082"><ele>613.0</ele><time>2026-04-11T11:29:24Z</time></trkpt><trkpt lat="43.27362801479548" lon="12.924431649280773"><ele>613.0</ele><time>2026-04-11T11:29:25Z</time></trkpt><trkpt lat="43.27353808536524" lon="12.92445695035506"><ele>614.5</ele><time>2026-04-11T11:29:26Z</time></trkpt><trkpt lat="43.27345518426189" lon="12.924500571700651"><ele>616.0</ele><time>2026-04-11T11:29:27Z</time></trkpt><trkpt lat="43.27337717505355" lon="12.924541885634758"><ele>617.5</ele><time>2026-04-11T11:29:28Z</time></trkpt><trkpt lat="43.27330735657129" lon="12.924573146000322"><ele>619.0</ele><time>2026-04-11T11:29:29Z</time></trkpt><trkpt lat="43.27324593628898" lon="12.924607124506089"><ele>620.5</ele><time>2026-04-11T11:29:30Z</time></trkpt><trkpt lat="43.27316923743347" lon="12.924629659829762"><ele>622.0</ele><time>2026-04-11T11:29:31Z</time></trkpt><trkpt lat="43.27310461455691" lon="12.924662382422449"><ele>627.4000000000001</ele><time>2026-04-11T11:29:32Z</time></trkpt><trkpt lat="43.27304321674473" lon="12.924682318975417"><ele>632.8000000000001</ele><time>2026-04-11T11:29:33Z</time></trkpt><trkpt lat="43.27293535164727" lon="12.924699411982399"><ele>638.2</ele><time>2026-04-11T11:29:35Z</time></trkpt><trkpt lat="43.27285229801005" lon="12.92474287792762"><ele>643.6</ele><time>2026-04-11T11:29:37Z</time></trkpt><trkpt lat="43.2727739121562" lon="12.924890423770835"><ele>649.0</ele><time>2026-04-11T11:29:39Z</time></trkpt><trkpt lat="43.27273331245474" lon="12.9249978685398"><ele>642.8000000000001</ele><time>2026-04-11T11:29:40Z</time></trkpt><trkpt lat="43.27269099294813" lon="12.925116876631197"><ele>636.6</ele><time>2026-04-11T11:29:41Z</time></trkpt><trkpt lat="43.272639488498804" lon="12.925215439935966"><ele>630.4</ele><time>2026-04-11T11:29:42Z</time></trkpt><trkpt lat="43.27259679149351" lon="12.925318944607222"><ele>624.2</ele><time>2026-04-11T11:29:43Z</time></trkpt><trkpt lat="43.27255346994673" lon="12.92544156984988"><ele>618.0</ele><time>2026-04-11T11:29:44Z</time></trkpt><trkpt lat="43.272513611249295" lon="12.925555918869716"><ele>618.0</ele><time>2026-04-11T11:29:45Z</time></trkpt><trkpt lat="43.27247610826079" lon="12.925671829241823"><ele>618.0</ele><time>2026-04-11T11:29:46Z</time></trkpt><trkpt lat="43.27244094128572" lon="12.92577105450316"><ele>618.0</ele><time>2026-04-11T11:29:47Z</time></trkpt><trkpt lat="43.272406788704835" lon="12.92586834754958"><ele>618.0</ele><time>2026-04-11T11:29:48Z</time></trkpt><trkpt lat="43.27236864575896" lon="12.925959165997343"><ele>618.0</ele><time>2026-04-11T11:29:49Z</time></trkpt><trkpt lat="43.27231593627654" lon="12.926096511906971"><ele>618.0</ele><time>2026-04-11T11:29:51Z</time></trkpt><trkpt lat="43.2722930085129" lon="12.926189266721169"><ele>620.5</ele><time>2026-04-11T11:29:52Z</time></trkpt><trkpt lat="43.27225992302171" lon="12.92629162567473"><ele>623.0</ele><time>2026-04-11T11:29:53Z</time></trkpt><trkpt lat="43.272215962654016" lon="12.92638603920813"><ele>625.5</ele><time>2026-04-11T11:29:54Z</time></trkpt><trkpt lat="43.27215870504879" lon="12.926473594516352"><ele>628.0</ele><time>2026-04-11T11:29:55Z</time></trkpt><trkpt lat="43.27209009763858" lon="12.926534452431504"><ele>630.5</ele><time>2026-04-11T11:29:56Z</time></trkpt><trkpt lat="43.272008970887995" lon="12.926600301041226"><ele>633.0</ele><time>2026-04-11T11:29:57Z</time></trkpt><trkpt lat="43.27192676837129" lon="12.926665521466207"><ele>629.0</ele><time>2026-04-11T11:29:58Z</time></trkpt><trkpt lat="43.271841937870136" lon="12.926745705118226"><ele>625.0</ele><time>2026-04-11T11:29:59Z</time></trkpt><trkpt lat="43.271759745992206" lon="12.926822458672426"><ele>621.0</ele><time>2026-04-11T11:30:00Z</time></trkpt><trkpt lat="43.27167827722526" lon="12.926887703253625"><ele>617.0</ele><time>2026-04-11T11:30:01Z</time></trkpt><trkpt lat="43.271584716657024" lon="12.92693503563447"><ele>613.0</ele><time>2026-04-11T11:30:02Z</time></trkpt><trkpt lat="43.27148812012115" lon="12.926972526676458"><ele>616.4</ele><time>2026-04-11T11:30:03Z</time></trkpt><trkpt lat="43.27138408931891" lon="12.927002229449826"><ele>619.8</ele><time>2026-04-11T11:30:04Z</time></trkpt><trkpt lat="43.27128465366168" lon="12.927029945646616"><ele>623.2</ele><time>2026-04-11T11:30:05Z</time></trkpt><trkpt lat="43.27119174265522" lon="12.92705119972049"><ele>626.6</ele><time>2026-04-11T11:30:06Z</time></trkpt><trkpt lat="43.271109152469705" lon="12.927065293129958"><ele>630.0</ele><time>2026-04-11T11:30:07Z</time></trkpt><trkpt lat="43.27102829024927" lon="12.927064943007279"><ele>630.0</ele><time>2026-04-11T11:30:08Z</time></trkpt><trkpt lat="43.27093883127762" lon="12.92706190049344"><ele>630.0</ele><time>2026-04-11T11:30:09Z</time></trkpt><trkpt lat="43.27084205701671" lon="12.927054854620659"><ele>630.0</ele><time>2026-04-11T11:30:10Z</time></trkpt><trkpt lat="43.270754033020665" lon="12.927042919145089"><ele>630.0</ele><time>2026-04-11T11:30:11Z</time></trkpt><trkpt lat="43.270668928763016" lon="12.927037549462877"><ele>630.0</ele><time>2026-04-11T11:30:12Z</time></trkpt><trkpt lat="43.270574717013616" lon="12.927021539017076"><ele>629.2</ele><time>2026-04-11T11:30:13Z</time></trkpt><trkpt lat="43.27047402151604" lon="12.9270045668621"><ele>628.4</ele><time>2026-04-11T11:30:14Z</time></trkpt><trkpt lat="43.270363141769636" lon="12.926992832105489"><ele>627.6</ele><time>2026-04-11T11:30:15Z</time></trkpt><trkpt lat="43.27026271722574" lon="12.926977747189976"><ele>626.8</ele><time>2026-04-11T11:30:16Z</time></trkpt><trkpt lat="43.270166066352196" lon="12.9269679970972"><ele>626.0</ele><time>2026-04-11T11:30:17Z</time></trkpt><trkpt lat="43.27006972827535" lon="12.926956738567792"><ele>626.0</ele><time>2026-04-11T11:30:18Z</time></trkpt><trkpt lat="43.26998374799958" lon="12.92694997159863"><ele>626.0</ele><time>2026-04-11T11:30:19Z</time></trkpt><trkpt lat="43.269893764100395" lon="12.926946610210308"><ele>626.0</ele><time>2026-04-11T11:30:20Z</time></trkpt><trkpt lat="43.26981633981122" lon="12.92694765076447"><ele>626.0</ele><time>2026-04-11T11:30:21Z</time></trkpt><trkpt lat="43.26975133280387" lon="12.926959831326949"><ele>626.0</ele><time>2026-04-11T11:30:22Z</time></trkpt><trkpt lat="43.26967778858136" lon="12.926977988861216"><ele>626.0</ele><time>2026-04-11T11:30:24Z</time></trkpt><trkpt lat="43.26963458845255" lon="12.92704148724862"><ele>622.0</ele><time>2026-04-11T11:30:32.001Z</time></trkpt><trkpt lat="43.26970610667975" lon="12.927162723224443"><ele>618.0</ele><time>2026-04-11T11:31:19Z</time></trkpt><trkpt lat="43.269677516473386" lon="12.927243678268695"><ele>614.0</ele><time>2026-04-11T11:31:32Z</time></trkpt><trkpt lat="43.26960923995952" lon="12.92725601185915"><ele>610.0</ele><time>2026-04-11T11:31:36Z</time></trkpt><trkpt lat="43.269531324128494" lon="12.927263183711895"><ele>606.0</ele><time>2026-04-11T11:31:39Z</time></trkpt><trkpt lat="43.269479764857124" lon="12.927315423775244"><ele>602.0</ele><time>2026-04-11T11:31:42Z</time></trkpt><trkpt lat="43.26944015363938" lon="12.927441786886535"><ele>602.0</ele><time>2026-04-11T11:31:44Z</time></trkpt><trkpt lat="43.269401102260915" lon="12.927534884799051"><ele>602.0</ele><time>2026-04-11T11:31:46Z</time></trkpt><trkpt lat="43.26933866675255" lon="12.927676049290502"><ele>602.0</ele><time>2026-04-11T11:31:48Z</time></trkpt><trkpt lat="43.26925778238412" lon="12.92779722202125"><ele>602.0</ele><time>2026-04-11T11:31:50Z</time></trkpt><trkpt lat="43.269177263612626" lon="12.927915350483973"><ele>602.0</ele><time>2026-04-11T11:31:52Z</time></trkpt><trkpt lat="43.26913747681155" lon="12.927987990384363"><ele>602.0</ele><time>2026-04-11T11:31:53Z</time></trkpt><trkpt lat="43.269086889078096" lon="12.92810672292114"><ele>602.0</ele><time>2026-04-11T11:31:55Z</time></trkpt><trkpt lat="43.26903342140959" lon="12.928236851766624"><ele>602.0</ele><time>2026-04-11T11:31:57Z</time></trkpt><trkpt lat="43.26898371381256" lon="12.928357948199206"><ele>602.0</ele><time>2026-04-11T11:31:59Z</time></trkpt><trkpt lat="43.26896883227913" lon="12.92850182363214"><ele>602.0</ele><time>2026-04-11T11:32:00.999Z</time></trkpt><trkpt lat="43.268939521621334" lon="12.928670495258393"><ele>595.1666666666666</ele><time>2026-04-11T11:32:02.999Z</time></trkpt><trkpt lat="43.268875698859375" lon="12.92882298794382"><ele>588.3333333333333</ele><time>2026-04-11T11:32:04.999Z</time></trkpt><trkpt lat="43.26884464489788" lon="12.928902552988067"><ele>581.5</ele><time>2026-04-11T11:32:05.999Z</time></trkpt><trkpt lat="43.26881554377398" lon="12.928987242639273"><ele>574.6666666666666</ele><time>2026-04-11T11:32:06.999Z</time></trkpt><trkpt lat="43.26878683848905" lon="12.929078795603191"><ele>567.8333333333334</ele><time>2026-04-11T11:32:07.999Z</time></trkpt><trkpt lat="43.268760963504185" lon="12.929170798177852"><ele>561.0</ele><time>2026-04-11T11:32:08.999Z</time></trkpt><trkpt lat="43.26874105142321" lon="12.929264353991314"><ele>559.4</ele><time>2026-04-11T11:32:09.999Z</time></trkpt><trkpt lat="43.26871628031742" lon="12.929427653917827"><ele>557.8</ele><time>2026-04-11T11:32:11.999Z</time></trkpt><trkpt lat="43.26868646840316" lon="12.929565587580926"><ele>556.1999999999999</ele><time>2026-04-11T11:32:13.999Z</time></trkpt><trkpt lat="43.268652634759526" lon="12.929680332305574"><ele>554.6</ele><time>2026-04-11T11:32:15.999Z</time></trkpt><trkpt lat="43.26863402495356" lon="12.929771485740105"><ele>553.0</ele><time>2026-04-11T11:32:16.999Z</time></trkpt><trkpt lat="43.26861890356629" lon="12.929865641825115"><ele>553.0</ele><time>2026-04-11T11:32:17.999Z</time></trkpt><trkpt lat="43.26860162381337" lon="12.9299580327427"><ele>553.0</ele><time>2026-04-11T11:32:18.999Z</time></trkpt><trkpt lat="43.26858057664519" lon="12.93004994993469"><ele>553.0</ele><time>2026-04-11T11:32:19.999Z</time></trkpt><trkpt lat="43.26855794652149" lon="12.930136392799161"><ele>553.0</ele><time>2026-04-11T11:32:20.999Z</time></trkpt><trkpt lat="43.26853776423675" lon="12.930226427680605"><ele>553.0</ele><time>2026-04-11T11:32:21.999Z</time></trkpt><trkpt lat="43.268522707724536" lon="12.930320883018519"><ele>553.0</ele><time>2026-04-11T11:32:22.999Z</time></trkpt><trkpt lat="43.26851247410107" lon="12.930415586294432"><ele>553.0</ele><time>2026-04-11T11:32:23.999Z</time></trkpt><trkpt lat="43.26850249745317" lon="12.930501768915375"><ele>551.6</ele><time>2026-04-11T11:32:24.999Z</time></trkpt><trkpt lat="43.26847061880304" lon="12.93066399696425"><ele>550.1999999999999</ele><time>2026-04-11T11:32:26.999Z</time></trkpt><trkpt lat="43.26845518149518" lon="12.930757132878878"><ele>548.8</ele><time>2026-04-11T11:32:27.999Z</time></trkpt><trkpt lat="43.26842911391931" lon="12.930928750379122"><ele>547.4</ele><time>2026-04-11T11:32:29.999Z</time></trkpt><trkpt lat="43.268416927571046" lon="12.931027596811983"><ele>546.0</ele><time>2026-04-11T11:32:30.999Z</time></trkpt><trkpt lat="43.268416720021854" lon="12.931122634002602"><ele>545.1428571428571</ele><time>2026-04-11T11:32:31.999Z</time></trkpt><trkpt lat="43.268407986704375" lon="12.93122213313105"><ele>544.2857142857142</ele><time>2026-04-11T11:32:32.999Z</time></trkpt><trkpt lat="43.268390513679655" lon="12.931321948462337"><ele>543.4285714285714</ele><time>2026-04-11T11:32:33.999Z</time></trkpt><trkpt lat="43.26836738485887" lon="12.931414531867759"><ele>542.5714285714286</ele><time>2026-04-11T11:32:34.999Z</time></trkpt><trkpt lat="43.26834457943702" lon="12.931503715787969"><ele>541.7142857142857</ele><time>2026-04-11T11:32:35.999Z</time></trkpt><trkpt lat="43.268318329442174" lon="12.931587517411014"><ele>540.8571428571429</ele><time>2026-04-11T11:32:36.999Z</time></trkpt><trkpt lat="43.268284256151006" lon="12.931666867934464"><ele>540.0</ele><time>2026-04-11T11:32:37.999Z</time></trkpt><trkpt lat="43.268244911732914" lon="12.931759699645681"><ele>538.8333333333334</ele><time>2026-04-11T11:32:38.999Z</time></trkpt><trkpt lat="43.268205057716" lon="12.93185305070714"><ele>537.6666666666666</ele><time>2026-04-11T11:32:39.999Z</time></trkpt><trkpt lat="43.26816664841806" lon="12.931941859694275"><ele>536.5</ele><time>2026-04-11T11:32:40.999Z</time></trkpt><trkpt lat="43.268130011631285" lon="12.93202183139136"><ele>535.3333333333333</ele><time>2026-04-11T11:32:41.999Z</time></trkpt><trkpt lat="43.268058516157666" lon="12.932154932816333"><ele>534.1666666666666</ele><time>2026-04-11T11:32:43.999Z</time></trkpt><trkpt lat="43.26801977365382" lon="12.93223418549089"><ele>533.0</ele><time>2026-04-11T11:32:44.999Z</time></trkpt><trkpt lat="43.26795113652183" lon="12.932366993876178"><ele>526.75</ele><time>2026-04-11T11:32:46.999Z</time></trkpt><trkpt lat="43.26788080203197" lon="12.932484348857335"><ele>520.5</ele><time>2026-04-11T11:32:48.999Z</time></trkpt><trkpt lat="43.26771943597103" lon="12.932509103236761"><ele>514.25</ele><time>2026-04-11T11:32:49.999Z</time></trkpt><trkpt lat="43.26769853353967" lon="12.932605930969103"><ele>508.0</ele><time>2026-04-11T11:32:50.999Z</time></trkpt><trkpt lat="43.26766433449928" lon="12.93276906894207"><ele>508.0</ele><time>2026-04-11T11:32:52.999Z</time></trkpt><trkpt lat="43.267617652393824" lon="12.93290862785699"><ele>507.99999999999994</ele><time>2026-04-11T11:32:54.999Z</time></trkpt><trkpt lat="43.26757754090707" lon="12.932986507154872"><ele>507.99999999999994</ele><time>2026-04-11T11:32:55.999Z</time></trkpt><trkpt lat="43.26749257210669" lon="12.93309599146682"><ele>508.0</ele><time>2026-04-11T11:32:57.999Z</time></trkpt><trkpt lat="43.267433099111386" lon="12.9331522919646"><ele>508.0</ele><time>2026-04-11T11:32:58.999Z</time></trkpt><trkpt lat="43.267368922564565" lon="12.93321695501579"><ele>508.00000000000006</ele><time>2026-04-11T11:32:59.999Z</time></trkpt><trkpt lat="43.26730973915217" lon="12.933295113341044"><ele>508.0</ele><time>2026-04-11T11:33:00.999Z</time></trkpt><trkpt lat="43.267264613154715" lon="12.93338470839875"><ele>508.0</ele><time>2026-04-11T11:33:01.999Z</time></trkpt><trkpt lat="43.26721897621578" lon="12.933445997686947"><ele>508.0</ele><time>2026-04-11T11:33:02.999Z</time></trkpt><trkpt lat="43.267153845479335" lon="12.933504713657221"><ele>508.00000000000006</ele><time>2026-04-11T11:33:03.999Z</time></trkpt><trkpt lat="43.26709096644656" lon="12.933573881265433"><ele>508.0</ele><time>2026-04-11T11:33:04.999Z</time></trkpt><trkpt lat="43.26703124545287" lon="12.933650639137525"><ele>506.50000000000006</ele><time>2026-04-11T11:33:05.999Z</time></trkpt><trkpt lat="43.266973372126124" lon="12.93372849067693"><ele>505.0</ele><time>2026-04-11T11:33:06.999Z</time></trkpt><trkpt lat="43.26691826501053" lon="12.933805371050857"><ele>503.5</ele><time>2026-04-11T11:33:07.999Z</time></trkpt><trkpt lat="43.266865042399075" lon="12.933879622337148"><ele>502.0</ele><time>2026-04-11T11:33:08.999Z</time></trkpt><trkpt lat="43.2668240377372" lon="12.933968640587361"><ele>500.50000000000006</ele><time>2026-04-11T11:33:09.999Z</time></trkpt><trkpt lat="43.26676793240381" lon="12.934040046386663"><ele>499.0</ele><time>2026-04-11T11:33:10.999Z</time></trkpt><trkpt lat="43.26672013828684" lon="12.934121974534142"><ele>499.00000000000006</ele><time>2026-04-11T11:33:11.999Z</time></trkpt><trkpt lat="43.26665839979874" lon="12.934193444345373"><ele>499.0</ele><time>2026-04-11T11:33:12.999Z</time></trkpt><trkpt lat="43.266607811881826" lon="12.934286435937466"><ele>499.0</ele><time>2026-04-11T11:33:13.999Z</time></trkpt><trkpt lat="43.2665614830005" lon="12.934373499593626"><ele>499.0</ele><time>2026-04-11T11:33:14.999Z</time></trkpt><trkpt lat="43.266529687456575" lon="12.934472709082435"><ele>499.00000000000006</ele><time>2026-04-11T11:33:15.999Z</time></trkpt><trkpt lat="43.26648276853115" lon="12.934557753870036"><ele>499.0</ele><time>2026-04-11T11:33:16.999Z</time></trkpt><trkpt lat="43.26643805528763" lon="12.93464681983285"><ele>497.83333333333337</ele><time>2026-04-11T11:33:17.999Z</time></trkpt><trkpt lat="43.266392947068496" lon="12.934736451868106"><ele>496.6666666666667</ele><time>2026-04-11T11:33:18.999Z</time></trkpt><trkpt lat="43.2663383238066" lon="12.93480658570575"><ele>495.5</ele><time>2026-04-11T11:33:19.999Z</time></trkpt><trkpt lat="43.26629625751585" lon="12.934889786233974"><ele>494.33333333333337</ele><time>2026-04-11T11:33:20.999Z</time></trkpt><trkpt lat="43.26624737986185" lon="12.934986478972432"><ele>493.1666666666667</ele><time>2026-04-11T11:33:21.999Z</time></trkpt><trkpt lat="43.266205137598874" lon="12.93510564501802"><ele>492.0</ele><time>2026-04-11T11:33:22.999Z</time></trkpt><trkpt lat="43.26614736814878" lon="12.935223644955734"><ele>492.0</ele><time>2026-04-11T11:33:23.999Z</time></trkpt><trkpt lat="43.266074998059324" lon="12.935342179978704"><ele>492.0</ele><time>2026-04-11T11:33:24.999Z</time></trkpt><trkpt lat="43.26601305208864" lon="12.935476144275391"><ele>492.0</ele><time>2026-04-11T11:33:25.999Z</time></trkpt><trkpt lat="43.265953693001286" lon="12.93561095357687"><ele>492.0</ele><time>2026-04-11T11:33:26.999Z</time></trkpt><trkpt lat="43.26589826569163" lon="12.935748439248634"><ele>494.40000000000003</ele><time>2026-04-11T11:33:27.999Z</time></trkpt><trkpt lat="43.26584671575314" lon="12.935888161372857"><ele>496.80000000000007</ele><time>2026-04-11T11:33:28.999Z</time></trkpt><trkpt lat="43.26579615315829" lon="12.936024766524302"><ele>499.2</ele><time>2026-04-11T11:33:29.999Z</time></trkpt><trkpt lat="43.26574174940595" lon="12.936150618222936"><ele>501.6</ele><time>2026-04-11T11:33:30.999Z</time></trkpt><trkpt lat="43.26569136198803" lon="12.936261264332229"><ele>504.0</ele><time>2026-04-11T11:33:31.999Z</time></trkpt><trkpt lat="43.26563566581866" lon="12.93637071732323"><ele>498.79999999999995</ele><time>2026-04-11T11:33:32.999Z</time></trkpt><trkpt lat="43.26554909546927" lon="12.936451479176458"><ele>493.59999999999997</ele><time>2026-04-11T11:33:33.999Z</time></trkpt><trkpt lat="43.265444039583585" lon="12.936480612283422"><ele>488.4</ele><time>2026-04-11T11:33:34.999Z</time></trkpt><trkpt lat="43.26532960491814" lon="12.936490969675287"><ele>483.2</ele><time>2026-04-11T11:33:35.999Z</time></trkpt><trkpt lat="43.2652080456128" lon="12.936468381203754"><ele>478.0</ele><time>2026-04-11T11:33:36.999Z</time></trkpt><trkpt lat="43.26508692354873" lon="12.93645959428414"><ele>478.0</ele><time>2026-04-11T11:33:37.999Z</time></trkpt><trkpt lat="43.264963615632645" lon="12.936466684220273"><ele>478.0</ele><time>2026-04-11T11:33:38.999Z</time></trkpt><trkpt lat="43.26483029787638" lon="12.93649679284589"><ele>478.0</ele><time>2026-04-11T11:33:39.999Z</time></trkpt><trkpt lat="43.264706387514444" lon="12.936571564954486"><ele>478.0</ele><time>2026-04-11T11:33:40.999Z</time></trkpt><trkpt lat="43.26459637150209" lon="12.93667934211476"><ele>476.75</ele><time>2026-04-11T11:33:41.999Z</time></trkpt><trkpt lat="43.26450671852245" lon="12.936800504579658"><ele>475.5</ele><time>2026-04-11T11:33:42.999Z</time></trkpt><trkpt lat="43.264424641760975" lon="12.936915879214107"><ele>474.25</ele><time>2026-04-11T11:33:43.999Z</time></trkpt><trkpt lat="43.264341408673936" lon="12.937032879626818"><ele>473.0</ele><time>2026-04-11T11:33:44.999Z</time></trkpt><trkpt lat="43.26426646627843" lon="12.937138975585196"><ele>473.0</ele><time>2026-04-11T11:33:45.999Z</time></trkpt><trkpt lat="43.264190907073775" lon="12.9372463602697"><ele>472.99999999999994</ele><time>2026-04-11T11:33:46.999Z</time></trkpt><trkpt lat="43.26411483332128" lon="12.937354476180214"><ele>472.99999999999994</ele><time>2026-04-11T11:33:47.999Z</time></trkpt><trkpt lat="43.26404095514937" lon="12.937459472058888"><ele>473.0</ele><time>2026-04-11T11:33:48.999Z</time></trkpt><trkpt lat="43.2639699197757" lon="12.937559002412877"><ele>473.0</ele><time>2026-04-11T11:33:49.999Z</time></trkpt><trkpt lat="43.263911046718576" lon="12.937670943759342"><ele>470.75</ele><time>2026-04-11T11:33:50.999Z</time></trkpt><trkpt lat="43.263833022722096" lon="12.937777399381464"><ele>468.5</ele><time>2026-04-11T11:33:51.999Z</time></trkpt><trkpt lat="43.26374617232075" lon="12.937898623264285"><ele>466.25</ele><time>2026-04-11T11:33:52.999Z</time></trkpt><trkpt lat="43.26364753847966" lon="12.93800485583738"><ele>464.0</ele><time>2026-04-11T11:33:53.999Z</time></trkpt><trkpt lat="43.26355665919027" lon="12.93813120952316"><ele>464.0</ele><time>2026-04-11T11:33:54.999Z</time></trkpt><trkpt lat="43.26346152433923" lon="12.93826443491532"><ele>464.0</ele><time>2026-04-11T11:33:55.999Z</time></trkpt><trkpt lat="43.263362164700105" lon="12.93840357559534"><ele>464.0</ele><time>2026-04-11T11:33:56.999Z</time></trkpt><trkpt lat="43.26326830183967" lon="12.938548029768633"><ele>464.0</ele><time>2026-04-11T11:33:57.999Z</time></trkpt><trkpt lat="43.263159452272845" lon="12.93868087830972"><ele>465.0</ele><time>2026-04-11T11:33:58.999Z</time></trkpt><trkpt lat="43.26304470101182" lon="12.938826996207254"><ele>466.0</ele><time>2026-04-11T11:33:59.999Z</time></trkpt><trkpt lat="43.26292850909343" lon="12.938975636288788"><ele>467.0</ele><time>2026-04-11T11:34:00.999Z</time></trkpt><trkpt lat="43.26280768508465" lon="12.9391411511899"><ele>465.0</ele><time>2026-04-11T11:34:01.999Z</time></trkpt><trkpt lat="43.262684861955975" lon="12.939309328396039"><ele>463.0</ele><time>2026-04-11T11:34:02.999Z</time></trkpt><trkpt lat="43.262567663467095" lon="12.939479549065455"><ele>461.0</ele><time>2026-04-11T11:34:03.999Z</time></trkpt><trkpt lat="43.26247006049055" lon="12.939641825460761"><ele>461.0</ele><time>2026-04-11T11:34:04.999Z</time></trkpt><trkpt lat="43.262375929884335" lon="12.939823651922783"><ele>461.0</ele><time>2026-04-11T11:34:05.999Z</time></trkpt><trkpt lat="43.262292637466714" lon="12.940007452563087"><ele>461.0</ele><time>2026-04-11T11:34:06.999Z</time></trkpt><trkpt lat="43.26220024057664" lon="12.940184889129767"><ele>463.0</ele><time>2026-04-11T11:34:07.999Z</time></trkpt><trkpt lat="43.2621211007086" lon="12.94034717270625"><ele>465.0</ele><time>2026-04-11T11:34:08.999Z</time></trkpt><trkpt lat="43.26205783409652" lon="12.940503083116742"><ele>467.0</ele><time>2026-04-11T11:34:09.999Z</time></trkpt><trkpt lat="43.2620255227431" lon="12.940687979395936"><ele>469.0</ele><time>2026-04-11T11:34:10.999Z</time></trkpt><trkpt lat="43.26195484356225" lon="12.94085064029918"><ele>467.25</ele><time>2026-04-11T11:34:11.999Z</time></trkpt><trkpt lat="43.26188882358339" lon="12.94099829186541"><ele>465.5</ele><time>2026-04-11T11:34:12.999Z</time></trkpt><trkpt lat="43.26182396040398" lon="12.941132148318003"><ele>463.75</ele><time>2026-04-11T11:34:13.999Z</time></trkpt><trkpt lat="43.26175489056471" lon="12.94127856576473"><ele>462.0</ele><time>2026-04-11T11:34:14.999Z</time></trkpt><trkpt lat="43.26166689746069" lon="12.94143512860338"><ele>462.0</ele><time>2026-04-11T11:34:15.999Z</time></trkpt><trkpt lat="43.26159641033909" lon="12.94160294909851"><ele>462.0</ele><time>2026-04-11T11:34:16.999Z</time></trkpt><trkpt lat="43.26151500255654" lon="12.94174912642369"><ele>462.0</ele><time>2026-04-11T11:34:17.999Z</time></trkpt><trkpt lat="43.261421415565756" lon="12.941908657570725"><ele>462.0</ele><time>2026-04-11T11:34:18.999Z</time></trkpt><trkpt lat="43.261312567871634" lon="12.942073024907355"><ele>461.0</ele><time>2026-04-11T11:34:19.999Z</time></trkpt><trkpt lat="43.26119456897727" lon="12.942247942151514"><ele>460.0</ele><time>2026-04-11T11:34:20.999Z</time></trkpt><trkpt lat="43.26106755804745" lon="12.942440537193328"><ele>459.0</ele><time>2026-04-11T11:34:21.999Z</time></trkpt><trkpt lat="43.26096100488642" lon="12.94262553300294"><ele>459.0</ele><time>2026-04-11T11:34:22.999Z</time></trkpt><trkpt lat="43.26085031896796" lon="12.942814602256123"><ele>459.0</ele><time>2026-04-11T11:34:23.999Z</time></trkpt><trkpt lat="43.260731453910125" lon="12.942983212636678"><ele>459.0</ele><time>2026-04-11T11:34:24.999Z</time></trkpt><trkpt lat="43.26063138792226" lon="12.943154687888438"><ele>460.0</ele><time>2026-04-11T11:34:25.999Z</time></trkpt><trkpt lat="43.260523766344605" lon="12.94332858598967"><ele>461.0</ele><time>2026-04-11T11:34:26.999Z</time></trkpt><trkpt lat="43.26041969759096" lon="12.943478333099707"><ele>462.0</ele><time>2026-04-11T11:34:27.999Z</time></trkpt><trkpt lat="43.2603267125165" lon="12.943608212939086"><ele>462.0</ele><time>2026-04-11T11:34:28.999Z</time></trkpt><trkpt lat="43.26025315601095" lon="12.943726369584438"><ele>462.0</ele><time>2026-04-11T11:34:29.999Z</time></trkpt><trkpt lat="43.26017385537053" lon="12.943843890756025"><ele>462.0</ele><time>2026-04-11T11:34:30.999Z</time></trkpt><trkpt lat="43.26009243561058" lon="12.943962048342895"><ele>462.0</ele><time>2026-04-11T11:34:31.999Z</time></trkpt><trkpt lat="43.26001811692347" lon="12.944058353912501"><ele>462.0</ele><time>2026-04-11T11:34:32.999Z</time></trkpt><trkpt lat="43.25993430561821" lon="12.94415456703812"><ele>462.00000000000006</ele><time>2026-04-11T11:34:33.999Z</time></trkpt><trkpt lat="43.25986102559914" lon="12.944252988934219"><ele>462.00000000000006</ele><time>2026-04-11T11:34:34.999Z</time></trkpt><trkpt lat="43.25979097697713" lon="12.944344265368978"><ele>462.0</ele><time>2026-04-11T11:34:35.999Z</time></trkpt><trkpt lat="43.259731178465" lon="12.94442218517401"><ele>462.0</ele><time>2026-04-11T11:34:36.999Z</time></trkpt><trkpt lat="43.25967892887689" lon="12.944490269247396"><ele>461.5</ele><time>2026-04-11T11:34:37.999Z</time></trkpt><trkpt lat="43.25961909288558" lon="12.944568238038812"><ele>461.0</ele><time>2026-04-11T11:34:38.999Z</time></trkpt><trkpt lat="43.259555466790054" lon="12.944651578954453"><ele>460.5</ele><time>2026-04-11T11:34:39.999Z</time></trkpt><trkpt lat="43.259500029972656" lon="12.944725853900907"><ele>460.0</ele><time>2026-04-11T11:34:40.999Z</time></trkpt><trkpt lat="43.25944819910748" lon="12.94479529787676"><ele>459.5</ele><time>2026-04-11T11:34:41.999Z</time></trkpt><trkpt lat="43.25939543987331" lon="12.944865985184798"><ele>459.0</ele><time>2026-04-11T11:34:42.999Z</time></trkpt><trkpt lat="43.25934864839667" lon="12.944947073494605"><ele>459.0</ele><time>2026-04-11T11:34:43.999Z</time></trkpt><trkpt lat="43.25928602612676" lon="12.945022796924865"><ele>459.0</ele><time>2026-04-11T11:34:44.999Z</time></trkpt><trkpt lat="43.259217230826245" lon="12.945102927432806"><ele>459.0</ele><time>2026-04-11T11:34:45.999Z</time></trkpt><trkpt lat="43.25913525279549" lon="12.945185458621257"><ele>459.0</ele><time>2026-04-11T11:34:46.999Z</time></trkpt><trkpt lat="43.259061201132624" lon="12.945285823970604"><ele>459.0</ele><time>2026-04-11T11:34:47.999Z</time></trkpt><trkpt lat="43.258962993668135" lon="12.945362679195492"><ele>458.0</ele><time>2026-04-11T11:34:48.999Z</time></trkpt><trkpt lat="43.258869882839484" lon="12.945460356401426"><ele>457.0</ele><time>2026-04-11T11:34:49.999Z</time></trkpt><trkpt lat="43.25875904743069" lon="12.94557345980488"><ele>456.0</ele><time>2026-04-11T11:34:50.999Z</time></trkpt><trkpt lat="43.25863103493993" lon="12.945699827246553"><ele>455.0</ele><time>2026-04-11T11:34:51.999Z</time></trkpt><trkpt lat="43.25850001873609" lon="12.94582792816857"><ele>454.66666666666663</ele><time>2026-04-11T11:34:52.999Z</time></trkpt><trkpt lat="43.2583683005901" lon="12.945952385588383"><ele>454.33333333333337</ele><time>2026-04-11T11:34:53.999Z</time></trkpt><trkpt lat="43.258232157834804" lon="12.946075680501428"><ele>454.0</ele><time>2026-04-11T11:34:54.999Z</time></trkpt><trkpt lat="43.25808291284312" lon="12.946204699925268"><ele>454.0</ele><time>2026-04-11T11:34:55.999Z</time></trkpt><trkpt lat="43.257915680934914" lon="12.946341090696464"><ele>454.0</ele><time>2026-04-11T11:34:56.999Z</time></trkpt><trkpt lat="43.257745237867894" lon="12.946474454368186"><ele>454.0</ele><time>2026-04-11T11:34:57.999Z</time></trkpt><trkpt lat="43.25758991148431" lon="12.946595186965071"><ele>452.0</ele><time>2026-04-11T11:34:58.999Z</time></trkpt><trkpt lat="43.25743841769302" lon="12.946711878263121"><ele>450.0</ele><time>2026-04-11T11:34:59.999Z</time></trkpt><trkpt lat="43.25729991707489" lon="12.946821852244366"><ele>448.0</ele><time>2026-04-11T11:35:00.999Z</time></trkpt><trkpt lat="43.25716168744314" lon="12.946934250943952"><ele>448.0</ele><time>2026-04-11T11:35:01.999Z</time></trkpt><trkpt lat="43.257028327682264" lon="12.947043477215804"><ele>448.0</ele><time>2026-04-11T11:35:02.999Z</time></trkpt><trkpt lat="43.2568977598824" lon="12.94715027676061"><ele>448.0</ele><time>2026-04-11T11:35:03.999Z</time></trkpt><trkpt lat="43.25676987252751" lon="12.947254710163373"><ele>448.0</ele><time>2026-04-11T11:35:04.999Z</time></trkpt><trkpt lat="43.256649006007926" lon="12.947353410291575"><ele>448.0</ele><time>2026-04-11T11:35:05.999Z</time></trkpt><trkpt lat="43.25653391558168" lon="12.947446925618205"><ele>448.0</ele><time>2026-04-11T11:35:06.999Z</time></trkpt><trkpt lat="43.25642164572394" lon="12.947534916551076"><ele>448.0</ele><time>2026-04-11T11:35:07.999Z</time></trkpt><trkpt lat="43.25631468627913" lon="12.947618193665898"><ele>448.0</ele><time>2026-04-11T11:35:08.999Z</time></trkpt><trkpt lat="43.25621073956475" lon="12.947695252162754"><ele>447.99999999999994</ele><time>2026-04-11T11:35:09.999Z</time></trkpt><trkpt lat="43.256115090412564" lon="12.947766159499329"><ele>447.99999999999994</ele><time>2026-04-11T11:35:10.999Z</time></trkpt><trkpt lat="43.25601917716734" lon="12.947830864904358"><ele>448.0</ele><time>2026-04-11T11:35:11.999Z</time></trkpt><trkpt lat="43.25592784464439" lon="12.947890990524286"><ele>448.0</ele><time>2026-04-11T11:35:12.999Z</time></trkpt><trkpt lat="43.25584059210734" lon="12.947941841061144"><ele>448.00000000000006</ele><time>2026-04-11T11:35:13.999Z</time></trkpt><trkpt lat="43.25575894012509" lon="12.947987893133995"><ele>448.0</ele><time>2026-04-11T11:35:14.999Z</time></trkpt><trkpt lat="43.255686083338055" lon="12.948024712033341"><ele>448.0</ele><time>2026-04-11T11:35:15.999Z</time></trkpt><trkpt lat="43.255573157600544" lon="12.948081780297448"><ele>448.0</ele><time>2026-04-11T11:35:17.999Z</time></trkpt><trkpt lat="43.25561375589635" lon="12.948185694524511"><ele>448.00000000000006</ele><time>2026-04-11T11:35:18.999Z</time></trkpt><trkpt lat="43.25563891418546" lon="12.948266296022831"><ele>448.0</ele><time>2026-04-11T11:35:19.999Z</time></trkpt><trkpt lat="43.25566870834715" lon="12.948382928076883"><ele>447.6666666666667</ele><time>2026-04-11T11:35:20.999Z</time></trkpt><trkpt lat="43.255695481874106" lon="12.948488776165856"><ele>447.33333333333337</ele><time>2026-04-11T11:35:21.999Z</time></trkpt><trkpt lat="43.255722641464146" lon="12.94859290501842"><ele>447.0</ele><time>2026-04-11T11:35:22.999Z</time></trkpt><trkpt lat="43.25575140735985" lon="12.948703018838165"><ele>446.66666666666663</ele><time>2026-04-11T11:35:23.999Z</time></trkpt><trkpt lat="43.25577866811667" lon="12.948807084665436"><ele>446.3333333333333</ele><time>2026-04-11T11:35:24.999Z</time></trkpt><trkpt lat="43.25580591194672" lon="12.948910922066338"><ele>446.0</ele><time>2026-04-11T11:35:25.999Z</time></trkpt><trkpt lat="43.25583472778055" lon="12.949023109019253"><ele>446.0</ele><time>2026-04-11T11:35:26.999Z</time></trkpt><trkpt lat="43.25585897181931" lon="12.94915412171105"><ele>446.0</ele><time>2026-04-11T11:35:27.999Z</time></trkpt><trkpt lat="43.25568099443348" lon="12.949225453663713"><ele>446.0</ele><time>2026-04-11T11:35:28.999Z</time></trkpt><trkpt lat="43.25559839116373" lon="12.949293885017639"><ele>446.0</ele><time>2026-04-11T11:35:29.999Z</time></trkpt><trkpt lat="43.255504442184126" lon="12.949371715812097"><ele>445.25</ele><time>2026-04-11T11:35:30.999Z</time></trkpt><trkpt lat="43.255405095891035" lon="12.949450433812064"><ele>444.5</ele><time>2026-04-11T11:35:31.999Z</time></trkpt><trkpt lat="43.25529834668578" lon="12.949535902719276"><ele>443.75</ele><time>2026-04-11T11:35:32.999Z</time></trkpt><trkpt lat="43.255211123532895" lon="12.949605738066595"><ele>443.0</ele><time>2026-04-11T11:35:33.999Z</time></trkpt><trkpt lat="43.25510039793427" lon="12.949696722990286"><ele>443.0</ele><time>2026-04-11T11:35:34.999Z</time></trkpt><trkpt lat="43.25499203528126" lon="12.949767053158459"><ele>443.0</ele><time>2026-04-11T11:35:35.999Z</time></trkpt><trkpt lat="43.25490178923109" lon="12.949852142544461"><ele>443.0</ele><time>2026-04-11T11:35:36.999Z</time></trkpt><trkpt lat="43.25481055497947" lon="12.949937843020955"><ele>443.0</ele><time>2026-04-11T11:35:37.999Z</time></trkpt><trkpt lat="43.25471227198674" lon="12.950029450248413"><ele>442.59999999999997</ele><time>2026-04-11T11:35:38.999Z</time></trkpt><trkpt lat="43.25460536872421" lon="12.950106312125078"><ele>442.19999999999993</ele><time>2026-04-11T11:35:39.999Z</time></trkpt><trkpt lat="43.25451375448898" lon="12.95018489920871"><ele>441.8</ele><time>2026-04-11T11:35:40.999Z</time></trkpt><trkpt lat="43.25443588311724" lon="12.95027231480546"><ele>441.4</ele><time>2026-04-11T11:35:41.999Z</time></trkpt><trkpt lat="43.25435821807001" lon="12.950331366598201"><ele>441.0</ele><time>2026-04-11T11:35:42.999Z</time></trkpt><trkpt lat="43.254304961713366" lon="12.95041866741293"><ele>441.0</ele><time>2026-04-11T11:35:43.999Z</time></trkpt><trkpt lat="43.25423079764765" lon="12.950474398439887"><ele>441.0</ele><time>2026-04-11T11:35:44.999Z</time></trkpt><trkpt lat="43.25417363459994" lon="12.950541145054476"><ele>441.0</ele><time>2026-04-11T11:35:45.999Z</time></trkpt><trkpt lat="43.254127016840656" lon="12.950621181323204"><ele>441.0</ele><time>2026-04-11T11:35:46.999Z</time></trkpt><trkpt lat="43.25402448793485" lon="12.950661139136255"><ele>441.0</ele><time>2026-04-11T11:35:48.999Z</time></trkpt><trkpt lat="43.253980450584955" lon="12.950736767089015"><ele>441.0</ele><time>2026-04-11T11:35:49.999Z</time></trkpt><trkpt lat="43.25391932435193" lon="12.950813153372831"><ele>440.4</ele><time>2026-04-11T11:35:50.999Z</time></trkpt><trkpt lat="43.25383816361045" lon="12.950905763829445"><ele>439.8</ele><time>2026-04-11T11:35:51.999Z</time></trkpt><trkpt lat="43.25374220471076" lon="12.95099321320563"><ele>439.19999999999993</ele><time>2026-04-11T11:35:52.999Z</time></trkpt><trkpt lat="43.25365739553659" lon="12.951070679959706"><ele>438.59999999999997</ele><time>2026-04-11T11:35:53.999Z</time></trkpt><trkpt lat="43.253577785658464" lon="12.951155138589192"><ele>438.0</ele><time>2026-04-11T11:35:54.999Z</time></trkpt><trkpt lat="43.25349111345548" lon="12.951263389481813"><ele>438.0</ele><time>2026-04-11T11:35:55.999Z</time></trkpt><trkpt lat="43.25337410437361" lon="12.951335706653925"><ele>437.99999999999994</ele><time>2026-04-11T11:35:56.999Z</time></trkpt><trkpt lat="43.25328596976428" lon="12.951433213649922"><ele>437.99999999999994</ele><time>2026-04-11T11:35:57.999Z</time></trkpt><trkpt lat="43.253196274874185" lon="12.951457405757107"><ele>438.0</ele><time>2026-04-11T11:35:58.999Z</time></trkpt><trkpt lat="43.25311233180792" lon="12.951486616463686"><ele>438.0</ele><time>2026-04-11T11:35:59.999Z</time></trkpt><trkpt lat="43.253019955398855" lon="12.951543195637093"><ele>437.2</ele><time>2026-04-11T11:36:00.999Z</time></trkpt><trkpt lat="43.25292327741442" lon="12.951607315373336"><ele>436.4</ele><time>2026-04-11T11:36:01.999Z</time></trkpt><trkpt lat="43.25283414429938" lon="12.951645950396786"><ele>435.59999999999997</ele><time>2026-04-11T11:36:02.999Z</time></trkpt><trkpt lat="43.2527568578015" lon="12.95168282038641"><ele>434.79999999999995</ele><time>2026-04-11T11:36:03.999Z</time></trkpt><trkpt lat="43.25262825771586" lon="12.951744169841843"><ele>434.0</ele><time>2026-04-11T11:36:05.999Z</time></trkpt><trkpt lat="43.25256561474319" lon="12.951772907611875"><ele>433.75</ele><time>2026-04-11T11:36:06.999Z</time></trkpt><trkpt lat="43.25247779057027" lon="12.951809989492792"><ele>433.5</ele><time>2026-04-11T11:36:08.999Z</time></trkpt><trkpt lat="43.2524019232551" lon="12.95186133993906"><ele>433.25</ele><time>2026-04-11T11:36:12.999Z</time></trkpt><trkpt lat="43.25238586053864" lon="12.952069682315543"><ele>433.0</ele><time>2026-04-11T11:36:15.999Z</time></trkpt><trkpt lat="43.25237708640842" lon="12.952244358670047"><ele>433.0</ele><time>2026-04-11T11:36:16.999Z</time></trkpt><trkpt lat="43.25236777081107" lon="12.952429814561075"><ele>433.0</ele><time>2026-04-11T11:36:17.999Z</time></trkpt><trkpt lat="43.252359593699985" lon="12.952592605451464"><ele>433.0</ele><time>2026-04-11T11:36:18.999Z</time></trkpt><trkpt lat="43.252366544421825" lon="12.952786499247825"><ele>433.0</ele><time>2026-04-11T11:36:19.999Z</time></trkpt><trkpt lat="43.25235792925967" lon="12.952960507995895"><ele>432.75</ele><time>2026-04-11T11:36:20.999Z</time></trkpt><trkpt lat="43.25234987248102" lon="12.953125993355943"><ele>432.5</ele><time>2026-04-11T11:36:21.999Z</time></trkpt><trkpt lat="43.2523482235327" lon="12.953290915387079"><ele>432.25</ele><time>2026-04-11T11:36:22.999Z</time></trkpt><trkpt lat="43.25234160573379" lon="12.953429325936508"><ele>432.0</ele><time>2026-04-11T11:36:23.999Z</time></trkpt><trkpt lat="43.252334307852635" lon="12.953598935378608"><ele>431.75</ele><time>2026-04-11T11:36:24.999Z</time></trkpt><trkpt lat="43.252308121703614" lon="12.953778482133256"><ele>431.5</ele><time>2026-04-11T11:36:25.999Z</time></trkpt><trkpt lat="43.25228560479305" lon="12.953940473410933"><ele>431.25</ele><time>2026-04-11T11:36:26.999Z</time></trkpt><trkpt lat="43.25231704879652" lon="12.954088179710938"><ele>431.0</ele><time>2026-04-11T11:36:27.999Z</time></trkpt><trkpt lat="43.25233221309951" lon="12.954244951663702"><ele>430.5</ele><time>2026-04-11T11:36:28.999Z</time></trkpt><trkpt lat="43.25237352167606" lon="12.954380102310411"><ele>430.0</ele><time>2026-04-11T11:36:29.999Z</time></trkpt><trkpt lat="43.252412351058815" lon="12.954523797538116"><ele>429.5</ele><time>2026-04-11T11:36:30.999Z</time></trkpt><trkpt lat="43.25247332363467" lon="12.954668696260825"><ele>429.0</ele><time>2026-04-11T11:36:31.999Z</time></trkpt><trkpt lat="43.25255053118852" lon="12.954813715706987"><ele>429.0</ele><time>2026-04-11T11:36:32.999Z</time></trkpt><trkpt lat="43.25265092798521" lon="12.954946243522137"><ele>429.0</ele><time>2026-04-11T11:36:33.999Z</time></trkpt><trkpt lat="43.25274785470286" lon="12.955049069481637"><ele>429.0</ele><time>2026-04-11T11:36:34.999Z</time></trkpt><trkpt lat="43.25286511499624" lon="12.95514319507717"><ele>429.0</ele><time>2026-04-11T11:36:35.999Z</time></trkpt><trkpt lat="43.2530051830123" lon="12.955203883482127"><ele>428.25</ele><time>2026-04-11T11:36:36.999Z</time></trkpt><trkpt lat="43.253133635171366" lon="12.95525881249857"><ele>427.5</ele><time>2026-04-11T11:36:37.999Z</time></trkpt><trkpt lat="43.25323752248338" lon="12.955368124511454"><ele>426.75</ele><time>2026-04-11T11:36:38.999Z</time></trkpt><trkpt lat="43.25331282667196" lon="12.955508425250319"><ele>426.0</ele><time>2026-04-11T11:36:39.999Z</time></trkpt><trkpt lat="43.25336775382486" lon="12.955654029479035"><ele>426.0</ele><time>2026-04-11T11:36:40.999Z</time></trkpt><trkpt lat="43.25342316817687" lon="12.955848980352718"><ele>426.0</ele><time>2026-04-11T11:36:41.999Z</time></trkpt><trkpt lat="43.25347665608204" lon="12.95603874478434"><ele>426.0</ele><time>2026-04-11T11:36:42.999Z</time></trkpt><trkpt lat="43.253523729572805" lon="12.956214944696672"><ele>426.0</ele><time>2026-04-11T11:36:43.999Z</time></trkpt><trkpt lat="43.25360333813768" lon="12.95634822337802"><ele>426.0</ele><time>2026-04-11T11:36:44.999Z</time></trkpt><trkpt lat="43.25365903165552" lon="12.956464116228048"><ele>426.0</ele><time>2026-04-11T11:36:45.999Z</time></trkpt><trkpt lat="43.25369917023707" lon="12.95659040345365"><ele>426.0</ele><time>2026-04-11T11:36:46.999Z</time></trkpt><trkpt lat="43.25374639424635" lon="12.95673393874104"><ele>426.0</ele><time>2026-04-11T11:36:47.999Z</time></trkpt><trkpt lat="43.25374873094095" lon="12.956875621959753"><ele>426.0</ele><time>2026-04-11T11:36:48.999Z</time></trkpt><trkpt lat="43.25358742213852" lon="12.957029179550679"><ele>426.0</ele><time>2026-04-11T11:36:49.999Z</time></trkpt><trkpt lat="43.25358586029704" lon="12.957146733495865"><ele>426.0</ele><time>2026-04-11T11:36:50.999Z</time></trkpt><trkpt lat="43.25355032793012" lon="12.957307236715298"><ele>426.0</ele><time>2026-04-11T11:36:51.999Z</time></trkpt><trkpt lat="43.25350938505767" lon="12.957495890210087"><ele>426.0</ele><time>2026-04-11T11:36:52.999Z</time></trkpt><trkpt lat="43.25348233671979" lon="12.95769980737874"><ele>426.25</ele><time>2026-04-11T11:36:53.999Z</time></trkpt><trkpt lat="43.25342195258889" lon="12.957866901733853"><ele>426.5</ele><time>2026-04-11T11:36:54.999Z</time></trkpt><trkpt lat="43.25335665991906" lon="12.95804619697849"><ele>426.75</ele><time>2026-04-11T11:36:55.999Z</time></trkpt><trkpt lat="43.25330939527635" lon="12.95825574904391"><ele>427.0</ele><time>2026-04-11T11:36:56.999Z</time></trkpt><trkpt lat="43.253282489055564" lon="12.958451471608038"><ele>426.5</ele><time>2026-04-11T11:36:57.999Z</time></trkpt><trkpt lat="43.25324134957713" lon="12.958622956247583"><ele>426.0</ele><time>2026-04-11T11:36:58.999Z</time></trkpt><trkpt lat="43.25319767802661" lon="12.95879693377516"><ele>425.5</ele><time>2026-04-11T11:36:59.999Z</time></trkpt><trkpt lat="43.253166810361975" lon="12.958979877264744"><ele>425.0</ele><time>2026-04-11T11:37:00.999Z</time></trkpt><trkpt lat="43.253113015960956" lon="12.959172002221978"><ele>424.0</ele><time>2026-04-11T11:37:01.999Z</time></trkpt><trkpt lat="43.253083874321874" lon="12.959371413227666"><ele>423.0</ele><time>2026-04-11T11:37:02.999Z</time></trkpt><trkpt lat="43.253025966611396" lon="12.959564879147734"><ele>422.0</ele><time>2026-04-11T11:37:03.999Z</time></trkpt><trkpt lat="43.25298564510847" lon="12.959762424570265"><ele>422.0</ele><time>2026-04-11T11:37:04.999Z</time></trkpt><trkpt lat="43.25297059570473" lon="12.959991947967533"><ele>422.0</ele><time>2026-04-11T11:37:05.999Z</time></trkpt><trkpt lat="43.252928074392926" lon="12.96020148308818"><ele>422.0</ele><time>2026-04-11T11:37:06.999Z</time></trkpt><trkpt lat="43.252887028590166" lon="12.960413715175015"><ele>421.66666666666663</ele><time>2026-04-11T11:37:07.999Z</time></trkpt><trkpt lat="43.252863551243934" lon="12.96062773982373"><ele>421.33333333333337</ele><time>2026-04-11T11:37:08.999Z</time></trkpt><trkpt lat="43.25282560005501" lon="12.960833645719577"><ele>421.0</ele><time>2026-04-11T11:37:09.999Z</time></trkpt><trkpt lat="43.25279298649899" lon="12.961056318741226"><ele>420.33333333333337</ele><time>2026-04-11T11:37:10.999Z</time></trkpt><trkpt lat="43.25275598535377" lon="12.961263515887373"><ele>419.66666666666663</ele><time>2026-04-11T11:37:11.999Z</time></trkpt><trkpt lat="43.25273319211209" lon="12.961476950306968"><ele>419.0</ele><time>2026-04-11T11:37:12.999Z</time></trkpt><trkpt lat="43.25271770780868" lon="12.961684466728078"><ele>419.0</ele><time>2026-04-11T11:37:13.999Z</time></trkpt><trkpt lat="43.252713779358096" lon="12.961891337692494"><ele>419.0</ele><time>2026-04-11T11:37:14.999Z</time></trkpt><trkpt lat="43.25270436764045" lon="12.96209845814217"><ele>419.0</ele><time>2026-04-11T11:37:15.999Z</time></trkpt><trkpt lat="43.252699055031805" lon="12.962318748246362"><ele>419.0</ele><time>2026-04-11T11:37:16.999Z</time></trkpt><trkpt lat="43.25274907467782" lon="12.96252727650186"><ele>419.0</ele><time>2026-04-11T11:37:17.999Z</time></trkpt><trkpt lat="43.252745445835686" lon="12.96273277434416"><ele>419.0</ele><time>2026-04-11T11:37:18.999Z</time></trkpt><trkpt lat="43.25272836336523" lon="12.96296647344635"><ele>418.66666666666663</ele><time>2026-04-11T11:37:19.999Z</time></trkpt><trkpt lat="43.25271711212079" lon="12.96318043884241"><ele>418.33333333333337</ele><time>2026-04-11T11:37:20.999Z</time></trkpt><trkpt lat="43.252714852521656" lon="12.96340578109011"><ele>418.0</ele><time>2026-04-11T11:37:21.999Z</time></trkpt><trkpt lat="43.25270017425504" lon="12.963616481612554"><ele>418.0</ele><time>2026-04-11T11:37:22.999Z</time></trkpt><trkpt lat="43.25267729087155" lon="12.963816987607723"><ele>418.0</ele><time>2026-04-11T11:37:23.999Z</time></trkpt><trkpt lat="43.25259643802282" lon="12.96399504363138"><ele>418.0</ele><time>2026-04-11T11:37:24.999Z</time></trkpt><trkpt lat="43.252527542076" lon="12.964177102220743"><ele>418.6666666666667</ele><time>2026-04-11T11:37:25.999Z</time></trkpt><trkpt lat="43.25245004566765" lon="12.964371795884158"><ele>419.33333333333337</ele><time>2026-04-11T11:37:26.999Z</time></trkpt><trkpt lat="43.25237396484605" lon="12.964558051051645"><ele>420.0</ele><time>2026-04-11T11:37:27.999Z</time></trkpt><trkpt lat="43.25229073527254" lon="12.964764131257265"><ele>418.0</ele><time>2026-04-11T11:37:28.999Z</time></trkpt><trkpt lat="43.252213458483254" lon="12.964960414909587"><ele>416.0</ele><time>2026-04-11T11:37:29.999Z</time></trkpt><trkpt lat="43.25213712400624" lon="12.965154305007125"><ele>414.0</ele><time>2026-04-11T11:37:30.999Z</time></trkpt><trkpt lat="43.25205558612791" lon="12.965360706491056"><ele>414.0</ele><time>2026-04-11T11:37:31.999Z</time></trkpt><trkpt lat="43.251974016520954" lon="12.965566628432592"><ele>414.0</ele><time>2026-04-11T11:37:32.999Z</time></trkpt><trkpt lat="43.251894247980395" lon="12.965768003696486"><ele>414.0</ele><time>2026-04-11T11:37:33.999Z</time></trkpt><trkpt lat="43.251825081319424" lon="12.965983614628598"><ele>413.66666666666663</ele><time>2026-04-11T11:37:34.999Z</time></trkpt><trkpt lat="43.25173573352063" lon="12.966191321767162"><ele>413.3333333333333</ele><time>2026-04-11T11:37:36Z</time></trkpt><trkpt lat="43.2516544958695" lon="12.966383452156535"><ele>413.0</ele><time>2026-04-11T11:37:37Z</time></trkpt><trkpt lat="43.25158398968801" lon="12.966580334838175"><ele>413.5</ele><time>2026-04-11T11:37:38Z</time></trkpt><trkpt lat="43.25151126447349" lon="12.966737393167945"><ele>414.0</ele><time>2026-04-11T11:37:39Z</time></trkpt><trkpt lat="43.25145927093526" lon="12.966917628779877"><ele>414.5</ele><time>2026-04-11T11:37:40Z</time></trkpt><trkpt lat="43.25138279719416" lon="12.967064381091316"><ele>415.0</ele><time>2026-04-11T11:37:41Z</time></trkpt><trkpt lat="43.25132419262359" lon="12.967213011530463"><ele>414.4</ele><time>2026-04-11T11:37:42Z</time></trkpt><trkpt lat="43.251266787065056" lon="12.96735747873289"><ele>413.8</ele><time>2026-04-11T11:37:43Z</time></trkpt><trkpt lat="43.25121161460377" lon="12.967491037404693"><ele>413.20000000000005</ele><time>2026-04-11T11:37:44Z</time></trkpt><trkpt lat="43.25116031779365" lon="12.967602049753609"><ele>412.6</ele><time>2026-04-11T11:37:45Z</time></trkpt><trkpt lat="43.2511075434117" lon="12.96769851538092"><ele>412.0</ele><time>2026-04-11T11:37:46Z</time></trkpt><trkpt lat="43.25103523862376" lon="12.967787705001864"><ele>412.0</ele><time>2026-04-11T11:37:47Z</time></trkpt><trkpt lat="43.25095479730599" lon="12.967853645898913"><ele>412.0</ele><time>2026-04-11T11:37:48Z</time></trkpt><trkpt lat="43.25086154292487" lon="12.967907984977368"><ele>412.0</ele><time>2026-04-11T11:37:49Z</time></trkpt><trkpt lat="43.25081607495031" lon="12.968058058269628"><ele>412.0</ele><time>2026-04-11T11:37:50Z</time></trkpt><trkpt lat="43.250760205293204" lon="12.96817912103404"><ele>412.0</ele><time>2026-04-11T11:37:51Z</time></trkpt><trkpt lat="43.2507371948162" lon="12.968333402674116"><ele>412.5</ele><time>2026-04-11T11:37:52Z</time></trkpt><trkpt lat="43.25071592785061" lon="12.968487598807151"><ele>413.0</ele><time>2026-04-11T11:37:53Z</time></trkpt><trkpt lat="43.25068407563769" lon="12.968653313774961"><ele>413.5</ele><time>2026-04-11T11:37:54Z</time></trkpt><trkpt lat="43.25063568870254" lon="12.968830150481935"><ele>414.0</ele><time>2026-04-11T11:37:55Z</time></trkpt><trkpt lat="43.250581676804245" lon="12.969008362762791"><ele>412.33333333333337</ele><time>2026-04-11T11:37:56Z</time></trkpt><trkpt lat="43.25049532246428" lon="12.969162714757848"><ele>410.6666666666667</ele><time>2026-04-11T11:37:57Z</time></trkpt><trkpt lat="43.25042859949806" lon="12.969347786011317"><ele>409.0</ele><time>2026-04-11T11:37:58Z</time></trkpt><trkpt lat="43.2504084244709" lon="12.969565960971906"><ele>408.6666666666667</ele><time>2026-04-11T11:37:59Z</time></trkpt><trkpt lat="43.2503367761426" lon="12.969765979650179"><ele>408.33333333333337</ele><time>2026-04-11T11:38:00Z</time></trkpt><trkpt lat="43.25026666065425" lon="12.969947406191023"><ele>408.0</ele><time>2026-04-11T11:38:01Z</time></trkpt><trkpt lat="43.25019089812008" lon="12.970128513344624"><ele>408.0</ele><time>2026-04-11T11:38:02Z</time></trkpt><trkpt lat="43.25010083897231" lon="12.970313590603274"><ele>408.0</ele><time>2026-04-11T11:38:03Z</time></trkpt><trkpt lat="43.25001242188837" lon="12.970496281907558"><ele>408.0</ele><time>2026-04-11T11:38:04Z</time></trkpt><trkpt lat="43.24992141845952" lon="12.970689475310751"><ele>406.66666666666663</ele><time>2026-04-11T11:38:05Z</time></trkpt><trkpt lat="43.2498516279642" lon="12.970872513108073"><ele>405.3333333333333</ele><time>2026-04-11T11:38:06Z</time></trkpt><trkpt lat="43.24976298797212" lon="12.971045322345068"><ele>404.0</ele><time>2026-04-11T11:38:07Z</time></trkpt><trkpt lat="43.249698249889974" lon="12.971252155775002"><ele>404.0</ele><time>2026-04-11T11:38:08Z</time></trkpt><trkpt lat="43.249623642114145" lon="12.971441359932934"><ele>404.0</ele><time>2026-04-11T11:38:09Z</time></trkpt><trkpt lat="43.24954582681367" lon="12.971638698379355"><ele>404.0</ele><time>2026-04-11T11:38:10Z</time></trkpt><trkpt lat="43.24945093477586" lon="12.971833854775968"><ele>405.3333333333333</ele><time>2026-04-11T11:38:11Z</time></trkpt><trkpt lat="43.24938066547881" lon="12.972043981235396"><ele>406.66666666666663</ele><time>2026-04-11T11:38:12Z</time></trkpt><trkpt lat="43.24930506375648" lon="12.972263071110858"><ele>408.0</ele><time>2026-04-11T11:38:13Z</time></trkpt><trkpt lat="43.24922193785923" lon="12.972471037145173"><ele>408.0</ele><time>2026-04-11T11:38:14Z</time></trkpt><trkpt lat="43.249139173371546" lon="12.972682400219904"><ele>408.0</ele><time>2026-04-11T11:38:15Z</time></trkpt><trkpt lat="43.24905789318018" lon="12.97288320444559"><ele>408.0</ele><time>2026-04-11T11:38:16Z</time></trkpt><trkpt lat="43.248973569136" lon="12.973075431171036"><ele>405.0</ele><time>2026-04-11T11:38:17Z</time></trkpt><trkpt lat="43.24890923448694" lon="12.973279072369634"><ele>402.0</ele><time>2026-04-11T11:38:18Z</time></trkpt><trkpt lat="43.248836370476575" lon="12.973468995151652"><ele>399.0</ele><time>2026-04-11T11:38:19Z</time></trkpt><trkpt lat="43.24877118281357" lon="12.973655258842532"><ele>398.66666666666663</ele><time>2026-04-11T11:38:20Z</time></trkpt><trkpt lat="43.2486959699577" lon="12.97383782446637"><ele>398.3333333333333</ele><time>2026-04-11T11:38:21Z</time></trkpt><trkpt lat="43.24862131942343" lon="12.974019861953215"><ele>398.0</ele><time>2026-04-11T11:38:22Z</time></trkpt><trkpt lat="43.2485885120217" lon="12.974233239964553"><ele>398.0</ele><time>2026-04-11T11:38:23Z</time></trkpt><trkpt lat="43.24851197516225" lon="12.974411884061634"><ele>398.0</ele><time>2026-04-11T11:38:24Z</time></trkpt><trkpt lat="43.24843092450926" lon="12.974617518862058"><ele>398.0</ele><time>2026-04-11T11:38:25Z</time></trkpt><trkpt lat="43.24836336671368" lon="12.974801669001435"><ele>398.0</ele><time>2026-04-11T11:38:26Z</time></trkpt><trkpt lat="43.24829422095552" lon="12.974970822617367"><ele>398.0</ele><time>2026-04-11T11:38:27Z</time></trkpt><trkpt lat="43.24821002226886" lon="12.975152830317937"><ele>398.0</ele><time>2026-04-11T11:38:28Z</time></trkpt><trkpt lat="43.24812162480762" lon="12.975334070643532"><ele>398.0</ele><time>2026-04-11T11:38:29Z</time></trkpt><trkpt lat="43.24804008453009" lon="12.975521903993801"><ele>398.0</ele><time>2026-04-11T11:38:30Z</time></trkpt><trkpt lat="43.24797405466236" lon="12.975702405108965"><ele>398.0</ele><time>2026-04-11T11:38:31Z</time></trkpt><trkpt lat="43.247906051024" lon="12.975887387819792"><ele>397.66666666666663</ele><time>2026-04-11T11:38:32Z</time></trkpt><trkpt lat="43.247835074387616" lon="12.97607264341701"><ele>397.33333333333337</ele><time>2026-04-11T11:38:33Z</time></trkpt><trkpt lat="43.24776203797567" lon="12.976271900282542"><ele>397.0</ele><time>2026-04-11T11:38:34Z</time></trkpt><trkpt lat="43.24767956471944" lon="12.976452914175521"><ele>397.0</ele><time>2026-04-11T11:38:35Z</time></trkpt><trkpt lat="43.24761372608855" lon="12.976632665187951"><ele>397.0</ele><time>2026-04-11T11:38:36Z</time></trkpt><trkpt lat="43.24757879886233" lon="12.9768281386386"><ele>397.0</ele><time>2026-04-11T11:38:37Z</time></trkpt><trkpt lat="43.24756313391647" lon="12.977024613158546"><ele>397.0</ele><time>2026-04-11T11:38:38Z</time></trkpt><trkpt lat="43.24756656552905" lon="12.977223677762321"><ele>396.33333333333337</ele><time>2026-04-11T11:38:39Z</time></trkpt><trkpt lat="43.24757482099323" lon="12.977441852114966"><ele>395.66666666666663</ele><time>2026-04-11T11:38:40Z</time></trkpt><trkpt lat="43.24757834395907" lon="12.977654254190776"><ele>395.0</ele><time>2026-04-11T11:38:41Z</time></trkpt><trkpt lat="43.24758142588597" lon="12.977872394045015"><ele>393.3333333333333</ele><time>2026-04-11T11:38:42Z</time></trkpt><trkpt lat="43.24757596564285" lon="12.978112721653146"><ele>391.66666666666663</ele><time>2026-04-11T11:38:43Z</time></trkpt><trkpt lat="43.247579890775576" lon="12.978332565008259"><ele>390.0</ele><time>2026-04-11T11:38:44Z</time></trkpt><trkpt lat="43.24759414958682" lon="12.97854391083965"><ele>387.6666666666667</ele><time>2026-04-11T11:38:45Z</time></trkpt><trkpt lat="43.24759954477843" lon="12.97875593517156"><ele>385.33333333333337</ele><time>2026-04-11T11:38:46Z</time></trkpt><trkpt lat="43.24760514221465" lon="12.978975906705065"><ele>383.0</ele><time>2026-04-11T11:38:47Z</time></trkpt><trkpt lat="43.247610906541475" lon="12.97920243675516"><ele>382.6666666666667</ele><time>2026-04-11T11:38:48Z</time></trkpt><trkpt lat="43.24761644228014" lon="12.979419983143533"><ele>382.3333333333333</ele><time>2026-04-11T11:38:49Z</time></trkpt><trkpt lat="43.24762114459749" lon="12.979604662437078"><ele>382.0</ele><time>2026-04-11T11:38:50Z</time></trkpt><trkpt lat="43.24762599046943" lon="12.979824209045283"><ele>383.0</ele><time>2026-04-11T11:38:51Z</time></trkpt><trkpt lat="43.24763048915488" lon="12.98002802573735"><ele>384.0</ele><time>2026-04-11T11:38:52Z</time></trkpt><trkpt lat="43.24767966369778" lon="12.980267668546142"><ele>385.0</ele><time>2026-04-11T11:38:53Z</time></trkpt><trkpt lat="43.24766522885691" lon="12.980475003466534"><ele>385.0</ele><time>2026-04-11T11:38:54Z</time></trkpt><trkpt lat="43.24764295468482" lon="12.980645020190323"><ele>385.0</ele><time>2026-04-11T11:38:55Z</time></trkpt><trkpt lat="43.24756982337482" lon="12.98079228442609"><ele>385.0</ele><time>2026-04-11T11:38:56Z</time></trkpt><trkpt lat="43.24749486990346" lon="12.980960786920058"><ele>385.0</ele><time>2026-04-11T11:38:57Z</time></trkpt><trkpt lat="43.247431107628934" lon="12.981112136643036"><ele>385.25</ele><time>2026-04-11T11:38:58Z</time></trkpt><trkpt lat="43.24734959573187" lon="12.981258292640243"><ele>385.5</ele><time>2026-04-11T11:38:59Z</time></trkpt><trkpt lat="43.24730430879698" lon="12.981420323109115"><ele>385.75</ele><time>2026-04-11T11:39:00Z</time></trkpt><trkpt lat="43.247296118721714" lon="12.981592457852212"><ele>386.0</ele><time>2026-04-11T11:39:01Z</time></trkpt><trkpt lat="43.24730715063931" lon="12.981747953316054"><ele>385.0</ele><time>2026-04-11T11:39:02Z</time></trkpt><trkpt lat="43.24732731398864" lon="12.981946825406105"><ele>384.0</ele><time>2026-04-11T11:39:03Z</time></trkpt><trkpt lat="43.247350279818924" lon="12.982162756342671"><ele>383.0</ele><time>2026-04-11T11:39:04Z</time></trkpt><trkpt lat="43.24737553198149" lon="12.98238809461617"><ele>382.33333333333337</ele><time>2026-04-11T11:39:05Z</time></trkpt><trkpt lat="43.24737610731518" lon="12.982655502833692"><ele>381.6666666666667</ele><time>2026-04-11T11:39:06Z</time></trkpt><trkpt lat="43.24735697218292" lon="12.982894074487447"><ele>381.0</ele><time>2026-04-11T11:39:07Z</time></trkpt><trkpt lat="43.2473231362974" lon="12.983134884527134"><ele>380.0</ele><time>2026-04-11T11:39:08Z</time></trkpt><trkpt lat="43.24728529162646" lon="12.98334440257"><ele>379.0</ele><time>2026-04-11T11:39:09Z</time></trkpt><trkpt lat="43.24723755235509" lon="12.98358447800814"><ele>378.0</ele><time>2026-04-11T11:39:10Z</time></trkpt><trkpt lat="43.24718205073145" lon="12.983812825642696"><ele>377.6666666666667</ele><time>2026-04-11T11:39:11Z</time></trkpt><trkpt lat="43.24709662407538" lon="12.984074722945513"><ele>377.33333333333337</ele><time>2026-04-11T11:39:12Z</time></trkpt><trkpt lat="43.24701263308477" lon="12.98427184400666"><ele>377.0</ele><time>2026-04-11T11:39:13Z</time></trkpt><trkpt lat="43.24692271750913" lon="12.984468002255856"><ele>377.0</ele><time>2026-04-11T11:39:14Z</time></trkpt><trkpt lat="43.24683310343051" lon="12.984656281983595"><ele>377.0</ele><time>2026-04-11T11:39:15Z</time></trkpt><trkpt lat="43.24673568287391" lon="12.984823808186217"><ele>377.0</ele><time>2026-04-11T11:39:16Z</time></trkpt><trkpt lat="43.246664498253615" lon="12.985026567974488"><ele>376.6666666666667</ele><time>2026-04-11T11:39:17Z</time></trkpt><trkpt lat="43.246597920244085" lon="12.985253218407872"><ele>376.3333333333333</ele><time>2026-04-11T11:39:18Z</time></trkpt><trkpt lat="43.24658989116181" lon="12.985491029096032"><ele>376.0</ele><time>2026-04-11T11:39:19Z</time></trkpt><trkpt lat="43.246588458783144" lon="12.985701312676772"><ele>375.0</ele><time>2026-04-11T11:39:20Z</time></trkpt><trkpt lat="43.24659947579808" lon="12.98591623217629"><ele>374.0</ele><time>2026-04-11T11:39:21Z</time></trkpt><trkpt lat="43.246609472540115" lon="12.986147431746073"><ele>373.0</ele><time>2026-04-11T11:39:22Z</time></trkpt><trkpt lat="43.24661940564782" lon="12.986377159739323"><ele>373.0</ele><time>2026-04-11T11:39:23Z</time></trkpt><trkpt lat="43.246628065217045" lon="12.986613405476202"><ele>373.0</ele><time>2026-04-11T11:39:24Z</time></trkpt><trkpt lat="43.24667923657673" lon="12.986880531501171"><ele>373.0</ele><time>2026-04-11T11:39:25Z</time></trkpt><trkpt lat="43.24670210768825" lon="12.987136032857372"><ele>373.66666666666663</ele><time>2026-04-11T11:39:26Z</time></trkpt><trkpt lat="43.24669075963227" lon="12.987352038458713"><ele>374.3333333333333</ele><time>2026-04-11T11:39:27Z</time></trkpt><trkpt lat="43.246690336116394" lon="12.987580457996756"><ele>375.0</ele><time>2026-04-11T11:39:28Z</time></trkpt><trkpt lat="43.24670401569179" lon="12.987787124763186"><ele>376.0</ele><time>2026-04-11T11:39:29Z</time></trkpt><trkpt lat="43.24670891535887" lon="12.987988392158028"><ele>377.0</ele><time>2026-04-11T11:39:30Z</time></trkpt><trkpt lat="43.24670964511898" lon="12.988193676880725"><ele>378.0</ele><time>2026-04-11T11:39:31Z</time></trkpt><trkpt lat="43.24668843421247" lon="12.988368952004945"><ele>379.0</ele><time>2026-04-11T11:39:32Z</time></trkpt><trkpt lat="43.246642342275" lon="12.988524795000478"><ele>379.0</ele><time>2026-04-11T11:39:33Z</time></trkpt><trkpt lat="43.24656232539277" lon="12.988663668472674"><ele>379.0</ele><time>2026-04-11T11:39:34Z</time></trkpt><trkpt lat="43.246452029268795" lon="12.988787469264263"><ele>379.0</ele><time>2026-04-11T11:39:35Z</time></trkpt><trkpt lat="43.24632692681803" lon="12.988898163758465"><ele>379.0</ele><time>2026-04-11T11:39:36Z</time></trkpt><trkpt lat="43.24617325948555" lon="12.989013983623142"><ele>380.0</ele><time>2026-04-11T11:39:37Z</time></trkpt><trkpt lat="43.246013007514826" lon="12.989136331344067"><ele>381.0</ele><time>2026-04-11T11:39:38Z</time></trkpt><trkpt lat="43.245862052383146" lon="12.989251668386666"><ele>382.0</ele><time>2026-04-11T11:39:39Z</time></trkpt><trkpt lat="43.24573219660158" lon="12.989356495715441"><ele>382.5</ele><time>2026-04-11T11:39:40Z</time></trkpt><trkpt lat="43.24561889087465" lon="12.989449193820338"><ele>383.0</ele><time>2026-04-11T11:39:41Z</time></trkpt><trkpt lat="43.245508358507465" lon="12.98953973780097"><ele>383.5</ele><time>2026-04-11T11:39:42Z</time></trkpt><trkpt lat="43.24540569816004" lon="12.989623833122295"><ele>384.0</ele><time>2026-04-11T11:39:43Z</time></trkpt><trkpt lat="43.2453110589308" lon="12.989701357969807"><ele>384.0</ele><time>2026-04-11T11:39:44Z</time></trkpt><trkpt lat="43.24513458913459" lon="12.989680350241988"><ele>384.0</ele><time>2026-04-11T11:39:46Z</time></trkpt><trkpt lat="43.24500122385108" lon="12.989703316146747"><ele>384.0</ele><time>2026-04-11T11:39:47Z</time></trkpt><trkpt lat="43.24488933878065" lon="12.989776098037423"><ele>384.0</ele><time>2026-04-11T11:39:48Z</time></trkpt><trkpt lat="43.244796284169844" lon="12.989890509433272"><ele>384.0</ele><time>2026-04-11T11:39:49Z</time></trkpt><trkpt lat="43.24475091752048" lon="12.990007329135905"><ele>384.0</ele><time>2026-04-11T11:39:50Z</time></trkpt><trkpt lat="43.24471399263788" lon="12.990149348056793"><ele>384.0</ele><time>2026-04-11T11:39:51Z</time></trkpt><trkpt lat="43.2446042685828" lon="12.99024445667001"><ele>384.0</ele><time>2026-04-11T11:39:52Z</time></trkpt><trkpt lat="43.24450182364814" lon="12.990309574358541"><ele>384.0</ele><time>2026-04-11T11:39:53Z</time></trkpt><trkpt lat="43.24438029918674" lon="12.9903983362164"><ele>384.66666666666663</ele><time>2026-04-11T11:39:54Z</time></trkpt><trkpt lat="43.244256739737686" lon="12.990516368608302"><ele>385.3333333333333</ele><time>2026-04-11T11:39:55Z</time></trkpt><trkpt lat="43.24410824626563" lon="12.990610396613993"><ele>386.0</ele><time>2026-04-11T11:39:56Z</time></trkpt><trkpt lat="43.243942224243014" lon="12.990739098091208"><ele>385.0</ele><time>2026-04-11T11:39:57Z</time></trkpt><trkpt lat="43.24376862630466" lon="12.990873670859559"><ele>384.0</ele><time>2026-04-11T11:39:58Z</time></trkpt><trkpt lat="43.243585709122605" lon="12.991017140592165"><ele>383.0</ele><time>2026-04-11T11:39:59Z</time></trkpt><trkpt lat="43.24339265891193" lon="12.991192908784509"><ele>383.0</ele><time>2026-04-11T11:40:00Z</time></trkpt><trkpt lat="43.24317716996253" lon="12.99134032004246"><ele>383.0</ele><time>2026-04-11T11:40:01Z</time></trkpt><trkpt lat="43.24294872445581" lon="12.991509187032284"><ele>381.5</ele><time>2026-04-11T11:40:02Z</time></trkpt><trkpt lat="43.242714615937274" lon="12.99168376612502"><ele>380.0</ele><time>2026-04-11T11:40:03Z</time></trkpt><trkpt lat="43.24249983636613" lon="12.991852137284813"><ele>380.0</ele><time>2026-04-11T11:40:04Z</time></trkpt><trkpt lat="43.242323520828236" lon="12.991989756415984"><ele>380.0</ele><time>2026-04-11T11:40:05Z</time></trkpt><trkpt lat="43.24216488073386" lon="12.992119366418539"><ele>380.0</ele><time>2026-04-11T11:40:06Z</time></trkpt><trkpt lat="43.24201009832145" lon="12.992238882480748"><ele>382.0</ele><time>2026-04-11T11:40:07Z</time></trkpt><trkpt lat="43.24186792432681" lon="12.992368360882725"><ele>384.0</ele><time>2026-04-11T11:40:08Z</time></trkpt><trkpt lat="43.241744576915096" lon="12.992502673152533"><ele>386.0</ele><time>2026-04-11T11:40:09Z</time></trkpt><trkpt lat="43.24165321932322" lon="12.992644821115663"><ele>387.0</ele><time>2026-04-11T11:40:10Z</time></trkpt><trkpt lat="43.24157526443847" lon="12.99278433208551"><ele>388.0</ele><time>2026-04-11T11:40:11Z</time></trkpt><trkpt lat="43.241496482535894" lon="12.992935141768813"><ele>389.0</ele><time>2026-04-11T11:40:12Z</time></trkpt><trkpt lat="43.241476052895614" lon="12.993085129275183"><ele>390.0</ele><time>2026-04-11T11:40:13Z</time></trkpt><trkpt lat="43.24148051637353" lon="12.993211901369548"><ele>390.0</ele><time>2026-04-11T11:40:14Z</time></trkpt><trkpt lat="43.241520754787295" lon="12.993287933055695"><ele>390.0</ele><time>2026-04-11T11:40:15Z</time></trkpt><trkpt lat="43.241572104802685" lon="12.993376973964757"><ele>390.0</ele><time>2026-04-11T11:40:16Z</time></trkpt><trkpt lat="43.24165916542702" lon="12.993442688358222"><ele>390.0</ele><time>2026-04-11T11:40:17Z</time></trkpt><trkpt lat="43.24177524532361" lon="12.993505305798582"><ele>390.0</ele><time>2026-04-11T11:40:18Z</time></trkpt><trkpt lat="43.241912151030526" lon="12.993547120802832"><ele>388.0</ele><time>2026-04-11T11:40:19Z</time></trkpt><trkpt lat="43.242039742248934" lon="12.993644634835702"><ele>386.0</ele><time>2026-04-11T11:40:20Z</time></trkpt><trkpt lat="43.242181608680056" lon="12.99376526031741"><ele>384.0</ele><time>2026-04-11T11:40:21Z</time></trkpt><trkpt lat="43.242318704020875" lon="12.993908507602345"><ele>384.0</ele><time>2026-04-11T11:40:22Z</time></trkpt><trkpt lat="43.2424733162785" lon="12.994104756588406"><ele>384.0</ele><time>2026-04-11T11:40:23Z</time></trkpt><trkpt lat="43.24261950262935" lon="12.994319344694889"><ele>384.0</ele><time>2026-04-11T11:40:24Z</time></trkpt><trkpt lat="43.24277996585221" lon="12.994578852507377"><ele>384.0</ele><time>2026-04-11T11:40:25Z</time></trkpt><trkpt lat="43.24290512782978" lon="12.994865660094275"><ele>384.0</ele><time>2026-04-11T11:40:26Z</time></trkpt><trkpt lat="43.24304285713802" lon="12.995145310657263"><ele>382.0</ele><time>2026-04-11T11:40:27Z</time></trkpt><trkpt lat="43.24313337611455" lon="12.995425537361816"><ele>380.0</ele><time>2026-04-11T11:40:28Z</time></trkpt><trkpt lat="43.24324443071119" lon="12.995667344680658"><ele>378.0</ele><time>2026-04-11T11:40:29Z</time></trkpt><trkpt lat="43.243356164553525" lon="12.995911704559617"><ele>377.6666666666667</ele><time>2026-04-11T11:40:30Z</time></trkpt><trkpt lat="43.24345050636314" lon="12.996144230368579"><ele>377.33333333333337</ele><time>2026-04-11T11:40:31Z</time></trkpt><trkpt lat="43.243553338478435" lon="12.996350212321701"><ele>377.0</ele><time>2026-04-11T11:40:32Z</time></trkpt><trkpt lat="43.24362228854034" lon="12.996544930514963"><ele>376.33333333333337</ele><time>2026-04-11T11:40:33Z</time></trkpt><trkpt lat="43.243725147266595" lon="12.996728332090592"><ele>375.6666666666667</ele><time>2026-04-11T11:40:34Z</time></trkpt><trkpt lat="43.24382045012738" lon="12.996927319015766"><ele>375.0</ele><time>2026-04-11T11:40:35Z</time></trkpt><trkpt lat="43.243915696429724" lon="12.997118821702365"><ele>374.3333333333333</ele><time>2026-04-11T11:40:36Z</time></trkpt><trkpt lat="43.24398498371435" lon="12.99731470835606"><ele>373.66666666666663</ele><time>2026-04-11T11:40:37Z</time></trkpt><trkpt lat="43.2440770050123" lon="12.997484266530194"><ele>373.0</ele><time>2026-04-11T11:40:38Z</time></trkpt><trkpt lat="43.24414372460238" lon="12.99765154252881"><ele>373.0</ele><time>2026-04-11T11:40:39Z</time></trkpt><trkpt lat="43.24420814125718" lon="12.997811738273123"><ele>373.0</ele><time>2026-04-11T11:40:40Z</time></trkpt><trkpt lat="43.244261493564444" lon="12.997973283405218"><ele>373.0</ele><time>2026-04-11T11:40:41Z</time></trkpt><trkpt lat="43.244337372652424" lon="12.998134717013144"><ele>373.0</ele><time>2026-04-11T11:40:42Z</time></trkpt><trkpt lat="43.244416283638536" lon="12.998275523836837"><ele>372.75</ele><time>2026-04-11T11:40:43Z</time></trkpt><trkpt lat="43.24448076057838" lon="12.998421146335462"><ele>372.5</ele><time>2026-04-11T11:40:44Z</time></trkpt><trkpt lat="43.2445470976046" lon="12.998578565869785"><ele>372.25</ele><time>2026-04-11T11:40:45Z</time></trkpt><trkpt lat="43.2446028647837" lon="12.998714375729692"><ele>372.0</ele><time>2026-04-11T11:40:46Z</time></trkpt><trkpt lat="43.24466266014184" lon="12.998845005616772"><ele>372.0</ele><time>2026-04-11T11:40:47Z</time></trkpt><trkpt lat="43.24470844435815" lon="12.998990525862357"><ele>372.0</ele><time>2026-04-11T11:40:48Z</time></trkpt><trkpt lat="43.24473551790718" lon="12.99913546674782"><ele>372.0</ele><time>2026-04-11T11:40:49Z</time></trkpt><trkpt lat="43.244779712792756" lon="12.999234771854471"><ele>372.0</ele><time>2026-04-11T11:40:50Z</time></trkpt><trkpt lat="43.24481754785758" lon="12.999347045623974"><ele>372.0</ele><time>2026-04-11T11:40:51Z</time></trkpt><trkpt lat="43.24485218492584" lon="12.999534132425497"><ele>372.20000000000005</ele><time>2026-04-11T11:40:52Z</time></trkpt><trkpt lat="43.24493965511507" lon="12.999627525124286"><ele>372.4</ele><time>2026-04-11T11:40:53Z</time></trkpt><trkpt lat="43.24502694259084" lon="12.999673698275185"><ele>372.6</ele><time>2026-04-11T11:40:54Z</time></trkpt><trkpt lat="43.24507701042815" lon="12.999784518785091"><ele>372.79999999999995</ele><time>2026-04-11T11:40:55Z</time></trkpt><trkpt lat="43.24511335301812" lon="12.999865490455983"><ele>373.0</ele><time>2026-04-11T11:40:56Z</time></trkpt><trkpt lat="43.24515963724533" lon="12.999992376199883"><ele>373.0</ele><time>2026-04-11T11:40:58Z</time></trkpt><trkpt lat="43.2451662271036" lon="13.000078618783622"><ele>373.0</ele><time>2026-04-11T11:41:01Z</time></trkpt><trkpt lat="43.24531780880229" lon="13.000294187873516"><ele>373.0</ele><time>2026-04-11T11:41:03Z</time></trkpt><trkpt lat="43.24542073566278" lon="13.00017152268766"><ele>373.0</ele><time>2026-04-11T11:41:05Z</time></trkpt><trkpt lat="43.24548790546577" lon="13.000091471403772"><ele>373.0</ele><time>2026-04-11T11:41:06Z</time></trkpt><trkpt lat="43.24556123387212" lon="13.000004080393353"><ele>373.0</ele><time>2026-04-11T11:41:07Z</time></trkpt><trkpt lat="43.24562477567046" lon="12.999910329442896"><ele>373.0</ele><time>2026-04-11T11:41:08Z</time></trkpt><trkpt lat="43.24568996097097" lon="12.999825769321816"><ele>373.0</ele><time>2026-04-11T11:41:09Z</time></trkpt><trkpt lat="43.24575162307775" lon="12.999755545249519"><ele>373.0</ele><time>2026-04-11T11:41:10Z</time></trkpt><trkpt lat="43.245818785624884" lon="12.999697136613731"><ele>373.0</ele><time>2026-04-11T11:41:11Z</time></trkpt><trkpt lat="43.24586654250568" lon="12.999640221169507"><ele>372.79999999999995</ele><time>2026-04-11T11:41:12Z</time></trkpt><trkpt lat="43.245960722759754" lon="12.999547918407496"><ele>372.6</ele><time>2026-04-11T11:41:14Z</time></trkpt><trkpt lat="43.24601966249561" lon="12.999696391674492"><ele>372.4</ele><time>2026-04-11T11:41:16Z</time></trkpt><trkpt lat="43.24608289181141" lon="12.99983801036219"><ele>372.20000000000005</ele><time>2026-04-11T11:41:18Z</time></trkpt><trkpt lat="43.24611683189907" lon="12.999913892430461"><ele>372.0</ele><time>2026-04-11T11:41:19Z</time></trkpt><trkpt lat="43.2461498426841" lon="12.999987696784743"><ele>372.0</ele><time>2026-04-11T11:41:20Z</time></trkpt><trkpt lat="43.24620956995688" lon="13.000079619170075"><ele>372.0</ele><time>2026-04-11T11:41:22Z</time></trkpt><trkpt lat="43.24639506090143" lon="13.000338243924066"><ele>372.0</ele><time>2026-04-11T11:42:58.452Z</time></trkpt><trkpt lat="43.24646651531142" lon="13.000600697099264"><ele>372.0</ele><time>2026-04-11T11:43:04.864Z</time></trkpt><trkpt lat="43.24640743916343" lon="13.000450631506576"><ele>372.0</ele><time>2026-04-11T11:43:06.069Z</time></trkpt><trkpt lat="43.24627774253296" lon="13.000023838663985"><ele>372.0</ele><time>2026-04-11T11:43:28.51Z</time></trkpt></trkseg></trk></gpx>